<?xml version="1.0" encoding="UTF-8" standalone="no" ?>
<gpx xmlns="http://www.topografix.com/GPX/1/1" xmlns:xsi="http://www.w3.org/2001/XMLSchema-instance" xsi:schemaLocation="http://www.topografix.com/GPX/1/1 http://www.topografix.com/GPX/1/1/gpx.xsd" version="1.1" creator="VisuGPX - https://www.visugpx.com">
  <metadata>
    <name>Landévant Fort-bloqué 80km</name>
    <desc><![CDATA[Landévant Fort-bloqué 80km]]></desc>
  </metadata>
  <wpt lat="38.85555" lon="-94.79902">
    <ele>333.5</ele>
    <name><![CDATA[GARMIN]]></name>
  </wpt>
  <wpt lat="50.98288" lon="-1.4639">
    <ele>33.5</ele>
    <name><![CDATA[GRMEUR]]></name>
  </wpt>
  <wpt lat="25.06178" lon="121.64027">
    <ele>19</ele>
    <name><![CDATA[GRMTWN]]></name>
  </wpt>
  <wpt lat="47.87632" lon="-3.01188">
    <ele>86.9</ele>
    <name><![CDATA[H]]></name>
  </wpt>
  <trk>
    <name><![CDATA[Fort bloqué Auray_2]]></name>
    <extensions>
      <line xmlns="http://www.topografix.com/GPX/gpx_style/0/2">
        <color>00FF00</color>
        <width>4</width>
      </line>
    </extensions>
    <trkseg>
      <trkpt lat="47.71303" lon="-3.43677">
        <ele>-101.357727</ele>
        <time>2020-12-29T17:32:29.000Z</time>
      </trkpt>
      <trkpt lat="47.71338" lon="-3.43671">
        <ele>-101.357727</ele>
        <time>2020-12-29T17:32:23.000Z</time>
      </trkpt>
      <trkpt lat="47.71376" lon="-3.43668">
        <ele>-101.357727</ele>
        <time>2020-12-29T17:32:16.000Z</time>
      </trkpt>
      <trkpt lat="47.71391" lon="-3.43666">
        <ele>-101.357727</ele>
        <time>2020-12-29T17:32:13.000Z</time>
      </trkpt>
      <trkpt lat="47.71441" lon="-3.43662">
        <ele>-101.337089</ele>
        <time>2020-12-29T17:32:04.000Z</time>
      </trkpt>
      <trkpt lat="47.71451" lon="-3.4366">
        <ele>-101.311993</ele>
        <time>2020-12-29T17:32:02.000Z</time>
      </trkpt>
      <trkpt lat="47.71461" lon="-3.43659">
        <ele>-101.288107</ele>
        <time>2020-12-29T17:32:00.000Z</time>
      </trkpt>
      <trkpt lat="47.7147" lon="-3.43657">
        <ele>-101.265208</ele>
        <time>2020-12-29T17:31:58.000Z</time>
      </trkpt>
      <trkpt lat="47.71479" lon="-3.43655">
        <ele>-101.245083</ele>
        <time>2020-12-29T17:31:56.000Z</time>
      </trkpt>
      <trkpt lat="47.71491" lon="-3.43655">
        <ele>-101.215553</ele>
        <time>2020-12-29T17:31:53.000Z</time>
      </trkpt>
      <trkpt lat="47.7151" lon="-3.43655">
        <ele>-101.170186</ele>
        <time>2020-12-29T17:31:49.000Z</time>
      </trkpt>
      <trkpt lat="47.71514" lon="-3.43655">
        <ele>-101.1589</ele>
        <time>2020-12-29T17:31:48.000Z</time>
      </trkpt>
      <trkpt lat="47.7154" lon="-3.43651">
        <ele>-101.096177</ele>
        <time>2020-12-29T17:31:43.000Z</time>
      </trkpt>
      <trkpt lat="47.71546" lon="-3.4365">
        <ele>-101.082162</ele>
        <time>2020-12-29T17:31:42.000Z</time>
      </trkpt>
      <trkpt lat="47.71588" lon="-3.43644">
        <ele>-100.980722</ele>
        <time>2020-12-29T17:31:35.000Z</time>
      </trkpt>
      <trkpt lat="47.71595" lon="-3.43644">
        <ele>-100.96584</ele>
        <time>2020-12-29T17:31:34.000Z</time>
      </trkpt>
      <trkpt lat="47.71607" lon="-3.43644">
        <ele>-100.936556</ele>
        <time>2020-12-29T17:31:32.000Z</time>
      </trkpt>
      <trkpt lat="47.71624" lon="-3.43642">
        <ele>-100.645505</ele>
        <time>2020-12-29T17:31:29.000Z</time>
      </trkpt>
      <trkpt lat="47.71658" lon="-3.43638">
        <ele>-99.920024</ele>
        <time>2020-12-29T17:31:23.000Z</time>
      </trkpt>
      <trkpt lat="47.71675" lon="-3.43637">
        <ele>-99.545941</ele>
        <time>2020-12-29T17:31:20.000Z</time>
      </trkpt>
      <trkpt lat="47.7168" lon="-3.43636">
        <ele>-99.424764</ele>
        <time>2020-12-29T17:31:19.000Z</time>
      </trkpt>
      <trkpt lat="47.71691" lon="-3.43634">
        <ele>-99.203836</ele>
        <time>2020-12-29T17:31:17.000Z</time>
      </trkpt>
      <trkpt lat="47.71695" lon="-3.43633">
        <ele>-99.109827</ele>
        <time>2020-12-29T17:31:16.000Z</time>
      </trkpt>
      <trkpt lat="47.71706" lon="-3.43632">
        <ele>-98.876183</ele>
        <time>2020-12-29T17:31:12.000Z</time>
      </trkpt>
      <trkpt lat="47.71741" lon="-3.43626">
        <ele>-98.104613</ele>
        <time>2020-12-29T17:31:05.000Z</time>
      </trkpt>
      <trkpt lat="47.71747" lon="-3.43626">
        <ele>-97.978922</ele>
        <time>2020-12-29T17:31:04.000Z</time>
      </trkpt>
      <trkpt lat="47.7177" lon="-3.43622">
        <ele>-97.486542</ele>
        <time>2020-12-29T17:31:00.000Z</time>
      </trkpt>
      <trkpt lat="47.71775" lon="-3.43623">
        <ele>-97.367601</ele>
        <time>2020-12-29T17:30:59.000Z</time>
      </trkpt>
      <trkpt lat="47.71781" lon="-3.43624">
        <ele>-97.250384</ele>
        <time>2020-12-29T17:30:58.000Z</time>
      </trkpt>
      <trkpt lat="47.71786" lon="-3.43624">
        <ele>-97.135675</ele>
        <time>2020-12-29T17:30:57.000Z</time>
      </trkpt>
      <trkpt lat="47.71806" lon="-3.4362">
        <ele>-96.688065</ele>
        <time>2020-12-29T17:30:53.000Z</time>
      </trkpt>
      <trkpt lat="47.71814" lon="-3.43619">
        <ele>-96.506247</ele>
        <time>2020-12-29T17:30:51.000Z</time>
      </trkpt>
      <trkpt lat="47.7182" lon="-3.43622">
        <ele>-96.343782</ele>
        <time>2020-12-29T17:30:49.000Z</time>
      </trkpt>
      <trkpt lat="47.71836" lon="-3.43618">
        <ele>-95.974185</ele>
        <time>2020-12-29T17:30:45.000Z</time>
      </trkpt>
      <trkpt lat="47.71841" lon="-3.43615">
        <ele>-95.867725</ele>
        <time>2020-12-29T17:30:44.000Z</time>
      </trkpt>
      <trkpt lat="47.7186" lon="-3.43611">
        <ele>-95.420385</ele>
        <time>2020-12-29T17:30:40.000Z</time>
      </trkpt>
      <trkpt lat="47.71875" lon="-3.43611">
        <ele>-95.077276</ele>
        <time>2020-12-29T17:30:37.000Z</time>
      </trkpt>
      <trkpt lat="47.71907" lon="-3.43605">
        <ele>-94.359632</ele>
        <time>2020-12-29T17:30:30.000Z</time>
      </trkpt>
      <trkpt lat="47.71939" lon="-3.43595">
        <ele>-93.607989</ele>
        <time>2020-12-29T17:30:23.000Z</time>
      </trkpt>
      <trkpt lat="47.71954" lon="-3.43591">
        <ele>-93.272778</ele>
        <time>2020-12-29T17:30:20.000Z</time>
      </trkpt>
      <trkpt lat="47.71968" lon="-3.43586">
        <ele>-92.937066</ele>
        <time>2020-12-29T17:30:17.000Z</time>
      </trkpt>
      <trkpt lat="47.72001" lon="-3.4357">
        <ele>-92.344441</ele>
        <time>2020-12-29T17:30:10.000Z</time>
      </trkpt>
      <trkpt lat="47.72031" lon="-3.43562">
        <ele>-91.83157</ele>
        <time>2020-12-29T17:30:04.000Z</time>
      </trkpt>
      <trkpt lat="47.72054" lon="-3.43552">
        <ele>-91.418966</ele>
        <time>2020-12-29T17:29:59.000Z</time>
      </trkpt>
      <trkpt lat="47.72085" lon="-3.43541">
        <ele>-90.885977</ele>
        <time>2020-12-29T17:29:53.000Z</time>
      </trkpt>
      <trkpt lat="47.7209" lon="-3.43538">
        <ele>-90.79777</ele>
        <time>2020-12-29T17:29:52.000Z</time>
      </trkpt>
      <trkpt lat="47.72118" lon="-3.43518">
        <ele>-90.260591</ele>
        <time>2020-12-29T17:29:46.000Z</time>
      </trkpt>
      <trkpt lat="47.72123" lon="-3.43514">
        <ele>-90.168942</ele>
        <time>2020-12-29T17:29:45.000Z</time>
      </trkpt>
      <trkpt lat="47.72138" lon="-3.43502">
        <ele>-89.91259</ele>
        <time>2020-12-29T17:29:42.000Z</time>
      </trkpt>
      <trkpt lat="47.72148" lon="-3.43495">
        <ele>-90.083477</ele>
        <time>2020-12-29T17:29:40.000Z</time>
      </trkpt>
      <trkpt lat="47.72161" lon="-3.43486">
        <ele>-90.309447</ele>
        <time>2020-12-29T17:29:37.000Z</time>
      </trkpt>
      <trkpt lat="47.72172" lon="-3.43478">
        <ele>-90.508243</ele>
        <time>2020-12-29T17:29:34.000Z</time>
      </trkpt>
      <trkpt lat="47.72194" lon="-3.43468">
        <ele>-90.864277</ele>
        <time>2020-12-29T17:29:28.000Z</time>
      </trkpt>
      <trkpt lat="47.72198" lon="-3.43466">
        <ele>-90.923966</ele>
        <time>2020-12-29T17:29:27.000Z</time>
      </trkpt>
      <trkpt lat="47.72212" lon="-3.43462">
        <ele>-91.158105</ele>
        <time>2020-12-29T17:29:23.000Z</time>
      </trkpt>
      <trkpt lat="47.72215" lon="-3.43461">
        <ele>-91.210644</ele>
        <time>2020-12-29T17:29:22.000Z</time>
      </trkpt>
      <trkpt lat="47.72226" lon="-3.43459">
        <ele>-91.385067</ele>
        <time>2020-12-29T17:29:19.000Z</time>
      </trkpt>
      <trkpt lat="47.72242" lon="-3.43459">
        <ele>-91.63253</ele>
        <time>2020-12-29T17:29:15.000Z</time>
      </trkpt>
      <trkpt lat="47.72259" lon="-3.43461">
        <ele>-91.901581</ele>
        <time>2020-12-29T17:29:11.000Z</time>
      </trkpt>
      <trkpt lat="47.72276" lon="-3.43463">
        <ele>-92.173348</ele>
        <time>2020-12-29T17:29:07.000Z</time>
      </trkpt>
      <trkpt lat="47.72291" lon="-3.43465">
        <ele>-92.398602</ele>
        <time>2020-12-29T17:29:04.000Z</time>
      </trkpt>
      <trkpt lat="47.72314" lon="-3.4347">
        <ele>-92.672023</ele>
        <time>2020-12-29T17:28:59.000Z</time>
      </trkpt>
      <trkpt lat="47.72345" lon="-3.43474">
        <ele>-92.012514</ele>
        <time>2020-12-29T17:28:52.000Z</time>
      </trkpt>
      <trkpt lat="47.72381" lon="-3.43478">
        <ele>-91.278873</ele>
        <time>2020-12-29T17:28:45.000Z</time>
      </trkpt>
      <trkpt lat="47.72393" lon="-3.43479">
        <ele>-91.026284</ele>
        <time>2020-12-29T17:28:43.000Z</time>
      </trkpt>
      <trkpt lat="47.72418" lon="-3.43481">
        <ele>-90.506051</ele>
        <time>2020-12-29T17:28:39.000Z</time>
      </trkpt>
      <trkpt lat="47.7243" lon="-3.43483">
        <ele>-90.24459</ele>
        <time>2020-12-29T17:28:37.000Z</time>
      </trkpt>
      <trkpt lat="47.72442" lon="-3.43484">
        <ele>-89.987396</ele>
        <time>2020-12-29T17:28:35.000Z</time>
      </trkpt>
      <trkpt lat="47.7246" lon="-3.43487">
        <ele>-89.624868</ele>
        <time>2020-12-29T17:28:32.000Z</time>
      </trkpt>
      <trkpt lat="47.7247" lon="-3.43488">
        <ele>-89.404944</ele>
        <time>2020-12-29T17:28:30.000Z</time>
      </trkpt>
      <trkpt lat="47.72484" lon="-3.43489">
        <ele>-89.11049</ele>
        <time>2020-12-29T17:28:27.000Z</time>
      </trkpt>
      <trkpt lat="47.72502" lon="-3.43491">
        <ele>-88.722321</ele>
        <time>2020-12-29T17:28:23.000Z</time>
      </trkpt>
      <trkpt lat="47.72517" lon="-3.43487">
        <ele>-88.384338</ele>
        <time>2020-12-29T17:28:19.000Z</time>
      </trkpt>
      <trkpt lat="47.72526" lon="-3.43492">
        <ele>-88.154561</ele>
        <time>2020-12-29T17:28:15.000Z</time>
      </trkpt>
      <trkpt lat="47.72528" lon="-3.43494">
        <ele>-88.096997</ele>
        <time>2020-12-29T17:28:14.000Z</time>
      </trkpt>
      <trkpt lat="47.72537" lon="-3.43495">
        <ele>-87.885348</ele>
        <time>2020-12-29T17:28:10.000Z</time>
      </trkpt>
      <trkpt lat="47.72539" lon="-3.43494">
        <ele>-87.831502</ele>
        <time>2020-12-29T17:28:09.000Z</time>
      </trkpt>
      <trkpt lat="47.72541" lon="-3.43486">
        <ele>-87.702768</ele>
        <time>2020-12-29T17:28:06.000Z</time>
      </trkpt>
      <trkpt lat="47.72544" lon="-3.43472">
        <ele>-87.483768</ele>
        <time>2020-12-29T17:28:03.000Z</time>
      </trkpt>
      <trkpt lat="47.72549" lon="-3.43456">
        <ele>-87.213633</ele>
        <time>2020-12-29T17:28:00.000Z</time>
      </trkpt>
      <trkpt lat="47.72554" lon="-3.43446">
        <ele>-87.023686</ele>
        <time>2020-12-29T17:27:58.000Z</time>
      </trkpt>
      <trkpt lat="47.7256" lon="-3.43435">
        <ele>-86.805924</ele>
        <time>2020-12-29T17:27:56.000Z</time>
      </trkpt>
      <trkpt lat="47.72571" lon="-3.43419">
        <ele>-86.461095</ele>
        <time>2020-12-29T17:27:53.000Z</time>
      </trkpt>
      <trkpt lat="47.7259" lon="-3.43394">
        <ele>-85.879639</ele>
        <time>2020-12-29T17:27:48.000Z</time>
      </trkpt>
      <trkpt lat="47.72602" lon="-3.4338">
        <ele>-85.541987</ele>
        <time>2020-12-29T17:27:45.000Z</time>
      </trkpt>
      <trkpt lat="47.72623" lon="-3.4336">
        <ele>-84.973185</ele>
        <time>2020-12-29T17:27:40.000Z</time>
      </trkpt>
      <trkpt lat="47.72652" lon="-3.43338">
        <ele>-84.472277</ele>
        <time>2020-12-29T17:27:33.000Z</time>
      </trkpt>
      <trkpt lat="47.72689" lon="-3.43314">
        <ele>-83.902549</ele>
        <time>2020-12-29T17:27:25.000Z</time>
      </trkpt>
      <trkpt lat="47.72698" lon="-3.4331">
        <ele>-83.769434</ele>
        <time>2020-12-29T17:27:23.000Z</time>
      </trkpt>
      <trkpt lat="47.72715" lon="-3.43307">
        <ele>-83.515688</ele>
        <time>2020-12-29T17:27:19.000Z</time>
      </trkpt>
      <trkpt lat="47.72726" lon="-3.43302">
        <ele>-83.3604</ele>
        <time>2020-12-29T17:27:16.000Z</time>
      </trkpt>
      <trkpt lat="47.72728" lon="-3.433">
        <ele>-83.317349</ele>
        <time>2020-12-29T17:27:15.000Z</time>
      </trkpt>
      <trkpt lat="47.72737" lon="-3.43293">
        <ele>-83.178355</ele>
        <time>2020-12-29T17:27:11.000Z</time>
      </trkpt>
      <trkpt lat="47.72773" lon="-3.43276">
        <ele>-82.632088</ele>
        <time>2020-12-29T17:27:02.000Z</time>
      </trkpt>
      <trkpt lat="47.72782" lon="-3.43272">
        <ele>-82.501539</ele>
        <time>2020-12-29T17:27:00.000Z</time>
      </trkpt>
      <trkpt lat="47.72786" lon="-3.4327">
        <ele>-82.434499</ele>
        <time>2020-12-29T17:26:59.000Z</time>
      </trkpt>
      <trkpt lat="47.72804" lon="-3.43262">
        <ele>-82.2078</ele>
        <time>2020-12-29T17:26:55.000Z</time>
      </trkpt>
      <trkpt lat="47.72824" lon="-3.43254">
        <ele>-81.977668</ele>
        <time>2020-12-29T17:26:50.000Z</time>
      </trkpt>
      <trkpt lat="47.72855" lon="-3.43244">
        <ele>-81.614836</ele>
        <time>2020-12-29T17:26:43.000Z</time>
      </trkpt>
      <trkpt lat="47.72875" lon="-3.43236">
        <ele>-81.385686</ele>
        <time>2020-12-29T17:26:38.000Z</time>
      </trkpt>
      <trkpt lat="47.72879" lon="-3.43234">
        <ele>-81.341605</ele>
        <time>2020-12-29T17:26:37.000Z</time>
      </trkpt>
      <trkpt lat="47.72898" lon="-3.43229">
        <ele>-81.119317</ele>
        <time>2020-12-29T17:26:32.000Z</time>
      </trkpt>
      <trkpt lat="47.72922" lon="-3.43225">
        <ele>-80.847169</ele>
        <time>2020-12-29T17:26:26.000Z</time>
      </trkpt>
      <trkpt lat="47.72935" lon="-3.43226">
        <ele>-80.708202</ele>
        <time>2020-12-29T17:26:23.000Z</time>
      </trkpt>
      <trkpt lat="47.72948" lon="-3.43223">
        <ele>-80.562125</ele>
        <time>2020-12-29T17:26:20.000Z</time>
      </trkpt>
      <trkpt lat="47.7297" lon="-3.43219">
        <ele>-80.314984</ele>
        <time>2020-12-29T17:26:15.000Z</time>
      </trkpt>
      <trkpt lat="47.72979" lon="-3.43217">
        <ele>-80.429427</ele>
        <time>2020-12-29T17:26:13.000Z</time>
      </trkpt>
      <trkpt lat="47.72996" lon="-3.4321">
        <ele>-80.664577</ele>
        <time>2020-12-29T17:26:09.000Z</time>
      </trkpt>
      <trkpt lat="47.73" lon="-3.43208">
        <ele>-80.720726</ele>
        <time>2020-12-29T17:26:08.000Z</time>
      </trkpt>
      <trkpt lat="47.73036" lon="-3.43207">
        <ele>-81.201421</ele>
        <time>2020-12-29T17:26:00.000Z</time>
      </trkpt>
      <trkpt lat="47.73054" lon="-3.43206">
        <ele>-81.437712</ele>
        <time>2020-12-29T17:25:56.000Z</time>
      </trkpt>
      <trkpt lat="47.73075" lon="-3.43206">
        <ele>-81.723351</ele>
        <time>2020-12-29T17:25:51.000Z</time>
      </trkpt>
      <trkpt lat="47.73102" lon="-3.43201">
        <ele>-82.090274</ele>
        <time>2020-12-29T17:25:44.000Z</time>
      </trkpt>
      <trkpt lat="47.73106" lon="-3.432">
        <ele>-82.144739</ele>
        <time>2020-12-29T17:25:43.000Z</time>
      </trkpt>
      <trkpt lat="47.73134" lon="-3.43189">
        <ele>-82.532584</ele>
        <time>2020-12-29T17:25:36.000Z</time>
      </trkpt>
      <trkpt lat="47.73158" lon="-3.43176">
        <ele>-82.852261</ele>
        <time>2020-12-29T17:25:30.000Z</time>
      </trkpt>
      <trkpt lat="47.73186" lon="-3.43158">
        <ele>-83.229621</ele>
        <time>2020-12-29T17:25:23.000Z</time>
      </trkpt>
      <trkpt lat="47.7319" lon="-3.43156">
        <ele>-83.280534</ele>
        <time>2020-12-29T17:25:22.000Z</time>
      </trkpt>
      <trkpt lat="47.73206" lon="-3.4315">
        <ele>-83.475867</ele>
        <time>2020-12-29T17:25:18.000Z</time>
      </trkpt>
      <trkpt lat="47.73213" lon="-3.43147">
        <ele>-83.569855</ele>
        <time>2020-12-29T17:25:16.000Z</time>
      </trkpt>
      <trkpt lat="47.73218" lon="-3.43144">
        <ele>-83.631298</ele>
        <time>2020-12-29T17:25:14.000Z</time>
      </trkpt>
      <trkpt lat="47.73226" lon="-3.43144">
        <ele>-83.722309</ele>
        <time>2020-12-29T17:25:10.000Z</time>
      </trkpt>
      <trkpt lat="47.73228" lon="-3.43147">
        <ele>-83.759438</ele>
        <time>2020-12-29T17:25:09.000Z</time>
      </trkpt>
      <trkpt lat="47.73231" lon="-3.4316">
        <ele>-83.873933</ele>
        <time>2020-12-29T17:25:06.000Z</time>
      </trkpt>
      <trkpt lat="47.73229" lon="-3.4319">
        <ele>-84.119377</ele>
        <time>2020-12-29T17:25:00.000Z</time>
      </trkpt>
      <trkpt lat="47.73229" lon="-3.43195">
        <ele>-84.159465</ele>
        <time>2020-12-29T17:24:59.000Z</time>
      </trkpt>
      <trkpt lat="47.73222" lon="-3.4323">
        <ele>-84.459404</ele>
        <time>2020-12-29T17:24:53.000Z</time>
      </trkpt>
      <trkpt lat="47.73221" lon="-3.43235">
        <ele>-84.501566</ele>
        <time>2020-12-29T17:24:52.000Z</time>
      </trkpt>
      <trkpt lat="47.73221" lon="-3.43244">
        <ele>-84.574247</ele>
        <time>2020-12-29T17:24:48.000Z</time>
      </trkpt>
      <trkpt lat="47.73223" lon="-3.43255">
        <ele>-84.67289</ele>
        <time>2020-12-29T17:24:45.000Z</time>
      </trkpt>
      <trkpt lat="47.73225" lon="-3.4326">
        <ele>-84.714614</ele>
        <time>2020-12-29T17:24:44.000Z</time>
      </trkpt>
      <trkpt lat="47.73235" lon="-3.43267">
        <ele>-84.850891</ele>
        <time>2020-12-29T17:24:40.000Z</time>
      </trkpt>
      <trkpt lat="47.73244" lon="-3.43272">
        <ele>-84.892828</ele>
        <time>2020-12-29T17:24:37.000Z</time>
      </trkpt>
      <trkpt lat="47.73259" lon="-3.43283">
        <ele>-84.889124</ele>
        <time>2020-12-29T17:24:33.000Z</time>
      </trkpt>
      <trkpt lat="47.73263" lon="-3.43286">
        <ele>-84.888161</ele>
        <time>2020-12-29T17:24:32.000Z</time>
      </trkpt>
      <trkpt lat="47.73275" lon="-3.43292">
        <ele>-84.885405</ele>
        <time>2020-12-29T17:24:29.000Z</time>
      </trkpt>
      <trkpt lat="47.73292" lon="-3.43291">
        <ele>-84.881656</ele>
        <time>2020-12-29T17:24:25.000Z</time>
      </trkpt>
      <trkpt lat="47.73319" lon="-3.4329">
        <ele>-84.875847</ele>
        <time>2020-12-29T17:24:18.000Z</time>
      </trkpt>
      <trkpt lat="47.73326" lon="-3.4329">
        <ele>-84.874287</ele>
        <time>2020-12-29T17:24:16.000Z</time>
      </trkpt>
      <trkpt lat="47.73333" lon="-3.43291">
        <ele>-84.872702</ele>
        <time>2020-12-29T17:24:14.000Z</time>
      </trkpt>
      <trkpt lat="47.73358" lon="-3.43288">
        <ele>-84.867154</ele>
        <time>2020-12-29T17:24:08.000Z</time>
      </trkpt>
      <trkpt lat="47.73363" lon="-3.43288">
        <ele>-84.86619</ele>
        <time>2020-12-29T17:24:07.000Z</time>
      </trkpt>
      <trkpt lat="47.73377" lon="-3.43292">
        <ele>-84.862986</ele>
        <time>2020-12-29T17:24:03.000Z</time>
      </trkpt>
      <trkpt lat="47.73391" lon="-3.43293">
        <ele>-84.860005</ele>
        <time>2020-12-29T17:23:58.000Z</time>
      </trkpt>
      <trkpt lat="47.73405" lon="-3.43291">
        <ele>-84.856878</ele>
        <time>2020-12-29T17:23:53.000Z</time>
      </trkpt>
      <trkpt lat="47.73429" lon="-3.43288">
        <ele>-84.709097</ele>
        <time>2020-12-29T17:23:47.000Z</time>
      </trkpt>
      <trkpt lat="47.73448" lon="-3.43287">
        <ele>-84.523704</ele>
        <time>2020-12-29T17:23:42.000Z</time>
      </trkpt>
      <trkpt lat="47.7346" lon="-3.43288">
        <ele>-84.40072</ele>
        <time>2020-12-29T17:23:38.000Z</time>
      </trkpt>
      <trkpt lat="47.73476" lon="-3.43289">
        <ele>-84.236397</ele>
        <time>2020-12-29T17:23:33.000Z</time>
      </trkpt>
      <trkpt lat="47.7348" lon="-3.43289">
        <ele>-84.196504</ele>
        <time>2020-12-29T17:23:32.000Z</time>
      </trkpt>
      <trkpt lat="47.73489" lon="-3.43286">
        <ele>-84.105982</ele>
        <time>2020-12-29T17:23:29.000Z</time>
      </trkpt>
      <trkpt lat="47.73493" lon="-3.43283">
        <ele>-84.058602</ele>
        <time>2020-12-29T17:23:27.000Z</time>
      </trkpt>
      <trkpt lat="47.73497" lon="-3.43282">
        <ele>-84.020412</ele>
        <time>2020-12-29T17:23:25.000Z</time>
      </trkpt>
      <trkpt lat="47.73502" lon="-3.43282">
        <ele>-83.967669</ele>
        <time>2020-12-29T17:23:21.000Z</time>
      </trkpt>
      <trkpt lat="47.73512" lon="-3.43282">
        <ele>-83.870152</ele>
        <time>2020-12-29T17:23:18.000Z</time>
      </trkpt>
      <trkpt lat="47.73516" lon="-3.43281">
        <ele>-83.834555</ele>
        <time>2020-12-29T17:23:17.000Z</time>
      </trkpt>
      <trkpt lat="47.7352" lon="-3.43279">
        <ele>-83.795068</ele>
        <time>2020-12-29T17:23:16.000Z</time>
      </trkpt>
      <trkpt lat="47.73532" lon="-3.43276">
        <ele>-83.668297</ele>
        <time>2020-12-29T17:23:13.000Z</time>
      </trkpt>
      <trkpt lat="47.7354" lon="-3.43274">
        <ele>-83.585817</ele>
        <time>2020-12-29T17:23:11.000Z</time>
      </trkpt>
      <trkpt lat="47.73569" lon="-3.43266">
        <ele>-83.295332</ele>
        <time>2020-12-29T17:23:04.000Z</time>
      </trkpt>
      <trkpt lat="47.73601" lon="-3.43256">
        <ele>-83.130234</ele>
        <time>2020-12-29T17:22:57.000Z</time>
      </trkpt>
      <trkpt lat="47.73628" lon="-3.4325">
        <ele>-83.325392</ele>
        <time>2020-12-29T17:22:51.000Z</time>
      </trkpt>
      <trkpt lat="47.73636" lon="-3.43249">
        <ele>-83.378807</ele>
        <time>2020-12-29T17:22:49.000Z</time>
      </trkpt>
      <trkpt lat="47.73643" lon="-3.43248">
        <ele>-83.425224</ele>
        <time>2020-12-29T17:22:47.000Z</time>
      </trkpt>
      <trkpt lat="47.73647" lon="-3.43248">
        <ele>-83.45599</ele>
        <time>2020-12-29T17:22:45.000Z</time>
      </trkpt>
      <trkpt lat="47.73651" lon="-3.43251">
        <ele>-83.486898</ele>
        <time>2020-12-29T17:22:43.000Z</time>
      </trkpt>
      <trkpt lat="47.7366" lon="-3.4326">
        <ele>-83.561512</ele>
        <time>2020-12-29T17:22:39.000Z</time>
      </trkpt>
      <trkpt lat="47.73672" lon="-3.43246">
        <ele>-83.669286</ele>
        <time>2020-12-29T17:22:34.000Z</time>
      </trkpt>
      <trkpt lat="47.73692" lon="-3.4323">
        <ele>-83.829208</ele>
        <time>2020-12-29T17:22:28.000Z</time>
      </trkpt>
      <trkpt lat="47.73718" lon="-3.43218">
        <ele>-84.018047</ele>
        <time>2020-12-29T17:22:21.000Z</time>
      </trkpt>
      <trkpt lat="47.73725" lon="-3.43213">
        <ele>-84.074571</ele>
        <time>2020-12-29T17:22:19.000Z</time>
      </trkpt>
      <trkpt lat="47.73752" lon="-3.43199">
        <ele>-84.272258</ele>
        <time>2020-12-29T17:22:12.000Z</time>
      </trkpt>
      <trkpt lat="47.73756" lon="-3.43197">
        <ele>-84.300941</ele>
        <time>2020-12-29T17:22:11.000Z</time>
      </trkpt>
      <trkpt lat="47.73787" lon="-3.43178">
        <ele>-84.960879</ele>
        <time>2020-12-29T17:22:03.000Z</time>
      </trkpt>
      <trkpt lat="47.73803" lon="-3.43176">
        <ele>-85.27093</ele>
        <time>2020-12-29T17:21:59.000Z</time>
      </trkpt>
      <trkpt lat="47.73818" lon="-3.43187">
        <ele>-85.624286</ele>
        <time>2020-12-29T17:21:54.000Z</time>
      </trkpt>
      <trkpt lat="47.7383" lon="-3.43183">
        <ele>-85.878825</ele>
        <time>2020-12-29T17:21:50.000Z</time>
      </trkpt>
      <trkpt lat="47.7384" lon="-3.43176">
        <ele>-86.099694</ele>
        <time>2020-12-29T17:21:47.000Z</time>
      </trkpt>
      <trkpt lat="47.73856" lon="-3.43167">
        <ele>-86.448391</ele>
        <time>2020-12-29T17:21:42.000Z</time>
      </trkpt>
      <trkpt lat="47.7387" lon="-3.43167">
        <ele>-86.724616</ele>
        <time>2020-12-29T17:21:38.000Z</time>
      </trkpt>
      <trkpt lat="47.73872" lon="-3.43168">
        <ele>-86.788911</ele>
        <time>2020-12-29T17:21:37.000Z</time>
      </trkpt>
      <trkpt lat="47.73886" lon="-3.43176">
        <ele>-87.085213</ele>
        <time>2020-12-29T17:21:33.000Z</time>
      </trkpt>
      <trkpt lat="47.73902" lon="-3.43185">
        <ele>-87.428499</ele>
        <time>2020-12-29T17:21:29.000Z</time>
      </trkpt>
      <trkpt lat="47.73937" lon="-3.43195">
        <ele>-88.066689</ele>
        <time>2020-12-29T17:21:21.000Z</time>
      </trkpt>
      <trkpt lat="47.73968" lon="-3.43204">
        <ele>-88.316979</ele>
        <time>2020-12-29T17:21:14.000Z</time>
      </trkpt>
      <trkpt lat="47.73974" lon="-3.43205">
        <ele>-88.361385</ele>
        <time>2020-12-29T17:21:13.000Z</time>
      </trkpt>
      <trkpt lat="47.74004" lon="-3.43207">
        <ele>-88.597736</ele>
        <time>2020-12-29T17:21:06.000Z</time>
      </trkpt>
      <trkpt lat="47.74012" lon="-3.43207">
        <ele>-88.664059</ele>
        <time>2020-12-29T17:21:04.000Z</time>
      </trkpt>
      <trkpt lat="47.74039" lon="-3.43212">
        <ele>-88.875373</ele>
        <time>2020-12-29T17:20:59.000Z</time>
      </trkpt>
      <trkpt lat="47.74057" lon="-3.43214">
        <ele>-89.014829</ele>
        <time>2020-12-29T17:20:55.000Z</time>
      </trkpt>
      <trkpt lat="47.74066" lon="-3.43214">
        <ele>-89.092979</ele>
        <time>2020-12-29T17:20:53.000Z</time>
      </trkpt>
      <trkpt lat="47.74071" lon="-3.43216">
        <ele>-89.13399</ele>
        <time>2020-12-29T17:20:52.000Z</time>
      </trkpt>
      <trkpt lat="47.74107" lon="-3.43232">
        <ele>-89.406728</ele>
        <time>2020-12-29T17:20:46.000Z</time>
      </trkpt>
      <trkpt lat="47.74125" lon="-3.43241">
        <ele>-89.011899</ele>
        <time>2020-12-29T17:20:43.000Z</time>
      </trkpt>
      <trkpt lat="47.74135" lon="-3.43246">
        <ele>-88.785874</ele>
        <time>2020-12-29T17:20:41.000Z</time>
      </trkpt>
      <trkpt lat="47.74166" lon="-3.4326">
        <ele>-88.07944</ele>
        <time>2020-12-29T17:20:35.000Z</time>
      </trkpt>
      <trkpt lat="47.742" lon="-3.4328">
        <ele>-87.311126</ele>
        <time>2020-12-29T17:20:29.000Z</time>
      </trkpt>
      <trkpt lat="47.7423" lon="-3.43304">
        <ele>-86.571541</ele>
        <time>2020-12-29T17:20:23.000Z</time>
      </trkpt>
      <trkpt lat="47.74236" lon="-3.43308">
        <ele>-86.431559</ele>
        <time>2020-12-29T17:20:22.000Z</time>
      </trkpt>
      <trkpt lat="47.74242" lon="-3.43312">
        <ele>-86.286947</ele>
        <time>2020-12-29T17:20:21.000Z</time>
      </trkpt>
      <trkpt lat="47.74262" lon="-3.4332">
        <ele>-85.854488</ele>
        <time>2020-12-29T17:20:18.000Z</time>
      </trkpt>
      <trkpt lat="47.74268" lon="-3.43322">
        <ele>-85.707354</ele>
        <time>2020-12-29T17:20:17.000Z</time>
      </trkpt>
      <trkpt lat="47.74281" lon="-3.43327">
        <ele>-85.427374</ele>
        <time>2020-12-29T17:20:15.000Z</time>
      </trkpt>
      <trkpt lat="47.743" lon="-3.43337">
        <ele>-85.016258</ele>
        <time>2020-12-29T17:20:12.000Z</time>
      </trkpt>
      <trkpt lat="47.74306" lon="-3.4334">
        <ele>-84.887934</ele>
        <time>2020-12-29T17:20:11.000Z</time>
      </trkpt>
      <trkpt lat="47.74318" lon="-3.43343">
        <ele>-84.645242</ele>
        <time>2020-12-29T17:20:09.000Z</time>
      </trkpt>
      <trkpt lat="47.74335" lon="-3.43348">
        <ele>-84.269124</ele>
        <time>2020-12-29T17:20:06.000Z</time>
      </trkpt>
      <trkpt lat="47.74373" lon="-3.43361">
        <ele>-83.471162</ele>
        <time>2020-12-29T17:19:59.000Z</time>
      </trkpt>
      <trkpt lat="47.74415" lon="-3.43376">
        <ele>-82.589869</ele>
        <time>2020-12-29T17:19:52.000Z</time>
      </trkpt>
      <trkpt lat="47.74454" lon="-3.4339">
        <ele>-81.903078</ele>
        <time>2020-12-29T17:19:46.000Z</time>
      </trkpt>
      <trkpt lat="47.74473" lon="-3.43397">
        <ele>-82.087462</ele>
        <time>2020-12-29T17:19:43.000Z</time>
      </trkpt>
      <trkpt lat="47.74491" lon="-3.43399">
        <ele>-82.262011</ele>
        <time>2020-12-29T17:19:40.000Z</time>
      </trkpt>
      <trkpt lat="47.7453" lon="-3.43398">
        <ele>-82.631574</ele>
        <time>2020-12-29T17:19:34.000Z</time>
      </trkpt>
      <trkpt lat="47.74561" lon="-3.43397">
        <ele>-82.924609</ele>
        <time>2020-12-29T17:19:29.000Z</time>
      </trkpt>
      <trkpt lat="47.74574" lon="-3.43396">
        <ele>-83.050488</ele>
        <time>2020-12-29T17:19:27.000Z</time>
      </trkpt>
      <trkpt lat="47.74601" lon="-3.43396">
        <ele>-83.304715</ele>
        <time>2020-12-29T17:19:23.000Z</time>
      </trkpt>
      <trkpt lat="47.74629" lon="-3.43397">
        <ele>-83.560625</ele>
        <time>2020-12-29T17:19:19.000Z</time>
      </trkpt>
      <trkpt lat="47.74668" lon="-3.43403">
        <ele>-83.74748</ele>
        <time>2020-12-29T17:19:13.000Z</time>
      </trkpt>
      <trkpt lat="47.74709" lon="-3.43416">
        <ele>-83.941828</ele>
        <time>2020-12-29T17:19:07.000Z</time>
      </trkpt>
      <trkpt lat="47.74749" lon="-3.43442">
        <ele>-84.143332</ele>
        <time>2020-12-29T17:19:00.000Z</time>
      </trkpt>
      <trkpt lat="47.74754" lon="-3.43446">
        <ele>-84.171881</ele>
        <time>2020-12-29T17:18:59.000Z</time>
      </trkpt>
      <trkpt lat="47.74793" lon="-3.43478">
        <ele>-84.379685</ele>
        <time>2020-12-29T17:18:52.000Z</time>
      </trkpt>
      <trkpt lat="47.74822" lon="-3.43495">
        <ele>-84.776593</ele>
        <time>2020-12-29T17:18:47.000Z</time>
      </trkpt>
      <trkpt lat="47.74855" lon="-3.43501">
        <ele>-85.251585</ele>
        <time>2020-12-29T17:18:41.000Z</time>
      </trkpt>
      <trkpt lat="47.74871" lon="-3.43503">
        <ele>-85.478841</ele>
        <time>2020-12-29T17:18:37.000Z</time>
      </trkpt>
      <trkpt lat="47.74875" lon="-3.43503">
        <ele>-85.542596</ele>
        <time>2020-12-29T17:18:35.000Z</time>
      </trkpt>
      <trkpt lat="47.74879" lon="-3.43502">
        <ele>-85.60017</ele>
        <time>2020-12-29T17:18:24.000Z</time>
      </trkpt>
      <trkpt lat="47.74879" lon="-3.43502">
        <ele>-85.613768</ele>
        <time>2020-12-29T17:18:21.000Z</time>
      </trkpt>
      <trkpt lat="47.74879" lon="-3.43501">
        <ele>-85.621163</ele>
        <time>2020-12-29T17:18:20.000Z</time>
      </trkpt>
      <trkpt lat="47.74888" lon="-3.43492">
        <ele>-85.777368</ele>
        <time>2020-12-29T17:18:16.000Z</time>
      </trkpt>
      <trkpt lat="47.74892" lon="-3.43487">
        <ele>-85.850632</ele>
        <time>2020-12-29T17:18:15.000Z</time>
      </trkpt>
      <trkpt lat="47.74901" lon="-3.43481">
        <ele>-85.99607</ele>
        <time>2020-12-29T17:18:13.000Z</time>
      </trkpt>
      <trkpt lat="47.74911" lon="-3.43474">
        <ele>-86.146127</ele>
        <time>2020-12-29T17:18:11.000Z</time>
      </trkpt>
      <trkpt lat="47.74956" lon="-3.43449">
        <ele>-86.82505</ele>
        <time>2020-12-29T17:18:02.000Z</time>
      </trkpt>
      <trkpt lat="47.74994" lon="-3.43434">
        <ele>-87.494295</ele>
        <time>2020-12-29T17:17:55.000Z</time>
      </trkpt>
    </trkseg>
  </trk>
  <trk>
    <name><![CDATA[Fort bloqué Auray_3]]></name>
    <extensions>
      <line xmlns="http://www.topografix.com/GPX/gpx_style/0/2">
        <color>FF0000</color>
        <width>4</width>
      </line>
    </extensions>
    <trkseg>
      <trkpt lat="47.70486" lon="-3.42419">
        <ele>-79.369576</ele>
        <time>2020-12-29T09:30:16.000Z</time>
      </trkpt>
      <trkpt lat="47.70478" lon="-3.42401">
        <ele>-79.369576</ele>
        <time>2020-12-29T09:30:19.000Z</time>
      </trkpt>
      <trkpt lat="47.7047" lon="-3.42387">
        <ele>-79.369576</ele>
        <time>2020-12-29T09:30:21.000Z</time>
      </trkpt>
      <trkpt lat="47.70459" lon="-3.42373">
        <ele>-79.369576</ele>
        <time>2020-12-29T09:30:24.000Z</time>
      </trkpt>
      <trkpt lat="47.70444" lon="-3.4236">
        <ele>-79.369576</ele>
        <time>2020-12-29T09:30:27.000Z</time>
      </trkpt>
      <trkpt lat="47.70439" lon="-3.42357">
        <ele>-79.369576</ele>
        <time>2020-12-29T09:30:28.000Z</time>
      </trkpt>
      <trkpt lat="47.70435" lon="-3.42355">
        <ele>-79.369576</ele>
        <time>2020-12-29T09:30:29.000Z</time>
      </trkpt>
      <trkpt lat="47.7043" lon="-3.42353">
        <ele>-79.369576</ele>
        <time>2020-12-29T09:30:30.000Z</time>
      </trkpt>
      <trkpt lat="47.70421" lon="-3.42347">
        <ele>-79.369576</ele>
        <time>2020-12-29T09:30:32.000Z</time>
      </trkpt>
      <trkpt lat="47.70416" lon="-3.42342">
        <ele>-79.369576</ele>
        <time>2020-12-29T09:30:33.000Z</time>
      </trkpt>
      <trkpt lat="47.70382" lon="-3.42311">
        <ele>-78.904294</ele>
        <time>2020-12-29T09:30:40.000Z</time>
      </trkpt>
      <trkpt lat="47.70343" lon="-3.42281">
        <ele>-78.387181</ele>
        <time>2020-12-29T09:30:48.000Z</time>
      </trkpt>
      <trkpt lat="47.70338" lon="-3.42279">
        <ele>-78.329356</ele>
        <time>2020-12-29T09:30:49.000Z</time>
      </trkpt>
      <trkpt lat="47.70329" lon="-3.42274">
        <ele>-78.212809</ele>
        <time>2020-12-29T09:30:51.000Z</time>
      </trkpt>
      <trkpt lat="47.70322" lon="-3.42265">
        <ele>-78.098223</ele>
        <time>2020-12-29T09:30:53.000Z</time>
      </trkpt>
      <trkpt lat="47.70315" lon="-3.42252">
        <ele>-77.976194</ele>
        <time>2020-12-29T09:30:55.000Z</time>
      </trkpt>
      <trkpt lat="47.70306" lon="-3.42235">
        <ele>-77.800628</ele>
        <time>2020-12-29T09:30:58.000Z</time>
      </trkpt>
      <trkpt lat="47.70302" lon="-3.4223">
        <ele>-77.744167</ele>
        <time>2020-12-29T09:30:59.000Z</time>
      </trkpt>
      <trkpt lat="47.7029" lon="-3.42222">
        <ele>-77.581196</ele>
        <time>2020-12-29T09:31:02.000Z</time>
      </trkpt>
      <trkpt lat="47.70286" lon="-3.4222">
        <ele>-77.529907</ele>
        <time>2020-12-29T09:31:03.000Z</time>
      </trkpt>
      <trkpt lat="47.70271" lon="-3.42217">
        <ele>-77.354743</ele>
        <time>2020-12-29T09:31:07.000Z</time>
      </trkpt>
      <trkpt lat="47.70269" lon="-3.42214">
        <ele>-77.321095</ele>
        <time>2020-12-29T09:31:08.000Z</time>
      </trkpt>
      <trkpt lat="47.70258" lon="-3.42205">
        <ele>-77.199262</ele>
        <time>2020-12-29T09:31:12.000Z</time>
      </trkpt>
      <trkpt lat="47.70252" lon="-3.422">
        <ele>-77.136328</ele>
        <time>2020-12-29T09:31:15.000Z</time>
      </trkpt>
      <trkpt lat="47.70251" lon="-3.42198">
        <ele>-77.115975</ele>
        <time>2020-12-29T09:31:16.000Z</time>
      </trkpt>
      <trkpt lat="47.7025" lon="-3.42179">
        <ele>-77.008842</ele>
        <time>2020-12-29T09:31:20.000Z</time>
      </trkpt>
      <trkpt lat="47.70247" lon="-3.42171">
        <ele>-76.953998</ele>
        <time>2020-12-29T09:31:22.000Z</time>
      </trkpt>
      <trkpt lat="47.70244" lon="-3.42168">
        <ele>-76.921978</ele>
        <time>2020-12-29T09:31:23.000Z</time>
      </trkpt>
      <trkpt lat="47.70227" lon="-3.42165">
        <ele>-76.778052</ele>
        <time>2020-12-29T09:31:27.000Z</time>
      </trkpt>
      <trkpt lat="47.70215" lon="-3.42157">
        <ele>-76.660365</ele>
        <time>2020-12-29T09:31:30.000Z</time>
      </trkpt>
      <trkpt lat="47.70203" lon="-3.42136">
        <ele>-76.498029</ele>
        <time>2020-12-29T09:31:34.000Z</time>
      </trkpt>
      <trkpt lat="47.702" lon="-3.4213">
        <ele>-76.454938</ele>
        <time>2020-12-29T09:31:35.000Z</time>
      </trkpt>
      <trkpt lat="47.70197" lon="-3.42124">
        <ele>-76.410494</ele>
        <time>2020-12-29T09:31:36.000Z</time>
      </trkpt>
      <trkpt lat="47.70185" lon="-3.42112">
        <ele>-76.284475</ele>
        <time>2020-12-29T09:31:39.000Z</time>
      </trkpt>
      <trkpt lat="47.70176" lon="-3.42096">
        <ele>-76.165037</ele>
        <time>2020-12-29T09:31:42.000Z</time>
      </trkpt>
      <trkpt lat="47.70173" lon="-3.42091">
        <ele>-76.126789</ele>
        <time>2020-12-29T09:31:43.000Z</time>
      </trkpt>
      <trkpt lat="47.70168" lon="-3.4207">
        <ele>-75.995299</ele>
        <time>2020-12-29T09:31:47.000Z</time>
      </trkpt>
      <trkpt lat="47.70163" lon="-3.42052">
        <ele>-75.882606</ele>
        <time>2020-12-29T09:31:50.000Z</time>
      </trkpt>
      <trkpt lat="47.70157" lon="-3.4204">
        <ele>-75.796436</ele>
        <time>2020-12-29T09:31:52.000Z</time>
      </trkpt>
      <trkpt lat="47.70148" lon="-3.42023">
        <ele>-75.709326</ele>
        <time>2020-12-29T09:31:55.000Z</time>
      </trkpt>
      <trkpt lat="47.70142" lon="-3.42004">
        <ele>-75.800848</ele>
        <time>2020-12-29T09:31:58.000Z</time>
      </trkpt>
      <trkpt lat="47.70134" lon="-3.4197">
        <ele>-75.957128</ele>
        <time>2020-12-29T09:32:04.000Z</time>
      </trkpt>
      <trkpt lat="47.70134" lon="-3.41964">
        <ele>-75.984324</ele>
        <time>2020-12-29T09:32:05.000Z</time>
      </trkpt>
      <trkpt lat="47.70135" lon="-3.41944">
        <ele>-76.07019</ele>
        <time>2020-12-29T09:32:08.000Z</time>
      </trkpt>
      <trkpt lat="47.7013" lon="-3.41926">
        <ele>-76.15621</ele>
        <time>2020-12-29T09:32:11.000Z</time>
      </trkpt>
      <trkpt lat="47.70129" lon="-3.41921">
        <ele>-76.182601</ele>
        <time>2020-12-29T09:32:12.000Z</time>
      </trkpt>
      <trkpt lat="47.70126" lon="-3.41896">
        <ele>-76.291254</ele>
        <time>2020-12-29T09:32:16.000Z</time>
      </trkpt>
      <trkpt lat="47.70126" lon="-3.41889">
        <ele>-76.324169</ele>
        <time>2020-12-29T09:32:17.000Z</time>
      </trkpt>
      <trkpt lat="47.70127" lon="-3.41872">
        <ele>-76.396629</ele>
        <time>2020-12-29T09:32:19.000Z</time>
      </trkpt>
      <trkpt lat="47.70129" lon="-3.41839">
        <ele>-76.54292</ele>
        <time>2020-12-29T09:32:23.000Z</time>
      </trkpt>
      <trkpt lat="47.70129" lon="-3.41825">
        <ele>-76.604367</ele>
        <time>2020-12-29T09:32:25.000Z</time>
      </trkpt>
      <trkpt lat="47.70129" lon="-3.4181">
        <ele>-76.671024</ele>
        <time>2020-12-29T09:32:27.000Z</time>
      </trkpt>
      <trkpt lat="47.70127" lon="-3.41795">
        <ele>-76.739285</ele>
        <time>2020-12-29T09:32:29.000Z</time>
      </trkpt>
      <trkpt lat="47.70122" lon="-3.41772">
        <ele>-76.844502</ele>
        <time>2020-12-29T09:32:32.000Z</time>
      </trkpt>
      <trkpt lat="47.70108" lon="-3.41729">
        <ele>-76.763431</ele>
        <time>2020-12-29T09:32:38.000Z</time>
      </trkpt>
      <trkpt lat="47.70097" lon="-3.41684">
        <ele>-76.655351</ele>
        <time>2020-12-29T09:32:44.000Z</time>
      </trkpt>
      <trkpt lat="47.70092" lon="-3.41636">
        <ele>-76.544534</ele>
        <time>2020-12-29T09:32:50.000Z</time>
      </trkpt>
      <trkpt lat="47.70093" lon="-3.41614">
        <ele>-76.493347</ele>
        <time>2020-12-29T09:32:53.000Z</time>
      </trkpt>
      <trkpt lat="47.70093" lon="-3.41599">
        <ele>-76.460125</ele>
        <time>2020-12-29T09:32:55.000Z</time>
      </trkpt>
      <trkpt lat="47.701" lon="-3.41546">
        <ele>-76.337098</ele>
        <time>2020-12-29T09:33:02.000Z</time>
      </trkpt>
      <trkpt lat="47.70106" lon="-3.41508">
        <ele>-76.263948</ele>
        <time>2020-12-29T09:33:07.000Z</time>
      </trkpt>
      <trkpt lat="47.70111" lon="-3.41496">
        <ele>-76.318726</ele>
        <time>2020-12-29T09:33:09.000Z</time>
      </trkpt>
      <trkpt lat="47.70124" lon="-3.41474">
        <ele>-76.431529</ele>
        <time>2020-12-29T09:33:13.000Z</time>
      </trkpt>
      <trkpt lat="47.70129" lon="-3.41461">
        <ele>-76.48806</ele>
        <time>2020-12-29T09:33:15.000Z</time>
      </trkpt>
      <trkpt lat="47.70144" lon="-3.41444">
        <ele>-76.593213</ele>
        <time>2020-12-29T09:33:19.000Z</time>
      </trkpt>
      <trkpt lat="47.70152" lon="-3.41441">
        <ele>-76.642294</ele>
        <time>2020-12-29T09:33:22.000Z</time>
      </trkpt>
      <trkpt lat="47.70159" lon="-3.41425">
        <ele>-76.714804</ele>
        <time>2020-12-29T09:33:26.000Z</time>
      </trkpt>
      <trkpt lat="47.70168" lon="-3.41413">
        <ele>-76.783729</ele>
        <time>2020-12-29T09:33:30.000Z</time>
      </trkpt>
      <trkpt lat="47.7017" lon="-3.41409">
        <ele>-76.803807</ele>
        <time>2020-12-29T09:33:31.000Z</time>
      </trkpt>
      <trkpt lat="47.70175" lon="-3.41391">
        <ele>-76.878052</ele>
        <time>2020-12-29T09:33:35.000Z</time>
      </trkpt>
      <trkpt lat="47.70176" lon="-3.41383">
        <ele>-76.908393</ele>
        <time>2020-12-29T09:33:39.000Z</time>
      </trkpt>
      <trkpt lat="47.70177" lon="-3.4138">
        <ele>-76.922325</ele>
        <time>2020-12-29T09:33:42.000Z</time>
      </trkpt>
      <trkpt lat="47.7018" lon="-3.41379">
        <ele>-76.938494</ele>
        <time>2020-12-29T09:33:44.000Z</time>
      </trkpt>
      <trkpt lat="47.70184" lon="-3.4137">
        <ele>-76.98159</ele>
        <time>2020-12-29T09:33:47.000Z</time>
      </trkpt>
      <trkpt lat="47.70185" lon="-3.41364">
        <ele>-77.004305</ele>
        <time>2020-12-29T09:33:48.000Z</time>
      </trkpt>
      <trkpt lat="47.70186" lon="-3.41358">
        <ele>-77.027392</ele>
        <time>2020-12-29T09:33:49.000Z</time>
      </trkpt>
      <trkpt lat="47.70191" lon="-3.41341">
        <ele>-77.098657</ele>
        <time>2020-12-29T09:33:52.000Z</time>
      </trkpt>
      <trkpt lat="47.70206" lon="-3.41312">
        <ele>-77.238808</ele>
        <time>2020-12-29T09:33:58.000Z</time>
      </trkpt>
      <trkpt lat="47.70223" lon="-3.4129">
        <ele>-77.194714</ele>
        <time>2020-12-29T09:34:04.000Z</time>
      </trkpt>
      <trkpt lat="47.70233" lon="-3.41275">
        <ele>-77.125618</ele>
        <time>2020-12-29T09:34:09.000Z</time>
      </trkpt>
      <trkpt lat="47.70236" lon="-3.41273">
        <ele>-77.11306</ele>
        <time>2020-12-29T09:34:11.000Z</time>
      </trkpt>
      <trkpt lat="47.70238" lon="-3.41274">
        <ele>-77.100247</ele>
        <time>2020-12-29T09:34:13.000Z</time>
      </trkpt>
      <trkpt lat="47.70248" lon="-3.41283">
        <ele>-77.043768</ele>
        <time>2020-12-29T09:34:18.000Z</time>
      </trkpt>
      <trkpt lat="47.70254" lon="-3.41278">
        <ele>-77.010997</ele>
        <time>2020-12-29T09:34:22.000Z</time>
      </trkpt>
      <trkpt lat="47.7026" lon="-3.41263">
        <ele>-76.9558</ele>
        <time>2020-12-29T09:34:26.000Z</time>
      </trkpt>
      <trkpt lat="47.70266" lon="-3.41253">
        <ele>-76.908961</ele>
        <time>2020-12-29T09:34:29.000Z</time>
      </trkpt>
      <trkpt lat="47.70271" lon="-3.41244">
        <ele>-76.868976</ele>
        <time>2020-12-29T09:34:31.000Z</time>
      </trkpt>
      <trkpt lat="47.70286" lon="-3.41218">
        <ele>-76.757854</ele>
        <time>2020-12-29T09:34:37.000Z</time>
      </trkpt>
      <trkpt lat="47.70302" lon="-3.41212">
        <ele>-76.679016</ele>
        <time>2020-12-29T09:34:41.000Z</time>
      </trkpt>
      <trkpt lat="47.70309" lon="-3.4121">
        <ele>-76.644833</ele>
        <time>2020-12-29T09:34:43.000Z</time>
      </trkpt>
      <trkpt lat="47.70311" lon="-3.41206">
        <ele>-76.626737</ele>
        <time>2020-12-29T09:34:44.000Z</time>
      </trkpt>
      <trkpt lat="47.7032" lon="-3.41192">
        <ele>-76.562915</ele>
        <time>2020-12-29T09:34:47.000Z</time>
      </trkpt>
      <trkpt lat="47.70326" lon="-3.41184">
        <ele>-76.524318</ele>
        <time>2020-12-29T09:34:49.000Z</time>
      </trkpt>
      <trkpt lat="47.70324" lon="-3.4117">
        <ele>-76.479146</ele>
        <time>2020-12-29T09:34:52.000Z</time>
      </trkpt>
      <trkpt lat="47.70318" lon="-3.41163">
        <ele>-76.444595</ele>
        <time>2020-12-29T09:34:54.000Z</time>
      </trkpt>
      <trkpt lat="47.70316" lon="-3.41159">
        <ele>-76.425383</ele>
        <time>2020-12-29T09:34:55.000Z</time>
      </trkpt>
      <trkpt lat="47.70309" lon="-3.41151">
        <ele>-76.41422</ele>
        <time>2020-12-29T09:34:57.000Z</time>
      </trkpt>
      <trkpt lat="47.70289" lon="-3.41125">
        <ele>-76.630814</ele>
        <time>2020-12-29T09:35:03.000Z</time>
      </trkpt>
      <trkpt lat="47.70283" lon="-3.41116">
        <ele>-76.701531</ele>
        <time>2020-12-29T09:35:05.000Z</time>
      </trkpt>
      <trkpt lat="47.70281" lon="-3.41105">
        <ele>-76.764685</ele>
        <time>2020-12-29T09:35:07.000Z</time>
      </trkpt>
      <trkpt lat="47.70282" lon="-3.41099">
        <ele>-76.800129</ele>
        <time>2020-12-29T09:35:08.000Z</time>
      </trkpt>
      <trkpt lat="47.70287" lon="-3.41088">
        <ele>-76.87444</ele>
        <time>2020-12-29T09:35:10.000Z</time>
      </trkpt>
      <trkpt lat="47.7029" lon="-3.41083">
        <ele>-76.909646</ele>
        <time>2020-12-29T09:35:11.000Z</time>
      </trkpt>
      <trkpt lat="47.70302" lon="-3.41064">
        <ele>-77.053211</ele>
        <time>2020-12-29T09:35:16.000Z</time>
      </trkpt>
      <trkpt lat="47.70307" lon="-3.41045">
        <ele>-77.164854</ele>
        <time>2020-12-29T09:35:20.000Z</time>
      </trkpt>
      <trkpt lat="47.7031" lon="-3.41032">
        <ele>-77.236634</ele>
        <time>2020-12-29T09:35:22.000Z</time>
      </trkpt>
      <trkpt lat="47.70309" lon="-3.41018">
        <ele>-77.315189</ele>
        <time>2020-12-29T09:35:24.000Z</time>
      </trkpt>
      <trkpt lat="47.70303" lon="-3.41007">
        <ele>-77.393404</ele>
        <time>2020-12-29T09:35:26.000Z</time>
      </trkpt>
      <trkpt lat="47.70299" lon="-3.41002">
        <ele>-77.431438</ele>
        <time>2020-12-29T09:35:27.000Z</time>
      </trkpt>
      <trkpt lat="47.70295" lon="-3.40998">
        <ele>-77.470919</ele>
        <time>2020-12-29T09:35:28.000Z</time>
      </trkpt>
      <trkpt lat="47.70283" lon="-3.40988">
        <ele>-77.581358</ele>
        <time>2020-12-29T09:35:31.000Z</time>
      </trkpt>
      <trkpt lat="47.70277" lon="-3.4098">
        <ele>-77.652101</ele>
        <time>2020-12-29T09:35:33.000Z</time>
      </trkpt>
      <trkpt lat="47.70268" lon="-3.40965">
        <ele>-77.757668</ele>
        <time>2020-12-29T09:35:36.000Z</time>
      </trkpt>
      <trkpt lat="47.70267" lon="-3.40953">
        <ele>-77.821601</ele>
        <time>2020-12-29T09:35:38.000Z</time>
      </trkpt>
      <trkpt lat="47.70267" lon="-3.40947">
        <ele>-77.85288</ele>
        <time>2020-12-29T09:35:39.000Z</time>
      </trkpt>
      <trkpt lat="47.70269" lon="-3.40928">
        <ele>-77.937389</ele>
        <time>2020-12-29T09:35:42.000Z</time>
      </trkpt>
      <trkpt lat="47.70268" lon="-3.40916">
        <ele>-77.990381</ele>
        <time>2020-12-29T09:35:44.000Z</time>
      </trkpt>
      <trkpt lat="47.70274" lon="-3.40898">
        <ele>-78.076665</ele>
        <time>2020-12-29T09:35:47.000Z</time>
      </trkpt>
      <trkpt lat="47.70277" lon="-3.40892">
        <ele>-78.109112</ele>
        <time>2020-12-29T09:35:48.000Z</time>
      </trkpt>
      <trkpt lat="47.7028" lon="-3.40887">
        <ele>-78.143165</ele>
        <time>2020-12-29T09:35:49.000Z</time>
      </trkpt>
      <trkpt lat="47.70284" lon="-3.40881">
        <ele>-78.177782</ele>
        <time>2020-12-29T09:35:50.000Z</time>
      </trkpt>
      <trkpt lat="47.70291" lon="-3.40869">
        <ele>-78.245865</ele>
        <time>2020-12-29T09:35:52.000Z</time>
      </trkpt>
      <trkpt lat="47.70308" lon="-3.40825">
        <ele>-78.467397</ele>
        <time>2020-12-29T09:35:59.000Z</time>
      </trkpt>
      <trkpt lat="47.70326" lon="-3.40787">
        <ele>-78.673076</ele>
        <time>2020-12-29T09:36:06.000Z</time>
      </trkpt>
      <trkpt lat="47.70332" lon="-3.40768">
        <ele>-78.762491</ele>
        <time>2020-12-29T09:36:09.000Z</time>
      </trkpt>
      <trkpt lat="47.70337" lon="-3.4075">
        <ele>-78.849332</ele>
        <time>2020-12-29T09:36:12.000Z</time>
      </trkpt>
      <trkpt lat="47.70349" lon="-3.40728">
        <ele>-78.973623</ele>
        <time>2020-12-29T09:36:17.000Z</time>
      </trkpt>
      <trkpt lat="47.70363" lon="-3.40698">
        <ele>-79.268742</ele>
        <time>2020-12-29T09:36:23.000Z</time>
      </trkpt>
      <trkpt lat="47.70365" lon="-3.40692">
        <ele>-79.335019</ele>
        <time>2020-12-29T09:36:24.000Z</time>
      </trkpt>
      <trkpt lat="47.70367" lon="-3.40671">
        <ele>-79.540201</ele>
        <time>2020-12-29T09:36:27.000Z</time>
      </trkpt>
      <trkpt lat="47.7036" lon="-3.4065">
        <ele>-79.775948</ele>
        <time>2020-12-29T09:36:31.000Z</time>
      </trkpt>
      <trkpt lat="47.70355" lon="-3.40634">
        <ele>-79.950774</ele>
        <time>2020-12-29T09:36:35.000Z</time>
      </trkpt>
      <trkpt lat="47.70356" lon="-3.40629">
        <ele>-79.995589</ele>
        <time>2020-12-29T09:36:36.000Z</time>
      </trkpt>
      <trkpt lat="47.70355" lon="-3.40599">
        <ele>-80.287654</ele>
        <time>2020-12-29T09:36:41.000Z</time>
      </trkpt>
      <trkpt lat="47.70349" lon="-3.40568">
        <ele>-80.612169</ele>
        <time>2020-12-29T09:36:45.000Z</time>
      </trkpt>
      <trkpt lat="47.70348" lon="-3.40558">
        <ele>-80.70425</ele>
        <time>2020-12-29T09:36:46.000Z</time>
      </trkpt>
      <trkpt lat="47.70347" lon="-3.4055">
        <ele>-80.787419</ele>
        <time>2020-12-29T09:36:47.000Z</time>
      </trkpt>
      <trkpt lat="47.70347" lon="-3.40504">
        <ele>-81.241438</ele>
        <time>2020-12-29T09:36:52.000Z</time>
      </trkpt>
      <trkpt lat="47.70343" lon="-3.40438">
        <ele>-81.599975</ele>
        <time>2020-12-29T09:36:59.000Z</time>
      </trkpt>
      <trkpt lat="47.70342" lon="-3.40429">
        <ele>-81.580961</ele>
        <time>2020-12-29T09:37:00.000Z</time>
      </trkpt>
      <trkpt lat="47.70342" lon="-3.40398">
        <ele>-81.519438</ele>
        <time>2020-12-29T09:37:04.000Z</time>
      </trkpt>
      <trkpt lat="47.70342" lon="-3.40392">
        <ele>-81.507762</ele>
        <time>2020-12-29T09:37:06.000Z</time>
      </trkpt>
      <trkpt lat="47.70342" lon="-3.40385">
        <ele>-81.493459</ele>
        <time>2020-12-29T09:37:08.000Z</time>
      </trkpt>
      <trkpt lat="47.70343" lon="-3.40373">
        <ele>-81.467785</ele>
        <time>2020-12-29T09:37:10.000Z</time>
      </trkpt>
      <trkpt lat="47.70344" lon="-3.40365">
        <ele>-81.451801</ele>
        <time>2020-12-29T09:37:11.000Z</time>
      </trkpt>
      <trkpt lat="47.70344" lon="-3.40348">
        <ele>-81.418178</ele>
        <time>2020-12-29T09:37:13.000Z</time>
      </trkpt>
      <trkpt lat="47.7034" lon="-3.40325">
        <ele>-81.369683</ele>
        <time>2020-12-29T09:37:16.000Z</time>
      </trkpt>
      <trkpt lat="47.70334" lon="-3.40313">
        <ele>-81.340644</ele>
        <time>2020-12-29T09:37:18.000Z</time>
      </trkpt>
      <trkpt lat="47.70332" lon="-3.40307">
        <ele>-81.327282</ele>
        <time>2020-12-29T09:37:19.000Z</time>
      </trkpt>
      <trkpt lat="47.70331" lon="-3.40301">
        <ele>-81.314464</ele>
        <time>2020-12-29T09:37:20.000Z</time>
      </trkpt>
      <trkpt lat="47.70335" lon="-3.4028">
        <ele>-81.270004</ele>
        <time>2020-12-29T09:37:23.000Z</time>
      </trkpt>
      <trkpt lat="47.70342" lon="-3.4025">
        <ele>-81.206069</ele>
        <time>2020-12-29T09:37:27.000Z</time>
      </trkpt>
      <trkpt lat="47.70343" lon="-3.40242">
        <ele>-81.190342</ele>
        <time>2020-12-29T09:37:28.000Z</time>
      </trkpt>
      <trkpt lat="47.70344" lon="-3.40234">
        <ele>-81.174319</ele>
        <time>2020-12-29T09:37:29.000Z</time>
      </trkpt>
      <trkpt lat="47.70349" lon="-3.4022">
        <ele>-81.142313</ele>
        <time>2020-12-29T09:37:31.000Z</time>
      </trkpt>
      <trkpt lat="47.70354" lon="-3.40206">
        <ele>-81.109236</ele>
        <time>2020-12-29T09:37:33.000Z</time>
      </trkpt>
      <trkpt lat="47.70357" lon="-3.40189">
        <ele>-81.071408</ele>
        <time>2020-12-29T09:37:35.000Z</time>
      </trkpt>
      <trkpt lat="47.70359" lon="-3.40136">
        <ele>-80.954398</ele>
        <time>2020-12-29T09:37:41.000Z</time>
      </trkpt>
      <trkpt lat="47.70356" lon="-3.40103">
        <ele>-80.881266</ele>
        <time>2020-12-29T09:37:45.000Z</time>
      </trkpt>
      <trkpt lat="47.70357" lon="-3.40093">
        <ele>-80.861063</ele>
        <time>2020-12-29T09:37:46.000Z</time>
      </trkpt>
      <trkpt lat="47.7036" lon="-3.40058">
        <ele>-80.782429</ele>
        <time>2020-12-29T09:37:50.000Z</time>
      </trkpt>
      <trkpt lat="47.7036" lon="-3.40049">
        <ele>-80.763848</ele>
        <time>2020-12-29T09:37:51.000Z</time>
      </trkpt>
      <trkpt lat="47.70355" lon="-3.40008">
        <ele>-80.672024</ele>
        <time>2020-12-29T09:37:56.000Z</time>
      </trkpt>
      <trkpt lat="47.70354" lon="-3.39999">
        <ele>-80.651905</ele>
        <time>2020-12-29T09:37:57.000Z</time>
      </trkpt>
      <trkpt lat="47.70354" lon="-3.3999">
        <ele>-80.631703</ele>
        <time>2020-12-29T09:37:58.000Z</time>
      </trkpt>
      <trkpt lat="47.70353" lon="-3.39972">
        <ele>-80.59384</ele>
        <time>2020-12-29T09:38:00.000Z</time>
      </trkpt>
      <trkpt lat="47.70353" lon="-3.39963">
        <ele>-80.573908</ele>
        <time>2020-12-29T09:38:01.000Z</time>
      </trkpt>
      <trkpt lat="47.70351" lon="-3.39945">
        <ele>-80.534374</ele>
        <time>2020-12-29T09:38:03.000Z</time>
      </trkpt>
      <trkpt lat="47.70347" lon="-3.39917">
        <ele>-80.598733</ele>
        <time>2020-12-29T09:38:06.000Z</time>
      </trkpt>
      <trkpt lat="47.70341" lon="-3.3985">
        <ele>-80.788679</ele>
        <time>2020-12-29T09:38:13.000Z</time>
      </trkpt>
      <trkpt lat="47.70335" lon="-3.39823">
        <ele>-80.868013</ele>
        <time>2020-12-29T09:38:16.000Z</time>
      </trkpt>
      <trkpt lat="47.70336" lon="-3.39794">
        <ele>-80.949019</ele>
        <time>2020-12-29T09:38:19.000Z</time>
      </trkpt>
      <trkpt lat="47.70338" lon="-3.39774">
        <ele>-81.005802</ele>
        <time>2020-12-29T09:38:21.000Z</time>
      </trkpt>
      <trkpt lat="47.70337" lon="-3.39745">
        <ele>-81.085301</ele>
        <time>2020-12-29T09:38:24.000Z</time>
      </trkpt>
      <trkpt lat="47.70334" lon="-3.39719">
        <ele>-81.161595</ele>
        <time>2020-12-29T09:38:28.000Z</time>
      </trkpt>
      <trkpt lat="47.70332" lon="-3.39702">
        <ele>-81.207781</ele>
        <time>2020-12-29T09:38:31.000Z</time>
      </trkpt>
      <trkpt lat="47.7033" lon="-3.39689">
        <ele>-81.245539</ele>
        <time>2020-12-29T09:38:33.000Z</time>
      </trkpt>
      <trkpt lat="47.7033" lon="-3.39682">
        <ele>-81.266008</ele>
        <time>2020-12-29T09:38:34.000Z</time>
      </trkpt>
      <trkpt lat="47.70329" lon="-3.39667">
        <ele>-81.281615</ele>
        <time>2020-12-29T09:38:36.000Z</time>
      </trkpt>
      <trkpt lat="47.70327" lon="-3.39652">
        <ele>-81.29121</ele>
        <time>2020-12-29T09:38:38.000Z</time>
      </trkpt>
      <trkpt lat="47.70327" lon="-3.39643">
        <ele>-81.296546</ele>
        <time>2020-12-29T09:38:39.000Z</time>
      </trkpt>
      <trkpt lat="47.70324" lon="-3.39595">
        <ele>-81.326316</ele>
        <time>2020-12-29T09:38:44.000Z</time>
      </trkpt>
      <trkpt lat="47.70321" lon="-3.39536">
        <ele>-81.362693</ele>
        <time>2020-12-29T09:38:50.000Z</time>
      </trkpt>
      <trkpt lat="47.70319" lon="-3.39527">
        <ele>-81.368735</ele>
        <time>2020-12-29T09:38:51.000Z</time>
      </trkpt>
      <trkpt lat="47.70311" lon="-3.39502">
        <ele>-81.386013</ele>
        <time>2020-12-29T09:38:54.000Z</time>
      </trkpt>
      <trkpt lat="47.70294" lon="-3.39453">
        <ele>-81.420132</ele>
        <time>2020-12-29T09:39:00.000Z</time>
      </trkpt>
      <trkpt lat="47.70291" lon="-3.39444">
        <ele>-81.426196</ele>
        <time>2020-12-29T09:39:01.000Z</time>
      </trkpt>
      <trkpt lat="47.70282" lon="-3.39394">
        <ele>-80.969872</ele>
        <time>2020-12-29T09:39:07.000Z</time>
      </trkpt>
      <trkpt lat="47.70281" lon="-3.39388">
        <ele>-80.883057</ele>
        <time>2020-12-29T09:39:08.000Z</time>
      </trkpt>
      <trkpt lat="47.70279" lon="-3.39385">
        <ele>-80.818064</ele>
        <time>2020-12-29T09:39:09.000Z</time>
      </trkpt>
      <trkpt lat="47.70276" lon="-3.39384">
        <ele>-80.754878</ele>
        <time>2020-12-29T09:39:10.000Z</time>
      </trkpt>
      <trkpt lat="47.70266" lon="-3.39378">
        <ele>-80.49406</ele>
        <time>2020-12-29T09:39:13.000Z</time>
      </trkpt>
      <trkpt lat="47.70262" lon="-3.39375">
        <ele>-80.395605</ele>
        <time>2020-12-29T09:39:14.000Z</time>
      </trkpt>
      <trkpt lat="47.7025" lon="-3.39366">
        <ele>-80.072219</ele>
        <time>2020-12-29T09:39:17.000Z</time>
      </trkpt>
      <trkpt lat="47.70242" lon="-3.39357">
        <ele>-79.852144</ele>
        <time>2020-12-29T09:39:19.000Z</time>
      </trkpt>
      <trkpt lat="47.70238" lon="-3.39353">
        <ele>-79.75105</ele>
        <time>2020-12-29T09:39:20.000Z</time>
      </trkpt>
      <trkpt lat="47.70236" lon="-3.39348">
        <ele>-79.659553</ele>
        <time>2020-12-29T09:39:21.000Z</time>
      </trkpt>
      <trkpt lat="47.70235" lon="-3.39342">
        <ele>-79.566147</ele>
        <time>2020-12-29T09:39:22.000Z</time>
      </trkpt>
      <trkpt lat="47.70233" lon="-3.39329">
        <ele>-79.346709</ele>
        <time>2020-12-29T09:39:24.000Z</time>
      </trkpt>
      <trkpt lat="47.70227" lon="-3.39317">
        <ele>-79.120084</ele>
        <time>2020-12-29T09:39:26.000Z</time>
      </trkpt>
      <trkpt lat="47.7022" lon="-3.39306">
        <ele>-78.887413</ele>
        <time>2020-12-29T09:39:28.000Z</time>
      </trkpt>
      <trkpt lat="47.70216" lon="-3.39294">
        <ele>-78.67903</ele>
        <time>2020-12-29T09:39:30.000Z</time>
      </trkpt>
      <trkpt lat="47.70212" lon="-3.39274">
        <ele>-78.358732</ele>
        <time>2020-12-29T09:39:33.000Z</time>
      </trkpt>
      <trkpt lat="47.70208" lon="-3.39261">
        <ele>-78.138105</ele>
        <time>2020-12-29T09:39:35.000Z</time>
      </trkpt>
      <trkpt lat="47.70206" lon="-3.39253">
        <ele>-78.014669</ele>
        <time>2020-12-29T09:39:36.000Z</time>
      </trkpt>
      <trkpt lat="47.70206" lon="-3.39245">
        <ele>-77.886233</ele>
        <time>2020-12-29T09:39:37.000Z</time>
      </trkpt>
      <trkpt lat="47.70206" lon="-3.39228">
        <ele>-77.621007</ele>
        <time>2020-12-29T09:39:39.000Z</time>
      </trkpt>
      <trkpt lat="47.70206" lon="-3.39211">
        <ele>-77.349585</ele>
        <time>2020-12-29T09:39:41.000Z</time>
      </trkpt>
      <trkpt lat="47.70205" lon="-3.39184">
        <ele>-77.435311</ele>
        <time>2020-12-29T09:39:44.000Z</time>
      </trkpt>
      <trkpt lat="47.70204" lon="-3.39176">
        <ele>-77.486442</ele>
        <time>2020-12-29T09:39:45.000Z</time>
      </trkpt>
      <trkpt lat="47.702" lon="-3.39153">
        <ele>-77.631443</ele>
        <time>2020-12-29T09:39:48.000Z</time>
      </trkpt>
      <trkpt lat="47.70197" lon="-3.39122">
        <ele>-77.814581</ele>
        <time>2020-12-29T09:39:52.000Z</time>
      </trkpt>
      <trkpt lat="47.70197" lon="-3.39106">
        <ele>-77.912565</ele>
        <time>2020-12-29T09:39:54.000Z</time>
      </trkpt>
      <trkpt lat="47.70202" lon="-3.39052">
        <ele>-78.241073</ele>
        <time>2020-12-29T09:40:00.000Z</time>
      </trkpt>
      <trkpt lat="47.70213" lon="-3.39006">
        <ele>-78.53251</ele>
        <time>2020-12-29T09:40:05.000Z</time>
      </trkpt>
      <trkpt lat="47.70215" lon="-3.38997">
        <ele>-78.59358</ele>
        <time>2020-12-29T09:40:06.000Z</time>
      </trkpt>
      <trkpt lat="47.70236" lon="-3.38943">
        <ele>-78.842009</ele>
        <time>2020-12-29T09:40:12.000Z</time>
      </trkpt>
      <trkpt lat="47.70241" lon="-3.38935">
        <ele>-78.781</ele>
        <time>2020-12-29T09:40:13.000Z</time>
      </trkpt>
      <trkpt lat="47.70245" lon="-3.38927">
        <ele>-78.719153</ele>
        <time>2020-12-29T09:40:14.000Z</time>
      </trkpt>
      <trkpt lat="47.70268" lon="-3.38894">
        <ele>-78.44145</ele>
        <time>2020-12-29T09:40:19.000Z</time>
      </trkpt>
      <trkpt lat="47.70298" lon="-3.38864">
        <ele>-78.120409</ele>
        <time>2020-12-29T09:40:25.000Z</time>
      </trkpt>
      <trkpt lat="47.70308" lon="-3.38856">
        <ele>-78.017331</ele>
        <time>2020-12-29T09:40:27.000Z</time>
      </trkpt>
      <trkpt lat="47.70333" lon="-3.38836">
        <ele>-77.771493</ele>
        <time>2020-12-29T09:40:32.000Z</time>
      </trkpt>
      <trkpt lat="47.70359" lon="-3.38819">
        <ele>-77.520149</ele>
        <time>2020-12-29T09:40:37.000Z</time>
      </trkpt>
      <trkpt lat="47.7037" lon="-3.38812">
        <ele>-77.418679</ele>
        <time>2020-12-29T09:40:39.000Z</time>
      </trkpt>
      <trkpt lat="47.70384" lon="-3.38801">
        <ele>-77.255374</ele>
        <time>2020-12-29T09:40:42.000Z</time>
      </trkpt>
      <trkpt lat="47.70392" lon="-3.38788">
        <ele>-77.113505</ele>
        <time>2020-12-29T09:40:44.000Z</time>
      </trkpt>
      <trkpt lat="47.70395" lon="-3.38781">
        <ele>-77.042408</ele>
        <time>2020-12-29T09:40:45.000Z</time>
      </trkpt>
      <trkpt lat="47.70412" lon="-3.38734">
        <ele>-76.605456</ele>
        <time>2020-12-29T09:40:51.000Z</time>
      </trkpt>
      <trkpt lat="47.70415" lon="-3.38726">
        <ele>-76.532993</ele>
        <time>2020-12-29T09:40:52.000Z</time>
      </trkpt>
      <trkpt lat="47.70423" lon="-3.38694">
        <ele>-76.254351</ele>
        <time>2020-12-29T09:40:56.000Z</time>
      </trkpt>
      <trkpt lat="47.7043" lon="-3.38662">
        <ele>-75.981175</ele>
        <time>2020-12-29T09:41:00.000Z</time>
      </trkpt>
      <trkpt lat="47.70433" lon="-3.38646">
        <ele>-75.848153</ele>
        <time>2020-12-29T09:41:02.000Z</time>
      </trkpt>
      <trkpt lat="47.70439" lon="-3.38625">
        <ele>-75.663593</ele>
        <time>2020-12-29T09:41:05.000Z</time>
      </trkpt>
      <trkpt lat="47.7044" lon="-3.38618">
        <ele>-75.602258</ele>
        <time>2020-12-29T09:41:06.000Z</time>
      </trkpt>
      <trkpt lat="47.70439" lon="-3.38593">
        <ele>-75.401431</ele>
        <time>2020-12-29T09:41:09.000Z</time>
      </trkpt>
      <trkpt lat="47.70438" lon="-3.38584">
        <ele>-75.327387</ele>
        <time>2020-12-29T09:41:10.000Z</time>
      </trkpt>
      <trkpt lat="47.70435" lon="-3.38576">
        <ele>-75.251725</ele>
        <time>2020-12-29T09:41:11.000Z</time>
      </trkpt>
      <trkpt lat="47.70427" lon="-3.38561">
        <ele>-75.209566</ele>
        <time>2020-12-29T09:41:13.000Z</time>
      </trkpt>
      <trkpt lat="47.70421" lon="-3.38555">
        <ele>-75.325507</ele>
        <time>2020-12-29T09:41:14.000Z</time>
      </trkpt>
      <trkpt lat="47.70416" lon="-3.38549">
        <ele>-75.443815</ele>
        <time>2020-12-29T09:41:15.000Z</time>
      </trkpt>
      <trkpt lat="47.70404" lon="-3.38538">
        <ele>-75.674664</ele>
        <time>2020-12-29T09:41:17.000Z</time>
      </trkpt>
      <trkpt lat="47.704" lon="-3.38532">
        <ele>-75.77991</ele>
        <time>2020-12-29T09:41:18.000Z</time>
      </trkpt>
      <trkpt lat="47.70394" lon="-3.3852">
        <ele>-75.956621</ele>
        <time>2020-12-29T09:41:20.000Z</time>
      </trkpt>
      <trkpt lat="47.70394" lon="-3.38513">
        <ele>-76.035608</ele>
        <time>2020-12-29T09:41:21.000Z</time>
      </trkpt>
      <trkpt lat="47.70401" lon="-3.38493">
        <ele>-76.290961</ele>
        <time>2020-12-29T09:41:24.000Z</time>
      </trkpt>
      <trkpt lat="47.70402" lon="-3.38475">
        <ele>-76.507903</ele>
        <time>2020-12-29T09:41:27.000Z</time>
      </trkpt>
      <trkpt lat="47.70401" lon="-3.38458">
        <ele>-76.699028</ele>
        <time>2020-12-29T09:41:30.000Z</time>
      </trkpt>
      <trkpt lat="47.70416" lon="-3.38439">
        <ele>-77.032521</ele>
        <time>2020-12-29T09:41:34.000Z</time>
      </trkpt>
      <trkpt lat="47.70421" lon="-3.38434">
        <ele>-77.133278</ele>
        <time>2020-12-29T09:41:35.000Z</time>
      </trkpt>
      <trkpt lat="47.70436" lon="-3.38418">
        <ele>-77.451426</ele>
        <time>2020-12-29T09:41:38.000Z</time>
      </trkpt>
      <trkpt lat="47.70456" lon="-3.38397">
        <ele>-77.877495</ele>
        <time>2020-12-29T09:41:42.000Z</time>
      </trkpt>
      <trkpt lat="47.70477" lon="-3.38373">
        <ele>-78.076298</ele>
        <time>2020-12-29T09:41:47.000Z</time>
      </trkpt>
      <trkpt lat="47.70479" lon="-3.38355">
        <ele>-77.769137</ele>
        <time>2020-12-29T09:41:50.000Z</time>
      </trkpt>
      <trkpt lat="47.70476" lon="-3.3835">
        <ele>-77.66375</ele>
        <time>2020-12-29T09:41:51.000Z</time>
      </trkpt>
      <trkpt lat="47.70475" lon="-3.38345">
        <ele>-77.563276</ele>
        <time>2020-12-29T09:41:52.000Z</time>
      </trkpt>
      <trkpt lat="47.70477" lon="-3.38334">
        <ele>-77.368621</ele>
        <time>2020-12-29T09:41:54.000Z</time>
      </trkpt>
      <trkpt lat="47.70488" lon="-3.38327">
        <ele>-77.059892</ele>
        <time>2020-12-29T09:41:57.000Z</time>
      </trkpt>
      <trkpt lat="47.70499" lon="-3.38329">
        <ele>-76.787661</ele>
        <time>2020-12-29T09:41:59.000Z</time>
      </trkpt>
      <trkpt lat="47.70517" lon="-3.3833">
        <ele>-76.329852</ele>
        <time>2020-12-29T09:42:02.000Z</time>
      </trkpt>
      <trkpt lat="47.70531" lon="-3.38331">
        <ele>-75.947352</ele>
        <time>2020-12-29T09:42:05.000Z</time>
      </trkpt>
      <trkpt lat="47.70535" lon="-3.3833">
        <ele>-75.852445</ele>
        <time>2020-12-29T09:42:06.000Z</time>
      </trkpt>
      <trkpt lat="47.70538" lon="-3.38327">
        <ele>-75.760963</ele>
        <time>2020-12-29T09:42:07.000Z</time>
      </trkpt>
      <trkpt lat="47.70541" lon="-3.38324">
        <ele>-75.673785</ele>
        <time>2020-12-29T09:42:08.000Z</time>
      </trkpt>
      <trkpt lat="47.70543" lon="-3.38321">
        <ele>-75.59486</ele>
        <time>2020-12-29T09:42:09.000Z</time>
      </trkpt>
      <trkpt lat="47.70545" lon="-3.38318">
        <ele>-75.518164</ele>
        <time>2020-12-29T09:42:10.000Z</time>
      </trkpt>
      <trkpt lat="47.70547" lon="-3.38311">
        <ele>-75.385483</ele>
        <time>2020-12-29T09:42:12.000Z</time>
      </trkpt>
      <trkpt lat="47.70548" lon="-3.38302">
        <ele>-75.226528</ele>
        <time>2020-12-29T09:42:14.000Z</time>
      </trkpt>
      <trkpt lat="47.70549" lon="-3.38296">
        <ele>-75.128668</ele>
        <time>2020-12-29T09:42:15.000Z</time>
      </trkpt>
      <trkpt lat="47.70549" lon="-3.38284">
        <ele>-74.906178</ele>
        <time>2020-12-29T09:42:17.000Z</time>
      </trkpt>
      <trkpt lat="47.70549" lon="-3.38277">
        <ele>-74.792167</ele>
        <time>2020-12-29T09:42:18.000Z</time>
      </trkpt>
      <trkpt lat="47.70554" lon="-3.3826">
        <ele>-74.470199</ele>
        <time>2020-12-29T09:42:21.000Z</time>
      </trkpt>
      <trkpt lat="47.70559" lon="-3.38237">
        <ele>-74.047737</ele>
        <time>2020-12-29T09:42:26.000Z</time>
      </trkpt>
      <trkpt lat="47.70566" lon="-3.38226">
        <ele>-73.800677</ele>
        <time>2020-12-29T09:42:29.000Z</time>
      </trkpt>
      <trkpt lat="47.70576" lon="-3.38231">
        <ele>-73.659489</ele>
        <time>2020-12-29T09:42:32.000Z</time>
      </trkpt>
      <trkpt lat="47.7058" lon="-3.38234">
        <ele>-73.759086</ele>
        <time>2020-12-29T09:42:33.000Z</time>
      </trkpt>
      <trkpt lat="47.70583" lon="-3.38238">
        <ele>-73.858159</ele>
        <time>2020-12-29T09:42:34.000Z</time>
      </trkpt>
      <trkpt lat="47.70587" lon="-3.38242">
        <ele>-73.970306</ele>
        <time>2020-12-29T09:42:35.000Z</time>
      </trkpt>
      <trkpt lat="47.70599" lon="-3.38253">
        <ele>-74.294439</ele>
        <time>2020-12-29T09:42:38.000Z</time>
      </trkpt>
      <trkpt lat="47.70602" lon="-3.38256">
        <ele>-74.383157</ele>
        <time>2020-12-29T09:42:39.000Z</time>
      </trkpt>
      <trkpt lat="47.70609" lon="-3.38255">
        <ele>-74.542986</ele>
        <time>2020-12-29T09:42:41.000Z</time>
      </trkpt>
      <trkpt lat="47.70616" lon="-3.38246">
        <ele>-74.749596</ele>
        <time>2020-12-29T09:42:44.000Z</time>
      </trkpt>
      <trkpt lat="47.70617" lon="-3.38243">
        <ele>-74.811131</ele>
        <time>2020-12-29T09:42:45.000Z</time>
      </trkpt>
      <trkpt lat="47.70625" lon="-3.38227">
        <ele>-75.111334</ele>
        <time>2020-12-29T09:42:49.000Z</time>
      </trkpt>
      <trkpt lat="47.70629" lon="-3.38224">
        <ele>-75.212981</ele>
        <time>2020-12-29T09:42:50.000Z</time>
      </trkpt>
      <trkpt lat="47.70638" lon="-3.38217">
        <ele>-75.463904</ele>
        <time>2020-12-29T09:42:52.000Z</time>
      </trkpt>
      <trkpt lat="47.70644" lon="-3.38213">
        <ele>-75.627954</ele>
        <time>2020-12-29T09:42:53.000Z</time>
      </trkpt>
      <trkpt lat="47.70658" lon="-3.38206">
        <ele>-75.953526</ele>
        <time>2020-12-29T09:42:55.000Z</time>
      </trkpt>
      <trkpt lat="47.7068" lon="-3.38197">
        <ele>-76.491165</ele>
        <time>2020-12-29T09:42:59.000Z</time>
      </trkpt>
      <trkpt lat="47.70699" lon="-3.38187">
        <ele>-76.969141</ele>
        <time>2020-12-29T09:43:03.000Z</time>
      </trkpt>
      <trkpt lat="47.70705" lon="-3.38184">
        <ele>-77.122528</ele>
        <time>2020-12-29T09:43:04.000Z</time>
      </trkpt>
      <trkpt lat="47.70718" lon="-3.38178">
        <ele>-77.440924</ele>
        <time>2020-12-29T09:43:06.000Z</time>
      </trkpt>
      <trkpt lat="47.70743" lon="-3.38163">
        <ele>-77.917751</ele>
        <time>2020-12-29T09:43:10.000Z</time>
      </trkpt>
      <trkpt lat="47.70754" lon="-3.38153">
        <ele>-78.041931</ele>
        <time>2020-12-29T09:43:12.000Z</time>
      </trkpt>
      <trkpt lat="47.70763" lon="-3.38141">
        <ele>-78.157178</ele>
        <time>2020-12-29T09:43:14.000Z</time>
      </trkpt>
      <trkpt lat="47.70782" lon="-3.38109">
        <ele>-78.432824</ele>
        <time>2020-12-29T09:43:19.000Z</time>
      </trkpt>
      <trkpt lat="47.70786" lon="-3.38103">
        <ele>-78.488105</ele>
        <time>2020-12-29T09:43:20.000Z</time>
      </trkpt>
      <trkpt lat="47.70805" lon="-3.38071">
        <ele>-78.765362</ele>
        <time>2020-12-29T09:43:25.000Z</time>
      </trkpt>
      <trkpt lat="47.70828" lon="-3.3802">
        <ele>-79.167271</ele>
        <time>2020-12-29T09:43:32.000Z</time>
      </trkpt>
      <trkpt lat="47.70831" lon="-3.38012">
        <ele>-79.226129</ele>
        <time>2020-12-29T09:43:33.000Z</time>
      </trkpt>
      <trkpt lat="47.70838" lon="-3.37987">
        <ele>-79.398088</ele>
        <time>2020-12-29T09:43:36.000Z</time>
      </trkpt>
      <trkpt lat="47.70839" lon="-3.37979">
        <ele>-79.452561</ele>
        <time>2020-12-29T09:43:37.000Z</time>
      </trkpt>
      <trkpt lat="47.70851" lon="-3.37932">
        <ele>-79.500561</ele>
        <time>2020-12-29T09:43:43.000Z</time>
      </trkpt>
      <trkpt lat="47.70861" lon="-3.37918">
        <ele>-79.478813</ele>
        <time>2020-12-29T09:43:46.000Z</time>
      </trkpt>
      <trkpt lat="47.70878" lon="-3.37918">
        <ele>-79.448751</ele>
        <time>2020-12-29T09:43:50.000Z</time>
      </trkpt>
      <trkpt lat="47.70897" lon="-3.37931">
        <ele>-79.414499</ele>
        <time>2020-12-29T09:43:54.000Z</time>
      </trkpt>
      <trkpt lat="47.709" lon="-3.37938">
        <ele>-79.404706</ele>
        <time>2020-12-29T09:43:55.000Z</time>
      </trkpt>
      <trkpt lat="47.70904" lon="-3.37944">
        <ele>-79.394838</ele>
        <time>2020-12-29T09:43:56.000Z</time>
      </trkpt>
      <trkpt lat="47.70915" lon="-3.37951">
        <ele>-79.37563</ele>
        <time>2020-12-29T09:43:58.000Z</time>
      </trkpt>
      <trkpt lat="47.70932" lon="-3.37947">
        <ele>-79.345421</ele>
        <time>2020-12-29T09:44:01.000Z</time>
      </trkpt>
      <trkpt lat="47.70947" lon="-3.37928">
        <ele>-79.313864</ele>
        <time>2020-12-29T09:44:04.000Z</time>
      </trkpt>
      <trkpt lat="47.70951" lon="-3.37921">
        <ele>-79.303155</ele>
        <time>2020-12-29T09:44:05.000Z</time>
      </trkpt>
      <trkpt lat="47.70969" lon="-3.37888">
        <ele>-79.255105</ele>
        <time>2020-12-29T09:44:10.000Z</time>
      </trkpt>
      <trkpt lat="47.70972" lon="-3.37882">
        <ele>-79.246736</ele>
        <time>2020-12-29T09:44:11.000Z</time>
      </trkpt>
      <trkpt lat="47.70974" lon="-3.3787">
        <ele>-79.212144</ele>
        <time>2020-12-29T09:44:13.000Z</time>
      </trkpt>
      <trkpt lat="47.70966" lon="-3.3785">
        <ele>-79.120624</ele>
        <time>2020-12-29T09:44:16.000Z</time>
      </trkpt>
      <trkpt lat="47.70963" lon="-3.37844">
        <ele>-79.089163</ele>
        <time>2020-12-29T09:44:17.000Z</time>
      </trkpt>
      <trkpt lat="47.70949" lon="-3.37817">
        <ele>-78.958204</ele>
        <time>2020-12-29T09:44:21.000Z</time>
      </trkpt>
      <trkpt lat="47.70947" lon="-3.37809">
        <ele>-78.926471</ele>
        <time>2020-12-29T09:44:22.000Z</time>
      </trkpt>
      <trkpt lat="47.70936" lon="-3.37761">
        <ele>-78.725826</ele>
        <time>2020-12-29T09:44:28.000Z</time>
      </trkpt>
      <trkpt lat="47.70933" lon="-3.37745">
        <ele>-78.661728</ele>
        <time>2020-12-29T09:44:30.000Z</time>
      </trkpt>
      <trkpt lat="47.70935" lon="-3.37729">
        <ele>-78.596236</ele>
        <time>2020-12-29T09:44:32.000Z</time>
      </trkpt>
      <trkpt lat="47.70946" lon="-3.37701">
        <ele>-78.467278</ele>
        <time>2020-12-29T09:44:36.000Z</time>
      </trkpt>
      <trkpt lat="47.70968" lon="-3.37655">
        <ele>-78.24797</ele>
        <time>2020-12-29T09:44:43.000Z</time>
      </trkpt>
      <trkpt lat="47.70994" lon="-3.376">
        <ele>-78.171665</ele>
        <time>2020-12-29T09:44:51.000Z</time>
      </trkpt>
      <trkpt lat="47.71014" lon="-3.37572">
        <ele>-78.158648</ele>
        <time>2020-12-29T09:44:56.000Z</time>
      </trkpt>
      <trkpt lat="47.71035" lon="-3.37559">
        <ele>-78.147676</ele>
        <time>2020-12-29T09:45:00.000Z</time>
      </trkpt>
      <trkpt lat="47.71041" lon="-3.37559">
        <ele>-78.144832</ele>
        <time>2020-12-29T09:45:01.000Z</time>
      </trkpt>
      <trkpt lat="47.71047" lon="-3.37559">
        <ele>-78.141901</ele>
        <time>2020-12-29T09:45:02.000Z</time>
      </trkpt>
      <trkpt lat="47.71079" lon="-3.37559">
        <ele>-78.126379</ele>
        <time>2020-12-29T09:45:07.000Z</time>
      </trkpt>
      <trkpt lat="47.71105" lon="-3.37568">
        <ele>-78.113684</ele>
        <time>2020-12-29T09:45:11.000Z</time>
      </trkpt>
      <trkpt lat="47.71111" lon="-3.37573">
        <ele>-78.110396</ele>
        <time>2020-12-29T09:45:12.000Z</time>
      </trkpt>
      <trkpt lat="47.71128" lon="-3.37587">
        <ele>-78.082362</ele>
        <time>2020-12-29T09:45:15.000Z</time>
      </trkpt>
      <trkpt lat="47.71138" lon="-3.37596">
        <ele>-77.973915</ele>
        <time>2020-12-29T09:45:17.000Z</time>
      </trkpt>
      <trkpt lat="47.7116" lon="-3.37611">
        <ele>-77.769705</ele>
        <time>2020-12-29T09:45:21.000Z</time>
      </trkpt>
      <trkpt lat="47.71165" lon="-3.3761">
        <ele>-77.722562</ele>
        <time>2020-12-29T09:45:22.000Z</time>
      </trkpt>
      <trkpt lat="47.7118" lon="-3.37598">
        <ele>-77.572644</ele>
        <time>2020-12-29T09:45:25.000Z</time>
      </trkpt>
      <trkpt lat="47.71195" lon="-3.37584">
        <ele>-77.420797</ele>
        <time>2020-12-29T09:45:28.000Z</time>
      </trkpt>
      <trkpt lat="47.71214" lon="-3.37566">
        <ele>-77.222601</ele>
        <time>2020-12-29T09:45:32.000Z</time>
      </trkpt>
      <trkpt lat="47.71234" lon="-3.37544">
        <ele>-77.008274</ele>
        <time>2020-12-29T09:45:37.000Z</time>
      </trkpt>
      <trkpt lat="47.71236" lon="-3.37534">
        <ele>-76.946144</ele>
        <time>2020-12-29T09:45:39.000Z</time>
      </trkpt>
      <trkpt lat="47.71237" lon="-3.37529">
        <ele>-76.916423</ele>
        <time>2020-12-29T09:45:40.000Z</time>
      </trkpt>
      <trkpt lat="47.71246" lon="-3.37513">
        <ele>-76.796483</ele>
        <time>2020-12-29T09:45:44.000Z</time>
      </trkpt>
      <trkpt lat="47.71264" lon="-3.37493">
        <ele>-76.598229</ele>
        <time>2020-12-29T09:45:50.000Z</time>
      </trkpt>
      <trkpt lat="47.71282" lon="-3.37471">
        <ele>-76.699631</ele>
        <time>2020-12-29T09:45:56.000Z</time>
      </trkpt>
      <trkpt lat="47.713" lon="-3.37452">
        <ele>-76.933345</ele>
        <time>2020-12-29T09:46:01.000Z</time>
      </trkpt>
      <trkpt lat="47.71306" lon="-3.37442">
        <ele>-77.027938</ele>
        <time>2020-12-29T09:46:03.000Z</time>
      </trkpt>
      <trkpt lat="47.71323" lon="-3.37411">
        <ele>-77.300336</ele>
        <time>2020-12-29T09:46:09.000Z</time>
      </trkpt>
      <trkpt lat="47.7133" lon="-3.37394">
        <ele>-77.438183</ele>
        <time>2020-12-29T09:46:12.000Z</time>
      </trkpt>
      <trkpt lat="47.71336" lon="-3.37382">
        <ele>-77.541726</ele>
        <time>2020-12-29T09:46:14.000Z</time>
      </trkpt>
      <trkpt lat="47.71354" lon="-3.37345">
        <ele>-77.853469</ele>
        <time>2020-12-29T09:46:20.000Z</time>
      </trkpt>
      <trkpt lat="47.71356" lon="-3.37339">
        <ele>-77.903832</ele>
        <time>2020-12-29T09:46:21.000Z</time>
      </trkpt>
      <trkpt lat="47.71359" lon="-3.37332">
        <ele>-77.95708</ele>
        <time>2020-12-29T09:46:22.000Z</time>
      </trkpt>
      <trkpt lat="47.71377" lon="-3.37296">
        <ele>-78.266776</ele>
        <time>2020-12-29T09:46:28.000Z</time>
      </trkpt>
      <trkpt lat="47.71404" lon="-3.37239">
        <ele>-78.427975</ele>
        <time>2020-12-29T09:46:37.000Z</time>
      </trkpt>
      <trkpt lat="47.71412" lon="-3.37222">
        <ele>-78.445628</ele>
        <time>2020-12-29T09:46:40.000Z</time>
      </trkpt>
      <trkpt lat="47.71416" lon="-3.37214">
        <ele>-78.454346</ele>
        <time>2020-12-29T09:46:42.000Z</time>
      </trkpt>
      <trkpt lat="47.71426" lon="-3.37216">
        <ele>-78.467657</ele>
        <time>2020-12-29T09:46:46.000Z</time>
      </trkpt>
      <trkpt lat="47.71439" lon="-3.37225">
        <ele>-78.487066</ele>
        <time>2020-12-29T09:46:49.000Z</time>
      </trkpt>
      <trkpt lat="47.71444" lon="-3.37229">
        <ele>-78.493644</ele>
        <time>2020-12-29T09:46:50.000Z</time>
      </trkpt>
      <trkpt lat="47.71464" lon="-3.37244">
        <ele>-78.523496</ele>
        <time>2020-12-29T09:46:55.000Z</time>
      </trkpt>
      <trkpt lat="47.71488" lon="-3.37262">
        <ele>-78.557393</ele>
        <time>2020-12-29T09:47:02.000Z</time>
      </trkpt>
      <trkpt lat="47.71492" lon="-3.37265">
        <ele>-78.56447</ele>
        <time>2020-12-29T09:47:04.000Z</time>
      </trkpt>
      <trkpt lat="47.71493" lon="-3.37273">
        <ele>-78.571398</ele>
        <time>2020-12-29T09:47:06.000Z</time>
      </trkpt>
      <trkpt lat="47.71488" lon="-3.37287">
        <ele>-78.584668</ele>
        <time>2020-12-29T09:47:09.000Z</time>
      </trkpt>
      <trkpt lat="47.71485" lon="-3.37298">
        <ele>-78.594979</ele>
        <time>2020-12-29T09:47:11.000Z</time>
      </trkpt>
      <trkpt lat="47.71487" lon="-3.37315">
        <ele>-78.610285</ele>
        <time>2020-12-29T09:47:14.000Z</time>
      </trkpt>
      <trkpt lat="47.71499" lon="-3.3733">
        <ele>-78.799375</ele>
        <time>2020-12-29T09:47:17.000Z</time>
      </trkpt>
      <trkpt lat="47.71504" lon="-3.37332">
        <ele>-78.88222</ele>
        <time>2020-12-29T09:47:18.000Z</time>
      </trkpt>
      <trkpt lat="47.71519" lon="-3.37334">
        <ele>-79.124933</ele>
        <time>2020-12-29T09:47:21.000Z</time>
      </trkpt>
      <trkpt lat="47.71557" lon="-3.37331">
        <ele>-79.725778</ele>
        <time>2020-12-29T09:47:28.000Z</time>
      </trkpt>
      <trkpt lat="47.71596" lon="-3.37325">
        <ele>-80.354841</ele>
        <time>2020-12-29T09:47:35.000Z</time>
      </trkpt>
      <trkpt lat="47.71602" lon="-3.37325">
        <ele>-80.449085</ele>
        <time>2020-12-29T09:47:36.000Z</time>
      </trkpt>
      <trkpt lat="47.71643" lon="-3.3732">
        <ele>-81.102276</ele>
        <time>2020-12-29T09:47:43.000Z</time>
      </trkpt>
      <trkpt lat="47.71693" lon="-3.37313">
        <ele>-81.460616</ele>
        <time>2020-12-29T09:47:52.000Z</time>
      </trkpt>
      <trkpt lat="47.71704" lon="-3.37315">
        <ele>-81.453684</ele>
        <time>2020-12-29T09:47:54.000Z</time>
      </trkpt>
      <trkpt lat="47.71715" lon="-3.37316">
        <ele>-81.446446</ele>
        <time>2020-12-29T09:47:56.000Z</time>
      </trkpt>
      <trkpt lat="47.71742" lon="-3.37327">
        <ele>-81.427438</ele>
        <time>2020-12-29T09:48:01.000Z</time>
      </trkpt>
      <trkpt lat="47.71777" lon="-3.37341">
        <ele>-81.402844</ele>
        <time>2020-12-29T09:48:08.000Z</time>
      </trkpt>
      <trkpt lat="47.71803" lon="-3.37353">
        <ele>-81.384745</ele>
        <time>2020-12-29T09:48:13.000Z</time>
      </trkpt>
      <trkpt lat="47.71813" lon="-3.37356">
        <ele>-81.377767</ele>
        <time>2020-12-29T09:48:15.000Z</time>
      </trkpt>
      <trkpt lat="47.71818" lon="-3.37357">
        <ele>-81.374539</ele>
        <time>2020-12-29T09:48:16.000Z</time>
      </trkpt>
      <trkpt lat="47.71833" lon="-3.37368">
        <ele>-81.363358</ele>
        <time>2020-12-29T09:48:19.000Z</time>
      </trkpt>
      <trkpt lat="47.71843" lon="-3.37374">
        <ele>-81.347281</ele>
        <time>2020-12-29T09:48:21.000Z</time>
      </trkpt>
      <trkpt lat="47.71857" lon="-3.37382">
        <ele>-81.301315</ele>
        <time>2020-12-29T09:48:24.000Z</time>
      </trkpt>
      <trkpt lat="47.71865" lon="-3.37386">
        <ele>-81.27356</ele>
        <time>2020-12-29T09:48:26.000Z</time>
      </trkpt>
      <trkpt lat="47.71874" lon="-3.37392">
        <ele>-81.24436</ele>
        <time>2020-12-29T09:48:28.000Z</time>
      </trkpt>
      <trkpt lat="47.71878" lon="-3.37397">
        <ele>-81.228516</ele>
        <time>2020-12-29T09:48:29.000Z</time>
      </trkpt>
      <trkpt lat="47.7189" lon="-3.37412">
        <ele>-81.178398</ele>
        <time>2020-12-29T09:48:32.000Z</time>
      </trkpt>
      <trkpt lat="47.719" lon="-3.37416">
        <ele>-81.14752</ele>
        <time>2020-12-29T09:48:34.000Z</time>
      </trkpt>
      <trkpt lat="47.7191" lon="-3.37414">
        <ele>-81.114378</ele>
        <time>2020-12-29T09:48:36.000Z</time>
      </trkpt>
      <trkpt lat="47.71915" lon="-3.37414">
        <ele>-81.099941</ele>
        <time>2020-12-29T09:48:37.000Z</time>
      </trkpt>
      <trkpt lat="47.71919" lon="-3.37414">
        <ele>-81.085213</ele>
        <time>2020-12-29T09:48:38.000Z</time>
      </trkpt>
      <trkpt lat="47.71924" lon="-3.37415">
        <ele>-81.069996</ele>
        <time>2020-12-29T09:48:39.000Z</time>
      </trkpt>
      <trkpt lat="47.7194" lon="-3.37421">
        <ele>-81.020575</ele>
        <time>2020-12-29T09:48:42.000Z</time>
      </trkpt>
      <trkpt lat="47.71945" lon="-3.37424">
        <ele>-81.002571</ele>
        <time>2020-12-29T09:48:43.000Z</time>
      </trkpt>
      <trkpt lat="47.71955" lon="-3.37434">
        <ele>-80.965042</ele>
        <time>2020-12-29T09:48:45.000Z</time>
      </trkpt>
      <trkpt lat="47.7196" lon="-3.37438">
        <ele>-80.947591</ele>
        <time>2020-12-29T09:48:46.000Z</time>
      </trkpt>
      <trkpt lat="47.71975" lon="-3.3745">
        <ele>-80.894693</ele>
        <time>2020-12-29T09:48:49.000Z</time>
      </trkpt>
      <trkpt lat="47.71979" lon="-3.37453">
        <ele>-80.878034</ele>
        <time>2020-12-29T09:48:50.000Z</time>
      </trkpt>
      <trkpt lat="47.71989" lon="-3.37459">
        <ele>-80.845525</ele>
        <time>2020-12-29T09:48:52.000Z</time>
      </trkpt>
      <trkpt lat="47.71993" lon="-3.37462">
        <ele>-80.830445</ele>
        <time>2020-12-29T09:48:53.000Z</time>
      </trkpt>
      <trkpt lat="47.72008" lon="-3.3747">
        <ele>-80.773075</ele>
        <time>2020-12-29T09:48:56.000Z</time>
      </trkpt>
      <trkpt lat="47.72015" lon="-3.37475">
        <ele>-80.728777</ele>
        <time>2020-12-29T09:48:58.000Z</time>
      </trkpt>
      <trkpt lat="47.72027" lon="-3.37487">
        <ele>-80.652426</ele>
        <time>2020-12-29T09:49:01.000Z</time>
      </trkpt>
      <trkpt lat="47.72034" lon="-3.37495">
        <ele>-80.598618</ele>
        <time>2020-12-29T09:49:03.000Z</time>
      </trkpt>
      <trkpt lat="47.72051" lon="-3.37507">
        <ele>-80.497712</ele>
        <time>2020-12-29T09:49:07.000Z</time>
      </trkpt>
      <trkpt lat="47.72075" lon="-3.37525">
        <ele>-80.354021</ele>
        <time>2020-12-29T09:49:12.000Z</time>
      </trkpt>
      <trkpt lat="47.72084" lon="-3.37536">
        <ele>-80.285493</ele>
        <time>2020-12-29T09:49:14.000Z</time>
      </trkpt>
      <trkpt lat="47.72101" lon="-3.37549">
        <ele>-80.184879</ele>
        <time>2020-12-29T09:49:17.000Z</time>
      </trkpt>
      <trkpt lat="47.72134" lon="-3.37569">
        <ele>-79.987633</ele>
        <time>2020-12-29T09:49:23.000Z</time>
      </trkpt>
      <trkpt lat="47.7214" lon="-3.37573">
        <ele>-79.954781</ele>
        <time>2020-12-29T09:49:24.000Z</time>
      </trkpt>
      <trkpt lat="47.72154" lon="-3.37585">
        <ele>-79.861517</ele>
        <time>2020-12-29T09:49:27.000Z</time>
      </trkpt>
      <trkpt lat="47.72159" lon="-3.37589">
        <ele>-79.833671</ele>
        <time>2020-12-29T09:49:28.000Z</time>
      </trkpt>
      <trkpt lat="47.72169" lon="-3.37597">
        <ele>-79.827383</ele>
        <time>2020-12-29T09:49:30.000Z</time>
      </trkpt>
      <trkpt lat="47.72193" lon="-3.37617">
        <ele>-79.885515</ele>
        <time>2020-12-29T09:49:34.000Z</time>
      </trkpt>
      <trkpt lat="47.72199" lon="-3.37622">
        <ele>-79.901861</ele>
        <time>2020-12-29T09:49:35.000Z</time>
      </trkpt>
      <trkpt lat="47.72239" lon="-3.37654">
        <ele>-79.999254</ele>
        <time>2020-12-29T09:49:42.000Z</time>
      </trkpt>
      <trkpt lat="47.72244" lon="-3.37657">
        <ele>-80.010867</ele>
        <time>2020-12-29T09:49:43.000Z</time>
      </trkpt>
      <trkpt lat="47.72253" lon="-3.37662">
        <ele>-80.033543</ele>
        <time>2020-12-29T09:49:45.000Z</time>
      </trkpt>
      <trkpt lat="47.72258" lon="-3.37666">
        <ele>-80.04418</ele>
        <time>2020-12-29T09:49:46.000Z</time>
      </trkpt>
      <trkpt lat="47.72275" lon="-3.37682">
        <ele>-80.087867</ele>
        <time>2020-12-29T09:49:50.000Z</time>
      </trkpt>
      <trkpt lat="47.72283" lon="-3.37689">
        <ele>-80.109522</ele>
        <time>2020-12-29T09:49:52.000Z</time>
      </trkpt>
      <trkpt lat="47.72297" lon="-3.37699">
        <ele>-80.143034</ele>
        <time>2020-12-29T09:49:55.000Z</time>
      </trkpt>
      <trkpt lat="47.72306" lon="-3.37704">
        <ele>-80.164187</ele>
        <time>2020-12-29T09:49:57.000Z</time>
      </trkpt>
      <trkpt lat="47.72323" lon="-3.37714">
        <ele>-80.195081</ele>
        <time>2020-12-29T09:50:00.000Z</time>
      </trkpt>
      <trkpt lat="47.72329" lon="-3.37716">
        <ele>-80.144686</ele>
        <time>2020-12-29T09:50:01.000Z</time>
      </trkpt>
      <trkpt lat="47.72341" lon="-3.37716">
        <ele>-80.04641</ele>
        <time>2020-12-29T09:50:03.000Z</time>
      </trkpt>
      <trkpt lat="47.72366" lon="-3.3771">
        <ele>-79.841838</ele>
        <time>2020-12-29T09:50:07.000Z</time>
      </trkpt>
      <trkpt lat="47.72392" lon="-3.37705">
        <ele>-79.629395</ele>
        <time>2020-12-29T09:50:11.000Z</time>
      </trkpt>
      <trkpt lat="47.72405" lon="-3.37702">
        <ele>-79.519103</ele>
        <time>2020-12-29T09:50:13.000Z</time>
      </trkpt>
      <trkpt lat="47.72449" lon="-3.37683">
        <ele>-79.14922</ele>
        <time>2020-12-29T09:50:20.000Z</time>
      </trkpt>
      <trkpt lat="47.7246" lon="-3.37676">
        <ele>-79.05355</ele>
        <time>2020-12-29T09:50:22.000Z</time>
      </trkpt>
      <trkpt lat="47.72472" lon="-3.37669">
        <ele>-78.950787</ele>
        <time>2020-12-29T09:50:24.000Z</time>
      </trkpt>
      <trkpt lat="47.72485" lon="-3.37666">
        <ele>-78.842005</ele>
        <time>2020-12-29T09:50:26.000Z</time>
      </trkpt>
      <trkpt lat="47.72498" lon="-3.37663">
        <ele>-78.743734</ele>
        <time>2020-12-29T09:50:28.000Z</time>
      </trkpt>
      <trkpt lat="47.72517" lon="-3.37658">
        <ele>-78.861039</ele>
        <time>2020-12-29T09:50:31.000Z</time>
      </trkpt>
      <trkpt lat="47.72564" lon="-3.3765">
        <ele>-79.138808</ele>
        <time>2020-12-29T09:50:38.000Z</time>
      </trkpt>
      <trkpt lat="47.72604" lon="-3.37641">
        <ele>-79.383655</ele>
        <time>2020-12-29T09:50:44.000Z</time>
      </trkpt>
      <trkpt lat="47.72618" lon="-3.37642">
        <ele>-79.465755</ele>
        <time>2020-12-29T09:50:46.000Z</time>
      </trkpt>
      <trkpt lat="47.72638" lon="-3.3765">
        <ele>-79.589826</ele>
        <time>2020-12-29T09:50:49.000Z</time>
      </trkpt>
      <trkpt lat="47.72658" lon="-3.37662">
        <ele>-79.716203</ele>
        <time>2020-12-29T09:50:52.000Z</time>
      </trkpt>
      <trkpt lat="47.72668" lon="-3.37674">
        <ele>-79.794996</ele>
        <time>2020-12-29T09:50:54.000Z</time>
      </trkpt>
      <trkpt lat="47.72678" lon="-3.37699">
        <ele>-79.876979</ele>
        <time>2020-12-29T09:50:57.000Z</time>
      </trkpt>
      <trkpt lat="47.72681" lon="-3.37708">
        <ele>-79.904796</ele>
        <time>2020-12-29T09:50:58.000Z</time>
      </trkpt>
      <trkpt lat="47.72695" lon="-3.37745">
        <ele>-80.017721</ele>
        <time>2020-12-29T09:51:02.000Z</time>
      </trkpt>
      <trkpt lat="47.72702" lon="-3.37762">
        <ele>-80.071918</ele>
        <time>2020-12-29T09:51:04.000Z</time>
      </trkpt>
      <trkpt lat="47.7273" lon="-3.3783">
        <ele>-80.288789</ele>
        <time>2020-12-29T09:51:12.000Z</time>
      </trkpt>
      <trkpt lat="47.72756" lon="-3.37898">
        <ele>-80.499471</ele>
        <time>2020-12-29T09:51:20.000Z</time>
      </trkpt>
      <trkpt lat="47.72764" lon="-3.37925">
        <ele>-80.486891</ele>
        <time>2020-12-29T09:51:23.000Z</time>
      </trkpt>
      <trkpt lat="47.72767" lon="-3.37945">
        <ele>-80.436922</ele>
        <time>2020-12-29T09:51:25.000Z</time>
      </trkpt>
      <trkpt lat="47.72766" lon="-3.37973">
        <ele>-80.367033</ele>
        <time>2020-12-29T09:51:28.000Z</time>
      </trkpt>
      <trkpt lat="47.72765" lon="-3.37982">
        <ele>-80.344542</ele>
        <time>2020-12-29T09:51:29.000Z</time>
      </trkpt>
      <trkpt lat="47.72763" lon="-3.38009">
        <ele>-80.277392</ele>
        <time>2020-12-29T09:51:32.000Z</time>
      </trkpt>
      <trkpt lat="47.72764" lon="-3.38034">
        <ele>-80.215784</ele>
        <time>2020-12-29T09:51:35.000Z</time>
      </trkpt>
      <trkpt lat="47.72766" lon="-3.38067">
        <ele>-80.132752</ele>
        <time>2020-12-29T09:51:39.000Z</time>
      </trkpt>
      <trkpt lat="47.72768" lon="-3.38074">
        <ele>-80.113066</ele>
        <time>2020-12-29T09:51:40.000Z</time>
      </trkpt>
      <trkpt lat="47.72783" lon="-3.38088">
        <ele>-80.049536</ele>
        <time>2020-12-29T09:51:43.000Z</time>
      </trkpt>
      <trkpt lat="47.72796" lon="-3.38092">
        <ele>-79.998768</ele>
        <time>2020-12-29T09:51:45.000Z</time>
      </trkpt>
      <trkpt lat="47.7281" lon="-3.38099">
        <ele>-79.943866</ele>
        <time>2020-12-29T09:51:47.000Z</time>
      </trkpt>
      <trkpt lat="47.72822" lon="-3.38108">
        <ele>-79.892764</ele>
        <time>2020-12-29T09:51:49.000Z</time>
      </trkpt>
      <trkpt lat="47.72834" lon="-3.38116">
        <ele>-79.393116</ele>
        <time>2020-12-29T09:51:51.000Z</time>
      </trkpt>
      <trkpt lat="47.72857" lon="-3.3812">
        <ele>-77.221935</ele>
        <time>2020-12-29T09:51:55.000Z</time>
      </trkpt>
      <trkpt lat="47.72863" lon="-3.38121">
        <ele>-76.665973</ele>
        <time>2020-12-29T09:51:56.000Z</time>
      </trkpt>
      <trkpt lat="47.72875" lon="-3.38126">
        <ele>-75.553563</ele>
        <time>2020-12-29T09:51:58.000Z</time>
      </trkpt>
      <trkpt lat="47.72881" lon="-3.3813">
        <ele>-74.962332</ele>
        <time>2020-12-29T09:51:59.000Z</time>
      </trkpt>
      <trkpt lat="47.72902" lon="-3.38151">
        <ele>-72.664835</ele>
        <time>2020-12-29T09:52:03.000Z</time>
      </trkpt>
      <trkpt lat="47.72914" lon="-3.38169">
        <ele>-71.061772</ele>
        <time>2020-12-29T09:52:06.000Z</time>
      </trkpt>
      <trkpt lat="47.72927" lon="-3.38185">
        <ele>-69.538394</ele>
        <time>2020-12-29T09:52:09.000Z</time>
      </trkpt>
      <trkpt lat="47.72948" lon="-3.38203">
        <ele>-67.342284</ele>
        <time>2020-12-29T09:52:13.000Z</time>
      </trkpt>
      <trkpt lat="47.72952" lon="-3.38209">
        <ele>-66.790625</ele>
        <time>2020-12-29T09:52:14.000Z</time>
      </trkpt>
      <trkpt lat="47.72978" lon="-3.3825">
        <ele>-63.450412</ele>
        <time>2020-12-29T09:52:20.000Z</time>
      </trkpt>
      <trkpt lat="47.72985" lon="-3.38283">
        <ele>-64.696921</ele>
        <time>2020-12-29T09:52:24.000Z</time>
      </trkpt>
      <trkpt lat="47.72985" lon="-3.38298">
        <ele>-65.250979</ele>
        <time>2020-12-29T09:52:26.000Z</time>
      </trkpt>
      <trkpt lat="47.72984" lon="-3.38305">
        <ele>-65.506475</ele>
        <time>2020-12-29T09:52:27.000Z</time>
      </trkpt>
      <trkpt lat="47.72981" lon="-3.38319">
        <ele>-66.034741</ele>
        <time>2020-12-29T09:52:29.000Z</time>
      </trkpt>
      <trkpt lat="47.72979" lon="-3.38326">
        <ele>-66.304031</ele>
        <time>2020-12-29T09:52:30.000Z</time>
      </trkpt>
      <trkpt lat="47.72975" lon="-3.38342">
        <ele>-66.886616</ele>
        <time>2020-12-29T09:52:32.000Z</time>
      </trkpt>
      <trkpt lat="47.72973" lon="-3.3835">
        <ele>-67.19969</ele>
        <time>2020-12-29T09:52:33.000Z</time>
      </trkpt>
      <trkpt lat="47.7297" lon="-3.38358">
        <ele>-67.525693</ele>
        <time>2020-12-29T09:52:34.000Z</time>
      </trkpt>
      <trkpt lat="47.72968" lon="-3.38367">
        <ele>-67.864073</ele>
        <time>2020-12-29T09:52:35.000Z</time>
      </trkpt>
      <trkpt lat="47.72961" lon="-3.38404">
        <ele>-69.237706</ele>
        <time>2020-12-29T09:52:39.000Z</time>
      </trkpt>
      <trkpt lat="47.72959" lon="-3.38423">
        <ele>-69.903904</ele>
        <time>2020-12-29T09:52:41.000Z</time>
      </trkpt>
      <trkpt lat="47.72957" lon="-3.38449">
        <ele>-70.844508</ele>
        <time>2020-12-29T09:52:44.000Z</time>
      </trkpt>
      <trkpt lat="47.72956" lon="-3.38458">
        <ele>-71.144747</ele>
        <time>2020-12-29T09:52:45.000Z</time>
      </trkpt>
      <trkpt lat="47.72955" lon="-3.38466">
        <ele>-71.439622</ele>
        <time>2020-12-29T09:52:46.000Z</time>
      </trkpt>
      <trkpt lat="47.72959" lon="-3.3849">
        <ele>-72.305565</ele>
        <time>2020-12-29T09:52:49.000Z</time>
      </trkpt>
      <trkpt lat="47.72963" lon="-3.38497">
        <ele>-72.627588</ele>
        <time>2020-12-29T09:52:50.000Z</time>
      </trkpt>
      <trkpt lat="47.72972" lon="-3.38509">
        <ele>-73.095494</ele>
        <time>2020-12-29T09:52:52.000Z</time>
      </trkpt>
      <trkpt lat="47.72977" lon="-3.38515">
        <ele>-73.259998</ele>
        <time>2020-12-29T09:52:53.000Z</time>
      </trkpt>
      <trkpt lat="47.72988" lon="-3.38527">
        <ele>-73.597818</ele>
        <time>2020-12-29T09:52:55.000Z</time>
      </trkpt>
      <trkpt lat="47.72993" lon="-3.38532">
        <ele>-73.764212</ele>
        <time>2020-12-29T09:52:56.000Z</time>
      </trkpt>
      <trkpt lat="47.72999" lon="-3.38535">
        <ele>-73.931772</ele>
        <time>2020-12-29T09:52:57.000Z</time>
      </trkpt>
      <trkpt lat="47.73012" lon="-3.38544">
        <ele>-74.282805</ele>
        <time>2020-12-29T09:52:59.000Z</time>
      </trkpt>
      <trkpt lat="47.73023" lon="-3.38556">
        <ele>-74.635124</ele>
        <time>2020-12-29T09:53:01.000Z</time>
      </trkpt>
      <trkpt lat="47.73032" lon="-3.38572">
        <ele>-74.983695</ele>
        <time>2020-12-29T09:53:03.000Z</time>
      </trkpt>
      <trkpt lat="47.73036" lon="-3.3858">
        <ele>-75.162565</ele>
        <time>2020-12-29T09:53:04.000Z</time>
      </trkpt>
      <trkpt lat="47.73041" lon="-3.38588">
        <ele>-75.348949</ele>
        <time>2020-12-29T09:53:05.000Z</time>
      </trkpt>
      <trkpt lat="47.73054" lon="-3.38597">
        <ele>-75.716704</ele>
        <time>2020-12-29T09:53:07.000Z</time>
      </trkpt>
      <trkpt lat="47.73069" lon="-3.38602">
        <ele>-76.090326</ele>
        <time>2020-12-29T09:53:09.000Z</time>
      </trkpt>
      <trkpt lat="47.73076" lon="-3.38603">
        <ele>-76.277319</ele>
        <time>2020-12-29T09:53:10.000Z</time>
      </trkpt>
      <trkpt lat="47.7309" lon="-3.38606">
        <ele>-76.648577</ele>
        <time>2020-12-29T09:53:12.000Z</time>
      </trkpt>
      <trkpt lat="47.73098" lon="-3.38606">
        <ele>-76.831898</ele>
        <time>2020-12-29T09:53:13.000Z</time>
      </trkpt>
      <trkpt lat="47.73127" lon="-3.38605">
        <ele>-77.444519</ele>
        <time>2020-12-29T09:53:17.000Z</time>
      </trkpt>
      <trkpt lat="47.7317" lon="-3.38604">
        <ele>-76.67225</ele>
        <time>2020-12-29T09:53:24.000Z</time>
      </trkpt>
      <trkpt lat="47.73205" lon="-3.38599">
        <ele>-76.044282</ele>
        <time>2020-12-29T09:53:31.000Z</time>
      </trkpt>
      <trkpt lat="47.73209" lon="-3.38598">
        <ele>-75.965331</ele>
        <time>2020-12-29T09:53:32.000Z</time>
      </trkpt>
      <trkpt lat="47.73228" lon="-3.3859">
        <ele>-75.608749</ele>
        <time>2020-12-29T09:53:37.000Z</time>
      </trkpt>
      <trkpt lat="47.73232" lon="-3.38589">
        <ele>-75.540464</ele>
        <time>2020-12-29T09:53:38.000Z</time>
      </trkpt>
      <trkpt lat="47.73251" lon="-3.38573">
        <ele>-75.146051</ele>
        <time>2020-12-29T09:53:44.000Z</time>
      </trkpt>
      <trkpt lat="47.73274" lon="-3.38545">
        <ele>-74.617827</ele>
        <time>2020-12-29T09:53:51.000Z</time>
      </trkpt>
      <trkpt lat="47.73287" lon="-3.3853">
        <ele>-74.330554</ele>
        <time>2020-12-29T09:53:55.000Z</time>
      </trkpt>
      <trkpt lat="47.73289" lon="-3.38526">
        <ele>-74.267772</ele>
        <time>2020-12-29T09:53:56.000Z</time>
      </trkpt>
      <trkpt lat="47.73302" lon="-3.38509">
        <ele>-73.965069</ele>
        <time>2020-12-29T09:54:01.000Z</time>
      </trkpt>
      <trkpt lat="47.73304" lon="-3.38506">
        <ele>-73.907872</ele>
        <time>2020-12-29T09:54:02.000Z</time>
      </trkpt>
      <trkpt lat="47.73313" lon="-3.38489">
        <ele>-73.648764</ele>
        <time>2020-12-29T09:54:07.000Z</time>
      </trkpt>
      <trkpt lat="47.7332" lon="-3.38488">
        <ele>-73.51788</ele>
        <time>2020-12-29T09:54:11.000Z</time>
      </trkpt>
      <trkpt lat="47.73323" lon="-3.38488">
        <ele>-73.461675</ele>
        <time>2020-12-29T09:54:13.000Z</time>
      </trkpt>
      <trkpt lat="47.73329" lon="-3.38485">
        <ele>-73.345864</ele>
        <time>2020-12-29T09:54:16.000Z</time>
      </trkpt>
      <trkpt lat="47.73344" lon="-3.38487">
        <ele>-73.081353</ele>
        <time>2020-12-29T09:54:21.000Z</time>
      </trkpt>
      <trkpt lat="47.73347" lon="-3.38489">
        <ele>-73.015447</ele>
        <time>2020-12-29T09:54:22.000Z</time>
      </trkpt>
      <trkpt lat="47.73361" lon="-3.38492">
        <ele>-72.762446</ele>
        <time>2020-12-29T09:54:26.000Z</time>
      </trkpt>
      <trkpt lat="47.73378" lon="-3.3848">
        <ele>-72.426522</ele>
        <time>2020-12-29T09:54:30.000Z</time>
      </trkpt>
      <trkpt lat="47.73382" lon="-3.38476">
        <ele>-72.331669</ele>
        <time>2020-12-29T09:54:31.000Z</time>
      </trkpt>
      <trkpt lat="47.73409" lon="-3.38454">
        <ele>-71.779453</ele>
        <time>2020-12-29T09:54:37.000Z</time>
      </trkpt>
      <trkpt lat="47.73418" lon="-3.38447">
        <ele>-71.591029</ele>
        <time>2020-12-29T09:54:39.000Z</time>
      </trkpt>
      <trkpt lat="47.73427" lon="-3.38441">
        <ele>-71.410109</ele>
        <time>2020-12-29T09:54:41.000Z</time>
      </trkpt>
      <trkpt lat="47.73444" lon="-3.38428">
        <ele>-71.066647</ele>
        <time>2020-12-29T09:54:45.000Z</time>
      </trkpt>
      <trkpt lat="47.73469" lon="-3.38415">
        <ele>-71.773106</ele>
        <time>2020-12-29T09:54:50.000Z</time>
      </trkpt>
      <trkpt lat="47.73479" lon="-3.38412">
        <ele>-72.088408</ele>
        <time>2020-12-29T09:54:52.000Z</time>
      </trkpt>
      <trkpt lat="47.73504" lon="-3.38397">
        <ele>-72.905641</ele>
        <time>2020-12-29T09:54:57.000Z</time>
      </trkpt>
      <trkpt lat="47.73531" lon="-3.3838">
        <ele>-73.823685</ele>
        <time>2020-12-29T09:55:02.000Z</time>
      </trkpt>
      <trkpt lat="47.73544" lon="-3.38373">
        <ele>-74.219748</ele>
        <time>2020-12-29T09:55:04.000Z</time>
      </trkpt>
      <trkpt lat="47.73562" lon="-3.3836">
        <ele>-74.845516</ele>
        <time>2020-12-29T09:55:07.000Z</time>
      </trkpt>
      <trkpt lat="47.73582" lon="-3.38345">
        <ele>-75.516693</ele>
        <time>2020-12-29T09:55:10.000Z</time>
      </trkpt>
      <trkpt lat="47.73603" lon="-3.38329">
        <ele>-76.233375</ele>
        <time>2020-12-29T09:55:13.000Z</time>
      </trkpt>
      <trkpt lat="47.73615" lon="-3.38319">
        <ele>-76.535236</ele>
        <time>2020-12-29T09:55:15.000Z</time>
      </trkpt>
      <trkpt lat="47.73641" lon="-3.38299">
        <ele>-76.643861</ele>
        <time>2020-12-29T09:55:19.000Z</time>
      </trkpt>
      <trkpt lat="47.73655" lon="-3.38289">
        <ele>-76.703195</ele>
        <time>2020-12-29T09:55:21.000Z</time>
      </trkpt>
      <trkpt lat="47.73676" lon="-3.38273">
        <ele>-76.794318</ele>
        <time>2020-12-29T09:55:24.000Z</time>
      </trkpt>
      <trkpt lat="47.73702" lon="-3.38253">
        <ele>-76.907734</ele>
        <time>2020-12-29T09:55:28.000Z</time>
      </trkpt>
      <trkpt lat="47.73746" lon="-3.38219">
        <ele>-77.096987</ele>
        <time>2020-12-29T09:55:35.000Z</time>
      </trkpt>
      <trkpt lat="47.73758" lon="-3.3821">
        <ele>-77.149466</ele>
        <time>2020-12-29T09:55:37.000Z</time>
      </trkpt>
      <trkpt lat="47.73793" lon="-3.38182">
        <ele>-75.742127</ele>
        <time>2020-12-29T09:55:43.000Z</time>
      </trkpt>
      <trkpt lat="47.73806" lon="-3.38169">
        <ele>-74.815994</ele>
        <time>2020-12-29T09:55:46.000Z</time>
      </trkpt>
      <trkpt lat="47.73821" lon="-3.38157">
        <ele>-73.830987</ele>
        <time>2020-12-29T09:55:49.000Z</time>
      </trkpt>
      <trkpt lat="47.73845" lon="-3.38139">
        <ele>-72.28702</ele>
        <time>2020-12-29T09:55:54.000Z</time>
      </trkpt>
      <trkpt lat="47.73849" lon="-3.38136">
        <ele>-71.97522</ele>
        <time>2020-12-29T09:55:55.000Z</time>
      </trkpt>
      <trkpt lat="47.73858" lon="-3.38127">
        <ele>-71.362933</ele>
        <time>2020-12-29T09:55:57.000Z</time>
      </trkpt>
      <trkpt lat="47.73863" lon="-3.38122">
        <ele>-71.049559</ele>
        <time>2020-12-29T09:55:58.000Z</time>
      </trkpt>
      <trkpt lat="47.73871" lon="-3.38113">
        <ele>-70.438863</ele>
        <time>2020-12-29T09:56:00.000Z</time>
      </trkpt>
      <trkpt lat="47.73882" lon="-3.38097">
        <ele>-69.555628</ele>
        <time>2020-12-29T09:56:03.000Z</time>
      </trkpt>
      <trkpt lat="47.73891" lon="-3.38081">
        <ele>-68.737292</ele>
        <time>2020-12-29T09:56:06.000Z</time>
      </trkpt>
      <trkpt lat="47.73897" lon="-3.38071">
        <ele>-68.186667</ele>
        <time>2020-12-29T09:56:08.000Z</time>
      </trkpt>
      <trkpt lat="47.739" lon="-3.38065">
        <ele>-67.893855</ele>
        <time>2020-12-29T09:56:09.000Z</time>
      </trkpt>
      <trkpt lat="47.73908" lon="-3.38055">
        <ele>-67.278001</ele>
        <time>2020-12-29T09:56:11.000Z</time>
      </trkpt>
      <trkpt lat="47.73912" lon="-3.3805">
        <ele>-66.980426</ele>
        <time>2020-12-29T09:56:12.000Z</time>
      </trkpt>
      <trkpt lat="47.73915" lon="-3.38045">
        <ele>-66.720116</ele>
        <time>2020-12-29T09:56:13.000Z</time>
      </trkpt>
      <trkpt lat="47.73923" lon="-3.38032">
        <ele>-66.567455</ele>
        <time>2020-12-29T09:56:16.000Z</time>
      </trkpt>
      <trkpt lat="47.73932" lon="-3.38034">
        <ele>-66.445864</ele>
        <time>2020-12-29T09:56:19.000Z</time>
      </trkpt>
      <trkpt lat="47.73945" lon="-3.38048">
        <ele>-66.234736</ele>
        <time>2020-12-29T09:56:24.000Z</time>
      </trkpt>
      <trkpt lat="47.73953" lon="-3.38054">
        <ele>-66.112649</ele>
        <time>2020-12-29T09:56:27.000Z</time>
      </trkpt>
      <trkpt lat="47.73959" lon="-3.3806">
        <ele>-66.02454</ele>
        <time>2020-12-29T09:56:29.000Z</time>
      </trkpt>
      <trkpt lat="47.73972" lon="-3.38079">
        <ele>-65.778727</ele>
        <time>2020-12-29T09:56:34.000Z</time>
      </trkpt>
      <trkpt lat="47.73997" lon="-3.38104">
        <ele>-65.385879</ele>
        <time>2020-12-29T09:56:41.000Z</time>
      </trkpt>
      <trkpt lat="47.74036" lon="-3.38142">
        <ele>-64.76344</ele>
        <time>2020-12-29T09:56:52.000Z</time>
      </trkpt>
      <trkpt lat="47.74051" lon="-3.38157">
        <ele>-64.526193</ele>
        <time>2020-12-29T09:56:56.000Z</time>
      </trkpt>
      <trkpt lat="47.74066" lon="-3.38172">
        <ele>-64.362625</ele>
        <time>2020-12-29T09:57:00.000Z</time>
      </trkpt>
      <trkpt lat="47.74095" lon="-3.38202">
        <ele>-64.523876</ele>
        <time>2020-12-29T09:57:08.000Z</time>
      </trkpt>
      <trkpt lat="47.74126" lon="-3.38231">
        <ele>-64.688812</ele>
        <time>2020-12-29T09:57:16.000Z</time>
      </trkpt>
      <trkpt lat="47.74148" lon="-3.38251">
        <ele>-64.805934</ele>
        <time>2020-12-29T09:57:22.000Z</time>
      </trkpt>
      <trkpt lat="47.74152" lon="-3.38252">
        <ele>-64.82425</ele>
        <time>2020-12-29T09:57:23.000Z</time>
      </trkpt>
      <trkpt lat="47.74164" lon="-3.38264">
        <ele>-64.889261</ele>
        <time>2020-12-29T09:57:27.000Z</time>
      </trkpt>
      <trkpt lat="47.74184" lon="-3.38286">
        <ele>-64.999898</ele>
        <time>2020-12-29T09:57:32.000Z</time>
      </trkpt>
      <trkpt lat="47.74195" lon="-3.38297">
        <ele>-65.059838</ele>
        <time>2020-12-29T09:57:35.000Z</time>
      </trkpt>
      <trkpt lat="47.74198" lon="-3.383">
        <ele>-65.078439</ele>
        <time>2020-12-29T09:57:36.000Z</time>
      </trkpt>
      <trkpt lat="47.74216" lon="-3.38314">
        <ele>-65.172726</ele>
        <time>2020-12-29T09:57:40.000Z</time>
      </trkpt>
      <trkpt lat="47.7422" lon="-3.38317">
        <ele>-65.197986</ele>
        <time>2020-12-29T09:57:41.000Z</time>
      </trkpt>
      <trkpt lat="47.74247" lon="-3.38338">
        <ele>-65.36849</ele>
        <time>2020-12-29T09:57:47.000Z</time>
      </trkpt>
      <trkpt lat="47.74274" lon="-3.38361">
        <ele>-65.548836</ele>
        <time>2020-12-29T09:57:54.000Z</time>
      </trkpt>
      <trkpt lat="47.74281" lon="-3.3837">
        <ele>-65.598531</ele>
        <time>2020-12-29T09:57:58.000Z</time>
      </trkpt>
      <trkpt lat="47.74296" lon="-3.38384">
        <ele>-65.700612</ele>
        <time>2020-12-29T09:58:03.000Z</time>
      </trkpt>
      <trkpt lat="47.74305" lon="-3.38391">
        <ele>-65.755654</ele>
        <time>2020-12-29T09:58:05.000Z</time>
      </trkpt>
      <trkpt lat="47.74319" lon="-3.384">
        <ele>-65.840741</ele>
        <time>2020-12-29T09:58:08.000Z</time>
      </trkpt>
      <trkpt lat="47.74351" lon="-3.38413">
        <ele>-66.033491</ele>
        <time>2020-12-29T09:58:15.000Z</time>
      </trkpt>
      <trkpt lat="47.74356" lon="-3.38413">
        <ele>-66.060168</ele>
        <time>2020-12-29T09:58:16.000Z</time>
      </trkpt>
      <trkpt lat="47.74379" lon="-3.38415">
        <ele>-66.149735</ele>
        <time>2020-12-29T09:58:21.000Z</time>
      </trkpt>
      <trkpt lat="47.74414" lon="-3.38417">
        <ele>-65.761551</ele>
        <time>2020-12-29T09:58:28.000Z</time>
      </trkpt>
      <trkpt lat="47.74455" lon="-3.38419">
        <ele>-65.290846</ele>
        <time>2020-12-29T09:58:37.000Z</time>
      </trkpt>
      <trkpt lat="47.7447" lon="-3.38419">
        <ele>-65.13178</ele>
        <time>2020-12-29T09:58:40.000Z</time>
      </trkpt>
      <trkpt lat="47.74489" lon="-3.3842">
        <ele>-64.917396</ele>
        <time>2020-12-29T09:58:44.000Z</time>
      </trkpt>
      <trkpt lat="47.74527" lon="-3.38421">
        <ele>-64.48302</ele>
        <time>2020-12-29T09:58:52.000Z</time>
      </trkpt>
      <trkpt lat="47.74551" lon="-3.38421">
        <ele>-64.211085</ele>
        <time>2020-12-29T09:58:57.000Z</time>
      </trkpt>
      <trkpt lat="47.74555" lon="-3.38422">
        <ele>-64.162554</ele>
        <time>2020-12-29T09:58:58.000Z</time>
      </trkpt>
      <trkpt lat="47.74589" lon="-3.3842">
        <ele>-63.981741</ele>
        <time>2020-12-29T09:59:05.000Z</time>
      </trkpt>
      <trkpt lat="47.74626" lon="-3.38417">
        <ele>-63.784631</ele>
        <time>2020-12-29T09:59:13.000Z</time>
      </trkpt>
      <trkpt lat="47.74645" lon="-3.38415">
        <ele>-63.687197</ele>
        <time>2020-12-29T09:59:17.000Z</time>
      </trkpt>
      <trkpt lat="47.74654" lon="-3.38414">
        <ele>-63.639979</ele>
        <time>2020-12-29T09:59:19.000Z</time>
      </trkpt>
      <trkpt lat="47.74684" lon="-3.38409">
        <ele>-63.480414</ele>
        <time>2020-12-29T09:59:26.000Z</time>
      </trkpt>
      <trkpt lat="47.74697" lon="-3.38406">
        <ele>-63.412954</ele>
        <time>2020-12-29T09:59:31.000Z</time>
      </trkpt>
      <trkpt lat="47.74698" lon="-3.38407">
        <ele>-63.407444</ele>
        <time>2020-12-29T09:59:33.000Z</time>
      </trkpt>
      <trkpt lat="47.74701" lon="-3.38408">
        <ele>-63.391816</ele>
        <time>2020-12-29T09:59:35.000Z</time>
      </trkpt>
      <trkpt lat="47.74708" lon="-3.38417">
        <ele>-63.346386</ele>
        <time>2020-12-29T09:59:39.000Z</time>
      </trkpt>
      <trkpt lat="47.74709" lon="-3.38418">
        <ele>-63.33732</ele>
        <time>2020-12-29T09:59:40.000Z</time>
      </trkpt>
      <trkpt lat="47.74713" lon="-3.38419">
        <ele>-63.315678</ele>
        <time>2020-12-29T09:59:43.000Z</time>
      </trkpt>
      <trkpt lat="47.74723" lon="-3.38425">
        <ele>-63.262123</ele>
        <time>2020-12-29T09:59:47.000Z</time>
      </trkpt>
      <trkpt lat="47.74725" lon="-3.38428">
        <ele>-63.244668</ele>
        <time>2020-12-29T09:59:48.000Z</time>
      </trkpt>
      <trkpt lat="47.74732" lon="-3.3844">
        <ele>-63.135497</ele>
        <time>2020-12-29T09:59:51.000Z</time>
      </trkpt>
      <trkpt lat="47.74734" lon="-3.38443">
        <ele>-63.069587</ele>
        <time>2020-12-29T09:59:52.000Z</time>
      </trkpt>
      <trkpt lat="47.7474" lon="-3.38455">
        <ele>-62.860398</ele>
        <time>2020-12-29T09:59:55.000Z</time>
      </trkpt>
      <trkpt lat="47.74749" lon="-3.38468">
        <ele>-62.606214</ele>
        <time>2020-12-29T09:59:58.000Z</time>
      </trkpt>
      <trkpt lat="47.74756" lon="-3.38481">
        <ele>-62.373693</ele>
        <time>2020-12-29T10:00:01.000Z</time>
      </trkpt>
      <trkpt lat="47.74756" lon="-3.3849">
        <ele>-62.246747</ele>
        <time>2020-12-29T10:00:03.000Z</time>
      </trkpt>
      <trkpt lat="47.74758" lon="-3.3851">
        <ele>-61.970546</ele>
        <time>2020-12-29T10:00:06.000Z</time>
      </trkpt>
      <trkpt lat="47.74766" lon="-3.38527">
        <ele>-61.676685</ele>
        <time>2020-12-29T10:00:09.000Z</time>
      </trkpt>
      <trkpt lat="47.74769" lon="-3.38533">
        <ele>-61.577556</ele>
        <time>2020-12-29T10:00:10.000Z</time>
      </trkpt>
      <trkpt lat="47.74772" lon="-3.38538">
        <ele>-61.480188</ele>
        <time>2020-12-29T10:00:11.000Z</time>
      </trkpt>
      <trkpt lat="47.74786" lon="-3.38555">
        <ele>-61.112838</ele>
        <time>2020-12-29T10:00:15.000Z</time>
      </trkpt>
      <trkpt lat="47.74806" lon="-3.38569">
        <ele>-60.660839</ele>
        <time>2020-12-29T10:00:21.000Z</time>
      </trkpt>
      <trkpt lat="47.74826" lon="-3.38573">
        <ele>-60.234455</ele>
        <time>2020-12-29T10:00:26.000Z</time>
      </trkpt>
      <trkpt lat="47.74835" lon="-3.38573">
        <ele>-60.042426</ele>
        <time>2020-12-29T10:00:29.000Z</time>
      </trkpt>
      <trkpt lat="47.74841" lon="-3.38573">
        <ele>-59.92679</ele>
        <time>2020-12-29T10:00:31.000Z</time>
      </trkpt>
      <trkpt lat="47.74844" lon="-3.38573">
        <ele>-59.86891</ele>
        <time>2020-12-29T10:00:32.000Z</time>
      </trkpt>
      <trkpt lat="47.74855" lon="-3.38572">
        <ele>-59.64364</ele>
        <time>2020-12-29T10:00:35.000Z</time>
      </trkpt>
      <trkpt lat="47.74862" lon="-3.38571">
        <ele>-59.495506</ele>
        <time>2020-12-29T10:00:37.000Z</time>
      </trkpt>
      <trkpt lat="47.74882" lon="-3.38562">
        <ele>-58.97114</ele>
        <time>2020-12-29T10:00:43.000Z</time>
      </trkpt>
      <trkpt lat="47.74886" lon="-3.38538">
        <ele>-58.549874</ele>
        <time>2020-12-29T10:00:48.000Z</time>
      </trkpt>
      <trkpt lat="47.7489" lon="-3.38517">
        <ele>-58.176971</ele>
        <time>2020-12-29T10:00:52.000Z</time>
      </trkpt>
      <trkpt lat="47.74892" lon="-3.38513">
        <ele>-58.08884</ele>
        <time>2020-12-29T10:00:53.000Z</time>
      </trkpt>
      <trkpt lat="47.74896" lon="-3.38511">
        <ele>-57.996917</ele>
        <time>2020-12-29T10:00:54.000Z</time>
      </trkpt>
      <trkpt lat="47.7491" lon="-3.38512">
        <ele>-57.646411</ele>
        <time>2020-12-29T10:00:57.000Z</time>
      </trkpt>
      <trkpt lat="47.74915" lon="-3.38513">
        <ele>-57.512297</ele>
        <time>2020-12-29T10:00:58.000Z</time>
      </trkpt>
      <trkpt lat="47.74941" lon="-3.38518">
        <ele>-56.844227</ele>
        <time>2020-12-29T10:01:03.000Z</time>
      </trkpt>
      <trkpt lat="47.74952" lon="-3.38519">
        <ele>-56.574178</ele>
        <time>2020-12-29T10:01:05.000Z</time>
      </trkpt>
      <trkpt lat="47.74982" lon="-3.38529">
        <ele>-55.796007</ele>
        <time>2020-12-29T10:01:11.000Z</time>
      </trkpt>
      <trkpt lat="47.75017" lon="-3.38535">
        <ele>-54.920647</ele>
        <time>2020-12-29T10:01:18.000Z</time>
      </trkpt>
      <trkpt lat="47.75032" lon="-3.38537">
        <ele>-54.598071</ele>
        <time>2020-12-29T10:01:21.000Z</time>
      </trkpt>
      <trkpt lat="47.75046" lon="-3.3854">
        <ele>-54.297748</ele>
        <time>2020-12-29T10:01:24.000Z</time>
      </trkpt>
      <trkpt lat="47.75079" lon="-3.38544">
        <ele>-53.589828</ele>
        <time>2020-12-29T10:01:31.000Z</time>
      </trkpt>
      <trkpt lat="47.75088" lon="-3.38543">
        <ele>-53.380706</ele>
        <time>2020-12-29T10:01:33.000Z</time>
      </trkpt>
      <trkpt lat="47.75103" lon="-3.38546">
        <ele>-53.070654</ele>
        <time>2020-12-29T10:01:36.000Z</time>
      </trkpt>
      <trkpt lat="47.75129" lon="-3.38543">
        <ele>-52.514087</ele>
        <time>2020-12-29T10:01:42.000Z</time>
      </trkpt>
      <trkpt lat="47.75136" lon="-3.38545">
        <ele>-52.345073</ele>
        <time>2020-12-29T10:01:44.000Z</time>
      </trkpt>
      <trkpt lat="47.75143" lon="-3.38559">
        <ele>-52.09391</ele>
        <time>2020-12-29T10:01:47.000Z</time>
      </trkpt>
      <trkpt lat="47.7515" lon="-3.38576">
        <ele>-51.798196</ele>
        <time>2020-12-29T10:01:50.000Z</time>
      </trkpt>
      <trkpt lat="47.75153" lon="-3.38581">
        <ele>-51.700381</ele>
        <time>2020-12-29T10:01:51.000Z</time>
      </trkpt>
      <trkpt lat="47.75156" lon="-3.38586">
        <ele>-51.603676</ele>
        <time>2020-12-29T10:01:52.000Z</time>
      </trkpt>
      <trkpt lat="47.75177" lon="-3.38617">
        <ele>-50.970336</ele>
        <time>2020-12-29T10:01:59.000Z</time>
      </trkpt>
      <trkpt lat="47.75181" lon="-3.38619">
        <ele>-50.873492</ele>
        <time>2020-12-29T10:02:00.000Z</time>
      </trkpt>
      <trkpt lat="47.75199" lon="-3.38623">
        <ele>-50.455945</ele>
        <time>2020-12-29T10:02:04.000Z</time>
      </trkpt>
      <trkpt lat="47.75213" lon="-3.38627">
        <ele>-50.12794</ele>
        <time>2020-12-29T10:02:07.000Z</time>
      </trkpt>
      <trkpt lat="47.75222" lon="-3.38627">
        <ele>-49.92922</ele>
        <time>2020-12-29T10:02:09.000Z</time>
      </trkpt>
      <trkpt lat="47.75226" lon="-3.38628">
        <ele>-49.836616</ele>
        <time>2020-12-29T10:02:10.000Z</time>
      </trkpt>
      <trkpt lat="47.75231" lon="-3.38636">
        <ele>-49.665813</ele>
        <time>2020-12-29T10:02:12.000Z</time>
      </trkpt>
      <trkpt lat="47.75232" lon="-3.38654">
        <ele>-49.389906</ele>
        <time>2020-12-29T10:02:15.000Z</time>
      </trkpt>
      <trkpt lat="47.75232" lon="-3.3866">
        <ele>-49.296022</ele>
        <time>2020-12-29T10:02:16.000Z</time>
      </trkpt>
      <trkpt lat="47.75234" lon="-3.3867">
        <ele>-49.145694</ele>
        <time>2020-12-29T10:02:18.000Z</time>
      </trkpt>
      <trkpt lat="47.75238" lon="-3.38676">
        <ele>-49.017866</ele>
        <time>2020-12-29T10:02:20.000Z</time>
      </trkpt>
      <trkpt lat="47.75242" lon="-3.38693">
        <ele>-48.739684</ele>
        <time>2020-12-29T10:02:23.000Z</time>
      </trkpt>
      <trkpt lat="47.75243" lon="-3.38735">
        <ele>-48.091243</ele>
        <time>2020-12-29T10:02:30.000Z</time>
      </trkpt>
      <trkpt lat="47.75243" lon="-3.38737">
        <ele>-48.054139</ele>
        <time>2020-12-29T10:02:31.000Z</time>
      </trkpt>
      <trkpt lat="47.75242" lon="-3.38742">
        <ele>-47.989307</ele>
        <time>2020-12-29T10:02:33.000Z</time>
      </trkpt>
      <trkpt lat="47.75243" lon="-3.38743">
        <ele>-47.958708</ele>
        <time>2020-12-29T10:02:34.000Z</time>
      </trkpt>
      <trkpt lat="47.75248" lon="-3.38745">
        <ele>-47.83569</ele>
        <time>2020-12-29T10:02:37.000Z</time>
      </trkpt>
      <trkpt lat="47.75251" lon="-3.38746">
        <ele>-47.769322</ele>
        <time>2020-12-29T10:02:38.000Z</time>
      </trkpt>
      <trkpt lat="47.75269" lon="-3.38749">
        <ele>-47.358401</ele>
        <time>2020-12-29T10:02:44.000Z</time>
      </trkpt>
      <trkpt lat="47.75275" lon="-3.38748">
        <ele>-47.235078</ele>
        <time>2020-12-29T10:02:46.000Z</time>
      </trkpt>
      <trkpt lat="47.75287" lon="-3.38748">
        <ele>-46.99941</ele>
        <time>2020-12-29T10:02:50.000Z</time>
      </trkpt>
      <trkpt lat="47.75311" lon="-3.38749">
        <ele>-47.061783</ele>
        <time>2020-12-29T10:02:57.000Z</time>
      </trkpt>
      <trkpt lat="47.75333" lon="-3.38749">
        <ele>-47.117656</ele>
        <time>2020-12-29T10:03:03.000Z</time>
      </trkpt>
      <trkpt lat="47.75351" lon="-3.38751">
        <ele>-47.166084</ele>
        <time>2020-12-29T10:03:10.000Z</time>
      </trkpt>
      <trkpt lat="47.75359" lon="-3.3875">
        <ele>-47.18636</ele>
        <time>2020-12-29T10:03:13.000Z</time>
      </trkpt>
      <trkpt lat="47.7537" lon="-3.3875">
        <ele>-47.214686</ele>
        <time>2020-12-29T10:03:17.000Z</time>
      </trkpt>
      <trkpt lat="47.75378" lon="-3.38754">
        <ele>-47.236564</ele>
        <time>2020-12-29T10:03:20.000Z</time>
      </trkpt>
      <trkpt lat="47.75383" lon="-3.3876">
        <ele>-47.252947</ele>
        <time>2020-12-29T10:03:22.000Z</time>
      </trkpt>
      <trkpt lat="47.75384" lon="-3.38765">
        <ele>-47.261611</ele>
        <time>2020-12-29T10:03:23.000Z</time>
      </trkpt>
      <trkpt lat="47.75386" lon="-3.38782">
        <ele>-47.291534</ele>
        <time>2020-12-29T10:03:26.000Z</time>
      </trkpt>
      <trkpt lat="47.75387" lon="-3.38814">
        <ele>-47.348085</ele>
        <time>2020-12-29T10:03:31.000Z</time>
      </trkpt>
      <trkpt lat="47.75388" lon="-3.38834">
        <ele>-47.383299</ele>
        <time>2020-12-29T10:03:34.000Z</time>
      </trkpt>
      <trkpt lat="47.75388" lon="-3.38881">
        <ele>-47.455115</ele>
        <time>2020-12-29T10:03:41.000Z</time>
      </trkpt>
      <trkpt lat="47.75388" lon="-3.38906">
        <ele>-47.366973</ele>
        <time>2020-12-29T10:03:45.000Z</time>
      </trkpt>
      <trkpt lat="47.75391" lon="-3.38917">
        <ele>-47.325027</ele>
        <time>2020-12-29T10:03:47.000Z</time>
      </trkpt>
      <trkpt lat="47.75401" lon="-3.38922">
        <ele>-47.27308</ele>
        <time>2020-12-29T10:03:50.000Z</time>
      </trkpt>
      <trkpt lat="47.7541" lon="-3.38914">
        <ele>-47.214767</ele>
        <time>2020-12-29T10:03:53.000Z</time>
      </trkpt>
      <trkpt lat="47.75414" lon="-3.3891">
        <ele>-47.191492</ele>
        <time>2020-12-29T10:03:54.000Z</time>
      </trkpt>
      <trkpt lat="47.75418" lon="-3.38906">
        <ele>-47.168416</ele>
        <time>2020-12-29T10:03:55.000Z</time>
      </trkpt>
      <trkpt lat="47.75439" lon="-3.38881">
        <ele>-47.026688</ele>
        <time>2020-12-29T10:04:01.000Z</time>
      </trkpt>
      <trkpt lat="47.75446" lon="-3.38874">
        <ele>-46.982618</ele>
        <time>2020-12-29T10:04:03.000Z</time>
      </trkpt>
      <trkpt lat="47.75455" lon="-3.38868">
        <ele>-46.933885</ele>
        <time>2020-12-29T10:04:06.000Z</time>
      </trkpt>
      <trkpt lat="47.75461" lon="-3.38872">
        <ele>-46.89745</ele>
        <time>2020-12-29T10:04:09.000Z</time>
      </trkpt>
      <trkpt lat="47.75464" lon="-3.38872">
        <ele>-46.881849</ele>
        <time>2020-12-29T10:04:10.000Z</time>
      </trkpt>
      <trkpt lat="47.75485" lon="-3.3888">
        <ele>-46.769479</ele>
        <time>2020-12-29T10:04:15.000Z</time>
      </trkpt>
      <trkpt lat="47.75514" lon="-3.38903">
        <ele>-46.597878</ele>
        <time>2020-12-29T10:04:22.000Z</time>
      </trkpt>
      <trkpt lat="47.75525" lon="-3.38909">
        <ele>-46.539234</ele>
        <time>2020-12-29T10:04:26.000Z</time>
      </trkpt>
      <trkpt lat="47.7554" lon="-3.38914">
        <ele>-46.699866</ele>
        <time>2020-12-29T10:04:31.000Z</time>
      </trkpt>
      <trkpt lat="47.75553" lon="-3.38929">
        <ele>-46.913471</ele>
        <time>2020-12-29T10:04:36.000Z</time>
      </trkpt>
      <trkpt lat="47.75561" lon="-3.38941">
        <ele>-47.067929</ele>
        <time>2020-12-29T10:04:40.000Z</time>
      </trkpt>
      <trkpt lat="47.75565" lon="-3.38962">
        <ele>-47.260769</ele>
        <time>2020-12-29T10:04:44.000Z</time>
      </trkpt>
      <trkpt lat="47.75568" lon="-3.3898">
        <ele>-47.414497</ele>
        <time>2020-12-29T10:04:47.000Z</time>
      </trkpt>
      <trkpt lat="47.75574" lon="-3.39012">
        <ele>-47.707038</ele>
        <time>2020-12-29T10:04:52.000Z</time>
      </trkpt>
      <trkpt lat="47.75576" lon="-3.39018">
        <ele>-47.764289</ele>
        <time>2020-12-29T10:04:53.000Z</time>
      </trkpt>
      <trkpt lat="47.75587" lon="-3.39065">
        <ele>-48.19711</ele>
        <time>2020-12-29T10:05:01.000Z</time>
      </trkpt>
      <trkpt lat="47.756" lon="-3.39077">
        <ele>-48.388138</ele>
        <time>2020-12-29T10:05:06.000Z</time>
      </trkpt>
      <trkpt lat="47.75611" lon="-3.39091">
        <ele>-48.58172</ele>
        <time>2020-12-29T10:05:11.000Z</time>
      </trkpt>
      <trkpt lat="47.75616" lon="-3.39112">
        <ele>-48.776963</ele>
        <time>2020-12-29T10:05:16.000Z</time>
      </trkpt>
      <trkpt lat="47.75617" lon="-3.39113">
        <ele>-48.797864</ele>
        <time>2020-12-29T10:05:17.000Z</time>
      </trkpt>
      <trkpt lat="47.75627" lon="-3.39107">
        <ele>-49.001405</ele>
        <time>2020-12-29T10:05:21.000Z</time>
      </trkpt>
      <trkpt lat="47.7565" lon="-3.39087">
        <ele>-49.631612</ele>
        <time>2020-12-29T10:05:27.000Z</time>
      </trkpt>
      <trkpt lat="47.75671" lon="-3.39077">
        <ele>-50.151644</ele>
        <time>2020-12-29T10:05:32.000Z</time>
      </trkpt>
    </trkseg>
  </trk>
  <trk>
    <name><![CDATA[Fort bloqué Auray_5]]></name>
    <extensions>
      <line xmlns="http://www.topografix.com/GPX/gpx_style/0/2">
        <color>FFFF00</color>
        <width>4</width>
      </line>
    </extensions>
    <trkseg>
      <trkpt lat="47.59496" lon="-3.13233">
        <ele>5.633149</ele>
        <time>2021-12-01T10:36:14.000Z</time>
      </trkpt>
      <trkpt lat="47.59475" lon="-3.13251">
        <ele>5.694793</ele>
        <time>2021-12-01T10:36:20.000Z</time>
      </trkpt>
      <trkpt lat="47.59472" lon="-3.13252">
        <ele>5.70431</ele>
        <time>2021-12-01T10:36:21.000Z</time>
      </trkpt>
      <trkpt lat="47.59467" lon="-3.13247">
        <ele>5.719004</ele>
        <time>2021-12-01T10:36:23.000Z</time>
      </trkpt>
      <trkpt lat="47.59465" lon="-3.13244">
        <ele>5.726829</ele>
        <time>2021-12-01T10:36:24.000Z</time>
      </trkpt>
      <trkpt lat="47.59452" lon="-3.13222">
        <ele>5.777186</ele>
        <time>2021-12-01T10:36:29.000Z</time>
      </trkpt>
      <trkpt lat="47.59434" lon="-3.13206">
        <ele>5.830539</ele>
        <time>2021-12-01T10:36:34.000Z</time>
      </trkpt>
      <trkpt lat="47.59421" lon="-3.13205">
        <ele>5.864779</ele>
        <time>2021-12-01T10:36:37.000Z</time>
      </trkpt>
      <trkpt lat="47.59411" lon="-3.13209">
        <ele>5.891036</ele>
        <time>2021-12-01T10:36:39.000Z</time>
      </trkpt>
      <trkpt lat="47.5938" lon="-3.13224">
        <ele>5.787722</ele>
        <time>2021-12-01T10:36:45.000Z</time>
      </trkpt>
      <trkpt lat="47.59357" lon="-3.13224">
        <ele>5.691255</ele>
        <time>2021-12-01T10:36:50.000Z</time>
      </trkpt>
      <trkpt lat="47.59339" lon="-3.13224">
        <ele>5.616319</ele>
        <time>2021-12-01T10:36:54.000Z</time>
      </trkpt>
      <trkpt lat="47.59331" lon="-3.13229">
        <ele>5.582334</ele>
        <time>2021-12-01T10:36:56.000Z</time>
      </trkpt>
      <trkpt lat="47.59309" lon="-3.13238">
        <ele>5.48715</ele>
        <time>2021-12-01T10:37:01.000Z</time>
      </trkpt>
      <trkpt lat="47.59304" lon="-3.1324">
        <ele>5.464544</ele>
        <time>2021-12-01T10:37:02.000Z</time>
      </trkpt>
      <trkpt lat="47.59292" lon="-3.13243">
        <ele>5.415361</ele>
        <time>2021-12-01T10:37:05.000Z</time>
      </trkpt>
      <trkpt lat="47.59275" lon="-3.13239">
        <ele>5.343459</ele>
        <time>2021-12-01T10:37:10.000Z</time>
      </trkpt>
      <trkpt lat="47.59259" lon="-3.13224">
        <ele>5.263339</ele>
        <time>2021-12-01T10:37:15.000Z</time>
      </trkpt>
      <trkpt lat="47.59254" lon="-3.13223">
        <ele>5.243085</ele>
        <time>2021-12-01T10:37:16.000Z</time>
      </trkpt>
      <trkpt lat="47.59244" lon="-3.13223">
        <ele>5.203339</ele>
        <time>2021-12-01T10:37:18.000Z</time>
      </trkpt>
      <trkpt lat="47.59238" lon="-3.13224">
        <ele>5.177864</ele>
        <time>2021-12-01T10:37:19.000Z</time>
      </trkpt>
      <trkpt lat="47.59201" lon="-3.13233">
        <ele>5.06458</ele>
        <time>2021-12-01T10:37:26.000Z</time>
      </trkpt>
      <trkpt lat="47.59173" lon="-3.1324">
        <ele>4.9849</ele>
        <time>2021-12-01T10:37:31.000Z</time>
      </trkpt>
      <trkpt lat="47.59156" lon="-3.13244">
        <ele>4.937822</ele>
        <time>2021-12-01T10:37:34.000Z</time>
      </trkpt>
      <trkpt lat="47.59128" lon="-3.13251">
        <ele>4.858323</ele>
        <time>2021-12-01T10:37:39.000Z</time>
      </trkpt>
      <trkpt lat="47.59105" lon="-3.13256">
        <ele>4.792918</ele>
        <time>2021-12-01T10:37:43.000Z</time>
      </trkpt>
      <trkpt lat="47.59047" lon="-3.13272">
        <ele>4.675354</ele>
        <time>2021-12-01T10:37:53.000Z</time>
      </trkpt>
      <trkpt lat="47.59006" lon="-3.13284">
        <ele>4.778022</ele>
        <time>2021-12-01T10:38:00.000Z</time>
      </trkpt>
      <trkpt lat="47.58966" lon="-3.13294">
        <ele>4.879576</ele>
        <time>2021-12-01T10:38:07.000Z</time>
      </trkpt>
      <trkpt lat="47.58914" lon="-3.13307">
        <ele>5.012006</ele>
        <time>2021-12-01T10:38:16.000Z</time>
      </trkpt>
      <trkpt lat="47.58867" lon="-3.1332">
        <ele>5.098866</ele>
        <time>2021-12-01T10:38:24.000Z</time>
      </trkpt>
      <trkpt lat="47.58844" lon="-3.13327">
        <ele>5.096979</ele>
        <time>2021-12-01T10:38:28.000Z</time>
      </trkpt>
      <trkpt lat="47.58833" lon="-3.13329">
        <ele>5.096032</ele>
        <time>2021-12-01T10:38:30.000Z</time>
      </trkpt>
      <trkpt lat="47.58792" lon="-3.13338">
        <ele>5.092704</ele>
        <time>2021-12-01T10:38:37.000Z</time>
      </trkpt>
      <trkpt lat="47.58763" lon="-3.13346">
        <ele>5.090314</ele>
        <time>2021-12-01T10:38:42.000Z</time>
      </trkpt>
      <trkpt lat="47.58752" lon="-3.13349">
        <ele>5.089366</ele>
        <time>2021-12-01T10:38:44.000Z</time>
      </trkpt>
      <trkpt lat="47.58693" lon="-3.13364">
        <ele>5.076819</ele>
        <time>2021-12-01T10:38:54.000Z</time>
      </trkpt>
      <trkpt lat="47.58639" lon="-3.13377">
        <ele>5.024324</ele>
        <time>2021-12-01T10:39:03.000Z</time>
      </trkpt>
      <trkpt lat="47.58634" lon="-3.13379">
        <ele>5.018732</ele>
        <time>2021-12-01T10:39:04.000Z</time>
      </trkpt>
      <trkpt lat="47.58589" lon="-3.13391">
        <ele>4.975127</ele>
        <time>2021-12-01T10:39:12.000Z</time>
      </trkpt>
      <trkpt lat="47.58557" lon="-3.13405">
        <ele>4.942435</ele>
        <time>2021-12-01T10:39:18.000Z</time>
      </trkpt>
      <trkpt lat="47.58528" lon="-3.1341">
        <ele>4.915062</ele>
        <time>2021-12-01T10:39:23.000Z</time>
      </trkpt>
      <trkpt lat="47.58511" lon="-3.13415">
        <ele>4.970273</ele>
        <time>2021-12-01T10:39:26.000Z</time>
      </trkpt>
      <trkpt lat="47.58464" lon="-3.13429">
        <ele>5.164433</ele>
        <time>2021-12-01T10:39:34.000Z</time>
      </trkpt>
      <trkpt lat="47.58411" lon="-3.13442">
        <ele>5.383593</ele>
        <time>2021-12-01T10:39:43.000Z</time>
      </trkpt>
      <trkpt lat="47.58358" lon="-3.13455">
        <ele>5.603511</ele>
        <time>2021-12-01T10:39:52.000Z</time>
      </trkpt>
      <trkpt lat="47.58334" lon="-3.13461">
        <ele>5.560062</ele>
        <time>2021-12-01T10:39:56.000Z</time>
      </trkpt>
      <trkpt lat="47.58281" lon="-3.13475">
        <ele>5.232037</ele>
        <time>2021-12-01T10:40:05.000Z</time>
      </trkpt>
      <trkpt lat="47.58275" lon="-3.13476">
        <ele>5.195062</ele>
        <time>2021-12-01T10:40:06.000Z</time>
      </trkpt>
      <trkpt lat="47.58219" lon="-3.13494">
        <ele>4.847695</ele>
        <time>2021-12-01T10:40:16.000Z</time>
      </trkpt>
      <trkpt lat="47.58214" lon="-3.13495">
        <ele>4.816906</ele>
        <time>2021-12-01T10:40:17.000Z</time>
      </trkpt>
      <trkpt lat="47.58196" lon="-3.13498">
        <ele>4.707176</ele>
        <time>2021-12-01T10:40:21.000Z</time>
      </trkpt>
      <trkpt lat="47.58194" lon="-3.135">
        <ele>4.690102</ele>
        <time>2021-12-01T10:40:22.000Z</time>
      </trkpt>
      <trkpt lat="47.5819" lon="-3.13504">
        <ele>4.662569</ele>
        <time>2021-12-01T10:40:24.000Z</time>
      </trkpt>
      <trkpt lat="47.58185" lon="-3.13507">
        <ele>4.62816</ele>
        <time>2021-12-01T10:40:26.000Z</time>
      </trkpt>
      <trkpt lat="47.58181" lon="-3.13509">
        <ele>4.604983</ele>
        <time>2021-12-01T10:40:27.000Z</time>
      </trkpt>
      <trkpt lat="47.58166" lon="-3.13514">
        <ele>4.567026</ele>
        <time>2021-12-01T10:40:31.000Z</time>
      </trkpt>
      <trkpt lat="47.58162" lon="-3.13514">
        <ele>4.575816</ele>
        <time>2021-12-01T10:40:32.000Z</time>
      </trkpt>
      <trkpt lat="47.58152" lon="-3.1351">
        <ele>4.59469</ele>
        <time>2021-12-01T10:40:34.000Z</time>
      </trkpt>
      <trkpt lat="47.58148" lon="-3.13507">
        <ele>4.604422</ele>
        <time>2021-12-01T10:40:35.000Z</time>
      </trkpt>
      <trkpt lat="47.58139" lon="-3.135">
        <ele>4.624814</ele>
        <time>2021-12-01T10:40:37.000Z</time>
      </trkpt>
      <trkpt lat="47.58124" lon="-3.13494">
        <ele>4.655216</ele>
        <time>2021-12-01T10:40:40.000Z</time>
      </trkpt>
      <trkpt lat="47.58114" lon="-3.13492">
        <ele>4.676523</ele>
        <time>2021-12-01T10:40:42.000Z</time>
      </trkpt>
      <trkpt lat="47.58091" lon="-3.13491">
        <ele>4.721845</ele>
        <time>2021-12-01T10:40:46.000Z</time>
      </trkpt>
      <trkpt lat="47.58073" lon="-3.1349">
        <ele>4.756948</ele>
        <time>2021-12-01T10:40:49.000Z</time>
      </trkpt>
      <trkpt lat="47.58049" lon="-3.1349">
        <ele>4.804406</ele>
        <time>2021-12-01T10:40:53.000Z</time>
      </trkpt>
      <trkpt lat="47.58007" lon="-3.13489">
        <ele>4.888559</ele>
        <time>2021-12-01T10:41:00.000Z</time>
      </trkpt>
      <trkpt lat="47.57953" lon="-3.13488">
        <ele>4.736886</ele>
        <time>2021-12-01T10:41:09.000Z</time>
      </trkpt>
      <trkpt lat="47.57929" lon="-3.13488">
        <ele>4.641428</ele>
        <time>2021-12-01T10:41:13.000Z</time>
      </trkpt>
      <trkpt lat="47.57918" lon="-3.1349">
        <ele>4.592726</ele>
        <time>2021-12-01T10:41:15.000Z</time>
      </trkpt>
      <trkpt lat="47.57912" lon="-3.13492">
        <ele>4.568662</ele>
        <time>2021-12-01T10:41:16.000Z</time>
      </trkpt>
      <trkpt lat="47.57888" lon="-3.13494">
        <ele>4.470247</ele>
        <time>2021-12-01T10:41:20.000Z</time>
      </trkpt>
      <trkpt lat="47.57832" lon="-3.13493">
        <ele>4.24427</ele>
        <time>2021-12-01T10:41:29.000Z</time>
      </trkpt>
      <trkpt lat="47.57814" lon="-3.13492">
        <ele>4.178093</ele>
        <time>2021-12-01T10:41:32.000Z</time>
      </trkpt>
      <trkpt lat="47.57759" lon="-3.13492">
        <ele>4.17806</ele>
        <time>2021-12-01T10:41:41.000Z</time>
      </trkpt>
      <trkpt lat="47.57734" lon="-3.13492">
        <ele>4.178045</ele>
        <time>2021-12-01T10:41:45.000Z</time>
      </trkpt>
      <trkpt lat="47.57703" lon="-3.13494">
        <ele>4.178027</ele>
        <time>2021-12-01T10:41:50.000Z</time>
      </trkpt>
      <trkpt lat="47.57697" lon="-3.13493">
        <ele>4.178023</ele>
        <time>2021-12-01T10:41:51.000Z</time>
      </trkpt>
      <trkpt lat="47.5768" lon="-3.13494">
        <ele>4.178013</ele>
        <time>2021-12-01T10:41:54.000Z</time>
      </trkpt>
      <trkpt lat="47.5767" lon="-3.13498">
        <ele>4.178007</ele>
        <time>2021-12-01T10:41:56.000Z</time>
      </trkpt>
      <trkpt lat="47.57658" lon="-3.13506">
        <ele>4.177998</ele>
        <time>2021-12-01T10:42:00.000Z</time>
      </trkpt>
      <trkpt lat="47.57649" lon="-3.1351">
        <ele>4.177993</ele>
        <time>2021-12-01T10:42:03.000Z</time>
      </trkpt>
      <trkpt lat="47.57646" lon="-3.13508">
        <ele>4.177991</ele>
        <time>2021-12-01T10:42:04.000Z</time>
      </trkpt>
      <trkpt lat="47.57632" lon="-3.13499">
        <ele>4.150592</ele>
        <time>2021-12-01T10:42:08.000Z</time>
      </trkpt>
      <trkpt lat="47.57627" lon="-3.13498">
        <ele>4.132483</ele>
        <time>2021-12-01T10:42:09.000Z</time>
      </trkpt>
      <trkpt lat="47.57605" lon="-3.13497">
        <ele>4.051809</ele>
        <time>2021-12-01T10:42:13.000Z</time>
      </trkpt>
      <trkpt lat="47.57575" lon="-3.13493">
        <ele>3.943185</ele>
        <time>2021-12-01T10:42:18.000Z</time>
      </trkpt>
      <trkpt lat="47.5757" lon="-3.13493">
        <ele>3.925535</ele>
        <time>2021-12-01T10:42:19.000Z</time>
      </trkpt>
      <trkpt lat="47.57522" lon="-3.13494">
        <ele>3.751564</ele>
        <time>2021-12-01T10:42:27.000Z</time>
      </trkpt>
      <trkpt lat="47.57515" lon="-3.13494">
        <ele>3.729598</ele>
        <time>2021-12-01T10:42:28.000Z</time>
      </trkpt>
      <trkpt lat="47.57503" lon="-3.13498">
        <ele>3.682898</ele>
        <time>2021-12-01T10:42:30.000Z</time>
      </trkpt>
      <trkpt lat="47.57497" lon="-3.135">
        <ele>3.66032</ele>
        <time>2021-12-01T10:42:31.000Z</time>
      </trkpt>
      <trkpt lat="47.57491" lon="-3.13503">
        <ele>3.637595</ele>
        <time>2021-12-01T10:42:32.000Z</time>
      </trkpt>
      <trkpt lat="47.57479" lon="-3.13503">
        <ele>3.594342</ele>
        <time>2021-12-01T10:42:34.000Z</time>
      </trkpt>
      <trkpt lat="47.57472" lon="-3.13502">
        <ele>3.571828</ele>
        <time>2021-12-01T10:42:35.000Z</time>
      </trkpt>
      <trkpt lat="47.5746" lon="-3.13499">
        <ele>3.529509</ele>
        <time>2021-12-01T10:42:37.000Z</time>
      </trkpt>
      <trkpt lat="47.57441" lon="-3.13492">
        <ele>3.513924</ele>
        <time>2021-12-01T10:42:40.000Z</time>
      </trkpt>
      <trkpt lat="47.57435" lon="-3.13489">
        <ele>3.508519</ele>
        <time>2021-12-01T10:42:41.000Z</time>
      </trkpt>
      <trkpt lat="47.57422" lon="-3.13487">
        <ele>3.498282</ele>
        <time>2021-12-01T10:42:43.000Z</time>
      </trkpt>
      <trkpt lat="47.57398" lon="-3.13486">
        <ele>3.479176</ele>
        <time>2021-12-01T10:42:47.000Z</time>
      </trkpt>
      <trkpt lat="47.57381" lon="-3.13485">
        <ele>3.465425</ele>
        <time>2021-12-01T10:42:50.000Z</time>
      </trkpt>
      <trkpt lat="47.5737" lon="-3.13484">
        <ele>3.456628</ele>
        <time>2021-12-01T10:42:52.000Z</time>
      </trkpt>
      <trkpt lat="47.57342" lon="-3.13486">
        <ele>3.434563</ele>
        <time>2021-12-01T10:42:57.000Z</time>
      </trkpt>
      <trkpt lat="47.57325" lon="-3.13489">
        <ele>3.420943</ele>
        <time>2021-12-01T10:43:00.000Z</time>
      </trkpt>
      <trkpt lat="47.57316" lon="-3.13492">
        <ele>3.413404</ele>
        <time>2021-12-01T10:43:02.000Z</time>
      </trkpt>
      <trkpt lat="47.57308" lon="-3.13496">
        <ele>3.406303</ele>
        <time>2021-12-01T10:43:04.000Z</time>
      </trkpt>
      <trkpt lat="47.57298" lon="-3.13493">
        <ele>3.398481</ele>
        <time>2021-12-01T10:43:06.000Z</time>
      </trkpt>
      <trkpt lat="47.57294" lon="-3.13488">
        <ele>3.394532</ele>
        <time>2021-12-01T10:43:07.000Z</time>
      </trkpt>
      <trkpt lat="47.57287" lon="-3.13478">
        <ele>3.386285</ele>
        <time>2021-12-01T10:43:09.000Z</time>
      </trkpt>
      <trkpt lat="47.57277" lon="-3.13473">
        <ele>3.375297</ele>
        <time>2021-12-01T10:43:11.000Z</time>
      </trkpt>
      <trkpt lat="47.57245" lon="-3.13473">
        <ele>3.339828</ele>
        <time>2021-12-01T10:43:17.000Z</time>
      </trkpt>
      <trkpt lat="47.57233" lon="-3.13474">
        <ele>3.326462</ele>
        <time>2021-12-01T10:43:19.000Z</time>
      </trkpt>
      <trkpt lat="47.57214" lon="-3.13473">
        <ele>3.306642</ele>
        <time>2021-12-01T10:43:22.000Z</time>
      </trkpt>
      <trkpt lat="47.57173" lon="-3.13472">
        <ele>3.261211</ele>
        <time>2021-12-01T10:43:29.000Z</time>
      </trkpt>
      <trkpt lat="47.57126" lon="-3.13471">
        <ele>3.209865</ele>
        <time>2021-12-01T10:43:37.000Z</time>
      </trkpt>
      <trkpt lat="47.57102" lon="-3.13472">
        <ele>3.173362</ele>
        <time>2021-12-01T10:43:41.000Z</time>
      </trkpt>
      <trkpt lat="47.57091" lon="-3.13477">
        <ele>3.137321</ele>
        <time>2021-12-01T10:43:43.000Z</time>
      </trkpt>
      <trkpt lat="47.57073" lon="-3.13484">
        <ele>3.082131</ele>
        <time>2021-12-01T10:43:46.000Z</time>
      </trkpt>
      <trkpt lat="47.57067" lon="-3.13484">
        <ele>3.063948</ele>
        <time>2021-12-01T10:43:47.000Z</time>
      </trkpt>
      <trkpt lat="47.57062" lon="-3.13482">
        <ele>3.04686</ele>
        <time>2021-12-01T10:43:48.000Z</time>
      </trkpt>
      <trkpt lat="47.57047" lon="-3.1347">
        <ele>2.99631</ele>
        <time>2021-12-01T10:43:51.000Z</time>
      </trkpt>
      <trkpt lat="47.57025" lon="-3.13469">
        <ele>2.930605</ele>
        <time>2021-12-01T10:43:55.000Z</time>
      </trkpt>
      <trkpt lat="47.56972" lon="-3.13467">
        <ele>2.768691</ele>
        <time>2021-12-01T10:44:04.000Z</time>
      </trkpt>
      <trkpt lat="47.56923" lon="-3.13466">
        <ele>2.671827</ele>
        <time>2021-12-01T10:44:12.000Z</time>
      </trkpt>
      <trkpt lat="47.56865" lon="-3.13465">
        <ele>2.849726</ele>
        <time>2021-12-01T10:44:21.000Z</time>
      </trkpt>
      <trkpt lat="47.56859" lon="-3.13465">
        <ele>2.869251</ele>
        <time>2021-12-01T10:44:22.000Z</time>
      </trkpt>
      <trkpt lat="47.56803" lon="-3.13464">
        <ele>3.044041</ele>
        <time>2021-12-01T10:44:31.000Z</time>
      </trkpt>
      <trkpt lat="47.56755" lon="-3.13463">
        <ele>3.192837</ele>
        <time>2021-12-01T10:44:39.000Z</time>
      </trkpt>
      <trkpt lat="47.567" lon="-3.13462">
        <ele>3.401485</ele>
        <time>2021-12-01T10:44:48.000Z</time>
      </trkpt>
      <trkpt lat="47.56682" lon="-3.13461">
        <ele>3.470493</ele>
        <time>2021-12-01T10:44:51.000Z</time>
      </trkpt>
      <trkpt lat="47.56666" lon="-3.13462">
        <ele>3.534467</ele>
        <time>2021-12-01T10:44:54.000Z</time>
      </trkpt>
      <trkpt lat="47.56661" lon="-3.13464">
        <ele>3.555493</ele>
        <time>2021-12-01T10:44:55.000Z</time>
      </trkpt>
      <trkpt lat="47.5665" lon="-3.13472">
        <ele>3.59938</ele>
        <time>2021-12-01T10:44:57.000Z</time>
      </trkpt>
      <trkpt lat="47.5664" lon="-3.13478">
        <ele>3.644341</ele>
        <time>2021-12-01T10:44:59.000Z</time>
      </trkpt>
      <trkpt lat="47.56634" lon="-3.1348">
        <ele>3.665972</ele>
        <time>2021-12-01T10:45:00.000Z</time>
      </trkpt>
      <trkpt lat="47.56623" lon="-3.13485">
        <ele>3.711975</ele>
        <time>2021-12-01T10:45:02.000Z</time>
      </trkpt>
      <trkpt lat="47.56612" lon="-3.13491">
        <ele>3.756585</ele>
        <time>2021-12-01T10:45:04.000Z</time>
      </trkpt>
      <trkpt lat="47.56607" lon="-3.13492">
        <ele>3.778439</ele>
        <time>2021-12-01T10:45:05.000Z</time>
      </trkpt>
      <trkpt lat="47.56601" lon="-3.13491">
        <ele>3.79883</ele>
        <time>2021-12-01T10:45:06.000Z</time>
      </trkpt>
      <trkpt lat="47.56587" lon="-3.13482">
        <ele>3.860759</ele>
        <time>2021-12-01T10:45:09.000Z</time>
      </trkpt>
      <trkpt lat="47.56581" lon="-3.13479">
        <ele>3.882678</ele>
        <time>2021-12-01T10:45:10.000Z</time>
      </trkpt>
      <trkpt lat="47.56564" lon="-3.13477">
        <ele>3.951119</ele>
        <time>2021-12-01T10:45:13.000Z</time>
      </trkpt>
      <trkpt lat="47.5653" lon="-3.13481">
        <ele>4.086419</ele>
        <time>2021-12-01T10:45:19.000Z</time>
      </trkpt>
      <trkpt lat="47.56524" lon="-3.13479">
        <ele>4.108535</ele>
        <time>2021-12-01T10:45:20.000Z</time>
      </trkpt>
      <trkpt lat="47.56519" lon="-3.13476">
        <ele>4.132368</ele>
        <time>2021-12-01T10:45:21.000Z</time>
      </trkpt>
      <trkpt lat="47.56502" lon="-3.13467">
        <ele>4.202181</ele>
        <time>2021-12-01T10:45:24.000Z</time>
      </trkpt>
      <trkpt lat="47.56496" lon="-3.13466">
        <ele>4.22488</ele>
        <time>2021-12-01T10:45:25.000Z</time>
      </trkpt>
      <trkpt lat="47.56491" lon="-3.13466">
        <ele>4.247428</ele>
        <time>2021-12-01T10:45:26.000Z</time>
      </trkpt>
      <trkpt lat="47.56463" lon="-3.13466">
        <ele>4.358556</ele>
        <time>2021-12-01T10:45:31.000Z</time>
      </trkpt>
      <trkpt lat="47.56434" lon="-3.13469">
        <ele>4.471874</ele>
        <time>2021-12-01T10:45:37.000Z</time>
      </trkpt>
      <trkpt lat="47.56423" lon="-3.1347">
        <ele>4.515515</ele>
        <time>2021-12-01T10:45:39.000Z</time>
      </trkpt>
      <trkpt lat="47.56417" lon="-3.1347">
        <ele>4.538454</ele>
        <time>2021-12-01T10:45:40.000Z</time>
      </trkpt>
      <trkpt lat="47.56405" lon="-3.1347">
        <ele>4.586702</ele>
        <time>2021-12-01T10:45:42.000Z</time>
      </trkpt>
      <trkpt lat="47.56381" lon="-3.13468">
        <ele>4.613818</ele>
        <time>2021-12-01T10:45:46.000Z</time>
      </trkpt>
      <trkpt lat="47.56375" lon="-3.13465">
        <ele>4.614705</ele>
        <time>2021-12-01T10:45:47.000Z</time>
      </trkpt>
      <trkpt lat="47.56358" lon="-3.1346">
        <ele>4.617283</ele>
        <time>2021-12-01T10:45:50.000Z</time>
      </trkpt>
      <trkpt lat="47.56341" lon="-3.13458">
        <ele>4.619924</ele>
        <time>2021-12-01T10:45:53.000Z</time>
      </trkpt>
      <trkpt lat="47.56298" lon="-3.13457">
        <ele>4.626308</ele>
        <time>2021-12-01T10:46:01.000Z</time>
      </trkpt>
      <trkpt lat="47.56283" lon="-3.13457">
        <ele>4.6286</ele>
        <time>2021-12-01T10:46:04.000Z</time>
      </trkpt>
      <trkpt lat="47.56272" lon="-3.13456">
        <ele>4.630235</ele>
        <time>2021-12-01T10:46:06.000Z</time>
      </trkpt>
      <trkpt lat="47.56232" lon="-3.13456">
        <ele>4.636168</ele>
        <time>2021-12-01T10:46:14.000Z</time>
      </trkpt>
      <trkpt lat="47.56223" lon="-3.13457">
        <ele>4.637502</ele>
        <time>2021-12-01T10:46:16.000Z</time>
      </trkpt>
      <trkpt lat="47.56205" lon="-3.13456">
        <ele>4.651174</ele>
        <time>2021-12-01T10:46:20.000Z</time>
      </trkpt>
      <trkpt lat="47.56156" lon="-3.13454">
        <ele>4.696016</ele>
        <time>2021-12-01T10:46:29.000Z</time>
      </trkpt>
      <trkpt lat="47.56104" lon="-3.13451">
        <ele>4.743612</ele>
        <time>2021-12-01T10:46:38.000Z</time>
      </trkpt>
      <trkpt lat="47.56054" lon="-3.13452">
        <ele>4.790087</ele>
        <time>2021-12-01T10:46:47.000Z</time>
      </trkpt>
      <trkpt lat="47.5602" lon="-3.13451">
        <ele>4.737529</ele>
        <time>2021-12-01T10:46:54.000Z</time>
      </trkpt>
      <trkpt lat="47.56013" lon="-3.13454">
        <ele>4.711827</ele>
        <time>2021-12-01T10:46:56.000Z</time>
      </trkpt>
      <trkpt lat="47.56009" lon="-3.13462">
        <ele>4.688805</ele>
        <time>2021-12-01T10:46:58.000Z</time>
      </trkpt>
      <trkpt lat="47.56007" lon="-3.13467">
        <ele>4.67655</ele>
        <time>2021-12-01T10:46:59.000Z</time>
      </trkpt>
      <trkpt lat="47.56005" lon="-3.13485">
        <ele>4.635691</ele>
        <time>2021-12-01T10:47:02.000Z</time>
      </trkpt>
      <trkpt lat="47.56001" lon="-3.13515">
        <ele>4.567765</ele>
        <time>2021-12-01T10:47:06.000Z</time>
      </trkpt>
      <trkpt lat="47.56003" lon="-3.1354">
        <ele>4.511629</ele>
        <time>2021-12-01T10:47:09.000Z</time>
      </trkpt>
      <trkpt lat="47.56002" lon="-3.13548">
        <ele>4.493072</ele>
        <time>2021-12-01T10:47:10.000Z</time>
      </trkpt>
      <trkpt lat="47.56" lon="-3.13555">
        <ele>4.476195</ele>
        <time>2021-12-01T10:47:11.000Z</time>
      </trkpt>
      <trkpt lat="47.55995" lon="-3.13569">
        <ele>4.440598</ele>
        <time>2021-12-01T10:47:13.000Z</time>
      </trkpt>
      <trkpt lat="47.55993" lon="-3.13582">
        <ele>4.41197</ele>
        <time>2021-12-01T10:47:16.000Z</time>
      </trkpt>
      <trkpt lat="47.55992" lon="-3.13597">
        <ele>4.377319</ele>
        <time>2021-12-01T10:47:20.000Z</time>
      </trkpt>
      <trkpt lat="47.55992" lon="-3.13602">
        <ele>4.365881</ele>
        <time>2021-12-01T10:47:21.000Z</time>
      </trkpt>
      <trkpt lat="47.55997" lon="-3.13637">
        <ele>4.28561</ele>
        <time>2021-12-01T10:47:27.000Z</time>
      </trkpt>
      <trkpt lat="47.55998" lon="-3.13661">
        <ele>4.232714</ele>
        <time>2021-12-01T10:47:30.000Z</time>
      </trkpt>
      <trkpt lat="47.55996" lon="-3.13676">
        <ele>4.232755</ele>
        <time>2021-12-01T10:47:32.000Z</time>
      </trkpt>
      <trkpt lat="47.55995" lon="-3.13683">
        <ele>4.290952</ele>
        <time>2021-12-01T10:47:33.000Z</time>
      </trkpt>
      <trkpt lat="47.55987" lon="-3.13712">
        <ele>4.520028</ele>
        <time>2021-12-01T10:47:38.000Z</time>
      </trkpt>
      <trkpt lat="47.55987" lon="-3.13721">
        <ele>4.590373</ele>
        <time>2021-12-01T10:47:40.000Z</time>
      </trkpt>
      <trkpt lat="47.55987" lon="-3.13725">
        <ele>4.621902</ele>
        <time>2021-12-01T10:47:41.000Z</time>
      </trkpt>
      <trkpt lat="47.55983" lon="-3.13741">
        <ele>4.750027</ele>
        <time>2021-12-01T10:47:45.000Z</time>
      </trkpt>
      <trkpt lat="47.55978" lon="-3.1376">
        <ele>4.912988</ele>
        <time>2021-12-01T10:47:50.000Z</time>
      </trkpt>
      <trkpt lat="47.55974" lon="-3.13769">
        <ele>4.989963</ele>
        <time>2021-12-01T10:47:54.000Z</time>
      </trkpt>
      <trkpt lat="47.55973" lon="-3.13771">
        <ele>5.005839</ele>
        <time>2021-12-01T10:47:55.000Z</time>
      </trkpt>
      <trkpt lat="47.55973" lon="-3.13773">
        <ele>5.027621</ele>
        <time>2021-12-01T10:47:59.000Z</time>
      </trkpt>
      <trkpt lat="47.55972" lon="-3.13772">
        <ele>5.042173</ele>
        <time>2021-12-01T10:48:37.000Z</time>
      </trkpt>
      <trkpt lat="47.55962" lon="-3.13764">
        <ele>5.172426</ele>
        <time>2021-12-01T10:48:42.000Z</time>
      </trkpt>
      <trkpt lat="47.5595" lon="-3.1376">
        <ele>5.308968</ele>
        <time>2021-12-01T10:48:45.000Z</time>
      </trkpt>
      <trkpt lat="47.55942" lon="-3.13756">
        <ele>5.410401</ele>
        <time>2021-12-01T10:48:47.000Z</time>
      </trkpt>
      <trkpt lat="47.55907" lon="-3.13748">
        <ele>5.800393</ele>
        <time>2021-12-01T10:48:54.000Z</time>
      </trkpt>
      <trkpt lat="47.55903" lon="-3.13747">
        <ele>5.856178</ele>
        <time>2021-12-01T10:48:55.000Z</time>
      </trkpt>
      <trkpt lat="47.55876" lon="-3.13737">
        <ele>6.166592</ele>
        <time>2021-12-01T10:49:00.000Z</time>
      </trkpt>
      <trkpt lat="47.55835" lon="-3.13725">
        <ele>6.241933</ele>
        <time>2021-12-01T10:49:07.000Z</time>
      </trkpt>
      <trkpt lat="47.55781" lon="-3.1371">
        <ele>6.253801</ele>
        <time>2021-12-01T10:49:16.000Z</time>
      </trkpt>
      <trkpt lat="47.55775" lon="-3.13708">
        <ele>6.255108</ele>
        <time>2021-12-01T10:49:17.000Z</time>
      </trkpt>
      <trkpt lat="47.55721" lon="-3.13691">
        <ele>6.267125</ele>
        <time>2021-12-01T10:49:26.000Z</time>
      </trkpt>
      <trkpt lat="47.5567" lon="-3.13671">
        <ele>6.371357</ele>
        <time>2021-12-01T10:49:35.000Z</time>
      </trkpt>
      <trkpt lat="47.55628" lon="-3.13655">
        <ele>6.536555</ele>
        <time>2021-12-01T10:49:43.000Z</time>
      </trkpt>
      <trkpt lat="47.55619" lon="-3.13651">
        <ele>6.573852</ele>
        <time>2021-12-01T10:49:45.000Z</time>
      </trkpt>
      <trkpt lat="47.5561" lon="-3.13648">
        <ele>6.610958</ele>
        <time>2021-12-01T10:49:47.000Z</time>
      </trkpt>
      <trkpt lat="47.55605" lon="-3.13645">
        <ele>6.629539</ele>
        <time>2021-12-01T10:49:48.000Z</time>
      </trkpt>
      <trkpt lat="47.55592" lon="-3.13638">
        <ele>6.686574</ele>
        <time>2021-12-01T10:49:51.000Z</time>
      </trkpt>
      <trkpt lat="47.55587" lon="-3.13636">
        <ele>6.705889</ele>
        <time>2021-12-01T10:49:52.000Z</time>
      </trkpt>
      <trkpt lat="47.55577" lon="-3.13635">
        <ele>6.744376</ele>
        <time>2021-12-01T10:49:54.000Z</time>
      </trkpt>
      <trkpt lat="47.55545" lon="-3.13628">
        <ele>6.868009</ele>
        <time>2021-12-01T10:50:00.000Z</time>
      </trkpt>
      <trkpt lat="47.55495" lon="-3.13606">
        <ele>6.993092</ele>
        <time>2021-12-01T10:50:09.000Z</time>
      </trkpt>
      <trkpt lat="47.55443" lon="-3.13582">
        <ele>7.038436</ele>
        <time>2021-12-01T10:50:18.000Z</time>
      </trkpt>
      <trkpt lat="47.55437" lon="-3.1358">
        <ele>7.043399</ele>
        <time>2021-12-01T10:50:19.000Z</time>
      </trkpt>
      <trkpt lat="47.55396" lon="-3.13562">
        <ele>7.079312</ele>
        <time>2021-12-01T10:50:26.000Z</time>
      </trkpt>
      <trkpt lat="47.5534" lon="-3.13536">
        <ele>7.097176</ele>
        <time>2021-12-01T10:50:36.000Z</time>
      </trkpt>
      <trkpt lat="47.55289" lon="-3.13521">
        <ele>6.943184</ele>
        <time>2021-12-01T10:50:45.000Z</time>
      </trkpt>
      <trkpt lat="47.55246" lon="-3.13509">
        <ele>6.811831</ele>
        <time>2021-12-01T10:50:53.000Z</time>
      </trkpt>
      <trkpt lat="47.55236" lon="-3.13505">
        <ele>6.780996</ele>
        <time>2021-12-01T10:50:55.000Z</time>
      </trkpt>
      <trkpt lat="47.55228" lon="-3.13495">
        <ele>6.750675</ele>
        <time>2021-12-01T10:50:57.000Z</time>
      </trkpt>
      <trkpt lat="47.55225" lon="-3.1348">
        <ele>6.718334</ele>
        <time>2021-12-01T10:50:59.000Z</time>
      </trkpt>
      <trkpt lat="47.55225" lon="-3.13471">
        <ele>6.700621</ele>
        <time>2021-12-01T10:51:00.000Z</time>
      </trkpt>
      <trkpt lat="47.55226" lon="-3.13454">
        <ele>6.665169</ele>
        <time>2021-12-01T10:51:02.000Z</time>
      </trkpt>
      <trkpt lat="47.55224" lon="-3.1344">
        <ele>6.637136</ele>
        <time>2021-12-01T10:51:04.000Z</time>
      </trkpt>
      <trkpt lat="47.5522" lon="-3.13433">
        <ele>6.619743</ele>
        <time>2021-12-01T10:51:06.000Z</time>
      </trkpt>
      <trkpt lat="47.55218" lon="-3.13431">
        <ele>6.611714</ele>
        <time>2021-12-01T10:51:07.000Z</time>
      </trkpt>
      <trkpt lat="47.55215" lon="-3.13428">
        <ele>6.601861</ele>
        <time>2021-12-01T10:51:08.000Z</time>
      </trkpt>
      <trkpt lat="47.55207" lon="-3.13427">
        <ele>6.600254</ele>
        <time>2021-12-01T10:51:10.000Z</time>
      </trkpt>
      <trkpt lat="47.55203" lon="-3.13427">
        <ele>6.630524</ele>
        <time>2021-12-01T10:51:11.000Z</time>
      </trkpt>
      <trkpt lat="47.55178" lon="-3.13427">
        <ele>6.796064</ele>
        <time>2021-12-01T10:51:16.000Z</time>
      </trkpt>
      <trkpt lat="47.55134" lon="-3.13426">
        <ele>7.083814</ele>
        <time>2021-12-01T10:51:24.000Z</time>
      </trkpt>
      <trkpt lat="47.55101" lon="-3.13427">
        <ele>7.300614</ele>
        <time>2021-12-01T10:51:30.000Z</time>
      </trkpt>
      <trkpt lat="47.55079" lon="-3.13427">
        <ele>7.444476</ele>
        <time>2021-12-01T10:51:34.000Z</time>
      </trkpt>
      <trkpt lat="47.55027" lon="-3.13424">
        <ele>7.764046</ele>
        <time>2021-12-01T10:51:43.000Z</time>
      </trkpt>
      <trkpt lat="47.54967" lon="-3.13422">
        <ele>7.719284</ele>
        <time>2021-12-01T10:51:53.000Z</time>
      </trkpt>
      <trkpt lat="47.54913" lon="-3.1342">
        <ele>7.678285</ele>
        <time>2021-12-01T10:52:02.000Z</time>
      </trkpt>
      <trkpt lat="47.54901" lon="-3.13419">
        <ele>7.669016</ele>
        <time>2021-12-01T10:52:04.000Z</time>
      </trkpt>
      <trkpt lat="47.54844" lon="-3.13418">
        <ele>7.619744</ele>
        <time>2021-12-01T10:52:13.000Z</time>
      </trkpt>
      <trkpt lat="47.54826" lon="-3.13418">
        <ele>7.583179</ele>
        <time>2021-12-01T10:52:16.000Z</time>
      </trkpt>
      <trkpt lat="47.54771" lon="-3.13416">
        <ele>7.473253</ele>
        <time>2021-12-01T10:52:25.000Z</time>
      </trkpt>
      <trkpt lat="47.54764" lon="-3.13416">
        <ele>7.460335</ele>
        <time>2021-12-01T10:52:26.000Z</time>
      </trkpt>
      <trkpt lat="47.54708" lon="-3.13415">
        <ele>7.348048</ele>
        <time>2021-12-01T10:52:35.000Z</time>
      </trkpt>
      <trkpt lat="47.54702" lon="-3.13414">
        <ele>7.336522</ele>
        <time>2021-12-01T10:52:36.000Z</time>
      </trkpt>
      <trkpt lat="47.5465" lon="-3.13414">
        <ele>7.467596</ele>
        <time>2021-12-01T10:52:45.000Z</time>
      </trkpt>
      <trkpt lat="47.5461" lon="-3.13412">
        <ele>7.857517</ele>
        <time>2021-12-01T10:52:52.000Z</time>
      </trkpt>
      <trkpt lat="47.54558" lon="-3.13406">
        <ele>8.354667</ele>
        <time>2021-12-01T10:53:01.000Z</time>
      </trkpt>
      <trkpt lat="47.54519" lon="-3.13416">
        <ele>8.73201</ele>
        <time>2021-12-01T10:53:08.000Z</time>
      </trkpt>
      <trkpt lat="47.54514" lon="-3.13417">
        <ele>8.786782</ele>
        <time>2021-12-01T10:53:09.000Z</time>
      </trkpt>
      <trkpt lat="47.54475" lon="-3.13428">
        <ele>9.213353</ele>
        <time>2021-12-01T10:53:16.000Z</time>
      </trkpt>
      <trkpt lat="47.54469" lon="-3.13429">
        <ele>9.284134</ele>
        <time>2021-12-01T10:53:17.000Z</time>
      </trkpt>
      <trkpt lat="47.54421" lon="-3.13442">
        <ele>9.895226</ele>
        <time>2021-12-01T10:53:26.000Z</time>
      </trkpt>
      <trkpt lat="47.544" lon="-3.13447">
        <ele>10.164412</ele>
        <time>2021-12-01T10:53:30.000Z</time>
      </trkpt>
      <trkpt lat="47.54366" lon="-3.13456">
        <ele>10.591046</ele>
        <time>2021-12-01T10:53:36.000Z</time>
      </trkpt>
      <trkpt lat="47.5432" lon="-3.13469">
        <ele>11.176525</ele>
        <time>2021-12-01T10:53:44.000Z</time>
      </trkpt>
      <trkpt lat="47.54279" lon="-3.13479">
        <ele>11.121019</ele>
        <time>2021-12-01T10:53:52.000Z</time>
      </trkpt>
      <trkpt lat="47.54266" lon="-3.13486">
        <ele>11.071123</ele>
        <time>2021-12-01T10:53:56.000Z</time>
      </trkpt>
      <trkpt lat="47.54255" lon="-3.13487">
        <ele>11.033436</ele>
        <time>2021-12-01T10:53:59.000Z</time>
      </trkpt>
      <trkpt lat="47.54252" lon="-3.13489">
        <ele>11.020842</ele>
        <time>2021-12-01T10:54:00.000Z</time>
      </trkpt>
      <trkpt lat="47.54229" lon="-3.13494">
        <ele>10.939605</ele>
        <time>2021-12-01T10:54:05.000Z</time>
      </trkpt>
      <trkpt lat="47.54186" lon="-3.13507">
        <ele>10.787806</ele>
        <time>2021-12-01T10:54:13.000Z</time>
      </trkpt>
      <trkpt lat="47.54154" lon="-3.13517">
        <ele>10.672001</ele>
        <time>2021-12-01T10:54:19.000Z</time>
      </trkpt>
      <trkpt lat="47.54143" lon="-3.13521">
        <ele>10.631998</ele>
        <time>2021-12-01T10:54:21.000Z</time>
      </trkpt>
      <trkpt lat="47.5409" lon="-3.13538">
        <ele>9.611537</ele>
        <time>2021-12-01T10:54:30.000Z</time>
      </trkpt>
      <trkpt lat="47.54039" lon="-3.13554">
        <ele>8.536145</ele>
        <time>2021-12-01T10:54:38.000Z</time>
      </trkpt>
      <trkpt lat="47.54026" lon="-3.13559">
        <ele>8.257716</ele>
        <time>2021-12-01T10:54:40.000Z</time>
      </trkpt>
      <trkpt lat="47.54012" lon="-3.13562">
        <ele>7.982686</ele>
        <time>2021-12-01T10:54:42.000Z</time>
      </trkpt>
      <trkpt lat="47.53981" lon="-3.13572">
        <ele>7.323196</ele>
        <time>2021-12-01T10:54:47.000Z</time>
      </trkpt>
      <trkpt lat="47.53975" lon="-3.13574">
        <ele>7.198254</ele>
        <time>2021-12-01T10:54:48.000Z</time>
      </trkpt>
      <trkpt lat="47.53959" lon="-3.13578">
        <ele>6.937624</ele>
        <time>2021-12-01T10:54:51.000Z</time>
      </trkpt>
      <trkpt lat="47.53944" lon="-3.13583">
        <ele>6.941441</ele>
        <time>2021-12-01T10:54:54.000Z</time>
      </trkpt>
      <trkpt lat="47.53889" lon="-3.136">
        <ele>6.954886</ele>
        <time>2021-12-01T10:55:04.000Z</time>
      </trkpt>
      <trkpt lat="47.53883" lon="-3.13602">
        <ele>6.956248</ele>
        <time>2021-12-01T10:55:05.000Z</time>
      </trkpt>
      <trkpt lat="47.53839" lon="-3.13618">
        <ele>6.967177</ele>
        <time>2021-12-01T10:55:13.000Z</time>
      </trkpt>
      <trkpt lat="47.53813" lon="-3.1362">
        <ele>6.973419</ele>
        <time>2021-12-01T10:55:18.000Z</time>
      </trkpt>
      <trkpt lat="47.53809" lon="-3.1362">
        <ele>6.974502</ele>
        <time>2021-12-01T10:55:19.000Z</time>
      </trkpt>
      <trkpt lat="47.53795" lon="-3.13621">
        <ele>6.977757</ele>
        <time>2021-12-01T10:55:22.000Z</time>
      </trkpt>
      <trkpt lat="47.53777" lon="-3.13625">
        <ele>7.057833</ele>
        <time>2021-12-01T10:55:26.000Z</time>
      </trkpt>
      <trkpt lat="47.53767" lon="-3.13625">
        <ele>7.147019</ele>
        <time>2021-12-01T10:55:28.000Z</time>
      </trkpt>
      <trkpt lat="47.53758" lon="-3.13628">
        <ele>7.23108</ele>
        <time>2021-12-01T10:55:30.000Z</time>
      </trkpt>
      <trkpt lat="47.53749" lon="-3.13631">
        <ele>7.316553</ele>
        <time>2021-12-01T10:55:32.000Z</time>
      </trkpt>
      <trkpt lat="47.53722" lon="-3.13638">
        <ele>7.563492</ele>
        <time>2021-12-01T10:55:38.000Z</time>
      </trkpt>
      <trkpt lat="47.53709" lon="-3.13643">
        <ele>7.685691</ele>
        <time>2021-12-01T10:55:41.000Z</time>
      </trkpt>
      <trkpt lat="47.53699" lon="-3.13646">
        <ele>7.772482</ele>
        <time>2021-12-01T10:55:43.000Z</time>
      </trkpt>
      <trkpt lat="47.53695" lon="-3.13648">
        <ele>7.816169</ele>
        <time>2021-12-01T10:55:44.000Z</time>
      </trkpt>
      <trkpt lat="47.5369" lon="-3.1365">
        <ele>7.861039</ele>
        <time>2021-12-01T10:55:45.000Z</time>
      </trkpt>
      <trkpt lat="47.53668" lon="-3.13656">
        <ele>8.062117</ele>
        <time>2021-12-01T10:55:50.000Z</time>
      </trkpt>
      <trkpt lat="47.53641" lon="-3.13663">
        <ele>8.306998</ele>
        <time>2021-12-01T10:55:56.000Z</time>
      </trkpt>
      <trkpt lat="47.53626" lon="-3.13668">
        <ele>8.447729</ele>
        <time>2021-12-01T10:56:00.000Z</time>
      </trkpt>
      <trkpt lat="47.53621" lon="-3.13672">
        <ele>8.498524</ele>
        <time>2021-12-01T10:56:02.000Z</time>
      </trkpt>
      <trkpt lat="47.53616" lon="-3.13675">
        <ele>8.543886</ele>
        <time>2021-12-01T10:56:04.000Z</time>
      </trkpt>
      <trkpt lat="47.53613" lon="-3.13675">
        <ele>8.57001</ele>
        <time>2021-12-01T10:56:05.000Z</time>
      </trkpt>
      <trkpt lat="47.53597" lon="-3.13671">
        <ele>8.566285</ele>
        <time>2021-12-01T10:56:09.000Z</time>
      </trkpt>
      <trkpt lat="47.53588" lon="-3.13672">
        <ele>8.541816</ele>
        <time>2021-12-01T10:56:11.000Z</time>
      </trkpt>
      <trkpt lat="47.53572" lon="-3.13678">
        <ele>8.50151</ele>
        <time>2021-12-01T10:56:14.000Z</time>
      </trkpt>
      <trkpt lat="47.53566" lon="-3.1368">
        <ele>8.487026</ele>
        <time>2021-12-01T10:56:15.000Z</time>
      </trkpt>
      <trkpt lat="47.53543" lon="-3.13685">
        <ele>8.428255</ele>
        <time>2021-12-01T10:56:19.000Z</time>
      </trkpt>
      <trkpt lat="47.53488" lon="-3.13702">
        <ele>8.288681</ele>
        <time>2021-12-01T10:56:28.000Z</time>
      </trkpt>
      <trkpt lat="47.53453" lon="-3.13711">
        <ele>8.199831</ele>
        <time>2021-12-01T10:56:34.000Z</time>
      </trkpt>
      <trkpt lat="47.53397" lon="-3.13727">
        <ele>8.378525</ele>
        <time>2021-12-01T10:56:44.000Z</time>
      </trkpt>
      <trkpt lat="47.53345" lon="-3.1374">
        <ele>8.709439</ele>
        <time>2021-12-01T10:56:54.000Z</time>
      </trkpt>
      <trkpt lat="47.53298" lon="-3.13755">
        <ele>9.006252</ele>
        <time>2021-12-01T10:57:03.000Z</time>
      </trkpt>
      <trkpt lat="47.53244" lon="-3.13769">
        <ele>9.336138</ele>
        <time>2021-12-01T10:57:12.000Z</time>
      </trkpt>
      <trkpt lat="47.53237" lon="-3.13771">
        <ele>9.370454</ele>
        <time>2021-12-01T10:57:13.000Z</time>
      </trkpt>
      <trkpt lat="47.53214" lon="-3.13777">
        <ele>9.498708</ele>
        <time>2021-12-01T10:57:17.000Z</time>
      </trkpt>
      <trkpt lat="47.53165" lon="-3.13791">
        <ele>9.770761</ele>
        <time>2021-12-01T10:57:26.000Z</time>
      </trkpt>
      <trkpt lat="47.53117" lon="-3.13805">
        <ele>10.037815</ele>
        <time>2021-12-01T10:57:35.000Z</time>
      </trkpt>
      <trkpt lat="47.53093" lon="-3.13812">
        <ele>10.176486</ele>
        <time>2021-12-01T10:57:40.000Z</time>
      </trkpt>
      <trkpt lat="47.53083" lon="-3.13815">
        <ele>10.23004</ele>
        <time>2021-12-01T10:57:42.000Z</time>
      </trkpt>
      <trkpt lat="47.53051" lon="-3.13824">
        <ele>10.785347</ele>
        <time>2021-12-01T10:57:49.000Z</time>
      </trkpt>
      <trkpt lat="47.53046" lon="-3.13825">
        <ele>10.867927</ele>
        <time>2021-12-01T10:57:50.000Z</time>
      </trkpt>
      <trkpt lat="47.53023" lon="-3.13831">
        <ele>11.300797</ele>
        <time>2021-12-01T10:57:55.000Z</time>
      </trkpt>
      <trkpt lat="47.53009" lon="-3.13835">
        <ele>11.562116</ele>
        <time>2021-12-01T10:57:58.000Z</time>
      </trkpt>
      <trkpt lat="47.52972" lon="-3.13846">
        <ele>12.25094</ele>
        <time>2021-12-01T10:58:06.000Z</time>
      </trkpt>
      <trkpt lat="47.52962" lon="-3.13849">
        <ele>12.424036</ele>
        <time>2021-12-01T10:58:08.000Z</time>
      </trkpt>
      <trkpt lat="47.52924" lon="-3.13858">
        <ele>13.128268</ele>
        <time>2021-12-01T10:58:16.000Z</time>
      </trkpt>
      <trkpt lat="47.52906" lon="-3.13864">
        <ele>13.465593</ele>
        <time>2021-12-01T10:58:20.000Z</time>
      </trkpt>
      <trkpt lat="47.52884" lon="-3.13871">
        <ele>13.784935</ele>
        <time>2021-12-01T10:58:25.000Z</time>
      </trkpt>
      <trkpt lat="47.52852" lon="-3.13879">
        <ele>14.247457</ele>
        <time>2021-12-01T10:58:32.000Z</time>
      </trkpt>
      <trkpt lat="47.52838" lon="-3.13884">
        <ele>14.4373</ele>
        <time>2021-12-01T10:58:35.000Z</time>
      </trkpt>
      <trkpt lat="47.52834" lon="-3.13885">
        <ele>14.499522</ele>
        <time>2021-12-01T10:58:36.000Z</time>
      </trkpt>
      <trkpt lat="47.52825" lon="-3.13887">
        <ele>14.61847</ele>
        <time>2021-12-01T10:58:38.000Z</time>
      </trkpt>
      <trkpt lat="47.52821" lon="-3.13888">
        <ele>14.674593</ele>
        <time>2021-12-01T10:58:39.000Z</time>
      </trkpt>
      <trkpt lat="47.52797" lon="-3.13894">
        <ele>15.01646</ele>
        <time>2021-12-01T10:58:45.000Z</time>
      </trkpt>
      <trkpt lat="47.52779" lon="-3.13898">
        <ele>15.26431</ele>
        <time>2021-12-01T10:58:49.000Z</time>
      </trkpt>
      <trkpt lat="47.52775" lon="-3.13899">
        <ele>15.32772</ele>
        <time>2021-12-01T10:58:50.000Z</time>
      </trkpt>
      <trkpt lat="47.52766" lon="-3.13903">
        <ele>15.454731</ele>
        <time>2021-12-01T10:58:52.000Z</time>
      </trkpt>
      <trkpt lat="47.52723" lon="-3.13915">
        <ele>15.979187</ele>
        <time>2021-12-01T10:59:01.000Z</time>
      </trkpt>
      <trkpt lat="47.52678" lon="-3.13927">
        <ele>15.608484</ele>
        <time>2021-12-01T10:59:10.000Z</time>
      </trkpt>
      <trkpt lat="47.52639" lon="-3.13936">
        <ele>15.282663</ele>
        <time>2021-12-01T10:59:18.000Z</time>
      </trkpt>
      <trkpt lat="47.52633" lon="-3.13937">
        <ele>15.23725</ele>
        <time>2021-12-01T10:59:19.000Z</time>
      </trkpt>
      <trkpt lat="47.526" lon="-3.13948">
        <ele>14.960143</ele>
        <time>2021-12-01T10:59:25.000Z</time>
      </trkpt>
      <trkpt lat="47.52595" lon="-3.13951">
        <ele>14.913927</ele>
        <time>2021-12-01T10:59:26.000Z</time>
      </trkpt>
      <trkpt lat="47.52578" lon="-3.13957">
        <ele>14.774597</ele>
        <time>2021-12-01T10:59:29.000Z</time>
      </trkpt>
      <trkpt lat="47.52573" lon="-3.13958">
        <ele>14.729453</ele>
        <time>2021-12-01T10:59:30.000Z</time>
      </trkpt>
      <trkpt lat="47.52562" lon="-3.13961">
        <ele>14.64088</ele>
        <time>2021-12-01T10:59:32.000Z</time>
      </trkpt>
      <trkpt lat="47.52513" lon="-3.13969">
        <ele>14.592215</ele>
        <time>2021-12-01T10:59:41.000Z</time>
      </trkpt>
      <trkpt lat="47.52486" lon="-3.13972">
        <ele>14.628969</ele>
        <time>2021-12-01T10:59:47.000Z</time>
      </trkpt>
      <trkpt lat="47.52482" lon="-3.13972">
        <ele>14.63449</ele>
        <time>2021-12-01T10:59:48.000Z</time>
      </trkpt>
      <trkpt lat="47.52475" lon="-3.13977">
        <ele>14.644346</ele>
        <time>2021-12-01T10:59:50.000Z</time>
      </trkpt>
      <trkpt lat="47.52469" lon="-3.13991">
        <ele>14.659305</ele>
        <time>2021-12-01T10:59:53.000Z</time>
      </trkpt>
      <trkpt lat="47.52461" lon="-3.14">
        <ele>14.672424</ele>
        <time>2021-12-01T10:59:56.000Z</time>
      </trkpt>
      <trkpt lat="47.52452" lon="-3.14004">
        <ele>14.685458</ele>
        <time>2021-12-01T11:00:01.000Z</time>
      </trkpt>
      <trkpt lat="47.5245" lon="-3.1401">
        <ele>14.691746</ele>
        <time>2021-12-01T11:00:03.000Z</time>
      </trkpt>
      <trkpt lat="47.52451" lon="-3.14021">
        <ele>14.701525</ele>
        <time>2021-12-01T11:00:05.000Z</time>
      </trkpt>
      <trkpt lat="47.52454" lon="-3.14035">
        <ele>14.714966</ele>
        <time>2021-12-01T11:00:07.000Z</time>
      </trkpt>
      <trkpt lat="47.52459" lon="-3.14053">
        <ele>14.732403</ele>
        <time>2021-12-01T11:00:09.000Z</time>
      </trkpt>
      <trkpt lat="47.52481" lon="-3.14099">
        <ele>14.782758</ele>
        <time>2021-12-01T11:00:15.000Z</time>
      </trkpt>
      <trkpt lat="47.52515" lon="-3.14171">
        <ele>14.262121</ele>
        <time>2021-12-01T11:00:25.000Z</time>
      </trkpt>
      <trkpt lat="47.52521" lon="-3.14185">
        <ele>14.163083</ele>
        <time>2021-12-01T11:00:27.000Z</time>
      </trkpt>
      <trkpt lat="47.52549" lon="-3.14242">
        <ele>13.745366</ele>
        <time>2021-12-01T11:00:36.000Z</time>
      </trkpt>
      <trkpt lat="47.52577" lon="-3.14302">
        <ele>13.31245</ele>
        <time>2021-12-01T11:00:45.000Z</time>
      </trkpt>
      <trkpt lat="47.52601" lon="-3.14338">
        <ele>12.958261</ele>
        <time>2021-12-01T11:00:51.000Z</time>
      </trkpt>
      <trkpt lat="47.5264" lon="-3.14388">
        <ele>12.368475</ele>
        <time>2021-12-01T11:01:00.000Z</time>
      </trkpt>
      <trkpt lat="47.52677" lon="-3.1444">
        <ele>11.792505</ele>
        <time>2021-12-01T11:01:09.000Z</time>
      </trkpt>
      <trkpt lat="47.52699" lon="-3.14488">
        <ele>11.343949</ele>
        <time>2021-12-01T11:01:16.000Z</time>
      </trkpt>
      <trkpt lat="47.52721" lon="-3.14526">
        <ele>11.19957</ele>
        <time>2021-12-01T11:01:22.000Z</time>
      </trkpt>
      <trkpt lat="47.52735" lon="-3.1455">
        <ele>11.245887</ele>
        <time>2021-12-01T11:01:26.000Z</time>
      </trkpt>
      <trkpt lat="47.52747" lon="-3.14567">
        <ele>11.280912</ele>
        <time>2021-12-01T11:01:29.000Z</time>
      </trkpt>
      <trkpt lat="47.52756" lon="-3.14582">
        <ele>11.310431</ele>
        <time>2021-12-01T11:01:32.000Z</time>
      </trkpt>
      <trkpt lat="47.52759" lon="-3.14587">
        <ele>11.319969</ele>
        <time>2021-12-01T11:01:33.000Z</time>
      </trkpt>
      <trkpt lat="47.52761" lon="-3.14599">
        <ele>11.33717</ele>
        <time>2021-12-01T11:01:35.000Z</time>
      </trkpt>
      <trkpt lat="47.52757" lon="-3.14614">
        <ele>11.361836</ele>
        <time>2021-12-01T11:01:38.000Z</time>
      </trkpt>
      <trkpt lat="47.52757" lon="-3.14637">
        <ele>11.394926</ele>
        <time>2021-12-01T11:01:42.000Z</time>
      </trkpt>
      <trkpt lat="47.52759" lon="-3.14669">
        <ele>11.442664</ele>
        <time>2021-12-01T11:01:47.000Z</time>
      </trkpt>
      <trkpt lat="47.52763" lon="-3.14709">
        <ele>11.502246</ele>
        <time>2021-12-01T11:01:53.000Z</time>
      </trkpt>
      <trkpt lat="47.52765" lon="-3.14716">
        <ele>11.512094</ele>
        <time>2021-12-01T11:01:54.000Z</time>
      </trkpt>
      <trkpt lat="47.52773" lon="-3.1474">
        <ele>11.537551</ele>
        <time>2021-12-01T11:01:58.000Z</time>
      </trkpt>
      <trkpt lat="47.5278" lon="-3.14758">
        <ele>11.308538</ele>
        <time>2021-12-01T11:02:01.000Z</time>
      </trkpt>
      <trkpt lat="47.52799" lon="-3.14802">
        <ele>10.735401</ele>
        <time>2021-12-01T11:02:08.000Z</time>
      </trkpt>
      <trkpt lat="47.52802" lon="-3.14819">
        <ele>10.544252</ele>
        <time>2021-12-01T11:02:10.000Z</time>
      </trkpt>
      <trkpt lat="47.52803" lon="-3.14854">
        <ele>10.160163</ele>
        <time>2021-12-01T11:02:14.000Z</time>
      </trkpt>
      <trkpt lat="47.52802" lon="-3.14871">
        <ele>9.973744</ele>
        <time>2021-12-01T11:02:16.000Z</time>
      </trkpt>
      <trkpt lat="47.52801" lon="-3.14896">
        <ele>9.702828</ele>
        <time>2021-12-01T11:02:19.000Z</time>
      </trkpt>
      <trkpt lat="47.52798" lon="-3.14942">
        <ele>9.199376</ele>
        <time>2021-12-01T11:02:25.000Z</time>
      </trkpt>
      <trkpt lat="47.52798" lon="-3.14956">
        <ele>9.040988</ele>
        <time>2021-12-01T11:02:27.000Z</time>
      </trkpt>
      <trkpt lat="47.52793" lon="-3.14991">
        <ele>8.649343</ele>
        <time>2021-12-01T11:02:32.000Z</time>
      </trkpt>
      <trkpt lat="47.52778" lon="-3.1505">
        <ele>8.553892</ele>
        <time>2021-12-01T11:02:41.000Z</time>
      </trkpt>
      <trkpt lat="47.52767" lon="-3.1509">
        <ele>8.500697</ele>
        <time>2021-12-01T11:02:47.000Z</time>
      </trkpt>
      <trkpt lat="47.52757" lon="-3.15121">
        <ele>8.457372</ele>
        <time>2021-12-01T11:02:52.000Z</time>
      </trkpt>
      <trkpt lat="47.52739" lon="-3.15177">
        <ele>8.380369</ele>
        <time>2021-12-01T11:03:01.000Z</time>
      </trkpt>
      <trkpt lat="47.5273" lon="-3.15208">
        <ele>8.337507</ele>
        <time>2021-12-01T11:03:06.000Z</time>
      </trkpt>
      <trkpt lat="47.52724" lon="-3.15225">
        <ele>8.313262</ele>
        <time>2021-12-01T11:03:09.000Z</time>
      </trkpt>
      <trkpt lat="47.52716" lon="-3.15259">
        <ele>8.169461</ele>
        <time>2021-12-01T11:03:14.000Z</time>
      </trkpt>
      <trkpt lat="47.52713" lon="-3.15282">
        <ele>8.03738</ele>
        <time>2021-12-01T11:03:17.000Z</time>
      </trkpt>
      <trkpt lat="47.52708" lon="-3.15355">
        <ele>7.63349</ele>
        <time>2021-12-01T11:03:27.000Z</time>
      </trkpt>
      <trkpt lat="47.52708" lon="-3.15381">
        <ele>7.491867</ele>
        <time>2021-12-01T11:03:30.000Z</time>
      </trkpt>
      <trkpt lat="47.5271" lon="-3.15398">
        <ele>7.393619</ele>
        <time>2021-12-01T11:03:32.000Z</time>
      </trkpt>
      <trkpt lat="47.52712" lon="-3.1543">
        <ele>7.218036</ele>
        <time>2021-12-01T11:03:36.000Z</time>
      </trkpt>
      <trkpt lat="47.52713" lon="-3.15437">
        <ele>7.177994</ele>
        <time>2021-12-01T11:03:37.000Z</time>
      </trkpt>
      <trkpt lat="47.52715" lon="-3.15485">
        <ele>6.912334</ele>
        <time>2021-12-01T11:03:44.000Z</time>
      </trkpt>
      <trkpt lat="47.52717" lon="-3.15538">
        <ele>7.687572</ele>
        <time>2021-12-01T11:03:52.000Z</time>
      </trkpt>
      <trkpt lat="47.52714" lon="-3.15562">
        <ele>8.253283</ele>
        <time>2021-12-01T11:03:56.000Z</time>
      </trkpt>
      <trkpt lat="47.52711" lon="-3.15572">
        <ele>8.504004</ele>
        <time>2021-12-01T11:03:58.000Z</time>
      </trkpt>
      <trkpt lat="47.52695" lon="-3.15603">
        <ele>9.386974</ele>
        <time>2021-12-01T11:04:05.000Z</time>
      </trkpt>
      <trkpt lat="47.52684" lon="-3.1562">
        <ele>9.924054</ele>
        <time>2021-12-01T11:04:09.000Z</time>
      </trkpt>
      <trkpt lat="47.52682" lon="-3.15624">
        <ele>10.057322</ele>
        <time>2021-12-01T11:04:10.000Z</time>
      </trkpt>
      <trkpt lat="47.52671" lon="-3.15642">
        <ele>10.600493</ele>
        <time>2021-12-01T11:04:14.000Z</time>
      </trkpt>
      <trkpt lat="47.52669" lon="-3.15646">
        <ele>10.736598</ele>
        <time>2021-12-01T11:04:15.000Z</time>
      </trkpt>
      <trkpt lat="47.52654" lon="-3.1567">
        <ele>11.48246</ele>
        <time>2021-12-01T11:04:21.000Z</time>
      </trkpt>
      <trkpt lat="47.52651" lon="-3.15674">
        <ele>11.602749</ele>
        <time>2021-12-01T11:04:22.000Z</time>
      </trkpt>
      <trkpt lat="47.52643" lon="-3.15684">
        <ele>11.972447</ele>
        <time>2021-12-01T11:04:25.000Z</time>
      </trkpt>
      <trkpt lat="47.52636" lon="-3.15687">
        <ele>12.219829</ele>
        <time>2021-12-01T11:04:27.000Z</time>
      </trkpt>
      <trkpt lat="47.52632" lon="-3.15687">
        <ele>12.349341</ele>
        <time>2021-12-01T11:04:28.000Z</time>
      </trkpt>
      <trkpt lat="47.52607" lon="-3.15679">
        <ele>12.920844</ele>
        <time>2021-12-01T11:04:34.000Z</time>
      </trkpt>
      <trkpt lat="47.52602" lon="-3.15677">
        <ele>12.907502</ele>
        <time>2021-12-01T11:04:35.000Z</time>
      </trkpt>
      <trkpt lat="47.5257" lon="-3.15662">
        <ele>12.808318</ele>
        <time>2021-12-01T11:04:43.000Z</time>
      </trkpt>
      <trkpt lat="47.52561" lon="-3.15659">
        <ele>12.782105</ele>
        <time>2021-12-01T11:04:45.000Z</time>
      </trkpt>
      <trkpt lat="47.52537" lon="-3.15649">
        <ele>12.707524</ele>
        <time>2021-12-01T11:04:50.000Z</time>
      </trkpt>
      <trkpt lat="47.52526" lon="-3.15645">
        <ele>12.674996</ele>
        <time>2021-12-01T11:04:52.000Z</time>
      </trkpt>
      <trkpt lat="47.52517" lon="-3.15634">
        <ele>12.641487</ele>
        <time>2021-12-01T11:04:54.000Z</time>
      </trkpt>
      <trkpt lat="47.52512" lon="-3.15616">
        <ele>12.60292</ele>
        <time>2021-12-01T11:04:56.000Z</time>
      </trkpt>
      <trkpt lat="47.52511" lon="-3.15606">
        <ele>12.581547</ele>
        <time>2021-12-01T11:04:57.000Z</time>
      </trkpt>
      <trkpt lat="47.52508" lon="-3.15572">
        <ele>12.513592</ele>
        <time>2021-12-01T11:05:00.000Z</time>
      </trkpt>
      <trkpt lat="47.52508" lon="-3.15548">
        <ele>12.465226</ele>
        <time>2021-12-01T11:05:02.000Z</time>
      </trkpt>
      <trkpt lat="47.5251" lon="-3.15535">
        <ele>12.440382</ele>
        <time>2021-12-01T11:05:03.000Z</time>
      </trkpt>
      <trkpt lat="47.52516" lon="-3.15511">
        <ele>12.218828</ele>
        <time>2021-12-01T11:05:05.000Z</time>
      </trkpt>
      <trkpt lat="47.5252" lon="-3.15499">
        <ele>12.032093</ele>
        <time>2021-12-01T11:05:06.000Z</time>
      </trkpt>
      <trkpt lat="47.5254" lon="-3.15441">
        <ele>11.073407</ele>
        <time>2021-12-01T11:05:11.000Z</time>
      </trkpt>
      <trkpt lat="47.52542" lon="-3.15429">
        <ele>10.886397</ele>
        <time>2021-12-01T11:05:12.000Z</time>
      </trkpt>
      <trkpt lat="47.52544" lon="-3.15406">
        <ele>10.555613</ele>
        <time>2021-12-01T11:05:14.000Z</time>
      </trkpt>
      <trkpt lat="47.52543" lon="-3.15388">
        <ele>10.283669</ele>
        <time>2021-12-01T11:05:16.000Z</time>
      </trkpt>
      <trkpt lat="47.5254" lon="-3.15369">
        <ele>10.007203</ele>
        <time>2021-12-01T11:05:18.000Z</time>
      </trkpt>
      <trkpt lat="47.52536" lon="-3.15331">
        <ele>9.437376</ele>
        <time>2021-12-01T11:05:22.000Z</time>
      </trkpt>
      <trkpt lat="47.52532" lon="-3.15304">
        <ele>9.039399</ele>
        <time>2021-12-01T11:05:25.000Z</time>
      </trkpt>
      <trkpt lat="47.5253" lon="-3.15287">
        <ele>8.786689</ele>
        <time>2021-12-01T11:05:27.000Z</time>
      </trkpt>
      <trkpt lat="47.52531" lon="-3.1527">
        <ele>8.538001</ele>
        <time>2021-12-01T11:05:29.000Z</time>
      </trkpt>
      <trkpt lat="47.52539" lon="-3.15205">
        <ele>9.291036</ele>
        <time>2021-12-01T11:05:37.000Z</time>
      </trkpt>
      <trkpt lat="47.5254" lon="-3.15195">
        <ele>9.412526</ele>
        <time>2021-12-01T11:05:38.000Z</time>
      </trkpt>
      <trkpt lat="47.52537" lon="-3.15161">
        <ele>9.816077</ele>
        <time>2021-12-01T11:05:42.000Z</time>
      </trkpt>
      <trkpt lat="47.52524" lon="-3.15103">
        <ele>10.530137</ele>
        <time>2021-12-01T11:05:49.000Z</time>
      </trkpt>
      <trkpt lat="47.52508" lon="-3.15045">
        <ele>11.266607</ele>
        <time>2021-12-01T11:05:57.000Z</time>
      </trkpt>
      <trkpt lat="47.52507" lon="-3.15039">
        <ele>11.339139</ele>
        <time>2021-12-01T11:05:58.000Z</time>
      </trkpt>
      <trkpt lat="47.52503" lon="-3.15028">
        <ele>11.48697</ele>
        <time>2021-12-01T11:06:00.000Z</time>
      </trkpt>
      <trkpt lat="47.52501" lon="-3.15022">
        <ele>11.567193</ele>
        <time>2021-12-01T11:06:01.000Z</time>
      </trkpt>
      <trkpt lat="47.52496" lon="-3.15011">
        <ele>11.758093</ele>
        <time>2021-12-01T11:06:03.000Z</time>
      </trkpt>
      <trkpt lat="47.52493" lon="-3.15007">
        <ele>11.876504</ele>
        <time>2021-12-01T11:06:04.000Z</time>
      </trkpt>
      <trkpt lat="47.52486" lon="-3.14999">
        <ele>12.123658</ele>
        <time>2021-12-01T11:06:06.000Z</time>
      </trkpt>
      <trkpt lat="47.52478" lon="-3.14991">
        <ele>12.37448</ele>
        <time>2021-12-01T11:06:08.000Z</time>
      </trkpt>
      <trkpt lat="47.52458" lon="-3.1498">
        <ele>12.962353</ele>
        <time>2021-12-01T11:06:13.000Z</time>
      </trkpt>
      <trkpt lat="47.52442" lon="-3.14974">
        <ele>13.4175</ele>
        <time>2021-12-01T11:06:17.000Z</time>
      </trkpt>
      <trkpt lat="47.52429" lon="-3.14969">
        <ele>13.784424</ele>
        <time>2021-12-01T11:06:20.000Z</time>
      </trkpt>
      <trkpt lat="47.52425" lon="-3.14968">
        <ele>13.900453</ele>
        <time>2021-12-01T11:06:21.000Z</time>
      </trkpt>
      <trkpt lat="47.52378" lon="-3.14951">
        <ele>15.235143</ele>
        <time>2021-12-01T11:06:31.000Z</time>
      </trkpt>
      <trkpt lat="47.52344" lon="-3.14939">
        <ele>16.19943</ele>
        <time>2021-12-01T11:06:38.000Z</time>
      </trkpt>
      <trkpt lat="47.52341" lon="-3.14935">
        <ele>16.311602</ele>
        <time>2021-12-01T11:06:39.000Z</time>
      </trkpt>
      <trkpt lat="47.52339" lon="-3.1493">
        <ele>16.427638</ele>
        <time>2021-12-01T11:06:40.000Z</time>
      </trkpt>
      <trkpt lat="47.5234" lon="-3.14917">
        <ele>16.606411</ele>
        <time>2021-12-01T11:06:42.000Z</time>
      </trkpt>
      <trkpt lat="47.52346" lon="-3.14872">
        <ele>16.414785</ele>
        <time>2021-12-01T11:06:48.000Z</time>
      </trkpt>
      <trkpt lat="47.52349" lon="-3.14854">
        <ele>16.335809</ele>
        <time>2021-12-01T11:06:51.000Z</time>
      </trkpt>
      <trkpt lat="47.52351" lon="-3.14842">
        <ele>16.282144</ele>
        <time>2021-12-01T11:06:53.000Z</time>
      </trkpt>
      <trkpt lat="47.5235" lon="-3.1483">
        <ele>16.22969</ele>
        <time>2021-12-01T11:06:55.000Z</time>
      </trkpt>
      <trkpt lat="47.52343" lon="-3.14821">
        <ele>16.175651</ele>
        <time>2021-12-01T11:06:57.000Z</time>
      </trkpt>
      <trkpt lat="47.52338" lon="-3.14819">
        <ele>16.139614</ele>
        <time>2021-12-01T11:06:58.000Z</time>
      </trkpt>
      <trkpt lat="47.52311" lon="-3.14814">
        <ele>15.971288</ele>
        <time>2021-12-01T11:07:03.000Z</time>
      </trkpt>
      <trkpt lat="47.52269" lon="-3.14811">
        <ele>15.71161</ele>
        <time>2021-12-01T11:07:10.000Z</time>
      </trkpt>
      <trkpt lat="47.52263" lon="-3.14812">
        <ele>15.668881</ele>
        <time>2021-12-01T11:07:11.000Z</time>
      </trkpt>
      <trkpt lat="47.52229" lon="-3.14819">
        <ele>15.51879</ele>
        <time>2021-12-01T11:07:17.000Z</time>
      </trkpt>
      <trkpt lat="47.52208" lon="-3.14821">
        <ele>15.622597</ele>
        <time>2021-12-01T11:07:21.000Z</time>
      </trkpt>
      <trkpt lat="47.52188" lon="-3.1482">
        <ele>15.714626</ele>
        <time>2021-12-01T11:07:25.000Z</time>
      </trkpt>
      <trkpt lat="47.52156" lon="-3.14806">
        <ele>15.878806</ele>
        <time>2021-12-01T11:07:32.000Z</time>
      </trkpt>
      <trkpt lat="47.52146" lon="-3.14798">
        <ele>15.933456</ele>
        <time>2021-12-01T11:07:34.000Z</time>
      </trkpt>
      <trkpt lat="47.52116" lon="-3.1477">
        <ele>16.10192</ele>
        <time>2021-12-01T11:07:41.000Z</time>
      </trkpt>
      <trkpt lat="47.52081" lon="-3.14735">
        <ele>16.307302</ele>
        <time>2021-12-01T11:07:50.000Z</time>
      </trkpt>
      <trkpt lat="47.5204" lon="-3.14699">
        <ele>16.707534</ele>
        <time>2021-12-01T11:07:58.000Z</time>
      </trkpt>
      <trkpt lat="47.52034" lon="-3.14693">
        <ele>16.774787</ele>
        <time>2021-12-01T11:07:59.000Z</time>
      </trkpt>
      <trkpt lat="47.52001" lon="-3.14674">
        <ele>17.113415</ele>
        <time>2021-12-01T11:08:05.000Z</time>
      </trkpt>
      <trkpt lat="47.51985" lon="-3.1467">
        <ele>17.264501</ele>
        <time>2021-12-01T11:08:08.000Z</time>
      </trkpt>
      <trkpt lat="47.51968" lon="-3.14672">
        <ele>17.422823</ele>
        <time>2021-12-01T11:08:11.000Z</time>
      </trkpt>
      <trkpt lat="47.51925" lon="-3.14687">
        <ele>17.846363</ele>
        <time>2021-12-01T11:08:19.000Z</time>
      </trkpt>
      <trkpt lat="47.51921" lon="-3.14689">
        <ele>17.887921</ele>
        <time>2021-12-01T11:08:20.000Z</time>
      </trkpt>
      <trkpt lat="47.5187" lon="-3.14711">
        <ele>18.504769</ele>
        <time>2021-12-01T11:08:30.000Z</time>
      </trkpt>
      <trkpt lat="47.5185" lon="-3.1472">
        <ele>18.777026</ele>
        <time>2021-12-01T11:08:34.000Z</time>
      </trkpt>
      <trkpt lat="47.51825" lon="-3.14732">
        <ele>19.114951</ele>
        <time>2021-12-01T11:08:39.000Z</time>
      </trkpt>
      <trkpt lat="47.51784" lon="-3.14745">
        <ele>19.652306</ele>
        <time>2021-12-01T11:08:47.000Z</time>
      </trkpt>
      <trkpt lat="47.5177" lon="-3.14748">
        <ele>19.833896</ele>
        <time>2021-12-01T11:08:50.000Z</time>
      </trkpt>
      <trkpt lat="47.51761" lon="-3.14748">
        <ele>19.952757</ele>
        <time>2021-12-01T11:08:52.000Z</time>
      </trkpt>
      <trkpt lat="47.51745" lon="-3.14747">
        <ele>20.159673</ele>
        <time>2021-12-01T11:08:55.000Z</time>
      </trkpt>
      <trkpt lat="47.51731" lon="-3.14744">
        <ele>20.340255</ele>
        <time>2021-12-01T11:08:58.000Z</time>
      </trkpt>
      <trkpt lat="47.51721" lon="-3.1474">
        <ele>20.393082</ele>
        <time>2021-12-01T11:09:00.000Z</time>
      </trkpt>
      <trkpt lat="47.517" lon="-3.1473">
        <ele>20.420249</ele>
        <time>2021-12-01T11:09:05.000Z</time>
      </trkpt>
      <trkpt lat="47.51673" lon="-3.1471">
        <ele>20.457793</ele>
        <time>2021-12-01T11:09:12.000Z</time>
      </trkpt>
      <trkpt lat="47.51669" lon="-3.14708">
        <ele>20.46314</ele>
        <time>2021-12-01T11:09:13.000Z</time>
      </trkpt>
      <trkpt lat="47.5166" lon="-3.14706">
        <ele>20.474467</ele>
        <time>2021-12-01T11:09:16.000Z</time>
      </trkpt>
      <trkpt lat="47.51659" lon="-3.14705">
        <ele>20.475631</ele>
        <time>2021-12-01T11:09:18.000Z</time>
      </trkpt>
      <trkpt lat="47.51657" lon="-3.14702">
        <ele>20.479364</ele>
        <time>2021-12-01T11:09:38.000Z</time>
      </trkpt>
      <trkpt lat="47.51645" lon="-3.14696">
        <ele>20.495026</ele>
        <time>2021-12-01T11:09:42.000Z</time>
      </trkpt>
      <trkpt lat="47.51621" lon="-3.14687">
        <ele>20.525495</ele>
        <time>2021-12-01T11:09:47.000Z</time>
      </trkpt>
      <trkpt lat="47.51594" lon="-3.14674">
        <ele>20.560258</ele>
        <time>2021-12-01T11:09:52.000Z</time>
      </trkpt>
      <trkpt lat="47.51589" lon="-3.14674">
        <ele>20.56735</ele>
        <time>2021-12-01T11:09:53.000Z</time>
      </trkpt>
      <trkpt lat="47.51583" lon="-3.14674">
        <ele>20.574039</ele>
        <time>2021-12-01T11:09:54.000Z</time>
      </trkpt>
      <trkpt lat="47.51572" lon="-3.14677">
        <ele>20.587651</ele>
        <time>2021-12-01T11:09:57.000Z</time>
      </trkpt>
      <trkpt lat="47.51562" lon="-3.14682">
        <ele>20.601591</ele>
        <time>2021-12-01T11:09:58.000Z</time>
      </trkpt>
      <trkpt lat="47.51552" lon="-3.1469">
        <ele>20.554049</ele>
        <time>2021-12-01T11:10:00.000Z</time>
      </trkpt>
      <trkpt lat="47.51549" lon="-3.14695">
        <ele>20.521158</ele>
        <time>2021-12-01T11:10:01.000Z</time>
      </trkpt>
      <trkpt lat="47.51546" lon="-3.14703">
        <ele>20.473148</ele>
        <time>2021-12-01T11:10:04.000Z</time>
      </trkpt>
      <trkpt lat="47.51546" lon="-3.14703">
        <ele>20.469629</ele>
        <time>2021-12-01T11:10:07.000Z</time>
      </trkpt>
      <trkpt lat="47.51544" lon="-3.14707">
        <ele>20.446475</ele>
        <time>2021-12-01T11:10:37.000Z</time>
      </trkpt>
      <trkpt lat="47.51536" lon="-3.14728">
        <ele>20.316424</ele>
        <time>2021-12-01T11:10:41.000Z</time>
      </trkpt>
      <trkpt lat="47.51533" lon="-3.14734">
        <ele>20.274534</ele>
        <time>2021-12-01T11:10:42.000Z</time>
      </trkpt>
      <trkpt lat="47.51519" lon="-3.14752">
        <ele>20.133606</ele>
        <time>2021-12-01T11:10:45.000Z</time>
      </trkpt>
      <trkpt lat="47.51514" lon="-3.14757">
        <ele>20.086955</ele>
        <time>2021-12-01T11:10:46.000Z</time>
      </trkpt>
      <trkpt lat="47.51503" lon="-3.14763">
        <ele>19.996149</ele>
        <time>2021-12-01T11:10:48.000Z</time>
      </trkpt>
      <trkpt lat="47.51498" lon="-3.14765">
        <ele>19.953795</ele>
        <time>2021-12-01T11:10:49.000Z</time>
      </trkpt>
      <trkpt lat="47.51468" lon="-3.14768">
        <ele>19.717885</ele>
        <time>2021-12-01T11:10:55.000Z</time>
      </trkpt>
      <trkpt lat="47.5142" lon="-3.14773">
        <ele>19.34697</ele>
        <time>2021-12-01T11:11:04.000Z</time>
      </trkpt>
      <trkpt lat="47.51374" lon="-3.1478">
        <ele>17.850413</ele>
        <time>2021-12-01T11:11:12.000Z</time>
      </trkpt>
      <trkpt lat="47.51357" lon="-3.14784">
        <ele>17.056126</ele>
        <time>2021-12-01T11:11:15.000Z</time>
      </trkpt>
      <trkpt lat="47.51351" lon="-3.14786">
        <ele>16.760503</ele>
        <time>2021-12-01T11:11:16.000Z</time>
      </trkpt>
      <trkpt lat="47.51345" lon="-3.1479">
        <ele>16.441178</ele>
        <time>2021-12-01T11:11:17.000Z</time>
      </trkpt>
      <trkpt lat="47.51338" lon="-3.14794">
        <ele>16.104527</ele>
        <time>2021-12-01T11:11:18.000Z</time>
      </trkpt>
      <trkpt lat="47.51327" lon="-3.14801">
        <ele>15.51803</ele>
        <time>2021-12-01T11:11:20.000Z</time>
      </trkpt>
      <trkpt lat="47.51321" lon="-3.14801">
        <ele>15.272055</ele>
        <time>2021-12-01T11:11:21.000Z</time>
      </trkpt>
      <trkpt lat="47.51316" lon="-3.14799">
        <ele>15.02174</ele>
        <time>2021-12-01T11:11:22.000Z</time>
      </trkpt>
      <trkpt lat="47.51311" lon="-3.14794">
        <ele>14.74262</ele>
        <time>2021-12-01T11:11:23.000Z</time>
      </trkpt>
      <trkpt lat="47.51306" lon="-3.14789">
        <ele>14.451655</ele>
        <time>2021-12-01T11:11:24.000Z</time>
      </trkpt>
      <trkpt lat="47.51302" lon="-3.14783">
        <ele>14.16069</ele>
        <time>2021-12-01T11:11:25.000Z</time>
      </trkpt>
      <trkpt lat="47.51291" lon="-3.14777">
        <ele>13.600638</ele>
        <time>2021-12-01T11:11:27.000Z</time>
      </trkpt>
      <trkpt lat="47.51285" lon="-3.14777">
        <ele>13.316629</ele>
        <time>2021-12-01T11:11:28.000Z</time>
      </trkpt>
      <trkpt lat="47.51279" lon="-3.1478">
        <ele>13.031619</ele>
        <time>2021-12-01T11:11:29.000Z</time>
      </trkpt>
      <trkpt lat="47.51271" lon="-3.14795">
        <ele>12.434567</ele>
        <time>2021-12-01T11:11:31.000Z</time>
      </trkpt>
      <trkpt lat="47.51265" lon="-3.14832">
        <ele>11.210025</ele>
        <time>2021-12-01T11:11:36.000Z</time>
      </trkpt>
      <trkpt lat="47.51262" lon="-3.14848">
        <ele>10.701864</ele>
        <time>2021-12-01T11:11:38.000Z</time>
      </trkpt>
      <trkpt lat="47.51259" lon="-3.14862">
        <ele>10.765717</ele>
        <time>2021-12-01T11:11:40.000Z</time>
      </trkpt>
      <trkpt lat="47.51259" lon="-3.1487">
        <ele>10.796567</ele>
        <time>2021-12-01T11:11:41.000Z</time>
      </trkpt>
      <trkpt lat="47.51257" lon="-3.14905">
        <ele>10.943139</ele>
        <time>2021-12-01T11:11:46.000Z</time>
      </trkpt>
      <trkpt lat="47.51256" lon="-3.14918">
        <ele>11.001151</ele>
        <time>2021-12-01T11:11:48.000Z</time>
      </trkpt>
      <trkpt lat="47.51254" lon="-3.14966">
        <ele>11.201956</ele>
        <time>2021-12-01T11:11:55.000Z</time>
      </trkpt>
      <trkpt lat="47.51254" lon="-3.14979">
        <ele>11.257751</ele>
        <time>2021-12-01T11:11:57.000Z</time>
      </trkpt>
      <trkpt lat="47.51255" lon="-3.14986">
        <ele>11.283611</ele>
        <time>2021-12-01T11:11:58.000Z</time>
      </trkpt>
      <trkpt lat="47.51257" lon="-3.14995">
        <ele>11.327951</ele>
        <time>2021-12-01T11:12:00.000Z</time>
      </trkpt>
      <trkpt lat="47.51258" lon="-3.15">
        <ele>11.348552</ele>
        <time>2021-12-01T11:12:01.000Z</time>
      </trkpt>
      <trkpt lat="47.51257" lon="-3.15009">
        <ele>11.38416</ele>
        <time>2021-12-01T11:12:03.000Z</time>
      </trkpt>
      <trkpt lat="47.5126" lon="-3.15023">
        <ele>11.445642</ele>
        <time>2021-12-01T11:12:07.000Z</time>
      </trkpt>
      <trkpt lat="47.5126" lon="-3.15026">
        <ele>11.461362</ele>
        <time>2021-12-01T11:12:11.000Z</time>
      </trkpt>
      <trkpt lat="47.51259" lon="-3.15029">
        <ele>11.47489</ele>
        <time>2021-12-01T11:13:22.000Z</time>
      </trkpt>
      <trkpt lat="47.51258" lon="-3.15035">
        <ele>11.499548</ele>
        <time>2021-12-01T11:13:24.000Z</time>
      </trkpt>
      <trkpt lat="47.51256" lon="-3.15038">
        <ele>11.517421</ele>
        <time>2021-12-01T11:13:25.000Z</time>
      </trkpt>
      <trkpt lat="47.51251" lon="-3.1505">
        <ele>11.577564</ele>
        <time>2021-12-01T11:13:28.000Z</time>
      </trkpt>
      <trkpt lat="47.51247" lon="-3.15059">
        <ele>11.623522</ele>
        <time>2021-12-01T11:13:30.000Z</time>
      </trkpt>
      <trkpt lat="47.51233" lon="-3.15079">
        <ele>11.739344</ele>
        <time>2021-12-01T11:13:36.000Z</time>
      </trkpt>
      <trkpt lat="47.51225" lon="-3.1509">
        <ele>11.808757</ele>
        <time>2021-12-01T11:13:41.000Z</time>
      </trkpt>
      <trkpt lat="47.51222" lon="-3.15095">
        <ele>11.891308</ele>
        <time>2021-12-01T11:13:46.000Z</time>
      </trkpt>
      <trkpt lat="47.5122" lon="-3.15097">
        <ele>11.942048</ele>
        <time>2021-12-01T11:14:24.000Z</time>
      </trkpt>
      <trkpt lat="47.51208" lon="-3.1511">
        <ele>12.26029</ele>
        <time>2021-12-01T11:14:29.000Z</time>
      </trkpt>
      <trkpt lat="47.51201" lon="-3.15117">
        <ele>12.446102</ele>
        <time>2021-12-01T11:14:32.000Z</time>
      </trkpt>
      <trkpt lat="47.51197" lon="-3.15123">
        <ele>12.559332</ele>
        <time>2021-12-01T11:14:34.000Z</time>
      </trkpt>
      <trkpt lat="47.51196" lon="-3.15127">
        <ele>12.614871</ele>
        <time>2021-12-01T11:14:35.000Z</time>
      </trkpt>
      <trkpt lat="47.51192" lon="-3.15154">
        <ele>13.017738</ele>
        <time>2021-12-01T11:14:43.000Z</time>
      </trkpt>
      <trkpt lat="47.51192" lon="-3.15156">
        <ele>13.055863</ele>
        <time>2021-12-01T11:14:44.000Z</time>
      </trkpt>
      <trkpt lat="47.51191" lon="-3.15158">
        <ele>13.091812</ele>
        <time>2021-12-01T11:14:45.000Z</time>
      </trkpt>
      <trkpt lat="47.51189" lon="-3.15162">
        <ele>13.164153</ele>
        <time>2021-12-01T11:14:47.000Z</time>
      </trkpt>
      <trkpt lat="47.51188" lon="-3.15164">
        <ele>13.197697</ele>
        <time>2021-12-01T11:14:48.000Z</time>
      </trkpt>
      <trkpt lat="47.5118" lon="-3.1517">
        <ele>13.381282</ele>
        <time>2021-12-01T11:14:53.000Z</time>
      </trkpt>
      <trkpt lat="47.51179" lon="-3.15171">
        <ele>13.400206</ele>
        <time>2021-12-01T11:14:55.000Z</time>
      </trkpt>
      <trkpt lat="47.51177" lon="-3.15171">
        <ele>13.449511</ele>
        <time>2021-12-01T11:15:37.000Z</time>
      </trkpt>
      <trkpt lat="47.51163" lon="-3.15176">
        <ele>13.761207</ele>
        <time>2021-12-01T11:15:41.000Z</time>
      </trkpt>
      <trkpt lat="47.51144" lon="-3.15187">
        <ele>14.192002</ele>
        <time>2021-12-01T11:15:47.000Z</time>
      </trkpt>
      <trkpt lat="47.51137" lon="-3.1519">
        <ele>14.353728</ele>
        <time>2021-12-01T11:15:50.000Z</time>
      </trkpt>
      <trkpt lat="47.51136" lon="-3.1519">
        <ele>14.383723</ele>
        <time>2021-12-01T11:15:51.000Z</time>
      </trkpt>
      <trkpt lat="47.51133" lon="-3.1519">
        <ele>14.433972</ele>
        <time>2021-12-01T11:15:55.000Z</time>
      </trkpt>
      <trkpt lat="47.51128" lon="-3.15188">
        <ele>14.538395</ele>
        <time>2021-12-01T11:16:01.000Z</time>
      </trkpt>
      <trkpt lat="47.51126" lon="-3.15187">
        <ele>14.593408</ele>
        <time>2021-12-01T11:16:03.000Z</time>
      </trkpt>
      <trkpt lat="47.51124" lon="-3.15184">
        <ele>14.645878</ele>
        <time>2021-12-01T11:16:06.000Z</time>
      </trkpt>
      <trkpt lat="47.51123" lon="-3.15184">
        <ele>14.680391</ele>
        <time>2021-12-01T11:16:08.000Z</time>
      </trkpt>
      <trkpt lat="47.51121" lon="-3.15183">
        <ele>14.716545</ele>
        <time>2021-12-01T11:16:11.000Z</time>
      </trkpt>
      <trkpt lat="47.5111" lon="-3.15175">
        <ele>14.977054</ele>
        <time>2021-12-01T11:16:18.000Z</time>
      </trkpt>
      <trkpt lat="47.51099" lon="-3.15159">
        <ele>15.302034</ele>
        <time>2021-12-01T11:16:23.000Z</time>
      </trkpt>
      <trkpt lat="47.51082" lon="-3.15134">
        <ele>15.550997</ele>
        <time>2021-12-01T11:16:30.000Z</time>
      </trkpt>
      <trkpt lat="47.51079" lon="-3.1513">
        <ele>15.487091</ele>
        <time>2021-12-01T11:16:31.000Z</time>
      </trkpt>
      <trkpt lat="47.51066" lon="-3.15116">
        <ele>15.233908</ele>
        <time>2021-12-01T11:16:35.000Z</time>
      </trkpt>
      <trkpt lat="47.51062" lon="-3.15113">
        <ele>15.165758</ele>
        <time>2021-12-01T11:16:36.000Z</time>
      </trkpt>
      <trkpt lat="47.51052" lon="-3.15102">
        <ele>14.963379</ele>
        <time>2021-12-01T11:16:39.000Z</time>
      </trkpt>
      <trkpt lat="47.51046" lon="-3.15094">
        <ele>14.829305</ele>
        <time>2021-12-01T11:16:41.000Z</time>
      </trkpt>
      <trkpt lat="47.51044" lon="-3.1509">
        <ele>14.784932</ele>
        <time>2021-12-01T11:16:42.000Z</time>
      </trkpt>
      <trkpt lat="47.51035" lon="-3.15073">
        <ele>14.555934</ele>
        <time>2021-12-01T11:16:46.000Z</time>
      </trkpt>
      <trkpt lat="47.51028" lon="-3.15061">
        <ele>14.386817</ele>
        <time>2021-12-01T11:16:49.000Z</time>
      </trkpt>
      <trkpt lat="47.51024" lon="-3.15057">
        <ele>14.303435</ele>
        <time>2021-12-01T11:16:51.000Z</time>
      </trkpt>
      <trkpt lat="47.51021" lon="-3.15057">
        <ele>14.257085</ele>
        <time>2021-12-01T11:16:52.000Z</time>
      </trkpt>
      <trkpt lat="47.51007" lon="-3.15046">
        <ele>14.012891</ele>
        <time>2021-12-01T11:16:57.000Z</time>
      </trkpt>
      <trkpt lat="47.51004" lon="-3.15034">
        <ele>13.867601</ele>
        <time>2021-12-01T11:17:02.000Z</time>
      </trkpt>
      <trkpt lat="47.51003" lon="-3.15032">
        <ele>13.847094</ele>
        <time>2021-12-01T11:17:04.000Z</time>
      </trkpt>
      <trkpt lat="47.51002" lon="-3.15028">
        <ele>13.799982</ele>
        <time>2021-12-01T11:17:08.000Z</time>
      </trkpt>
      <trkpt lat="47.50999" lon="-3.15023">
        <ele>13.721111</ele>
        <time>2021-12-01T11:17:15.000Z</time>
      </trkpt>
      <trkpt lat="47.50997" lon="-3.15022">
        <ele>13.700279</ele>
        <time>2021-12-01T11:17:16.000Z</time>
      </trkpt>
      <trkpt lat="47.50994" lon="-3.15013">
        <ele>13.587705</ele>
        <time>2021-12-01T11:17:19.000Z</time>
      </trkpt>
      <trkpt lat="47.50995" lon="-3.14987">
        <ele>13.307767</ele>
        <time>2021-12-01T11:17:24.000Z</time>
      </trkpt>
      <trkpt lat="47.50995" lon="-3.14981">
        <ele>13.24224</ele>
        <time>2021-12-01T11:17:25.000Z</time>
      </trkpt>
      <trkpt lat="47.5099" lon="-3.14964">
        <ele>13.05171</ele>
        <time>2021-12-01T11:17:28.000Z</time>
      </trkpt>
      <trkpt lat="47.50987" lon="-3.14943">
        <ele>12.821336</ele>
        <time>2021-12-01T11:17:32.000Z</time>
      </trkpt>
      <trkpt lat="47.50987" lon="-3.14938">
        <ele>12.856219</ele>
        <time>2021-12-01T11:17:33.000Z</time>
      </trkpt>
      <trkpt lat="47.50991" lon="-3.14925">
        <ele>12.964422</ele>
        <time>2021-12-01T11:17:36.000Z</time>
      </trkpt>
      <trkpt lat="47.50997" lon="-3.14917">
        <ele>13.05002</ele>
        <time>2021-12-01T11:17:40.000Z</time>
      </trkpt>
      <trkpt lat="47.50998" lon="-3.14915">
        <ele>13.067458</ele>
        <time>2021-12-01T11:17:41.000Z</time>
      </trkpt>
      <trkpt lat="47.51003" lon="-3.14906">
        <ele>13.156189</ele>
        <time>2021-12-01T11:17:46.000Z</time>
      </trkpt>
      <trkpt lat="47.51003" lon="-3.14906">
        <ele>13.156189</ele>
        <time>2021-12-01T11:17:47.000Z</time>
      </trkpt>
      <trkpt lat="47.51001" lon="-3.14903">
        <ele>13.184562</ele>
        <time>2021-12-01T11:17:55.000Z</time>
      </trkpt>
      <trkpt lat="47.50995" lon="-3.14899">
        <ele>13.255367</ele>
        <time>2021-12-01T11:17:58.000Z</time>
      </trkpt>
      <trkpt lat="47.50985" lon="-3.14884">
        <ele>13.418495</ele>
        <time>2021-12-01T11:18:02.000Z</time>
      </trkpt>
      <trkpt lat="47.5097" lon="-3.14853">
        <ele>13.693626</ele>
        <time>2021-12-01T11:18:07.000Z</time>
      </trkpt>
      <trkpt lat="47.50959" lon="-3.14828">
        <ele>13.91725</ele>
        <time>2021-12-01T11:18:11.000Z</time>
      </trkpt>
      <trkpt lat="47.50954" lon="-3.1481">
        <ele>14.058126</ele>
        <time>2021-12-01T11:18:14.000Z</time>
      </trkpt>
      <trkpt lat="47.50952" lon="-3.14798">
        <ele>14.15166</ele>
        <time>2021-12-01T11:18:16.000Z</time>
      </trkpt>
      <trkpt lat="47.50947" lon="-3.14777">
        <ele>14.317023</ele>
        <time>2021-12-01T11:18:19.000Z</time>
      </trkpt>
      <trkpt lat="47.50945" lon="-3.1477">
        <ele>14.371122</ele>
        <time>2021-12-01T11:18:20.000Z</time>
      </trkpt>
      <trkpt lat="47.5093" lon="-3.14737">
        <ele>14.66453</ele>
        <time>2021-12-01T11:18:25.000Z</time>
      </trkpt>
      <trkpt lat="47.50927" lon="-3.14733">
        <ele>14.708241</ele>
        <time>2021-12-01T11:18:26.000Z</time>
      </trkpt>
      <trkpt lat="47.50923" lon="-3.14728">
        <ele>14.773083</ele>
        <time>2021-12-01T11:18:27.000Z</time>
      </trkpt>
      <trkpt lat="47.50908" lon="-3.14712">
        <ele>15.380805</ele>
        <time>2021-12-01T11:18:31.000Z</time>
      </trkpt>
      <trkpt lat="47.50893" lon="-3.14697">
        <ele>15.997376</ele>
        <time>2021-12-01T11:18:35.000Z</time>
      </trkpt>
      <trkpt lat="47.50881" lon="-3.14684">
        <ele>16.535957</ele>
        <time>2021-12-01T11:18:39.000Z</time>
      </trkpt>
      <trkpt lat="47.5087" lon="-3.14667">
        <ele>17.101847</ele>
        <time>2021-12-01T11:18:43.000Z</time>
      </trkpt>
      <trkpt lat="47.50858" lon="-3.14648">
        <ele>17.695677</ele>
        <time>2021-12-01T11:18:47.000Z</time>
      </trkpt>
      <trkpt lat="47.50855" lon="-3.14643">
        <ele>17.868137</ele>
        <time>2021-12-01T11:18:48.000Z</time>
      </trkpt>
      <trkpt lat="47.50842" lon="-3.14622">
        <ele>18.533777</ele>
        <time>2021-12-01T11:18:54.000Z</time>
      </trkpt>
      <trkpt lat="47.5084" lon="-3.14622">
        <ele>18.61592</ele>
        <time>2021-12-01T11:18:55.000Z</time>
      </trkpt>
      <trkpt lat="47.50834" lon="-3.14624">
        <ele>18.818991</ele>
        <time>2021-12-01T11:18:57.000Z</time>
      </trkpt>
      <trkpt lat="47.50825" lon="-3.14634">
        <ele>19.222513</ele>
        <time>2021-12-01T11:19:00.000Z</time>
      </trkpt>
      <trkpt lat="47.50822" lon="-3.14638">
        <ele>19.381059</ele>
        <time>2021-12-01T11:19:01.000Z</time>
      </trkpt>
      <trkpt lat="47.50798" lon="-3.14676">
        <ele>20.604481</ele>
        <time>2021-12-01T11:19:08.000Z</time>
      </trkpt>
      <trkpt lat="47.50771" lon="-3.14718">
        <ele>20.618082</ele>
        <time>2021-12-01T11:19:15.000Z</time>
      </trkpt>
      <trkpt lat="47.50733" lon="-3.14776">
        <ele>19.472854</ele>
        <time>2021-12-01T11:19:25.000Z</time>
      </trkpt>
      <trkpt lat="47.50729" lon="-3.14781">
        <ele>19.369652</ele>
        <time>2021-12-01T11:19:26.000Z</time>
      </trkpt>
      <trkpt lat="47.50719" lon="-3.14796">
        <ele>19.07289</ele>
        <time>2021-12-01T11:19:30.000Z</time>
      </trkpt>
      <trkpt lat="47.50718" lon="-3.14797">
        <ele>19.044451</ele>
        <time>2021-12-01T11:19:31.000Z</time>
      </trkpt>
      <trkpt lat="47.50717" lon="-3.14797">
        <ele>19.017358</ele>
        <time>2021-12-01T11:19:32.000Z</time>
      </trkpt>
      <trkpt lat="47.50716" lon="-3.14797">
        <ele>18.989404</ele>
        <time>2021-12-01T11:19:33.000Z</time>
      </trkpt>
      <trkpt lat="47.50714" lon="-3.14795">
        <ele>18.949581</ele>
        <time>2021-12-01T11:19:34.000Z</time>
      </trkpt>
      <trkpt lat="47.50708" lon="-3.14786">
        <ele>18.768508</ele>
        <time>2021-12-01T11:19:37.000Z</time>
      </trkpt>
      <trkpt lat="47.50701" lon="-3.14761">
        <ele>18.389335</ele>
        <time>2021-12-01T11:19:42.000Z</time>
      </trkpt>
      <trkpt lat="47.50702" lon="-3.14748">
        <ele>18.212996</ele>
        <time>2021-12-01T11:19:44.000Z</time>
      </trkpt>
      <trkpt lat="47.50705" lon="-3.14733">
        <ele>17.987079</ele>
        <time>2021-12-01T11:19:46.000Z</time>
      </trkpt>
      <trkpt lat="47.50711" lon="-3.14691">
        <ele>17.377653</ele>
        <time>2021-12-01T11:19:52.000Z</time>
      </trkpt>
      <trkpt lat="47.50714" lon="-3.14668">
        <ele>17.471953</ele>
        <time>2021-12-01T11:19:55.000Z</time>
      </trkpt>
      <trkpt lat="47.50715" lon="-3.1464">
        <ele>17.587318</ele>
        <time>2021-12-01T11:19:59.000Z</time>
      </trkpt>
      <trkpt lat="47.50715" lon="-3.14608">
        <ele>17.720172</ele>
        <time>2021-12-01T11:20:03.000Z</time>
      </trkpt>
      <trkpt lat="47.50714" lon="-3.14567">
        <ele>17.894423</ele>
        <time>2021-12-01T11:20:09.000Z</time>
      </trkpt>
      <trkpt lat="47.50714" lon="-3.14552">
        <ele>17.954662</ele>
        <time>2021-12-01T11:20:11.000Z</time>
      </trkpt>
      <trkpt lat="47.50709" lon="-3.14539">
        <ele>18.018252</ele>
        <time>2021-12-01T11:20:13.000Z</time>
      </trkpt>
      <trkpt lat="47.50701" lon="-3.14531">
        <ele>18.077119</ele>
        <time>2021-12-01T11:20:15.000Z</time>
      </trkpt>
      <trkpt lat="47.5069" lon="-3.14527">
        <ele>18.142002</ele>
        <time>2021-12-01T11:20:17.000Z</time>
      </trkpt>
      <trkpt lat="47.50676" lon="-3.1452">
        <ele>18.236916</ele>
        <time>2021-12-01T11:20:20.000Z</time>
      </trkpt>
      <trkpt lat="47.50664" lon="-3.14523">
        <ele>18.308191</ele>
        <time>2021-12-01T11:20:22.000Z</time>
      </trkpt>
      <trkpt lat="47.50657" lon="-3.14534">
        <ele>18.374981</ele>
        <time>2021-12-01T11:20:24.000Z</time>
      </trkpt>
      <trkpt lat="47.50654" lon="-3.14539">
        <ele>18.400651</ele>
        <time>2021-12-01T11:20:25.000Z</time>
      </trkpt>
      <trkpt lat="47.50639" lon="-3.14579">
        <ele>18.601054</ele>
        <time>2021-12-01T11:20:31.000Z</time>
      </trkpt>
      <trkpt lat="47.50636" lon="-3.14586">
        <ele>18.641993</ele>
        <time>2021-12-01T11:20:32.000Z</time>
      </trkpt>
      <trkpt lat="47.50616" lon="-3.14639">
        <ele>18.914508</ele>
        <time>2021-12-01T11:20:40.000Z</time>
      </trkpt>
      <trkpt lat="47.50601" lon="-3.1469">
        <ele>19.164632</ele>
        <time>2021-12-01T11:20:47.000Z</time>
      </trkpt>
      <trkpt lat="47.50592" lon="-3.14719">
        <ele>19.311268</ele>
        <time>2021-12-01T11:20:51.000Z</time>
      </trkpt>
      <trkpt lat="47.50588" lon="-3.14731">
        <ele>19.372426</ele>
        <time>2021-12-01T11:20:53.000Z</time>
      </trkpt>
      <trkpt lat="47.50572" lon="-3.1477">
        <ele>19.5788</ele>
        <time>2021-12-01T11:20:59.000Z</time>
      </trkpt>
      <trkpt lat="47.5057" lon="-3.14777">
        <ele>19.613094</ele>
        <time>2021-12-01T11:21:00.000Z</time>
      </trkpt>
      <trkpt lat="47.50559" lon="-3.14808">
        <ele>19.910723</ele>
        <time>2021-12-01T11:21:05.000Z</time>
      </trkpt>
      <trkpt lat="47.50555" lon="-3.14819">
        <ele>20.060172</ele>
        <time>2021-12-01T11:21:07.000Z</time>
      </trkpt>
      <trkpt lat="47.50552" lon="-3.14838">
        <ele>20.310025</ele>
        <time>2021-12-01T11:21:10.000Z</time>
      </trkpt>
      <trkpt lat="47.50551" lon="-3.14843">
        <ele>20.371181</ele>
        <time>2021-12-01T11:21:11.000Z</time>
      </trkpt>
      <trkpt lat="47.50549" lon="-3.14848">
        <ele>20.445049</ele>
        <time>2021-12-01T11:21:12.000Z</time>
      </trkpt>
      <trkpt lat="47.50544" lon="-3.14854">
        <ele>20.567587</ele>
        <time>2021-12-01T11:21:14.000Z</time>
      </trkpt>
      <trkpt lat="47.50528" lon="-3.14851">
        <ele>20.865244</ele>
        <time>2021-12-01T11:21:18.000Z</time>
      </trkpt>
      <trkpt lat="47.50523" lon="-3.1485">
        <ele>20.946973</ele>
        <time>2021-12-01T11:21:19.000Z</time>
      </trkpt>
      <trkpt lat="47.50498" lon="-3.14848">
        <ele>21.412369</ele>
        <time>2021-12-01T11:21:24.000Z</time>
      </trkpt>
      <trkpt lat="47.50474" lon="-3.14846">
        <ele>21.860926</ele>
        <time>2021-12-01T11:21:29.000Z</time>
      </trkpt>
      <trkpt lat="47.50466" lon="-3.14847">
        <ele>22.016508</ele>
        <time>2021-12-01T11:21:31.000Z</time>
      </trkpt>
      <trkpt lat="47.50457" lon="-3.14848">
        <ele>22.180821</ele>
        <time>2021-12-01T11:21:33.000Z</time>
      </trkpt>
      <trkpt lat="47.50444" lon="-3.14848">
        <ele>22.407708</ele>
        <time>2021-12-01T11:21:36.000Z</time>
      </trkpt>
      <trkpt lat="47.50441" lon="-3.1485">
        <ele>22.476024</ele>
        <time>2021-12-01T11:21:37.000Z</time>
      </trkpt>
      <trkpt lat="47.5043" lon="-3.1485">
        <ele>22.675133</ele>
        <time>2021-12-01T11:21:40.000Z</time>
      </trkpt>
      <trkpt lat="47.50422" lon="-3.14848">
        <ele>22.830975</ele>
        <time>2021-12-01T11:21:42.000Z</time>
      </trkpt>
      <trkpt lat="47.5041" lon="-3.14845">
        <ele>23.060307</ele>
        <time>2021-12-01T11:21:45.000Z</time>
      </trkpt>
      <trkpt lat="47.50402" lon="-3.14845">
        <ele>23.245385</ele>
        <time>2021-12-01T11:21:47.000Z</time>
      </trkpt>
      <trkpt lat="47.50384" lon="-3.14844">
        <ele>23.646545</ele>
        <time>2021-12-01T11:21:51.000Z</time>
      </trkpt>
      <trkpt lat="47.50376" lon="-3.14844">
        <ele>23.820376</ele>
        <time>2021-12-01T11:21:53.000Z</time>
      </trkpt>
      <trkpt lat="47.50368" lon="-3.14843">
        <ele>24.009678</ele>
        <time>2021-12-01T11:21:55.000Z</time>
      </trkpt>
      <trkpt lat="47.50338" lon="-3.14842">
        <ele>24.688306</ele>
        <time>2021-12-01T11:22:02.000Z</time>
      </trkpt>
      <trkpt lat="47.5033" lon="-3.1484">
        <ele>24.867775</ele>
        <time>2021-12-01T11:22:04.000Z</time>
      </trkpt>
      <trkpt lat="47.50307" lon="-3.14835">
        <ele>25.393501</ele>
        <time>2021-12-01T11:22:09.000Z</time>
      </trkpt>
      <trkpt lat="47.50296" lon="-3.14834">
        <ele>25.628086</ele>
        <time>2021-12-01T11:22:11.000Z</time>
      </trkpt>
      <trkpt lat="47.5026" lon="-3.14831">
        <ele>26.449475</ele>
        <time>2021-12-01T11:22:19.000Z</time>
      </trkpt>
      <trkpt lat="47.50254" lon="-3.14832">
        <ele>26.574004</ele>
        <time>2021-12-01T11:22:20.000Z</time>
      </trkpt>
      <trkpt lat="47.50236" lon="-3.14832">
        <ele>26.990909</ele>
        <time>2021-12-01T11:22:24.000Z</time>
      </trkpt>
      <trkpt lat="47.50223" lon="-3.1483">
        <ele>26.932825</ele>
        <time>2021-12-01T11:22:27.000Z</time>
      </trkpt>
      <trkpt lat="47.50215" lon="-3.14828">
        <ele>26.807258</ele>
        <time>2021-12-01T11:22:29.000Z</time>
      </trkpt>
      <trkpt lat="47.50202" lon="-3.14819">
        <ele>26.611336</ele>
        <time>2021-12-01T11:22:32.000Z</time>
      </trkpt>
      <trkpt lat="47.50172" lon="-3.14805">
        <ele>26.1765</ele>
        <time>2021-12-01T11:22:38.000Z</time>
      </trkpt>
      <trkpt lat="47.50131" lon="-3.14793">
        <ele>25.591206</ele>
        <time>2021-12-01T11:22:45.000Z</time>
      </trkpt>
      <trkpt lat="47.50125" lon="-3.14791">
        <ele>25.502638</ele>
        <time>2021-12-01T11:22:46.000Z</time>
      </trkpt>
      <trkpt lat="47.50113" lon="-3.14785">
        <ele>25.327621</ele>
        <time>2021-12-01T11:22:48.000Z</time>
      </trkpt>
      <trkpt lat="47.50102" lon="-3.14777">
        <ele>25.156956</ele>
        <time>2021-12-01T11:22:50.000Z</time>
      </trkpt>
      <trkpt lat="47.50097" lon="-3.14773">
        <ele>25.072419</ele>
        <time>2021-12-01T11:22:51.000Z</time>
      </trkpt>
      <trkpt lat="47.5009" lon="-3.1477">
        <ele>24.971679</ele>
        <time>2021-12-01T11:22:52.000Z</time>
      </trkpt>
      <trkpt lat="47.50069" lon="-3.1476">
        <ele>24.660331</ele>
        <time>2021-12-01T11:22:56.000Z</time>
      </trkpt>
      <trkpt lat="47.50043" lon="-3.14742">
        <ele>24.123055</ele>
        <time>2021-12-01T11:23:01.000Z</time>
      </trkpt>
      <trkpt lat="47.50034" lon="-3.14735">
        <ele>23.899355</ele>
        <time>2021-12-01T11:23:03.000Z</time>
      </trkpt>
      <trkpt lat="47.50013" lon="-3.14731">
        <ele>23.437254</ele>
        <time>2021-12-01T11:23:07.000Z</time>
      </trkpt>
      <trkpt lat="47.50002" lon="-3.14724">
        <ele>23.183944</ele>
        <time>2021-12-01T11:23:09.000Z</time>
      </trkpt>
      <trkpt lat="47.49997" lon="-3.14719">
        <ele>23.056079</ele>
        <time>2021-12-01T11:23:10.000Z</time>
      </trkpt>
      <trkpt lat="47.49983" lon="-3.14697">
        <ele>22.616759</ele>
        <time>2021-12-01T11:23:13.000Z</time>
      </trkpt>
      <trkpt lat="47.49977" lon="-3.14679">
        <ele>22.326292</ele>
        <time>2021-12-01T11:23:15.000Z</time>
      </trkpt>
      <trkpt lat="47.49971" lon="-3.14664">
        <ele>22.075639</ele>
        <time>2021-12-01T11:23:17.000Z</time>
      </trkpt>
      <trkpt lat="47.49969" lon="-3.14654">
        <ele>21.922504</ele>
        <time>2021-12-01T11:23:19.000Z</time>
      </trkpt>
      <trkpt lat="47.49967" lon="-3.14648">
        <ele>21.82785</ele>
        <time>2021-12-01T11:23:21.000Z</time>
      </trkpt>
      <trkpt lat="47.49965" lon="-3.14646">
        <ele>21.784455</ele>
        <time>2021-12-01T11:23:22.000Z</time>
      </trkpt>
      <trkpt lat="47.49961" lon="-3.14644">
        <ele>21.689262</ele>
        <time>2021-12-01T11:23:24.000Z</time>
      </trkpt>
      <trkpt lat="47.49958" lon="-3.14638">
        <ele>21.58846</ele>
        <time>2021-12-01T11:23:26.000Z</time>
      </trkpt>
      <trkpt lat="47.49952" lon="-3.14639">
        <ele>21.456018</ele>
        <time>2021-12-01T11:23:29.000Z</time>
      </trkpt>
      <trkpt lat="47.49938" lon="-3.14636">
        <ele>21.15146</ele>
        <time>2021-12-01T11:23:33.000Z</time>
      </trkpt>
      <trkpt lat="47.49929" lon="-3.14641">
        <ele>20.951206</ele>
        <time>2021-12-01T11:23:35.000Z</time>
      </trkpt>
      <trkpt lat="47.49925" lon="-3.14645">
        <ele>20.844795</ele>
        <time>2021-12-01T11:23:36.000Z</time>
      </trkpt>
      <trkpt lat="47.49908" lon="-3.14662">
        <ele>20.698508</ele>
        <time>2021-12-01T11:23:40.000Z</time>
      </trkpt>
      <trkpt lat="47.49903" lon="-3.14664">
        <ele>20.695261</ele>
        <time>2021-12-01T11:23:41.000Z</time>
      </trkpt>
      <trkpt lat="47.49898" lon="-3.14665">
        <ele>20.692031</ele>
        <time>2021-12-01T11:23:42.000Z</time>
      </trkpt>
      <trkpt lat="47.49872" lon="-3.14666">
        <ele>20.675421</ele>
        <time>2021-12-01T11:23:47.000Z</time>
      </trkpt>
      <trkpt lat="47.49829" lon="-3.14667">
        <ele>20.64862</ele>
        <time>2021-12-01T11:23:55.000Z</time>
      </trkpt>
      <trkpt lat="47.49824" lon="-3.14667">
        <ele>20.645223</ele>
        <time>2021-12-01T11:23:56.000Z</time>
      </trkpt>
      <trkpt lat="47.49802" lon="-3.14662">
        <ele>20.631147</ele>
        <time>2021-12-01T11:24:00.000Z</time>
      </trkpt>
      <trkpt lat="47.49773" lon="-3.1465">
        <ele>20.612701</ele>
        <time>2021-12-01T11:24:05.000Z</time>
      </trkpt>
      <trkpt lat="47.49763" lon="-3.14643">
        <ele>20.605349</ele>
        <time>2021-12-01T11:24:07.000Z</time>
      </trkpt>
      <trkpt lat="47.49743" lon="-3.14628">
        <ele>20.636803</ele>
        <time>2021-12-01T11:24:11.000Z</time>
      </trkpt>
      <trkpt lat="47.49736" lon="-3.14626">
        <ele>20.700185</ele>
        <time>2021-12-01T11:24:12.000Z</time>
      </trkpt>
      <trkpt lat="47.49727" lon="-3.14623">
        <ele>20.795286</ele>
        <time>2021-12-01T11:24:14.000Z</time>
      </trkpt>
      <trkpt lat="47.49711" lon="-3.14617">
        <ele>20.952263</ele>
        <time>2021-12-01T11:24:17.000Z</time>
      </trkpt>
      <trkpt lat="47.49707" lon="-3.14613">
        <ele>21.001614</ele>
        <time>2021-12-01T11:24:18.000Z</time>
      </trkpt>
      <trkpt lat="47.49702" lon="-3.14609">
        <ele>21.061297</ele>
        <time>2021-12-01T11:24:19.000Z</time>
      </trkpt>
      <trkpt lat="47.49689" lon="-3.14602">
        <ele>21.190238</ele>
        <time>2021-12-01T11:24:22.000Z</time>
      </trkpt>
      <trkpt lat="47.4968" lon="-3.14597">
        <ele>21.289406</ele>
        <time>2021-12-01T11:24:24.000Z</time>
      </trkpt>
      <trkpt lat="47.49665" lon="-3.14587">
        <ele>21.444777</ele>
        <time>2021-12-01T11:24:27.000Z</time>
      </trkpt>
      <trkpt lat="47.49652" lon="-3.14579">
        <ele>21.581505</ele>
        <time>2021-12-01T11:24:30.000Z</time>
      </trkpt>
      <trkpt lat="47.49632" lon="-3.14571">
        <ele>21.791163</ele>
        <time>2021-12-01T11:24:34.000Z</time>
      </trkpt>
      <trkpt lat="47.49615" lon="-3.14564">
        <ele>21.96129</ele>
        <time>2021-12-01T11:24:37.000Z</time>
      </trkpt>
      <trkpt lat="47.49594" lon="-3.14554">
        <ele>22.170065</ele>
        <time>2021-12-01T11:24:41.000Z</time>
      </trkpt>
      <trkpt lat="47.49579" lon="-3.14549">
        <ele>22.324655</ele>
        <time>2021-12-01T11:24:44.000Z</time>
      </trkpt>
      <trkpt lat="47.49553" lon="-3.14535">
        <ele>22.161028</ele>
        <time>2021-12-01T11:24:49.000Z</time>
      </trkpt>
      <trkpt lat="47.49547" lon="-3.14534">
        <ele>22.121014</ele>
        <time>2021-12-01T11:24:50.000Z</time>
      </trkpt>
      <trkpt lat="47.49515" lon="-3.14529">
        <ele>21.875907</ele>
        <time>2021-12-01T11:24:56.000Z</time>
      </trkpt>
      <trkpt lat="47.49496" lon="-3.1452">
        <ele>21.72912</ele>
        <time>2021-12-01T11:25:00.000Z</time>
      </trkpt>
      <trkpt lat="47.49488" lon="-3.14516">
        <ele>21.663796</ele>
        <time>2021-12-01T11:25:02.000Z</time>
      </trkpt>
      <trkpt lat="47.49483" lon="-3.14514">
        <ele>21.62875</ele>
        <time>2021-12-01T11:25:03.000Z</time>
      </trkpt>
      <trkpt lat="47.49453" lon="-3.14506">
        <ele>21.40082</ele>
        <time>2021-12-01T11:25:09.000Z</time>
      </trkpt>
      <trkpt lat="47.4945" lon="-3.14504">
        <ele>21.376393</ele>
        <time>2021-12-01T11:25:10.000Z</time>
      </trkpt>
      <trkpt lat="47.49447" lon="-3.14503">
        <ele>21.354416</ele>
        <time>2021-12-01T11:25:13.000Z</time>
      </trkpt>
      <trkpt lat="47.49445" lon="-3.145">
        <ele>21.33274</ele>
        <time>2021-12-01T11:25:22.000Z</time>
      </trkpt>
      <trkpt lat="47.49441" lon="-3.14496">
        <ele>21.292067</ele>
        <time>2021-12-01T11:25:24.000Z</time>
      </trkpt>
      <trkpt lat="47.49425" lon="-3.14485">
        <ele>21.162432</ele>
        <time>2021-12-01T11:25:29.000Z</time>
      </trkpt>
      <trkpt lat="47.49407" lon="-3.14476">
        <ele>21.016899</ele>
        <time>2021-12-01T11:25:34.000Z</time>
      </trkpt>
      <trkpt lat="47.49394" lon="-3.14463">
        <ele>20.494171</ele>
        <time>2021-12-01T11:25:38.000Z</time>
      </trkpt>
      <trkpt lat="47.4939" lon="-3.14457">
        <ele>20.249607</ele>
        <time>2021-12-01T11:25:40.000Z</time>
      </trkpt>
      <trkpt lat="47.49381" lon="-3.14447">
        <ele>19.834345</ele>
        <time>2021-12-01T11:25:44.000Z</time>
      </trkpt>
      <trkpt lat="47.49377" lon="-3.14442">
        <ele>19.633895</ele>
        <time>2021-12-01T11:25:46.000Z</time>
      </trkpt>
      <trkpt lat="47.49369" lon="-3.14432">
        <ele>19.209282</ele>
        <time>2021-12-01T11:25:50.000Z</time>
      </trkpt>
      <trkpt lat="47.49363" lon="-3.14425">
        <ele>18.908607</ele>
        <time>2021-12-01T11:25:53.000Z</time>
      </trkpt>
      <trkpt lat="47.49357" lon="-3.14417">
        <ele>18.588921</ele>
        <time>2021-12-01T11:25:57.000Z</time>
      </trkpt>
      <trkpt lat="47.4935" lon="-3.14408">
        <ele>18.234371</ele>
        <time>2021-12-01T11:26:00.000Z</time>
      </trkpt>
      <trkpt lat="47.49344" lon="-3.144">
        <ele>17.926962</ele>
        <time>2021-12-01T11:26:02.000Z</time>
      </trkpt>
      <trkpt lat="47.49333" lon="-3.14387">
        <ele>17.383703</ele>
        <time>2021-12-01T11:26:05.000Z</time>
      </trkpt>
      <trkpt lat="47.49329" lon="-3.14383">
        <ele>17.192817</ele>
        <time>2021-12-01T11:26:06.000Z</time>
      </trkpt>
      <trkpt lat="47.49321" lon="-3.1438">
        <ele>16.84948</ele>
        <time>2021-12-01T11:26:08.000Z</time>
      </trkpt>
      <trkpt lat="47.49312" lon="-3.14382">
        <ele>16.506356</ele>
        <time>2021-12-01T11:26:10.000Z</time>
      </trkpt>
      <trkpt lat="47.49305" lon="-3.14382">
        <ele>16.226045</ele>
        <time>2021-12-01T11:26:12.000Z</time>
      </trkpt>
      <trkpt lat="47.49302" lon="-3.14379">
        <ele>16.0821</ele>
        <time>2021-12-01T11:26:13.000Z</time>
      </trkpt>
      <trkpt lat="47.49298" lon="-3.14368">
        <ele>15.747099</ele>
        <time>2021-12-01T11:26:15.000Z</time>
      </trkpt>
      <trkpt lat="47.49295" lon="-3.14354">
        <ele>15.358386</ele>
        <time>2021-12-01T11:26:17.000Z</time>
      </trkpt>
      <trkpt lat="47.49288" lon="-3.14323">
        <ele>14.51987</ele>
        <time>2021-12-01T11:26:21.000Z</time>
      </trkpt>
      <trkpt lat="47.4928" lon="-3.14292">
        <ele>13.723518</ele>
        <time>2021-12-01T11:26:25.000Z</time>
      </trkpt>
      <trkpt lat="47.49269" lon="-3.14248">
        <ele>12.829072</ele>
        <time>2021-12-01T11:26:30.000Z</time>
      </trkpt>
      <trkpt lat="47.49262" lon="-3.1422">
        <ele>12.241509</ele>
        <time>2021-12-01T11:26:33.000Z</time>
      </trkpt>
      <trkpt lat="47.4925" lon="-3.14187">
        <ele>11.513338</ele>
        <time>2021-12-01T11:26:37.000Z</time>
      </trkpt>
      <trkpt lat="47.49248" lon="-3.1418">
        <ele>11.365538</ele>
        <time>2021-12-01T11:26:38.000Z</time>
      </trkpt>
      <trkpt lat="47.49245" lon="-3.1417">
        <ele>11.159223</ele>
        <time>2021-12-01T11:26:40.000Z</time>
      </trkpt>
      <trkpt lat="47.49243" lon="-3.14168">
        <ele>11.088903</ele>
        <time>2021-12-01T11:26:41.000Z</time>
      </trkpt>
      <trkpt lat="47.49241" lon="-3.14165">
        <ele>11.010924</ele>
        <time>2021-12-01T11:26:42.000Z</time>
      </trkpt>
      <trkpt lat="47.49239" lon="-3.14158">
        <ele>10.864389</ele>
        <time>2021-12-01T11:26:44.000Z</time>
      </trkpt>
      <trkpt lat="47.49239" lon="-3.14155">
        <ele>10.794859</ele>
        <time>2021-12-01T11:26:45.000Z</time>
      </trkpt>
      <trkpt lat="47.49229" lon="-3.1414">
        <ele>10.384648</ele>
        <time>2021-12-01T11:26:49.000Z</time>
      </trkpt>
      <trkpt lat="47.49219" lon="-3.14128">
        <ele>10.015318</ele>
        <time>2021-12-01T11:26:52.000Z</time>
      </trkpt>
      <trkpt lat="47.49209" lon="-3.14113">
        <ele>9.630331</ele>
        <time>2021-12-01T11:26:55.000Z</time>
      </trkpt>
      <trkpt lat="47.49203" lon="-3.14104">
        <ele>9.38119</ele>
        <time>2021-12-01T11:26:57.000Z</time>
      </trkpt>
      <trkpt lat="47.49197" lon="-3.14101">
        <ele>9.194956</ele>
        <time>2021-12-01T11:26:59.000Z</time>
      </trkpt>
      <trkpt lat="47.49184" lon="-3.14101">
        <ele>8.837341</ele>
        <time>2021-12-01T11:27:03.000Z</time>
      </trkpt>
      <trkpt lat="47.49168" lon="-3.1409">
        <ele>9.092685</ele>
        <time>2021-12-01T11:27:07.000Z</time>
      </trkpt>
      <trkpt lat="47.4916" lon="-3.14084">
        <ele>9.232612</ele>
        <time>2021-12-01T11:27:09.000Z</time>
      </trkpt>
      <trkpt lat="47.49156" lon="-3.14081">
        <ele>9.30086</ele>
        <time>2021-12-01T11:27:10.000Z</time>
      </trkpt>
      <trkpt lat="47.49147" lon="-3.14083">
        <ele>9.435058</ele>
        <time>2021-12-01T11:27:12.000Z</time>
      </trkpt>
      <trkpt lat="47.49142" lon="-3.14085">
        <ele>9.511721</ele>
        <time>2021-12-01T11:27:13.000Z</time>
      </trkpt>
      <trkpt lat="47.49136" lon="-3.14086">
        <ele>9.593709</ele>
        <time>2021-12-01T11:27:14.000Z</time>
      </trkpt>
      <trkpt lat="47.49126" lon="-3.14093">
        <ele>9.762156</ele>
        <time>2021-12-01T11:27:16.000Z</time>
      </trkpt>
      <trkpt lat="47.49121" lon="-3.14096">
        <ele>9.841184</ele>
        <time>2021-12-01T11:27:17.000Z</time>
      </trkpt>
      <trkpt lat="47.49108" lon="-3.14101">
        <ele>10.041846</ele>
        <time>2021-12-01T11:27:20.000Z</time>
      </trkpt>
      <trkpt lat="47.49101" lon="-3.14104">
        <ele>10.144969</ele>
        <time>2021-12-01T11:27:22.000Z</time>
      </trkpt>
      <trkpt lat="47.49099" lon="-3.14111">
        <ele>10.226433</ele>
        <time>2021-12-01T11:27:24.000Z</time>
      </trkpt>
      <trkpt lat="47.49102" lon="-3.14123">
        <ele>10.352879</ele>
        <time>2021-12-01T11:27:27.000Z</time>
      </trkpt>
      <trkpt lat="47.49103" lon="-3.14127">
        <ele>10.392264</ele>
        <time>2021-12-01T11:27:28.000Z</time>
      </trkpt>
      <trkpt lat="47.49104" lon="-3.1413">
        <ele>10.427974</ele>
        <time>2021-12-01T11:27:29.000Z</time>
      </trkpt>
      <trkpt lat="47.49105" lon="-3.14136">
        <ele>10.489987</ele>
        <time>2021-12-01T11:27:31.000Z</time>
      </trkpt>
      <trkpt lat="47.49105" lon="-3.14137">
        <ele>10.498151</ele>
        <time>2021-12-01T11:27:33.000Z</time>
      </trkpt>
      <trkpt lat="47.49106" lon="-3.14143">
        <ele>10.563446</ele>
        <time>2021-12-01T11:27:37.000Z</time>
      </trkpt>
      <trkpt lat="47.49105" lon="-3.14147">
        <ele>10.600654</ele>
        <time>2021-12-01T11:27:39.000Z</time>
      </trkpt>
      <trkpt lat="47.49105" lon="-3.14148">
        <ele>10.61983</ele>
        <time>2021-12-01T11:27:40.000Z</time>
      </trkpt>
      <trkpt lat="47.49103" lon="-3.14151">
        <ele>10.657603</ele>
        <time>2021-12-01T11:27:42.000Z</time>
      </trkpt>
      <trkpt lat="47.49102" lon="-3.14151">
        <ele>10.665379</ele>
        <time>2021-12-01T11:27:45.000Z</time>
      </trkpt>
      <trkpt lat="47.49103" lon="-3.14149">
        <ele>10.692513</ele>
        <time>2021-12-01T11:28:19.000Z</time>
      </trkpt>
      <trkpt lat="47.49103" lon="-3.14146">
        <ele>10.721232</ele>
        <time>2021-12-01T11:28:20.000Z</time>
      </trkpt>
      <trkpt lat="47.49102" lon="-3.14128">
        <ele>10.901154</ele>
        <time>2021-12-01T11:28:24.000Z</time>
      </trkpt>
      <trkpt lat="47.49095" lon="-3.14104">
        <ele>11.161035</ele>
        <time>2021-12-01T11:28:29.000Z</time>
      </trkpt>
      <trkpt lat="47.49092" lon="-3.14101">
        <ele>11.220182</ele>
        <time>2021-12-01T11:28:30.000Z</time>
      </trkpt>
      <trkpt lat="47.49088" lon="-3.14098">
        <ele>11.279671</ele>
        <time>2021-12-01T11:28:31.000Z</time>
      </trkpt>
      <trkpt lat="47.49072" lon="-3.14089">
        <ele>11.555508</ele>
        <time>2021-12-01T11:28:35.000Z</time>
      </trkpt>
      <trkpt lat="47.49067" lon="-3.14086">
        <ele>11.658827</ele>
        <time>2021-12-01T11:28:36.000Z</time>
      </trkpt>
      <trkpt lat="47.49053" lon="-3.14075">
        <ele>11.979855</ele>
        <time>2021-12-01T11:28:39.000Z</time>
      </trkpt>
      <trkpt lat="47.49047" lon="-3.14067">
        <ele>12.139065</ele>
        <time>2021-12-01T11:28:41.000Z</time>
      </trkpt>
      <trkpt lat="47.49043" lon="-3.1406">
        <ele>12.271272</ele>
        <time>2021-12-01T11:28:43.000Z</time>
      </trkpt>
      <trkpt lat="47.49033" lon="-3.14057">
        <ele>12.463116</ele>
        <time>2021-12-01T11:28:47.000Z</time>
      </trkpt>
      <trkpt lat="47.49032" lon="-3.14055">
        <ele>12.510624</ele>
        <time>2021-12-01T11:28:48.000Z</time>
      </trkpt>
      <trkpt lat="47.49032" lon="-3.14051">
        <ele>12.564162</ele>
        <time>2021-12-01T11:28:49.000Z</time>
      </trkpt>
      <trkpt lat="47.4903" lon="-3.14035">
        <ele>12.780017</ele>
        <time>2021-12-01T11:28:52.000Z</time>
      </trkpt>
      <trkpt lat="47.49027" lon="-3.14008">
        <ele>13.150871</ele>
        <time>2021-12-01T11:28:56.000Z</time>
      </trkpt>
      <trkpt lat="47.49026" lon="-3.14001">
        <ele>13.249371</ele>
        <time>2021-12-01T11:28:57.000Z</time>
      </trkpt>
      <trkpt lat="47.49016" lon="-3.13948">
        <ele>14.008052</ele>
        <time>2021-12-01T11:29:05.000Z</time>
      </trkpt>
      <trkpt lat="47.49014" lon="-3.1394">
        <ele>14.115493</ele>
        <time>2021-12-01T11:29:06.000Z</time>
      </trkpt>
      <trkpt lat="47.49002" lon="-3.13907">
        <ele>14.629526</ele>
        <time>2021-12-01T11:29:12.000Z</time>
      </trkpt>
      <trkpt lat="47.48997" lon="-3.13889">
        <ele>14.889852</ele>
        <time>2021-12-01T11:29:15.000Z</time>
      </trkpt>
      <trkpt lat="47.48993" lon="-3.13876">
        <ele>15.089819</ele>
        <time>2021-12-01T11:29:17.000Z</time>
      </trkpt>
      <trkpt lat="47.48992" lon="-3.13869">
        <ele>15.190236</ele>
        <time>2021-12-01T11:29:18.000Z</time>
      </trkpt>
      <trkpt lat="47.48985" lon="-3.13851">
        <ele>15.522619</ele>
        <time>2021-12-01T11:29:21.000Z</time>
      </trkpt>
      <trkpt lat="47.48981" lon="-3.13839">
        <ele>15.738606</ele>
        <time>2021-12-01T11:29:23.000Z</time>
      </trkpt>
      <trkpt lat="47.48979" lon="-3.13834">
        <ele>15.828498</ele>
        <time>2021-12-01T11:29:24.000Z</time>
      </trkpt>
      <trkpt lat="47.48967" lon="-3.13807">
        <ele>16.338451</ele>
        <time>2021-12-01T11:29:29.000Z</time>
      </trkpt>
      <trkpt lat="47.48962" lon="-3.13798">
        <ele>16.526137</ele>
        <time>2021-12-01T11:29:31.000Z</time>
      </trkpt>
      <trkpt lat="47.48957" lon="-3.13788">
        <ele>16.740168</ele>
        <time>2021-12-01T11:29:33.000Z</time>
      </trkpt>
      <trkpt lat="47.48948" lon="-3.13783">
        <ele>16.948695</ele>
        <time>2021-12-01T11:29:35.000Z</time>
      </trkpt>
      <trkpt lat="47.48939" lon="-3.13784">
        <ele>17.168179</ele>
        <time>2021-12-01T11:29:37.000Z</time>
      </trkpt>
      <trkpt lat="47.48929" lon="-3.13789">
        <ele>17.429255</ele>
        <time>2021-12-01T11:29:39.000Z</time>
      </trkpt>
      <trkpt lat="47.4891" lon="-3.13801">
        <ele>17.898446</ele>
        <time>2021-12-01T11:29:43.000Z</time>
      </trkpt>
      <trkpt lat="47.48902" lon="-3.1381">
        <ele>18.135835</ele>
        <time>2021-12-01T11:29:45.000Z</time>
      </trkpt>
      <trkpt lat="47.48895" lon="-3.13818">
        <ele>18.348297</ele>
        <time>2021-12-01T11:29:47.000Z</time>
      </trkpt>
      <trkpt lat="47.48886" lon="-3.13822">
        <ele>18.567422</ele>
        <time>2021-12-01T11:29:49.000Z</time>
      </trkpt>
      <trkpt lat="47.48854" lon="-3.13841">
        <ele>19.376708</ele>
        <time>2021-12-01T11:29:57.000Z</time>
      </trkpt>
      <trkpt lat="47.48849" lon="-3.13842">
        <ele>19.408882</ele>
        <time>2021-12-01T11:29:58.000Z</time>
      </trkpt>
      <trkpt lat="47.48827" lon="-3.13854">
        <ele>19.575079</ele>
        <time>2021-12-01T11:30:03.000Z</time>
      </trkpt>
      <trkpt lat="47.48817" lon="-3.13858">
        <ele>19.650697</ele>
        <time>2021-12-01T11:30:05.000Z</time>
      </trkpt>
      <trkpt lat="47.48784" lon="-3.13879">
        <ele>19.907324</ele>
        <time>2021-12-01T11:30:12.000Z</time>
      </trkpt>
      <trkpt lat="47.48745" lon="-3.13913">
        <ele>20.226208</ele>
        <time>2021-12-01T11:30:20.000Z</time>
      </trkpt>
      <trkpt lat="47.48716" lon="-3.13944">
        <ele>20.48424</ele>
        <time>2021-12-01T11:30:27.000Z</time>
      </trkpt>
      <trkpt lat="47.48706" lon="-3.13953">
        <ele>20.566747</ele>
        <time>2021-12-01T11:30:29.000Z</time>
      </trkpt>
      <trkpt lat="47.48698" lon="-3.13961">
        <ele>20.633557</ele>
        <time>2021-12-01T11:30:31.000Z</time>
      </trkpt>
      <trkpt lat="47.48688" lon="-3.13969">
        <ele>20.496273</ele>
        <time>2021-12-01T11:30:33.000Z</time>
      </trkpt>
      <trkpt lat="47.48684" lon="-3.13972">
        <ele>20.410011</ele>
        <time>2021-12-01T11:30:34.000Z</time>
      </trkpt>
      <trkpt lat="47.48664" lon="-3.13978">
        <ele>20.059787</ele>
        <time>2021-12-01T11:30:38.000Z</time>
      </trkpt>
      <trkpt lat="47.48625" lon="-3.13977">
        <ele>19.36877</ele>
        <time>2021-12-01T11:30:46.000Z</time>
      </trkpt>
      <trkpt lat="47.48613" lon="-3.13977">
        <ele>19.160168</ele>
        <time>2021-12-01T11:30:48.000Z</time>
      </trkpt>
      <trkpt lat="47.48604" lon="-3.13972">
        <ele>18.984379</ele>
        <time>2021-12-01T11:30:50.000Z</time>
      </trkpt>
      <trkpt lat="47.48597" lon="-3.13957">
        <ele>18.77047</ele>
        <time>2021-12-01T11:30:52.000Z</time>
      </trkpt>
      <trkpt lat="47.48594" lon="-3.1395">
        <ele>18.66815</ele>
        <time>2021-12-01T11:30:53.000Z</time>
      </trkpt>
      <trkpt lat="47.48578" lon="-3.13911">
        <ele>18.116663</ele>
        <time>2021-12-01T11:30:58.000Z</time>
      </trkpt>
      <trkpt lat="47.48575" lon="-3.13904">
        <ele>18.022481</ele>
        <time>2021-12-01T11:30:59.000Z</time>
      </trkpt>
      <trkpt lat="47.4856" lon="-3.13861">
        <ele>17.465219</ele>
        <time>2021-12-01T11:31:04.000Z</time>
      </trkpt>
      <trkpt lat="47.48552" lon="-3.13843">
        <ele>17.403768</ele>
        <time>2021-12-01T11:31:06.000Z</time>
      </trkpt>
      <trkpt lat="47.48538" lon="-3.13802">
        <ele>17.270354</ele>
        <time>2021-12-01T11:31:11.000Z</time>
      </trkpt>
      <trkpt lat="47.48529" lon="-3.13742">
        <ele>17.08865</ele>
        <time>2021-12-01T11:31:18.000Z</time>
      </trkpt>
      <trkpt lat="47.48519" lon="-3.13661">
        <ele>16.850779</ele>
        <time>2021-12-01T11:31:27.000Z</time>
      </trkpt>
      <trkpt lat="47.48516" lon="-3.13646">
        <ele>16.802954</ele>
        <time>2021-12-01T11:31:29.000Z</time>
      </trkpt>
      <trkpt lat="47.48498" lon="-3.13599">
        <ele>16.880885</ele>
        <time>2021-12-01T11:31:35.000Z</time>
      </trkpt>
      <trkpt lat="47.48474" lon="-3.13556">
        <ele>17.47866</ele>
        <time>2021-12-01T11:31:42.000Z</time>
      </trkpt>
      <trkpt lat="47.4846" lon="-3.1353">
        <ele>17.83401</ele>
        <time>2021-12-01T11:31:47.000Z</time>
      </trkpt>
      <trkpt lat="47.48458" lon="-3.13525">
        <ele>17.89707</ele>
        <time>2021-12-01T11:31:48.000Z</time>
      </trkpt>
      <trkpt lat="47.48453" lon="-3.13508">
        <ele>18.086951</ele>
        <time>2021-12-01T11:31:51.000Z</time>
      </trkpt>
      <trkpt lat="47.48451" lon="-3.13503">
        <ele>18.150721</ele>
        <time>2021-12-01T11:31:52.000Z</time>
      </trkpt>
      <trkpt lat="47.48447" lon="-3.13492">
        <ele>18.290477</ele>
        <time>2021-12-01T11:31:54.000Z</time>
      </trkpt>
      <trkpt lat="47.48444" lon="-3.13481">
        <ele>18.408739</ele>
        <time>2021-12-01T11:31:56.000Z</time>
      </trkpt>
      <trkpt lat="47.48442" lon="-3.13473">
        <ele>18.501459</ele>
        <time>2021-12-01T11:31:58.000Z</time>
      </trkpt>
      <trkpt lat="47.4844" lon="-3.13471">
        <ele>18.54795</ele>
        <time>2021-12-01T11:31:59.000Z</time>
      </trkpt>
      <trkpt lat="47.48437" lon="-3.13472">
        <ele>18.585923</ele>
        <time>2021-12-01T11:32:00.000Z</time>
      </trkpt>
      <trkpt lat="47.48433" lon="-3.13478">
        <ele>18.683412</ele>
        <time>2021-12-01T11:32:02.000Z</time>
      </trkpt>
      <trkpt lat="47.48417" lon="-3.13493">
        <ele>18.975819</ele>
        <time>2021-12-01T11:32:06.000Z</time>
      </trkpt>
      <trkpt lat="47.48413" lon="-3.13498">
        <ele>19.053504</ele>
        <time>2021-12-01T11:32:07.000Z</time>
      </trkpt>
      <trkpt lat="47.48409" lon="-3.13501">
        <ele>19.134019</ele>
        <time>2021-12-01T11:32:08.000Z</time>
      </trkpt>
      <trkpt lat="47.48399" lon="-3.13501">
        <ele>19.290841</ele>
        <time>2021-12-01T11:32:10.000Z</time>
      </trkpt>
      <trkpt lat="47.4838" lon="-3.13488">
        <ele>19.452712</ele>
        <time>2021-12-01T11:32:14.000Z</time>
      </trkpt>
      <trkpt lat="47.48375" lon="-3.13486">
        <ele>19.351051</ele>
        <time>2021-12-01T11:32:15.000Z</time>
      </trkpt>
      <trkpt lat="47.48366" lon="-3.13482">
        <ele>19.154458</ele>
        <time>2021-12-01T11:32:17.000Z</time>
      </trkpt>
      <trkpt lat="47.48353" lon="-3.1348">
        <ele>18.891216</ele>
        <time>2021-12-01T11:32:20.000Z</time>
      </trkpt>
      <trkpt lat="47.4835" lon="-3.13479">
        <ele>18.826465</ele>
        <time>2021-12-01T11:32:21.000Z</time>
      </trkpt>
      <trkpt lat="47.48347" lon="-3.13479">
        <ele>18.776447</ele>
        <time>2021-12-01T11:32:22.000Z</time>
      </trkpt>
      <trkpt lat="47.48343" lon="-3.1348">
        <ele>18.699565</ele>
        <time>2021-12-01T11:32:24.000Z</time>
      </trkpt>
      <trkpt lat="47.48329" lon="-3.13485">
        <ele>18.408267</ele>
        <time>2021-12-01T11:32:29.000Z</time>
      </trkpt>
      <trkpt lat="47.48325" lon="-3.13486">
        <ele>18.316918</ele>
        <time>2021-12-01T11:32:30.000Z</time>
      </trkpt>
      <trkpt lat="47.48304" lon="-3.1349">
        <ele>17.903086</ele>
        <time>2021-12-01T11:32:34.000Z</time>
      </trkpt>
      <trkpt lat="47.48271" lon="-3.13499">
        <ele>17.223597</ele>
        <time>2021-12-01T11:32:40.000Z</time>
      </trkpt>
      <trkpt lat="47.48265" lon="-3.13501">
        <ele>17.113302</ele>
        <time>2021-12-01T11:32:41.000Z</time>
      </trkpt>
      <trkpt lat="47.4824" lon="-3.13509">
        <ele>16.593345</ele>
        <time>2021-12-01T11:32:46.000Z</time>
      </trkpt>
      <trkpt lat="47.48235" lon="-3.13511">
        <ele>16.49143</ele>
        <time>2021-12-01T11:32:47.000Z</time>
      </trkpt>
      <trkpt lat="47.4822" lon="-3.13518">
        <ele>16.181092</ele>
        <time>2021-12-01T11:32:50.000Z</time>
      </trkpt>
      <trkpt lat="47.48199" lon="-3.13529">
        <ele>15.734708</ele>
        <time>2021-12-01T11:32:54.000Z</time>
      </trkpt>
      <trkpt lat="47.48182" lon="-3.13541">
        <ele>15.349905</ele>
        <time>2021-12-01T11:32:57.000Z</time>
      </trkpt>
      <trkpt lat="47.48171" lon="-3.13549">
        <ele>15.089764</ele>
        <time>2021-12-01T11:32:59.000Z</time>
      </trkpt>
      <trkpt lat="47.48133" lon="-3.13576">
        <ele>14.232167</ele>
        <time>2021-12-01T11:33:06.000Z</time>
      </trkpt>
      <trkpt lat="47.48124" lon="-3.13585">
        <ele>14.002098</ele>
        <time>2021-12-01T11:33:08.000Z</time>
      </trkpt>
      <trkpt lat="47.48117" lon="-3.1359">
        <ele>13.851007</ele>
        <time>2021-12-01T11:33:10.000Z</time>
      </trkpt>
      <trkpt lat="47.48105" lon="-3.13596">
        <ele>13.597692</ele>
        <time>2021-12-01T11:33:14.000Z</time>
      </trkpt>
      <trkpt lat="47.4809" lon="-3.13588">
        <ele>13.261378</ele>
        <time>2021-12-01T11:33:18.000Z</time>
      </trkpt>
      <trkpt lat="47.48065" lon="-3.13562">
        <ele>12.6468</ele>
        <time>2021-12-01T11:33:24.000Z</time>
      </trkpt>
      <trkpt lat="47.48058" lon="-3.13552">
        <ele>12.431355</ele>
        <time>2021-12-01T11:33:26.000Z</time>
      </trkpt>
      <trkpt lat="47.48046" lon="-3.13537">
        <ele>12.096065</ele>
        <time>2021-12-01T11:33:29.000Z</time>
      </trkpt>
      <trkpt lat="47.48042" lon="-3.13532">
        <ele>11.979577</ele>
        <time>2021-12-01T11:33:30.000Z</time>
      </trkpt>
      <trkpt lat="47.48016" lon="-3.1349">
        <ele>11.101347</ele>
        <time>2021-12-01T11:33:38.000Z</time>
      </trkpt>
      <trkpt lat="47.47991" lon="-3.13448">
        <ele>10.228443</ele>
        <time>2021-12-01T11:33:45.000Z</time>
      </trkpt>
      <trkpt lat="47.47984" lon="-3.13439">
        <ele>10.026486</ele>
        <time>2021-12-01T11:33:47.000Z</time>
      </trkpt>
      <trkpt lat="47.47976" lon="-3.13433">
        <ele>9.816278</ele>
        <time>2021-12-01T11:33:49.000Z</time>
      </trkpt>
      <trkpt lat="47.47973" lon="-3.13434">
        <ele>9.743887</ele>
        <time>2021-12-01T11:33:50.000Z</time>
      </trkpt>
      <trkpt lat="47.47969" lon="-3.13436">
        <ele>9.649003</ele>
        <time>2021-12-01T11:33:51.000Z</time>
      </trkpt>
      <trkpt lat="47.4796" lon="-3.13449">
        <ele>9.364403</ele>
        <time>2021-12-01T11:33:54.000Z</time>
      </trkpt>
      <trkpt lat="47.47957" lon="-3.13453">
        <ele>9.266934</ele>
        <time>2021-12-01T11:33:55.000Z</time>
      </trkpt>
      <trkpt lat="47.47953" lon="-3.13458">
        <ele>9.150911</ele>
        <time>2021-12-01T11:33:56.000Z</time>
      </trkpt>
      <trkpt lat="47.47938" lon="-3.13478">
        <ele>8.698396</ele>
        <time>2021-12-01T11:34:01.000Z</time>
      </trkpt>
      <trkpt lat="47.47927" lon="-3.13496">
        <ele>8.327609</ele>
        <time>2021-12-01T11:34:06.000Z</time>
      </trkpt>
      <trkpt lat="47.47926" lon="-3.13499">
        <ele>8.265519</ele>
        <time>2021-12-01T11:34:07.000Z</time>
      </trkpt>
      <trkpt lat="47.47926" lon="-3.13503">
        <ele>8.204145</ele>
        <time>2021-12-01T11:34:08.000Z</time>
      </trkpt>
      <trkpt lat="47.47924" lon="-3.13505">
        <ele>8.166957</ele>
        <time>2021-12-01T11:34:09.000Z</time>
      </trkpt>
      <trkpt lat="47.47922" lon="-3.13505">
        <ele>8.155148</ele>
        <time>2021-12-01T11:34:11.000Z</time>
      </trkpt>
      <trkpt lat="47.47921" lon="-3.13503">
        <ele>8.145027</ele>
        <time>2021-12-01T11:34:13.000Z</time>
      </trkpt>
      <trkpt lat="47.47919" lon="-3.13503">
        <ele>8.133787</ele>
        <time>2021-12-01T11:34:17.000Z</time>
      </trkpt>
      <trkpt lat="47.47918" lon="-3.13504">
        <ele>8.129864</ele>
        <time>2021-12-01T11:34:18.000Z</time>
      </trkpt>
      <trkpt lat="47.47917" lon="-3.13506">
        <ele>8.119402</ele>
        <time>2021-12-01T11:34:20.000Z</time>
      </trkpt>
      <trkpt lat="47.47916" lon="-3.1351">
        <ele>8.106401</ele>
        <time>2021-12-01T11:34:22.000Z</time>
      </trkpt>
      <trkpt lat="47.47915" lon="-3.13512">
        <ele>8.095049</ele>
        <time>2021-12-01T11:34:26.000Z</time>
      </trkpt>
      <trkpt lat="47.47916" lon="-3.1351">
        <ele>8.084434</ele>
        <time>2021-12-01T11:35:30.000Z</time>
      </trkpt>
      <trkpt lat="47.47916" lon="-3.13508">
        <ele>8.078961</ele>
        <time>2021-12-01T11:35:31.000Z</time>
      </trkpt>
      <trkpt lat="47.47917" lon="-3.13507">
        <ele>8.072691</ele>
        <time>2021-12-01T11:35:32.000Z</time>
      </trkpt>
      <trkpt lat="47.47919" lon="-3.13503">
        <ele>8.056527</ele>
        <time>2021-12-01T11:35:35.000Z</time>
      </trkpt>
      <trkpt lat="47.47919" lon="-3.13501">
        <ele>8.050024</ele>
        <time>2021-12-01T11:35:37.000Z</time>
      </trkpt>
      <trkpt lat="47.47918" lon="-3.13499">
        <ele>8.040612</ele>
        <time>2021-12-01T11:35:39.000Z</time>
      </trkpt>
      <trkpt lat="47.47914" lon="-3.13492">
        <ele>8.00609</ele>
        <time>2021-12-01T11:35:42.000Z</time>
      </trkpt>
      <trkpt lat="47.47898" lon="-3.13473">
        <ele>7.896566</ele>
        <time>2021-12-01T11:35:47.000Z</time>
      </trkpt>
      <trkpt lat="47.4787" lon="-3.13444">
        <ele>7.717743</ele>
        <time>2021-12-01T11:35:54.000Z</time>
      </trkpt>
      <trkpt lat="47.47834" lon="-3.13405">
        <ele>7.478328</ele>
        <time>2021-12-01T11:36:02.000Z</time>
      </trkpt>
      <trkpt lat="47.47788" lon="-3.13354">
        <ele>7.208388</ele>
        <time>2021-12-01T11:36:12.000Z</time>
      </trkpt>
      <trkpt lat="47.47754" lon="-3.13318">
        <ele>7.201913</ele>
        <time>2021-12-01T11:36:20.000Z</time>
      </trkpt>
      <trkpt lat="47.47713" lon="-3.13281">
        <ele>7.194538</ele>
        <time>2021-12-01T11:36:28.000Z</time>
      </trkpt>
      <trkpt lat="47.47668" lon="-3.13258">
        <ele>7.187093</ele>
        <time>2021-12-01T11:36:36.000Z</time>
      </trkpt>
      <trkpt lat="47.47615" lon="-3.13237">
        <ele>7.216097</ele>
        <time>2021-12-01T11:36:45.000Z</time>
      </trkpt>
      <trkpt lat="47.47609" lon="-3.13234">
        <ele>7.22668</ele>
        <time>2021-12-01T11:36:46.000Z</time>
      </trkpt>
      <trkpt lat="47.47557" lon="-3.13207">
        <ele>7.324086</ele>
        <time>2021-12-01T11:36:55.000Z</time>
      </trkpt>
      <trkpt lat="47.47532" lon="-3.13176">
        <ele>7.381267</ele>
        <time>2021-12-01T11:37:01.000Z</time>
      </trkpt>
      <trkpt lat="47.4751" lon="-3.13133">
        <ele>7.446396</ele>
        <time>2021-12-01T11:37:08.000Z</time>
      </trkpt>
      <trkpt lat="47.47499" lon="-3.13098">
        <ele>7.491902</ele>
        <time>2021-12-01T11:37:13.000Z</time>
      </trkpt>
      <trkpt lat="47.47497" lon="-3.13085">
        <ele>7.503042</ele>
        <time>2021-12-01T11:37:15.000Z</time>
      </trkpt>
      <trkpt lat="47.47493" lon="-3.13024">
        <ele>7.537405</ele>
        <time>2021-12-01T11:37:23.000Z</time>
      </trkpt>
      <trkpt lat="47.47495" lon="-3.13002">
        <ele>7.549493</ele>
        <time>2021-12-01T11:37:26.000Z</time>
      </trkpt>
      <trkpt lat="47.47498" lon="-3.1299">
        <ele>7.556736</ele>
        <time>2021-12-01T11:37:28.000Z</time>
      </trkpt>
      <trkpt lat="47.475" lon="-3.12982">
        <ele>7.561416</ele>
        <time>2021-12-01T11:37:30.000Z</time>
      </trkpt>
      <trkpt lat="47.475" lon="-3.12979">
        <ele>7.563395</ele>
        <time>2021-12-01T11:37:31.000Z</time>
      </trkpt>
      <trkpt lat="47.47497" lon="-3.12976">
        <ele>7.56635</ele>
        <time>2021-12-01T11:37:33.000Z</time>
      </trkpt>
      <trkpt lat="47.47493" lon="-3.12976">
        <ele>7.569077</ele>
        <time>2021-12-01T11:37:35.000Z</time>
      </trkpt>
      <trkpt lat="47.47491" lon="-3.12977">
        <ele>7.570857</ele>
        <time>2021-12-01T11:37:36.000Z</time>
      </trkpt>
      <trkpt lat="47.47489" lon="-3.12981">
        <ele>7.57355</ele>
        <time>2021-12-01T11:37:38.000Z</time>
      </trkpt>
      <trkpt lat="47.47489" lon="-3.12984">
        <ele>7.575348</ele>
        <time>2021-12-01T11:37:39.000Z</time>
      </trkpt>
      <trkpt lat="47.47487" lon="-3.12992">
        <ele>7.580079</ele>
        <time>2021-12-01T11:37:42.000Z</time>
      </trkpt>
      <trkpt lat="47.47487" lon="-3.12992">
        <ele>7.580333</ele>
        <time>2021-12-01T11:37:43.000Z</time>
      </trkpt>
      <trkpt lat="47.47485" lon="-3.12992">
        <ele>7.581904</ele>
        <time>2021-12-01T11:37:48.000Z</time>
      </trkpt>
      <trkpt lat="47.47486" lon="-3.12989">
        <ele>7.583885</ele>
        <time>2021-12-01T11:38:22.000Z</time>
      </trkpt>
      <trkpt lat="47.47488" lon="-3.12982">
        <ele>7.587987</ele>
        <time>2021-12-01T11:38:24.000Z</time>
      </trkpt>
      <trkpt lat="47.4749" lon="-3.12976">
        <ele>7.591655</ele>
        <time>2021-12-01T11:38:26.000Z</time>
      </trkpt>
      <trkpt lat="47.47497" lon="-3.12966">
        <ele>7.599567</ele>
        <time>2021-12-01T11:38:29.000Z</time>
      </trkpt>
      <trkpt lat="47.47518" lon="-3.12944">
        <ele>7.620756</ele>
        <time>2021-12-01T11:38:37.000Z</time>
      </trkpt>
      <trkpt lat="47.47527" lon="-3.12928">
        <ele>7.632298</ele>
        <time>2021-12-01T11:38:42.000Z</time>
      </trkpt>
      <trkpt lat="47.47533" lon="-3.12907">
        <ele>7.645208</ele>
        <time>2021-12-01T11:38:49.000Z</time>
      </trkpt>
      <trkpt lat="47.47539" lon="-3.12871">
        <ele>7.631543</ele>
        <time>2021-12-01T11:38:58.000Z</time>
      </trkpt>
      <trkpt lat="47.47546" lon="-3.12827">
        <ele>7.610525</ele>
        <time>2021-12-01T11:39:06.000Z</time>
      </trkpt>
      <trkpt lat="47.4755" lon="-3.12808">
        <ele>7.601347</ele>
        <time>2021-12-01T11:39:09.000Z</time>
      </trkpt>
      <trkpt lat="47.47556" lon="-3.12795">
        <ele>7.594144</ele>
        <time>2021-12-01T11:39:11.000Z</time>
      </trkpt>
      <trkpt lat="47.47564" lon="-3.12787">
        <ele>7.587788</ele>
        <time>2021-12-01T11:39:13.000Z</time>
      </trkpt>
      <trkpt lat="47.47574" lon="-3.12782">
        <ele>7.580672</ele>
        <time>2021-12-01T11:39:15.000Z</time>
      </trkpt>
      <trkpt lat="47.47611" lon="-3.12759">
        <ele>7.553294</ele>
        <time>2021-12-01T11:39:23.000Z</time>
      </trkpt>
      <trkpt lat="47.47657" lon="-3.12732">
        <ele>7.523762</ele>
        <time>2021-12-01T11:39:33.000Z</time>
      </trkpt>
      <trkpt lat="47.47696" lon="-3.12703">
        <ele>7.51904</ele>
        <time>2021-12-01T11:39:42.000Z</time>
      </trkpt>
      <trkpt lat="47.477" lon="-3.127">
        <ele>7.518537</ele>
        <time>2021-12-01T11:39:43.000Z</time>
      </trkpt>
      <trkpt lat="47.47711" lon="-3.1269">
        <ele>7.517158</ele>
        <time>2021-12-01T11:39:46.000Z</time>
      </trkpt>
      <trkpt lat="47.47717" lon="-3.1268">
        <ele>7.516241</ele>
        <time>2021-12-01T11:39:48.000Z</time>
      </trkpt>
      <trkpt lat="47.47726" lon="-3.12653">
        <ele>7.513992</ele>
        <time>2021-12-01T11:39:52.000Z</time>
      </trkpt>
      <trkpt lat="47.4773" lon="-3.12646">
        <ele>7.513348</ele>
        <time>2021-12-01T11:39:53.000Z</time>
      </trkpt>
      <trkpt lat="47.47735" lon="-3.1264">
        <ele>7.512697</ele>
        <time>2021-12-01T11:39:54.000Z</time>
      </trkpt>
      <trkpt lat="47.47745" lon="-3.12629">
        <ele>7.5113</ele>
        <time>2021-12-01T11:39:56.000Z</time>
      </trkpt>
      <trkpt lat="47.4775" lon="-3.12627">
        <ele>7.510807</ele>
        <time>2021-12-01T11:39:57.000Z</time>
      </trkpt>
      <trkpt lat="47.4776" lon="-3.12622">
        <ele>7.509683</ele>
        <time>2021-12-01T11:39:59.000Z</time>
      </trkpt>
      <trkpt lat="47.47777" lon="-3.12612">
        <ele>7.507706</ele>
        <time>2021-12-01T11:40:03.000Z</time>
      </trkpt>
      <trkpt lat="47.47781" lon="-3.12608">
        <ele>7.507189</ele>
        <time>2021-12-01T11:40:04.000Z</time>
      </trkpt>
      <trkpt lat="47.47786" lon="-3.12601">
        <ele>7.506395</ele>
        <time>2021-12-01T11:40:06.000Z</time>
      </trkpt>
      <trkpt lat="47.47792" lon="-3.12592">
        <ele>7.505542</ele>
        <time>2021-12-01T11:40:08.000Z</time>
      </trkpt>
      <trkpt lat="47.47808" lon="-3.12563">
        <ele>7.46017</ele>
        <time>2021-12-01T11:40:15.000Z</time>
      </trkpt>
      <trkpt lat="47.47814" lon="-3.12551">
        <ele>7.437925</ele>
        <time>2021-12-01T11:40:19.000Z</time>
      </trkpt>
      <trkpt lat="47.47815" lon="-3.12547">
        <ele>7.432559</ele>
        <time>2021-12-01T11:40:20.000Z</time>
      </trkpt>
      <trkpt lat="47.47822" lon="-3.12529">
        <ele>7.40342</ele>
        <time>2021-12-01T11:40:25.000Z</time>
      </trkpt>
      <trkpt lat="47.47827" lon="-3.12504">
        <ele>7.366839</ele>
        <time>2021-12-01T11:40:30.000Z</time>
      </trkpt>
      <trkpt lat="47.47833" lon="-3.12469">
        <ele>7.317117</ele>
        <time>2021-12-01T11:40:36.000Z</time>
      </trkpt>
      <trkpt lat="47.47842" lon="-3.12418">
        <ele>7.24373</ele>
        <time>2021-12-01T11:40:45.000Z</time>
      </trkpt>
      <trkpt lat="47.47846" lon="-3.12398">
        <ele>7.213234</ele>
        <time>2021-12-01T11:40:49.000Z</time>
      </trkpt>
      <trkpt lat="47.4785" lon="-3.12372">
        <ele>7.176994</ele>
        <time>2021-12-01T11:40:54.000Z</time>
      </trkpt>
      <trkpt lat="47.47851" lon="-3.12363">
        <ele>7.163535</ele>
        <time>2021-12-01T11:40:56.000Z</time>
      </trkpt>
      <trkpt lat="47.47855" lon="-3.12358">
        <ele>7.15332</ele>
        <time>2021-12-01T11:40:58.000Z</time>
      </trkpt>
      <trkpt lat="47.4787" lon="-3.12362">
        <ele>7.138338</ele>
        <time>2021-12-01T11:41:03.000Z</time>
      </trkpt>
      <trkpt lat="47.47881" lon="-3.12367">
        <ele>7.147081</ele>
        <time>2021-12-01T11:41:08.000Z</time>
      </trkpt>
      <trkpt lat="47.47882" lon="-3.12367">
        <ele>7.147556</ele>
        <time>2021-12-01T11:41:10.000Z</time>
      </trkpt>
      <trkpt lat="47.47882" lon="-3.12367">
        <ele>7.147556</ele>
        <time>2021-12-01T11:41:12.000Z</time>
      </trkpt>
      <trkpt lat="47.47884" lon="-3.12362">
        <ele>7.150907</ele>
        <time>2021-12-01T11:42:01.000Z</time>
      </trkpt>
      <trkpt lat="47.47891" lon="-3.12344">
        <ele>7.162181</ele>
        <time>2021-12-01T11:42:06.000Z</time>
      </trkpt>
      <trkpt lat="47.47898" lon="-3.12317">
        <ele>7.177398</ele>
        <time>2021-12-01T11:42:11.000Z</time>
      </trkpt>
      <trkpt lat="47.47918" lon="-3.1227">
        <ele>7.207126</ele>
        <time>2021-12-01T11:42:20.000Z</time>
      </trkpt>
      <trkpt lat="47.47936" lon="-3.1224">
        <ele>7.228312</ele>
        <time>2021-12-01T11:42:26.000Z</time>
      </trkpt>
      <trkpt lat="47.47939" lon="-3.12235">
        <ele>7.231686</ele>
        <time>2021-12-01T11:42:27.000Z</time>
      </trkpt>
      <trkpt lat="47.47964" lon="-3.12198">
        <ele>7.259412</ele>
        <time>2021-12-01T11:42:35.000Z</time>
      </trkpt>
      <trkpt lat="47.47974" lon="-3.12184">
        <ele>7.270575</ele>
        <time>2021-12-01T11:42:38.000Z</time>
      </trkpt>
      <trkpt lat="47.47994" lon="-3.12158">
        <ele>7.169375</ele>
        <time>2021-12-01T11:42:45.000Z</time>
      </trkpt>
      <trkpt lat="47.48002" lon="-3.12141">
        <ele>7.098477</ele>
        <time>2021-12-01T11:42:50.000Z</time>
      </trkpt>
      <trkpt lat="47.47997" lon="-3.12132">
        <ele>7.057172</ele>
        <time>2021-12-01T11:42:53.000Z</time>
      </trkpt>
      <trkpt lat="47.47989" lon="-3.12119">
        <ele>6.995419</ele>
        <time>2021-12-01T11:42:57.000Z</time>
      </trkpt>
      <trkpt lat="47.47982" lon="-3.12111">
        <ele>6.952331</ele>
        <time>2021-12-01T11:43:00.000Z</time>
      </trkpt>
      <trkpt lat="47.47974" lon="-3.12093">
        <ele>6.878928</ele>
        <time>2021-12-01T11:43:05.000Z</time>
      </trkpt>
      <trkpt lat="47.47969" lon="-3.12067">
        <ele>6.78583</ele>
        <time>2021-12-01T11:43:10.000Z</time>
      </trkpt>
      <trkpt lat="47.47958" lon="-3.12012">
        <ele>6.587338</ele>
        <time>2021-12-01T11:43:19.000Z</time>
      </trkpt>
      <trkpt lat="47.47948" lon="-3.11957">
        <ele>6.391845</ele>
        <time>2021-12-01T11:43:27.000Z</time>
      </trkpt>
      <trkpt lat="47.47938" lon="-3.11888">
        <ele>6.609185</ele>
        <time>2021-12-01T11:43:37.000Z</time>
      </trkpt>
      <trkpt lat="47.47933" lon="-3.11841">
        <ele>6.801275</ele>
        <time>2021-12-01T11:43:44.000Z</time>
      </trkpt>
      <trkpt lat="47.47934" lon="-3.11834">
        <ele>6.829293</ele>
        <time>2021-12-01T11:43:45.000Z</time>
      </trkpt>
      <trkpt lat="47.47934" lon="-3.11828">
        <ele>6.856862</ele>
        <time>2021-12-01T11:43:46.000Z</time>
      </trkpt>
      <trkpt lat="47.47932" lon="-3.11814">
        <ele>6.912381</ele>
        <time>2021-12-01T11:43:48.000Z</time>
      </trkpt>
      <trkpt lat="47.4793" lon="-3.11808">
        <ele>6.94143</ele>
        <time>2021-12-01T11:43:49.000Z</time>
      </trkpt>
      <trkpt lat="47.47923" lon="-3.1179">
        <ele>7.022154</ele>
        <time>2021-12-01T11:43:52.000Z</time>
      </trkpt>
      <trkpt lat="47.47917" lon="-3.11781">
        <ele>7.074156</ele>
        <time>2021-12-01T11:43:54.000Z</time>
      </trkpt>
      <trkpt lat="47.47915" lon="-3.11775">
        <ele>7.101977</ele>
        <time>2021-12-01T11:43:55.000Z</time>
      </trkpt>
      <trkpt lat="47.47913" lon="-3.11769">
        <ele>7.129888</ele>
        <time>2021-12-01T11:43:56.000Z</time>
      </trkpt>
      <trkpt lat="47.47909" lon="-3.11755">
        <ele>7.188603</ele>
        <time>2021-12-01T11:43:58.000Z</time>
      </trkpt>
      <trkpt lat="47.47905" lon="-3.11742">
        <ele>7.248249</ele>
        <time>2021-12-01T11:44:00.000Z</time>
      </trkpt>
      <trkpt lat="47.47887" lon="-3.11695">
        <ele>7.44545</ele>
        <time>2021-12-01T11:44:07.000Z</time>
      </trkpt>
      <trkpt lat="47.47881" lon="-3.11682">
        <ele>7.461836</ele>
        <time>2021-12-01T11:44:09.000Z</time>
      </trkpt>
      <trkpt lat="47.47856" lon="-3.11616">
        <ele>7.539892</ele>
        <time>2021-12-01T11:44:18.000Z</time>
      </trkpt>
      <trkpt lat="47.47837" lon="-3.11565">
        <ele>7.600807</ele>
        <time>2021-12-01T11:44:25.000Z</time>
      </trkpt>
      <trkpt lat="47.47821" lon="-3.11529">
        <ele>7.64571</ele>
        <time>2021-12-01T11:44:30.000Z</time>
      </trkpt>
      <trkpt lat="47.47788" lon="-3.11466">
        <ele>7.74199</ele>
        <time>2021-12-01T11:44:39.000Z</time>
      </trkpt>
      <trkpt lat="47.47757" lon="-3.11407">
        <ele>7.893503</ele>
        <time>2021-12-01T11:44:48.000Z</time>
      </trkpt>
      <trkpt lat="47.47726" lon="-3.1135">
        <ele>8.04213</ele>
        <time>2021-12-01T11:44:57.000Z</time>
      </trkpt>
      <trkpt lat="47.47696" lon="-3.11321">
        <ele>8.151872</ele>
        <time>2021-12-01T11:45:03.000Z</time>
      </trkpt>
      <trkpt lat="47.47676" lon="-3.11305">
        <ele>8.218811</ele>
        <time>2021-12-01T11:45:07.000Z</time>
      </trkpt>
      <trkpt lat="47.47636" lon="-3.11269">
        <ele>8.196815</ele>
        <time>2021-12-01T11:45:15.000Z</time>
      </trkpt>
      <trkpt lat="47.47627" lon="-3.1126">
        <ele>8.177367</ele>
        <time>2021-12-01T11:45:17.000Z</time>
      </trkpt>
      <trkpt lat="47.47618" lon="-3.11249">
        <ele>8.157499</ele>
        <time>2021-12-01T11:45:19.000Z</time>
      </trkpt>
      <trkpt lat="47.47605" lon="-3.11232">
        <ele>8.127028</ele>
        <time>2021-12-01T11:45:22.000Z</time>
      </trkpt>
      <trkpt lat="47.47565" lon="-3.11175">
        <ele>8.030455</ele>
        <time>2021-12-01T11:45:31.000Z</time>
      </trkpt>
      <trkpt lat="47.4756" lon="-3.11169">
        <ele>8.019373</ele>
        <time>2021-12-01T11:45:32.000Z</time>
      </trkpt>
      <trkpt lat="47.47519" lon="-3.11126">
        <ele>7.970642</ele>
        <time>2021-12-01T11:45:40.000Z</time>
      </trkpt>
      <trkpt lat="47.47513" lon="-3.11123">
        <ele>7.995826</ele>
        <time>2021-12-01T11:45:41.000Z</time>
      </trkpt>
      <trkpt lat="47.47477" lon="-3.11109">
        <ele>8.150596</ele>
        <time>2021-12-01T11:45:47.000Z</time>
      </trkpt>
      <trkpt lat="47.47429" lon="-3.1109">
        <ele>8.352299</ele>
        <time>2021-12-01T11:45:55.000Z</time>
      </trkpt>
      <trkpt lat="47.47401" lon="-3.11077">
        <ele>8.472388</ele>
        <time>2021-12-01T11:46:00.000Z</time>
      </trkpt>
      <trkpt lat="47.47391" lon="-3.11069">
        <ele>8.519373</ele>
        <time>2021-12-01T11:46:02.000Z</time>
      </trkpt>
      <trkpt lat="47.47378" lon="-3.11052">
        <ele>8.588087</ele>
        <time>2021-12-01T11:46:05.000Z</time>
      </trkpt>
      <trkpt lat="47.47367" lon="-3.11035">
        <ele>8.655889</ele>
        <time>2021-12-01T11:46:08.000Z</time>
      </trkpt>
      <trkpt lat="47.4734" lon="-3.10993">
        <ele>9.316211</ele>
        <time>2021-12-01T11:46:15.000Z</time>
      </trkpt>
      <trkpt lat="47.47328" lon="-3.10975">
        <ele>9.637509</ele>
        <time>2021-12-01T11:46:18.000Z</time>
      </trkpt>
      <trkpt lat="47.47298" lon="-3.10926">
        <ele>10.48473</ele>
        <time>2021-12-01T11:46:26.000Z</time>
      </trkpt>
      <trkpt lat="47.47291" lon="-3.10914">
        <ele>10.688769</ele>
        <time>2021-12-01T11:46:28.000Z</time>
      </trkpt>
      <trkpt lat="47.47286" lon="-3.10901">
        <ele>10.886018</ele>
        <time>2021-12-01T11:46:30.000Z</time>
      </trkpt>
      <trkpt lat="47.47285" lon="-3.10893">
        <ele>10.986949</ele>
        <time>2021-12-01T11:46:31.000Z</time>
      </trkpt>
      <trkpt lat="47.47285" lon="-3.10885">
        <ele>11.087428</ele>
        <time>2021-12-01T11:46:32.000Z</time>
      </trkpt>
      <trkpt lat="47.47287" lon="-3.1087">
        <ele>11.287993</ele>
        <time>2021-12-01T11:46:34.000Z</time>
      </trkpt>
      <trkpt lat="47.47288" lon="-3.10862">
        <ele>11.391042</ele>
        <time>2021-12-01T11:46:35.000Z</time>
      </trkpt>
      <trkpt lat="47.47291" lon="-3.10855">
        <ele>11.495887</ele>
        <time>2021-12-01T11:46:36.000Z</time>
      </trkpt>
      <trkpt lat="47.47297" lon="-3.10841">
        <ele>11.704945</ele>
        <time>2021-12-01T11:46:38.000Z</time>
      </trkpt>
      <trkpt lat="47.47304" lon="-3.10828">
        <ele>11.920087</ele>
        <time>2021-12-01T11:46:40.000Z</time>
      </trkpt>
      <trkpt lat="47.47314" lon="-3.10809">
        <ele>12.072124</ele>
        <time>2021-12-01T11:46:43.000Z</time>
      </trkpt>
      <trkpt lat="47.47343" lon="-3.10746">
        <ele>11.827075</ele>
        <time>2021-12-01T11:46:52.000Z</time>
      </trkpt>
      <trkpt lat="47.47369" lon="-3.10678">
        <ele>11.572234</ele>
        <time>2021-12-01T11:47:01.000Z</time>
      </trkpt>
      <trkpt lat="47.47394" lon="-3.10609">
        <ele>11.320315</ele>
        <time>2021-12-01T11:47:10.000Z</time>
      </trkpt>
      <trkpt lat="47.47399" lon="-3.10592">
        <ele>11.259078</ele>
        <time>2021-12-01T11:47:12.000Z</time>
      </trkpt>
      <trkpt lat="47.47411" lon="-3.10557">
        <ele>10.989646</ele>
        <time>2021-12-01T11:47:16.000Z</time>
      </trkpt>
      <trkpt lat="47.47414" lon="-3.10539">
        <ele>10.846995</ele>
        <time>2021-12-01T11:47:18.000Z</time>
      </trkpt>
      <trkpt lat="47.47417" lon="-3.10511">
        <ele>10.639724</ele>
        <time>2021-12-01T11:47:21.000Z</time>
      </trkpt>
      <trkpt lat="47.47418" lon="-3.10502">
        <ele>10.57107</ele>
        <time>2021-12-01T11:47:22.000Z</time>
      </trkpt>
      <trkpt lat="47.47417" lon="-3.10484">
        <ele>10.438142</ele>
        <time>2021-12-01T11:47:24.000Z</time>
      </trkpt>
      <trkpt lat="47.47415" lon="-3.10459">
        <ele>10.248691</ele>
        <time>2021-12-01T11:47:27.000Z</time>
      </trkpt>
      <trkpt lat="47.47413" lon="-3.10434">
        <ele>10.066761</ele>
        <time>2021-12-01T11:47:30.000Z</time>
      </trkpt>
      <trkpt lat="47.47398" lon="-3.10361">
        <ele>9.493708</ele>
        <time>2021-12-01T11:47:39.000Z</time>
      </trkpt>
      <trkpt lat="47.47381" lon="-3.10281">
        <ele>9.357619</ele>
        <time>2021-12-01T11:47:49.000Z</time>
      </trkpt>
      <trkpt lat="47.47379" lon="-3.10273">
        <ele>9.372881</ele>
        <time>2021-12-01T11:47:50.000Z</time>
      </trkpt>
      <trkpt lat="47.47377" lon="-3.10265">
        <ele>9.38868</ele>
        <time>2021-12-01T11:47:51.000Z</time>
      </trkpt>
      <trkpt lat="47.47368" lon="-3.10209">
        <ele>9.496102</ele>
        <time>2021-12-01T11:47:58.000Z</time>
      </trkpt>
      <trkpt lat="47.47356" lon="-3.10128">
        <ele>9.64852</ele>
        <time>2021-12-01T11:48:08.000Z</time>
      </trkpt>
      <trkpt lat="47.47345" lon="-3.10046">
        <ele>9.654416</ele>
        <time>2021-12-01T11:48:18.000Z</time>
      </trkpt>
      <trkpt lat="47.47343" lon="-3.09984">
        <ele>9.436211</ele>
        <time>2021-12-01T11:48:26.000Z</time>
      </trkpt>
      <trkpt lat="47.47344" lon="-3.09924">
        <ele>9.22783</ele>
        <time>2021-12-01T11:48:34.000Z</time>
      </trkpt>
      <trkpt lat="47.47349" lon="-3.09904">
        <ele>9.153683</ele>
        <time>2021-12-01T11:48:37.000Z</time>
      </trkpt>
      <trkpt lat="47.47349" lon="-3.09889">
        <ele>9.100407</ele>
        <time>2021-12-01T11:48:39.000Z</time>
      </trkpt>
      <trkpt lat="47.4735" lon="-3.09854">
        <ele>8.978836</ele>
        <time>2021-12-01T11:48:43.000Z</time>
      </trkpt>
      <trkpt lat="47.47351" lon="-3.09845">
        <ele>8.946424</ele>
        <time>2021-12-01T11:48:44.000Z</time>
      </trkpt>
      <trkpt lat="47.47352" lon="-3.09817">
        <ele>8.848638</ele>
        <time>2021-12-01T11:48:47.000Z</time>
      </trkpt>
      <trkpt lat="47.47353" lon="-3.09799">
        <ele>8.844982</ele>
        <time>2021-12-01T11:48:49.000Z</time>
      </trkpt>
      <trkpt lat="47.47359" lon="-3.09727">
        <ele>9.029618</ele>
        <time>2021-12-01T11:48:57.000Z</time>
      </trkpt>
      <trkpt lat="47.47366" lon="-3.09662">
        <ele>9.197616</ele>
        <time>2021-12-01T11:49:05.000Z</time>
      </trkpt>
      <trkpt lat="47.47373" lon="-3.09583">
        <ele>9.400021</ele>
        <time>2021-12-01T11:49:14.000Z</time>
      </trkpt>
      <trkpt lat="47.47376" lon="-3.09546">
        <ele>9.4932</ele>
        <time>2021-12-01T11:49:18.000Z</time>
      </trkpt>
      <trkpt lat="47.47378" lon="-3.09518">
        <ele>9.364215</ele>
        <time>2021-12-01T11:49:21.000Z</time>
      </trkpt>
      <trkpt lat="47.47384" lon="-3.09455">
        <ele>9.056333</ele>
        <time>2021-12-01T11:49:28.000Z</time>
      </trkpt>
      <trkpt lat="47.47388" lon="-3.09401">
        <ele>8.791991</ele>
        <time>2021-12-01T11:49:34.000Z</time>
      </trkpt>
      <trkpt lat="47.47392" lon="-3.09355">
        <ele>8.56847</ele>
        <time>2021-12-01T11:49:39.000Z</time>
      </trkpt>
      <trkpt lat="47.47395" lon="-3.09312">
        <ele>8.360317</ele>
        <time>2021-12-01T11:49:44.000Z</time>
      </trkpt>
      <trkpt lat="47.47393" lon="-3.09296">
        <ele>8.281076</ele>
        <time>2021-12-01T11:49:46.000Z</time>
      </trkpt>
      <trkpt lat="47.47387" lon="-3.09281">
        <ele>8.190865</ele>
        <time>2021-12-01T11:49:48.000Z</time>
      </trkpt>
      <trkpt lat="47.4738" lon="-3.09267">
        <ele>8.039213</ele>
        <time>2021-12-01T11:49:50.000Z</time>
      </trkpt>
      <trkpt lat="47.4736" lon="-3.0922">
        <ele>7.562655</ele>
        <time>2021-12-01T11:49:56.000Z</time>
      </trkpt>
      <trkpt lat="47.4735" lon="-3.09196">
        <ele>7.317847</ele>
        <time>2021-12-01T11:49:59.000Z</time>
      </trkpt>
      <trkpt lat="47.47329" lon="-3.09147">
        <ele>6.814224</ele>
        <time>2021-12-01T11:50:05.000Z</time>
      </trkpt>
      <trkpt lat="47.47314" lon="-3.09115">
        <ele>6.48232</ele>
        <time>2021-12-01T11:50:09.000Z</time>
      </trkpt>
      <trkpt lat="47.47292" lon="-3.09065">
        <ele>5.964431</ele>
        <time>2021-12-01T11:50:16.000Z</time>
      </trkpt>
      <trkpt lat="47.47285" lon="-3.09052">
        <ele>5.950592</ele>
        <time>2021-12-01T11:50:18.000Z</time>
      </trkpt>
      <trkpt lat="47.47269" lon="-3.09015">
        <ele>6.117391</ele>
        <time>2021-12-01T11:50:24.000Z</time>
      </trkpt>
      <trkpt lat="47.47258" lon="-3.08984">
        <ele>6.250048</ele>
        <time>2021-12-01T11:50:30.000Z</time>
      </trkpt>
      <trkpt lat="47.47247" lon="-3.08952">
        <ele>6.384808</ele>
        <time>2021-12-01T11:50:37.000Z</time>
      </trkpt>
      <trkpt lat="47.47238" lon="-3.08944">
        <ele>6.443327</ele>
        <time>2021-12-01T11:50:41.000Z</time>
      </trkpt>
      <trkpt lat="47.47237" lon="-3.08943">
        <ele>6.448998</ele>
        <time>2021-12-01T11:50:44.000Z</time>
      </trkpt>
      <trkpt lat="47.47239" lon="-3.08946">
        <ele>6.46159</ele>
        <time>2021-12-01T11:51:56.000Z</time>
      </trkpt>
      <trkpt lat="47.47248" lon="-3.08955">
        <ele>6.523994</ele>
        <time>2021-12-01T11:52:01.000Z</time>
      </trkpt>
      <trkpt lat="47.47262" lon="-3.08976">
        <ele>6.634558</ele>
        <time>2021-12-01T11:52:07.000Z</time>
      </trkpt>
      <trkpt lat="47.47282" lon="-3.08998">
        <ele>6.773972</ele>
        <time>2021-12-01T11:52:13.000Z</time>
      </trkpt>
      <trkpt lat="47.47312" lon="-3.09031">
        <ele>6.930145</ele>
        <time>2021-12-01T11:52:21.000Z</time>
      </trkpt>
      <trkpt lat="47.4735" lon="-3.09068">
        <ele>6.964229</ele>
        <time>2021-12-01T11:52:30.000Z</time>
      </trkpt>
      <trkpt lat="47.47389" lon="-3.091">
        <ele>6.998161</ele>
        <time>2021-12-01T11:52:38.000Z</time>
      </trkpt>
      <trkpt lat="47.47408" lon="-3.09113">
        <ele>7.013731</ele>
        <time>2021-12-01T11:52:42.000Z</time>
      </trkpt>
      <trkpt lat="47.47412" lon="-3.09116">
        <ele>7.017483</ele>
        <time>2021-12-01T11:52:43.000Z</time>
      </trkpt>
      <trkpt lat="47.47423" lon="-3.09119">
        <ele>7.025541</ele>
        <time>2021-12-01T11:52:45.000Z</time>
      </trkpt>
      <trkpt lat="47.47467" lon="-3.09121">
        <ele>7.071228</ele>
        <time>2021-12-01T11:52:53.000Z</time>
      </trkpt>
      <trkpt lat="47.47511" lon="-3.09118">
        <ele>7.332344</ele>
        <time>2021-12-01T11:53:01.000Z</time>
      </trkpt>
      <trkpt lat="47.47553" lon="-3.09125">
        <ele>7.58267</ele>
        <time>2021-12-01T11:53:09.000Z</time>
      </trkpt>
      <trkpt lat="47.47598" lon="-3.09149">
        <ele>7.866486</ele>
        <time>2021-12-01T11:53:18.000Z</time>
      </trkpt>
      <trkpt lat="47.47602" lon="-3.09151">
        <ele>7.897092</ele>
        <time>2021-12-01T11:53:19.000Z</time>
      </trkpt>
      <trkpt lat="47.47632" lon="-3.09167">
        <ele>8.083182</ele>
        <time>2021-12-01T11:53:25.000Z</time>
      </trkpt>
      <trkpt lat="47.47651" lon="-3.09178">
        <ele>8.154818</ele>
        <time>2021-12-01T11:53:29.000Z</time>
      </trkpt>
      <trkpt lat="47.47662" lon="-3.09189">
        <ele>8.183226</ele>
        <time>2021-12-01T11:53:32.000Z</time>
      </trkpt>
      <trkpt lat="47.47674" lon="-3.09205">
        <ele>8.216523</ele>
        <time>2021-12-01T11:53:37.000Z</time>
      </trkpt>
      <trkpt lat="47.47676" lon="-3.09208">
        <ele>8.221201</ele>
        <time>2021-12-01T11:53:38.000Z</time>
      </trkpt>
      <trkpt lat="47.47678" lon="-3.09211">
        <ele>8.228134</ele>
        <time>2021-12-01T11:53:40.000Z</time>
      </trkpt>
      <trkpt lat="47.47678" lon="-3.09212">
        <ele>8.228999</ele>
        <time>2021-12-01T11:53:42.000Z</time>
      </trkpt>
      <trkpt lat="47.4768" lon="-3.09215">
        <ele>8.234856</ele>
        <time>2021-12-01T11:54:41.000Z</time>
      </trkpt>
      <trkpt lat="47.47684" lon="-3.09223">
        <ele>8.248704</ele>
        <time>2021-12-01T11:54:43.000Z</time>
      </trkpt>
      <trkpt lat="47.47689" lon="-3.09233">
        <ele>8.26587</ele>
        <time>2021-12-01T11:54:45.000Z</time>
      </trkpt>
      <trkpt lat="47.47695" lon="-3.09244">
        <ele>8.286458</ele>
        <time>2021-12-01T11:54:47.000Z</time>
      </trkpt>
      <trkpt lat="47.47721" lon="-3.09282">
        <ele>8.360958</ele>
        <time>2021-12-01T11:54:54.000Z</time>
      </trkpt>
      <trkpt lat="47.47729" lon="-3.09291">
        <ele>8.382851</ele>
        <time>2021-12-01T11:54:56.000Z</time>
      </trkpt>
      <trkpt lat="47.47752" lon="-3.0931">
        <ele>8.436856</ele>
        <time>2021-12-01T11:55:01.000Z</time>
      </trkpt>
      <trkpt lat="47.47795" lon="-3.0934">
        <ele>8.555863</ele>
        <time>2021-12-01T11:55:10.000Z</time>
      </trkpt>
      <trkpt lat="47.47842" lon="-3.09359">
        <ele>8.715372</ele>
        <time>2021-12-01T11:55:19.000Z</time>
      </trkpt>
      <trkpt lat="47.47878" lon="-3.09365">
        <ele>8.83276</ele>
        <time>2021-12-01T11:55:26.000Z</time>
      </trkpt>
      <trkpt lat="47.47923" lon="-3.09358">
        <ele>8.981653</ele>
        <time>2021-12-01T11:55:35.000Z</time>
      </trkpt>
      <trkpt lat="47.47937" lon="-3.09354">
        <ele>9.02918</ele>
        <time>2021-12-01T11:55:38.000Z</time>
      </trkpt>
      <trkpt lat="47.47961" lon="-3.09345">
        <ele>9.077708</ele>
        <time>2021-12-01T11:55:43.000Z</time>
      </trkpt>
      <trkpt lat="47.48008" lon="-3.09336">
        <ele>8.993756</ele>
        <time>2021-12-01T11:55:52.000Z</time>
      </trkpt>
      <trkpt lat="47.4804" lon="-3.09344">
        <ele>8.93522</ele>
        <time>2021-12-01T11:55:58.000Z</time>
      </trkpt>
      <trkpt lat="47.48045" lon="-3.09347">
        <ele>8.925297</ele>
        <time>2021-12-01T11:55:59.000Z</time>
      </trkpt>
      <trkpt lat="47.4807" lon="-3.09368">
        <ele>8.874829</ele>
        <time>2021-12-01T11:56:04.000Z</time>
      </trkpt>
      <trkpt lat="47.48097" lon="-3.09397">
        <ele>8.8148</ele>
        <time>2021-12-01T11:56:10.000Z</time>
      </trkpt>
      <trkpt lat="47.48106" lon="-3.09407">
        <ele>8.795362</ele>
        <time>2021-12-01T11:56:12.000Z</time>
      </trkpt>
      <trkpt lat="47.48151" lon="-3.09456">
        <ele>9.454268</ele>
        <time>2021-12-01T11:56:22.000Z</time>
      </trkpt>
      <trkpt lat="47.48155" lon="-3.0946">
        <ele>9.538724</ele>
        <time>2021-12-01T11:56:23.000Z</time>
      </trkpt>
      <trkpt lat="47.48173" lon="-3.09484">
        <ele>9.937665</ele>
        <time>2021-12-01T11:56:28.000Z</time>
      </trkpt>
      <trkpt lat="47.48178" lon="-3.09494">
        <ele>10.089763</ele>
        <time>2021-12-01T11:56:30.000Z</time>
      </trkpt>
      <trkpt lat="47.48195" lon="-3.09532">
        <ele>10.602774</ele>
        <time>2021-12-01T11:56:37.000Z</time>
      </trkpt>
      <trkpt lat="47.48205" lon="-3.09552">
        <ele>10.883278</ele>
        <time>2021-12-01T11:56:41.000Z</time>
      </trkpt>
      <trkpt lat="47.48208" lon="-3.09563">
        <ele>11.020579</ele>
        <time>2021-12-01T11:56:43.000Z</time>
      </trkpt>
      <trkpt lat="47.48211" lon="-3.09568">
        <ele>11.090365</ele>
        <time>2021-12-01T11:56:44.000Z</time>
      </trkpt>
      <trkpt lat="47.48221" lon="-3.09588">
        <ele>11.37296</ele>
        <time>2021-12-01T11:56:48.000Z</time>
      </trkpt>
      <trkpt lat="47.48234" lon="-3.09613">
        <ele>11.73808</ele>
        <time>2021-12-01T11:56:53.000Z</time>
      </trkpt>
      <trkpt lat="47.48237" lon="-3.09619">
        <ele>11.773302</ele>
        <time>2021-12-01T11:56:54.000Z</time>
      </trkpt>
      <trkpt lat="47.48264" lon="-3.09672">
        <ele>11.283804</ele>
        <time>2021-12-01T11:57:03.000Z</time>
      </trkpt>
      <trkpt lat="47.48286" lon="-3.09724">
        <ele>10.834223</ele>
        <time>2021-12-01T11:57:11.000Z</time>
      </trkpt>
      <trkpt lat="47.48291" lon="-3.0974">
        <ele>10.710565</ele>
        <time>2021-12-01T11:57:13.000Z</time>
      </trkpt>
      <trkpt lat="47.48298" lon="-3.09763">
        <ele>10.523965</ele>
        <time>2021-12-01T11:57:16.000Z</time>
      </trkpt>
      <trkpt lat="47.4831" lon="-3.09794">
        <ele>10.264044</ele>
        <time>2021-12-01T11:57:20.000Z</time>
      </trkpt>
      <trkpt lat="47.48331" lon="-3.09828">
        <ele>9.928426</ele>
        <time>2021-12-01T11:57:25.000Z</time>
      </trkpt>
      <trkpt lat="47.48336" lon="-3.09834">
        <ele>9.863321</ele>
        <time>2021-12-01T11:57:26.000Z</time>
      </trkpt>
      <trkpt lat="47.4837" lon="-3.09876">
        <ele>9.615749</ele>
        <time>2021-12-01T11:57:34.000Z</time>
      </trkpt>
      <trkpt lat="47.48384" lon="-3.09891">
        <ele>9.523658</ele>
        <time>2021-12-01T11:57:37.000Z</time>
      </trkpt>
      <trkpt lat="47.484" lon="-3.09907">
        <ele>9.417355</ele>
        <time>2021-12-01T11:57:41.000Z</time>
      </trkpt>
      <trkpt lat="47.48431" lon="-3.09925">
        <ele>9.243367</ele>
        <time>2021-12-01T11:57:47.000Z</time>
      </trkpt>
      <trkpt lat="47.48474" lon="-3.09943">
        <ele>9.006173</ele>
        <time>2021-12-01T11:57:56.000Z</time>
      </trkpt>
      <trkpt lat="47.48504" lon="-3.09956">
        <ele>8.794036</ele>
        <time>2021-12-01T11:58:02.000Z</time>
      </trkpt>
      <trkpt lat="47.48508" lon="-3.0996">
        <ele>8.740999</ele>
        <time>2021-12-01T11:58:03.000Z</time>
      </trkpt>
      <trkpt lat="47.48511" lon="-3.09966">
        <ele>8.688644</ele>
        <time>2021-12-01T11:58:04.000Z</time>
      </trkpt>
      <trkpt lat="47.48515" lon="-3.09978">
        <ele>8.589835</ele>
        <time>2021-12-01T11:58:06.000Z</time>
      </trkpt>
      <trkpt lat="47.48523" lon="-3.10007">
        <ele>8.366159</ele>
        <time>2021-12-01T11:58:11.000Z</time>
      </trkpt>
      <trkpt lat="47.48524" lon="-3.10013">
        <ele>8.324597</ele>
        <time>2021-12-01T11:58:12.000Z</time>
      </trkpt>
      <trkpt lat="47.48525" lon="-3.10024">
        <ele>8.24269</ele>
        <time>2021-12-01T11:58:14.000Z</time>
      </trkpt>
      <trkpt lat="47.48524" lon="-3.10035">
        <ele>8.16149</ele>
        <time>2021-12-01T11:58:16.000Z</time>
      </trkpt>
      <trkpt lat="47.4851" lon="-3.10056">
        <ele>7.948255</ele>
        <time>2021-12-01T11:58:21.000Z</time>
      </trkpt>
      <trkpt lat="47.48497" lon="-3.10075">
        <ele>7.754294</ele>
        <time>2021-12-01T11:58:25.000Z</time>
      </trkpt>
      <trkpt lat="47.48486" lon="-3.10087">
        <ele>7.614349</ele>
        <time>2021-12-01T11:58:28.000Z</time>
      </trkpt>
      <trkpt lat="47.48483" lon="-3.1009">
        <ele>7.573712</ele>
        <time>2021-12-01T11:58:29.000Z</time>
      </trkpt>
      <trkpt lat="47.48475" lon="-3.10094">
        <ele>7.477452</ele>
        <time>2021-12-01T11:58:32.000Z</time>
      </trkpt>
      <trkpt lat="47.4847" lon="-3.10097">
        <ele>7.420038</ele>
        <time>2021-12-01T11:58:35.000Z</time>
      </trkpt>
      <trkpt lat="47.48468" lon="-3.10099">
        <ele>7.396198</ele>
        <time>2021-12-01T11:58:36.000Z</time>
      </trkpt>
      <trkpt lat="47.4846" lon="-3.10116">
        <ele>7.247837</ele>
        <time>2021-12-01T11:58:42.000Z</time>
      </trkpt>
      <trkpt lat="47.48458" lon="-3.10128">
        <ele>7.160087</ele>
        <time>2021-12-01T11:58:47.000Z</time>
      </trkpt>
      <trkpt lat="47.48458" lon="-3.10129">
        <ele>7.15702</ele>
        <time>2021-12-01T11:58:48.000Z</time>
      </trkpt>
      <trkpt lat="47.48459" lon="-3.10131">
        <ele>7.140823</ele>
        <time>2021-12-01T11:58:50.000Z</time>
      </trkpt>
      <trkpt lat="47.48459" lon="-3.10133">
        <ele>7.121291</ele>
        <time>2021-12-01T11:58:52.000Z</time>
      </trkpt>
      <trkpt lat="47.48457" lon="-3.10134">
        <ele>7.105048</ele>
        <time>2021-12-01T11:58:54.000Z</time>
      </trkpt>
      <trkpt lat="47.48455" lon="-3.10136">
        <ele>7.080645</ele>
        <time>2021-12-01T11:58:57.000Z</time>
      </trkpt>
      <trkpt lat="47.48454" lon="-3.10139">
        <ele>7.050805</ele>
        <time>2021-12-01T11:58:59.000Z</time>
      </trkpt>
      <trkpt lat="47.48454" lon="-3.10143">
        <ele>7.026979</ele>
        <time>2021-12-01T11:59:00.000Z</time>
      </trkpt>
      <trkpt lat="47.48455" lon="-3.10152">
        <ele>6.98939</ele>
        <time>2021-12-01T11:59:02.000Z</time>
      </trkpt>
      <trkpt lat="47.48461" lon="-3.10159">
        <ele>7.117298</ele>
        <time>2021-12-01T11:59:04.000Z</time>
      </trkpt>
      <trkpt lat="47.48476" lon="-3.1017">
        <ele>7.394909</ele>
        <time>2021-12-01T11:59:08.000Z</time>
      </trkpt>
      <trkpt lat="47.48487" lon="-3.1018">
        <ele>7.607694</ele>
        <time>2021-12-01T11:59:11.000Z</time>
      </trkpt>
      <trkpt lat="47.48489" lon="-3.10184">
        <ele>7.677065</ele>
        <time>2021-12-01T11:59:12.000Z</time>
      </trkpt>
      <trkpt lat="47.48491" lon="-3.10189">
        <ele>7.736465</ele>
        <time>2021-12-01T11:59:13.000Z</time>
      </trkpt>
      <trkpt lat="47.48491" lon="-3.10197">
        <ele>7.831511</ele>
        <time>2021-12-01T11:59:15.000Z</time>
      </trkpt>
      <trkpt lat="47.48489" lon="-3.10207">
        <ele>7.943825</ele>
        <time>2021-12-01T11:59:19.000Z</time>
      </trkpt>
      <trkpt lat="47.48489" lon="-3.10208">
        <ele>7.959626</ele>
        <time>2021-12-01T11:59:23.000Z</time>
      </trkpt>
      <trkpt lat="47.48486" lon="-3.10214">
        <ele>8.034857</ele>
        <time>2021-12-01T11:59:29.000Z</time>
      </trkpt>
      <trkpt lat="47.48482" lon="-3.10233">
        <ele>8.268522</ele>
        <time>2021-12-01T11:59:34.000Z</time>
      </trkpt>
      <trkpt lat="47.48481" lon="-3.10238">
        <ele>8.324662</ele>
        <time>2021-12-01T11:59:35.000Z</time>
      </trkpt>
      <trkpt lat="47.48477" lon="-3.10262">
        <ele>8.602978</ele>
        <time>2021-12-01T11:59:40.000Z</time>
      </trkpt>
      <trkpt lat="47.48476" lon="-3.10267">
        <ele>8.659876</ele>
        <time>2021-12-01T11:59:41.000Z</time>
      </trkpt>
      <trkpt lat="47.48473" lon="-3.10287">
        <ele>8.889661</ele>
        <time>2021-12-01T11:59:45.000Z</time>
      </trkpt>
      <trkpt lat="47.48468" lon="-3.10313">
        <ele>9.201506</ele>
        <time>2021-12-01T11:59:50.000Z</time>
      </trkpt>
      <trkpt lat="47.48464" lon="-3.10332">
        <ele>9.419886</ele>
        <time>2021-12-01T11:59:53.000Z</time>
      </trkpt>
      <trkpt lat="47.4846" lon="-3.10351">
        <ele>9.648236</ele>
        <time>2021-12-01T11:59:56.000Z</time>
      </trkpt>
      <trkpt lat="47.48458" lon="-3.10364">
        <ele>9.800199</ele>
        <time>2021-12-01T11:59:58.000Z</time>
      </trkpt>
      <trkpt lat="47.48456" lon="-3.10384">
        <ele>9.991302</ele>
        <time>2021-12-01T12:00:01.000Z</time>
      </trkpt>
      <trkpt lat="47.48456" lon="-3.10391">
        <ele>10.015191</ele>
        <time>2021-12-01T12:00:02.000Z</time>
      </trkpt>
      <trkpt lat="47.48455" lon="-3.10418">
        <ele>10.112684</ele>
        <time>2021-12-01T12:00:06.000Z</time>
      </trkpt>
      <trkpt lat="47.48458" lon="-3.10431">
        <ele>10.161398</ele>
        <time>2021-12-01T12:00:08.000Z</time>
      </trkpt>
      <trkpt lat="47.48459" lon="-3.10438">
        <ele>10.186527</ele>
        <time>2021-12-01T12:00:09.000Z</time>
      </trkpt>
      <trkpt lat="47.48464" lon="-3.10457">
        <ele>10.260252</ele>
        <time>2021-12-01T12:00:12.000Z</time>
      </trkpt>
      <trkpt lat="47.4847" lon="-3.10482">
        <ele>10.35384</ele>
        <time>2021-12-01T12:00:16.000Z</time>
      </trkpt>
      <trkpt lat="47.48473" lon="-3.10514">
        <ele>10.468497</ele>
        <time>2021-12-01T12:00:21.000Z</time>
      </trkpt>
      <trkpt lat="47.48472" lon="-3.10521">
        <ele>10.492125</ele>
        <time>2021-12-01T12:00:22.000Z</time>
      </trkpt>
      <trkpt lat="47.48471" lon="-3.10527">
        <ele>10.515619</ele>
        <time>2021-12-01T12:00:23.000Z</time>
      </trkpt>
      <trkpt lat="47.48464" lon="-3.1055">
        <ele>10.603419</ele>
        <time>2021-12-01T12:00:27.000Z</time>
      </trkpt>
      <trkpt lat="47.48445" lon="-3.10603">
        <ele>10.819312</ele>
        <time>2021-12-01T12:00:36.000Z</time>
      </trkpt>
      <trkpt lat="47.48434" lon="-3.1065">
        <ele>10.864609</ele>
        <time>2021-12-01T12:00:43.000Z</time>
      </trkpt>
      <trkpt lat="47.48434" lon="-3.10657">
        <ele>10.842361</ele>
        <time>2021-12-01T12:00:44.000Z</time>
      </trkpt>
      <trkpt lat="47.48434" lon="-3.10694">
        <ele>10.731914</ele>
        <time>2021-12-01T12:00:49.000Z</time>
      </trkpt>
      <trkpt lat="47.48439" lon="-3.10736">
        <ele>10.604102</ele>
        <time>2021-12-01T12:00:55.000Z</time>
      </trkpt>
      <trkpt lat="47.48441" lon="-3.10743">
        <ele>10.581867</ele>
        <time>2021-12-01T12:00:56.000Z</time>
      </trkpt>
      <trkpt lat="47.48444" lon="-3.10749">
        <ele>10.558617</ele>
        <time>2021-12-01T12:00:57.000Z</time>
      </trkpt>
      <trkpt lat="47.48451" lon="-3.1076">
        <ele>10.51449</ele>
        <time>2021-12-01T12:00:59.000Z</time>
      </trkpt>
      <trkpt lat="47.48483" lon="-3.10794">
        <ele>10.3421</ele>
        <time>2021-12-01T12:01:07.000Z</time>
      </trkpt>
      <trkpt lat="47.48522" lon="-3.10827">
        <ele>10.143216</ele>
        <time>2021-12-01T12:01:16.000Z</time>
      </trkpt>
      <trkpt lat="47.4856" lon="-3.10856">
        <ele>10.8327</ele>
        <time>2021-12-01T12:01:25.000Z</time>
      </trkpt>
      <trkpt lat="47.48577" lon="-3.10869">
        <ele>11.170108</ele>
        <time>2021-12-01T12:01:29.000Z</time>
      </trkpt>
      <trkpt lat="47.48581" lon="-3.10872">
        <ele>11.248099</ele>
        <time>2021-12-01T12:01:30.000Z</time>
      </trkpt>
      <trkpt lat="47.48595" lon="-3.10885">
        <ele>11.546284</ele>
        <time>2021-12-01T12:01:34.000Z</time>
      </trkpt>
      <trkpt lat="47.48598" lon="-3.10889">
        <ele>11.61778</ele>
        <time>2021-12-01T12:01:35.000Z</time>
      </trkpt>
      <trkpt lat="47.48606" lon="-3.10892">
        <ele>11.759691</ele>
        <time>2021-12-01T12:01:37.000Z</time>
      </trkpt>
      <trkpt lat="47.4861" lon="-3.10892">
        <ele>11.830705</ele>
        <time>2021-12-01T12:01:38.000Z</time>
      </trkpt>
      <trkpt lat="47.48614" lon="-3.10893">
        <ele>11.903371</ele>
        <time>2021-12-01T12:01:39.000Z</time>
      </trkpt>
      <trkpt lat="47.48618" lon="-3.10898">
        <ele>11.988984</ele>
        <time>2021-12-01T12:01:40.000Z</time>
      </trkpt>
      <trkpt lat="47.4862" lon="-3.10902">
        <ele>12.0508</ele>
        <time>2021-12-01T12:01:41.000Z</time>
      </trkpt>
      <trkpt lat="47.48624" lon="-3.10914">
        <ele>12.211036</ele>
        <time>2021-12-01T12:01:43.000Z</time>
      </trkpt>
      <trkpt lat="47.48634" lon="-3.10927">
        <ele>12.449112</ele>
        <time>2021-12-01T12:01:46.000Z</time>
      </trkpt>
      <trkpt lat="47.48664" lon="-3.10969">
        <ele>13.173749</ele>
        <time>2021-12-01T12:01:55.000Z</time>
      </trkpt>
      <trkpt lat="47.48666" lon="-3.10974">
        <ele>13.251611</ele>
        <time>2021-12-01T12:01:56.000Z</time>
      </trkpt>
      <trkpt lat="47.48677" lon="-3.11001">
        <ele>13.564374</ele>
        <time>2021-12-01T12:02:01.000Z</time>
      </trkpt>
      <trkpt lat="47.48682" lon="-3.11018">
        <ele>13.734234</ele>
        <time>2021-12-01T12:02:04.000Z</time>
      </trkpt>
      <trkpt lat="47.48685" lon="-3.11042">
        <ele>13.95879</ele>
        <time>2021-12-01T12:02:08.000Z</time>
      </trkpt>
      <trkpt lat="47.48689" lon="-3.11059">
        <ele>14.125866</ele>
        <time>2021-12-01T12:02:11.000Z</time>
      </trkpt>
      <trkpt lat="47.48691" lon="-3.11064">
        <ele>14.18239</ele>
        <time>2021-12-01T12:02:12.000Z</time>
      </trkpt>
      <trkpt lat="47.48696" lon="-3.11072">
        <ele>14.289152</ele>
        <time>2021-12-01T12:02:14.000Z</time>
      </trkpt>
      <trkpt lat="47.4872" lon="-3.11105">
        <ele>14.73748</ele>
        <time>2021-12-01T12:02:22.000Z</time>
      </trkpt>
      <trkpt lat="47.4873" lon="-3.11118">
        <ele>14.9116</ele>
        <time>2021-12-01T12:02:25.000Z</time>
      </trkpt>
      <trkpt lat="47.48745" lon="-3.11131">
        <ele>15.162129</ele>
        <time>2021-12-01T12:02:29.000Z</time>
      </trkpt>
      <trkpt lat="47.4875" lon="-3.11134">
        <ele>15.229012</ele>
        <time>2021-12-01T12:02:30.000Z</time>
      </trkpt>
      <trkpt lat="47.48772" lon="-3.11151">
        <ele>15.580346</ele>
        <time>2021-12-01T12:02:35.000Z</time>
      </trkpt>
      <trkpt lat="47.48805" lon="-3.11177">
        <ele>15.817916</ele>
        <time>2021-12-01T12:02:42.000Z</time>
      </trkpt>
      <trkpt lat="47.48814" lon="-3.11185">
        <ele>15.824717</ele>
        <time>2021-12-01T12:02:44.000Z</time>
      </trkpt>
      <trkpt lat="47.4882" lon="-3.11194">
        <ele>15.830695</ele>
        <time>2021-12-01T12:02:46.000Z</time>
      </trkpt>
      <trkpt lat="47.48824" lon="-3.11197">
        <ele>15.833596</ele>
        <time>2021-12-01T12:02:47.000Z</time>
      </trkpt>
      <trkpt lat="47.48832" lon="-3.11202">
        <ele>15.839575</ele>
        <time>2021-12-01T12:02:49.000Z</time>
      </trkpt>
      <trkpt lat="47.48837" lon="-3.11213">
        <ele>15.845609</ele>
        <time>2021-12-01T12:02:51.000Z</time>
      </trkpt>
      <trkpt lat="47.4884" lon="-3.11227">
        <ele>15.852367</ele>
        <time>2021-12-01T12:02:53.000Z</time>
      </trkpt>
      <trkpt lat="47.48846" lon="-3.11239">
        <ele>15.859206</ele>
        <time>2021-12-01T12:02:55.000Z</time>
      </trkpt>
      <trkpt lat="47.48849" lon="-3.11245">
        <ele>15.862701</ele>
        <time>2021-12-01T12:02:56.000Z</time>
      </trkpt>
      <trkpt lat="47.48882" lon="-3.11299">
        <ele>15.896399</ele>
        <time>2021-12-01T12:03:06.000Z</time>
      </trkpt>
      <trkpt lat="47.48919" lon="-3.11349">
        <ele>15.984203</ele>
        <time>2021-12-01T12:03:17.000Z</time>
      </trkpt>
      <trkpt lat="47.48932" lon="-3.11365">
        <ele>16.145923</ele>
        <time>2021-12-01T12:03:21.000Z</time>
      </trkpt>
      <trkpt lat="47.4895" lon="-3.11395">
        <ele>16.40311</ele>
        <time>2021-12-01T12:03:27.000Z</time>
      </trkpt>
      <trkpt lat="47.48962" lon="-3.11441">
        <ele>16.723868</ele>
        <time>2021-12-01T12:03:34.000Z</time>
      </trkpt>
      <trkpt lat="47.48965" lon="-3.11454">
        <ele>16.81407</ele>
        <time>2021-12-01T12:03:36.000Z</time>
      </trkpt>
      <trkpt lat="47.48966" lon="-3.11461">
        <ele>16.858184</ele>
        <time>2021-12-01T12:03:37.000Z</time>
      </trkpt>
      <trkpt lat="47.48971" lon="-3.1148">
        <ele>16.991495</ele>
        <time>2021-12-01T12:03:40.000Z</time>
      </trkpt>
      <trkpt lat="47.48978" lon="-3.11506">
        <ele>17.168007</ele>
        <time>2021-12-01T12:03:44.000Z</time>
      </trkpt>
      <trkpt lat="47.48982" lon="-3.11525">
        <ele>17.299785</ele>
        <time>2021-12-01T12:03:47.000Z</time>
      </trkpt>
      <trkpt lat="47.49005" lon="-3.11579">
        <ele>17.641884</ele>
        <time>2021-12-01T12:03:56.000Z</time>
      </trkpt>
      <trkpt lat="47.49008" lon="-3.11585">
        <ele>17.640224</ele>
        <time>2021-12-01T12:03:57.000Z</time>
      </trkpt>
      <trkpt lat="47.49017" lon="-3.11595">
        <ele>17.636436</ele>
        <time>2021-12-01T12:03:59.000Z</time>
      </trkpt>
      <trkpt lat="47.49025" lon="-3.11601">
        <ele>17.633324</ele>
        <time>2021-12-01T12:04:01.000Z</time>
      </trkpt>
      <trkpt lat="47.49065" lon="-3.11615">
        <ele>17.619156</ele>
        <time>2021-12-01T12:04:09.000Z</time>
      </trkpt>
      <trkpt lat="47.49091" lon="-3.11621">
        <ele>17.610273</ele>
        <time>2021-12-01T12:04:14.000Z</time>
      </trkpt>
      <trkpt lat="47.49105" lon="-3.11629">
        <ele>17.605154</ele>
        <time>2021-12-01T12:04:17.000Z</time>
      </trkpt>
      <trkpt lat="47.49144" lon="-3.11655">
        <ele>17.590318</ele>
        <time>2021-12-01T12:04:26.000Z</time>
      </trkpt>
      <trkpt lat="47.49166" lon="-3.1168">
        <ele>17.593463</ele>
        <time>2021-12-01T12:04:32.000Z</time>
      </trkpt>
      <trkpt lat="47.49168" lon="-3.11685">
        <ele>17.602959</ele>
        <time>2021-12-01T12:04:33.000Z</time>
      </trkpt>
      <trkpt lat="47.49181" lon="-3.11712">
        <ele>17.652383</ele>
        <time>2021-12-01T12:04:38.000Z</time>
      </trkpt>
      <trkpt lat="47.4919" lon="-3.11737">
        <ele>17.693652</ele>
        <time>2021-12-01T12:04:42.000Z</time>
      </trkpt>
      <trkpt lat="47.49202" lon="-3.11789">
        <ele>17.775751</ele>
        <time>2021-12-01T12:04:50.000Z</time>
      </trkpt>
      <trkpt lat="47.49204" lon="-3.11795">
        <ele>17.785169</ele>
        <time>2021-12-01T12:04:51.000Z</time>
      </trkpt>
      <trkpt lat="47.49207" lon="-3.11805">
        <ele>17.80168</ele>
        <time>2021-12-01T12:04:53.000Z</time>
      </trkpt>
      <trkpt lat="47.49212" lon="-3.11815">
        <ele>17.819663</ele>
        <time>2021-12-01T12:04:55.000Z</time>
      </trkpt>
      <trkpt lat="47.49229" lon="-3.11828">
        <ele>17.8609</ele>
        <time>2021-12-01T12:04:59.000Z</time>
      </trkpt>
      <trkpt lat="47.49233" lon="-3.11831">
        <ele>17.8716</ele>
        <time>2021-12-01T12:05:00.000Z</time>
      </trkpt>
      <trkpt lat="47.49261" lon="-3.11845">
        <ele>17.936078</ele>
        <time>2021-12-01T12:05:06.000Z</time>
      </trkpt>
      <trkpt lat="47.49316" lon="-3.11861">
        <ele>18.099378</ele>
        <time>2021-12-01T12:05:17.000Z</time>
      </trkpt>
      <trkpt lat="47.49332" lon="-3.11865">
        <ele>18.149798</ele>
        <time>2021-12-01T12:05:20.000Z</time>
      </trkpt>
      <trkpt lat="47.49358" lon="-3.11869">
        <ele>18.235725</ele>
        <time>2021-12-01T12:05:25.000Z</time>
      </trkpt>
      <trkpt lat="47.49363" lon="-3.11871">
        <ele>18.252164</ele>
        <time>2021-12-01T12:05:26.000Z</time>
      </trkpt>
      <trkpt lat="47.494" lon="-3.11892">
        <ele>18.379374</ele>
        <time>2021-12-01T12:05:34.000Z</time>
      </trkpt>
      <trkpt lat="47.49412" lon="-3.11901">
        <ele>18.421854</ele>
        <time>2021-12-01T12:05:37.000Z</time>
      </trkpt>
      <trkpt lat="47.4942" lon="-3.11904">
        <ele>18.449738</ele>
        <time>2021-12-01T12:05:39.000Z</time>
      </trkpt>
      <trkpt lat="47.49437" lon="-3.11903">
        <ele>18.505204</ele>
        <time>2021-12-01T12:05:43.000Z</time>
      </trkpt>
      <trkpt lat="47.49447" lon="-3.119">
        <ele>18.53587</ele>
        <time>2021-12-01T12:05:45.000Z</time>
      </trkpt>
      <trkpt lat="47.49469" lon="-3.11903">
        <ele>18.009382</ele>
        <time>2021-12-01T12:05:49.000Z</time>
      </trkpt>
      <trkpt lat="47.49474" lon="-3.11904">
        <ele>17.80579</ele>
        <time>2021-12-01T12:05:50.000Z</time>
      </trkpt>
      <trkpt lat="47.49495" lon="-3.11903">
        <ele>17.039305</ele>
        <time>2021-12-01T12:05:54.000Z</time>
      </trkpt>
      <trkpt lat="47.495" lon="-3.11902">
        <ele>16.853882</ele>
        <time>2021-12-01T12:05:55.000Z</time>
      </trkpt>
      <trkpt lat="47.49523" lon="-3.11893">
        <ele>16.015781</ele>
        <time>2021-12-01T12:05:59.000Z</time>
      </trkpt>
      <trkpt lat="47.49551" lon="-3.11881">
        <ele>14.95457</ele>
        <time>2021-12-01T12:06:04.000Z</time>
      </trkpt>
      <trkpt lat="47.49563" lon="-3.11876">
        <ele>14.505415</ele>
        <time>2021-12-01T12:06:06.000Z</time>
      </trkpt>
      <trkpt lat="47.49582" lon="-3.11867">
        <ele>13.774158</ele>
        <time>2021-12-01T12:06:09.000Z</time>
      </trkpt>
      <trkpt lat="47.49595" lon="-3.1186">
        <ele>13.271594</ele>
        <time>2021-12-01T12:06:11.000Z</time>
      </trkpt>
      <trkpt lat="47.49602" lon="-3.11857">
        <ele>13.024768</ele>
        <time>2021-12-01T12:06:12.000Z</time>
      </trkpt>
      <trkpt lat="47.49626" lon="-3.11842">
        <ele>12.085535</ele>
        <time>2021-12-01T12:06:16.000Z</time>
      </trkpt>
      <trkpt lat="47.49632" lon="-3.11839">
        <ele>11.926356</ele>
        <time>2021-12-01T12:06:17.000Z</time>
      </trkpt>
      <trkpt lat="47.49648" lon="-3.11829">
        <ele>11.501907</ele>
        <time>2021-12-01T12:06:20.000Z</time>
      </trkpt>
      <trkpt lat="47.49663" lon="-3.11819">
        <ele>11.110229</ele>
        <time>2021-12-01T12:06:23.000Z</time>
      </trkpt>
      <trkpt lat="47.49668" lon="-3.11816">
        <ele>10.98234</ele>
        <time>2021-12-01T12:06:24.000Z</time>
      </trkpt>
      <trkpt lat="47.49687" lon="-3.11806">
        <ele>10.499414</ele>
        <time>2021-12-01T12:06:28.000Z</time>
      </trkpt>
      <trkpt lat="47.49694" lon="-3.11802">
        <ele>10.302563</ele>
        <time>2021-12-01T12:06:30.000Z</time>
      </trkpt>
      <trkpt lat="47.49702" lon="-3.11801">
        <ele>10.117159</ele>
        <time>2021-12-01T12:06:32.000Z</time>
      </trkpt>
      <trkpt lat="47.49709" lon="-3.11805">
        <ele>9.939588</ele>
        <time>2021-12-01T12:06:34.000Z</time>
      </trkpt>
      <trkpt lat="47.49715" lon="-3.1181">
        <ele>9.770823</ele>
        <time>2021-12-01T12:06:36.000Z</time>
      </trkpt>
      <trkpt lat="47.49726" lon="-3.11819">
        <ele>9.465867</ele>
        <time>2021-12-01T12:06:39.000Z</time>
      </trkpt>
      <trkpt lat="47.49742" lon="-3.11838">
        <ele>8.982392</ele>
        <time>2021-12-01T12:06:44.000Z</time>
      </trkpt>
      <trkpt lat="47.49757" lon="-3.11841">
        <ele>8.607845</ele>
        <time>2021-12-01T12:06:48.000Z</time>
      </trkpt>
      <trkpt lat="47.49781" lon="-3.11851">
        <ele>8.010052</ele>
        <time>2021-12-01T12:06:54.000Z</time>
      </trkpt>
      <trkpt lat="47.49791" lon="-3.11856">
        <ele>7.77082</ele>
        <time>2021-12-01T12:06:56.000Z</time>
      </trkpt>
      <trkpt lat="47.49804" lon="-3.11863">
        <ele>7.776346</ele>
        <time>2021-12-01T12:06:59.000Z</time>
      </trkpt>
      <trkpt lat="47.49813" lon="-3.11868">
        <ele>7.807936</ele>
        <time>2021-12-01T12:07:01.000Z</time>
      </trkpt>
      <trkpt lat="47.49821" lon="-3.11872">
        <ele>7.838658</ele>
        <time>2021-12-01T12:07:03.000Z</time>
      </trkpt>
      <trkpt lat="47.49859" lon="-3.11895">
        <ele>7.976321</ele>
        <time>2021-12-01T12:07:11.000Z</time>
      </trkpt>
      <trkpt lat="47.49896" lon="-3.11925">
        <ele>8.116862</ele>
        <time>2021-12-01T12:07:18.000Z</time>
      </trkpt>
      <trkpt lat="47.49902" lon="-3.11929">
        <ele>8.136822</ele>
        <time>2021-12-01T12:07:19.000Z</time>
      </trkpt>
      <trkpt lat="47.49922" lon="-3.11945">
        <ele>8.213861</ele>
        <time>2021-12-01T12:07:23.000Z</time>
      </trkpt>
      <trkpt lat="47.49935" lon="-3.11954">
        <ele>8.263849</ele>
        <time>2021-12-01T12:07:26.000Z</time>
      </trkpt>
      <trkpt lat="47.4996" lon="-3.11971">
        <ele>8.341819</ele>
        <time>2021-12-01T12:07:32.000Z</time>
      </trkpt>
      <trkpt lat="47.49993" lon="-3.11991">
        <ele>8.375671</ele>
        <time>2021-12-01T12:07:40.000Z</time>
      </trkpt>
      <trkpt lat="47.49998" lon="-3.11992">
        <ele>8.380014</ele>
        <time>2021-12-01T12:07:41.000Z</time>
      </trkpt>
      <trkpt lat="47.50011" lon="-3.11996">
        <ele>8.392881</ele>
        <time>2021-12-01T12:07:44.000Z</time>
      </trkpt>
      <trkpt lat="47.50015" lon="-3.11998">
        <ele>8.397237</ele>
        <time>2021-12-01T12:07:45.000Z</time>
      </trkpt>
      <trkpt lat="47.5003" lon="-3.11999">
        <ele>8.41129</ele>
        <time>2021-12-01T12:07:48.000Z</time>
      </trkpt>
      <trkpt lat="47.50072" lon="-3.11996">
        <ele>8.451529</ele>
        <time>2021-12-01T12:07:56.000Z</time>
      </trkpt>
      <trkpt lat="47.50101" lon="-3.11999">
        <ele>8.479196</ele>
        <time>2021-12-01T12:08:01.000Z</time>
      </trkpt>
      <trkpt lat="47.50112" lon="-3.12003">
        <ele>8.490431</ele>
        <time>2021-12-01T12:08:03.000Z</time>
      </trkpt>
      <trkpt lat="47.50123" lon="-3.12007">
        <ele>8.501062</ele>
        <time>2021-12-01T12:08:05.000Z</time>
      </trkpt>
      <trkpt lat="47.50145" lon="-3.12015">
        <ele>8.276144</ele>
        <time>2021-12-01T12:08:09.000Z</time>
      </trkpt>
      <trkpt lat="47.50169" lon="-3.12021">
        <ele>7.889922</ele>
        <time>2021-12-01T12:08:13.000Z</time>
      </trkpt>
      <trkpt lat="47.50188" lon="-3.12025">
        <ele>7.593099</ele>
        <time>2021-12-01T12:08:16.000Z</time>
      </trkpt>
      <trkpt lat="47.50204" lon="-3.12026">
        <ele>7.326781</ele>
        <time>2021-12-01T12:08:19.000Z</time>
      </trkpt>
      <trkpt lat="47.5023" lon="-3.12025">
        <ele>6.929953</ele>
        <time>2021-12-01T12:08:23.000Z</time>
      </trkpt>
      <trkpt lat="47.50254" lon="-3.12024">
        <ele>6.5456</ele>
        <time>2021-12-01T12:08:27.000Z</time>
      </trkpt>
      <trkpt lat="47.50272" lon="-3.12023">
        <ele>6.262202</ele>
        <time>2021-12-01T12:08:30.000Z</time>
      </trkpt>
      <trkpt lat="47.5033" lon="-3.12022">
        <ele>5.822892</ele>
        <time>2021-12-01T12:08:40.000Z</time>
      </trkpt>
      <trkpt lat="47.50341" lon="-3.12021">
        <ele>5.901488</ele>
        <time>2021-12-01T12:08:42.000Z</time>
      </trkpt>
      <trkpt lat="47.5037" lon="-3.12022">
        <ele>6.110695</ele>
        <time>2021-12-01T12:08:48.000Z</time>
      </trkpt>
      <trkpt lat="47.50383" lon="-3.12024">
        <ele>6.200905</ele>
        <time>2021-12-01T12:08:51.000Z</time>
      </trkpt>
      <trkpt lat="47.5039" lon="-3.12024">
        <ele>6.253723</ele>
        <time>2021-12-01T12:08:53.000Z</time>
      </trkpt>
      <trkpt lat="47.50409" lon="-3.12031">
        <ele>6.392186</ele>
        <time>2021-12-01T12:08:59.000Z</time>
      </trkpt>
      <trkpt lat="47.50432" lon="-3.12047">
        <ele>6.575984</ele>
        <time>2021-12-01T12:09:05.000Z</time>
      </trkpt>
      <trkpt lat="47.50449" lon="-3.12058">
        <ele>6.707081</ele>
        <time>2021-12-01T12:09:09.000Z</time>
      </trkpt>
      <trkpt lat="47.50454" lon="-3.1206">
        <ele>6.742259</ele>
        <time>2021-12-01T12:09:10.000Z</time>
      </trkpt>
      <trkpt lat="47.50458" lon="-3.12061">
        <ele>6.775287</ele>
        <time>2021-12-01T12:09:11.000Z</time>
      </trkpt>
      <trkpt lat="47.50463" lon="-3.12064">
        <ele>6.807755</ele>
        <time>2021-12-01T12:09:12.000Z</time>
      </trkpt>
      <trkpt lat="47.50489" lon="-3.12077">
        <ele>7.110089</ele>
        <time>2021-12-01T12:09:18.000Z</time>
      </trkpt>
      <trkpt lat="47.50515" lon="-3.12085">
        <ele>7.71045</ele>
        <time>2021-12-01T12:09:24.000Z</time>
      </trkpt>
      <trkpt lat="47.50527" lon="-3.12089">
        <ele>8.000382</ele>
        <time>2021-12-01T12:09:27.000Z</time>
      </trkpt>
      <trkpt lat="47.50543" lon="-3.12096">
        <ele>8.369715</ele>
        <time>2021-12-01T12:09:31.000Z</time>
      </trkpt>
      <trkpt lat="47.50547" lon="-3.12098">
        <ele>8.467401</ele>
        <time>2021-12-01T12:09:32.000Z</time>
      </trkpt>
      <trkpt lat="47.50576" lon="-3.12112">
        <ele>9.150422</ele>
        <time>2021-12-01T12:09:39.000Z</time>
      </trkpt>
      <trkpt lat="47.50579" lon="-3.12113">
        <ele>9.234003</ele>
        <time>2021-12-01T12:09:40.000Z</time>
      </trkpt>
      <trkpt lat="47.50582" lon="-3.12114">
        <ele>9.307263</ele>
        <time>2021-12-01T12:09:41.000Z</time>
      </trkpt>
      <trkpt lat="47.50601" lon="-3.12129">
        <ele>9.798051</ele>
        <time>2021-12-01T12:09:46.000Z</time>
      </trkpt>
      <trkpt lat="47.50609" lon="-3.12136">
        <ele>10.010618</ele>
        <time>2021-12-01T12:09:48.000Z</time>
      </trkpt>
      <trkpt lat="47.5062" lon="-3.12149">
        <ele>10.327731</ele>
        <time>2021-12-01T12:09:51.000Z</time>
      </trkpt>
      <trkpt lat="47.50624" lon="-3.12153">
        <ele>10.434864</ele>
        <time>2021-12-01T12:09:52.000Z</time>
      </trkpt>
      <trkpt lat="47.50635" lon="-3.12166">
        <ele>10.755274</ele>
        <time>2021-12-01T12:09:55.000Z</time>
      </trkpt>
      <trkpt lat="47.50651" lon="-3.1219">
        <ele>11.182611</ele>
        <time>2021-12-01T12:10:00.000Z</time>
      </trkpt>
      <trkpt lat="47.50672" lon="-3.12224">
        <ele>11.591086</ele>
        <time>2021-12-01T12:10:07.000Z</time>
      </trkpt>
      <trkpt lat="47.5068" lon="-3.12237">
        <ele>11.752069</ele>
        <time>2021-12-01T12:10:10.000Z</time>
      </trkpt>
      <trkpt lat="47.50693" lon="-3.12255">
        <ele>11.980919</ele>
        <time>2021-12-01T12:10:14.000Z</time>
      </trkpt>
      <trkpt lat="47.50699" lon="-3.12263">
        <ele>12.089943</ele>
        <time>2021-12-01T12:10:16.000Z</time>
      </trkpt>
      <trkpt lat="47.50708" lon="-3.12276">
        <ele>12.268933</ele>
        <time>2021-12-01T12:10:20.000Z</time>
      </trkpt>
      <trkpt lat="47.50714" lon="-3.12286">
        <ele>12.38847</ele>
        <time>2021-12-01T12:10:24.000Z</time>
      </trkpt>
      <trkpt lat="47.50716" lon="-3.12287">
        <ele>12.408436</ele>
        <time>2021-12-01T12:10:27.000Z</time>
      </trkpt>
      <trkpt lat="47.50717" lon="-3.12292">
        <ele>12.458744</ele>
        <time>2021-12-01T12:10:33.000Z</time>
      </trkpt>
      <trkpt lat="47.50717" lon="-3.12295">
        <ele>12.487426</ele>
        <time>2021-12-01T12:10:35.000Z</time>
      </trkpt>
      <trkpt lat="47.50713" lon="-3.12307">
        <ele>12.601606</ele>
        <time>2021-12-01T12:10:37.000Z</time>
      </trkpt>
      <trkpt lat="47.50713" lon="-3.12312">
        <ele>12.645664</ele>
        <time>2021-12-01T12:10:38.000Z</time>
      </trkpt>
      <trkpt lat="47.50715" lon="-3.12351">
        <ele>13.001469</ele>
        <time>2021-12-01T12:10:46.000Z</time>
      </trkpt>
      <trkpt lat="47.50715" lon="-3.12361">
        <ele>13.089635</ele>
        <time>2021-12-01T12:10:50.000Z</time>
      </trkpt>
      <trkpt lat="47.50715" lon="-3.12361">
        <ele>13.089635</ele>
        <time>2021-12-01T12:10:51.000Z</time>
      </trkpt>
      <trkpt lat="47.50715" lon="-3.12361">
        <ele>13.093468</ele>
        <time>2021-12-01T12:10:52.000Z</time>
      </trkpt>
      <trkpt lat="47.50717" lon="-3.12368">
        <ele>13.162421</ele>
        <time>2021-12-01T12:10:57.000Z</time>
      </trkpt>
      <trkpt lat="47.50721" lon="-3.12374">
        <ele>13.241043</ele>
        <time>2021-12-01T12:10:59.000Z</time>
      </trkpt>
      <trkpt lat="47.50735" lon="-3.12385">
        <ele>13.443312</ele>
        <time>2021-12-01T12:11:02.000Z</time>
      </trkpt>
      <trkpt lat="47.50739" lon="-3.12387">
        <ele>13.439752</ele>
        <time>2021-12-01T12:11:03.000Z</time>
      </trkpt>
      <trkpt lat="47.50744" lon="-3.12389">
        <ele>13.435453</ele>
        <time>2021-12-01T12:11:05.000Z</time>
      </trkpt>
      <trkpt lat="47.50755" lon="-3.12394">
        <ele>13.425297</ele>
        <time>2021-12-01T12:11:07.000Z</time>
      </trkpt>
      <trkpt lat="47.50764" lon="-3.12398">
        <ele>13.416879</ele>
        <time>2021-12-01T12:11:10.000Z</time>
      </trkpt>
      <trkpt lat="47.50786" lon="-3.12407">
        <ele>13.397272</ele>
        <time>2021-12-01T12:11:15.000Z</time>
      </trkpt>
      <trkpt lat="47.50794" lon="-3.12405">
        <ele>13.390474</ele>
        <time>2021-12-01T12:11:17.000Z</time>
      </trkpt>
      <trkpt lat="47.50801" lon="-3.12395">
        <ele>13.382291</ele>
        <time>2021-12-01T12:11:19.000Z</time>
      </trkpt>
      <trkpt lat="47.50804" lon="-3.12384">
        <ele>13.375385</ele>
        <time>2021-12-01T12:11:21.000Z</time>
      </trkpt>
      <trkpt lat="47.5081" lon="-3.12357">
        <ele>13.358726</ele>
        <time>2021-12-01T12:11:25.000Z</time>
      </trkpt>
      <trkpt lat="47.50816" lon="-3.12349">
        <ele>13.351858</ele>
        <time>2021-12-01T12:11:27.000Z</time>
      </trkpt>
      <trkpt lat="47.50819" lon="-3.12345">
        <ele>13.34806</ele>
        <time>2021-12-01T12:11:28.000Z</time>
      </trkpt>
      <trkpt lat="47.50829" lon="-3.12343">
        <ele>13.339932</ele>
        <time>2021-12-01T12:11:30.000Z</time>
      </trkpt>
      <trkpt lat="47.50839" lon="-3.12348">
        <ele>13.330525</ele>
        <time>2021-12-01T12:11:32.000Z</time>
      </trkpt>
      <trkpt lat="47.50848" lon="-3.12354">
        <ele>13.322538</ele>
        <time>2021-12-01T12:11:34.000Z</time>
      </trkpt>
      <trkpt lat="47.50862" lon="-3.12365">
        <ele>13.308488</ele>
        <time>2021-12-01T12:11:37.000Z</time>
      </trkpt>
      <trkpt lat="47.50884" lon="-3.12384">
        <ele>13.243833</ele>
        <time>2021-12-01T12:11:42.000Z</time>
      </trkpt>
      <trkpt lat="47.50923" lon="-3.1241">
        <ele>12.441461</ele>
        <time>2021-12-01T12:11:50.000Z</time>
      </trkpt>
      <trkpt lat="47.50928" lon="-3.12412">
        <ele>12.336753</ele>
        <time>2021-12-01T12:11:51.000Z</time>
      </trkpt>
      <trkpt lat="47.5097" lon="-3.12425">
        <ele>11.518717</ele>
        <time>2021-12-01T12:11:59.000Z</time>
      </trkpt>
      <trkpt lat="47.51001" lon="-3.12427">
        <ele>10.942042</ele>
        <time>2021-12-01T12:12:04.000Z</time>
      </trkpt>
      <trkpt lat="47.51014" lon="-3.12426">
        <ele>10.690511</ele>
        <time>2021-12-01T12:12:06.000Z</time>
      </trkpt>
      <trkpt lat="47.51037" lon="-3.12429">
        <ele>10.252637</ele>
        <time>2021-12-01T12:12:10.000Z</time>
      </trkpt>
      <trkpt lat="47.51042" lon="-3.12434">
        <ele>10.13951</ele>
        <time>2021-12-01T12:12:11.000Z</time>
      </trkpt>
      <trkpt lat="47.51045" lon="-3.12439">
        <ele>10.053209</ele>
        <time>2021-12-01T12:12:12.000Z</time>
      </trkpt>
      <trkpt lat="47.51052" lon="-3.12453">
        <ele>9.884495</ele>
        <time>2021-12-01T12:12:15.000Z</time>
      </trkpt>
      <trkpt lat="47.51058" lon="-3.12467">
        <ele>9.86024</ele>
        <time>2021-12-01T12:12:16.000Z</time>
      </trkpt>
      <trkpt lat="47.51077" lon="-3.12504">
        <ele>9.792764</ele>
        <time>2021-12-01T12:12:22.000Z</time>
      </trkpt>
      <trkpt lat="47.51106" lon="-3.12563">
        <ele>9.687083</ele>
        <time>2021-12-01T12:12:32.000Z</time>
      </trkpt>
      <trkpt lat="47.5111" lon="-3.12575">
        <ele>9.667124</ele>
        <time>2021-12-01T12:12:34.000Z</time>
      </trkpt>
      <trkpt lat="47.51125" lon="-3.12605">
        <ele>9.614142</ele>
        <time>2021-12-01T12:12:39.000Z</time>
      </trkpt>
      <trkpt lat="47.51145" lon="-3.12644">
        <ele>9.542225</ele>
        <time>2021-12-01T12:12:47.000Z</time>
      </trkpt>
      <trkpt lat="47.51149" lon="-3.12647">
        <ele>9.533105</ele>
        <time>2021-12-01T12:12:48.000Z</time>
      </trkpt>
      <trkpt lat="47.51153" lon="-3.12649">
        <ele>9.524178</ele>
        <time>2021-12-01T12:12:49.000Z</time>
      </trkpt>
      <trkpt lat="47.51161" lon="-3.12651">
        <ele>9.505503</ele>
        <time>2021-12-01T12:12:51.000Z</time>
      </trkpt>
      <trkpt lat="47.51168" lon="-3.12652">
        <ele>9.432573</ele>
        <time>2021-12-01T12:12:52.000Z</time>
      </trkpt>
      <trkpt lat="47.5119" lon="-3.12652">
        <ele>9.152845</ele>
        <time>2021-12-01T12:12:56.000Z</time>
      </trkpt>
      <trkpt lat="47.51201" lon="-3.12653">
        <ele>9.024157</ele>
        <time>2021-12-01T12:12:58.000Z</time>
      </trkpt>
      <trkpt lat="47.5125" lon="-3.12659">
        <ele>8.408417</ele>
        <time>2021-12-01T12:13:07.000Z</time>
      </trkpt>
      <trkpt lat="47.51272" lon="-3.12663">
        <ele>8.136521</ele>
        <time>2021-12-01T12:13:11.000Z</time>
      </trkpt>
      <trkpt lat="47.51293" lon="-3.12668">
        <ele>7.868199</ele>
        <time>2021-12-01T12:13:15.000Z</time>
      </trkpt>
      <trkpt lat="47.51298" lon="-3.1267">
        <ele>7.804598</ele>
        <time>2021-12-01T12:13:16.000Z</time>
      </trkpt>
      <trkpt lat="47.51316" lon="-3.12685">
        <ele>7.549967</ele>
        <time>2021-12-01T12:13:20.000Z</time>
      </trkpt>
      <trkpt lat="47.51322" lon="-3.12691">
        <ele>7.465927</ele>
        <time>2021-12-01T12:13:21.000Z</time>
      </trkpt>
      <trkpt lat="47.51344" lon="-3.12717">
        <ele>7.400346</ele>
        <time>2021-12-01T12:13:26.000Z</time>
      </trkpt>
      <trkpt lat="47.51347" lon="-3.12721">
        <ele>7.436427</ele>
        <time>2021-12-01T12:13:27.000Z</time>
      </trkpt>
      <trkpt lat="47.51355" lon="-3.12734">
        <ele>7.539591</ele>
        <time>2021-12-01T12:13:29.000Z</time>
      </trkpt>
      <trkpt lat="47.51365" lon="-3.12752">
        <ele>7.679563</ele>
        <time>2021-12-01T12:13:32.000Z</time>
      </trkpt>
      <trkpt lat="47.51381" lon="-3.12772">
        <ele>7.868519</ele>
        <time>2021-12-01T12:13:36.000Z</time>
      </trkpt>
      <trkpt lat="47.51395" lon="-3.12781">
        <ele>8.007322</ele>
        <time>2021-12-01T12:13:39.000Z</time>
      </trkpt>
      <trkpt lat="47.51438" lon="-3.12801">
        <ele>8.411836</ele>
        <time>2021-12-01T12:13:48.000Z</time>
      </trkpt>
      <trkpt lat="47.51474" lon="-3.1281">
        <ele>8.736905</ele>
        <time>2021-12-01T12:13:56.000Z</time>
      </trkpt>
      <trkpt lat="47.51483" lon="-3.12814">
        <ele>8.82217</ele>
        <time>2021-12-01T12:13:58.000Z</time>
      </trkpt>
      <trkpt lat="47.51491" lon="-3.12818">
        <ele>8.904567</ele>
        <time>2021-12-01T12:14:00.000Z</time>
      </trkpt>
      <trkpt lat="47.51504" lon="-3.12825">
        <ele>9.189336</ele>
        <time>2021-12-01T12:14:03.000Z</time>
      </trkpt>
      <trkpt lat="47.51508" lon="-3.12825">
        <ele>9.275613</ele>
        <time>2021-12-01T12:14:04.000Z</time>
      </trkpt>
      <trkpt lat="47.51541" lon="-3.12827">
        <ele>9.936341</ele>
        <time>2021-12-01T12:14:11.000Z</time>
      </trkpt>
      <trkpt lat="47.51551" lon="-3.12825">
        <ele>10.14987</ele>
        <time>2021-12-01T12:14:13.000Z</time>
      </trkpt>
      <trkpt lat="47.51601" lon="-3.12816">
        <ele>11.186353</ele>
        <time>2021-12-01T12:14:23.000Z</time>
      </trkpt>
      <trkpt lat="47.51635" lon="-3.12811">
        <ele>11.886618</ele>
        <time>2021-12-01T12:14:30.000Z</time>
      </trkpt>
      <trkpt lat="47.51645" lon="-3.12811">
        <ele>12.074813</ele>
        <time>2021-12-01T12:14:32.000Z</time>
      </trkpt>
      <trkpt lat="47.51678" lon="-3.12811">
        <ele>12.638536</ele>
        <time>2021-12-01T12:14:39.000Z</time>
      </trkpt>
      <trkpt lat="47.51683" lon="-3.1281">
        <ele>12.680665</ele>
        <time>2021-12-01T12:14:40.000Z</time>
      </trkpt>
      <trkpt lat="47.51696" lon="-3.12806">
        <ele>12.787986</ele>
        <time>2021-12-01T12:14:43.000Z</time>
      </trkpt>
      <trkpt lat="47.51708" lon="-3.12801">
        <ele>12.883072</ele>
        <time>2021-12-01T12:14:46.000Z</time>
      </trkpt>
      <trkpt lat="47.51712" lon="-3.128">
        <ele>12.914464</ele>
        <time>2021-12-01T12:14:47.000Z</time>
      </trkpt>
      <trkpt lat="47.51724" lon="-3.12795">
        <ele>13.011203</ele>
        <time>2021-12-01T12:14:50.000Z</time>
      </trkpt>
      <trkpt lat="47.5174" lon="-3.12795">
        <ele>13.139364</ele>
        <time>2021-12-01T12:14:54.000Z</time>
      </trkpt>
      <trkpt lat="47.51748" lon="-3.12797">
        <ele>13.203809</ele>
        <time>2021-12-01T12:14:56.000Z</time>
      </trkpt>
      <trkpt lat="47.51762" lon="-3.12805">
        <ele>13.323995</ele>
        <time>2021-12-01T12:14:59.000Z</time>
      </trkpt>
      <trkpt lat="47.51796" lon="-3.12828">
        <ele>13.618997</ele>
        <time>2021-12-01T12:15:07.000Z</time>
      </trkpt>
      <trkpt lat="47.51809" lon="-3.12834">
        <ele>13.725923</ele>
        <time>2021-12-01T12:15:10.000Z</time>
      </trkpt>
      <trkpt lat="47.51829" lon="-3.1284">
        <ele>13.891067</ele>
        <time>2021-12-01T12:15:14.000Z</time>
      </trkpt>
      <trkpt lat="47.51872" lon="-3.12854">
        <ele>13.244168</ele>
        <time>2021-12-01T12:15:23.000Z</time>
      </trkpt>
      <trkpt lat="47.5191" lon="-3.12872">
        <ele>12.296881</ele>
        <time>2021-12-01T12:15:31.000Z</time>
      </trkpt>
      <trkpt lat="47.51918" lon="-3.12877">
        <ele>12.105051</ele>
        <time>2021-12-01T12:15:33.000Z</time>
      </trkpt>
      <trkpt lat="47.5195" lon="-3.12892">
        <ele>11.308184</ele>
        <time>2021-12-01T12:15:40.000Z</time>
      </trkpt>
      <trkpt lat="47.51964" lon="-3.129">
        <ele>10.94904</ele>
        <time>2021-12-01T12:15:43.000Z</time>
      </trkpt>
      <trkpt lat="47.51978" lon="-3.12907">
        <ele>10.613091</ele>
        <time>2021-12-01T12:15:46.000Z</time>
      </trkpt>
      <trkpt lat="47.51987" lon="-3.1291">
        <ele>10.374616</ele>
        <time>2021-12-01T12:15:48.000Z</time>
      </trkpt>
      <trkpt lat="47.51994" lon="-3.12912">
        <ele>10.222361</ele>
        <time>2021-12-01T12:15:49.000Z</time>
      </trkpt>
      <trkpt lat="47.52017" lon="-3.12918">
        <ele>9.692999</ele>
        <time>2021-12-01T12:15:54.000Z</time>
      </trkpt>
      <trkpt lat="47.52021" lon="-3.12918">
        <ele>9.642692</ele>
        <time>2021-12-01T12:15:55.000Z</time>
      </trkpt>
      <trkpt lat="47.52041" lon="-3.12913">
        <ele>9.365725</ele>
        <time>2021-12-01T12:15:59.000Z</time>
      </trkpt>
      <trkpt lat="47.52045" lon="-3.12914">
        <ele>9.311586</ele>
        <time>2021-12-01T12:16:01.000Z</time>
      </trkpt>
      <trkpt lat="47.52057" lon="-3.12919">
        <ele>9.14774</ele>
        <time>2021-12-01T12:16:02.000Z</time>
      </trkpt>
      <trkpt lat="47.52064" lon="-3.12927">
        <ele>9.024134</ele>
        <time>2021-12-01T12:16:04.000Z</time>
      </trkpt>
      <trkpt lat="47.52073" lon="-3.12936">
        <ele>8.882281</ele>
        <time>2021-12-01T12:16:06.000Z</time>
      </trkpt>
      <trkpt lat="47.52088" lon="-3.12949">
        <ele>8.644115</ele>
        <time>2021-12-01T12:16:10.000Z</time>
      </trkpt>
      <trkpt lat="47.52093" lon="-3.12953">
        <ele>8.574366</ele>
        <time>2021-12-01T12:16:11.000Z</time>
      </trkpt>
      <trkpt lat="47.52099" lon="-3.12959">
        <ele>8.47132</ele>
        <time>2021-12-01T12:16:13.000Z</time>
      </trkpt>
      <trkpt lat="47.52108" lon="-3.12967">
        <ele>8.33337</ele>
        <time>2021-12-01T12:16:16.000Z</time>
      </trkpt>
      <trkpt lat="47.52111" lon="-3.12974">
        <ele>8.25709</ele>
        <time>2021-12-01T12:16:18.000Z</time>
      </trkpt>
      <trkpt lat="47.52111" lon="-3.12978">
        <ele>8.220559</ele>
        <time>2021-12-01T12:16:19.000Z</time>
      </trkpt>
      <trkpt lat="47.52103" lon="-3.12994">
        <ele>8.045444</ele>
        <time>2021-12-01T12:16:24.000Z</time>
      </trkpt>
      <trkpt lat="47.52093" lon="-3.13022">
        <ele>7.753088</ele>
        <time>2021-12-01T12:16:31.000Z</time>
      </trkpt>
      <trkpt lat="47.52093" lon="-3.13029">
        <ele>7.685568</ele>
        <time>2021-12-01T12:16:33.000Z</time>
      </trkpt>
      <trkpt lat="47.52095" lon="-3.13032">
        <ele>7.654564</ele>
        <time>2021-12-01T12:16:34.000Z</time>
      </trkpt>
      <trkpt lat="47.52104" lon="-3.13042">
        <ele>7.500037</ele>
        <time>2021-12-01T12:16:39.000Z</time>
      </trkpt>
      <trkpt lat="47.52123" lon="-3.13062">
        <ele>7.502462</ele>
        <time>2021-12-01T12:16:44.000Z</time>
      </trkpt>
      <trkpt lat="47.52152" lon="-3.13094">
        <ele>8.17562</ele>
        <time>2021-12-01T12:16:53.000Z</time>
      </trkpt>
      <trkpt lat="47.52185" lon="-3.13131">
        <ele>8.945918</ele>
        <time>2021-12-01T12:17:02.000Z</time>
      </trkpt>
      <trkpt lat="47.52192" lon="-3.13139">
        <ele>9.114293</ele>
        <time>2021-12-01T12:17:04.000Z</time>
      </trkpt>
      <trkpt lat="47.5221" lon="-3.13152">
        <ele>9.507872</ele>
        <time>2021-12-01T12:17:09.000Z</time>
      </trkpt>
      <trkpt lat="47.52217" lon="-3.13157">
        <ele>9.648901</ele>
        <time>2021-12-01T12:17:11.000Z</time>
      </trkpt>
      <trkpt lat="47.52245" lon="-3.13176">
        <ele>10.221363</ele>
        <time>2021-12-01T12:17:18.000Z</time>
      </trkpt>
      <trkpt lat="47.52248" lon="-3.13178">
        <ele>10.301034</ele>
        <time>2021-12-01T12:17:19.000Z</time>
      </trkpt>
      <trkpt lat="47.5226" lon="-3.13186">
        <ele>10.547243</ele>
        <time>2021-12-01T12:17:22.000Z</time>
      </trkpt>
      <trkpt lat="47.52272" lon="-3.13193">
        <ele>10.816449</ele>
        <time>2021-12-01T12:17:25.000Z</time>
      </trkpt>
      <trkpt lat="47.5228" lon="-3.13197">
        <ele>11.096995</ele>
        <time>2021-12-01T12:17:27.000Z</time>
      </trkpt>
      <trkpt lat="47.52312" lon="-3.13209">
        <ele>12.099426</ele>
        <time>2021-12-01T12:17:36.000Z</time>
      </trkpt>
      <trkpt lat="47.52317" lon="-3.13212">
        <ele>12.272469</ele>
        <time>2021-12-01T12:17:38.000Z</time>
      </trkpt>
      <trkpt lat="47.52329" lon="-3.13216">
        <ele>12.654735</ele>
        <time>2021-12-01T12:17:42.000Z</time>
      </trkpt>
      <trkpt lat="47.52337" lon="-3.13226">
        <ele>12.964151</ele>
        <time>2021-12-01T12:17:45.000Z</time>
      </trkpt>
      <trkpt lat="47.52336" lon="-3.13231">
        <ele>13.068179</ele>
        <time>2021-12-01T12:17:46.000Z</time>
      </trkpt>
      <trkpt lat="47.52334" lon="-3.13253">
        <ele>13.522098</ele>
        <time>2021-12-01T12:17:50.000Z</time>
      </trkpt>
      <trkpt lat="47.52333" lon="-3.1326">
        <ele>13.671865</ele>
        <time>2021-12-01T12:17:52.000Z</time>
      </trkpt>
      <trkpt lat="47.52334" lon="-3.13294">
        <ele>14.370637</ele>
        <time>2021-12-01T12:17:57.000Z</time>
      </trkpt>
      <trkpt lat="47.52336" lon="-3.13323">
        <ele>14.989289</ele>
        <time>2021-12-01T12:18:02.000Z</time>
      </trkpt>
      <trkpt lat="47.52342" lon="-3.13354">
        <ele>15.671098</ele>
        <time>2021-12-01T12:18:09.000Z</time>
      </trkpt>
      <trkpt lat="47.52346" lon="-3.13361">
        <ele>15.851565</ele>
        <time>2021-12-01T12:18:10.000Z</time>
      </trkpt>
      <trkpt lat="47.52356" lon="-3.13365">
        <ele>16.155561</ele>
        <time>2021-12-01T12:18:13.000Z</time>
      </trkpt>
      <trkpt lat="47.52381" lon="-3.13368">
        <ele>16.55336</ele>
        <time>2021-12-01T12:18:19.000Z</time>
      </trkpt>
      <trkpt lat="47.52389" lon="-3.13368">
        <ele>16.67012</ele>
        <time>2021-12-01T12:18:21.000Z</time>
      </trkpt>
      <trkpt lat="47.52407" lon="-3.1337">
        <ele>16.926463</ele>
        <time>2021-12-01T12:18:26.000Z</time>
      </trkpt>
      <trkpt lat="47.52449" lon="-3.13374">
        <ele>17.520949</ele>
        <time>2021-12-01T12:18:35.000Z</time>
      </trkpt>
      <trkpt lat="47.52459" lon="-3.13375">
        <ele>17.653688</ele>
        <time>2021-12-01T12:18:36.000Z</time>
      </trkpt>
      <trkpt lat="47.52504" lon="-3.1338">
        <ele>18.296183</ele>
        <time>2021-12-01T12:18:45.000Z</time>
      </trkpt>
      <trkpt lat="47.52553" lon="-3.13385">
        <ele>18.599567</ele>
        <time>2021-12-01T12:18:54.000Z</time>
      </trkpt>
      <trkpt lat="47.5261" lon="-3.13391">
        <ele>17.933016</ele>
        <time>2021-12-01T12:19:03.000Z</time>
      </trkpt>
      <trkpt lat="47.52664" lon="-3.13396">
        <ele>17.305924</ele>
        <time>2021-12-01T12:19:11.000Z</time>
      </trkpt>
      <trkpt lat="47.52671" lon="-3.13397">
        <ele>17.225797</ele>
        <time>2021-12-01T12:19:12.000Z</time>
      </trkpt>
      <trkpt lat="47.52686" lon="-3.13399">
        <ele>17.053689</ele>
        <time>2021-12-01T12:19:14.000Z</time>
      </trkpt>
      <trkpt lat="47.52699" lon="-3.134">
        <ele>16.908458</ele>
        <time>2021-12-01T12:19:16.000Z</time>
      </trkpt>
      <trkpt lat="47.52733" lon="-3.13404">
        <ele>16.367211</ele>
        <time>2021-12-01T12:19:21.000Z</time>
      </trkpt>
      <trkpt lat="47.52767" lon="-3.13408">
        <ele>15.658691</ele>
        <time>2021-12-01T12:19:26.000Z</time>
      </trkpt>
      <trkpt lat="47.52799" lon="-3.13411">
        <ele>14.979085</ele>
        <time>2021-12-01T12:19:31.000Z</time>
      </trkpt>
      <trkpt lat="47.52819" lon="-3.13413">
        <ele>14.556037</ele>
        <time>2021-12-01T12:19:34.000Z</time>
      </trkpt>
      <trkpt lat="47.52842" lon="-3.13416">
        <ele>14.079465</ele>
        <time>2021-12-01T12:19:37.000Z</time>
      </trkpt>
      <trkpt lat="47.52862" lon="-3.13418">
        <ele>13.649103</ele>
        <time>2021-12-01T12:19:40.000Z</time>
      </trkpt>
      <trkpt lat="47.52892" lon="-3.13421">
        <ele>13.024531</ele>
        <time>2021-12-01T12:19:44.000Z</time>
      </trkpt>
      <trkpt lat="47.52929" lon="-3.13424">
        <ele>13.024955</ele>
        <time>2021-12-01T12:19:49.000Z</time>
      </trkpt>
      <trkpt lat="47.52988" lon="-3.13431">
        <ele>13.202082</ele>
        <time>2021-12-01T12:19:57.000Z</time>
      </trkpt>
      <trkpt lat="47.53002" lon="-3.13431">
        <ele>13.245154</ele>
        <time>2021-12-01T12:20:00.000Z</time>
      </trkpt>
      <trkpt lat="47.53053" lon="-3.13435">
        <ele>13.397358</ele>
        <time>2021-12-01T12:20:07.000Z</time>
      </trkpt>
      <trkpt lat="47.53097" lon="-3.13441">
        <ele>13.603634</ele>
        <time>2021-12-01T12:20:14.000Z</time>
      </trkpt>
      <trkpt lat="47.53126" lon="-3.13444">
        <ele>13.796116</ele>
        <time>2021-12-01T12:20:19.000Z</time>
      </trkpt>
      <trkpt lat="47.53126" lon="-3.13444">
        <ele>13.796116</ele>
        <time>2021-12-01T12:20:20.000Z</time>
      </trkpt>
      <trkpt lat="47.53155" lon="-3.13446">
        <ele>13.991626</ele>
        <time>2021-12-01T12:20:24.000Z</time>
      </trkpt>
      <trkpt lat="47.53166" lon="-3.13448">
        <ele>14.062322</ele>
        <time>2021-12-01T12:20:26.000Z</time>
      </trkpt>
      <trkpt lat="47.53173" lon="-3.13449">
        <ele>14.110789</ele>
        <time>2021-12-01T12:20:27.000Z</time>
      </trkpt>
      <trkpt lat="47.53196" lon="-3.13451">
        <ele>14.265467</ele>
        <time>2021-12-01T12:20:31.000Z</time>
      </trkpt>
      <trkpt lat="47.53246" lon="-3.13457">
        <ele>14.595631</ele>
        <time>2021-12-01T12:20:40.000Z</time>
      </trkpt>
      <trkpt lat="47.53298" lon="-3.13463">
        <ele>14.634419</ele>
        <time>2021-12-01T12:20:47.000Z</time>
      </trkpt>
      <trkpt lat="47.53355" lon="-3.13468">
        <ele>14.600568</ele>
        <time>2021-12-01T12:20:56.000Z</time>
      </trkpt>
      <trkpt lat="47.53366" lon="-3.13468">
        <ele>14.59377</ele>
        <time>2021-12-01T12:20:58.000Z</time>
      </trkpt>
      <trkpt lat="47.53391" lon="-3.13466">
        <ele>14.578845</ele>
        <time>2021-12-01T12:21:02.000Z</time>
      </trkpt>
      <trkpt lat="47.53404" lon="-3.13471">
        <ele>14.570683</ele>
        <time>2021-12-01T12:21:04.000Z</time>
      </trkpt>
      <trkpt lat="47.53434" lon="-3.13475">
        <ele>14.552641</ele>
        <time>2021-12-01T12:21:09.000Z</time>
      </trkpt>
      <trkpt lat="47.53492" lon="-3.13482">
        <ele>14.912814</ele>
        <time>2021-12-01T12:21:18.000Z</time>
      </trkpt>
      <trkpt lat="47.53498" lon="-3.13482">
        <ele>14.952065</ele>
        <time>2021-12-01T12:21:19.000Z</time>
      </trkpt>
      <trkpt lat="47.53528" lon="-3.13485">
        <ele>15.141235</ele>
        <time>2021-12-01T12:21:24.000Z</time>
      </trkpt>
      <trkpt lat="47.53556" lon="-3.13486">
        <ele>15.322077</ele>
        <time>2021-12-01T12:21:29.000Z</time>
      </trkpt>
      <trkpt lat="47.5359" lon="-3.13491">
        <ele>15.535135</ele>
        <time>2021-12-01T12:21:36.000Z</time>
      </trkpt>
      <trkpt lat="47.5361" lon="-3.13493">
        <ele>15.661743</ele>
        <time>2021-12-01T12:21:42.000Z</time>
      </trkpt>
      <trkpt lat="47.5362" lon="-3.13495">
        <ele>15.633513</ele>
        <time>2021-12-01T12:21:47.000Z</time>
      </trkpt>
      <trkpt lat="47.53622" lon="-3.13495">
        <ele>15.614956</ele>
        <time>2021-12-01T12:21:52.000Z</time>
      </trkpt>
      <trkpt lat="47.53624" lon="-3.13495">
        <ele>15.590916</ele>
        <time>2021-12-01T12:22:08.000Z</time>
      </trkpt>
      <trkpt lat="47.53643" lon="-3.13497">
        <ele>15.413549</ele>
        <time>2021-12-01T12:22:13.000Z</time>
      </trkpt>
      <trkpt lat="47.5365" lon="-3.13499">
        <ele>15.341635</ele>
        <time>2021-12-01T12:22:15.000Z</time>
      </trkpt>
      <trkpt lat="47.53654" lon="-3.13506">
        <ele>15.2816</ele>
        <time>2021-12-01T12:22:17.000Z</time>
      </trkpt>
      <trkpt lat="47.53655" lon="-3.13526">
        <ele>15.151976</ele>
        <time>2021-12-01T12:22:20.000Z</time>
      </trkpt>
      <trkpt lat="47.53655" lon="-3.13531">
        <ele>15.114273</ele>
        <time>2021-12-01T12:22:21.000Z</time>
      </trkpt>
      <trkpt lat="47.53653" lon="-3.13554">
        <ele>14.96589</ele>
        <time>2021-12-01T12:22:24.000Z</time>
      </trkpt>
      <trkpt lat="47.5365" lon="-3.13574">
        <ele>14.832841</ele>
        <time>2021-12-01T12:22:27.000Z</time>
      </trkpt>
      <trkpt lat="47.53637" lon="-3.13606">
        <ele>14.592049</ele>
        <time>2021-12-01T12:22:32.000Z</time>
      </trkpt>
      <trkpt lat="47.53628" lon="-3.13623">
        <ele>14.447777</ele>
        <time>2021-12-01T12:22:35.000Z</time>
      </trkpt>
      <trkpt lat="47.53623" lon="-3.13639">
        <ele>14.336253</ele>
        <time>2021-12-01T12:22:37.000Z</time>
      </trkpt>
      <trkpt lat="47.53622" lon="-3.13646">
        <ele>14.28761</ele>
        <time>2021-12-01T12:22:38.000Z</time>
      </trkpt>
      <trkpt lat="47.53619" lon="-3.13667">
        <ele>14.148363</ele>
        <time>2021-12-01T12:22:42.000Z</time>
      </trkpt>
      <trkpt lat="47.53624" lon="-3.1367">
        <ele>14.095831</ele>
        <time>2021-12-01T12:22:44.000Z</time>
      </trkpt>
      <trkpt lat="47.53627" lon="-3.13668">
        <ele>14.065585</ele>
        <time>2021-12-01T12:22:45.000Z</time>
      </trkpt>
      <trkpt lat="47.53635" lon="-3.13663">
        <ele>13.984225</ele>
        <time>2021-12-01T12:22:49.000Z</time>
      </trkpt>
      <trkpt lat="47.53635" lon="-3.13663">
        <ele>13.984225</ele>
        <time>2021-12-01T12:22:50.000Z</time>
      </trkpt>
      <trkpt lat="47.53637" lon="-3.13662">
        <ele>13.961507</ele>
        <time>2021-12-01T12:26:35.000Z</time>
      </trkpt>
      <trkpt lat="47.53644" lon="-3.13661">
        <ele>13.896497</ele>
        <time>2021-12-01T12:26:38.000Z</time>
      </trkpt>
      <trkpt lat="47.53664" lon="-3.13657">
        <ele>13.722096</ele>
        <time>2021-12-01T12:26:43.000Z</time>
      </trkpt>
      <trkpt lat="47.53695" lon="-3.1365">
        <ele>13.443549</ele>
        <time>2021-12-01T12:26:50.000Z</time>
      </trkpt>
      <trkpt lat="47.53699" lon="-3.13648">
        <ele>13.404297</ele>
        <time>2021-12-01T12:26:51.000Z</time>
      </trkpt>
      <trkpt lat="47.53707" lon="-3.13644">
        <ele>13.333823</ele>
        <time>2021-12-01T12:26:53.000Z</time>
      </trkpt>
      <trkpt lat="47.53724" lon="-3.13638">
        <ele>13.175332</ele>
        <time>2021-12-01T12:26:57.000Z</time>
      </trkpt>
      <trkpt lat="47.53764" lon="-3.13626">
        <ele>12.815167</ele>
        <time>2021-12-01T12:27:06.000Z</time>
      </trkpt>
      <trkpt lat="47.53769" lon="-3.13625">
        <ele>12.770828</ele>
        <time>2021-12-01T12:27:07.000Z</time>
      </trkpt>
      <trkpt lat="47.5378" lon="-3.13626">
        <ele>12.672523</ele>
        <time>2021-12-01T12:27:09.000Z</time>
      </trkpt>
      <trkpt lat="47.53789" lon="-3.13624">
        <ele>12.591938</ele>
        <time>2021-12-01T12:27:11.000Z</time>
      </trkpt>
      <trkpt lat="47.53795" lon="-3.13622">
        <ele>12.539902</ele>
        <time>2021-12-01T12:27:12.000Z</time>
      </trkpt>
      <trkpt lat="47.53817" lon="-3.13621">
        <ele>12.347791</ele>
        <time>2021-12-01T12:27:17.000Z</time>
      </trkpt>
      <trkpt lat="47.53849" lon="-3.13615">
        <ele>12.133962</ele>
        <time>2021-12-01T12:27:23.000Z</time>
      </trkpt>
      <trkpt lat="47.53854" lon="-3.13614">
        <ele>12.102153</ele>
        <time>2021-12-01T12:27:24.000Z</time>
      </trkpt>
      <trkpt lat="47.53867" lon="-3.13611">
        <ele>12.018691</ele>
        <time>2021-12-01T12:27:26.000Z</time>
      </trkpt>
      <trkpt lat="47.53886" lon="-3.13601">
        <ele>11.885908</ele>
        <time>2021-12-01T12:27:30.000Z</time>
      </trkpt>
      <trkpt lat="47.53897" lon="-3.13596">
        <ele>11.810638</ele>
        <time>2021-12-01T12:27:32.000Z</time>
      </trkpt>
      <trkpt lat="47.53906" lon="-3.13595">
        <ele>11.746459</ele>
        <time>2021-12-01T12:27:34.000Z</time>
      </trkpt>
      <trkpt lat="47.53913" lon="-3.13594">
        <ele>11.70403</ele>
        <time>2021-12-01T12:27:35.000Z</time>
      </trkpt>
      <trkpt lat="47.53944" lon="-3.13584">
        <ele>11.491135</ele>
        <time>2021-12-01T12:27:41.000Z</time>
      </trkpt>
      <trkpt lat="47.54001" lon="-3.13566">
        <ele>11.335253</ele>
        <time>2021-12-01T12:27:51.000Z</time>
      </trkpt>
      <trkpt lat="47.54047" lon="-3.13552">
        <ele>12.004324</ele>
        <time>2021-12-01T12:28:00.000Z</time>
      </trkpt>
      <trkpt lat="47.54061" lon="-3.13547">
        <ele>12.209886</ele>
        <time>2021-12-01T12:28:03.000Z</time>
      </trkpt>
      <trkpt lat="47.5407" lon="-3.13542">
        <ele>12.344546</ele>
        <time>2021-12-01T12:28:05.000Z</time>
      </trkpt>
      <trkpt lat="47.54078" lon="-3.13539">
        <ele>12.465399</ele>
        <time>2021-12-01T12:28:07.000Z</time>
      </trkpt>
      <trkpt lat="47.54116" lon="-3.13526">
        <ele>13.021008</ele>
        <time>2021-12-01T12:28:15.000Z</time>
      </trkpt>
      <trkpt lat="47.54149" lon="-3.13517">
        <ele>13.502916</ele>
        <time>2021-12-01T12:28:22.000Z</time>
      </trkpt>
      <trkpt lat="47.54198" lon="-3.13502">
        <ele>14.094013</ele>
        <time>2021-12-01T12:28:32.000Z</time>
      </trkpt>
      <trkpt lat="47.54208" lon="-3.135">
        <ele>14.207817</ele>
        <time>2021-12-01T12:28:34.000Z</time>
      </trkpt>
      <trkpt lat="47.54243" lon="-3.13491">
        <ele>14.582032</ele>
        <time>2021-12-01T12:28:41.000Z</time>
      </trkpt>
      <trkpt lat="47.54247" lon="-3.1349">
        <ele>14.628002</ele>
        <time>2021-12-01T12:28:42.000Z</time>
      </trkpt>
      <trkpt lat="47.54264" lon="-3.13486">
        <ele>14.807035</ele>
        <time>2021-12-01T12:28:47.000Z</time>
      </trkpt>
      <trkpt lat="47.54276" lon="-3.13482">
        <ele>14.941835</ele>
        <time>2021-12-01T12:28:51.000Z</time>
      </trkpt>
      <trkpt lat="47.54296" lon="-3.13477">
        <ele>15.161592</ele>
        <time>2021-12-01T12:28:56.000Z</time>
      </trkpt>
      <trkpt lat="47.54331" lon="-3.13468">
        <ele>15.539871</ele>
        <time>2021-12-01T12:29:04.000Z</time>
      </trkpt>
      <trkpt lat="47.54341" lon="-3.13465">
        <ele>15.645269</ele>
        <time>2021-12-01T12:29:06.000Z</time>
      </trkpt>
      <trkpt lat="47.54344" lon="-3.13464">
        <ele>15.651914</ele>
        <time>2021-12-01T12:29:07.000Z</time>
      </trkpt>
      <trkpt lat="47.54375" lon="-3.13455">
        <ele>15.402616</ele>
        <time>2021-12-01T12:29:13.000Z</time>
      </trkpt>
      <trkpt lat="47.54433" lon="-3.13439">
        <ele>14.925181</ele>
        <time>2021-12-01T12:29:24.000Z</time>
      </trkpt>
      <trkpt lat="47.54449" lon="-3.13435">
        <ele>14.794171</ele>
        <time>2021-12-01T12:29:27.000Z</time>
      </trkpt>
      <trkpt lat="47.54485" lon="-3.13425">
        <ele>14.498443</ele>
        <time>2021-12-01T12:29:34.000Z</time>
      </trkpt>
      <trkpt lat="47.54509" lon="-3.13419">
        <ele>14.303243</ele>
        <time>2021-12-01T12:29:39.000Z</time>
      </trkpt>
      <trkpt lat="47.54524" lon="-3.13414">
        <ele>14.164976</ele>
        <time>2021-12-01T12:29:42.000Z</time>
      </trkpt>
      <trkpt lat="47.54554" lon="-3.13407">
        <ele>13.878104</ele>
        <time>2021-12-01T12:29:48.000Z</time>
      </trkpt>
      <trkpt lat="47.54564" lon="-3.13405">
        <ele>13.778015</ele>
        <time>2021-12-01T12:29:50.000Z</time>
      </trkpt>
      <trkpt lat="47.54569" lon="-3.13405">
        <ele>13.733922</ele>
        <time>2021-12-01T12:29:51.000Z</time>
      </trkpt>
      <trkpt lat="47.54594" lon="-3.13409">
        <ele>13.488287</ele>
        <time>2021-12-01T12:29:57.000Z</time>
      </trkpt>
      <trkpt lat="47.54604" lon="-3.1341">
        <ele>13.399711</ele>
        <time>2021-12-01T12:29:59.000Z</time>
      </trkpt>
      <trkpt lat="47.54642" lon="-3.13414">
        <ele>13.031849</ele>
        <time>2021-12-01T12:30:07.000Z</time>
      </trkpt>
      <trkpt lat="47.54686" lon="-3.13415">
        <ele>12.611076</ele>
        <time>2021-12-01T12:30:16.000Z</time>
      </trkpt>
      <trkpt lat="47.5474" lon="-3.13416">
        <ele>12.324639</ele>
        <time>2021-12-01T12:30:27.000Z</time>
      </trkpt>
      <trkpt lat="47.54784" lon="-3.13417">
        <ele>12.147995</ele>
        <time>2021-12-01T12:30:36.000Z</time>
      </trkpt>
      <trkpt lat="47.54835" lon="-3.13419">
        <ele>11.946142</ele>
        <time>2021-12-01T12:30:46.000Z</time>
      </trkpt>
      <trkpt lat="47.5484" lon="-3.13419">
        <ele>11.926161</ele>
        <time>2021-12-01T12:30:47.000Z</time>
      </trkpt>
      <trkpt lat="47.54854" lon="-3.13419">
        <ele>11.868585</ele>
        <time>2021-12-01T12:30:50.000Z</time>
      </trkpt>
      <trkpt lat="47.54865" lon="-3.13421">
        <ele>11.823668</ele>
        <time>2021-12-01T12:30:52.000Z</time>
      </trkpt>
      <trkpt lat="47.5488" lon="-3.13421">
        <ele>11.77592</ele>
        <time>2021-12-01T12:30:55.000Z</time>
      </trkpt>
      <trkpt lat="47.54906" lon="-3.1342">
        <ele>11.831588</ele>
        <time>2021-12-01T12:31:00.000Z</time>
      </trkpt>
      <trkpt lat="47.54962" lon="-3.13422">
        <ele>11.953513</ele>
        <time>2021-12-01T12:31:11.000Z</time>
      </trkpt>
      <trkpt lat="47.55019" lon="-3.13424">
        <ele>12.075236</ele>
        <time>2021-12-01T12:31:22.000Z</time>
      </trkpt>
      <trkpt lat="47.55039" lon="-3.13425">
        <ele>12.118332</ele>
        <time>2021-12-01T12:31:26.000Z</time>
      </trkpt>
      <trkpt lat="47.55095" lon="-3.13428">
        <ele>11.718869</ele>
        <time>2021-12-01T12:31:37.000Z</time>
      </trkpt>
      <trkpt lat="47.551" lon="-3.13428">
        <ele>11.658387</ele>
        <time>2021-12-01T12:31:38.000Z</time>
      </trkpt>
      <trkpt lat="47.5515" lon="-3.13429">
        <ele>11.051135</ele>
        <time>2021-12-01T12:31:48.000Z</time>
      </trkpt>
      <trkpt lat="47.55169" lon="-3.13429">
        <ele>10.814031</ele>
        <time>2021-12-01T12:31:52.000Z</time>
      </trkpt>
      <trkpt lat="47.55183" lon="-3.13429">
        <ele>10.647091</ele>
        <time>2021-12-01T12:31:55.000Z</time>
      </trkpt>
      <trkpt lat="47.55211" lon="-3.1343">
        <ele>10.308365</ele>
        <time>2021-12-01T12:32:01.000Z</time>
      </trkpt>
      <trkpt lat="47.55214" lon="-3.1343">
        <ele>10.278113</ele>
        <time>2021-12-01T12:32:02.000Z</time>
      </trkpt>
      <trkpt lat="47.55216" lon="-3.13427">
        <ele>10.244547</ele>
        <time>2021-12-01T12:32:05.000Z</time>
      </trkpt>
      <trkpt lat="47.55216" lon="-3.13427">
        <ele>10.244547</ele>
        <time>2021-12-01T12:32:06.000Z</time>
      </trkpt>
      <trkpt lat="47.55217" lon="-3.13421">
        <ele>10.186917</ele>
        <time>2021-12-01T12:32:11.000Z</time>
      </trkpt>
      <trkpt lat="47.55221" lon="-3.13417">
        <ele>10.127613</ele>
        <time>2021-12-01T12:32:13.000Z</time>
      </trkpt>
      <trkpt lat="47.55228" lon="-3.13412">
        <ele>10.04192</ele>
        <time>2021-12-01T12:32:15.000Z</time>
      </trkpt>
      <trkpt lat="47.55231" lon="-3.13404">
        <ele>9.978288</ele>
        <time>2021-12-01T12:32:17.000Z</time>
      </trkpt>
      <trkpt lat="47.55231" lon="-3.13391">
        <ele>9.930743</ele>
        <time>2021-12-01T12:32:19.000Z</time>
      </trkpt>
      <trkpt lat="47.55231" lon="-3.1338">
        <ele>9.888466</ele>
        <time>2021-12-01T12:32:21.000Z</time>
      </trkpt>
      <trkpt lat="47.55231" lon="-3.13376">
        <ele>9.874364</ele>
        <time>2021-12-01T12:32:22.000Z</time>
      </trkpt>
      <trkpt lat="47.55232" lon="-3.13372">
        <ele>9.859041</ele>
        <time>2021-12-01T12:32:23.000Z</time>
      </trkpt>
      <trkpt lat="47.55237" lon="-3.13366">
        <ele>9.821662</ele>
        <time>2021-12-01T12:32:25.000Z</time>
      </trkpt>
      <trkpt lat="47.55253" lon="-3.13366">
        <ele>9.734839</ele>
        <time>2021-12-01T12:32:29.000Z</time>
      </trkpt>
      <trkpt lat="47.55284" lon="-3.13367">
        <ele>9.563917</ele>
        <time>2021-12-01T12:32:35.000Z</time>
      </trkpt>
      <trkpt lat="47.55318" lon="-3.13367">
        <ele>9.37656</ele>
        <time>2021-12-01T12:32:42.000Z</time>
      </trkpt>
      <trkpt lat="47.55341" lon="-3.13366">
        <ele>9.246281</ele>
        <time>2021-12-01T12:32:47.000Z</time>
      </trkpt>
      <trkpt lat="47.5535" lon="-3.13367">
        <ele>9.197896</ele>
        <time>2021-12-01T12:32:49.000Z</time>
      </trkpt>
      <trkpt lat="47.55354" lon="-3.13367">
        <ele>9.178103</ele>
        <time>2021-12-01T12:32:50.000Z</time>
      </trkpt>
      <trkpt lat="47.55374" lon="-3.13368">
        <ele>9.069225</ele>
        <time>2021-12-01T12:32:54.000Z</time>
      </trkpt>
      <trkpt lat="47.55378" lon="-3.13368">
        <ele>9.047682</ele>
        <time>2021-12-01T12:32:55.000Z</time>
      </trkpt>
      <trkpt lat="47.55416" lon="-3.13368">
        <ele>8.851665</ele>
        <time>2021-12-01T12:33:03.000Z</time>
      </trkpt>
      <trkpt lat="47.55424" lon="-3.13368">
        <ele>8.813825</ele>
        <time>2021-12-01T12:33:05.000Z</time>
      </trkpt>
      <trkpt lat="47.55439" lon="-3.13367">
        <ele>8.742481</ele>
        <time>2021-12-01T12:33:09.000Z</time>
      </trkpt>
      <trkpt lat="47.55466" lon="-3.13369">
        <ele>8.605764</ele>
        <time>2021-12-01T12:33:15.000Z</time>
      </trkpt>
      <trkpt lat="47.55515" lon="-3.1337">
        <ele>8.365525</ele>
        <time>2021-12-01T12:33:24.000Z</time>
      </trkpt>
      <trkpt lat="47.55568" lon="-3.13371">
        <ele>8.117098</ele>
        <time>2021-12-01T12:33:34.000Z</time>
      </trkpt>
      <trkpt lat="47.55615" lon="-3.13372">
        <ele>8.261198</ele>
        <time>2021-12-01T12:33:43.000Z</time>
      </trkpt>
      <trkpt lat="47.55626" lon="-3.13371">
        <ele>8.294097</ele>
        <time>2021-12-01T12:33:45.000Z</time>
      </trkpt>
      <trkpt lat="47.55662" lon="-3.13371">
        <ele>8.407469</ele>
        <time>2021-12-01T12:33:52.000Z</time>
      </trkpt>
      <trkpt lat="47.55721" lon="-3.1337">
        <ele>8.587218</ele>
        <time>2021-12-01T12:34:03.000Z</time>
      </trkpt>
      <trkpt lat="47.55749" lon="-3.13371">
        <ele>8.695571</ele>
        <time>2021-12-01T12:34:09.000Z</time>
      </trkpt>
      <trkpt lat="47.55759" lon="-3.1337">
        <ele>8.82036</ele>
        <time>2021-12-01T12:34:11.000Z</time>
      </trkpt>
      <trkpt lat="47.55767" lon="-3.1337">
        <ele>8.925959</ele>
        <time>2021-12-01T12:34:13.000Z</time>
      </trkpt>
      <trkpt lat="47.55786" lon="-3.13369">
        <ele>9.166293</ele>
        <time>2021-12-01T12:34:17.000Z</time>
      </trkpt>
      <trkpt lat="47.5579" lon="-3.13367">
        <ele>9.210225</ele>
        <time>2021-12-01T12:34:18.000Z</time>
      </trkpt>
      <trkpt lat="47.55798" lon="-3.13365">
        <ele>9.323016</ele>
        <time>2021-12-01T12:34:20.000Z</time>
      </trkpt>
      <trkpt lat="47.55812" lon="-3.13366">
        <ele>9.498082</ele>
        <time>2021-12-01T12:34:24.000Z</time>
      </trkpt>
      <trkpt lat="47.55828" lon="-3.13368">
        <ele>9.701094</ele>
        <time>2021-12-01T12:34:29.000Z</time>
      </trkpt>
      <trkpt lat="47.55851" lon="-3.13367">
        <ele>9.980224</ele>
        <time>2021-12-01T12:34:34.000Z</time>
      </trkpt>
      <trkpt lat="47.55885" lon="-3.13366">
        <ele>10.407735</ele>
        <time>2021-12-01T12:34:42.000Z</time>
      </trkpt>
      <trkpt lat="47.55901" lon="-3.13364">
        <ele>10.614324</ele>
        <time>2021-12-01T12:34:47.000Z</time>
      </trkpt>
      <trkpt lat="47.55903" lon="-3.13362">
        <ele>10.646832</ele>
        <time>2021-12-01T12:34:48.000Z</time>
      </trkpt>
      <trkpt lat="47.55906" lon="-3.13355">
        <ele>10.715223</ele>
        <time>2021-12-01T12:34:50.000Z</time>
      </trkpt>
      <trkpt lat="47.55906" lon="-3.13346">
        <ele>10.787324</ele>
        <time>2021-12-01T12:34:52.000Z</time>
      </trkpt>
      <trkpt lat="47.5591" lon="-3.13326">
        <ele>10.859687</ele>
        <time>2021-12-01T12:34:56.000Z</time>
      </trkpt>
      <trkpt lat="47.55917" lon="-3.13321">
        <ele>10.715009</ele>
        <time>2021-12-01T12:34:59.000Z</time>
      </trkpt>
      <trkpt lat="47.55918" lon="-3.13321">
        <ele>10.681739</ele>
        <time>2021-12-01T12:35:00.000Z</time>
      </trkpt>
      <trkpt lat="47.55929" lon="-3.13323">
        <ele>10.468749</ele>
        <time>2021-12-01T12:35:05.000Z</time>
      </trkpt>
      <trkpt lat="47.55932" lon="-3.13323">
        <ele>10.408704</ele>
        <time>2021-12-01T12:35:06.000Z</time>
      </trkpt>
      <trkpt lat="47.55945" lon="-3.1332">
        <ele>10.162446</ele>
        <time>2021-12-01T12:35:10.000Z</time>
      </trkpt>
      <trkpt lat="47.55948" lon="-3.1332">
        <ele>10.103936</ele>
        <time>2021-12-01T12:35:11.000Z</time>
      </trkpt>
      <trkpt lat="47.5596" lon="-3.13317">
        <ele>9.857278</ele>
        <time>2021-12-01T12:35:17.000Z</time>
      </trkpt>
      <trkpt lat="47.55966" lon="-3.13314">
        <ele>9.748954</ele>
        <time>2021-12-01T12:35:22.000Z</time>
      </trkpt>
      <trkpt lat="47.55967" lon="-3.13312">
        <ele>9.717281</ele>
        <time>2021-12-01T12:35:23.000Z</time>
      </trkpt>
      <trkpt lat="47.55968" lon="-3.1331">
        <ele>9.683338</ele>
        <time>2021-12-01T12:35:28.000Z</time>
      </trkpt>
      <trkpt lat="47.55969" lon="-3.13308">
        <ele>9.650336</ele>
        <time>2021-12-01T12:35:29.000Z</time>
      </trkpt>
      <trkpt lat="47.5597" lon="-3.13307">
        <ele>9.618662</ele>
        <time>2021-12-01T12:35:30.000Z</time>
      </trkpt>
      <trkpt lat="47.55972" lon="-3.13305">
        <ele>9.58566</ele>
        <time>2021-12-01T12:35:32.000Z</time>
      </trkpt>
      <trkpt lat="47.55973" lon="-3.13303">
        <ele>9.552658</ele>
        <time>2021-12-01T12:35:37.000Z</time>
      </trkpt>
      <trkpt lat="47.55974" lon="-3.13301">
        <ele>9.519655</ele>
        <time>2021-12-01T12:35:38.000Z</time>
      </trkpt>
      <trkpt lat="47.55975" lon="-3.13299">
        <ele>9.487003</ele>
        <time>2021-12-01T12:35:41.000Z</time>
      </trkpt>
      <trkpt lat="47.55976" lon="-3.13297">
        <ele>9.454001</ele>
        <time>2021-12-01T12:35:42.000Z</time>
      </trkpt>
      <trkpt lat="47.55977" lon="-3.13296">
        <ele>9.420999</ele>
        <time>2021-12-01T12:35:47.000Z</time>
      </trkpt>
      <trkpt lat="47.55979" lon="-3.13294">
        <ele>9.389325</ele>
        <time>2021-12-01T12:35:48.000Z</time>
      </trkpt>
      <trkpt lat="47.5598" lon="-3.13292">
        <ele>9.356323</ele>
        <time>2021-12-01T12:35:53.000Z</time>
      </trkpt>
      <trkpt lat="47.55981" lon="-3.1329">
        <ele>9.322381</ele>
        <time>2021-12-01T12:35:55.000Z</time>
      </trkpt>
      <trkpt lat="47.55982" lon="-3.13288">
        <ele>9.290707</ele>
        <time>2021-12-01T12:36:31.000Z</time>
      </trkpt>
      <trkpt lat="47.55983" lon="-3.13287">
        <ele>9.257705</ele>
        <time>2021-12-01T12:36:32.000Z</time>
      </trkpt>
      <trkpt lat="47.55987" lon="-3.13281">
        <ele>9.151922</ele>
        <time>2021-12-01T12:36:33.000Z</time>
      </trkpt>
      <trkpt lat="47.55999" lon="-3.13266">
        <ele>8.857828</ele>
        <time>2021-12-01T12:36:36.000Z</time>
      </trkpt>
      <trkpt lat="47.56015" lon="-3.13247">
        <ele>8.457424</ele>
        <time>2021-12-01T12:36:41.000Z</time>
      </trkpt>
      <trkpt lat="47.56021" lon="-3.13242">
        <ele>8.3267</ele>
        <time>2021-12-01T12:36:43.000Z</time>
      </trkpt>
      <trkpt lat="47.56037" lon="-3.13236">
        <ele>8.006453</ele>
        <time>2021-12-01T12:36:48.000Z</time>
      </trkpt>
      <trkpt lat="47.56055" lon="-3.13224">
        <ele>7.614356</ele>
        <time>2021-12-01T12:36:53.000Z</time>
      </trkpt>
      <trkpt lat="47.56065" lon="-3.13206">
        <ele>7.488775</ele>
        <time>2021-12-01T12:36:57.000Z</time>
      </trkpt>
      <trkpt lat="47.56074" lon="-3.13168">
        <ele>7.636372</ele>
        <time>2021-12-01T12:37:03.000Z</time>
      </trkpt>
      <trkpt lat="47.56081" lon="-3.13144">
        <ele>7.734094</ele>
        <time>2021-12-01T12:37:08.000Z</time>
      </trkpt>
      <trkpt lat="47.56082" lon="-3.13128">
        <ele>7.793553</ele>
        <time>2021-12-01T12:37:13.000Z</time>
      </trkpt>
      <trkpt lat="47.56089" lon="-3.13122">
        <ele>7.837155</ele>
        <time>2021-12-01T12:37:18.000Z</time>
      </trkpt>
      <trkpt lat="47.56091" lon="-3.1312">
        <ele>7.851917</ele>
        <time>2021-12-01T12:37:19.000Z</time>
      </trkpt>
      <trkpt lat="47.561" lon="-3.13115">
        <ele>7.905343</ele>
        <time>2021-12-01T12:37:22.000Z</time>
      </trkpt>
      <trkpt lat="47.56107" lon="-3.1311">
        <ele>7.944512</ele>
        <time>2021-12-01T12:37:25.000Z</time>
      </trkpt>
      <trkpt lat="47.56109" lon="-3.13108">
        <ele>7.959914</ele>
        <time>2021-12-01T12:37:26.000Z</time>
      </trkpt>
      <trkpt lat="47.56112" lon="-3.131">
        <ele>7.993199</ele>
        <time>2021-12-01T12:37:28.000Z</time>
      </trkpt>
      <trkpt lat="47.56112" lon="-3.13095">
        <ele>8.012067</ele>
        <time>2021-12-01T12:37:29.000Z</time>
      </trkpt>
      <trkpt lat="47.5611" lon="-3.13074">
        <ele>8.090842</ele>
        <time>2021-12-01T12:37:33.000Z</time>
      </trkpt>
      <trkpt lat="47.56111" lon="-3.13068">
        <ele>8.111523</ele>
        <time>2021-12-01T12:37:34.000Z</time>
      </trkpt>
      <trkpt lat="47.56112" lon="-3.13053">
        <ele>8.167612</ele>
        <time>2021-12-01T12:37:36.000Z</time>
      </trkpt>
      <trkpt lat="47.56112" lon="-3.13047">
        <ele>8.192383</ele>
        <time>2021-12-01T12:37:37.000Z</time>
      </trkpt>
      <trkpt lat="47.56112" lon="-3.13011">
        <ele>8.323509</ele>
        <time>2021-12-01T12:37:43.000Z</time>
      </trkpt>
      <trkpt lat="47.56114" lon="-3.1298">
        <ele>8.441513</ele>
        <time>2021-12-01T12:37:48.000Z</time>
      </trkpt>
      <trkpt lat="47.56114" lon="-3.12975">
        <ele>8.482774</ele>
        <time>2021-12-01T12:37:49.000Z</time>
      </trkpt>
      <trkpt lat="47.5612" lon="-3.12935">
        <ele>8.775171</ele>
        <time>2021-12-01T12:37:56.000Z</time>
      </trkpt>
      <trkpt lat="47.56121" lon="-3.12927">
        <ele>8.833597</ele>
        <time>2021-12-01T12:37:58.000Z</time>
      </trkpt>
      <trkpt lat="47.56122" lon="-3.12924">
        <ele>8.858312</ele>
        <time>2021-12-01T12:37:59.000Z</time>
      </trkpt>
      <trkpt lat="47.56124" lon="-3.12921">
        <ele>8.884121</ele>
        <time>2021-12-01T12:38:00.000Z</time>
      </trkpt>
      <trkpt lat="47.56129" lon="-3.12905">
        <ele>9.014445</ele>
        <time>2021-12-01T12:38:05.000Z</time>
      </trkpt>
      <trkpt lat="47.56135" lon="-3.12898">
        <ele>9.094789</ele>
        <time>2021-12-01T12:38:08.000Z</time>
      </trkpt>
      <trkpt lat="47.56144" lon="-3.12892">
        <ele>9.197954</ele>
        <time>2021-12-01T12:38:11.000Z</time>
      </trkpt>
      <trkpt lat="47.56152" lon="-3.12887">
        <ele>9.298149</ele>
        <time>2021-12-01T12:38:14.000Z</time>
      </trkpt>
      <trkpt lat="47.56161" lon="-3.12883">
        <ele>9.399568</ele>
        <time>2021-12-01T12:38:18.000Z</time>
      </trkpt>
      <trkpt lat="47.56162" lon="-3.12883">
        <ele>9.406361</ele>
        <time>2021-12-01T12:38:21.000Z</time>
      </trkpt>
      <trkpt lat="47.56165" lon="-3.12881">
        <ele>9.447604</ele>
        <time>2021-12-01T12:38:49.000Z</time>
      </trkpt>
      <trkpt lat="47.56186" lon="-3.12878">
        <ele>9.66873</ele>
        <time>2021-12-01T12:38:54.000Z</time>
      </trkpt>
      <trkpt lat="47.56207" lon="-3.12872">
        <ele>9.896312</ele>
        <time>2021-12-01T12:38:59.000Z</time>
      </trkpt>
      <trkpt lat="47.56212" lon="-3.1287">
        <ele>9.948972</ele>
        <time>2021-12-01T12:39:00.000Z</time>
      </trkpt>
      <trkpt lat="47.56221" lon="-3.12864">
        <ele>10.061022</ele>
        <time>2021-12-01T12:39:03.000Z</time>
      </trkpt>
      <trkpt lat="47.56234" lon="-3.12855">
        <ele>10.218754</ele>
        <time>2021-12-01T12:39:07.000Z</time>
      </trkpt>
      <trkpt lat="47.56247" lon="-3.12846">
        <ele>10.362894</ele>
        <time>2021-12-01T12:39:11.000Z</time>
      </trkpt>
      <trkpt lat="47.56265" lon="-3.12837">
        <ele>10.264401</ele>
        <time>2021-12-01T12:39:15.000Z</time>
      </trkpt>
      <trkpt lat="47.56285" lon="-3.12826">
        <ele>10.157494</ele>
        <time>2021-12-01T12:39:20.000Z</time>
      </trkpt>
      <trkpt lat="47.56305" lon="-3.12814">
        <ele>10.047098</ele>
        <time>2021-12-01T12:39:25.000Z</time>
      </trkpt>
      <trkpt lat="47.56317" lon="-3.12802">
        <ele>9.970166</ele>
        <time>2021-12-01T12:39:29.000Z</time>
      </trkpt>
      <trkpt lat="47.56335" lon="-3.12792">
        <ele>9.872169</ele>
        <time>2021-12-01T12:39:34.000Z</time>
      </trkpt>
      <trkpt lat="47.56351" lon="-3.12788">
        <ele>9.788943</ele>
        <time>2021-12-01T12:39:39.000Z</time>
      </trkpt>
      <trkpt lat="47.56357" lon="-3.12786">
        <ele>9.760481</ele>
        <time>2021-12-01T12:39:41.000Z</time>
      </trkpt>
      <trkpt lat="47.56363" lon="-3.12781">
        <ele>9.722059</ele>
        <time>2021-12-01T12:39:43.000Z</time>
      </trkpt>
      <trkpt lat="47.5638" lon="-3.12773">
        <ele>9.635325</ele>
        <time>2021-12-01T12:39:48.000Z</time>
      </trkpt>
      <trkpt lat="47.56395" lon="-3.12764">
        <ele>9.551288</ele>
        <time>2021-12-01T12:39:53.000Z</time>
      </trkpt>
      <trkpt lat="47.56416" lon="-3.12753">
        <ele>9.448916</ele>
        <time>2021-12-01T12:40:00.000Z</time>
      </trkpt>
      <trkpt lat="47.56437" lon="-3.12743">
        <ele>9.496049</ele>
        <time>2021-12-01T12:40:06.000Z</time>
      </trkpt>
      <trkpt lat="47.56464" lon="-3.1273">
        <ele>9.560143</ele>
        <time>2021-12-01T12:40:12.000Z</time>
      </trkpt>
      <trkpt lat="47.56477" lon="-3.12721">
        <ele>9.590783</ele>
        <time>2021-12-01T12:40:16.000Z</time>
      </trkpt>
      <trkpt lat="47.56493" lon="-3.12701">
        <ele>9.63815</ele>
        <time>2021-12-01T12:40:22.000Z</time>
      </trkpt>
      <trkpt lat="47.56509" lon="-3.12686">
        <ele>9.680496</ele>
        <time>2021-12-01T12:40:27.000Z</time>
      </trkpt>
      <trkpt lat="47.56531" lon="-3.12665">
        <ele>9.738124</ele>
        <time>2021-12-01T12:40:33.000Z</time>
      </trkpt>
      <trkpt lat="47.56538" lon="-3.12657">
        <ele>9.756535</ele>
        <time>2021-12-01T12:40:35.000Z</time>
      </trkpt>
      <trkpt lat="47.56549" lon="-3.12648">
        <ele>9.786268</ele>
        <time>2021-12-01T12:40:38.000Z</time>
      </trkpt>
      <trkpt lat="47.56574" lon="-3.12621">
        <ele>9.855252</ele>
        <time>2021-12-01T12:40:45.000Z</time>
      </trkpt>
      <trkpt lat="47.56577" lon="-3.12617">
        <ele>9.865961</ele>
        <time>2021-12-01T12:40:46.000Z</time>
      </trkpt>
      <trkpt lat="47.56581" lon="-3.12614">
        <ele>9.875957</ele>
        <time>2021-12-01T12:40:47.000Z</time>
      </trkpt>
      <trkpt lat="47.56589" lon="-3.12606">
        <ele>9.901919</ele>
        <time>2021-12-01T12:40:50.000Z</time>
      </trkpt>
      <trkpt lat="47.56592" lon="-3.12603">
        <ele>9.911135</ele>
        <time>2021-12-01T12:40:51.000Z</time>
      </trkpt>
      <trkpt lat="47.5661" lon="-3.12583">
        <ele>9.967143</ele>
        <time>2021-12-01T12:40:57.000Z</time>
      </trkpt>
      <trkpt lat="47.56617" lon="-3.12576">
        <ele>9.989376</ele>
        <time>2021-12-01T12:41:00.000Z</time>
      </trkpt>
      <trkpt lat="47.5662" lon="-3.12575">
        <ele>9.996688</ele>
        <time>2021-12-01T12:41:01.000Z</time>
      </trkpt>
      <trkpt lat="47.56633" lon="-3.12563">
        <ele>10.035181</ele>
        <time>2021-12-01T12:41:05.000Z</time>
      </trkpt>
      <trkpt lat="47.56636" lon="-3.12554">
        <ele>10.051814</ele>
        <time>2021-12-01T12:41:07.000Z</time>
      </trkpt>
      <trkpt lat="47.56636" lon="-3.12551">
        <ele>10.058028</ele>
        <time>2021-12-01T12:41:08.000Z</time>
      </trkpt>
      <trkpt lat="47.56635" lon="-3.1255">
        <ele>10.060475</ele>
        <time>2021-12-01T12:41:12.000Z</time>
      </trkpt>
      <trkpt lat="47.56637" lon="-3.1255">
        <ele>10.064584</ele>
        <time>2021-12-01T12:41:58.000Z</time>
      </trkpt>
      <trkpt lat="47.5664" lon="-3.12551">
        <ele>10.073825</ele>
        <time>2021-12-01T12:42:01.000Z</time>
      </trkpt>
      <trkpt lat="47.56645" lon="-3.12551">
        <ele>10.084742</ele>
        <time>2021-12-01T12:42:05.000Z</time>
      </trkpt>
      <trkpt lat="47.56649" lon="-3.12551">
        <ele>10.094667</ele>
        <time>2021-12-01T12:42:10.000Z</time>
      </trkpt>
      <trkpt lat="47.56661" lon="-3.12545">
        <ele>10.128132</ele>
        <time>2021-12-01T12:42:14.000Z</time>
      </trkpt>
      <trkpt lat="47.56688" lon="-3.12528">
        <ele>10.201606</ele>
        <time>2021-12-01T12:42:21.000Z</time>
      </trkpt>
      <trkpt lat="47.56725" lon="-3.12507">
        <ele>10.308374</ele>
        <time>2021-12-01T12:42:30.000Z</time>
      </trkpt>
      <trkpt lat="47.56741" lon="-3.125">
        <ele>10.401163</ele>
        <time>2021-12-01T12:42:34.000Z</time>
      </trkpt>
      <trkpt lat="47.56747" lon="-3.12496">
        <ele>10.442729</ele>
        <time>2021-12-01T12:42:36.000Z</time>
      </trkpt>
      <trkpt lat="47.56751" lon="-3.12494">
        <ele>10.463618</ele>
        <time>2021-12-01T12:42:37.000Z</time>
      </trkpt>
      <trkpt lat="47.56753" lon="-3.12491">
        <ele>10.481514</ele>
        <time>2021-12-01T12:42:38.000Z</time>
      </trkpt>
      <trkpt lat="47.5676" lon="-3.12486">
        <ele>10.528288</ele>
        <time>2021-12-01T12:42:40.000Z</time>
      </trkpt>
      <trkpt lat="47.56782" lon="-3.12475">
        <ele>10.661082</ele>
        <time>2021-12-01T12:42:45.000Z</time>
      </trkpt>
      <trkpt lat="47.56798" lon="-3.1247">
        <ele>10.755839</ele>
        <time>2021-12-01T12:42:49.000Z</time>
      </trkpt>
      <trkpt lat="47.56819" lon="-3.12465">
        <ele>10.877076</ele>
        <time>2021-12-01T12:42:54.000Z</time>
      </trkpt>
      <trkpt lat="47.56847" lon="-3.12451">
        <ele>11.049063</ele>
        <time>2021-12-01T12:43:00.000Z</time>
      </trkpt>
      <trkpt lat="47.56863" lon="-3.12442">
        <ele>11.147485</ele>
        <time>2021-12-01T12:43:04.000Z</time>
      </trkpt>
      <trkpt lat="47.5688" lon="-3.12435">
        <ele>11.247143</ele>
        <time>2021-12-01T12:43:08.000Z</time>
      </trkpt>
      <trkpt lat="47.56903" lon="-3.12428">
        <ele>11.386164</ele>
        <time>2021-12-01T12:43:12.000Z</time>
      </trkpt>
      <trkpt lat="47.56935" lon="-3.1242">
        <ele>11.595162</ele>
        <time>2021-12-01T12:43:19.000Z</time>
      </trkpt>
      <trkpt lat="47.56952" lon="-3.12422">
        <ele>11.704897</ele>
        <time>2021-12-01T12:43:23.000Z</time>
      </trkpt>
      <trkpt lat="47.5696" lon="-3.12426">
        <ele>11.755612</ele>
        <time>2021-12-01T12:43:25.000Z</time>
      </trkpt>
      <trkpt lat="47.56996" lon="-3.12435">
        <ele>11.984952</ele>
        <time>2021-12-01T12:43:33.000Z</time>
      </trkpt>
      <trkpt lat="47.57021" lon="-3.12439">
        <ele>12.144926</ele>
        <time>2021-12-01T12:43:39.000Z</time>
      </trkpt>
      <trkpt lat="47.57029" lon="-3.12442">
        <ele>12.199229</ele>
        <time>2021-12-01T12:43:41.000Z</time>
      </trkpt>
      <trkpt lat="47.57055" lon="-3.12454">
        <ele>12.373408</ele>
        <time>2021-12-01T12:43:47.000Z</time>
      </trkpt>
      <trkpt lat="47.57062" lon="-3.1246">
        <ele>12.426123</ele>
        <time>2021-12-01T12:43:49.000Z</time>
      </trkpt>
      <trkpt lat="47.57065" lon="-3.12463">
        <ele>12.446826</ele>
        <time>2021-12-01T12:43:50.000Z</time>
      </trkpt>
      <trkpt lat="47.5708" lon="-3.12481">
        <ele>12.422824</ele>
        <time>2021-12-01T12:43:55.000Z</time>
      </trkpt>
      <trkpt lat="47.57088" lon="-3.12497">
        <ele>12.364664</ele>
        <time>2021-12-01T12:43:58.000Z</time>
      </trkpt>
      <trkpt lat="47.57095" lon="-3.12507">
        <ele>12.326162</ele>
        <time>2021-12-01T12:44:00.000Z</time>
      </trkpt>
      <trkpt lat="47.57113" lon="-3.12538">
        <ele>12.206835</ele>
        <time>2021-12-01T12:44:06.000Z</time>
      </trkpt>
      <trkpt lat="47.57145" lon="-3.12591">
        <ele>12.00284</ele>
        <time>2021-12-01T12:44:16.000Z</time>
      </trkpt>
      <trkpt lat="47.57177" lon="-3.12636">
        <ele>11.817258</ele>
        <time>2021-12-01T12:44:24.000Z</time>
      </trkpt>
      <trkpt lat="47.57198" lon="-3.12663">
        <ele>11.673904</ele>
        <time>2021-12-01T12:44:30.000Z</time>
      </trkpt>
      <trkpt lat="47.57201" lon="-3.12666">
        <ele>11.638968</ele>
        <time>2021-12-01T12:44:31.000Z</time>
      </trkpt>
      <trkpt lat="47.5722" lon="-3.12701">
        <ele>11.338434</ele>
        <time>2021-12-01T12:44:38.000Z</time>
      </trkpt>
      <trkpt lat="47.57237" lon="-3.12725">
        <ele>11.114417</ele>
        <time>2021-12-01T12:44:43.000Z</time>
      </trkpt>
      <trkpt lat="47.57246" lon="-3.1274">
        <ele>10.979425</ele>
        <time>2021-12-01T12:44:46.000Z</time>
      </trkpt>
      <trkpt lat="47.5726" lon="-3.12769">
        <ele>10.743384</ele>
        <time>2021-12-01T12:44:51.000Z</time>
      </trkpt>
      <trkpt lat="47.57272" lon="-3.12793">
        <ele>10.547909</ele>
        <time>2021-12-01T12:44:55.000Z</time>
      </trkpt>
      <trkpt lat="47.5728" lon="-3.12811">
        <ele>10.403011</ele>
        <time>2021-12-01T12:44:58.000Z</time>
      </trkpt>
      <trkpt lat="47.57292" lon="-3.12834">
        <ele>10.210249</ele>
        <time>2021-12-01T12:45:02.000Z</time>
      </trkpt>
      <trkpt lat="47.57321" lon="-3.12891">
        <ele>9.962813</ele>
        <time>2021-12-01T12:45:12.000Z</time>
      </trkpt>
      <trkpt lat="47.57347" lon="-3.12939">
        <ele>9.976388</ele>
        <time>2021-12-01T12:45:21.000Z</time>
      </trkpt>
      <trkpt lat="47.57383" lon="-3.13004">
        <ele>9.994522</ele>
        <time>2021-12-01T12:45:33.000Z</time>
      </trkpt>
      <trkpt lat="47.57386" lon="-3.1301">
        <ele>9.99605</ele>
        <time>2021-12-01T12:45:34.000Z</time>
      </trkpt>
      <trkpt lat="47.57416" lon="-3.13057">
        <ele>10.010184</ele>
        <time>2021-12-01T12:45:43.000Z</time>
      </trkpt>
      <trkpt lat="47.57452" lon="-3.13103">
        <ele>9.92379</ele>
        <time>2021-12-01T12:45:53.000Z</time>
      </trkpt>
      <trkpt lat="47.57487" lon="-3.1314">
        <ele>9.817024</ele>
        <time>2021-12-01T12:46:02.000Z</time>
      </trkpt>
      <trkpt lat="47.57499" lon="-3.13143">
        <ele>9.786325</ele>
        <time>2021-12-01T12:46:06.000Z</time>
      </trkpt>
      <trkpt lat="47.57522" lon="-3.13157">
        <ele>9.725407</ele>
        <time>2021-12-01T12:46:12.000Z</time>
      </trkpt>
      <trkpt lat="47.5755" lon="-3.13175">
        <ele>9.65225</ele>
        <time>2021-12-01T12:46:20.000Z</time>
      </trkpt>
      <trkpt lat="47.5757" lon="-3.13182">
        <ele>9.600304</ele>
        <time>2021-12-01T12:46:26.000Z</time>
      </trkpt>
      <trkpt lat="47.57586" lon="-3.13185">
        <ele>9.567459</ele>
        <time>2021-12-01T12:46:31.000Z</time>
      </trkpt>
      <trkpt lat="47.57602" lon="-3.13185">
        <ele>9.550223</ele>
        <time>2021-12-01T12:46:36.000Z</time>
      </trkpt>
      <trkpt lat="47.5762" lon="-3.13181">
        <ele>9.531788</ele>
        <time>2021-12-01T12:46:41.000Z</time>
      </trkpt>
      <trkpt lat="47.57648" lon="-3.13181">
        <ele>9.502829</ele>
        <time>2021-12-01T12:46:48.000Z</time>
      </trkpt>
      <trkpt lat="47.57665" lon="-3.13183">
        <ele>9.48514</ele>
        <time>2021-12-01T12:46:52.000Z</time>
      </trkpt>
      <trkpt lat="47.57674" lon="-3.13183">
        <ele>9.475798</ele>
        <time>2021-12-01T12:46:54.000Z</time>
      </trkpt>
      <trkpt lat="47.57686" lon="-3.13183">
        <ele>9.462511</ele>
        <time>2021-12-01T12:46:57.000Z</time>
      </trkpt>
      <trkpt lat="47.57694" lon="-3.13184">
        <ele>9.454293</ele>
        <time>2021-12-01T12:46:59.000Z</time>
      </trkpt>
      <trkpt lat="47.57698" lon="-3.13184">
        <ele>9.450965</ele>
        <time>2021-12-01T12:47:00.000Z</time>
      </trkpt>
      <trkpt lat="47.57716" lon="-3.1318">
        <ele>9.43195</ele>
        <time>2021-12-01T12:47:05.000Z</time>
      </trkpt>
      <trkpt lat="47.57729" lon="-3.13168">
        <ele>9.415701</ele>
        <time>2021-12-01T12:47:09.000Z</time>
      </trkpt>
      <trkpt lat="47.57738" lon="-3.13154">
        <ele>9.402649</ele>
        <time>2021-12-01T12:47:13.000Z</time>
      </trkpt>
      <trkpt lat="47.57759" lon="-3.13126">
        <ele>9.439436</ele>
        <time>2021-12-01T12:47:20.000Z</time>
      </trkpt>
      <trkpt lat="47.57774" lon="-3.13111">
        <ele>9.529286</ele>
        <time>2021-12-01T12:47:24.000Z</time>
      </trkpt>
      <trkpt lat="47.57783" lon="-3.13106">
        <ele>9.579409</ele>
        <time>2021-12-01T12:47:26.000Z</time>
      </trkpt>
      <trkpt lat="47.57806" lon="-3.13095">
        <ele>9.697046</ele>
        <time>2021-12-01T12:47:31.000Z</time>
      </trkpt>
      <trkpt lat="47.5781" lon="-3.13094">
        <ele>9.716471</ele>
        <time>2021-12-01T12:47:32.000Z</time>
      </trkpt>
      <trkpt lat="47.5782" lon="-3.13091">
        <ele>9.767814</ele>
        <time>2021-12-01T12:47:34.000Z</time>
      </trkpt>
      <trkpt lat="47.57832" lon="-3.13086">
        <ele>9.829386</ele>
        <time>2021-12-01T12:47:37.000Z</time>
      </trkpt>
      <trkpt lat="47.57841" lon="-3.13085">
        <ele>9.875696</ele>
        <time>2021-12-01T12:47:39.000Z</time>
      </trkpt>
      <trkpt lat="47.57845" lon="-3.13086">
        <ele>9.896104</ele>
        <time>2021-12-01T12:47:40.000Z</time>
      </trkpt>
      <trkpt lat="47.57857" lon="-3.13087">
        <ele>9.953233</ele>
        <time>2021-12-01T12:47:43.000Z</time>
      </trkpt>
      <trkpt lat="47.57865" lon="-3.13087">
        <ele>9.992919</ele>
        <time>2021-12-01T12:47:45.000Z</time>
      </trkpt>
      <trkpt lat="47.57869" lon="-3.13087">
        <ele>10.0129</ele>
        <time>2021-12-01T12:47:46.000Z</time>
      </trkpt>
      <trkpt lat="47.57877" lon="-3.13089">
        <ele>10.053811</ele>
        <time>2021-12-01T12:47:48.000Z</time>
      </trkpt>
      <trkpt lat="47.57881" lon="-3.1309">
        <ele>10.074843</ele>
        <time>2021-12-01T12:47:49.000Z</time>
      </trkpt>
      <trkpt lat="47.57889" lon="-3.13093">
        <ele>10.115887</ele>
        <time>2021-12-01T12:47:51.000Z</time>
      </trkpt>
      <trkpt lat="47.57915" lon="-3.13099">
        <ele>10.2462</ele>
        <time>2021-12-01T12:47:57.000Z</time>
      </trkpt>
      <trkpt lat="47.57927" lon="-3.13103">
        <ele>10.298346</ele>
        <time>2021-12-01T12:48:00.000Z</time>
      </trkpt>
      <trkpt lat="47.57937" lon="-3.13106">
        <ele>10.329119</ele>
        <time>2021-12-01T12:48:02.000Z</time>
      </trkpt>
      <trkpt lat="47.57952" lon="-3.13108">
        <ele>10.379753</ele>
        <time>2021-12-01T12:48:06.000Z</time>
      </trkpt>
      <trkpt lat="47.57981" lon="-3.13107">
        <ele>10.473208</ele>
        <time>2021-12-01T12:48:13.000Z</time>
      </trkpt>
      <trkpt lat="47.57985" lon="-3.13108">
        <ele>10.486189</ele>
        <time>2021-12-01T12:48:14.000Z</time>
      </trkpt>
      <trkpt lat="47.57989" lon="-3.13109">
        <ele>10.499214</ele>
        <time>2021-12-01T12:48:15.000Z</time>
      </trkpt>
      <trkpt lat="47.5801" lon="-3.13109">
        <ele>10.56519</ele>
        <time>2021-12-01T12:48:20.000Z</time>
      </trkpt>
      <trkpt lat="47.58041" lon="-3.13106">
        <ele>10.666887</ele>
        <time>2021-12-01T12:48:28.000Z</time>
      </trkpt>
      <trkpt lat="47.58046" lon="-3.13107">
        <ele>10.681197</ele>
        <time>2021-12-01T12:48:29.000Z</time>
      </trkpt>
      <trkpt lat="47.58072" lon="-3.13113">
        <ele>10.766673</ele>
        <time>2021-12-01T12:48:36.000Z</time>
      </trkpt>
      <trkpt lat="47.581" lon="-3.13117">
        <ele>10.857515</ele>
        <time>2021-12-01T12:48:43.000Z</time>
      </trkpt>
      <trkpt lat="47.58134" lon="-3.13122">
        <ele>10.710943</ele>
        <time>2021-12-01T12:48:51.000Z</time>
      </trkpt>
      <trkpt lat="47.58151" lon="-3.13123">
        <ele>10.638604</ele>
        <time>2021-12-01T12:48:55.000Z</time>
      </trkpt>
      <trkpt lat="47.58165" lon="-3.13124">
        <ele>10.577732</ele>
        <time>2021-12-01T12:48:58.000Z</time>
      </trkpt>
      <trkpt lat="47.582" lon="-3.13125">
        <ele>10.428348</ele>
        <time>2021-12-01T12:49:06.000Z</time>
      </trkpt>
      <trkpt lat="47.5824" lon="-3.13117">
        <ele>10.259073</ele>
        <time>2021-12-01T12:49:15.000Z</time>
      </trkpt>
      <trkpt lat="47.58283" lon="-3.13106">
        <ele>10.101303</ele>
        <time>2021-12-01T12:49:24.000Z</time>
      </trkpt>
      <trkpt lat="47.5832" lon="-3.13097">
        <ele>10.221413</ele>
        <time>2021-12-01T12:49:32.000Z</time>
      </trkpt>
      <trkpt lat="47.58357" lon="-3.13089">
        <ele>10.340361</ele>
        <time>2021-12-01T12:49:40.000Z</time>
      </trkpt>
      <trkpt lat="47.58394" lon="-3.1308">
        <ele>10.457448</ele>
        <time>2021-12-01T12:49:48.000Z</time>
      </trkpt>
      <trkpt lat="47.58433" lon="-3.13069">
        <ele>10.584785</ele>
        <time>2021-12-01T12:49:57.000Z</time>
      </trkpt>
      <trkpt lat="47.58472" lon="-3.13062">
        <ele>10.687964</ele>
        <time>2021-12-01T12:50:06.000Z</time>
      </trkpt>
      <trkpt lat="47.58523" lon="-3.13068">
        <ele>10.785368</ele>
        <time>2021-12-01T12:50:17.000Z</time>
      </trkpt>
      <trkpt lat="47.58565" lon="-3.13076">
        <ele>10.867562</ele>
        <time>2021-12-01T12:50:26.000Z</time>
      </trkpt>
      <trkpt lat="47.58605" lon="-3.13083">
        <ele>10.944028</ele>
        <time>2021-12-01T12:50:34.000Z</time>
      </trkpt>
      <trkpt lat="47.58611" lon="-3.13084">
        <ele>10.955362</ele>
        <time>2021-12-01T12:50:35.000Z</time>
      </trkpt>
      <trkpt lat="47.58639" lon="-3.13082">
        <ele>11.006961</ele>
        <time>2021-12-01T12:50:41.000Z</time>
      </trkpt>
      <trkpt lat="47.58671" lon="-3.13079">
        <ele>11.043773</ele>
        <time>2021-12-01T12:50:48.000Z</time>
      </trkpt>
      <trkpt lat="47.58715" lon="-3.13074">
        <ele>11.093339</ele>
        <time>2021-12-01T12:50:57.000Z</time>
      </trkpt>
      <trkpt lat="47.58754" lon="-3.13071">
        <ele>11.137946</ele>
        <time>2021-12-01T12:51:05.000Z</time>
      </trkpt>
      <trkpt lat="47.58786" lon="-3.13075">
        <ele>11.173551</ele>
        <time>2021-12-01T12:51:11.000Z</time>
      </trkpt>
      <trkpt lat="47.58796" lon="-3.13075">
        <ele>11.185337</ele>
        <time>2021-12-01T12:51:13.000Z</time>
      </trkpt>
      <trkpt lat="47.58811" lon="-3.13075">
        <ele>11.202351</ele>
        <time>2021-12-01T12:51:16.000Z</time>
      </trkpt>
      <trkpt lat="47.5883" lon="-3.13077">
        <ele>11.255395</ele>
        <time>2021-12-01T12:51:20.000Z</time>
      </trkpt>
      <trkpt lat="47.58836" lon="-3.13077">
        <ele>11.273707</ele>
        <time>2021-12-01T12:51:21.000Z</time>
      </trkpt>
      <trkpt lat="47.58861" lon="-3.13076">
        <ele>11.353296</ele>
        <time>2021-12-01T12:51:26.000Z</time>
      </trkpt>
      <trkpt lat="47.58895" lon="-3.13074">
        <ele>11.460418</ele>
        <time>2021-12-01T12:51:33.000Z</time>
      </trkpt>
      <trkpt lat="47.58906" lon="-3.13072">
        <ele>11.496588</ele>
        <time>2021-12-01T12:51:35.000Z</time>
      </trkpt>
      <trkpt lat="47.58941" lon="-3.1306">
        <ele>11.609641</ele>
        <time>2021-12-01T12:51:42.000Z</time>
      </trkpt>
      <trkpt lat="47.58986" lon="-3.13038">
        <ele>11.7594</ele>
        <time>2021-12-01T12:51:51.000Z</time>
      </trkpt>
      <trkpt lat="47.59006" lon="-3.1303">
        <ele>11.812752</ele>
        <time>2021-12-01T12:51:55.000Z</time>
      </trkpt>
      <trkpt lat="47.59021" lon="-3.13028">
        <ele>11.846961</ele>
        <time>2021-12-01T12:51:58.000Z</time>
      </trkpt>
      <trkpt lat="47.59026" lon="-3.13028">
        <ele>11.860854</ele>
        <time>2021-12-01T12:51:59.000Z</time>
      </trkpt>
      <trkpt lat="47.59035" lon="-3.13027">
        <ele>11.882468</ele>
        <time>2021-12-01T12:52:01.000Z</time>
      </trkpt>
      <trkpt lat="47.59068" lon="-3.13017">
        <ele>11.961624</ele>
        <time>2021-12-01T12:52:07.000Z</time>
      </trkpt>
      <trkpt lat="47.59084" lon="-3.13009">
        <ele>12.002444</ele>
        <time>2021-12-01T12:52:10.000Z</time>
      </trkpt>
      <trkpt lat="47.59097" lon="-3.12997">
        <ele>12.03957</ele>
        <time>2021-12-01T12:52:13.000Z</time>
      </trkpt>
      <trkpt lat="47.59101" lon="-3.12992">
        <ele>12.052099</ele>
        <time>2021-12-01T12:52:14.000Z</time>
      </trkpt>
      <trkpt lat="47.59121" lon="-3.12958">
        <ele>12.125123</ele>
        <time>2021-12-01T12:52:20.000Z</time>
      </trkpt>
      <trkpt lat="47.59139" lon="-3.12929">
        <ele>12.187854</ele>
        <time>2021-12-01T12:52:25.000Z</time>
      </trkpt>
      <trkpt lat="47.59145" lon="-3.12917">
        <ele>12.196454</ele>
        <time>2021-12-01T12:52:27.000Z</time>
      </trkpt>
      <trkpt lat="47.59153" lon="-3.12903">
        <ele>12.163854</ele>
        <time>2021-12-01T12:52:30.000Z</time>
      </trkpt>
      <trkpt lat="47.59159" lon="-3.12891">
        <ele>12.136863</ele>
        <time>2021-12-01T12:52:32.000Z</time>
      </trkpt>
      <trkpt lat="47.59172" lon="-3.12878">
        <ele>12.095235</ele>
        <time>2021-12-01T12:52:35.000Z</time>
      </trkpt>
      <trkpt lat="47.59183" lon="-3.12874">
        <ele>12.06622</ele>
        <time>2021-12-01T12:52:37.000Z</time>
      </trkpt>
      <trkpt lat="47.59193" lon="-3.12874">
        <ele>12.03859</ele>
        <time>2021-12-01T12:52:39.000Z</time>
      </trkpt>
      <trkpt lat="47.592" lon="-3.12876">
        <ele>12.020693</ele>
        <time>2021-12-01T12:52:40.000Z</time>
      </trkpt>
      <trkpt lat="47.59211" lon="-3.12881">
        <ele>11.99058</ele>
        <time>2021-12-01T12:52:42.000Z</time>
      </trkpt>
      <trkpt lat="47.59256" lon="-3.12907">
        <ele>11.859902</ele>
        <time>2021-12-01T12:52:51.000Z</time>
      </trkpt>
      <trkpt lat="47.593" lon="-3.12931">
        <ele>11.735847</ele>
        <time>2021-12-01T12:53:00.000Z</time>
      </trkpt>
      <trkpt lat="47.59317" lon="-3.12941">
        <ele>11.619402</ele>
        <time>2021-12-01T12:53:04.000Z</time>
      </trkpt>
      <trkpt lat="47.59329" lon="-3.12947">
        <ele>11.522651</ele>
        <time>2021-12-01T12:53:07.000Z</time>
      </trkpt>
      <trkpt lat="47.59366" lon="-3.12965">
        <ele>11.235746</ele>
        <time>2021-12-01T12:53:15.000Z</time>
      </trkpt>
      <trkpt lat="47.59381" lon="-3.12973">
        <ele>11.113261</ele>
        <time>2021-12-01T12:53:18.000Z</time>
      </trkpt>
      <trkpt lat="47.5941" lon="-3.1299">
        <ele>10.88002</ele>
        <time>2021-12-01T12:53:24.000Z</time>
      </trkpt>
      <trkpt lat="47.59454" lon="-3.13016">
        <ele>10.528828</ele>
        <time>2021-12-01T12:53:33.000Z</time>
      </trkpt>
      <trkpt lat="47.59483" lon="-3.13041">
        <ele>10.511611</ele>
        <time>2021-12-01T12:53:40.000Z</time>
      </trkpt>
      <trkpt lat="47.595" lon="-3.13058">
        <ele>10.690179</ele>
        <time>2021-12-01T12:53:45.000Z</time>
      </trkpt>
      <trkpt lat="47.59503" lon="-3.13063">
        <ele>10.73166</ele>
        <time>2021-12-01T12:53:46.000Z</time>
      </trkpt>
      <trkpt lat="47.59505" lon="-3.13068">
        <ele>10.763712</ele>
        <time>2021-12-01T12:53:47.000Z</time>
      </trkpt>
      <trkpt lat="47.5951" lon="-3.13074">
        <ele>10.820349</ele>
        <time>2021-12-01T12:53:49.000Z</time>
      </trkpt>
      <trkpt lat="47.59513" lon="-3.13078">
        <ele>10.858844</ele>
        <time>2021-12-01T12:53:50.000Z</time>
      </trkpt>
      <trkpt lat="47.59532" lon="-3.13101">
        <ele>11.068159</ele>
        <time>2021-12-01T12:53:56.000Z</time>
      </trkpt>
      <trkpt lat="47.59548" lon="-3.1312">
        <ele>11.24491</ele>
        <time>2021-12-01T12:54:02.000Z</time>
      </trkpt>
      <trkpt lat="47.5955" lon="-3.13128">
        <ele>11.296215</ele>
        <time>2021-12-01T12:54:05.000Z</time>
      </trkpt>
      <trkpt lat="47.5955" lon="-3.1313">
        <ele>11.308041</ele>
        <time>2021-12-01T12:54:06.000Z</time>
      </trkpt>
      <trkpt lat="47.59548" lon="-3.13138">
        <ele>11.358868</ele>
        <time>2021-12-01T12:54:09.000Z</time>
      </trkpt>
      <trkpt lat="47.59543" lon="-3.13145">
        <ele>11.421236</ele>
        <time>2021-12-01T12:54:11.000Z</time>
      </trkpt>
      <trkpt lat="47.59539" lon="-3.13147">
        <ele>11.453182</ele>
        <time>2021-12-01T12:54:12.000Z</time>
      </trkpt>
      <trkpt lat="47.59524" lon="-3.13151">
        <ele>11.587624</ele>
        <time>2021-12-01T12:54:15.000Z</time>
      </trkpt>
      <trkpt lat="47.5948" lon="-3.13162">
        <ele>11.954233</ele>
        <time>2021-12-01T12:54:24.000Z</time>
      </trkpt>
      <trkpt lat="47.59476" lon="-3.13165">
        <ele>11.966261</ele>
        <time>2021-12-01T12:54:25.000Z</time>
      </trkpt>
      <trkpt lat="47.59473" lon="-3.13169">
        <ele>11.975759</ele>
        <time>2021-12-01T12:54:26.000Z</time>
      </trkpt>
      <trkpt lat="47.5946" lon="-3.13186">
        <ele>12.019814</ele>
        <time>2021-12-01T12:54:30.000Z</time>
      </trkpt>
      <trkpt lat="47.59458" lon="-3.13198">
        <ele>12.040978</ele>
        <time>2021-12-01T12:54:32.000Z</time>
      </trkpt>
      <trkpt lat="47.5946" lon="-3.13204">
        <ele>12.052539</ele>
        <time>2021-12-01T12:54:33.000Z</time>
      </trkpt>
      <trkpt lat="47.59463" lon="-3.13209">
        <ele>12.064585</ele>
        <time>2021-12-01T12:54:34.000Z</time>
      </trkpt>
      <trkpt lat="47.59471" lon="-3.13217">
        <ele>12.088274</ele>
        <time>2021-12-01T12:54:36.000Z</time>
      </trkpt>
      <trkpt lat="47.59477" lon="-3.1322">
        <ele>12.104203</ele>
        <time>2021-12-01T12:54:37.000Z</time>
      </trkpt>
      <trkpt lat="47.59483" lon="-3.1322">
        <ele>12.117312</ele>
        <time>2021-12-01T12:54:38.000Z</time>
      </trkpt>
      <trkpt lat="47.59497" lon="-3.13218">
        <ele>12.152899</ele>
        <time>2021-12-01T12:54:41.000Z</time>
      </trkpt>
    </trkseg>
  </trk>
  <trk>
    <name><![CDATA[Fort bloqué Auray_8]]></name>
    <extensions>
      <line xmlns="http://www.topografix.com/GPX/gpx_style/0/2">
        <color>008800</color>
        <width>4</width>
      </line>
    </extensions>
    <trkseg>
      <trkpt lat="47.58835" lon="-3.06976">
        <ele>13.1</ele>
      </trkpt>
      <trkpt lat="47.58859" lon="-3.06985">
        <ele>13.5</ele>
      </trkpt>
      <trkpt lat="47.58878" lon="-3.07002">
        <ele>12.8</ele>
      </trkpt>
      <trkpt lat="47.58894" lon="-3.07019">
        <ele>12.4</ele>
      </trkpt>
      <trkpt lat="47.58915" lon="-3.07064">
        <ele>11.4</ele>
      </trkpt>
      <trkpt lat="47.58931" lon="-3.07079">
        <ele>11.4</ele>
      </trkpt>
      <trkpt lat="47.58942" lon="-3.07069">
        <ele>10.6</ele>
      </trkpt>
      <trkpt lat="47.58979" lon="-3.07072">
        <ele>10.5</ele>
      </trkpt>
      <trkpt lat="47.59009" lon="-3.07085">
        <ele>10.1</ele>
      </trkpt>
      <trkpt lat="47.59045" lon="-3.07074">
        <ele>10</ele>
      </trkpt>
      <trkpt lat="47.5908" lon="-3.07103">
        <ele>10.1</ele>
      </trkpt>
      <trkpt lat="47.59112" lon="-3.07125">
        <ele>10</ele>
      </trkpt>
      <trkpt lat="47.59155" lon="-3.07173">
        <ele>12.3</ele>
      </trkpt>
      <trkpt lat="47.59184" lon="-3.07217">
        <ele>13.4</ele>
      </trkpt>
      <trkpt lat="47.59196" lon="-3.07233">
        <ele>13.7</ele>
      </trkpt>
      <trkpt lat="47.59217" lon="-3.07248">
        <ele>13.9</ele>
      </trkpt>
      <trkpt lat="47.59253" lon="-3.07261">
        <ele>14.6</ele>
      </trkpt>
      <trkpt lat="47.59297" lon="-3.07273">
        <ele>14.2</ele>
      </trkpt>
      <trkpt lat="47.59326" lon="-3.07299">
        <ele>14</ele>
      </trkpt>
      <trkpt lat="47.59361" lon="-3.07334">
        <ele>14</ele>
      </trkpt>
      <trkpt lat="47.5938" lon="-3.07342">
        <ele>14.7</ele>
      </trkpt>
      <trkpt lat="47.59381" lon="-3.07347">
        <ele>14.7</ele>
      </trkpt>
      <trkpt lat="47.59381" lon="-3.07362">
        <ele>14.7</ele>
      </trkpt>
      <trkpt lat="47.59374" lon="-3.07384">
        <ele>14.1</ele>
      </trkpt>
      <trkpt lat="47.59374" lon="-3.07384">
        <ele>14.1</ele>
      </trkpt>
      <trkpt lat="47.59381" lon="-3.07362">
        <ele>14.7</ele>
      </trkpt>
      <trkpt lat="47.59381" lon="-3.07347">
        <ele>14.7</ele>
      </trkpt>
      <trkpt lat="47.5938" lon="-3.07342">
        <ele>14.7</ele>
      </trkpt>
      <trkpt lat="47.59394" lon="-3.07349">
        <ele>15.2</ele>
      </trkpt>
      <trkpt lat="47.59413" lon="-3.07362">
        <ele>15.9</ele>
      </trkpt>
      <trkpt lat="47.59447" lon="-3.07432">
        <ele>16.5</ele>
      </trkpt>
      <trkpt lat="47.59435" lon="-3.07461">
        <ele>16.3</ele>
      </trkpt>
      <trkpt lat="47.59437" lon="-3.07496">
        <ele>16.7</ele>
      </trkpt>
      <trkpt lat="47.59426" lon="-3.07515">
        <ele>16.7</ele>
      </trkpt>
      <trkpt lat="47.59428" lon="-3.07522">
        <ele>16.9</ele>
      </trkpt>
      <trkpt lat="47.59431" lon="-3.0753">
        <ele>17</ele>
      </trkpt>
      <trkpt lat="47.59437" lon="-3.07544">
        <ele>17</ele>
      </trkpt>
      <trkpt lat="47.59445" lon="-3.07551">
        <ele>17</ele>
      </trkpt>
      <trkpt lat="47.59458" lon="-3.07559">
        <ele>17</ele>
      </trkpt>
      <trkpt lat="47.59475" lon="-3.07573">
        <ele>17.1</ele>
      </trkpt>
      <trkpt lat="47.59485" lon="-3.07594">
        <ele>17.7</ele>
      </trkpt>
      <trkpt lat="47.59497" lon="-3.07625">
        <ele>18.5</ele>
      </trkpt>
      <trkpt lat="47.59481" lon="-3.07641">
        <ele>19</ele>
      </trkpt>
      <trkpt lat="47.5947" lon="-3.07664">
        <ele>19</ele>
      </trkpt>
      <trkpt lat="47.59457" lon="-3.07698">
        <ele>19</ele>
      </trkpt>
      <trkpt lat="47.59442" lon="-3.07758">
        <ele>19</ele>
      </trkpt>
      <trkpt lat="47.59438" lon="-3.07775">
        <ele>19</ele>
      </trkpt>
      <trkpt lat="47.59437" lon="-3.07792">
        <ele>18.9</ele>
      </trkpt>
      <trkpt lat="47.59437" lon="-3.0782">
        <ele>18.9</ele>
      </trkpt>
      <trkpt lat="47.59437" lon="-3.07857">
        <ele>18.2</ele>
      </trkpt>
      <trkpt lat="47.59432" lon="-3.0788">
        <ele>18.7</ele>
      </trkpt>
      <trkpt lat="47.59432" lon="-3.0788">
        <ele>18.7</ele>
      </trkpt>
      <trkpt lat="47.59421" lon="-3.07935">
        <ele>19</ele>
      </trkpt>
      <trkpt lat="47.5942" lon="-3.0798">
        <ele>18.7</ele>
      </trkpt>
      <trkpt lat="47.59417" lon="-3.08015">
        <ele>18</ele>
      </trkpt>
      <trkpt lat="47.59415" lon="-3.08035">
        <ele>18</ele>
      </trkpt>
      <trkpt lat="47.59413" lon="-3.08054">
        <ele>18.1</ele>
      </trkpt>
      <trkpt lat="47.59411" lon="-3.08085">
        <ele>18</ele>
      </trkpt>
      <trkpt lat="47.5941" lon="-3.08096">
        <ele>18</ele>
      </trkpt>
      <trkpt lat="47.59404" lon="-3.08096">
        <ele>18</ele>
      </trkpt>
      <trkpt lat="47.59402" lon="-3.08104">
        <ele>18</ele>
      </trkpt>
      <trkpt lat="47.59452" lon="-3.08134">
        <ele>18.2</ele>
      </trkpt>
      <trkpt lat="47.59509" lon="-3.08137">
        <ele>18</ele>
      </trkpt>
      <trkpt lat="47.59513" lon="-3.08149">
        <ele>18</ele>
      </trkpt>
      <trkpt lat="47.59625" lon="-3.08184">
        <ele>19</ele>
      </trkpt>
      <trkpt lat="47.59683" lon="-3.08201">
        <ele>19</ele>
      </trkpt>
      <trkpt lat="47.59724" lon="-3.08212">
        <ele>18.6</ele>
      </trkpt>
      <trkpt lat="47.59786" lon="-3.08229">
        <ele>19.2</ele>
      </trkpt>
      <trkpt lat="47.59833" lon="-3.0824">
        <ele>19</ele>
      </trkpt>
      <trkpt lat="47.59877" lon="-3.0825">
        <ele>19</ele>
      </trkpt>
      <trkpt lat="47.59884" lon="-3.0826">
        <ele>19.1</ele>
      </trkpt>
      <trkpt lat="47.59973" lon="-3.08295">
        <ele>19</ele>
      </trkpt>
      <trkpt lat="47.60065" lon="-3.08338">
        <ele>18.4</ele>
      </trkpt>
      <trkpt lat="47.60117" lon="-3.08344">
        <ele>19</ele>
      </trkpt>
      <trkpt lat="47.60173" lon="-3.08354">
        <ele>19</ele>
      </trkpt>
      <trkpt lat="47.60161" lon="-3.08416">
        <ele>18</ele>
      </trkpt>
      <trkpt lat="47.60161" lon="-3.08416">
        <ele>18</ele>
      </trkpt>
      <trkpt lat="47.60173" lon="-3.08354">
        <ele>19</ele>
      </trkpt>
      <trkpt lat="47.602" lon="-3.08376">
        <ele>18.9</ele>
      </trkpt>
      <trkpt lat="47.60228" lon="-3.08395">
        <ele>18.2</ele>
      </trkpt>
      <trkpt lat="47.60261" lon="-3.08413">
        <ele>18</ele>
      </trkpt>
      <trkpt lat="47.60314" lon="-3.08426">
        <ele>17.3</ele>
      </trkpt>
      <trkpt lat="47.60347" lon="-3.08424">
        <ele>17.3</ele>
      </trkpt>
      <trkpt lat="47.60395" lon="-3.08427">
        <ele>17.1</ele>
      </trkpt>
      <trkpt lat="47.60432" lon="-3.08427">
        <ele>16.4</ele>
      </trkpt>
      <trkpt lat="47.60446" lon="-3.08429">
        <ele>16.4</ele>
      </trkpt>
      <trkpt lat="47.60518" lon="-3.08435">
        <ele>14.3</ele>
      </trkpt>
      <trkpt lat="47.60586" lon="-3.08465">
        <ele>15.8</ele>
      </trkpt>
      <trkpt lat="47.60621" lon="-3.08536">
        <ele>17.8</ele>
      </trkpt>
      <trkpt lat="47.60642" lon="-3.0855">
        <ele>18</ele>
      </trkpt>
      <trkpt lat="47.60663" lon="-3.0856">
        <ele>18</ele>
      </trkpt>
      <trkpt lat="47.60734" lon="-3.08587">
        <ele>18</ele>
      </trkpt>
      <trkpt lat="47.60751" lon="-3.08604">
        <ele>18</ele>
      </trkpt>
      <trkpt lat="47.60823" lon="-3.08699">
        <ele>16.1</ele>
      </trkpt>
      <trkpt lat="47.60837" lon="-3.08713">
        <ele>16.7</ele>
      </trkpt>
      <trkpt lat="47.60855" lon="-3.08726">
        <ele>17</ele>
      </trkpt>
      <trkpt lat="47.60894" lon="-3.08749">
        <ele>17.8</ele>
      </trkpt>
      <trkpt lat="47.60913" lon="-3.08758">
        <ele>17.4</ele>
      </trkpt>
      <trkpt lat="47.60933" lon="-3.08766">
        <ele>17</ele>
      </trkpt>
      <trkpt lat="47.60955" lon="-3.08775">
        <ele>16.9</ele>
      </trkpt>
      <trkpt lat="47.60949" lon="-3.08815">
        <ele>17.4</ele>
      </trkpt>
      <trkpt lat="47.60945" lon="-3.08838">
        <ele>18</ele>
      </trkpt>
      <trkpt lat="47.60943" lon="-3.0886">
        <ele>18</ele>
      </trkpt>
      <trkpt lat="47.6094" lon="-3.0888">
        <ele>18</ele>
      </trkpt>
      <trkpt lat="47.60929" lon="-3.09022">
        <ele>16.5</ele>
      </trkpt>
      <trkpt lat="47.60929" lon="-3.09022">
        <ele>16.5</ele>
      </trkpt>
      <trkpt lat="47.60927" lon="-3.09056">
        <ele>17</ele>
      </trkpt>
      <trkpt lat="47.60924" lon="-3.09075">
        <ele>17</ele>
      </trkpt>
      <trkpt lat="47.60923" lon="-3.09092">
        <ele>17</ele>
      </trkpt>
      <trkpt lat="47.60942" lon="-3.09114">
        <ele>17</ele>
      </trkpt>
      <trkpt lat="47.60977" lon="-3.09157">
        <ele>17</ele>
      </trkpt>
      <trkpt lat="47.61013" lon="-3.09207">
        <ele>17</ele>
      </trkpt>
      <trkpt lat="47.61031" lon="-3.09228">
        <ele>17</ele>
      </trkpt>
      <trkpt lat="47.61063" lon="-3.09247">
        <ele>17.9</ele>
      </trkpt>
      <trkpt lat="47.61069" lon="-3.09248">
        <ele>18</ele>
      </trkpt>
      <trkpt lat="47.61073" lon="-3.09249">
        <ele>18</ele>
      </trkpt>
      <trkpt lat="47.61075" lon="-3.09247">
        <ele>18</ele>
      </trkpt>
      <trkpt lat="47.61085" lon="-3.09244">
        <ele>18</ele>
      </trkpt>
      <trkpt lat="47.6109" lon="-3.09245">
        <ele>17.8</ele>
      </trkpt>
      <trkpt lat="47.61094" lon="-3.09248">
        <ele>17.6</ele>
      </trkpt>
      <trkpt lat="47.61098" lon="-3.09252">
        <ele>17.5</ele>
      </trkpt>
      <trkpt lat="47.61101" lon="-3.09258">
        <ele>17.6</ele>
      </trkpt>
      <trkpt lat="47.61103" lon="-3.09265">
        <ele>17.8</ele>
      </trkpt>
      <trkpt lat="47.61104" lon="-3.09272">
        <ele>18</ele>
      </trkpt>
      <trkpt lat="47.61121" lon="-3.09281">
        <ele>17.6</ele>
      </trkpt>
      <trkpt lat="47.61144" lon="-3.09295">
        <ele>17</ele>
      </trkpt>
      <trkpt lat="47.61149" lon="-3.093">
        <ele>17</ele>
      </trkpt>
      <trkpt lat="47.61153" lon="-3.09306">
        <ele>17</ele>
      </trkpt>
      <trkpt lat="47.6117" lon="-3.09326">
        <ele>16.2</ele>
      </trkpt>
      <trkpt lat="47.61173" lon="-3.09329">
        <ele>16.1</ele>
      </trkpt>
      <trkpt lat="47.61238" lon="-3.09375">
        <ele>15.5</ele>
      </trkpt>
      <trkpt lat="47.61427" lon="-3.09502">
        <ele>15</ele>
      </trkpt>
      <trkpt lat="47.61483" lon="-3.09544">
        <ele>15</ele>
      </trkpt>
      <trkpt lat="47.61535" lon="-3.09596">
        <ele>15</ele>
      </trkpt>
      <trkpt lat="47.61563" lon="-3.09623">
        <ele>14.7</ele>
      </trkpt>
      <trkpt lat="47.61692" lon="-3.09744">
        <ele>15</ele>
      </trkpt>
      <trkpt lat="47.61717" lon="-3.09761">
        <ele>15.5</ele>
      </trkpt>
      <trkpt lat="47.61742" lon="-3.09767">
        <ele>15</ele>
      </trkpt>
      <trkpt lat="47.61757" lon="-3.09768">
        <ele>14.8</ele>
      </trkpt>
      <trkpt lat="47.61776" lon="-3.09765">
        <ele>15</ele>
      </trkpt>
      <trkpt lat="47.61818" lon="-3.09768">
        <ele>15.6</ele>
      </trkpt>
      <trkpt lat="47.61834" lon="-3.09772">
        <ele>15.7</ele>
      </trkpt>
      <trkpt lat="47.61914" lon="-3.09776">
        <ele>15</ele>
      </trkpt>
      <trkpt lat="47.62052" lon="-3.0977">
        <ele>15.7</ele>
      </trkpt>
      <trkpt lat="47.62049" lon="-3.09794">
        <ele>16</ele>
      </trkpt>
      <trkpt lat="47.6204" lon="-3.09864">
        <ele>16</ele>
      </trkpt>
      <trkpt lat="47.6204" lon="-3.09864">
        <ele>16</ele>
      </trkpt>
      <trkpt lat="47.62035" lon="-3.09904">
        <ele>16</ele>
      </trkpt>
      <trkpt lat="47.62033" lon="-3.09962">
        <ele>16</ele>
      </trkpt>
      <trkpt lat="47.62025" lon="-3.10052">
        <ele>17.8</ele>
      </trkpt>
      <trkpt lat="47.62018" lon="-3.10086">
        <ele>18.7</ele>
      </trkpt>
      <trkpt lat="47.62004" lon="-3.10155">
        <ele>20.5</ele>
      </trkpt>
      <trkpt lat="47.62003" lon="-3.10173">
        <ele>21.1</ele>
      </trkpt>
      <trkpt lat="47.62005" lon="-3.10188">
        <ele>21.6</ele>
      </trkpt>
      <trkpt lat="47.62009" lon="-3.10202">
        <ele>21.9</ele>
      </trkpt>
      <trkpt lat="47.62018" lon="-3.10216">
        <ele>22.3</ele>
      </trkpt>
      <trkpt lat="47.62033" lon="-3.10232">
        <ele>23.3</ele>
      </trkpt>
      <trkpt lat="47.62043" lon="-3.10245">
        <ele>23.8</ele>
      </trkpt>
      <trkpt lat="47.62052" lon="-3.10268">
        <ele>23.4</ele>
      </trkpt>
      <trkpt lat="47.62054" lon="-3.10297">
        <ele>22.3</ele>
      </trkpt>
      <trkpt lat="47.62053" lon="-3.10352">
        <ele>20.4</ele>
      </trkpt>
      <trkpt lat="47.62044" lon="-3.10442">
        <ele>18.1</ele>
      </trkpt>
      <trkpt lat="47.62037" lon="-3.10511">
        <ele>17.6</ele>
      </trkpt>
      <trkpt lat="47.62036" lon="-3.10523">
        <ele>17.9</ele>
      </trkpt>
      <trkpt lat="47.62024" lon="-3.10639">
        <ele>18</ele>
      </trkpt>
      <trkpt lat="47.61991" lon="-3.10936">
        <ele>17.7</ele>
      </trkpt>
      <trkpt lat="47.6199" lon="-3.10961">
        <ele>17.6</ele>
      </trkpt>
      <trkpt lat="47.61991" lon="-3.10979">
        <ele>17.8</ele>
      </trkpt>
      <trkpt lat="47.61991" lon="-3.10979">
        <ele>17.8</ele>
      </trkpt>
      <trkpt lat="47.61993" lon="-3.10993">
        <ele>17.9</ele>
      </trkpt>
      <trkpt lat="47.61948" lon="-3.11022">
        <ele>17.8</ele>
      </trkpt>
      <trkpt lat="47.61866" lon="-3.11075">
        <ele>17.2</ele>
      </trkpt>
      <trkpt lat="47.61822" lon="-3.111">
        <ele>17</ele>
      </trkpt>
      <trkpt lat="47.61792" lon="-3.11127">
        <ele>17.5</ele>
      </trkpt>
      <trkpt lat="47.61759" lon="-3.1115">
        <ele>18</ele>
      </trkpt>
      <trkpt lat="47.61727" lon="-3.11183">
        <ele>18</ele>
      </trkpt>
      <trkpt lat="47.61695" lon="-3.11204">
        <ele>18</ele>
      </trkpt>
      <trkpt lat="47.61657" lon="-3.1124">
        <ele>18</ele>
      </trkpt>
      <trkpt lat="47.61626" lon="-3.11278">
        <ele>18</ele>
      </trkpt>
      <trkpt lat="47.61588" lon="-3.11313">
        <ele>18</ele>
      </trkpt>
      <trkpt lat="47.61557" lon="-3.1136">
        <ele>18</ele>
      </trkpt>
      <trkpt lat="47.6152" lon="-3.11388">
        <ele>18.3</ele>
      </trkpt>
      <trkpt lat="47.61497" lon="-3.11426">
        <ele>19</ele>
      </trkpt>
      <trkpt lat="47.61465" lon="-3.11463">
        <ele>19</ele>
      </trkpt>
      <trkpt lat="47.61434" lon="-3.11493">
        <ele>18.9</ele>
      </trkpt>
      <trkpt lat="47.61407" lon="-3.11531">
        <ele>19.1</ele>
      </trkpt>
      <trkpt lat="47.61382" lon="-3.11571">
        <ele>19</ele>
      </trkpt>
      <trkpt lat="47.61367" lon="-3.11589">
        <ele>19</ele>
      </trkpt>
      <trkpt lat="47.61367" lon="-3.11589">
        <ele>19</ele>
      </trkpt>
      <trkpt lat="47.6135" lon="-3.1161">
        <ele>19</ele>
      </trkpt>
      <trkpt lat="47.61322" lon="-3.11635">
        <ele>18.6</ele>
      </trkpt>
      <trkpt lat="47.61303" lon="-3.11643">
        <ele>18.2</ele>
      </trkpt>
      <trkpt lat="47.61294" lon="-3.11651">
        <ele>18.7</ele>
      </trkpt>
      <trkpt lat="47.61271" lon="-3.11702">
        <ele>18.9</ele>
      </trkpt>
      <trkpt lat="47.61241" lon="-3.11738">
        <ele>18.5</ele>
      </trkpt>
      <trkpt lat="47.61184" lon="-3.11814">
        <ele>19</ele>
      </trkpt>
      <trkpt lat="47.61176" lon="-3.11803">
        <ele>19</ele>
      </trkpt>
      <trkpt lat="47.61156" lon="-3.11791">
        <ele>19</ele>
      </trkpt>
      <trkpt lat="47.61146" lon="-3.11788">
        <ele>19</ele>
      </trkpt>
      <trkpt lat="47.61136" lon="-3.11793">
        <ele>19.1</ele>
      </trkpt>
      <trkpt lat="47.61119" lon="-3.11805">
        <ele>19.7</ele>
      </trkpt>
      <trkpt lat="47.61074" lon="-3.11828">
        <ele>21.3</ele>
      </trkpt>
      <trkpt lat="47.61054" lon="-3.11836">
        <ele>22.1</ele>
      </trkpt>
      <trkpt lat="47.61048" lon="-3.11841">
        <ele>22.3</ele>
      </trkpt>
      <trkpt lat="47.61025" lon="-3.11852">
        <ele>22.6</ele>
      </trkpt>
      <trkpt lat="47.60915" lon="-3.11924">
        <ele>22.1</ele>
      </trkpt>
      <trkpt lat="47.6086" lon="-3.11955">
        <ele>23.1</ele>
      </trkpt>
      <trkpt lat="47.60842" lon="-3.11963">
        <ele>23.7</ele>
      </trkpt>
      <trkpt lat="47.60772" lon="-3.12003">
        <ele>26.3</ele>
      </trkpt>
      <trkpt lat="47.60747" lon="-3.12021">
        <ele>26.9</ele>
      </trkpt>
      <trkpt lat="47.60727" lon="-3.12046">
        <ele>26.2</ele>
      </trkpt>
      <trkpt lat="47.60719" lon="-3.12059">
        <ele>25.7</ele>
      </trkpt>
      <trkpt lat="47.60715" lon="-3.12065">
        <ele>25.4</ele>
      </trkpt>
      <trkpt lat="47.60704" lon="-3.12069">
        <ele>24.9</ele>
      </trkpt>
      <trkpt lat="47.60679" lon="-3.12106">
        <ele>23.6</ele>
      </trkpt>
      <trkpt lat="47.60666" lon="-3.12108">
        <ele>23.1</ele>
      </trkpt>
      <trkpt lat="47.60634" lon="-3.12093">
        <ele>22.9</ele>
      </trkpt>
      <trkpt lat="47.60625" lon="-3.12088">
        <ele>22.9</ele>
      </trkpt>
      <trkpt lat="47.60625" lon="-3.12088">
        <ele>22.9</ele>
      </trkpt>
      <trkpt lat="47.60605" lon="-3.12075">
        <ele>22.8</ele>
      </trkpt>
      <trkpt lat="47.60579" lon="-3.12047">
        <ele>22.2</ele>
      </trkpt>
      <trkpt lat="47.60566" lon="-3.12028">
        <ele>22.4</ele>
      </trkpt>
      <trkpt lat="47.60552" lon="-3.12007">
        <ele>21.9</ele>
      </trkpt>
      <trkpt lat="47.60532" lon="-3.11963">
        <ele>20.9</ele>
      </trkpt>
      <trkpt lat="47.60505" lon="-3.11959">
        <ele>20.5</ele>
      </trkpt>
      <trkpt lat="47.60485" lon="-3.11951">
        <ele>20.5</ele>
      </trkpt>
      <trkpt lat="47.60465" lon="-3.11932">
        <ele>20.7</ele>
      </trkpt>
      <trkpt lat="47.60458" lon="-3.11912">
        <ele>20.5</ele>
      </trkpt>
      <trkpt lat="47.60458" lon="-3.11912">
        <ele>20.5</ele>
      </trkpt>
      <trkpt lat="47.60455" lon="-3.11901">
        <ele>20.6</ele>
      </trkpt>
      <trkpt lat="47.60451" lon="-3.11878">
        <ele>20.9</ele>
      </trkpt>
      <trkpt lat="47.60432" lon="-3.11899">
        <ele>21</ele>
      </trkpt>
      <trkpt lat="47.60429" lon="-3.11922">
        <ele>20.9</ele>
      </trkpt>
      <trkpt lat="47.60419" lon="-3.11912">
        <ele>21</ele>
      </trkpt>
      <trkpt lat="47.6041" lon="-3.11904">
        <ele>21</ele>
      </trkpt>
      <trkpt lat="47.60396" lon="-3.11892">
        <ele>21</ele>
      </trkpt>
      <trkpt lat="47.60388" lon="-3.11884">
        <ele>21.2</ele>
      </trkpt>
      <trkpt lat="47.60381" lon="-3.11878">
        <ele>21.6</ele>
      </trkpt>
      <trkpt lat="47.60373" lon="-3.1187">
        <ele>21.9</ele>
      </trkpt>
      <trkpt lat="47.60373" lon="-3.1187">
        <ele>21.9</ele>
      </trkpt>
      <trkpt lat="47.60356" lon="-3.11854">
        <ele>22.3</ele>
      </trkpt>
      <trkpt lat="47.60351" lon="-3.11847">
        <ele>22.5</ele>
      </trkpt>
    </trkseg>
  </trk>
  <trk>
    <name><![CDATA[Landévant Fort-bloqué 80km_5]]></name>
    <extensions>
      <line xmlns="http://www.topografix.com/GPX/gpx_style/0/2">
        <color>0a0a0a</color>
        <width>4</width>
      </line>
    </extensions>
    <trkseg>
      <trkpt lat="47.75543" lon="-3.13514">
        <ele>35</ele>
        <time>2024-04-29T21:56:17Z</time>
      </trkpt>
      <trkpt lat="47.75482" lon="-3.13471">
        <ele>35</ele>
        <time>2024-04-29T21:56:02Z</time>
      </trkpt>
      <trkpt lat="47.75413" lon="-3.13454">
        <ele>35</ele>
        <time>2024-04-29T21:55:45Z</time>
      </trkpt>
      <trkpt lat="47.75352" lon="-3.13518">
        <ele>33</ele>
        <time>2024-04-29T21:55:28Z</time>
      </trkpt>
      <trkpt lat="47.75286" lon="-3.13668">
        <ele>30</ele>
        <time>2024-04-29T21:55:00Z</time>
      </trkpt>
      <trkpt lat="47.75228" lon="-3.13801">
        <ele>28</ele>
        <time>2024-04-29T21:54:35Z</time>
      </trkpt>
      <trkpt lat="47.75214" lon="-3.13951">
        <ele>26</ele>
        <time>2024-04-29T21:54:11Z</time>
      </trkpt>
      <trkpt lat="47.75182" lon="-3.14166">
        <ele>21</ele>
        <time>2024-04-29T21:53:37Z</time>
      </trkpt>
      <trkpt lat="47.75188" lon="-3.14286">
        <ele>17</ele>
        <time>2024-04-29T21:53:18Z</time>
      </trkpt>
      <trkpt lat="47.75216" lon="-3.14406">
        <ele>15</ele>
        <time>2024-04-29T21:52:58Z</time>
      </trkpt>
      <trkpt lat="47.75277" lon="-3.14488">
        <ele>15</ele>
        <time>2024-04-29T21:52:39Z</time>
      </trkpt>
      <trkpt lat="47.75289" lon="-3.14552">
        <ele>13</ele>
        <time>2024-04-29T21:52:28Z</time>
      </trkpt>
      <trkpt lat="47.75323" lon="-3.14552">
        <ele>11</ele>
        <time>2024-04-29T21:52:20Z</time>
      </trkpt>
      <trkpt lat="47.75369" lon="-3.14578">
        <ele>8</ele>
        <time>2024-04-29T21:52:09Z</time>
      </trkpt>
      <trkpt lat="47.7541" lon="-3.14664">
        <ele>7</ele>
        <time>2024-04-29T21:51:52Z</time>
      </trkpt>
      <trkpt lat="47.75496" lon="-3.14668">
        <ele>8</ele>
        <time>2024-04-29T21:51:32Z</time>
      </trkpt>
      <trkpt lat="47.75312" lon="-3.1531">
        <ele>11</ele>
        <time>2024-04-29T21:49:42Z</time>
      </trkpt>
      <trkpt lat="47.7528" lon="-3.15393">
        <ele>13</ele>
        <time>2024-04-29T21:49:27Z</time>
      </trkpt>
      <trkpt lat="47.75191" lon="-3.15417">
        <ele>14</ele>
        <time>2024-04-29T21:49:06Z</time>
      </trkpt>
      <trkpt lat="47.75144" lon="-3.15436">
        <ele>15</ele>
        <time>2024-04-29T21:48:55Z</time>
      </trkpt>
      <trkpt lat="47.75045" lon="-3.15507">
        <ele>21</ele>
        <time>2024-04-29T21:48:29Z</time>
      </trkpt>
      <trkpt lat="47.74991" lon="-3.15529">
        <ele>22</ele>
        <time>2024-04-29T21:48:16Z</time>
      </trkpt>
      <trkpt lat="47.74974" lon="-3.15569">
        <ele>21</ele>
        <time>2024-04-29T21:48:09Z</time>
      </trkpt>
      <trkpt lat="47.74932" lon="-3.15584">
        <ele>21</ele>
        <time>2024-04-29T21:47:59Z</time>
      </trkpt>
      <trkpt lat="47.74931" lon="-3.15625">
        <ele>20</ele>
        <time>2024-04-29T21:47:52Z</time>
      </trkpt>
      <trkpt lat="47.74902" lon="-3.15578">
        <ele>20</ele>
        <time>2024-04-29T21:47:42Z</time>
      </trkpt>
      <trkpt lat="47.7488" lon="-3.15559">
        <ele>20</ele>
        <time>2024-04-29T21:47:36Z</time>
      </trkpt>
      <trkpt lat="47.7453" lon="-3.15458">
        <ele>10</ele>
        <time>2024-04-29T21:46:13Z</time>
      </trkpt>
      <trkpt lat="47.74484" lon="-3.15454">
        <ele>9</ele>
        <time>2024-04-29T21:46:02Z</time>
      </trkpt>
      <trkpt lat="47.74245" lon="-3.15443">
        <ele>9</ele>
        <time>2024-04-29T21:45:06Z</time>
      </trkpt>
      <trkpt lat="47.74194" lon="-3.15473">
        <ele>8</ele>
        <time>2024-04-29T21:44:54Z</time>
      </trkpt>
      <trkpt lat="47.74198" lon="-3.15516">
        <ele>6</ele>
        <time>2024-04-29T21:44:47Z</time>
      </trkpt>
      <trkpt lat="47.74186" lon="-3.15554">
        <ele>5</ele>
        <time>2024-04-29T21:44:40Z</time>
      </trkpt>
      <trkpt lat="47.74202" lon="-3.15597">
        <ele>4</ele>
        <time>2024-04-29T21:44:32Z</time>
      </trkpt>
      <trkpt lat="47.74225" lon="-3.1569">
        <ele>3</ele>
        <time>2024-04-29T21:44:17Z</time>
      </trkpt>
      <trkpt lat="47.74228" lon="-3.15747">
        <ele>4</ele>
        <time>2024-04-29T21:44:08Z</time>
      </trkpt>
      <trkpt lat="47.74207" lon="-3.15808">
        <ele>7</ele>
        <time>2024-04-29T21:43:57Z</time>
      </trkpt>
      <trkpt lat="47.74191" lon="-3.15848">
        <ele>8</ele>
        <time>2024-04-29T21:43:50Z</time>
      </trkpt>
      <trkpt lat="47.74095" lon="-3.1585">
        <ele>12</ele>
        <time>2024-04-29T21:43:27Z</time>
      </trkpt>
      <trkpt lat="47.7408" lon="-3.15812">
        <ele>12</ele>
        <time>2024-04-29T21:43:21Z</time>
      </trkpt>
      <trkpt lat="47.7409" lon="-3.15765">
        <ele>11</ele>
        <time>2024-04-29T21:43:13Z</time>
      </trkpt>
      <trkpt lat="47.74075" lon="-3.15728">
        <ele>11</ele>
        <time>2024-04-29T21:43:06Z</time>
      </trkpt>
      <trkpt lat="47.74042" lon="-3.15698">
        <ele>12</ele>
        <time>2024-04-29T21:42:57Z</time>
      </trkpt>
      <trkpt lat="47.74023" lon="-3.1566">
        <ele>12</ele>
        <time>2024-04-29T21:42:50Z</time>
      </trkpt>
      <trkpt lat="47.73966" lon="-3.15636">
        <ele>11</ele>
        <time>2024-04-29T21:42:36Z</time>
      </trkpt>
      <trkpt lat="47.73919" lon="-3.15687">
        <ele>13</ele>
        <time>2024-04-29T21:42:22Z</time>
      </trkpt>
      <trkpt lat="47.73903" lon="-3.1576">
        <ele>15</ele>
        <time>2024-04-29T21:42:10Z</time>
      </trkpt>
      <trkpt lat="47.73878" lon="-3.15784">
        <ele>13</ele>
        <time>2024-04-29T21:42:03Z</time>
      </trkpt>
      <trkpt lat="47.73878" lon="-3.1587">
        <ele>10</ele>
        <time>2024-04-29T21:41:50Z</time>
      </trkpt>
      <trkpt lat="47.73867" lon="-3.15949">
        <ele>8</ele>
        <time>2024-04-29T21:41:37Z</time>
      </trkpt>
      <trkpt lat="47.73918" lon="-3.16039">
        <ele>11</ele>
        <time>2024-04-29T21:41:18Z</time>
      </trkpt>
      <trkpt lat="47.73909" lon="-3.16091">
        <ele>12</ele>
        <time>2024-04-29T21:41:10Z</time>
      </trkpt>
      <trkpt lat="47.73847" lon="-3.16162">
        <ele>15</ele>
        <time>2024-04-29T21:40:52Z</time>
      </trkpt>
      <trkpt lat="47.7374" lon="-3.16226">
        <ele>15</ele>
        <time>2024-04-29T21:40:25Z</time>
      </trkpt>
      <trkpt lat="47.73703" lon="-3.16393">
        <ele>16</ele>
        <time>2024-04-29T21:39:57Z</time>
      </trkpt>
      <trkpt lat="47.73789" lon="-3.16722">
        <ele>12</ele>
        <time>2024-04-29T21:39:02Z</time>
      </trkpt>
      <trkpt lat="47.73841" lon="-3.1696">
        <ele>4</ele>
        <time>2024-04-29T21:38:22Z</time>
      </trkpt>
      <trkpt lat="47.73909" lon="-3.17033">
        <ele>3</ele>
        <time>2024-04-29T21:38:03Z</time>
      </trkpt>
      <trkpt lat="47.73961" lon="-3.17121">
        <ele>6</ele>
        <time>2024-04-29T21:37:44Z</time>
      </trkpt>
      <trkpt lat="47.7401" lon="-3.17177">
        <ele>8</ele>
        <time>2024-04-29T21:37:30Z</time>
      </trkpt>
      <trkpt lat="47.74009" lon="-3.172">
        <ele>4.46</ele>
        <time>2012-05-13T06:54:48Z</time>
      </trkpt>
      <trkpt lat="47.74015" lon="-3.17228">
        <ele>8.31</ele>
        <time>2012-05-13T06:54:39Z</time>
      </trkpt>
      <trkpt lat="47.74015" lon="-3.17267">
        <ele>7.35</ele>
        <time>2012-05-13T06:54:30Z</time>
      </trkpt>
      <trkpt lat="47.74016" lon="-3.17274">
        <ele>6.87</ele>
        <time>2012-05-13T06:54:27Z</time>
      </trkpt>
      <trkpt lat="47.74014" lon="-3.17283">
        <ele>6.39</ele>
        <time>2012-05-13T06:54:24Z</time>
      </trkpt>
      <trkpt lat="47.74009" lon="-3.1729">
        <ele>5.42</ele>
        <time>2012-05-13T06:54:21Z</time>
      </trkpt>
      <trkpt lat="47.74009" lon="-3.17304">
        <ele>3.02</ele>
        <time>2012-05-13T06:54:12Z</time>
      </trkpt>
      <trkpt lat="47.74009" lon="-3.17308">
        <ele>1.58</ele>
        <time>2012-05-13T06:54:10Z</time>
      </trkpt>
      <trkpt lat="47.74005" lon="-3.17316">
        <ele>0.62</ele>
        <time>2012-05-13T06:54:06Z</time>
      </trkpt>
      <trkpt lat="47.74003" lon="-3.17322">
        <ele>0.14</ele>
        <time>2012-05-13T06:54:01Z</time>
      </trkpt>
      <trkpt lat="47.74003" lon="-3.17338">
        <ele>0.62</ele>
        <time>2012-05-13T06:53:56Z</time>
      </trkpt>
      <trkpt lat="47.74004" lon="-3.17341">
        <ele>1.1</ele>
        <time>2012-05-13T06:53:54Z</time>
      </trkpt>
      <trkpt lat="47.74002" lon="-3.17365">
        <ele>2.06</ele>
        <time>2012-05-13T06:53:46Z</time>
      </trkpt>
      <trkpt lat="47.74004" lon="-3.17371">
        <ele>2.54</ele>
        <time>2012-05-13T06:53:44Z</time>
      </trkpt>
      <trkpt lat="47.74005" lon="-3.17398">
        <ele>3.5</ele>
        <time>2012-05-13T06:53:34Z</time>
      </trkpt>
      <trkpt lat="47.74002" lon="-3.17412">
        <ele>3.98</ele>
        <time>2012-05-13T06:53:30Z</time>
      </trkpt>
      <trkpt lat="47.73999" lon="-3.17424">
        <ele>4.46</ele>
        <time>2012-05-13T06:53:25Z</time>
      </trkpt>
      <trkpt lat="47.73998" lon="-3.17432">
        <ele>4.46</ele>
        <time>2012-05-13T06:53:20Z</time>
      </trkpt>
      <trkpt lat="47.73995" lon="-3.17434">
        <ele>4.46</ele>
        <time>2012-05-13T06:53:16Z</time>
      </trkpt>
      <trkpt lat="47.73993" lon="-3.17442">
        <ele>4.94</ele>
        <time>2012-05-13T06:53:05Z</time>
      </trkpt>
      <trkpt lat="47.73992" lon="-3.17445">
        <ele>5.91</ele>
        <time>2012-05-13T06:53:03Z</time>
      </trkpt>
      <trkpt lat="47.73993" lon="-3.17449">
        <ele>5.91</ele>
        <time>2012-05-13T06:52:57Z</time>
      </trkpt>
      <trkpt lat="47.73995" lon="-3.17454">
        <ele>5.42</ele>
        <time>2012-05-13T06:52:51Z</time>
      </trkpt>
      <trkpt lat="47.73995" lon="-3.17458">
        <ele>4.94</ele>
        <time>2012-05-13T06:52:42Z</time>
      </trkpt>
      <trkpt lat="47.73989" lon="-3.17465">
        <ele>3.5</ele>
        <time>2012-05-13T06:52:31Z</time>
      </trkpt>
      <trkpt lat="47.73987" lon="-3.17482">
        <ele>2.06</ele>
        <time>2012-05-13T06:52:24Z</time>
      </trkpt>
      <trkpt lat="47.73984" lon="-3.17497">
        <ele>1.1</ele>
        <time>2012-05-13T06:52:18Z</time>
      </trkpt>
      <trkpt lat="47.73983" lon="-3.175">
        <ele>0.14</ele>
        <time>2012-05-13T06:52:17Z</time>
      </trkpt>
      <trkpt lat="47.73981" lon="-3.17521">
        <ele>-3.23</ele>
        <time>2012-05-13T06:52:09Z</time>
      </trkpt>
      <trkpt lat="47.73976" lon="-3.17531">
        <ele>-5.63</ele>
        <time>2012-05-13T06:52:03Z</time>
      </trkpt>
      <trkpt lat="47.73972" lon="-3.1753">
        <ele>-8.03</ele>
        <time>2012-05-13T06:51:57Z</time>
      </trkpt>
      <trkpt lat="47.73964" lon="-3.17536">
        <ele>-12.36</ele>
        <time>2012-05-13T06:51:48Z</time>
      </trkpt>
      <trkpt lat="47.73961" lon="-3.17537">
        <ele>-11.4</ele>
        <time>2012-05-13T06:51:41Z</time>
      </trkpt>
      <trkpt lat="47.73952" lon="-3.17568">
        <ele>-10.92</ele>
        <time>2012-05-13T06:51:31Z</time>
      </trkpt>
      <trkpt lat="47.73948" lon="-3.17613">
        <ele>-7.55</ele>
        <time>2012-05-13T06:51:22Z</time>
      </trkpt>
      <trkpt lat="47.7395" lon="-3.17632">
        <ele>-6.11</ele>
        <time>2012-05-13T06:51:15Z</time>
      </trkpt>
      <trkpt lat="47.73944" lon="-3.17641">
        <ele>-5.15</ele>
        <time>2012-05-13T06:51:11Z</time>
      </trkpt>
      <trkpt lat="47.73937" lon="-3.17668">
        <ele>-4.67</ele>
        <time>2012-05-13T06:51:03Z</time>
      </trkpt>
      <trkpt lat="47.73938" lon="-3.17676">
        <ele>-3.23</ele>
        <time>2012-05-13T06:51:00Z</time>
      </trkpt>
      <trkpt lat="47.73927" lon="-3.17698">
        <ele>1.1</ele>
        <time>2012-05-13T06:50:53Z</time>
      </trkpt>
      <trkpt lat="47.7393" lon="-3.17714">
        <ele>3.98</ele>
        <time>2012-05-13T06:50:46Z</time>
      </trkpt>
      <trkpt lat="47.73935" lon="-3.17731">
        <ele>7.83</ele>
        <time>2012-05-13T06:50:39Z</time>
      </trkpt>
      <trkpt lat="47.73943" lon="-3.17761">
        <ele>10.71</ele>
        <time>2012-05-13T06:50:28Z</time>
      </trkpt>
      <trkpt lat="47.73949" lon="-3.178">
        <ele>11.19</ele>
        <time>2012-05-13T06:50:21Z</time>
      </trkpt>
      <trkpt lat="47.73939" lon="-3.17833">
        <ele>12.15</ele>
        <time>2012-05-13T06:50:15Z</time>
      </trkpt>
      <trkpt lat="47.73938" lon="-3.17848">
        <ele>13.12</ele>
        <time>2012-05-13T06:50:11Z</time>
      </trkpt>
      <trkpt lat="47.73968" lon="-3.17854">
        <ele>10.23</ele>
        <time>2012-05-13T06:50:05Z</time>
      </trkpt>
      <trkpt lat="47.74001" lon="-3.17878">
        <ele>10.71</ele>
        <time>2012-05-13T06:50:00Z</time>
      </trkpt>
      <trkpt lat="47.74037" lon="-3.17913">
        <ele>14.56</ele>
        <time>2012-05-13T06:49:53Z</time>
      </trkpt>
      <trkpt lat="47.74087" lon="-3.17926">
        <ele>14.08</ele>
        <time>2012-05-13T06:49:44Z</time>
      </trkpt>
      <trkpt lat="47.7414" lon="-3.17937">
        <ele>14.08</ele>
        <time>2012-05-13T06:49:34Z</time>
      </trkpt>
      <trkpt lat="47.74134" lon="-3.17956">
        <ele>12.15</ele>
        <time>2012-05-13T06:49:29Z</time>
      </trkpt>
      <trkpt lat="47.74133" lon="-3.17987">
        <ele>10.71</ele>
        <time>2012-05-13T06:49:22Z</time>
      </trkpt>
      <trkpt lat="47.74133" lon="-3.18017">
        <ele>10.71</ele>
        <time>2012-05-13T06:49:15Z</time>
      </trkpt>
      <trkpt lat="47.74132" lon="-3.18022">
        <ele>11.67</ele>
        <time>2012-05-13T06:49:14Z</time>
      </trkpt>
      <trkpt lat="47.74125" lon="-3.18061">
        <ele>10.23</ele>
        <time>2012-05-13T06:49:06Z</time>
      </trkpt>
      <trkpt lat="47.74125" lon="-3.1811">
        <ele>13.12</ele>
        <time>2012-05-13T06:48:58Z</time>
      </trkpt>
      <trkpt lat="47.74119" lon="-3.18146">
        <ele>14.56</ele>
        <time>2012-05-13T06:48:54Z</time>
      </trkpt>
      <trkpt lat="47.74117" lon="-3.18171">
        <ele>19.36</ele>
        <time>2012-05-13T06:48:52Z</time>
      </trkpt>
      <trkpt lat="47.74119" lon="-3.18201">
        <ele>20.81</ele>
        <time>2012-05-13T06:48:49Z</time>
      </trkpt>
      <trkpt lat="47.74114" lon="-3.18228">
        <ele>23.21</ele>
        <time>2012-05-13T06:48:44Z</time>
      </trkpt>
      <trkpt lat="47.74114" lon="-3.18262">
        <ele>23.69</ele>
        <time>2012-05-13T06:48:40Z</time>
      </trkpt>
      <trkpt lat="47.74118" lon="-3.18307">
        <ele>25.61</ele>
        <time>2012-05-13T06:48:34Z</time>
      </trkpt>
      <trkpt lat="47.74124" lon="-3.18319">
        <ele>26.57</ele>
        <time>2012-05-13T06:48:32Z</time>
      </trkpt>
      <trkpt lat="47.7413" lon="-3.18331">
        <ele>23.69</ele>
        <time>2012-05-13T06:48:30Z</time>
      </trkpt>
      <trkpt lat="47.74148" lon="-3.18354">
        <ele>25.61</ele>
        <time>2012-05-13T06:48:25Z</time>
      </trkpt>
      <trkpt lat="47.74162" lon="-3.18404">
        <ele>28.02</ele>
        <time>2012-05-13T06:48:17Z</time>
      </trkpt>
      <trkpt lat="47.74166" lon="-3.18433">
        <ele>28.98</ele>
        <time>2012-05-13T06:48:12Z</time>
      </trkpt>
      <trkpt lat="47.74168" lon="-3.18451">
        <ele>28.02</ele>
        <time>2012-05-13T06:48:08Z</time>
      </trkpt>
      <trkpt lat="47.74169" lon="-3.18459">
        <ele>26.57</ele>
        <time>2012-05-13T06:48:06Z</time>
      </trkpt>
      <trkpt lat="47.7419" lon="-3.18497">
        <ele>22.73</ele>
        <time>2012-05-13T06:47:59Z</time>
      </trkpt>
      <trkpt lat="47.74207" lon="-3.18516">
        <ele>22.25</ele>
        <time>2012-05-13T06:47:52Z</time>
      </trkpt>
      <trkpt lat="47.74222" lon="-3.18522">
        <ele>20.32</ele>
        <time>2012-05-13T06:47:48Z</time>
      </trkpt>
      <trkpt lat="47.74243" lon="-3.18524">
        <ele>20.32</ele>
        <time>2012-05-13T06:47:42Z</time>
      </trkpt>
      <trkpt lat="47.74272" lon="-3.18528">
        <ele>16</ele>
        <time>2012-05-13T06:47:34Z</time>
      </trkpt>
      <trkpt lat="47.74293" lon="-3.18534">
        <ele>15.52</ele>
        <time>2012-05-13T06:47:27Z</time>
      </trkpt>
      <trkpt lat="47.74318" lon="-3.18528">
        <ele>11.67</ele>
        <time>2012-05-13T06:47:21Z</time>
      </trkpt>
      <trkpt lat="47.74351" lon="-3.18523">
        <ele>10.23</ele>
        <time>2012-05-13T06:47:13Z</time>
      </trkpt>
      <trkpt lat="47.74375" lon="-3.18537">
        <ele>18.4</ele>
        <time>2012-05-13T06:47:06Z</time>
      </trkpt>
      <trkpt lat="47.74388" lon="-3.18532">
        <ele>18.88</ele>
        <time>2012-05-13T06:47:02Z</time>
      </trkpt>
      <trkpt lat="47.74407" lon="-3.18522">
        <ele>18.88</ele>
        <time>2012-05-13T06:46:58Z</time>
      </trkpt>
      <trkpt lat="47.74421" lon="-3.18517">
        <ele>19.84</ele>
        <time>2012-05-13T06:46:55Z</time>
      </trkpt>
      <trkpt lat="47.74432" lon="-3.18505">
        <ele>19.84</ele>
        <time>2012-05-13T06:46:51Z</time>
      </trkpt>
      <trkpt lat="47.74437" lon="-3.18484">
        <ele>16.96</ele>
        <time>2012-05-13T06:46:48Z</time>
      </trkpt>
      <trkpt lat="47.7443" lon="-3.18439">
        <ele>16</ele>
        <time>2012-05-13T06:46:41Z</time>
      </trkpt>
      <trkpt lat="47.7444" lon="-3.18406">
        <ele>12.63</ele>
        <time>2012-05-13T06:46:36Z</time>
      </trkpt>
      <trkpt lat="47.74439" lon="-3.18395">
        <ele>12.15</ele>
        <time>2012-05-13T06:46:34Z</time>
      </trkpt>
      <trkpt lat="47.74431" lon="-3.18363">
        <ele>7.83</ele>
        <time>2012-05-13T06:46:28Z</time>
      </trkpt>
      <trkpt lat="47.74448" lon="-3.18331">
        <ele>5.42</ele>
        <time>2012-05-13T06:46:22Z</time>
      </trkpt>
      <trkpt lat="47.74463" lon="-3.18288">
        <ele>3.5</ele>
        <time>2012-05-13T06:46:15Z</time>
      </trkpt>
      <trkpt lat="47.74472" lon="-3.18266">
        <ele>3.98</ele>
        <time>2012-05-13T06:46:10Z</time>
      </trkpt>
      <trkpt lat="47.74477" lon="-3.1824">
        <ele>3.02</ele>
        <time>2012-05-13T06:46:06Z</time>
      </trkpt>
      <trkpt lat="47.74481" lon="-3.1823">
        <ele>3.5</ele>
        <time>2012-05-13T06:46:04Z</time>
      </trkpt>
      <trkpt lat="47.74486" lon="-3.1821">
        <ele>5.91</ele>
        <time>2012-05-13T06:45:59Z</time>
      </trkpt>
      <trkpt lat="47.74488" lon="-3.18206">
        <ele>7.35</ele>
        <time>2012-05-13T06:45:55Z</time>
      </trkpt>
      <trkpt lat="47.74486" lon="-3.18188">
        <ele>4.94</ele>
        <time>2012-05-13T06:45:47Z</time>
      </trkpt>
      <trkpt lat="47.74528" lon="-3.18239">
        <ele>14</ele>
        <time>2024-04-29T21:33:51Z</time>
      </trkpt>
      <trkpt lat="47.74583" lon="-3.18282">
        <ele>13</ele>
        <time>2024-04-29T21:33:36Z</time>
      </trkpt>
      <trkpt lat="47.74605" lon="-3.18316">
        <ele>12</ele>
        <time>2024-04-29T21:33:29Z</time>
      </trkpt>
      <trkpt lat="47.74606" lon="-3.18359">
        <ele>12</ele>
        <time>2024-04-29T21:33:22Z</time>
      </trkpt>
      <trkpt lat="47.74611" lon="-3.1841">
        <ele>11</ele>
        <time>2024-04-29T21:33:14Z</time>
      </trkpt>
      <trkpt lat="47.74642" lon="-3.18436">
        <ele>8</ele>
        <time>2024-04-29T21:33:05Z</time>
      </trkpt>
      <trkpt lat="47.74668" lon="-3.1843">
        <ele>6</ele>
        <time>2024-04-29T21:32:59Z</time>
      </trkpt>
      <trkpt lat="47.74681" lon="-3.18458">
        <ele>7</ele>
        <time>2024-04-29T21:32:54Z</time>
      </trkpt>
      <trkpt lat="47.74684" lon="-3.18507">
        <ele>7</ele>
        <time>2024-04-29T21:32:46Z</time>
      </trkpt>
      <trkpt lat="47.74664" lon="-3.18524">
        <ele>5</ele>
        <time>2024-04-29T21:32:41Z</time>
      </trkpt>
      <trkpt lat="47.74635" lon="-3.18558">
        <ele>4</ele>
        <time>2024-04-29T21:32:32Z</time>
      </trkpt>
      <trkpt lat="47.74635" lon="-3.18606">
        <ele>3</ele>
        <time>2024-04-29T21:32:25Z</time>
      </trkpt>
      <trkpt lat="47.74638" lon="-3.18661">
        <ele>1</ele>
        <time>2024-04-29T21:32:16Z</time>
      </trkpt>
      <trkpt lat="47.74635" lon="-3.187">
        <ele>1</ele>
        <time>2024-04-29T21:32:10Z</time>
      </trkpt>
      <trkpt lat="47.74647" lon="-3.18743">
        <ele>2</ele>
        <time>2024-04-29T21:32:03Z</time>
      </trkpt>
      <trkpt lat="47.74694" lon="-3.18752">
        <ele>4</ele>
        <time>2024-04-29T21:31:51Z</time>
      </trkpt>
      <trkpt lat="47.74733" lon="-3.18767">
        <ele>5</ele>
        <time>2024-04-29T21:31:42Z</time>
      </trkpt>
      <trkpt lat="47.74723" lon="-3.18825">
        <ele>4</ele>
        <time>2024-04-29T21:31:33Z</time>
      </trkpt>
      <trkpt lat="47.7473" lon="-3.1887">
        <ele>4</ele>
        <time>2024-04-29T21:31:25Z</time>
      </trkpt>
      <trkpt lat="47.74745" lon="-3.18893">
        <ele>3</ele>
        <time>2024-04-29T21:31:20Z</time>
      </trkpt>
      <trkpt lat="47.74736" lon="-3.18928">
        <ele>3</ele>
        <time>2024-04-29T21:31:15Z</time>
      </trkpt>
      <trkpt lat="47.74709" lon="-3.19013">
        <ele>2</ele>
        <time>2024-04-29T21:31:00Z</time>
      </trkpt>
      <trkpt lat="47.74649" lon="-3.19101">
        <ele>1.1</ele>
        <time>2024-04-29T21:30:40Z</time>
      </trkpt>
      <trkpt lat="47.74626" lon="-3.1923">
        <ele>6</ele>
        <time>2024-04-29T21:30:19Z</time>
      </trkpt>
      <trkpt lat="47.74611" lon="-3.19316">
        <ele>15</ele>
        <time>2024-04-29T21:30:05Z</time>
      </trkpt>
      <trkpt lat="47.74605" lon="-3.19391">
        <ele>17</ele>
        <time>2024-04-29T21:29:53Z</time>
      </trkpt>
      <trkpt lat="47.74577" lon="-3.19391">
        <ele>19</ele>
        <time>2024-04-29T21:29:47Z</time>
      </trkpt>
      <trkpt lat="47.74533" lon="-3.19363">
        <ele>19</ele>
        <time>2024-04-29T21:29:36Z</time>
      </trkpt>
      <trkpt lat="47.74494" lon="-3.19361">
        <ele>19</ele>
        <time>2024-04-29T21:29:26Z</time>
      </trkpt>
      <trkpt lat="47.73922" lon="-3.19427">
        <ele>12</ele>
        <time>2024-04-29T21:27:12Z</time>
      </trkpt>
      <trkpt lat="47.73878" lon="-3.19468">
        <ele>11</ele>
        <time>2024-04-29T21:27:00Z</time>
      </trkpt>
      <trkpt lat="47.73857" lon="-3.19556">
        <ele>10</ele>
        <time>2024-04-29T21:26:46Z</time>
      </trkpt>
      <trkpt lat="47.73813" lon="-3.19657">
        <ele>8</ele>
        <time>2024-04-29T21:26:27Z</time>
      </trkpt>
      <trkpt lat="47.73723" lon="-3.19696">
        <ele>13</ele>
        <time>2024-04-29T21:26:05Z</time>
      </trkpt>
      <trkpt lat="47.73553" lon="-3.19771">
        <ele>17</ele>
        <time>2024-04-29T21:25:23Z</time>
      </trkpt>
      <trkpt lat="47.73375" lon="-3.19975">
        <ele>17</ele>
        <time>2024-04-29T21:24:31Z</time>
      </trkpt>
      <trkpt lat="47.73313" lon="-3.19801">
        <ele>11</ele>
        <time>2024-04-29T21:24:00Z</time>
      </trkpt>
      <trkpt lat="47.73245" lon="-3.19681">
        <ele>9</ele>
        <time>2024-04-29T21:23:35Z</time>
      </trkpt>
      <trkpt lat="47.7317" lon="-3.19483">
        <ele>8</ele>
        <time>2024-04-29T21:23:00Z</time>
      </trkpt>
      <trkpt lat="47.73101" lon="-3.19374">
        <ele>6</ele>
        <time>2024-04-29T21:22:36Z</time>
      </trkpt>
      <trkpt lat="47.73211" lon="-3.19279">
        <ele>6</ele>
        <time>2024-04-29T21:22:07Z</time>
      </trkpt>
      <trkpt lat="47.73195" lon="-3.19219">
        <ele>9</ele>
        <time>2024-04-29T21:21:56Z</time>
      </trkpt>
      <trkpt lat="47.73176" lon="-3.19228">
        <ele>9</ele>
        <time>2024-04-29T21:21:52Z</time>
      </trkpt>
      <trkpt lat="47.73153" lon="-3.19275">
        <ele>9</ele>
        <time>2024-04-29T21:21:43Z</time>
      </trkpt>
      <trkpt lat="47.73114" lon="-3.19305">
        <ele>9</ele>
        <time>2024-04-29T21:21:32Z</time>
      </trkpt>
      <trkpt lat="47.73026" lon="-3.19322">
        <ele>11</ele>
        <time>2024-04-29T21:21:12Z</time>
      </trkpt>
      <trkpt lat="47.72942" lon="-3.19387">
        <ele>9</ele>
        <time>2024-04-29T21:20:50Z</time>
      </trkpt>
      <trkpt lat="47.72882" lon="-3.19374">
        <ele>8</ele>
        <time>2024-04-29T21:20:35Z</time>
      </trkpt>
      <trkpt lat="47.72843" lon="-3.1929">
        <ele>9</ele>
        <time>2024-04-29T21:20:19Z</time>
      </trkpt>
      <trkpt lat="47.72786" lon="-3.19155">
        <ele>11</ele>
        <time>2024-04-29T21:19:54Z</time>
      </trkpt>
      <trkpt lat="47.72714" lon="-3.19061">
        <ele>14</ele>
        <time>2024-04-29T21:19:32Z</time>
      </trkpt>
      <trkpt lat="47.72665" lon="-3.19011">
        <ele>17</ele>
        <time>2024-04-29T21:19:18Z</time>
      </trkpt>
      <trkpt lat="47.72594" lon="-3.19041">
        <ele>19</ele>
        <time>2024-04-29T21:19:01Z</time>
      </trkpt>
      <trkpt lat="47.72531" lon="-3.19028">
        <ele>18</ele>
        <time>2024-04-29T21:18:46Z</time>
      </trkpt>
      <trkpt lat="47.72465" lon="-3.19041">
        <ele>17</ele>
        <time>2024-04-29T21:18:30Z</time>
      </trkpt>
      <trkpt lat="47.72436" lon="-3.19026">
        <ele>18</ele>
        <time>2024-04-29T21:18:23Z</time>
      </trkpt>
      <trkpt lat="47.72415" lon="-3.18973">
        <ele>20</ele>
        <time>2024-04-29T21:18:14Z</time>
      </trkpt>
      <trkpt lat="47.72391" lon="-3.18932">
        <ele>20</ele>
        <time>2024-04-29T21:18:05Z</time>
      </trkpt>
      <trkpt lat="47.72346" lon="-3.18906">
        <ele>21</ele>
        <time>2024-04-29T21:17:54Z</time>
      </trkpt>
      <trkpt lat="47.72423" lon="-3.18631">
        <ele>23</ele>
        <time>2024-04-29T21:17:07Z</time>
      </trkpt>
      <trkpt lat="47.7226" lon="-3.18582">
        <ele>18</ele>
        <time>2024-04-29T21:16:28Z</time>
      </trkpt>
      <trkpt lat="47.72307" lon="-3.18183">
        <ele>13</ele>
        <time>2024-04-29T21:15:24Z</time>
      </trkpt>
      <trkpt lat="47.72037" lon="-3.18093">
        <ele>11</ele>
        <time>2024-04-29T21:14:20Z</time>
      </trkpt>
      <trkpt lat="47.72045" lon="-3.18038">
        <ele>11</ele>
        <time>2024-04-29T21:14:11Z</time>
      </trkpt>
      <trkpt lat="47.72024" lon="-3.18013">
        <ele>12</ele>
        <time>2024-04-30T00:15:55Z</time>
      </trkpt>
      <trkpt lat="47.71877" lon="-3.17917">
        <ele>10</ele>
        <time>2024-04-30T00:15:18Z</time>
      </trkpt>
      <trkpt lat="47.71776" lon="-3.179">
        <ele>9</ele>
        <time>2024-04-30T00:14:54Z</time>
      </trkpt>
      <trkpt lat="47.71747" lon="-3.18054">
        <ele>8</ele>
        <time>2024-04-30T00:14:29Z</time>
      </trkpt>
      <trkpt lat="47.71642" lon="-3.18131">
        <ele>7</ele>
        <time>2024-04-30T00:14:02Z</time>
      </trkpt>
      <trkpt lat="47.71558" lon="-3.18155">
        <ele>6</ele>
        <time>2024-04-30T00:13:42Z</time>
      </trkpt>
      <trkpt lat="47.71476" lon="-3.18207">
        <ele>5</ele>
        <time>2024-04-30T00:13:21Z</time>
      </trkpt>
      <trkpt lat="47.71409" lon="-3.18288">
        <ele>3</ele>
        <time>2024-04-30T00:13:01Z</time>
      </trkpt>
      <trkpt lat="47.71359" lon="-3.18224">
        <ele>4</ele>
        <time>2024-04-30T00:12:45Z</time>
      </trkpt>
      <trkpt lat="47.71324" lon="-3.18198">
        <ele>5</ele>
        <time>2024-04-30T00:12:36Z</time>
      </trkpt>
      <trkpt lat="47.71314" lon="-3.17977">
        <ele>5</ele>
        <time>2024-04-30T00:12:01Z</time>
      </trkpt>
      <trkpt lat="47.71224" lon="-3.17865">
        <ele>4</ele>
        <time>2024-04-30T00:11:34Z</time>
      </trkpt>
      <trkpt lat="47.71167" lon="-3.17827">
        <ele>4</ele>
        <time>2024-04-30T00:11:19Z</time>
      </trkpt>
      <trkpt lat="47.71131" lon="-3.17837">
        <ele>4</ele>
        <time>2024-04-30T00:11:11Z</time>
      </trkpt>
      <trkpt lat="47.71004" lon="-3.17848">
        <ele>3</ele>
        <time>2024-04-30T00:10:41Z</time>
      </trkpt>
      <trkpt lat="47.70999" lon="-3.17644">
        <ele>2</ele>
        <time>2024-04-30T00:10:09Z</time>
      </trkpt>
      <trkpt lat="47.70949" lon="-3.17501">
        <ele>9</ele>
        <time>2024-04-30T00:09:44Z</time>
      </trkpt>
      <trkpt lat="47.70856" lon="-3.17481">
        <ele>9</ele>
        <time>2024-04-30T00:09:22Z</time>
      </trkpt>
      <trkpt lat="47.70784" lon="-3.17496">
        <ele>6</ele>
        <time>2024-04-30T00:09:05Z</time>
      </trkpt>
      <trkpt lat="47.7071" lon="-3.17473">
        <ele>2</ele>
        <time>2024-04-30T00:08:47Z</time>
      </trkpt>
      <trkpt lat="47.70725" lon="-3.17565">
        <ele>2</ele>
        <time>2024-04-30T00:08:32Z</time>
      </trkpt>
      <trkpt lat="47.70728" lon="-3.17666">
        <ele>3</ele>
        <time>2024-04-30T00:08:16Z</time>
      </trkpt>
      <trkpt lat="47.70622" lon="-3.17726">
        <ele>2</ele>
        <time>2024-04-30T00:07:50Z</time>
      </trkpt>
      <trkpt lat="47.70601" lon="-3.17782">
        <ele>3</ele>
        <time>2024-04-30T00:07:40Z</time>
      </trkpt>
      <trkpt lat="47.70605" lon="-3.17829">
        <ele>4</ele>
        <time>2024-04-30T00:07:32Z</time>
      </trkpt>
      <trkpt lat="47.70565" lon="-3.17889">
        <ele>5</ele>
        <time>2024-04-30T00:07:19Z</time>
      </trkpt>
      <trkpt lat="47.70544" lon="-3.17885">
        <ele>4</ele>
        <time>2024-04-30T00:07:14Z</time>
      </trkpt>
      <trkpt lat="47.70526" lon="-3.17904">
        <ele>4</ele>
        <time>2024-04-30T00:07:09Z</time>
      </trkpt>
      <trkpt lat="47.70469" lon="-3.17902">
        <ele>2</ele>
        <time>2024-04-30T00:06:56Z</time>
      </trkpt>
      <trkpt lat="47.70429" lon="-3.18011">
        <ele>3</ele>
        <time>2024-04-30T00:06:36Z</time>
      </trkpt>
      <trkpt lat="47.7043" lon="-3.18063">
        <ele>1</ele>
        <time>2024-04-30T00:06:28Z</time>
      </trkpt>
      <trkpt lat="47.70451" lon="-3.18093">
        <ele>2</ele>
        <time>2024-04-30T00:06:21Z</time>
      </trkpt>
      <trkpt lat="47.70469" lon="-3.18076">
        <ele>3</ele>
        <time>2024-04-30T00:06:16Z</time>
      </trkpt>
      <trkpt lat="47.705" lon="-3.18082">
        <ele>4</ele>
        <time>2024-04-30T00:06:09Z</time>
      </trkpt>
      <trkpt lat="47.70527" lon="-3.1814">
        <ele>3</ele>
        <time>2024-04-30T00:05:58Z</time>
      </trkpt>
      <trkpt lat="47.70537" lon="-3.18226">
        <ele>2</ele>
        <time>2024-04-30T00:05:44Z</time>
      </trkpt>
      <trkpt lat="47.7056" lon="-3.1829">
        <ele>2</ele>
        <time>2024-04-30T00:05:33Z</time>
      </trkpt>
      <trkpt lat="47.70537" lon="-3.18299">
        <ele>2</ele>
        <time>2024-04-30T00:05:27Z</time>
      </trkpt>
      <trkpt lat="47.70537" lon="-3.18329">
        <ele>2</ele>
        <time>2024-04-30T00:05:22Z</time>
      </trkpt>
      <trkpt lat="47.7055" lon="-3.18352">
        <ele>2</ele>
        <time>2024-04-30T00:05:18Z</time>
      </trkpt>
      <trkpt lat="47.70542" lon="-3.18406">
        <ele>2</ele>
        <time>2024-04-30T00:05:09Z</time>
      </trkpt>
      <trkpt lat="47.70523" lon="-3.18438">
        <ele>2</ele>
        <time>2024-04-30T00:05:02Z</time>
      </trkpt>
      <trkpt lat="47.70508" lon="-3.18477">
        <ele>3</ele>
        <time>2024-04-30T00:04:55Z</time>
      </trkpt>
      <trkpt lat="47.70488" lon="-3.18582">
        <ele>3</ele>
        <time>2024-04-30T00:04:38Z</time>
      </trkpt>
      <trkpt lat="47.70485" lon="-3.18728">
        <ele>6</ele>
        <time>2024-04-30T00:04:15Z</time>
      </trkpt>
      <trkpt lat="47.70462" lon="-3.18747">
        <ele>6</ele>
        <time>2024-04-30T00:04:09Z</time>
      </trkpt>
      <trkpt lat="47.70459" lon="-3.18777">
        <ele>5</ele>
        <time>2024-04-30T00:04:04Z</time>
      </trkpt>
      <trkpt lat="47.7051" lon="-3.18799">
        <ele>5</ele>
        <time>2024-04-30T00:03:52Z</time>
      </trkpt>
      <trkpt lat="47.70527" lon="-3.18827">
        <ele>5</ele>
        <time>2024-04-30T00:03:46Z</time>
      </trkpt>
      <trkpt lat="47.70584" lon="-3.1909">
        <ele>7</ele>
        <time>2024-04-30T00:03:03Z</time>
      </trkpt>
      <trkpt lat="47.70554" lon="-3.19097">
        <ele>6</ele>
        <time>2024-04-30T00:02:55Z</time>
      </trkpt>
      <trkpt lat="47.70552" lon="-3.19136">
        <ele>5</ele>
        <time>2024-04-30T00:02:49Z</time>
      </trkpt>
      <trkpt lat="47.70543" lon="-3.19149">
        <ele>5</ele>
        <time>2024-04-30T00:02:46Z</time>
      </trkpt>
      <trkpt lat="47.70522" lon="-3.19145">
        <ele>5</ele>
        <time>2024-04-30T00:02:41Z</time>
      </trkpt>
      <trkpt lat="47.70512" lon="-3.19153">
        <ele>4</ele>
        <time>2024-04-30T00:02:39Z</time>
      </trkpt>
      <trkpt lat="47.70503" lon="-3.19188">
        <ele>5</ele>
        <time>2024-04-30T00:02:33Z</time>
      </trkpt>
      <trkpt lat="47.70481" lon="-3.19206">
        <ele>4</ele>
        <time>2024-04-30T00:02:27Z</time>
      </trkpt>
      <trkpt lat="47.70469" lon="-3.19232">
        <ele>4</ele>
        <time>2024-04-30T00:02:22Z</time>
      </trkpt>
      <trkpt lat="47.7047" lon="-3.19256">
        <ele>5</ele>
        <time>2024-04-30T00:02:18Z</time>
      </trkpt>
      <trkpt lat="47.70459" lon="-3.19269">
        <ele>4</ele>
        <time>2024-04-30T00:02:15Z</time>
      </trkpt>
      <trkpt lat="47.70455" lon="-3.19299">
        <ele>4</ele>
        <time>2024-04-30T00:02:10Z</time>
      </trkpt>
      <trkpt lat="47.70466" lon="-3.19345">
        <ele>4</ele>
        <time>2024-04-30T00:02:03Z</time>
      </trkpt>
      <trkpt lat="47.70484" lon="-3.19404">
        <ele>4</ele>
        <time>2024-04-30T00:01:52Z</time>
      </trkpt>
      <trkpt lat="47.70487" lon="-3.19478">
        <ele>2</ele>
        <time>2024-04-30T00:01:41Z</time>
      </trkpt>
      <trkpt lat="47.70484" lon="-3.19503">
        <ele>2</ele>
        <time>2024-04-30T00:01:37Z</time>
      </trkpt>
      <trkpt lat="47.70456" lon="-3.19507">
        <ele>2</ele>
        <time>2024-04-30T00:01:30Z</time>
      </trkpt>
      <trkpt lat="47.70409" lon="-3.19511">
        <ele>1</ele>
        <time>2024-04-30T00:01:19Z</time>
      </trkpt>
      <trkpt lat="47.70389" lon="-3.1955">
        <ele>2</ele>
        <time>2024-04-30T00:01:11Z</time>
      </trkpt>
      <trkpt lat="47.70378" lon="-3.1955">
        <ele>2</ele>
        <time>2024-04-30T00:01:09Z</time>
      </trkpt>
      <trkpt lat="47.70347" lon="-3.19556">
        <ele>2</ele>
        <time>2024-04-30T00:01:02Z</time>
      </trkpt>
      <trkpt lat="47.70323" lon="-3.19596">
        <ele>2</ele>
        <time>2024-04-30T00:00:53Z</time>
      </trkpt>
      <trkpt lat="47.70311" lon="-3.19632">
        <ele>4</ele>
        <time>2024-04-30T00:00:47Z</time>
      </trkpt>
      <trkpt lat="47.70272" lon="-3.19618">
        <ele>2</ele>
        <time>2024-04-30T00:00:37Z</time>
      </trkpt>
      <trkpt lat="47.70258" lon="-3.19606">
        <ele>2</ele>
        <time>2024-04-30T00:00:34Z</time>
      </trkpt>
      <trkpt lat="47.70197" lon="-3.19491">
        <ele>1</ele>
        <time>2024-04-30T00:00:11Z</time>
      </trkpt>
      <trkpt lat="47.70183" lon="-3.19474">
        <ele>1</ele>
        <time>2024-04-30T00:00:06Z</time>
      </trkpt>
      <trkpt lat="47.70168" lon="-3.19473">
        <ele>1</ele>
        <time>2024-04-30T00:00:03Z</time>
      </trkpt>
      <trkpt lat="47.70147" lon="-3.19493">
        <ele>2</ele>
        <time>2024-04-29T23:59:57Z</time>
      </trkpt>
      <trkpt lat="47.70104" lon="-3.19507">
        <ele>1</ele>
        <time>2024-04-29T23:59:47Z</time>
      </trkpt>
      <trkpt lat="47.70048" lon="-3.19508">
        <ele>1</ele>
        <time>2024-04-29T23:59:34Z</time>
      </trkpt>
      <trkpt lat="47.7003" lon="-3.19517">
        <ele>1</ele>
        <time>2024-04-29T23:59:29Z</time>
      </trkpt>
      <trkpt lat="47.7001" lon="-3.19565">
        <ele>1</ele>
        <time>2024-04-29T23:59:20Z</time>
      </trkpt>
      <trkpt lat="47.69987" lon="-3.1966">
        <ele>2</ele>
        <time>2024-04-29T23:59:05Z</time>
      </trkpt>
      <trkpt lat="47.69976" lon="-3.19789">
        <ele>4</ele>
        <time>2024-04-29T23:58:44Z</time>
      </trkpt>
      <trkpt lat="47.69968" lon="-3.19804">
        <ele>4</ele>
        <time>2024-04-29T23:58:41Z</time>
      </trkpt>
      <trkpt lat="47.69954" lon="-3.19838">
        <ele>5</ele>
        <time>2024-04-29T23:58:35Z</time>
      </trkpt>
      <trkpt lat="47.6993" lon="-3.19846">
        <ele>5</ele>
        <time>2024-04-29T23:58:29Z</time>
      </trkpt>
      <trkpt lat="47.69892" lon="-3.19828">
        <ele>5</ele>
        <time>2024-04-29T23:58:20Z</time>
      </trkpt>
      <trkpt lat="47.69865" lon="-3.19726">
        <ele>3</ele>
        <time>2024-04-29T23:58:03Z</time>
      </trkpt>
      <trkpt lat="47.6985" lon="-3.19726">
        <ele>3</ele>
        <time>2024-04-29T23:57:59Z</time>
      </trkpt>
      <trkpt lat="47.6981" lon="-3.19733">
        <ele>3</ele>
        <time>2024-04-29T23:57:50Z</time>
      </trkpt>
      <trkpt lat="47.69776" lon="-3.19755">
        <ele>4</ele>
        <time>2024-04-29T23:57:41Z</time>
      </trkpt>
      <trkpt lat="47.69755" lon="-3.19803">
        <ele>3</ele>
        <time>2024-04-29T23:57:32Z</time>
      </trkpt>
      <trkpt lat="47.69739" lon="-3.19816">
        <ele>3</ele>
        <time>2024-04-29T23:57:28Z</time>
      </trkpt>
      <trkpt lat="47.69748" lon="-3.1983">
        <ele>3</ele>
        <time>2024-04-29T23:57:25Z</time>
      </trkpt>
      <trkpt lat="47.69804" lon="-3.19856">
        <ele>4</ele>
        <time>2024-04-29T23:57:11Z</time>
      </trkpt>
      <trkpt lat="47.69744" lon="-3.19905">
        <ele>3</ele>
        <time>2024-04-29T23:56:55Z</time>
      </trkpt>
      <trkpt lat="47.69728" lon="-3.19929">
        <ele>3</ele>
        <time>2024-04-29T23:56:50Z</time>
      </trkpt>
      <trkpt lat="47.69731" lon="-3.19941">
        <ele>3</ele>
        <time>2024-04-29T23:56:48Z</time>
      </trkpt>
      <trkpt lat="47.6975" lon="-3.1995">
        <ele>3</ele>
        <time>2024-04-29T23:56:43Z</time>
      </trkpt>
      <trkpt lat="47.69786" lon="-3.20032">
        <ele>3</ele>
        <time>2024-04-29T23:56:28Z</time>
      </trkpt>
      <trkpt lat="47.69788" lon="-3.20059">
        <ele>3</ele>
        <time>2024-04-29T23:56:23Z</time>
      </trkpt>
      <trkpt lat="47.69791" lon="-3.20124">
        <ele>3</ele>
        <time>2024-04-29T23:56:13Z</time>
      </trkpt>
      <trkpt lat="47.69816" lon="-3.20266">
        <ele>4</ele>
        <time>2024-04-29T23:55:50Z</time>
      </trkpt>
      <trkpt lat="47.69827" lon="-3.20305">
        <ele>4</ele>
        <time>2024-04-29T23:55:43Z</time>
      </trkpt>
      <trkpt lat="47.69843" lon="-3.20415">
        <ele>5</ele>
        <time>2024-04-29T23:55:26Z</time>
      </trkpt>
      <trkpt lat="47.6984" lon="-3.20448">
        <ele>6</ele>
        <time>2024-04-29T23:55:21Z</time>
      </trkpt>
      <trkpt lat="47.69832" lon="-3.20462">
        <ele>7</ele>
        <time>2024-04-29T23:55:18Z</time>
      </trkpt>
      <trkpt lat="47.69817" lon="-3.20449">
        <ele>6</ele>
        <time>2024-04-29T23:55:14Z</time>
      </trkpt>
      <trkpt lat="47.69799" lon="-3.20434">
        <ele>5</ele>
        <time>2024-04-29T23:55:09Z</time>
      </trkpt>
      <trkpt lat="47.69632" lon="-3.20422">
        <ele>4</ele>
        <time>2024-04-29T23:54:30Z</time>
      </trkpt>
      <trkpt lat="47.69634" lon="-3.20391">
        <ele>5</ele>
        <time>2024-04-29T23:54:25Z</time>
      </trkpt>
      <trkpt lat="47.69654" lon="-3.20365">
        <ele>5</ele>
        <time>2024-04-29T23:54:19Z</time>
      </trkpt>
      <trkpt lat="47.69686" lon="-3.20359">
        <ele>4</ele>
        <time>2024-04-29T23:54:11Z</time>
      </trkpt>
      <trkpt lat="47.69734" lon="-3.20317">
        <ele>2</ele>
        <time>2024-04-29T23:53:58Z</time>
      </trkpt>
      <trkpt lat="47.69742" lon="-3.20265">
        <ele>2</ele>
        <time>2024-04-29T23:53:50Z</time>
      </trkpt>
      <trkpt lat="47.69735" lon="-3.20159">
        <ele>3</ele>
        <time>2024-04-29T23:53:33Z</time>
      </trkpt>
      <trkpt lat="47.69723" lon="-3.20062">
        <ele>3</ele>
        <time>2024-04-29T23:53:17Z</time>
      </trkpt>
      <trkpt lat="47.6971" lon="-3.20043">
        <ele>3</ele>
        <time>2024-04-29T23:53:13Z</time>
      </trkpt>
      <trkpt lat="47.69687" lon="-3.20043">
        <ele>2</ele>
        <time>2024-04-29T23:53:08Z</time>
      </trkpt>
      <trkpt lat="47.69655" lon="-3.20084">
        <ele>2</ele>
        <time>2024-04-29T23:52:58Z</time>
      </trkpt>
      <trkpt lat="47.69642" lon="-3.20088">
        <ele>2</ele>
        <time>2024-04-29T23:52:55Z</time>
      </trkpt>
      <trkpt lat="47.69628" lon="-3.20082">
        <ele>2</ele>
        <time>2024-04-29T23:52:51Z</time>
      </trkpt>
      <trkpt lat="47.69627" lon="-3.20058">
        <ele>2</ele>
        <time>2024-04-29T23:52:48Z</time>
      </trkpt>
      <trkpt lat="47.69635" lon="-3.20034">
        <ele>2</ele>
        <time>2024-04-29T23:52:43Z</time>
      </trkpt>
      <trkpt lat="47.69659" lon="-3.20011">
        <ele>2</ele>
        <time>2024-04-29T23:52:37Z</time>
      </trkpt>
      <trkpt lat="47.69668" lon="-3.1998">
        <ele>2</ele>
        <time>2024-04-29T23:52:31Z</time>
      </trkpt>
      <trkpt lat="47.69636" lon="-3.19915">
        <ele>3</ele>
        <time>2024-04-29T23:52:19Z</time>
      </trkpt>
      <trkpt lat="47.69609" lon="-3.1992">
        <ele>3</ele>
        <time>2024-04-29T23:52:12Z</time>
      </trkpt>
      <trkpt lat="47.69597" lon="-3.19906">
        <ele>3</ele>
        <time>2024-04-29T23:52:09Z</time>
      </trkpt>
      <trkpt lat="47.69584" lon="-3.19893">
        <ele>3</ele>
        <time>2024-04-29T23:52:05Z</time>
      </trkpt>
      <trkpt lat="47.6957" lon="-3.19842">
        <ele>3</ele>
        <time>2024-04-29T23:51:57Z</time>
      </trkpt>
      <trkpt lat="47.6959" lon="-3.19805">
        <ele>1</ele>
        <time>2024-04-29T23:51:49Z</time>
      </trkpt>
      <trkpt lat="47.69463" lon="-3.19741">
        <ele>4</ele>
        <time>2024-04-29T23:51:18Z</time>
      </trkpt>
      <trkpt lat="47.69437" lon="-3.19642">
        <ele>1</ele>
        <time>2024-04-29T23:51:01Z</time>
      </trkpt>
      <trkpt lat="47.69344" lon="-3.19565">
        <ele>2</ele>
        <time>2024-04-29T23:50:36Z</time>
      </trkpt>
      <trkpt lat="47.69229" lon="-3.19595">
        <ele>3</ele>
        <time>2024-04-29T23:50:09Z</time>
      </trkpt>
      <trkpt lat="47.69278" lon="-3.19779">
        <ele>7</ele>
        <time>2024-04-29T23:49:38Z</time>
      </trkpt>
      <trkpt lat="47.69284" lon="-3.19904">
        <ele>6</ele>
        <time>2024-04-29T23:49:18Z</time>
      </trkpt>
      <trkpt lat="47.69344" lon="-3.2005">
        <ele>6</ele>
        <time>2024-04-29T23:48:51Z</time>
      </trkpt>
      <trkpt lat="47.69353" lon="-3.20161">
        <ele>5</ele>
        <time>2024-04-29T23:48:34Z</time>
      </trkpt>
      <trkpt lat="47.69419" lon="-3.20209">
        <ele>6</ele>
        <time>2024-04-29T23:48:17Z</time>
      </trkpt>
      <trkpt lat="47.69437" lon="-3.2032">
        <ele>5</ele>
        <time>2024-04-29T23:47:59Z</time>
      </trkpt>
      <trkpt lat="47.69812" lon="-3.20994">
        <ele>9</ele>
        <time>2024-04-29T23:45:41Z</time>
      </trkpt>
      <trkpt lat="47.6987" lon="-3.21131">
        <ele>2</ele>
        <time>2024-04-29T23:45:16Z</time>
      </trkpt>
      <trkpt lat="47.69879" lon="-3.21226">
        <ele>3</ele>
        <time>2024-04-29T23:45:01Z</time>
      </trkpt>
      <trkpt lat="47.69916" lon="-3.21475">
        <ele>6</ele>
        <time>2024-04-29T23:44:21Z</time>
      </trkpt>
      <trkpt lat="47.69902" lon="-3.21642">
        <ele>4</ele>
        <time>2024-04-29T23:43:54Z</time>
      </trkpt>
      <trkpt lat="47.69778" lon="-3.21595">
        <ele>3</ele>
        <time>2024-04-29T23:43:24Z</time>
      </trkpt>
      <trkpt lat="47.69639" lon="-3.21659">
        <ele>2</ele>
        <time>2024-04-29T23:42:50Z</time>
      </trkpt>
      <trkpt lat="47.69503" lon="-3.21616">
        <ele>3</ele>
        <time>2024-04-29T23:42:18Z</time>
      </trkpt>
      <trkpt lat="47.69278" lon="-3.21586">
        <ele>3</ele>
        <time>2024-04-29T23:41:25Z</time>
      </trkpt>
      <trkpt lat="47.68836" lon="-3.21384">
        <ele>3</ele>
        <time>2024-04-29T23:39:37Z</time>
      </trkpt>
      <trkpt lat="47.68767" lon="-3.21372">
        <ele>4</ele>
        <time>2024-04-29T23:39:21Z</time>
      </trkpt>
      <trkpt lat="47.68356" lon="-3.21183">
        <ele>5</ele>
        <time>2024-04-29T23:37:40Z</time>
      </trkpt>
      <trkpt lat="47.68382" lon="-3.21071">
        <ele>2</ele>
        <time>2024-04-29T23:37:22Z</time>
      </trkpt>
      <trkpt lat="47.68371" lon="-3.21002">
        <ele>2</ele>
        <time>2024-04-29T23:37:11Z</time>
      </trkpt>
      <trkpt lat="47.68408" lon="-3.20994">
        <ele>1</ele>
        <time>2024-04-29T23:37:02Z</time>
      </trkpt>
      <trkpt lat="47.68437" lon="-3.20882">
        <ele>2</ele>
        <time>2024-04-29T23:36:43Z</time>
      </trkpt>
      <trkpt lat="47.68431" lon="-3.20766">
        <ele>2</ele>
        <time>2024-04-29T23:36:25Z</time>
      </trkpt>
      <trkpt lat="47.68385" lon="-3.20732">
        <ele>4</ele>
        <time>2024-04-29T23:36:13Z</time>
      </trkpt>
      <trkpt lat="47.6831" lon="-3.20646">
        <ele>5</ele>
        <time>2024-04-29T23:35:51Z</time>
      </trkpt>
      <trkpt lat="47.68342" lon="-3.20633">
        <ele>6</ele>
        <time>2024-04-29T23:35:43Z</time>
      </trkpt>
      <trkpt lat="47.68388" lon="-3.20676">
        <ele>6</ele>
        <time>2024-04-29T23:35:30Z</time>
      </trkpt>
      <trkpt lat="47.68431" lon="-3.20676">
        <ele>5</ele>
        <time>2024-04-29T23:35:20Z</time>
      </trkpt>
      <trkpt lat="47.68452" lon="-3.20552">
        <ele>2</ele>
        <time>2024-04-29T23:35:00Z</time>
      </trkpt>
      <trkpt lat="47.68408" lon="-3.20522">
        <ele>3</ele>
        <time>2024-04-29T23:34:49Z</time>
      </trkpt>
      <trkpt lat="47.68377" lon="-3.20466">
        <ele>5</ele>
        <time>2024-04-29T23:34:37Z</time>
      </trkpt>
      <trkpt lat="47.68397" lon="-3.20397">
        <ele>3</ele>
        <time>2024-04-29T23:34:25Z</time>
      </trkpt>
      <trkpt lat="47.68377" lon="-3.2029">
        <ele>5</ele>
        <time>2024-04-29T23:34:08Z</time>
      </trkpt>
      <trkpt lat="47.68403" lon="-3.20226">
        <ele>3</ele>
        <time>2024-04-29T23:33:56Z</time>
      </trkpt>
      <trkpt lat="47.68377" lon="-3.20131">
        <ele>3</ele>
        <time>2024-04-29T23:33:40Z</time>
      </trkpt>
      <trkpt lat="47.6829" lon="-3.20045">
        <ele>3</ele>
        <time>2024-04-29T23:33:16Z</time>
      </trkpt>
      <trkpt lat="47.68203" lon="-3.20058">
        <ele>3</ele>
        <time>2024-04-29T23:32:55Z</time>
      </trkpt>
      <trkpt lat="47.68148" lon="-3.20011">
        <ele>0.3</ele>
        <time>2024-04-29T23:32:40Z</time>
      </trkpt>
      <trkpt lat="47.68099" lon="-3.2002">
        <ele>1</ele>
        <time>2024-04-29T23:32:29Z</time>
      </trkpt>
      <trkpt lat="47.68079" lon="-3.20071">
        <ele>2</ele>
        <time>2024-04-29T23:32:20Z</time>
      </trkpt>
      <trkpt lat="47.68027" lon="-3.20144">
        <ele>3</ele>
        <time>2024-04-29T23:32:03Z</time>
      </trkpt>
      <trkpt lat="47.68015" lon="-3.20445">
        <ele>7</ele>
        <time>2024-04-29T23:31:16Z</time>
      </trkpt>
      <trkpt lat="47.6792" lon="-3.20659">
        <ele>10</ele>
        <time>2024-04-29T23:30:35Z</time>
      </trkpt>
      <trkpt lat="47.68162" lon="-3.21033">
        <ele>-77.539841</ele>
        <time>2020-12-29T12:00:00.000Z</time>
      </trkpt>
      <trkpt lat="47.68156" lon="-3.21044">
        <ele>-77.402522</ele>
        <time>2020-12-29T11:59:59.000Z</time>
      </trkpt>
      <trkpt lat="47.68083" lon="-3.21109">
        <ele>10</ele>
      </trkpt>
      <trkpt lat="47.68019" lon="-3.21183">
        <ele>-75.204038</ele>
        <time>2020-12-29T11:59:34.000Z</time>
      </trkpt>
      <trkpt lat="47.68009" lon="-3.2119">
        <ele>-75.104472</ele>
        <time>2020-12-29T11:59:31.000Z</time>
      </trkpt>
      <trkpt lat="47.67961" lon="-3.2119">
        <ele>-74.691758</ele>
        <time>2020-12-29T11:59:24.000Z</time>
      </trkpt>
      <trkpt lat="47.67913" lon="-3.21188">
        <ele>-74.278852</ele>
        <time>2020-12-29T11:59:16.000Z</time>
      </trkpt>
      <trkpt lat="47.67866" lon="-3.21191">
        <ele>-73.873124</ele>
        <time>2020-12-29T11:59:08.000Z</time>
      </trkpt>
      <trkpt lat="47.67855" lon="-3.21193">
        <ele>-73.772652</ele>
        <time>2020-12-29T11:59:06.000Z</time>
      </trkpt>
      <trkpt lat="47.67817" lon="-3.21205">
        <ele>-73.435876</ele>
        <time>2020-12-29T11:58:59.000Z</time>
      </trkpt>
      <trkpt lat="47.67775" lon="-3.21219">
        <ele>-73.066638</ele>
        <time>2020-12-29T11:58:51.000Z</time>
      </trkpt>
      <trkpt lat="47.67771" lon="-3.21221">
        <ele>-73.025389</ele>
        <time>2020-12-29T11:58:50.000Z</time>
      </trkpt>
      <trkpt lat="47.67758" lon="-3.21229">
        <ele>-72.907687</ele>
        <time>2020-12-29T11:58:47.000Z</time>
      </trkpt>
      <trkpt lat="47.67753" lon="-3.2124">
        <ele>-72.832134</ele>
        <time>2020-12-29T11:58:45.000Z</time>
      </trkpt>
      <trkpt lat="47.67753" lon="-3.21258">
        <ele>-72.726401</ele>
        <time>2020-12-29T11:58:42.000Z</time>
      </trkpt>
      <trkpt lat="47.67756" lon="-3.21296">
        <ele>-72.502441</ele>
        <time>2020-12-29T11:58:36.000Z</time>
      </trkpt>
      <trkpt lat="47.67766" lon="-3.21356">
        <ele>-72.989541</ele>
        <time>2020-12-29T11:58:28.000Z</time>
      </trkpt>
      <trkpt lat="47.67771" lon="-3.21386">
        <ele>-73.382012</ele>
        <time>2020-12-29T11:58:24.000Z</time>
      </trkpt>
      <trkpt lat="47.67776" lon="-3.21416">
        <ele>-73.762618</ele>
        <time>2020-12-29T11:58:19.000Z</time>
      </trkpt>
      <trkpt lat="47.67782" lon="-3.21468">
        <ele>-74.428078</ele>
        <time>2020-12-29T11:58:13.000Z</time>
      </trkpt>
      <trkpt lat="47.67783" lon="-3.21475">
        <ele>-74.522642</ele>
        <time>2020-12-29T11:58:12.000Z</time>
      </trkpt>
      <trkpt lat="47.67783" lon="-3.2149">
        <ele>-74.709924</ele>
        <time>2020-12-29T11:58:10.000Z</time>
      </trkpt>
      <trkpt lat="47.67778" lon="-3.21519">
        <ele>-75.082345</ele>
        <time>2020-12-29T11:58:06.000Z</time>
      </trkpt>
      <trkpt lat="47.67764" lon="-3.21569">
        <ele>-75.770079</ele>
        <time>2020-12-29T11:57:58.000Z</time>
      </trkpt>
      <trkpt lat="47.67759" lon="-3.21586">
        <ele>-76.018965</ele>
        <time>2020-12-29T11:57:54.000Z</time>
      </trkpt>
      <trkpt lat="47.67758" lon="-3.21588">
        <ele>-76.048673</ele>
        <time>2020-12-29T11:57:53.000Z</time>
      </trkpt>
      <trkpt lat="47.67752" lon="-3.2159">
        <ele>-76.169198</ele>
        <time>2020-12-29T11:57:50.000Z</time>
      </trkpt>
      <trkpt lat="47.6773" lon="-3.21585">
        <ele>-76.616094</ele>
        <time>2020-12-29T11:57:44.000Z</time>
      </trkpt>
      <trkpt lat="47.67722" lon="-3.21584">
        <ele>-76.786229</ele>
        <time>2020-12-29T11:57:42.000Z</time>
      </trkpt>
      <trkpt lat="47.67698" lon="-3.2158">
        <ele>-77.258059</ele>
        <time>2020-12-29T11:57:37.000Z</time>
      </trkpt>
      <trkpt lat="47.67659" lon="-3.21573">
        <ele>-78.033038</ele>
        <time>2020-12-29T11:57:29.000Z</time>
      </trkpt>
      <trkpt lat="47.67639" lon="-3.21569">
        <ele>-78.438275</ele>
        <time>2020-12-29T11:57:25.000Z</time>
      </trkpt>
      <trkpt lat="47.67619" lon="-3.21566">
        <ele>-78.848075</ele>
        <time>2020-12-29T11:57:21.000Z</time>
      </trkpt>
      <trkpt lat="47.67613" lon="-3.21565">
        <ele>-78.954199</ele>
        <time>2020-12-29T11:57:20.000Z</time>
      </trkpt>
      <trkpt lat="47.67571" lon="-3.21557">
        <ele>-79.344956</ele>
        <time>2020-12-29T11:57:12.000Z</time>
      </trkpt>
      <trkpt lat="47.67528" lon="-3.21551">
        <ele>-79.342544</ele>
        <time>2020-12-29T11:57:04.000Z</time>
      </trkpt>
      <trkpt lat="47.67491" lon="-3.21544">
        <ele>-79.340441</ele>
        <time>2020-12-29T11:56:57.000Z</time>
      </trkpt>
      <trkpt lat="47.67481" lon="-3.21543">
        <ele>-79.339866</ele>
        <time>2020-12-29T11:56:55.000Z</time>
      </trkpt>
      <trkpt lat="47.67466" lon="-3.2154">
        <ele>-79.338999</ele>
        <time>2020-12-29T11:56:52.000Z</time>
      </trkpt>
      <trkpt lat="47.67456" lon="-3.21539">
        <ele>-79.338446</ele>
        <time>2020-12-29T11:56:49.000Z</time>
      </trkpt>
      <trkpt lat="47.67435" lon="-3.21531">
        <ele>-79.337218</ele>
        <time>2020-12-29T11:56:44.000Z</time>
      </trkpt>
      <trkpt lat="47.67428" lon="-3.21538">
        <ele>-79.336755</ele>
        <time>2020-12-29T11:56:41.000Z</time>
      </trkpt>
      <trkpt lat="47.67432" lon="-3.21559">
        <ele>-79.359631</ele>
        <time>2020-12-29T11:56:37.000Z</time>
      </trkpt>
      <trkpt lat="47.67432" lon="-3.21566">
        <ele>-79.386278</ele>
        <time>2020-12-29T11:56:36.000Z</time>
      </trkpt>
      <trkpt lat="47.67433" lon="-3.2158">
        <ele>-79.441436</ele>
        <time>2020-12-29T11:56:34.000Z</time>
      </trkpt>
      <trkpt lat="47.67434" lon="-3.21616">
        <ele>-79.586072</ele>
        <time>2020-12-29T11:56:29.000Z</time>
      </trkpt>
      <trkpt lat="47.67435" lon="-3.21632">
        <ele>-79.647815</ele>
        <time>2020-12-29T11:56:27.000Z</time>
      </trkpt>
      <trkpt lat="47.67436" lon="-3.21671">
        <ele>-79.804231</ele>
        <time>2020-12-29T11:56:22.000Z</time>
      </trkpt>
      <trkpt lat="47.67436" lon="-3.21687">
        <ele>-79.864786</ele>
        <time>2020-12-29T11:56:19.000Z</time>
      </trkpt>
      <trkpt lat="47.67439" lon="-3.21736">
        <ele>-80.062142</ele>
        <time>2020-12-29T11:56:13.000Z</time>
      </trkpt>
      <trkpt lat="47.6744" lon="-3.21776">
        <ele>-80.21952</ele>
        <time>2020-12-29T11:56:10.000Z</time>
      </trkpt>
      <trkpt lat="47.67441" lon="-3.21819">
        <ele>-80.389701</ele>
        <time>2020-12-29T11:56:06.000Z</time>
      </trkpt>
      <trkpt lat="47.67441" lon="-3.21829">
        <ele>-80.289228</ele>
        <time>2020-12-29T11:56:05.000Z</time>
      </trkpt>
      <trkpt lat="47.67443" lon="-3.219">
        <ele>-79.526982</ele>
        <time>2020-12-29T11:55:58.000Z</time>
      </trkpt>
      <trkpt lat="47.67443" lon="-3.21919">
        <ele>-79.318625</ele>
        <time>2020-12-29T11:55:55.000Z</time>
      </trkpt>
      <trkpt lat="47.67447" lon="-3.22009">
        <ele>-78.344067</ele>
        <time>2020-12-29T11:55:46.000Z</time>
      </trkpt>
      <trkpt lat="47.67447" lon="-3.22018">
        <ele>-78.251212</ele>
        <time>2020-12-29T11:55:45.000Z</time>
      </trkpt>
      <trkpt lat="47.67446" lon="-3.22051">
        <ele>-77.894313</ele>
        <time>2020-12-29T11:55:41.000Z</time>
      </trkpt>
      <trkpt lat="47.67441" lon="-3.22064">
        <ele>-77.734493</ele>
        <time>2020-12-29T11:55:39.000Z</time>
      </trkpt>
      <trkpt lat="47.67439" lon="-3.22066">
        <ele>-77.697786</ele>
        <time>2020-12-29T11:55:38.000Z</time>
      </trkpt>
      <trkpt lat="47.67437" lon="-3.22068">
        <ele>-77.661079</ele>
        <time>2020-12-29T11:55:37.000Z</time>
      </trkpt>
      <trkpt lat="47.67416" lon="-3.22072">
        <ele>-77.230989</ele>
        <time>2020-12-29T11:55:34.000Z</time>
      </trkpt>
      <trkpt lat="47.67409" lon="-3.22073">
        <ele>-77.082181</ele>
        <time>2020-12-29T11:55:33.000Z</time>
      </trkpt>
      <trkpt lat="47.67388" lon="-3.22075">
        <ele>-76.615538</ele>
        <time>2020-12-29T11:55:30.000Z</time>
      </trkpt>
      <trkpt lat="47.6736" lon="-3.22078">
        <ele>-75.985025</ele>
        <time>2020-12-29T11:55:25.000Z</time>
      </trkpt>
      <trkpt lat="47.67327" lon="-3.2209">
        <ele>-75.213875</ele>
        <time>2020-12-29T11:55:21.000Z</time>
      </trkpt>
      <trkpt lat="47.67321" lon="-3.22094">
        <ele>-75.062347</ele>
        <time>2020-12-29T11:55:20.000Z</time>
      </trkpt>
      <trkpt lat="47.67309" lon="-3.22103">
        <ele>-74.772584</ele>
        <time>2020-12-29T11:55:18.000Z</time>
      </trkpt>
      <trkpt lat="47.67285" lon="-3.22114">
        <ele>-74.19569</ele>
        <time>2020-12-29T11:55:13.000Z</time>
      </trkpt>
      <trkpt lat="47.67262" lon="-3.22118">
        <ele>-73.667841</ele>
        <time>2020-12-29T11:55:10.000Z</time>
      </trkpt>
      <trkpt lat="47.67228" lon="-3.22116">
        <ele>-73.242367</ele>
        <time>2020-12-29T11:55:04.000Z</time>
      </trkpt>
      <trkpt lat="47.67198" lon="-3.22117">
        <ele>-72.97661</ele>
        <time>2020-12-29T11:54:58.000Z</time>
      </trkpt>
      <trkpt lat="47.67193" lon="-3.22116">
        <ele>-72.935662</ele>
        <time>2020-12-29T11:54:57.000Z</time>
      </trkpt>
      <trkpt lat="47.67158" lon="-3.22115">
        <ele>-72.620126</ele>
        <time>2020-12-29T11:54:49.000Z</time>
      </trkpt>
      <trkpt lat="47.6712" lon="-3.22114">
        <ele>-72.288476</ele>
        <time>2020-12-29T11:54:42.000Z</time>
      </trkpt>
      <trkpt lat="47.67106" lon="-3.22114">
        <ele>-72.159617</ele>
        <time>2020-12-29T11:54:37.000Z</time>
      </trkpt>
      <trkpt lat="47.67091" lon="-3.22113">
        <ele>-72.02532</ele>
        <time>2020-12-29T11:54:32.000Z</time>
      </trkpt>
      <trkpt lat="47.67091" lon="-3.22113">
        <ele>-72.02532</ele>
        <time>2020-12-29T11:54:31.000Z</time>
      </trkpt>
      <trkpt lat="47.67074" lon="-3.22113">
        <ele>-71.87691</ele>
        <time>2020-12-29T11:54:27.000Z</time>
      </trkpt>
      <trkpt lat="47.67048" lon="-3.2211">
        <ele>-71.816441</ele>
        <time>2020-12-29T11:54:21.000Z</time>
      </trkpt>
      <trkpt lat="47.67036" lon="-3.2211">
        <ele>-71.793557</ele>
        <time>2020-12-29T11:54:16.000Z</time>
      </trkpt>
      <trkpt lat="47.67032" lon="-3.22108">
        <ele>-71.786185</ele>
        <time>2020-12-29T11:54:15.000Z</time>
      </trkpt>
      <trkpt lat="47.67029" lon="-3.221">
        <ele>-71.774219</ele>
        <time>2020-12-29T11:54:12.000Z</time>
      </trkpt>
      <trkpt lat="47.67028" lon="-3.22098">
        <ele>-71.769981</ele>
        <time>2020-12-29T11:54:11.000Z</time>
      </trkpt>
      <trkpt lat="47.6702" lon="-3.22099">
        <ele>-71.755527</ele>
        <time>2020-12-29T11:54:08.000Z</time>
      </trkpt>
      <trkpt lat="47.67012" lon="-3.22107">
        <ele>-71.735741</ele>
        <time>2020-12-29T11:54:05.000Z</time>
      </trkpt>
      <trkpt lat="47.67001" lon="-3.22118">
        <ele>-71.711818</ele>
        <time>2020-12-29T11:54:01.000Z</time>
      </trkpt>
      <trkpt lat="47.6699" lon="-3.22124">
        <ele>-71.688704</ele>
        <time>2020-12-29T11:53:59.000Z</time>
      </trkpt>
      <trkpt lat="47.66982" lon="-3.22125">
        <ele>-71.673132</ele>
        <time>2020-12-29T11:53:57.000Z</time>
      </trkpt>
      <trkpt lat="47.66982" lon="-3.22125">
        <ele>-71.673132</ele>
        <time>2020-12-29T11:53:56.000Z</time>
      </trkpt>
      <trkpt lat="47.66963" lon="-3.22108">
        <ele>-71.630924</ele>
        <time>2020-12-29T11:53:52.000Z</time>
      </trkpt>
      <trkpt lat="47.6696" lon="-3.22103">
        <ele>-71.621766</ele>
        <time>2020-12-29T11:53:51.000Z</time>
      </trkpt>
      <trkpt lat="47.66956" lon="-3.22099">
        <ele>-71.612497</ele>
        <time>2020-12-29T11:53:49.000Z</time>
      </trkpt>
      <trkpt lat="47.66937" lon="-3.22088">
        <ele>-71.57296</ele>
        <time>2020-12-29T11:53:46.000Z</time>
      </trkpt>
      <trkpt lat="47.66932" lon="-3.22085">
        <ele>-71.563001</ele>
        <time>2020-12-29T11:53:44.000Z</time>
      </trkpt>
      <trkpt lat="47.66927" lon="-3.22082">
        <ele>-71.553088</ele>
        <time>2020-12-29T11:53:43.000Z</time>
      </trkpt>
      <trkpt lat="47.66907" lon="-3.22069">
        <ele>-71.401222</ele>
        <time>2020-12-29T11:53:40.000Z</time>
      </trkpt>
      <trkpt lat="47.66902" lon="-3.22065">
        <ele>-71.238498</ele>
        <time>2020-12-29T11:53:39.000Z</time>
      </trkpt>
      <trkpt lat="47.66897" lon="-3.22061">
        <ele>-71.077485</ele>
        <time>2020-12-29T11:53:37.000Z</time>
      </trkpt>
      <trkpt lat="47.66873" lon="-3.22059">
        <ele>-70.373638</ele>
        <time>2020-12-29T11:53:33.000Z</time>
      </trkpt>
      <trkpt lat="47.66869" lon="-3.22063">
        <ele>-70.235575</ele>
        <time>2020-12-29T11:53:32.000Z</time>
      </trkpt>
      <trkpt lat="47.66865" lon="-3.22076">
        <ele>-69.949851</ele>
        <time>2020-12-29T11:53:30.000Z</time>
      </trkpt>
      <trkpt lat="47.66865" lon="-3.2209">
        <ele>-69.674847</ele>
        <time>2020-12-29T11:53:28.000Z</time>
      </trkpt>
      <trkpt lat="47.66866" lon="-3.22097">
        <ele>-69.525542</ele>
        <time>2020-12-29T11:53:27.000Z</time>
      </trkpt>
      <trkpt lat="47.66868" lon="-3.22105">
        <ele>-69.362838</ele>
        <time>2020-12-29T11:53:25.000Z</time>
      </trkpt>
      <trkpt lat="47.6688" lon="-3.22149">
        <ele>-68.434894</ele>
        <time>2020-12-29T11:53:21.000Z</time>
      </trkpt>
      <trkpt lat="47.66894" lon="-3.22194">
        <ele>-67.475727</ele>
        <time>2020-12-29T11:53:16.000Z</time>
      </trkpt>
      <trkpt lat="47.66899" lon="-3.22211">
        <ele>-67.099916</ele>
        <time>2020-12-29T11:53:14.000Z</time>
      </trkpt>
      <trkpt lat="47.66916" lon="-3.22263">
        <ele>-66.233605</ele>
        <time>2020-12-29T11:53:07.000Z</time>
      </trkpt>
      <trkpt lat="47.66943" lon="-3.22355">
        <ele>-65.953998</ele>
        <time>2020-12-29T11:52:58.000Z</time>
      </trkpt>
      <trkpt lat="47.66945" lon="-3.22364">
        <ele>-65.92666</ele>
        <time>2020-12-29T11:52:57.000Z</time>
      </trkpt>
      <trkpt lat="47.66965" lon="-3.22442">
        <ele>-65.690575</ele>
        <time>2020-12-29T11:52:48.000Z</time>
      </trkpt>
      <trkpt lat="47.66986" lon="-3.22497">
        <ele>-65.526466</ele>
        <time>2020-12-29T11:52:40.000Z</time>
      </trkpt>
      <trkpt lat="47.67011" lon="-3.22555">
        <ele>-65.508242</ele>
        <time>2020-12-29T11:52:33.000Z</time>
      </trkpt>
      <trkpt lat="47.67012" lon="-3.22559">
        <ele>-65.50706</ele>
        <time>2020-12-29T11:52:32.000Z</time>
      </trkpt>
      <trkpt lat="47.67013" lon="-3.22563">
        <ele>-65.505894</ele>
        <time>2020-12-29T11:52:31.000Z</time>
      </trkpt>
      <trkpt lat="47.67042" lon="-3.2264">
        <ele>-65.482591</ele>
        <time>2020-12-29T11:52:22.000Z</time>
      </trkpt>
      <trkpt lat="47.67047" lon="-3.22655">
        <ele>-65.478076</ele>
        <time>2020-12-29T11:52:19.000Z</time>
      </trkpt>
      <trkpt lat="47.67062" lon="-3.22699">
        <ele>-65.464949</ele>
        <time>2020-12-29T11:52:13.000Z</time>
      </trkpt>
      <trkpt lat="47.6707" lon="-3.22718">
        <ele>-65.458965</ele>
        <time>2020-12-29T11:52:11.000Z</time>
      </trkpt>
      <trkpt lat="47.67086" lon="-3.22734">
        <ele>-65.559219</ele>
        <time>2020-12-29T11:52:06.000Z</time>
      </trkpt>
      <trkpt lat="47.67115" lon="-3.22768">
        <ele>-65.816535</ele>
        <time>2020-12-29T11:51:59.000Z</time>
      </trkpt>
      <trkpt lat="47.67132" lon="-3.22788">
        <ele>-65.96893</ele>
        <time>2020-12-29T11:51:55.000Z</time>
      </trkpt>
      <trkpt lat="47.6714" lon="-3.22797">
        <ele>-66.044292</ele>
        <time>2020-12-29T11:51:53.000Z</time>
      </trkpt>
      <trkpt lat="47.67183" lon="-3.22846">
        <ele>-66.426115</ele>
        <time>2020-12-29T11:51:44.000Z</time>
      </trkpt>
      <trkpt lat="47.67222" lon="-3.22891">
        <ele>-66.786155</ele>
        <time>2020-12-29T11:51:35.000Z</time>
      </trkpt>
      <trkpt lat="47.67234" lon="-3.22905">
        <ele>-66.93046</ele>
        <time>2020-12-29T11:51:32.000Z</time>
      </trkpt>
      <trkpt lat="47.67259" lon="-3.22935">
        <ele>-67.219784</ele>
        <time>2020-12-29T11:51:26.000Z</time>
      </trkpt>
      <trkpt lat="47.6729" lon="-3.22971">
        <ele>-67.589287</ele>
        <time>2020-12-29T11:51:18.000Z</time>
      </trkpt>
      <trkpt lat="47.67301" lon="-3.22983">
        <ele>-67.711944</ele>
        <time>2020-12-29T11:51:15.000Z</time>
      </trkpt>
      <trkpt lat="47.67303" lon="-3.22988">
        <ele>-67.749105</ele>
        <time>2020-12-29T11:51:13.000Z</time>
      </trkpt>
      <trkpt lat="47.67306" lon="-3.23017">
        <ele>-67.932252</ele>
        <time>2020-12-29T11:51:09.000Z</time>
      </trkpt>
      <trkpt lat="47.67305" lon="-3.23023">
        <ele>-67.972416</ele>
        <time>2020-12-29T11:51:07.000Z</time>
      </trkpt>
      <trkpt lat="47.67302" lon="-3.23059">
        <ele>-68.194274</ele>
        <time>2020-12-29T11:51:03.000Z</time>
      </trkpt>
      <trkpt lat="47.673" lon="-3.23102">
        <ele>-68.579114</ele>
        <time>2020-12-29T11:50:57.000Z</time>
      </trkpt>
      <trkpt lat="47.67299" lon="-3.23125">
        <ele>-68.919335</ele>
        <time>2020-12-29T11:50:54.000Z</time>
      </trkpt>
      <trkpt lat="47.67297" lon="-3.23185">
        <ele>-69.829473</ele>
        <time>2020-12-29T11:50:46.000Z</time>
      </trkpt>
      <trkpt lat="47.67295" lon="-3.23228">
        <ele>-70.486345</ele>
        <time>2020-12-29T11:50:40.000Z</time>
      </trkpt>
      <trkpt lat="47.67295" lon="-3.23242">
        <ele>-70.706383</ele>
        <time>2020-12-29T11:50:38.000Z</time>
      </trkpt>
      <trkpt lat="47.67293" lon="-3.23278">
        <ele>-71.251366</ele>
        <time>2020-12-29T11:50:33.000Z</time>
      </trkpt>
      <trkpt lat="47.67293" lon="-3.23285">
        <ele>-71.359554</ele>
        <time>2020-12-29T11:50:32.000Z</time>
      </trkpt>
      <trkpt lat="47.67291" lon="-3.23314">
        <ele>-71.800918</ele>
        <time>2020-12-29T11:50:28.000Z</time>
      </trkpt>
      <trkpt lat="47.6729" lon="-3.23328">
        <ele>-72.012774</ele>
        <time>2020-12-29T11:50:26.000Z</time>
      </trkpt>
      <trkpt lat="47.6729" lon="-3.23328">
        <ele>-72.012774</ele>
        <time>2020-12-29T11:50:25.000Z</time>
      </trkpt>
      <trkpt lat="47.67285" lon="-3.23409">
        <ele>-73.075675</ele>
        <time>2020-12-29T11:50:15.000Z</time>
      </trkpt>
      <trkpt lat="47.67284" lon="-3.23417">
        <ele>-73.164413</ele>
        <time>2020-12-29T11:50:14.000Z</time>
      </trkpt>
      <trkpt lat="47.67281" lon="-3.23478">
        <ele>-73.90485</ele>
        <time>2020-12-29T11:50:06.000Z</time>
      </trkpt>
      <trkpt lat="47.67276" lon="-3.23558">
        <ele>-74.866411</ele>
        <time>2020-12-29T11:49:56.000Z</time>
      </trkpt>
      <trkpt lat="47.67276" lon="-3.23574">
        <ele>-75.049862</ele>
        <time>2020-12-29T11:49:54.000Z</time>
      </trkpt>
      <trkpt lat="47.67276" lon="-3.23589">
        <ele>-75.227026</ele>
        <time>2020-12-29T11:49:52.000Z</time>
      </trkpt>
      <trkpt lat="47.67275" lon="-3.23604">
        <ele>-75.410477</ele>
        <time>2020-12-29T11:49:50.000Z</time>
      </trkpt>
      <trkpt lat="47.67275" lon="-3.23604">
        <ele>-75.410477</ele>
        <time>2020-12-29T11:49:49.000Z</time>
      </trkpt>
      <trkpt lat="47.67274" lon="-3.23649">
        <ele>-75.548118</ele>
        <time>2020-12-29T11:49:44.000Z</time>
      </trkpt>
      <trkpt lat="47.67274" lon="-3.23649">
        <ele>-75.548118</ele>
        <time>2020-12-29T11:49:43.000Z</time>
      </trkpt>
      <trkpt lat="47.67273" lon="-3.23678">
        <ele>-75.458673</ele>
        <time>2020-12-29T11:49:40.000Z</time>
      </trkpt>
      <trkpt lat="47.67276" lon="-3.23684">
        <ele>-75.435812</ele>
        <time>2020-12-29T11:49:39.000Z</time>
      </trkpt>
      <trkpt lat="47.67297" lon="-3.23717">
        <ele>-75.295292</ele>
        <time>2020-12-29T11:49:33.000Z</time>
      </trkpt>
      <trkpt lat="47.67309" lon="-3.23734">
        <ele>-75.220183</ele>
        <time>2020-12-29T11:49:30.000Z</time>
      </trkpt>
      <trkpt lat="47.67318" lon="-3.23745">
        <ele>-75.167558</ele>
        <time>2020-12-29T11:49:28.000Z</time>
      </trkpt>
      <trkpt lat="47.67353" lon="-3.23791">
        <ele>-74.950245</ele>
        <time>2020-12-29T11:49:19.000Z</time>
      </trkpt>
      <trkpt lat="47.67373" lon="-3.23812">
        <ele>-74.839362</ele>
        <time>2020-12-29T11:49:16.000Z</time>
      </trkpt>
      <trkpt lat="47.67379" lon="-3.23814">
        <ele>-74.81214</ele>
        <time>2020-12-29T11:49:15.000Z</time>
      </trkpt>
      <trkpt lat="47.67385" lon="-3.23815">
        <ele>-74.784092</ele>
        <time>2020-12-29T11:49:13.000Z</time>
      </trkpt>
      <trkpt lat="47.67396" lon="-3.23816">
        <ele>-74.727594</ele>
        <time>2020-12-29T11:49:12.000Z</time>
      </trkpt>
      <trkpt lat="47.67402" lon="-3.23817">
        <ele>-74.699586</ele>
        <time>2020-12-29T11:49:11.000Z</time>
      </trkpt>
      <trkpt lat="47.67435" lon="-3.23823">
        <ele>-74.543539</ele>
        <time>2020-12-29T11:49:05.000Z</time>
      </trkpt>
      <trkpt lat="47.67444" lon="-3.23826">
        <ele>-74.498949</ele>
        <time>2020-12-29T11:49:03.000Z</time>
      </trkpt>
      <trkpt lat="47.67447" lon="-3.2383">
        <ele>-74.479196</ele>
        <time>2020-12-29T11:49:01.000Z</time>
      </trkpt>
      <trkpt lat="47.67439" lon="-3.2387">
        <ele>-74.342662</ele>
        <time>2020-12-29T11:48:55.000Z</time>
      </trkpt>
      <trkpt lat="47.6743" lon="-3.23896">
        <ele>-74.250179</ele>
        <time>2020-12-29T11:48:51.000Z</time>
      </trkpt>
      <trkpt lat="47.67428" lon="-3.23903">
        <ele>-74.22702</ele>
        <time>2020-12-29T11:48:49.000Z</time>
      </trkpt>
      <trkpt lat="47.67428" lon="-3.2397">
        <ele>-74.009356</ele>
        <time>2020-12-29T11:48:41.000Z</time>
      </trkpt>
      <trkpt lat="47.6743" lon="-3.24026">
        <ele>-74.065365</ele>
        <time>2020-12-29T11:48:34.000Z</time>
      </trkpt>
      <trkpt lat="47.67434" lon="-3.2409">
        <ele>-74.275049</ele>
        <time>2020-12-29T11:48:26.000Z</time>
      </trkpt>
      <trkpt lat="47.67435" lon="-3.2412">
        <ele>-74.371672</ele>
        <time>2020-12-29T11:48:22.000Z</time>
      </trkpt>
      <trkpt lat="47.67434" lon="-3.24135">
        <ele>-74.419716</ele>
        <time>2020-12-29T11:48:20.000Z</time>
      </trkpt>
      <trkpt lat="47.67431" lon="-3.24171">
        <ele>-74.540776</ele>
        <time>2020-12-29T11:48:15.000Z</time>
      </trkpt>
      <trkpt lat="47.6743" lon="-3.24179">
        <ele>-74.565416</ele>
        <time>2020-12-29T11:48:13.000Z</time>
      </trkpt>
      <trkpt lat="47.67427" lon="-3.24227">
        <ele>-74.722592</ele>
        <time>2020-12-29T11:48:07.000Z</time>
      </trkpt>
      <trkpt lat="47.67428" lon="-3.24244">
        <ele>-74.7768</ele>
        <time>2020-12-29T11:48:06.000Z</time>
      </trkpt>
      <trkpt lat="47.67429" lon="-3.24259">
        <ele>-74.800815</ele>
        <time>2020-12-29T11:48:04.000Z</time>
      </trkpt>
      <trkpt lat="47.67429" lon="-3.24275">
        <ele>-74.718685</ele>
        <time>2020-12-29T11:48:02.000Z</time>
      </trkpt>
      <trkpt lat="47.6743" lon="-3.24283">
        <ele>-74.676353</ele>
        <time>2020-12-29T11:48:00.000Z</time>
      </trkpt>
      <trkpt lat="47.67436" lon="-3.24324">
        <ele>-74.454396</ele>
        <time>2020-12-29T11:47:55.000Z</time>
      </trkpt>
      <trkpt lat="47.67446" lon="-3.24356">
        <ele>-74.272225</ele>
        <time>2020-12-29T11:47:52.000Z</time>
      </trkpt>
      <trkpt lat="47.67482" lon="-3.24399">
        <ele>-73.914643</ele>
        <time>2020-12-29T11:47:44.000Z</time>
      </trkpt>
      <trkpt lat="47.67486" lon="-3.24404">
        <ele>-73.870943</ele>
        <time>2020-12-29T11:47:42.000Z</time>
      </trkpt>
      <trkpt lat="47.67512" lon="-3.2444">
        <ele>-73.598676</ele>
        <time>2020-12-29T11:47:36.000Z</time>
      </trkpt>
      <trkpt lat="47.67552" lon="-3.24503">
        <ele>-73.771577</ele>
        <time>2020-12-29T11:47:27.000Z</time>
      </trkpt>
      <trkpt lat="47.6756" lon="-3.24514">
        <ele>-73.883532</ele>
        <time>2020-12-29T11:47:24.000Z</time>
      </trkpt>
      <trkpt lat="47.67578" lon="-3.24532">
        <ele>-74.091647</ele>
        <time>2020-12-29T11:47:20.000Z</time>
      </trkpt>
      <trkpt lat="47.67606" lon="-3.24551">
        <ele>-74.399529</ele>
        <time>2020-12-29T11:47:13.000Z</time>
      </trkpt>
      <trkpt lat="47.67609" lon="-3.24553">
        <ele>-74.434271</ele>
        <time>2020-12-29T11:47:12.000Z</time>
      </trkpt>
      <trkpt lat="47.67615" lon="-3.24564">
        <ele>-74.527049</ele>
        <time>2020-12-29T11:47:10.000Z</time>
      </trkpt>
      <trkpt lat="47.67616" lon="-3.24568">
        <ele>-74.555109</ele>
        <time>2020-12-29T11:47:09.000Z</time>
      </trkpt>
      <trkpt lat="47.67613" lon="-3.24588">
        <ele>-74.690181</ele>
        <time>2020-12-29T11:47:05.000Z</time>
      </trkpt>
      <trkpt lat="47.67606" lon="-3.24625">
        <ele>-74.945599</ele>
        <time>2020-12-29T11:46:59.000Z</time>
      </trkpt>
      <trkpt lat="47.67596" lon="-3.24676">
        <ele>-75.114333</ele>
        <time>2020-12-29T11:46:51.000Z</time>
      </trkpt>
      <trkpt lat="47.67594" lon="-3.24689">
        <ele>-75.0448</ele>
        <time>2020-12-29T11:46:48.000Z</time>
      </trkpt>
      <trkpt lat="47.67587" lon="-3.24729">
        <ele>-74.829532</ele>
        <time>2020-12-29T11:46:42.000Z</time>
      </trkpt>
      <trkpt lat="47.67586" lon="-3.24735">
        <ele>-74.794037</ele>
        <time>2020-12-29T11:46:41.000Z</time>
      </trkpt>
      <trkpt lat="47.67584" lon="-3.24742">
        <ele>-74.758299</ele>
        <time>2020-12-29T11:46:40.000Z</time>
      </trkpt>
      <trkpt lat="47.67542" lon="-3.24846">
        <ele>-76.194979</ele>
        <time>2020-12-29T11:44:23.000Z</time>
      </trkpt>
      <trkpt lat="47.6753" lon="-3.24875">
        <ele>-76.668685</ele>
        <time>2020-12-29T11:44:17.000Z</time>
      </trkpt>
      <trkpt lat="47.67529" lon="-3.24882">
        <ele>-76.755491</ele>
        <time>2020-12-29T11:44:15.000Z</time>
      </trkpt>
      <trkpt lat="47.67531" lon="-3.24883">
        <ele>-76.799053</ele>
        <time>2020-12-29T11:43:46.000Z</time>
      </trkpt>
      <trkpt lat="47.67531" lon="-3.24884">
        <ele>-76.801803</ele>
        <time>2020-12-29T11:43:45.000Z</time>
      </trkpt>
      <trkpt lat="47.67538" lon="-3.24883">
        <ele>-76.949001</ele>
        <time>2020-12-29T11:43:41.000Z</time>
      </trkpt>
      <trkpt lat="47.67545" lon="-3.24884">
        <ele>-76.878341</ele>
        <time>2020-12-29T11:43:38.000Z</time>
      </trkpt>
      <trkpt lat="47.67558" lon="-3.24883">
        <ele>-76.669838</ele>
        <time>2020-12-29T11:43:36.000Z</time>
      </trkpt>
      <trkpt lat="47.67595" lon="-3.24882">
        <ele>-76.088295</ele>
        <time>2020-12-29T11:43:29.000Z</time>
      </trkpt>
      <trkpt lat="47.67601" lon="-3.24882">
        <ele>-75.997167</ele>
        <time>2020-12-29T11:43:28.000Z</time>
      </trkpt>
      <trkpt lat="47.67644" lon="-3.24881">
        <ele>-75.331003</ele>
        <time>2020-12-29T11:43:20.000Z</time>
      </trkpt>
      <trkpt lat="47.67681" lon="-3.24881">
        <ele>-74.738526</ele>
        <time>2020-12-29T11:43:15.000Z</time>
      </trkpt>
      <trkpt lat="47.67699" lon="-3.24881">
        <ele>-74.456397</ele>
        <time>2020-12-29T11:43:12.000Z</time>
      </trkpt>
      <trkpt lat="47.67749" lon="-3.2488">
        <ele>-74.095302</ele>
        <time>2020-12-29T11:43:03.000Z</time>
      </trkpt>
      <trkpt lat="47.67784" lon="-3.24879">
        <ele>-74.028323</ele>
        <time>2020-12-29T11:42:56.000Z</time>
      </trkpt>
      <trkpt lat="47.67784" lon="-3.24879">
        <ele>-74.028323</ele>
        <time>2020-12-29T11:42:55.000Z</time>
      </trkpt>
      <trkpt lat="47.67797" lon="-3.24878">
        <ele>-74.0027</ele>
        <time>2020-12-29T11:42:53.000Z</time>
      </trkpt>
      <trkpt lat="47.67809" lon="-3.24876">
        <ele>-73.979315</ele>
        <time>2020-12-29T11:42:49.000Z</time>
      </trkpt>
      <trkpt lat="47.67813" lon="-3.24876">
        <ele>-73.973146</ele>
        <time>2020-12-29T11:42:48.000Z</time>
      </trkpt>
      <trkpt lat="47.67818" lon="-3.24891">
        <ele>-73.951408</ele>
        <time>2020-12-29T11:42:43.000Z</time>
      </trkpt>
      <trkpt lat="47.67825" lon="-3.24919">
        <ele>-73.912294</ele>
        <time>2020-12-29T11:42:38.000Z</time>
      </trkpt>
      <trkpt lat="47.67825" lon="-3.24919">
        <ele>-73.912294</ele>
        <time>2020-12-29T11:42:37.000Z</time>
      </trkpt>
      <trkpt lat="47.67826" lon="-3.24952">
        <ele>-73.869788</ele>
        <time>2020-12-29T11:42:30.000Z</time>
      </trkpt>
      <trkpt lat="47.67825" lon="-3.24971">
        <ele>-73.844738</ele>
        <time>2020-12-29T11:42:26.000Z</time>
      </trkpt>
      <trkpt lat="47.67823" lon="-3.25004">
        <ele>-73.858528</ele>
        <time>2020-12-29T11:42:20.000Z</time>
      </trkpt>
      <trkpt lat="47.67822" lon="-3.25027">
        <ele>-74.095685</ele>
        <time>2020-12-29T11:42:17.000Z</time>
      </trkpt>
      <trkpt lat="47.67819" lon="-3.2506">
        <ele>-74.445117</ele>
        <time>2020-12-29T11:42:11.000Z</time>
      </trkpt>
      <trkpt lat="47.67818" lon="-3.25075">
        <ele>-74.613392</ele>
        <time>2020-12-29T11:42:07.000Z</time>
      </trkpt>
      <trkpt lat="47.67816" lon="-3.25096">
        <ele>-74.836926</ele>
        <time>2020-12-29T11:42:04.000Z</time>
      </trkpt>
      <trkpt lat="47.67816" lon="-3.25115">
        <ele>-75.035495</ele>
        <time>2020-12-29T11:41:59.000Z</time>
      </trkpt>
      <trkpt lat="47.67818" lon="-3.25119">
        <ele>-75.079394</ele>
        <time>2020-12-29T11:41:53.000Z</time>
      </trkpt>
      <trkpt lat="47.6782" lon="-3.2512">
        <ele>-75.122791</ele>
        <time>2020-12-29T11:41:50.000Z</time>
      </trkpt>
      <trkpt lat="47.6784" lon="-3.25123">
        <ele>-75.43838</ele>
        <time>2020-12-29T11:41:44.000Z</time>
      </trkpt>
      <trkpt lat="47.67866" lon="-3.25126">
        <ele>-75.843123</ele>
        <time>2020-12-29T11:41:35.000Z</time>
      </trkpt>
      <trkpt lat="47.67889" lon="-3.25129">
        <ele>-76.208083</ele>
        <time>2020-12-29T11:41:27.000Z</time>
      </trkpt>
      <trkpt lat="47.67926" lon="-3.25134">
        <ele>-76.811854</ele>
        <time>2020-12-29T11:41:17.000Z</time>
      </trkpt>
      <trkpt lat="47.67956" lon="-3.25139">
        <ele>-77.398235</ele>
        <time>2020-12-29T11:41:09.000Z</time>
      </trkpt>
      <trkpt lat="47.6796" lon="-3.25139">
        <ele>-77.473352</ele>
        <time>2020-12-29T11:41:07.000Z</time>
      </trkpt>
      <trkpt lat="47.67989" lon="-3.25144">
        <ele>-78.029337</ele>
        <time>2020-12-29T11:41:00.000Z</time>
      </trkpt>
      <trkpt lat="47.68024" lon="-3.25149">
        <ele>-78.708269</ele>
        <time>2020-12-29T11:40:49.000Z</time>
      </trkpt>
      <trkpt lat="47.68064" lon="-3.25155">
        <ele>-79.473521</ele>
        <time>2020-12-29T11:40:39.000Z</time>
      </trkpt>
      <trkpt lat="47.68064" lon="-3.25155">
        <ele>-79.473521</ele>
        <time>2020-12-29T11:40:38.000Z</time>
      </trkpt>
      <trkpt lat="47.68083" lon="-3.25157">
        <ele>-79.850613</ele>
        <time>2020-12-29T11:40:34.000Z</time>
      </trkpt>
      <trkpt lat="47.68091" lon="-3.25157">
        <ele>-80.009933</ele>
        <time>2020-12-29T11:40:31.000Z</time>
      </trkpt>
      <trkpt lat="47.68109" lon="-3.25143">
        <ele>-80.268439</ele>
        <time>2020-12-29T11:40:27.000Z</time>
      </trkpt>
      <trkpt lat="47.68124" lon="-3.25131">
        <ele>-80.46737</ele>
        <time>2020-12-29T11:40:23.000Z</time>
      </trkpt>
      <trkpt lat="47.68152" lon="-3.25107">
        <ele>-80.845937</ele>
        <time>2020-12-29T11:40:16.000Z</time>
      </trkpt>
      <trkpt lat="47.6816" lon="-3.25101">
        <ele>-80.949898</ele>
        <time>2020-12-29T11:40:13.000Z</time>
      </trkpt>
      <trkpt lat="47.6819" lon="-3.25072">
        <ele>-81.37389</ele>
        <time>2020-12-29T11:40:06.000Z</time>
      </trkpt>
      <trkpt lat="47.68198" lon="-3.25065">
        <ele>-81.478705</ele>
        <time>2020-12-29T11:40:04.000Z</time>
      </trkpt>
      <trkpt lat="47.68215" lon="-3.2505">
        <ele>-81.703999</ele>
        <time>2020-12-29T11:39:59.000Z</time>
      </trkpt>
      <trkpt lat="47.68218" lon="-3.25043">
        <ele>-81.773341</ele>
        <time>2020-12-29T11:39:57.000Z</time>
      </trkpt>
      <trkpt lat="47.68218" lon="-3.25039">
        <ele>-81.804087</ele>
        <time>2020-12-29T11:39:56.000Z</time>
      </trkpt>
      <trkpt lat="47.68214" lon="-3.25034">
        <ele>-81.868268</ele>
        <time>2020-12-29T11:39:53.000Z</time>
      </trkpt>
      <trkpt lat="47.68214" lon="-3.25031">
        <ele>-81.884776</ele>
        <time>2020-12-29T11:39:51.000Z</time>
      </trkpt>
      <trkpt lat="47.68216" lon="-3.25031">
        <ele>-81.90896</ele>
        <time>2020-12-29T11:39:49.000Z</time>
      </trkpt>
      <trkpt lat="47.6822" lon="-3.25032">
        <ele>-81.953742</ele>
        <time>2020-12-29T11:39:48.000Z</time>
      </trkpt>
      <trkpt lat="47.68231" lon="-3.25037">
        <ele>-82.093218</ele>
        <time>2020-12-29T11:39:46.000Z</time>
      </trkpt>
      <trkpt lat="47.68244" lon="-3.25039">
        <ele>-82.090173</ele>
        <time>2020-12-29T11:39:45.000Z</time>
      </trkpt>
      <trkpt lat="47.68286" lon="-3.25035">
        <ele>-81.411944</ele>
        <time>2020-12-29T11:39:38.000Z</time>
      </trkpt>
      <trkpt lat="47.68293" lon="-3.25033">
        <ele>-81.291889</ele>
        <time>2020-12-29T11:39:37.000Z</time>
      </trkpt>
      <trkpt lat="47.68329" lon="-3.25025">
        <ele>-80.697658</ele>
        <time>2020-12-29T11:39:32.000Z</time>
      </trkpt>
      <trkpt lat="47.68356" lon="-3.25013">
        <ele>-80.232901</ele>
        <time>2020-12-29T11:39:29.000Z</time>
      </trkpt>
      <trkpt lat="47.68376" lon="-3.25003">
        <ele>-79.884665</ele>
        <time>2020-12-29T11:39:25.000Z</time>
      </trkpt>
      <trkpt lat="47.68412" lon="-3.24986">
        <ele>-79.270663</ele>
        <time>2020-12-29T11:39:21.000Z</time>
      </trkpt>
      <trkpt lat="47.68419" lon="-3.24982">
        <ele>-79.021902</ele>
        <time>2020-12-29T11:39:20.000Z</time>
      </trkpt>
      <trkpt lat="47.68449" lon="-3.24971">
        <ele>-77.8385</ele>
        <time>2020-12-29T11:39:16.000Z</time>
      </trkpt>
      <trkpt lat="47.68464" lon="-3.24969">
        <ele>-77.240219</ele>
        <time>2020-12-29T11:39:14.000Z</time>
      </trkpt>
      <trkpt lat="47.68487" lon="-3.24967">
        <ele>-76.350987</ele>
        <time>2020-12-29T11:39:11.000Z</time>
      </trkpt>
      <trkpt lat="47.68509" lon="-3.24962">
        <ele>-75.48529</ele>
        <time>2020-12-29T11:39:08.000Z</time>
      </trkpt>
      <trkpt lat="47.68509" lon="-3.24962">
        <ele>-75.48529</ele>
        <time>2020-12-29T11:39:07.000Z</time>
      </trkpt>
      <trkpt lat="47.68545" lon="-3.24954">
        <ele>-74.093797</ele>
        <time>2020-12-29T11:39:03.000Z</time>
      </trkpt>
      <trkpt lat="47.68572" lon="-3.24948">
        <ele>-73.029563</ele>
        <time>2020-12-29T11:38:59.000Z</time>
      </trkpt>
      <trkpt lat="47.68572" lon="-3.24948">
        <ele>-73.029563</ele>
        <time>2020-12-29T11:38:58.000Z</time>
      </trkpt>
      <trkpt lat="47.68592" lon="-3.24945">
        <ele>-72.262095</ele>
        <time>2020-12-29T11:38:55.000Z</time>
      </trkpt>
      <trkpt lat="47.68616" lon="-3.2494">
        <ele>-71.565497</ele>
        <time>2020-12-29T11:38:52.000Z</time>
      </trkpt>
      <trkpt lat="47.68628" lon="-3.24936">
        <ele>-71.236084</ele>
        <time>2020-12-29T11:38:50.000Z</time>
      </trkpt>
      <trkpt lat="47.68656" lon="-3.24928">
        <ele>-70.434304</ele>
        <time>2020-12-29T11:38:45.000Z</time>
      </trkpt>
      <trkpt lat="47.68667" lon="-3.24925">
        <ele>-70.119762</ele>
        <time>2020-12-29T11:38:42.000Z</time>
      </trkpt>
      <trkpt lat="47.68677" lon="-3.24923">
        <ele>-69.820464</ele>
        <time>2020-12-29T11:38:40.000Z</time>
      </trkpt>
      <trkpt lat="47.68686" lon="-3.24927">
        <ele>-69.564328</ele>
        <time>2020-12-29T11:38:39.000Z</time>
      </trkpt>
      <trkpt lat="47.68689" lon="-3.24932">
        <ele>-69.449693</ele>
        <time>2020-12-29T11:38:37.000Z</time>
      </trkpt>
      <trkpt lat="47.68694" lon="-3.24949">
        <ele>-69.096708</ele>
        <time>2020-12-29T11:38:35.000Z</time>
      </trkpt>
      <trkpt lat="47.68716" lon="-3.25005">
        <ele>-67.863416</ele>
        <time>2020-12-29T11:38:27.000Z</time>
      </trkpt>
      <trkpt lat="47.68719" lon="-3.25012">
        <ele>-67.707376</ele>
        <time>2020-12-29T11:38:25.000Z</time>
      </trkpt>
      <trkpt lat="47.68743" lon="-3.25072">
        <ele>-66.908011</ele>
        <time>2020-12-29T11:38:18.000Z</time>
      </trkpt>
      <trkpt lat="47.68763" lon="-3.25125">
        <ele>-66.48339</ele>
        <time>2020-12-29T11:38:11.000Z</time>
      </trkpt>
      <trkpt lat="47.68773" lon="-3.25148">
        <ele>-66.293848</ele>
        <time>2020-12-29T11:38:07.000Z</time>
      </trkpt>
      <trkpt lat="47.68798" lon="-3.25217">
        <ele>-65.744605</ele>
        <time>2020-12-29T11:37:59.000Z</time>
      </trkpt>
      <trkpt lat="47.68824" lon="-3.25281">
        <ele>-65.509566</ele>
        <time>2020-12-29T11:37:49.000Z</time>
      </trkpt>
      <trkpt lat="47.68836" lon="-3.25324">
        <ele>-65.917618</ele>
        <time>2020-12-29T11:37:44.000Z</time>
      </trkpt>
      <trkpt lat="47.68836" lon="-3.25324">
        <ele>-65.917618</ele>
        <time>2020-12-29T11:37:43.000Z</time>
      </trkpt>
      <trkpt lat="47.68843" lon="-3.25396">
        <ele>-66.565525</ele>
        <time>2020-12-29T11:37:35.000Z</time>
      </trkpt>
      <trkpt lat="47.68843" lon="-3.25404">
        <ele>-66.638321</ele>
        <time>2020-12-29T11:37:34.000Z</time>
      </trkpt>
      <trkpt lat="47.68848" lon="-3.25469">
        <ele>-67.227126</ele>
        <time>2020-12-29T11:37:25.000Z</time>
      </trkpt>
      <trkpt lat="47.6885" lon="-3.25494">
        <ele>-67.451542</ele>
        <time>2020-12-29T11:37:23.000Z</time>
      </trkpt>
      <trkpt lat="47.68859" lon="-3.25542">
        <ele>-67.922381</ele>
        <time>2020-12-29T11:37:17.000Z</time>
      </trkpt>
      <trkpt lat="47.68864" lon="-3.25565">
        <ele>-68.179545</ele>
        <time>2020-12-29T11:37:14.000Z</time>
      </trkpt>
      <trkpt lat="47.68875" lon="-3.25613">
        <ele>-68.704679</ele>
        <time>2020-12-29T11:37:08.000Z</time>
      </trkpt>
      <trkpt lat="47.68882" lon="-3.25644">
        <ele>-69.05361</ele>
        <time>2020-12-29T11:37:04.000Z</time>
      </trkpt>
      <trkpt lat="47.68893" lon="-3.25691">
        <ele>-69.571802</ele>
        <time>2020-12-29T11:36:58.000Z</time>
      </trkpt>
      <trkpt lat="47.68911" lon="-3.25769">
        <ele>-70.439467</ele>
        <time>2020-12-29T11:36:48.000Z</time>
      </trkpt>
      <trkpt lat="47.68931" lon="-3.25852">
        <ele>-70.404098</ele>
        <time>2020-12-29T11:36:37.000Z</time>
      </trkpt>
      <trkpt lat="47.68948" lon="-3.25925">
        <ele>-70.282634</ele>
        <time>2020-12-29T11:36:29.000Z</time>
      </trkpt>
      <trkpt lat="47.68962" lon="-3.25986">
        <ele>-70.179843</ele>
        <time>2020-12-29T11:36:21.000Z</time>
      </trkpt>
      <trkpt lat="47.68963" lon="-3.25994">
        <ele>-70.167616</ele>
        <time>2020-12-29T11:36:19.000Z</time>
      </trkpt>
      <trkpt lat="47.68969" lon="-3.26012">
        <ele>-70.135138</ele>
        <time>2020-12-29T11:36:17.000Z</time>
      </trkpt>
      <trkpt lat="47.68973" lon="-3.2603">
        <ele>-70.107604</ele>
        <time>2020-12-29T11:36:12.000Z</time>
      </trkpt>
      <trkpt lat="47.68976" lon="-3.26047">
        <ele>-70.239556</ele>
        <time>2020-12-29T11:36:07.000Z</time>
      </trkpt>
      <trkpt lat="47.68983" lon="-3.2608">
        <ele>-70.50344</ele>
        <time>2020-12-29T11:36:03.000Z</time>
      </trkpt>
      <trkpt lat="47.68986" lon="-3.26085">
        <ele>-70.558239</ele>
        <time>2020-12-29T11:36:01.000Z</time>
      </trkpt>
      <trkpt lat="47.68999" lon="-3.26096">
        <ele>-70.719132</ele>
        <time>2020-12-29T11:35:59.000Z</time>
      </trkpt>
      <trkpt lat="47.69003" lon="-3.26108">
        <ele>-70.828364</ele>
        <time>2020-12-29T11:35:57.000Z</time>
      </trkpt>
      <trkpt lat="47.6901" lon="-3.26153">
        <ele>-71.176013</ele>
        <time>2020-12-29T11:35:51.000Z</time>
      </trkpt>
      <trkpt lat="47.69016" lon="-3.26198">
        <ele>-71.524823</ele>
        <time>2020-12-29T11:35:45.000Z</time>
      </trkpt>
      <trkpt lat="47.6902" lon="-3.26227">
        <ele>-71.750678</ele>
        <time>2020-12-29T11:35:41.000Z</time>
      </trkpt>
      <trkpt lat="47.69026" lon="-3.26271">
        <ele>-72.089576</ele>
        <time>2020-12-29T11:35:35.000Z</time>
      </trkpt>
      <trkpt lat="47.69028" lon="-3.26292">
        <ele>-72.292555</ele>
        <time>2020-12-29T11:35:32.000Z</time>
      </trkpt>
      <trkpt lat="47.69032" lon="-3.26321">
        <ele>-72.584474</ele>
        <time>2020-12-29T11:35:28.000Z</time>
      </trkpt>
      <trkpt lat="47.69036" lon="-3.26351">
        <ele>-72.880123</ele>
        <time>2020-12-29T11:35:24.000Z</time>
      </trkpt>
      <trkpt lat="47.69037" lon="-3.26358">
        <ele>-72.95732</ele>
        <time>2020-12-29T11:35:23.000Z</time>
      </trkpt>
      <trkpt lat="47.69039" lon="-3.26381">
        <ele>-73.189376</ele>
        <time>2020-12-29T11:35:20.000Z</time>
      </trkpt>
      <trkpt lat="47.69043" lon="-3.26414">
        <ele>-73.518896</ele>
        <time>2020-12-29T11:35:16.000Z</time>
      </trkpt>
      <trkpt lat="47.69044" lon="-3.26423">
        <ele>-73.606604</ele>
        <time>2020-12-29T11:35:15.000Z</time>
      </trkpt>
      <trkpt lat="47.69051" lon="-3.26448">
        <ele>-73.874139</ele>
        <time>2020-12-29T11:35:12.000Z</time>
      </trkpt>
      <trkpt lat="47.69055" lon="-3.26455">
        <ele>-73.968272</ele>
        <time>2020-12-29T11:35:11.000Z</time>
      </trkpt>
      <trkpt lat="47.6908" lon="-3.2647">
        <ele>-74.357341</ele>
        <time>2020-12-29T11:35:07.000Z</time>
      </trkpt>
      <trkpt lat="47.69112" lon="-3.26487">
        <ele>-74.69543</ele>
        <time>2020-12-29T11:35:02.000Z</time>
      </trkpt>
      <trkpt lat="47.69132" lon="-3.26498">
        <ele>-74.334442</ele>
        <time>2020-12-29T11:34:59.000Z</time>
      </trkpt>
      <trkpt lat="47.69138" lon="-3.26503">
        <ele>-74.211891</ele>
        <time>2020-12-29T11:34:58.000Z</time>
      </trkpt>
      <trkpt lat="47.69164" lon="-3.2652">
        <ele>-73.732026</ele>
        <time>2020-12-29T11:34:54.000Z</time>
      </trkpt>
      <trkpt lat="47.69189" lon="-3.26535">
        <ele>-73.281111</ele>
        <time>2020-12-29T11:34:50.000Z</time>
      </trkpt>
      <trkpt lat="47.69206" lon="-3.26545">
        <ele>-72.966333</ele>
        <time>2020-12-29T11:34:47.000Z</time>
      </trkpt>
      <trkpt lat="47.69222" lon="-3.26555">
        <ele>-72.677839</ele>
        <time>2020-12-29T11:34:44.000Z</time>
      </trkpt>
      <trkpt lat="47.69226" lon="-3.26558">
        <ele>-72.59118</ele>
        <time>2020-12-29T11:34:43.000Z</time>
      </trkpt>
      <trkpt lat="47.69238" lon="-3.26565">
        <ele>-72.371937</ele>
        <time>2020-12-29T11:34:40.000Z</time>
      </trkpt>
      <trkpt lat="47.69243" lon="-3.26576">
        <ele>-72.23288</ele>
        <time>2020-12-29T11:34:37.000Z</time>
      </trkpt>
      <trkpt lat="47.69242" lon="-3.2658">
        <ele>-72.18255</ele>
        <time>2020-12-29T11:34:36.000Z</time>
      </trkpt>
      <trkpt lat="47.69224" lon="-3.26603">
        <ele>-71.779599</ele>
        <time>2020-12-29T11:34:30.000Z</time>
      </trkpt>
      <trkpt lat="47.69217" lon="-3.26611">
        <ele>-71.872927</ele>
        <time>2020-12-29T11:34:28.000Z</time>
      </trkpt>
      <trkpt lat="47.69203" lon="-3.26637">
        <ele>-72.391859</ele>
        <time>2020-12-29T11:34:23.000Z</time>
      </trkpt>
      <trkpt lat="47.69198" lon="-3.26648">
        <ele>-72.595057</ele>
        <time>2020-12-29T11:34:21.000Z</time>
      </trkpt>
      <trkpt lat="47.6919" lon="-3.26673">
        <ele>-73.018063</ele>
        <time>2020-12-29T11:34:17.000Z</time>
      </trkpt>
      <trkpt lat="47.69183" lon="-3.26705">
        <ele>-73.544104</ele>
        <time>2020-12-29T11:34:12.000Z</time>
      </trkpt>
      <trkpt lat="47.69177" lon="-3.26724">
        <ele>-73.862528</ele>
        <time>2020-12-29T11:34:09.000Z</time>
      </trkpt>
      <trkpt lat="47.69169" lon="-3.26749">
        <ele>-74.288936</ele>
        <time>2020-12-29T11:34:05.000Z</time>
      </trkpt>
      <trkpt lat="47.6916" lon="-3.26774">
        <ele>-74.725653</ele>
        <time>2020-12-29T11:34:01.000Z</time>
      </trkpt>
      <trkpt lat="47.69144" lon="-3.26827">
        <ele>-75.62522</ele>
        <time>2020-12-29T11:33:53.000Z</time>
      </trkpt>
      <trkpt lat="47.69134" lon="-3.26893">
        <ele>-75.36723</ele>
        <time>2020-12-29T11:33:44.000Z</time>
      </trkpt>
      <trkpt lat="47.69131" lon="-3.26921">
        <ele>-75.104229</ele>
        <time>2020-12-29T11:33:40.000Z</time>
      </trkpt>
      <trkpt lat="47.69127" lon="-3.26941">
        <ele>-74.914558</ele>
        <time>2020-12-29T11:33:37.000Z</time>
      </trkpt>
      <trkpt lat="47.69118" lon="-3.26965">
        <ele>-74.664175</ele>
        <time>2020-12-29T11:33:33.000Z</time>
      </trkpt>
      <trkpt lat="47.69114" lon="-3.2697">
        <ele>-74.601355</ele>
        <time>2020-12-29T11:33:32.000Z</time>
      </trkpt>
      <trkpt lat="47.69104" lon="-3.26982">
        <ele>-74.419526</ele>
        <time>2020-12-29T11:33:29.000Z</time>
      </trkpt>
      <trkpt lat="47.69098" lon="-3.26989">
        <ele>-74.312867</ele>
        <time>2020-12-29T11:33:27.000Z</time>
      </trkpt>
      <trkpt lat="47.69095" lon="-3.26996">
        <ele>-74.240724</ele>
        <time>2020-12-29T11:33:25.000Z</time>
      </trkpt>
      <trkpt lat="47.69096" lon="-3.27001">
        <ele>-74.193336</ele>
        <time>2020-12-29T11:33:13.000Z</time>
      </trkpt>
      <trkpt lat="47.69096" lon="-3.27001">
        <ele>-74.191975</ele>
        <time>2020-12-29T11:33:12.000Z</time>
      </trkpt>
      <trkpt lat="47.69102" lon="-3.27006">
        <ele>-74.106847</ele>
        <time>2020-12-29T11:33:08.000Z</time>
      </trkpt>
      <trkpt lat="47.69108" lon="-3.27006">
        <ele>-74.017073</ele>
        <time>2020-12-29T11:33:06.000Z</time>
      </trkpt>
      <trkpt lat="47.69117" lon="-3.27004">
        <ele>-73.905385</ele>
        <time>2020-12-29T11:33:04.000Z</time>
      </trkpt>
      <trkpt lat="47.69129" lon="-3.26999">
        <ele>-73.724274</ele>
        <time>2020-12-29T11:33:01.000Z</time>
      </trkpt>
      <trkpt lat="47.69147" lon="-3.26992">
        <ele>-73.480862</ele>
        <time>2020-12-29T11:32:57.000Z</time>
      </trkpt>
      <trkpt lat="47.69155" lon="-3.26989">
        <ele>-73.328771</ele>
        <time>2020-12-29T11:32:55.000Z</time>
      </trkpt>
      <trkpt lat="47.69175" lon="-3.26977">
        <ele>-72.768347</ele>
        <time>2020-12-29T11:32:49.000Z</time>
      </trkpt>
      <trkpt lat="47.6919" lon="-3.26968">
        <ele>-72.34416</ele>
        <time>2020-12-29T11:32:44.000Z</time>
      </trkpt>
      <trkpt lat="47.69204" lon="-3.26958">
        <ele>-71.941351</ele>
        <time>2020-12-29T11:32:38.000Z</time>
      </trkpt>
      <trkpt lat="47.69207" lon="-3.26956">
        <ele>-71.856785</ele>
        <time>2020-12-29T11:32:37.000Z</time>
      </trkpt>
      <trkpt lat="47.69217" lon="-3.2695">
        <ele>-71.577773</ele>
        <time>2020-12-29T11:32:34.000Z</time>
      </trkpt>
      <trkpt lat="47.69225" lon="-3.26944">
        <ele>-71.34211</ele>
        <time>2020-12-29T11:32:31.000Z</time>
      </trkpt>
      <trkpt lat="47.69236" lon="-3.26937">
        <ele>-71.0415</ele>
        <time>2020-12-29T11:32:27.000Z</time>
      </trkpt>
      <trkpt lat="47.69245" lon="-3.26931">
        <ele>-70.782767</ele>
        <time>2020-12-29T11:32:24.000Z</time>
      </trkpt>
      <trkpt lat="47.69266" lon="-3.26916">
        <ele>-70.16919</ele>
        <time>2020-12-29T11:32:17.000Z</time>
      </trkpt>
      <trkpt lat="47.69281" lon="-3.26905">
        <ele>-69.749368</ele>
        <time>2020-12-29T11:32:12.000Z</time>
      </trkpt>
      <trkpt lat="47.69306" lon="-3.26887">
        <ele>-69.023477</ele>
        <time>2020-12-29T11:32:05.000Z</time>
      </trkpt>
      <trkpt lat="47.69312" lon="-3.26883">
        <ele>-68.853069</ele>
        <time>2020-12-29T11:32:03.000Z</time>
      </trkpt>
      <trkpt lat="47.69327" lon="-3.26872">
        <ele>-68.645797</ele>
        <time>2020-12-29T11:31:58.000Z</time>
      </trkpt>
      <trkpt lat="47.69349" lon="-3.26856">
        <ele>-68.466201</ele>
        <time>2020-12-29T11:31:51.000Z</time>
      </trkpt>
      <trkpt lat="47.69375" lon="-3.26839">
        <ele>-68.259102</ele>
        <time>2020-12-29T11:31:43.000Z</time>
      </trkpt>
      <trkpt lat="47.69399" lon="-3.26822">
        <ele>-68.056664</ele>
        <time>2020-12-29T11:31:36.000Z</time>
      </trkpt>
      <trkpt lat="47.69423" lon="-3.26804">
        <ele>-67.860705</ele>
        <time>2020-12-29T11:31:29.000Z</time>
      </trkpt>
      <trkpt lat="47.69444" lon="-3.26788">
        <ele>-67.684155</ele>
        <time>2020-12-29T11:31:23.000Z</time>
      </trkpt>
      <trkpt lat="47.69481" lon="-3.2676">
        <ele>-67.392809</ele>
        <time>2020-12-29T11:31:15.000Z</time>
      </trkpt>
      <trkpt lat="47.69485" lon="-3.26757">
        <ele>-67.369283</ele>
        <time>2020-12-29T11:31:14.000Z</time>
      </trkpt>
      <trkpt lat="47.69522" lon="-3.2673">
        <ele>-67.184538</ele>
        <time>2020-12-29T11:31:06.000Z</time>
      </trkpt>
      <trkpt lat="47.69527" lon="-3.26727">
        <ele>-67.16288</ele>
        <time>2020-12-29T11:31:05.000Z</time>
      </trkpt>
      <trkpt lat="47.69546" lon="-3.26711">
        <ele>-67.063125</ele>
        <time>2020-12-29T11:31:00.000Z</time>
      </trkpt>
      <trkpt lat="47.69557" lon="-3.26711">
        <ele>-67.017919</ele>
        <time>2020-12-29T11:30:57.000Z</time>
      </trkpt>
      <trkpt lat="47.69565" lon="-3.2673">
        <ele>-66.951435</ele>
        <time>2020-12-29T11:30:53.000Z</time>
      </trkpt>
      <trkpt lat="47.69567" lon="-3.26763">
        <ele>-66.850216</ele>
        <time>2020-12-29T11:30:48.000Z</time>
      </trkpt>
      <trkpt lat="47.69569" lon="-3.26784">
        <ele>-66.786098</ele>
        <time>2020-12-29T11:30:45.000Z</time>
      </trkpt>
      <trkpt lat="47.69576" lon="-3.26863">
        <ele>-66.803794</ele>
        <time>2020-12-29T11:30:35.000Z</time>
      </trkpt>
      <trkpt lat="47.69584" lon="-3.26926">
        <ele>-67.495169</ele>
        <time>2020-12-29T11:30:27.000Z</time>
      </trkpt>
      <trkpt lat="47.69606" lon="-3.27">
        <ele>-68.363886</ele>
        <time>2020-12-29T11:30:17.000Z</time>
      </trkpt>
      <trkpt lat="47.69613" lon="-3.27021">
        <ele>-68.621925</ele>
        <time>2020-12-29T11:30:14.000Z</time>
      </trkpt>
      <trkpt lat="47.69623" lon="-3.27057">
        <ele>-69.035196</ele>
        <time>2020-12-29T11:30:09.000Z</time>
      </trkpt>
      <trkpt lat="47.69625" lon="-3.27071">
        <ele>-69.193029</ele>
        <time>2020-12-29T11:30:07.000Z</time>
      </trkpt>
      <trkpt lat="47.69626" lon="-3.27093">
        <ele>-69.429533</ele>
        <time>2020-12-29T11:30:04.000Z</time>
      </trkpt>
      <trkpt lat="47.69626" lon="-3.27101">
        <ele>-69.485554</ele>
        <time>2020-12-29T11:30:03.000Z</time>
      </trkpt>
      <trkpt lat="47.69614" lon="-3.27181">
        <ele>-69.817678</ele>
        <time>2020-12-29T11:29:52.000Z</time>
      </trkpt>
      <trkpt lat="47.69611" lon="-3.27203">
        <ele>-69.907772</ele>
        <time>2020-12-29T11:29:49.000Z</time>
      </trkpt>
      <trkpt lat="47.69607" lon="-3.27238">
        <ele>-70.052454</ele>
        <time>2020-12-29T11:29:44.000Z</time>
      </trkpt>
      <trkpt lat="47.69603" lon="-3.27289">
        <ele>-70.258363</ele>
        <time>2020-12-29T11:29:37.000Z</time>
      </trkpt>
      <trkpt lat="47.69602" lon="-3.27296">
        <ele>-70.288581</ele>
        <time>2020-12-29T11:29:36.000Z</time>
      </trkpt>
      <trkpt lat="47.69602" lon="-3.27318">
        <ele>-70.378805</ele>
        <time>2020-12-29T11:29:33.000Z</time>
      </trkpt>
      <trkpt lat="47.69603" lon="-3.27326">
        <ele>-70.410118</ele>
        <time>2020-12-29T11:29:32.000Z</time>
      </trkpt>
      <trkpt lat="47.69612" lon="-3.27375">
        <ele>-70.334817</ele>
        <time>2020-12-29T11:29:25.000Z</time>
      </trkpt>
      <trkpt lat="47.69613" lon="-3.27387">
        <ele>-70.160562</ele>
        <time>2020-12-29T11:29:23.000Z</time>
      </trkpt>
      <trkpt lat="47.69614" lon="-3.27412">
        <ele>-69.818226</ele>
        <time>2020-12-29T11:29:19.000Z</time>
      </trkpt>
      <trkpt lat="47.69614" lon="-3.27418">
        <ele>-69.737101</ele>
        <time>2020-12-29T11:29:18.000Z</time>
      </trkpt>
      <trkpt lat="47.69617" lon="-3.27432">
        <ele>-69.523249</ele>
        <time>2020-12-29T11:29:15.000Z</time>
      </trkpt>
      <trkpt lat="47.69621" lon="-3.27439">
        <ele>-69.395937</ele>
        <time>2020-12-29T11:29:13.000Z</time>
      </trkpt>
      <trkpt lat="47.69626" lon="-3.27446">
        <ele>-69.251766</ele>
        <time>2020-12-29T11:29:11.000Z</time>
      </trkpt>
      <trkpt lat="47.69636" lon="-3.27471">
        <ele>-68.854552</ele>
        <time>2020-12-29T11:29:07.000Z</time>
      </trkpt>
      <trkpt lat="47.6964" lon="-3.27483">
        <ele>-68.657296</ele>
        <time>2020-12-29T11:29:05.000Z</time>
      </trkpt>
      <trkpt lat="47.69652" lon="-3.27514">
        <ele>-68.169744</ele>
        <time>2020-12-29T11:29:00.000Z</time>
      </trkpt>
      <trkpt lat="47.69672" lon="-3.27568">
        <ele>-67.307984</ele>
        <time>2020-12-29T11:28:51.000Z</time>
      </trkpt>
      <trkpt lat="47.6969" lon="-3.27616">
        <ele>-66.900428</ele>
        <time>2020-12-29T11:28:43.000Z</time>
      </trkpt>
      <trkpt lat="47.69695" lon="-3.27629">
        <ele>-66.956286</ele>
        <time>2020-12-29T11:28:41.000Z</time>
      </trkpt>
      <trkpt lat="47.69712" lon="-3.27672">
        <ele>-67.150803</ele>
        <time>2020-12-29T11:28:34.000Z</time>
      </trkpt>
      <trkpt lat="47.69716" lon="-3.27685">
        <ele>-67.207619</ele>
        <time>2020-12-29T11:28:32.000Z</time>
      </trkpt>
      <trkpt lat="47.69729" lon="-3.27716">
        <ele>-67.346152</ele>
        <time>2020-12-29T11:28:27.000Z</time>
      </trkpt>
      <trkpt lat="47.69738" lon="-3.27741">
        <ele>-67.457419</ele>
        <time>2020-12-29T11:28:23.000Z</time>
      </trkpt>
      <trkpt lat="47.69743" lon="-3.27753">
        <ele>-67.511703</ele>
        <time>2020-12-29T11:28:21.000Z</time>
      </trkpt>
      <trkpt lat="47.69745" lon="-3.27759">
        <ele>-67.537518</ele>
        <time>2020-12-29T11:28:20.000Z</time>
      </trkpt>
      <trkpt lat="47.69755" lon="-3.2778">
        <ele>-67.63756</ele>
        <time>2020-12-29T11:28:16.000Z</time>
      </trkpt>
      <trkpt lat="47.69757" lon="-3.27786">
        <ele>-67.661877</ele>
        <time>2020-12-29T11:28:15.000Z</time>
      </trkpt>
      <trkpt lat="47.69777" lon="-3.27846">
        <ele>-67.868182</ele>
        <time>2020-12-29T11:28:05.000Z</time>
      </trkpt>
      <trkpt lat="47.69795" lon="-3.27893">
        <ele>-67.906694</ele>
        <time>2020-12-29T11:27:57.000Z</time>
      </trkpt>
      <trkpt lat="47.69817" lon="-3.27949">
        <ele>-67.953473</ele>
        <time>2020-12-29T11:27:48.000Z</time>
      </trkpt>
      <trkpt lat="47.6983" lon="-3.27988">
        <ele>-67.984579</ele>
        <time>2020-12-29T11:27:42.000Z</time>
      </trkpt>
      <trkpt lat="47.69841" lon="-3.28019">
        <ele>-68.01008</ele>
        <time>2020-12-29T11:27:37.000Z</time>
      </trkpt>
      <trkpt lat="47.69844" lon="-3.28025">
        <ele>-68.015147</ele>
        <time>2020-12-29T11:27:36.000Z</time>
      </trkpt>
      <trkpt lat="47.69853" lon="-3.28049">
        <ele>-68.034637</ele>
        <time>2020-12-29T11:27:32.000Z</time>
      </trkpt>
      <trkpt lat="47.6986" lon="-3.28067">
        <ele>-68.023039</ele>
        <time>2020-12-29T11:27:29.000Z</time>
      </trkpt>
      <trkpt lat="47.69878" lon="-3.28118">
        <ele>-67.507257</ele>
        <time>2020-12-29T11:27:21.000Z</time>
      </trkpt>
      <trkpt lat="47.69897" lon="-3.28167">
        <ele>-67.011564</ele>
        <time>2020-12-29T11:27:13.000Z</time>
      </trkpt>
      <trkpt lat="47.69901" lon="-3.28178">
        <ele>-66.89243</ele>
        <time>2020-12-29T11:27:11.000Z</time>
      </trkpt>
      <trkpt lat="47.69911" lon="-3.28207">
        <ele>-66.609657</ele>
        <time>2020-12-29T11:27:06.000Z</time>
      </trkpt>
      <trkpt lat="47.69915" lon="-3.28218">
        <ele>-66.500116</ele>
        <time>2020-12-29T11:27:04.000Z</time>
      </trkpt>
      <trkpt lat="47.69921" lon="-3.28234">
        <ele>-66.341583</ele>
        <time>2020-12-29T11:27:01.000Z</time>
      </trkpt>
      <trkpt lat="47.69923" lon="-3.28238">
        <ele>-66.296306</ele>
        <time>2020-12-29T11:27:00.000Z</time>
      </trkpt>
      <trkpt lat="47.6993" lon="-3.28241">
        <ele>-66.201157</ele>
        <time>2020-12-29T11:26:58.000Z</time>
      </trkpt>
      <trkpt lat="47.69934" lon="-3.2824">
        <ele>-66.1466</ele>
        <time>2020-12-29T11:26:57.000Z</time>
      </trkpt>
      <trkpt lat="47.69961" lon="-3.28227">
        <ele>-65.775324</ele>
        <time>2020-12-29T11:26:52.000Z</time>
      </trkpt>
      <trkpt lat="47.69982" lon="-3.28217">
        <ele>-65.564464</ele>
        <time>2020-12-29T11:26:48.000Z</time>
      </trkpt>
      <trkpt lat="47.69992" lon="-3.28213">
        <ele>-65.485362</ele>
        <time>2020-12-29T11:26:46.000Z</time>
      </trkpt>
      <trkpt lat="47.70001" lon="-3.28209">
        <ele>-65.411093</ele>
        <time>2020-12-29T11:26:44.000Z</time>
      </trkpt>
      <trkpt lat="47.70031" lon="-3.28196">
        <ele>-65.174788</ele>
        <time>2020-12-29T11:26:37.000Z</time>
      </trkpt>
      <trkpt lat="47.70058" lon="-3.28186">
        <ele>-64.958888</ele>
        <time>2020-12-29T11:26:30.000Z</time>
      </trkpt>
      <trkpt lat="47.70062" lon="-3.28185">
        <ele>-64.926581</ele>
        <time>2020-12-29T11:26:29.000Z</time>
      </trkpt>
      <trkpt lat="47.70075" lon="-3.28182">
        <ele>-64.832637</ele>
        <time>2020-12-29T11:26:26.000Z</time>
      </trkpt>
      <trkpt lat="47.70086" lon="-3.28192">
        <ele>-64.732008</ele>
        <time>2020-12-29T11:26:23.000Z</time>
      </trkpt>
      <trkpt lat="47.7009" lon="-3.28203">
        <ele>-64.667627</ele>
        <time>2020-12-29T11:26:21.000Z</time>
      </trkpt>
      <trkpt lat="47.70095" lon="-3.28218">
        <ele>-64.578764</ele>
        <time>2020-12-29T11:26:18.000Z</time>
      </trkpt>
      <trkpt lat="47.70108" lon="-3.28247">
        <ele>-64.400175</ele>
        <time>2020-12-29T11:26:12.000Z</time>
      </trkpt>
      <trkpt lat="47.70115" lon="-3.28265">
        <ele>-64.37956</ele>
        <time>2020-12-29T11:26:08.000Z</time>
      </trkpt>
      <trkpt lat="47.70121" lon="-3.28278">
        <ele>-65.002469</ele>
        <time>2020-12-29T11:26:05.000Z</time>
      </trkpt>
      <trkpt lat="47.70124" lon="-3.28286">
        <ele>-65.359498</ele>
        <time>2020-12-29T11:26:03.000Z</time>
      </trkpt>
      <trkpt lat="47.70131" lon="-3.28299">
        <ele>-66.029004</ele>
        <time>2020-12-29T11:25:59.000Z</time>
      </trkpt>
      <trkpt lat="47.7015" lon="-3.28295">
        <ele>-67.12737</ele>
        <time>2020-12-29T11:25:52.000Z</time>
      </trkpt>
      <trkpt lat="47.70157" lon="-3.2829">
        <ele>-67.610145</ele>
        <time>2020-12-29T11:25:49.000Z</time>
      </trkpt>
      <trkpt lat="47.70169" lon="-3.28284">
        <ele>-68.360054</ele>
        <time>2020-12-29T11:25:44.000Z</time>
      </trkpt>
      <trkpt lat="47.70189" lon="-3.28273">
        <ele>-69.571053</ele>
        <time>2020-12-29T11:25:36.000Z</time>
      </trkpt>
      <trkpt lat="47.70191" lon="-3.28271">
        <ele>-69.725244</ele>
        <time>2020-12-29T11:25:35.000Z</time>
      </trkpt>
      <trkpt lat="47.70202" lon="-3.28266">
        <ele>-70.384744</ele>
        <time>2020-12-29T11:25:30.000Z</time>
      </trkpt>
      <trkpt lat="47.70205" lon="-3.28266">
        <ele>-70.596949</ele>
        <time>2020-12-29T11:25:28.000Z</time>
      </trkpt>
      <trkpt lat="47.7021" lon="-3.28264">
        <ele>-70.900641</ele>
        <time>2020-12-29T11:25:25.000Z</time>
      </trkpt>
      <trkpt lat="47.70212" lon="-3.28264">
        <ele>-71.006557</ele>
        <time>2020-12-29T11:25:24.000Z</time>
      </trkpt>
      <trkpt lat="47.70227" lon="-3.28257">
        <ele>-71.907824</ele>
        <time>2020-12-29T11:25:17.000Z</time>
      </trkpt>
      <trkpt lat="47.70229" lon="-3.28256">
        <ele>-72.026124</ele>
        <time>2020-12-29T11:25:16.000Z</time>
      </trkpt>
      <trkpt lat="47.70232" lon="-3.28253">
        <ele>-72.26805</ele>
        <time>2020-12-29T11:25:14.000Z</time>
      </trkpt>
      <trkpt lat="47.7024" lon="-3.28249">
        <ele>-72.73311</ele>
        <time>2020-12-29T11:25:10.000Z</time>
      </trkpt>
      <trkpt lat="47.70246" lon="-3.28246">
        <ele>-73.108957</ele>
        <time>2020-12-29T11:25:07.000Z</time>
      </trkpt>
      <trkpt lat="47.70254" lon="-3.28241">
        <ele>-73.640037</ele>
        <time>2020-12-29T11:25:03.000Z</time>
      </trkpt>
      <trkpt lat="47.70258" lon="-3.28239">
        <ele>-73.900116</ele>
        <time>2020-12-29T11:25:01.000Z</time>
      </trkpt>
      <trkpt lat="47.7027" lon="-3.28233">
        <ele>-74.583185</ele>
        <time>2020-12-29T11:24:56.000Z</time>
      </trkpt>
      <trkpt lat="47.70276" lon="-3.2823">
        <ele>-74.848891</ele>
        <time>2020-12-29T11:24:53.000Z</time>
      </trkpt>
      <trkpt lat="47.70285" lon="-3.28228">
        <ele>-74.80407</ele>
        <time>2020-12-29T11:24:49.000Z</time>
      </trkpt>
      <trkpt lat="47.70287" lon="-3.28227">
        <ele>-74.791173</ele>
        <time>2020-12-29T11:24:48.000Z</time>
      </trkpt>
      <trkpt lat="47.70299" lon="-3.28221">
        <ele>-74.727941</ele>
        <time>2020-12-29T11:24:43.000Z</time>
      </trkpt>
      <trkpt lat="47.7031" lon="-3.28214">
        <ele>-74.668018</ele>
        <time>2020-12-29T11:24:38.000Z</time>
      </trkpt>
      <trkpt lat="47.70318" lon="-3.2821">
        <ele>-74.627354</ele>
        <time>2020-12-29T11:24:35.000Z</time>
      </trkpt>
      <trkpt lat="47.70322" lon="-3.28209">
        <ele>-74.60336</ele>
        <time>2020-12-29T11:24:33.000Z</time>
      </trkpt>
      <trkpt lat="47.70327" lon="-3.28208">
        <ele>-74.581044</ele>
        <time>2020-12-29T11:24:31.000Z</time>
      </trkpt>
      <trkpt lat="47.70333" lon="-3.28204">
        <ele>-74.548412</ele>
        <time>2020-12-29T11:24:29.000Z</time>
      </trkpt>
      <trkpt lat="47.7035" lon="-3.28192">
        <ele>-74.452905</ele>
        <time>2020-12-29T11:24:24.000Z</time>
      </trkpt>
      <trkpt lat="47.70354" lon="-3.28189">
        <ele>-74.428302</ele>
        <time>2020-12-29T11:24:23.000Z</time>
      </trkpt>
      <trkpt lat="47.70365" lon="-3.28181">
        <ele>-74.367878</ele>
        <time>2020-12-29T11:24:20.000Z</time>
      </trkpt>
      <trkpt lat="47.70368" lon="-3.28176">
        <ele>-74.348166</ele>
        <time>2020-12-29T11:24:19.000Z</time>
      </trkpt>
      <trkpt lat="47.70377" lon="-3.28154">
        <ele>-74.258263</ele>
        <time>2020-12-29T11:24:15.000Z</time>
      </trkpt>
      <trkpt lat="47.7038" lon="-3.28141">
        <ele>-74.211301</ele>
        <time>2020-12-29T11:24:12.000Z</time>
      </trkpt>
      <trkpt lat="47.70381" lon="-3.28135">
        <ele>-74.190323</ele>
        <time>2020-12-29T11:24:10.000Z</time>
      </trkpt>
      <trkpt lat="47.70384" lon="-3.28119">
        <ele>-74.13288</ele>
        <time>2020-12-29T11:24:05.000Z</time>
      </trkpt>
      <trkpt lat="47.70388" lon="-3.28106">
        <ele>-74.084368</ele>
        <time>2020-12-29T11:24:01.000Z</time>
      </trkpt>
      <trkpt lat="47.70389" lon="-3.28102">
        <ele>-74.069814</ele>
        <time>2020-12-29T11:24:00.000Z</time>
      </trkpt>
      <trkpt lat="47.70391" lon="-3.28085">
        <ele>-74.011626</ele>
        <time>2020-12-29T11:23:56.000Z</time>
      </trkpt>
      <trkpt lat="47.70391" lon="-3.28081">
        <ele>-73.999737</ele>
        <time>2020-12-29T11:23:55.000Z</time>
      </trkpt>
      <trkpt lat="47.7039" lon="-3.28068">
        <ele>-73.956448</ele>
        <time>2020-12-29T11:23:51.000Z</time>
      </trkpt>
      <trkpt lat="47.7039" lon="-3.28065">
        <ele>-73.867234</ele>
        <time>2020-12-29T11:23:50.000Z</time>
      </trkpt>
      <trkpt lat="47.70391" lon="-3.28057">
        <ele>-73.625095</ele>
        <time>2020-12-29T11:23:48.000Z</time>
      </trkpt>
      <trkpt lat="47.70392" lon="-3.28049">
        <ele>-73.399666</ele>
        <time>2020-12-29T11:23:46.000Z</time>
      </trkpt>
      <trkpt lat="47.70395" lon="-3.28041">
        <ele>-73.1317</ele>
        <time>2020-12-29T11:23:43.000Z</time>
      </trkpt>
      <trkpt lat="47.70403" lon="-3.28026">
        <ele>-72.554271</ele>
        <time>2020-12-29T11:23:38.000Z</time>
      </trkpt>
      <trkpt lat="47.70405" lon="-3.28018">
        <ele>-72.308107</ele>
        <time>2020-12-29T11:23:36.000Z</time>
      </trkpt>
      <trkpt lat="47.70406" lon="-3.28004">
        <ele>-71.867454</ele>
        <time>2020-12-29T11:23:33.000Z</time>
      </trkpt>
      <trkpt lat="47.70406" lon="-3.27971">
        <ele>-70.89375</ele>
        <time>2020-12-29T11:23:27.000Z</time>
      </trkpt>
      <trkpt lat="47.70406" lon="-3.2796">
        <ele>-70.559278</ele>
        <time>2020-12-29T11:23:25.000Z</time>
      </trkpt>
      <trkpt lat="47.70405" lon="-3.27926">
        <ele>-69.555587</ele>
        <time>2020-12-29T11:23:19.000Z</time>
      </trkpt>
      <trkpt lat="47.70405" lon="-3.27916">
        <ele>-69.242005</ele>
        <time>2020-12-29T11:23:17.000Z</time>
      </trkpt>
      <trkpt lat="47.70404" lon="-3.27879">
        <ele>-68.144378</ele>
        <time>2020-12-29T11:23:10.000Z</time>
      </trkpt>
      <trkpt lat="47.70402" lon="-3.27855">
        <ele>-67.423469</ele>
        <time>2020-12-29T11:23:06.000Z</time>
      </trkpt>
      <trkpt lat="47.70402" lon="-3.27849">
        <ele>-67.247336</ele>
        <time>2020-12-29T11:23:05.000Z</time>
      </trkpt>
      <trkpt lat="47.70398" lon="-3.27815">
        <ele>-66.229376</ele>
        <time>2020-12-29T11:22:58.000Z</time>
      </trkpt>
      <trkpt lat="47.70398" lon="-3.2781">
        <ele>-66.073991</ele>
        <time>2020-12-29T11:22:57.000Z</time>
      </trkpt>
      <trkpt lat="47.70397" lon="-3.27787">
        <ele>-66.409106</ele>
        <time>2020-12-29T11:22:53.000Z</time>
      </trkpt>
      <trkpt lat="47.70398" lon="-3.27781">
        <ele>-66.54446</ele>
        <time>2020-12-29T11:22:52.000Z</time>
      </trkpt>
      <trkpt lat="47.70406" lon="-3.27762">
        <ele>-67.048264</ele>
        <time>2020-12-29T11:22:48.000Z</time>
      </trkpt>
      <trkpt lat="47.70409" lon="-3.27759">
        <ele>-67.145624</ele>
        <time>2020-12-29T11:22:47.000Z</time>
      </trkpt>
      <trkpt lat="47.70422" lon="-3.27759">
        <ele>-67.559622</ele>
        <time>2020-12-29T11:22:43.000Z</time>
      </trkpt>
      <trkpt lat="47.70437" lon="-3.2776">
        <ele>-68.068458</ele>
        <time>2020-12-29T11:22:39.000Z</time>
      </trkpt>
      <trkpt lat="47.70454" lon="-3.27761">
        <ele>-68.599332</ele>
        <time>2020-12-29T11:22:35.000Z</time>
      </trkpt>
      <trkpt lat="47.70486" lon="-3.27766">
        <ele>-69.636803</ele>
        <time>2020-12-29T11:22:27.000Z</time>
      </trkpt>
      <trkpt lat="47.70499" lon="-3.27771">
        <ele>-70.092845</ele>
        <time>2020-12-29T11:22:23.000Z</time>
      </trkpt>
      <trkpt lat="47.70517" lon="-3.27777">
        <ele>-70.680513</ele>
        <time>2020-12-29T11:22:18.000Z</time>
      </trkpt>
      <trkpt lat="47.70521" lon="-3.27778">
        <ele>-70.803482</ele>
        <time>2020-12-29T11:22:17.000Z</time>
      </trkpt>
      <trkpt lat="47.70539" lon="-3.27785">
        <ele>-71.411525</ele>
        <time>2020-12-29T11:22:12.000Z</time>
      </trkpt>
      <trkpt lat="47.70543" lon="-3.27786">
        <ele>-71.533566</ele>
        <time>2020-12-29T11:22:11.000Z</time>
      </trkpt>
      <trkpt lat="47.7055" lon="-3.27787">
        <ele>-71.777318</ele>
        <time>2020-12-29T11:22:09.000Z</time>
      </trkpt>
      <trkpt lat="47.70566" lon="-3.27787">
        <ele>-71.999014</ele>
        <time>2020-12-29T11:22:05.000Z</time>
      </trkpt>
      <trkpt lat="47.70574" lon="-3.27786">
        <ele>-72.112958</ele>
        <time>2020-12-29T11:22:03.000Z</time>
      </trkpt>
      <trkpt lat="47.70584" lon="-3.27785">
        <ele>-72.240442</ele>
        <time>2020-12-29T11:22:01.000Z</time>
      </trkpt>
      <trkpt lat="47.70597" lon="-3.27782">
        <ele>-72.419407</ele>
        <time>2020-12-29T11:21:58.000Z</time>
      </trkpt>
      <trkpt lat="47.70606" lon="-3.27779">
        <ele>-72.545766</ele>
        <time>2020-12-29T11:21:56.000Z</time>
      </trkpt>
      <trkpt lat="47.70611" lon="-3.27777">
        <ele>-72.613757</ele>
        <time>2020-12-29T11:21:55.000Z</time>
      </trkpt>
      <trkpt lat="47.70622" lon="-3.27774">
        <ele>-72.764636</ele>
        <time>2020-12-29T11:21:53.000Z</time>
      </trkpt>
      <trkpt lat="47.70628" lon="-3.27772">
        <ele>-72.851685</ele>
        <time>2020-12-29T11:21:52.000Z</time>
      </trkpt>
      <trkpt lat="47.70651" lon="-3.27769">
        <ele>-73.163235</ele>
        <time>2020-12-29T11:21:49.000Z</time>
      </trkpt>
      <trkpt lat="47.70659" lon="-3.27771">
        <ele>-73.272433</ele>
        <time>2020-12-29T11:21:48.000Z</time>
      </trkpt>
      <trkpt lat="47.70668" lon="-3.27774">
        <ele>-73.390072</ele>
        <time>2020-12-29T11:21:47.000Z</time>
      </trkpt>
      <trkpt lat="47.70676" lon="-3.27779">
        <ele>-73.509839</ele>
        <time>2020-12-29T11:21:46.000Z</time>
      </trkpt>
      <trkpt lat="47.70683" lon="-3.27785">
        <ele>-73.626079</ele>
        <time>2020-12-29T11:21:45.000Z</time>
      </trkpt>
      <trkpt lat="47.70691" lon="-3.27791">
        <ele>-73.743669</ele>
        <time>2020-12-29T11:21:44.000Z</time>
      </trkpt>
      <trkpt lat="47.70705" lon="-3.27804">
        <ele>-73.966737</ele>
        <time>2020-12-29T11:21:42.000Z</time>
      </trkpt>
      <trkpt lat="47.70718" lon="-3.27814">
        <ele>-74.161719</ele>
        <time>2020-12-29T11:21:40.000Z</time>
      </trkpt>
      <trkpt lat="47.7073" lon="-3.27822">
        <ele>-73.874471</ele>
        <time>2020-12-29T11:21:38.000Z</time>
      </trkpt>
      <trkpt lat="47.70748" lon="-3.27829">
        <ele>-73.170573</ele>
        <time>2020-12-29T11:21:35.000Z</time>
      </trkpt>
      <trkpt lat="47.70766" lon="-3.27831">
        <ele>-72.4825</ele>
        <time>2020-12-29T11:21:32.000Z</time>
      </trkpt>
      <trkpt lat="47.70778" lon="-3.2783">
        <ele>-72.020224</ele>
        <time>2020-12-29T11:21:30.000Z</time>
      </trkpt>
      <trkpt lat="47.70784" lon="-3.27829">
        <ele>-71.785664</ele>
        <time>2020-12-29T11:21:29.000Z</time>
      </trkpt>
      <trkpt lat="47.70819" lon="-3.27826">
        <ele>-70.460199</ele>
        <time>2020-12-29T11:21:23.000Z</time>
      </trkpt>
      <trkpt lat="47.70824" lon="-3.27825">
        <ele>-70.253332</ele>
        <time>2020-12-29T11:21:22.000Z</time>
      </trkpt>
      <trkpt lat="47.70845" lon="-3.2782">
        <ele>-69.456815</ele>
        <time>2020-12-29T11:21:18.000Z</time>
      </trkpt>
      <trkpt lat="47.7085" lon="-3.27819">
        <ele>-69.269166</ele>
        <time>2020-12-29T11:21:17.000Z</time>
      </trkpt>
      <trkpt lat="47.7086" lon="-3.27817">
        <ele>-68.889823</ele>
        <time>2020-12-29T11:21:15.000Z</time>
      </trkpt>
      <trkpt lat="47.70875" lon="-3.27814">
        <ele>-68.299324</ele>
        <time>2020-12-29T11:21:12.000Z</time>
      </trkpt>
      <trkpt lat="47.7088" lon="-3.27812">
        <ele>-68.111225</ele>
        <time>2020-12-29T11:21:11.000Z</time>
      </trkpt>
      <trkpt lat="47.70884" lon="-3.2781">
        <ele>-67.93423</ele>
        <time>2020-12-29T11:21:10.000Z</time>
      </trkpt>
      <trkpt lat="47.70896" lon="-3.27811">
        <ele>-67.491296</ele>
        <time>2020-12-29T11:21:07.000Z</time>
      </trkpt>
      <trkpt lat="47.70907" lon="-3.27859">
        <ele>-67.078613</ele>
        <time>2020-12-29T11:21:00.000Z</time>
      </trkpt>
      <trkpt lat="47.70921" lon="-3.27921">
        <ele>-66.658466</ele>
        <time>2020-12-29T11:20:52.000Z</time>
      </trkpt>
      <trkpt lat="47.70934" lon="-3.27987">
        <ele>-66.21796</ele>
        <time>2020-12-29T11:20:44.000Z</time>
      </trkpt>
      <trkpt lat="47.70949" lon="-3.28053">
        <ele>-65.769979</ele>
        <time>2020-12-29T11:20:36.000Z</time>
      </trkpt>
      <trkpt lat="47.70962" lon="-3.28109">
        <ele>-65.922827</ele>
        <time>2020-12-29T11:20:29.000Z</time>
      </trkpt>
      <trkpt lat="47.70974" lon="-3.28179">
        <ele>-66.391042</ele>
        <time>2020-12-29T11:20:20.000Z</time>
      </trkpt>
      <trkpt lat="47.70985" lon="-3.28256">
        <ele>-66.901633</ele>
        <time>2020-12-29T11:20:10.000Z</time>
      </trkpt>
      <trkpt lat="47.70988" lon="-3.28279">
        <ele>-67.05341</ele>
        <time>2020-12-29T11:20:07.000Z</time>
      </trkpt>
      <trkpt lat="47.70995" lon="-3.28333">
        <ele>-67.454444</ele>
        <time>2020-12-29T11:20:00.000Z</time>
      </trkpt>
      <trkpt lat="47.70996" lon="-3.2834">
        <ele>-67.644785</ele>
        <time>2020-12-29T11:19:59.000Z</time>
      </trkpt>
      <trkpt lat="47.71003" lon="-3.28395">
        <ele>-68.96526</ele>
        <time>2020-12-29T11:19:52.000Z</time>
      </trkpt>
      <trkpt lat="47.71004" lon="-3.28402">
        <ele>-69.146625</ele>
        <time>2020-12-29T11:19:51.000Z</time>
      </trkpt>
      <trkpt lat="47.71006" lon="-3.28462">
        <ele>-70.58893</ele>
        <time>2020-12-29T11:19:43.000Z</time>
      </trkpt>
      <trkpt lat="47.71006" lon="-3.28477">
        <ele>-70.935263</ele>
        <time>2020-12-29T11:19:41.000Z</time>
      </trkpt>
      <trkpt lat="47.71006" lon="-3.28513">
        <ele>-71.802308</ele>
        <time>2020-12-29T11:19:36.000Z</time>
      </trkpt>
      <trkpt lat="47.71005" lon="-3.28542">
        <ele>-72.497905</ele>
        <time>2020-12-29T11:19:32.000Z</time>
      </trkpt>
      <trkpt lat="47.71004" lon="-3.28565">
        <ele>-73.038097</ele>
        <time>2020-12-29T11:19:29.000Z</time>
      </trkpt>
      <trkpt lat="47.71004" lon="-3.28586">
        <ele>-73.549259</ele>
        <time>2020-12-29T11:19:26.000Z</time>
      </trkpt>
      <trkpt lat="47.71004" lon="-3.286">
        <ele>-73.829657</ele>
        <time>2020-12-29T11:19:24.000Z</time>
      </trkpt>
      <trkpt lat="47.71004" lon="-3.28623">
        <ele>-74.105904</ele>
        <time>2020-12-29T11:19:21.000Z</time>
      </trkpt>
      <trkpt lat="47.71004" lon="-3.2863">
        <ele>-74.201352</ele>
        <time>2020-12-29T11:19:20.000Z</time>
      </trkpt>
      <trkpt lat="47.71004" lon="-3.28637">
        <ele>-74.289374</ele>
        <time>2020-12-29T11:19:19.000Z</time>
      </trkpt>
      <trkpt lat="47.71005" lon="-3.28659">
        <ele>-74.555915</ele>
        <time>2020-12-29T11:19:16.000Z</time>
      </trkpt>
      <trkpt lat="47.71006" lon="-3.28683">
        <ele>-74.852235</ele>
        <time>2020-12-29T11:19:13.000Z</time>
      </trkpt>
      <trkpt lat="47.71008" lon="-3.28741">
        <ele>-75.570895</ele>
        <time>2020-12-29T11:19:06.000Z</time>
      </trkpt>
      <trkpt lat="47.7101" lon="-3.28801">
        <ele>-76.3249</ele>
        <time>2020-12-29T11:18:59.000Z</time>
      </trkpt>
      <trkpt lat="47.71006" lon="-3.28862">
        <ele>-77.072444</ele>
        <time>2020-12-29T11:18:52.000Z</time>
      </trkpt>
      <trkpt lat="47.70997" lon="-3.28926">
        <ele>-78.009979</ele>
        <time>2020-12-29T11:18:44.000Z</time>
      </trkpt>
      <trkpt lat="47.70994" lon="-3.28949">
        <ele>-78.343109</ele>
        <time>2020-12-29T11:18:41.000Z</time>
      </trkpt>
      <trkpt lat="47.70992" lon="-3.28979">
        <ele>-78.780857</ele>
        <time>2020-12-29T11:18:37.000Z</time>
      </trkpt>
      <trkpt lat="47.70991" lon="-3.28987">
        <ele>-78.892715</ele>
        <time>2020-12-29T11:18:36.000Z</time>
      </trkpt>
      <trkpt lat="47.70988" lon="-3.29027">
        <ele>-79.46735</ele>
        <time>2020-12-29T11:18:31.000Z</time>
      </trkpt>
      <trkpt lat="47.70986" lon="-3.29051">
        <ele>-79.816812</ele>
        <time>2020-12-29T11:18:28.000Z</time>
      </trkpt>
      <trkpt lat="47.70986" lon="-3.29059">
        <ele>-79.934196</ele>
        <time>2020-12-29T11:18:27.000Z</time>
      </trkpt>
      <trkpt lat="47.70985" lon="-3.29119">
        <ele>-80.799066</ele>
        <time>2020-12-29T11:18:20.000Z</time>
      </trkpt>
      <trkpt lat="47.70983" lon="-3.29192">
        <ele>-80.786309</ele>
        <time>2020-12-29T11:18:12.000Z</time>
      </trkpt>
      <trkpt lat="47.70983" lon="-3.2925">
        <ele>-80.673503</ele>
        <time>2020-12-29T11:18:06.000Z</time>
      </trkpt>
      <trkpt lat="47.70984" lon="-3.2928">
        <ele>-80.61493</ele>
        <time>2020-12-29T11:18:03.000Z</time>
      </trkpt>
      <trkpt lat="47.70991" lon="-3.29348">
        <ele>-80.481187</ele>
        <time>2020-12-29T11:17:56.000Z</time>
      </trkpt>
      <trkpt lat="47.71006" lon="-3.29427">
        <ele>-80.454895</ele>
        <time>2020-12-29T11:17:47.000Z</time>
      </trkpt>
      <trkpt lat="47.71024" lon="-3.29504">
        <ele>-80.59029</ele>
        <time>2020-12-29T11:17:38.000Z</time>
      </trkpt>
      <trkpt lat="47.71044" lon="-3.29584">
        <ele>-80.731865</ele>
        <time>2020-12-29T11:17:28.000Z</time>
      </trkpt>
      <trkpt lat="47.7106" lon="-3.29648">
        <ele>-80.870737</ele>
        <time>2020-12-29T11:17:20.000Z</time>
      </trkpt>
      <trkpt lat="47.71062" lon="-3.29655">
        <ele>-80.942079</ele>
        <time>2020-12-29T11:17:19.000Z</time>
      </trkpt>
      <trkpt lat="47.71071" lon="-3.29694">
        <ele>-81.299506</ele>
        <time>2020-12-29T11:17:14.000Z</time>
      </trkpt>
      <trkpt lat="47.71077" lon="-3.29718">
        <ele>-81.521404</ele>
        <time>2020-12-29T11:17:11.000Z</time>
      </trkpt>
      <trkpt lat="47.71082" lon="-3.29742">
        <ele>-81.737837</ele>
        <time>2020-12-29T11:17:08.000Z</time>
      </trkpt>
      <trkpt lat="47.71092" lon="-3.2978">
        <ele>-82.099156</ele>
        <time>2020-12-29T11:17:03.000Z</time>
      </trkpt>
      <trkpt lat="47.71095" lon="-3.29797">
        <ele>-82.248891</ele>
        <time>2020-12-29T11:17:01.000Z</time>
      </trkpt>
      <trkpt lat="47.71099" lon="-3.2984">
        <ele>-82.624594</ele>
        <time>2020-12-29T11:16:56.000Z</time>
      </trkpt>
      <trkpt lat="47.711" lon="-3.29848">
        <ele>-82.700511</ele>
        <time>2020-12-29T11:16:55.000Z</time>
      </trkpt>
      <trkpt lat="47.71113" lon="-3.29906">
        <ele>-83.117703</ele>
        <time>2020-12-29T11:16:48.000Z</time>
      </trkpt>
      <trkpt lat="47.71121" lon="-3.29939">
        <ele>-82.916132</ele>
        <time>2020-12-29T11:16:44.000Z</time>
      </trkpt>
      <trkpt lat="47.71123" lon="-3.29955">
        <ele>-82.820225</ele>
        <time>2020-12-29T11:16:42.000Z</time>
      </trkpt>
      <trkpt lat="47.71136" lon="-3.29977">
        <ele>-82.650886</ele>
        <time>2020-12-29T11:16:38.000Z</time>
      </trkpt>
      <trkpt lat="47.71145" lon="-3.29993">
        <ele>-82.528292</ele>
        <time>2020-12-29T11:16:35.000Z</time>
      </trkpt>
      <trkpt lat="47.71105" lon="-3.30214">
        <ele>3</ele>
        <time>2024-04-29T21:35:04Z</time>
      </trkpt>
      <trkpt lat="47.71093" lon="-3.30547">
        <ele>3</ele>
        <time>2024-04-29T21:34:12Z</time>
      </trkpt>
      <trkpt lat="47.71085" lon="-3.30597">
        <ele>3</ele>
        <time>2024-04-29T21:34:04Z</time>
      </trkpt>
      <trkpt lat="47.71082" lon="-3.30601">
        <ele>3</ele>
        <time>2024-04-29T21:34:03Z</time>
      </trkpt>
      <trkpt lat="47.7108" lon="-3.30611">
        <ele>3</ele>
        <time>2024-04-29T21:34:01Z</time>
      </trkpt>
      <trkpt lat="47.7108" lon="-3.30619">
        <ele>3</ele>
        <time>2024-04-29T21:34:00Z</time>
      </trkpt>
      <trkpt lat="47.71072" lon="-3.3066">
        <ele>4</ele>
        <time>2024-04-29T21:33:53Z</time>
      </trkpt>
      <trkpt lat="47.7103" lon="-3.30828">
        <ele>4</ele>
        <time>2024-04-29T21:33:25Z</time>
      </trkpt>
      <trkpt lat="47.71022" lon="-3.30866">
        <ele>4</ele>
        <time>2024-04-29T21:33:19Z</time>
      </trkpt>
      <trkpt lat="47.70997" lon="-3.3091">
        <ele>3</ele>
        <time>2024-04-29T21:33:10Z</time>
      </trkpt>
      <trkpt lat="47.70971" lon="-3.30969">
        <ele>3</ele>
        <time>2024-04-29T21:32:59Z</time>
      </trkpt>
      <trkpt lat="47.71014" lon="-3.31009">
        <ele>5</ele>
        <time>2024-04-29T21:32:47Z</time>
      </trkpt>
      <trkpt lat="47.7103" lon="-3.3103">
        <ele>5</ele>
        <time>2024-04-29T21:32:42Z</time>
      </trkpt>
      <trkpt lat="47.71032" lon="-3.31041">
        <ele>5</ele>
        <time>2024-04-29T21:32:40Z</time>
      </trkpt>
      <trkpt lat="47.71028" lon="-3.31105">
        <ele>6</ele>
        <time>2024-04-29T21:32:30Z</time>
      </trkpt>
      <trkpt lat="47.71023" lon="-3.31149">
        <ele>6</ele>
        <time>2024-04-29T21:32:23Z</time>
      </trkpt>
      <trkpt lat="47.71017" lon="-3.31261">
        <ele>6</ele>
        <time>2024-04-29T21:32:05Z</time>
      </trkpt>
      <trkpt lat="47.71023" lon="-3.31321">
        <ele>6</ele>
        <time>2024-04-29T21:31:56Z</time>
      </trkpt>
      <trkpt lat="47.71022" lon="-3.31358">
        <ele>6</ele>
        <time>2024-04-29T21:31:50Z</time>
      </trkpt>
      <trkpt lat="47.71018" lon="-3.31396">
        <ele>6</ele>
        <time>2024-04-29T21:31:44Z</time>
      </trkpt>
      <trkpt lat="47.70998" lon="-3.31501">
        <ele>7</ele>
        <time>2024-04-29T21:31:27Z</time>
      </trkpt>
      <trkpt lat="47.70989" lon="-3.31631">
        <ele>8</ele>
        <time>2024-04-29T21:31:06Z</time>
      </trkpt>
      <trkpt lat="47.70982" lon="-3.31661">
        <ele>8</ele>
        <time>2024-04-29T21:31:01Z</time>
      </trkpt>
      <trkpt lat="47.70964" lon="-3.31695">
        <ele>8</ele>
        <time>2024-04-29T21:30:54Z</time>
      </trkpt>
      <trkpt lat="47.70921" lon="-3.31777">
        <ele>10</ele>
        <time>2024-04-29T21:30:38Z</time>
      </trkpt>
      <trkpt lat="47.70892" lon="-3.31852">
        <ele>9</ele>
        <time>2024-04-29T21:30:24Z</time>
      </trkpt>
      <trkpt lat="47.70842" lon="-3.3206">
        <ele>10</ele>
        <time>2024-04-29T21:29:50Z</time>
      </trkpt>
      <trkpt lat="47.70825" lon="-3.32138">
        <ele>10</ele>
        <time>2024-04-29T21:29:37Z</time>
      </trkpt>
      <trkpt lat="47.70822" lon="-3.32162">
        <ele>11</ele>
        <time>2024-04-29T21:29:33Z</time>
      </trkpt>
      <trkpt lat="47.70824" lon="-3.32186">
        <ele>11</ele>
        <time>2024-04-29T21:29:29Z</time>
      </trkpt>
      <trkpt lat="47.70858" lon="-3.32393">
        <ele>9</ele>
        <time>2024-04-29T21:28:56Z</time>
      </trkpt>
      <trkpt lat="47.70863" lon="-3.32442">
        <ele>8</ele>
        <time>2024-04-29T21:28:48Z</time>
      </trkpt>
      <trkpt lat="47.70872" lon="-3.32588">
        <ele>2</ele>
        <time>2024-04-29T21:28:25Z</time>
      </trkpt>
      <trkpt lat="47.70878" lon="-3.32637">
        <ele>2</ele>
        <time>2024-04-29T21:28:17Z</time>
      </trkpt>
      <trkpt lat="47.7089" lon="-3.32697">
        <ele>3</ele>
        <time>2024-04-29T21:28:07Z</time>
      </trkpt>
      <trkpt lat="47.70897" lon="-3.32719">
        <ele>4</ele>
        <time>2024-04-29T21:28:03Z</time>
      </trkpt>
      <trkpt lat="47.70907" lon="-3.32738">
        <ele>5</ele>
        <time>2024-04-29T21:28:00Z</time>
      </trkpt>
      <trkpt lat="47.70926" lon="-3.32782">
        <ele>6</ele>
        <time>2024-04-29T21:27:51Z</time>
      </trkpt>
      <trkpt lat="47.70938" lon="-3.32818">
        <ele>7</ele>
        <time>2024-04-29T21:27:45Z</time>
      </trkpt>
      <trkpt lat="47.7096" lon="-3.32978">
        <ele>8</ele>
        <time>2024-04-29T21:27:19Z</time>
      </trkpt>
      <trkpt lat="47.70976" lon="-3.32993">
        <ele>7</ele>
        <time>2024-04-29T21:27:15Z</time>
      </trkpt>
      <trkpt lat="47.70973" lon="-3.33013">
        <ele>7</ele>
        <time>2024-04-29T21:27:12Z</time>
      </trkpt>
      <trkpt lat="47.7097" lon="-3.33087">
        <ele>6</ele>
        <time>2024-04-29T21:27:00Z</time>
      </trkpt>
      <trkpt lat="47.70971" lon="-3.33156">
        <ele>5</ele>
        <time>2024-04-29T21:26:49Z</time>
      </trkpt>
      <trkpt lat="47.70974" lon="-3.33165">
        <ele>5</ele>
        <time>2024-04-29T21:26:48Z</time>
      </trkpt>
      <trkpt lat="47.70969" lon="-3.3317">
        <ele>5</ele>
        <time>2024-04-29T21:26:46Z</time>
      </trkpt>
      <trkpt lat="47.7097" lon="-3.33177">
        <ele>5</ele>
        <time>2024-04-29T21:26:45Z</time>
      </trkpt>
      <trkpt lat="47.70972" lon="-3.33179">
        <ele>5</ele>
        <time>2024-04-29T21:26:45Z</time>
      </trkpt>
      <trkpt lat="47.70967" lon="-3.33226">
        <ele>6</ele>
        <time>2024-04-29T21:26:37Z</time>
      </trkpt>
      <trkpt lat="47.70963" lon="-3.33321">
        <ele>7</ele>
        <time>2024-04-29T21:26:22Z</time>
      </trkpt>
      <trkpt lat="47.70952" lon="-3.33488">
        <ele>7</ele>
        <time>2024-04-29T21:25:56Z</time>
      </trkpt>
      <trkpt lat="47.70938" lon="-3.33592">
        <ele>10</ele>
        <time>2024-04-29T21:25:39Z</time>
      </trkpt>
      <trkpt lat="47.70925" lon="-3.33662">
        <ele>10</ele>
        <time>2024-04-29T21:25:28Z</time>
      </trkpt>
      <trkpt lat="47.7089" lon="-3.339">
        <ele>6</ele>
        <time>2024-04-29T21:24:49Z</time>
      </trkpt>
      <trkpt lat="47.70889" lon="-3.33915">
        <ele>6</ele>
        <time>2024-04-29T21:24:47Z</time>
      </trkpt>
      <trkpt lat="47.70893" lon="-3.34121">
        <ele>5</ele>
        <time>2024-04-29T21:24:15Z</time>
      </trkpt>
      <trkpt lat="47.70884" lon="-3.34193">
        <ele>4</ele>
        <time>2024-04-29T21:24:03Z</time>
      </trkpt>
      <trkpt lat="47.70883" lon="-3.34221">
        <ele>4</ele>
        <time>2024-04-29T21:23:59Z</time>
      </trkpt>
      <trkpt lat="47.70886" lon="-3.34259">
        <ele>5</ele>
        <time>2024-04-29T21:23:53Z</time>
      </trkpt>
      <trkpt lat="47.7088" lon="-3.34264">
        <ele>5</ele>
        <time>2024-04-29T21:23:51Z</time>
      </trkpt>
      <trkpt lat="47.70879" lon="-3.34268">
        <ele>5</ele>
        <time>2024-04-29T21:23:51Z</time>
      </trkpt>
      <trkpt lat="47.70881" lon="-3.34278">
        <ele>5</ele>
        <time>2024-04-29T21:23:49Z</time>
      </trkpt>
      <trkpt lat="47.70883" lon="-3.3428">
        <ele>5</ele>
        <time>2024-04-29T21:23:48Z</time>
      </trkpt>
      <trkpt lat="47.7087" lon="-3.34309">
        <ele>4</ele>
        <time>2024-04-29T21:23:43Z</time>
      </trkpt>
      <trkpt lat="47.70863" lon="-3.34331">
        <ele>4</ele>
        <time>2024-04-29T21:23:39Z</time>
      </trkpt>
      <trkpt lat="47.70856" lon="-3.34379">
        <ele>4</ele>
        <time>2024-04-29T21:23:31Z</time>
      </trkpt>
      <trkpt lat="47.70851" lon="-3.34449">
        <ele>5</ele>
        <time>2024-04-29T21:23:20Z</time>
      </trkpt>
      <trkpt lat="47.70844" lon="-3.34589">
        <ele>7</ele>
        <time>2024-04-29T21:22:58Z</time>
      </trkpt>
      <trkpt lat="47.70843" lon="-3.346">
        <ele>7</ele>
        <time>2024-04-29T21:22:56Z</time>
      </trkpt>
      <trkpt lat="47.70836" lon="-3.34611">
        <ele>7</ele>
        <time>2024-04-29T21:22:54Z</time>
      </trkpt>
      <trkpt lat="47.70788" lon="-3.34572">
        <ele>6</ele>
        <time>2024-04-29T21:22:41Z</time>
      </trkpt>
      <trkpt lat="47.70778" lon="-3.34568">
        <ele>6</ele>
        <time>2024-04-29T21:22:39Z</time>
      </trkpt>
      <trkpt lat="47.7077" lon="-3.34567">
        <ele>6</ele>
        <time>2024-04-29T21:22:37Z</time>
      </trkpt>
      <trkpt lat="47.70756" lon="-3.34575">
        <ele>6</ele>
        <time>2024-04-29T21:22:33Z</time>
      </trkpt>
      <trkpt lat="47.70737" lon="-3.34592">
        <ele>7</ele>
        <time>2024-04-29T21:22:28Z</time>
      </trkpt>
      <trkpt lat="47.70731" lon="-3.34594">
        <ele>7</ele>
        <time>2024-04-29T21:22:27Z</time>
      </trkpt>
      <trkpt lat="47.70717" lon="-3.34603">
        <ele>7</ele>
        <time>2024-04-29T21:22:23Z</time>
      </trkpt>
      <trkpt lat="47.70704" lon="-3.34614">
        <ele>8</ele>
        <time>2024-04-29T21:22:20Z</time>
      </trkpt>
      <trkpt lat="47.70688" lon="-3.34642">
        <ele>8</ele>
        <time>2024-04-29T21:22:14Z</time>
      </trkpt>
      <trkpt lat="47.70669" lon="-3.3468">
        <ele>8</ele>
        <time>2024-04-29T21:22:07Z</time>
      </trkpt>
      <trkpt lat="47.70612" lon="-3.3474">
        <ele>6</ele>
        <time>2024-04-29T21:21:50Z</time>
      </trkpt>
      <trkpt lat="47.70524" lon="-3.34945">
        <ele>7</ele>
        <time>2024-04-29T21:21:12Z</time>
      </trkpt>
      <trkpt lat="47.70494" lon="-3.3502">
        <ele>9</ele>
        <time>2024-04-29T21:20:58Z</time>
      </trkpt>
      <trkpt lat="47.70489" lon="-3.35039">
        <ele>9</ele>
        <time>2024-04-29T21:20:55Z</time>
      </trkpt>
      <trkpt lat="47.70489" lon="-3.35069">
        <ele>10</ele>
        <time>2024-04-29T21:20:50Z</time>
      </trkpt>
      <trkpt lat="47.70475" lon="-3.35113">
        <ele>11</ele>
        <time>2024-04-29T21:20:43Z</time>
      </trkpt>
      <trkpt lat="47.70467" lon="-3.35118">
        <ele>10</ele>
        <time>2024-04-29T21:20:41Z</time>
      </trkpt>
      <trkpt lat="47.70455" lon="-3.35118">
        <ele>10</ele>
        <time>2024-04-29T21:20:38Z</time>
      </trkpt>
      <trkpt lat="47.70446" lon="-3.35113">
        <ele>10</ele>
        <time>2024-04-29T21:20:36Z</time>
      </trkpt>
      <trkpt lat="47.70434" lon="-3.3511">
        <ele>10</ele>
        <time>2024-04-29T21:20:33Z</time>
      </trkpt>
      <trkpt lat="47.70401" lon="-3.35126">
        <ele>8</ele>
        <time>2024-04-29T21:20:25Z</time>
      </trkpt>
      <trkpt lat="47.70383" lon="-3.35144">
        <ele>7</ele>
        <time>2024-04-29T21:20:20Z</time>
      </trkpt>
      <trkpt lat="47.70371" lon="-3.35211">
        <ele>7</ele>
        <time>2024-04-29T21:20:09Z</time>
      </trkpt>
      <trkpt lat="47.70373" lon="-3.35254">
        <ele>7</ele>
        <time>2024-04-29T21:20:02Z</time>
      </trkpt>
      <trkpt lat="47.7038" lon="-3.35383">
        <ele>6</ele>
        <time>2024-04-29T21:19:42Z</time>
      </trkpt>
      <trkpt lat="47.70383" lon="-3.35398">
        <ele>6</ele>
        <time>2024-04-29T21:19:39Z</time>
      </trkpt>
      <trkpt lat="47.70393" lon="-3.35432">
        <ele>5</ele>
        <time>2024-04-29T21:19:33Z</time>
      </trkpt>
      <trkpt lat="47.7043" lon="-3.3553">
        <ele>2</ele>
        <time>2024-04-29T21:19:16Z</time>
      </trkpt>
      <trkpt lat="47.70446" lon="-3.35555">
        <ele>1</ele>
        <time>2024-04-29T21:19:10Z</time>
      </trkpt>
      <trkpt lat="47.70499" lon="-3.356">
        <ele>2</ele>
        <time>2024-04-29T21:18:56Z</time>
      </trkpt>
      <trkpt lat="47.70503" lon="-3.35605">
        <ele>2</ele>
        <time>2024-04-29T21:18:55Z</time>
      </trkpt>
      <trkpt lat="47.70511" lon="-3.3562">
        <ele>2</ele>
        <time>2024-04-29T21:18:52Z</time>
      </trkpt>
      <trkpt lat="47.70543" lon="-3.35704">
        <ele>2</ele>
        <time>2024-04-29T21:18:37Z</time>
      </trkpt>
      <trkpt lat="47.70562" lon="-3.35742">
        <ele>2</ele>
        <time>2024-04-29T21:18:29Z</time>
      </trkpt>
      <trkpt lat="47.706" lon="-3.35779">
        <ele>3</ele>
        <time>2024-04-29T21:18:19Z</time>
      </trkpt>
      <trkpt lat="47.70634" lon="-3.35799">
        <ele>4</ele>
        <time>2024-04-29T21:18:10Z</time>
      </trkpt>
      <trkpt lat="47.70656" lon="-3.35807">
        <ele>5</ele>
        <time>2024-04-29T21:18:05Z</time>
      </trkpt>
      <trkpt lat="47.70666" lon="-3.35806">
        <ele>5</ele>
        <time>2024-04-29T21:18:02Z</time>
      </trkpt>
      <trkpt lat="47.70738" lon="-3.35766">
        <ele>8</ele>
        <time>2024-04-29T21:17:45Z</time>
      </trkpt>
      <trkpt lat="47.7075" lon="-3.35803">
        <ele>8</ele>
        <time>2024-04-29T21:17:38Z</time>
      </trkpt>
      <trkpt lat="47.70772" lon="-3.35767">
        <ele>9</ele>
        <time>2024-04-29T21:17:30Z</time>
      </trkpt>
      <trkpt lat="47.70782" lon="-3.35768">
        <ele>9</ele>
        <time>2024-04-29T21:17:28Z</time>
      </trkpt>
      <trkpt lat="47.70848" lon="-3.35766">
        <ele>9</ele>
        <time>2024-04-29T21:17:13Z</time>
      </trkpt>
      <trkpt lat="47.70852" lon="-3.35737">
        <ele>10</ele>
        <time>2024-04-29T21:17:08Z</time>
      </trkpt>
      <trkpt lat="47.70855" lon="-3.35715">
        <ele>11</ele>
        <time>2024-04-29T23:03:25Z</time>
      </trkpt>
      <trkpt lat="47.70848" lon="-3.35766">
        <ele>9</ele>
        <time>2024-04-29T23:03:17Z</time>
      </trkpt>
      <trkpt lat="47.70997" lon="-3.35825">
        <ele>5</ele>
        <time>2024-04-29T23:02:41Z</time>
      </trkpt>
      <trkpt lat="47.71004" lon="-3.35822">
        <ele>5</ele>
        <time>2024-04-29T23:02:39Z</time>
      </trkpt>
      <trkpt lat="47.71021" lon="-3.35804">
        <ele>6</ele>
        <time>2024-04-29T23:02:34Z</time>
      </trkpt>
      <trkpt lat="47.71081" lon="-3.35748">
        <ele>7</ele>
        <time>2024-04-29T23:02:18Z</time>
      </trkpt>
      <trkpt lat="47.71085" lon="-3.35729">
        <ele>7</ele>
        <time>2024-04-29T23:02:15Z</time>
      </trkpt>
      <trkpt lat="47.71085" lon="-3.35712">
        <ele>6</ele>
        <time>2024-04-29T23:02:12Z</time>
      </trkpt>
      <trkpt lat="47.71088" lon="-3.357">
        <ele>6</ele>
        <time>2024-04-29T23:02:10Z</time>
      </trkpt>
      <trkpt lat="47.71091" lon="-3.35679">
        <ele>6</ele>
        <time>2024-04-29T23:02:06Z</time>
      </trkpt>
      <trkpt lat="47.71056" lon="-3.35621">
        <ele>5</ele>
        <time>2024-04-29T23:01:54Z</time>
      </trkpt>
      <trkpt lat="47.71019" lon="-3.3557">
        <ele>6</ele>
        <time>2024-04-29T23:01:42Z</time>
      </trkpt>
      <trkpt lat="47.70995" lon="-3.35542">
        <ele>6</ele>
        <time>2024-04-29T23:01:35Z</time>
      </trkpt>
      <trkpt lat="47.70923" lon="-3.35464">
        <ele>8</ele>
        <time>2024-04-29T23:01:15Z</time>
      </trkpt>
      <trkpt lat="47.70825" lon="-3.35352">
        <ele>6</ele>
        <time>2024-04-29T23:00:46Z</time>
      </trkpt>
      <trkpt lat="47.7082" lon="-3.35345">
        <ele>6</ele>
        <time>2024-04-29T23:00:44Z</time>
      </trkpt>
      <trkpt lat="47.70823" lon="-3.35322">
        <ele>5</ele>
        <time>2024-04-29T23:00:40Z</time>
      </trkpt>
      <trkpt lat="47.70848" lon="-3.35268">
        <ele>2</ele>
        <time>2024-04-29T23:00:30Z</time>
      </trkpt>
      <trkpt lat="47.70854" lon="-3.35263">
        <ele>2</ele>
        <time>2024-04-29T23:00:28Z</time>
      </trkpt>
      <trkpt lat="47.70865" lon="-3.3526">
        <ele>2</ele>
        <time>2024-04-29T23:00:26Z</time>
      </trkpt>
      <trkpt lat="47.70884" lon="-3.35215">
        <ele>1</ele>
        <time>2024-04-29T23:00:17Z</time>
      </trkpt>
      <trkpt lat="47.70927" lon="-3.35125">
        <ele>1</ele>
        <time>2024-04-29T23:00:00Z</time>
      </trkpt>
      <trkpt lat="47.7099" lon="-3.35004">
        <ele>4</ele>
        <time>2024-04-29T22:59:36Z</time>
      </trkpt>
      <trkpt lat="47.71004" lon="-3.35022">
        <ele>3</ele>
        <time>2024-04-29T22:59:32Z</time>
      </trkpt>
      <trkpt lat="47.7103" lon="-3.3504">
        <ele>3</ele>
        <time>2024-04-29T22:59:25Z</time>
      </trkpt>
      <trkpt lat="47.71041" lon="-3.35042">
        <ele>3</ele>
        <time>2024-04-29T22:59:22Z</time>
      </trkpt>
      <trkpt lat="47.71094" lon="-3.35035">
        <ele>5</ele>
        <time>2024-04-29T22:59:10Z</time>
      </trkpt>
      <trkpt lat="47.7111" lon="-3.35035">
        <ele>6</ele>
        <time>2024-04-29T22:59:06Z</time>
      </trkpt>
      <trkpt lat="47.71142" lon="-3.3504">
        <ele>7</ele>
        <time>2024-04-29T22:58:59Z</time>
      </trkpt>
      <trkpt lat="47.7116" lon="-3.35051">
        <ele>7</ele>
        <time>2024-04-29T22:58:54Z</time>
      </trkpt>
      <trkpt lat="47.71176" lon="-3.35037">
        <ele>8</ele>
        <time>2024-04-29T22:58:50Z</time>
      </trkpt>
      <trkpt lat="47.71222" lon="-3.35028">
        <ele>10</ele>
        <time>2024-04-29T22:58:39Z</time>
      </trkpt>
      <trkpt lat="47.71323" lon="-3.3502">
        <ele>12</ele>
        <time>2024-04-29T22:58:15Z</time>
      </trkpt>
      <trkpt lat="47.71361" lon="-3.3502">
        <ele>11</ele>
        <time>2024-04-29T22:58:07Z</time>
      </trkpt>
      <trkpt lat="47.71366" lon="-3.35004">
        <ele>11</ele>
        <time>2024-04-29T22:58:04Z</time>
      </trkpt>
      <trkpt lat="47.71392" lon="-3.34964">
        <ele>8</ele>
        <time>2024-04-29T22:57:55Z</time>
      </trkpt>
      <trkpt lat="47.71376" lon="-3.34944">
        <ele>8</ele>
        <time>2024-04-29T22:57:50Z</time>
      </trkpt>
      <trkpt lat="47.71385" lon="-3.34929">
        <ele>7</ele>
        <time>2024-04-29T22:57:47Z</time>
      </trkpt>
      <trkpt lat="47.71402" lon="-3.34871">
        <ele>6</ele>
        <time>2024-04-29T22:57:37Z</time>
      </trkpt>
      <trkpt lat="47.71404" lon="-3.34854">
        <ele>6</ele>
        <time>2024-04-29T22:57:34Z</time>
      </trkpt>
      <trkpt lat="47.71396" lon="-3.34779">
        <ele>6</ele>
        <time>2024-04-29T22:57:22Z</time>
      </trkpt>
      <trkpt lat="47.71392" lon="-3.34766">
        <ele>6</ele>
        <time>2024-04-29T22:57:20Z</time>
      </trkpt>
      <trkpt lat="47.71351" lon="-3.34711">
        <ele>6</ele>
        <time>2024-04-29T22:57:07Z</time>
      </trkpt>
      <trkpt lat="47.71347" lon="-3.34702">
        <ele>6</ele>
        <time>2024-04-29T22:57:06Z</time>
      </trkpt>
      <trkpt lat="47.71346" lon="-3.34685">
        <ele>6</ele>
        <time>2024-04-29T22:57:03Z</time>
      </trkpt>
      <trkpt lat="47.71379" lon="-3.34553">
        <ele>4</ele>
        <time>2024-04-29T22:56:41Z</time>
      </trkpt>
      <trkpt lat="47.71403" lon="-3.34481">
        <ele>2</ele>
        <time>2024-04-29T22:56:28Z</time>
      </trkpt>
      <trkpt lat="47.71439" lon="-3.34399">
        <ele>3</ele>
        <time>2024-04-29T22:56:13Z</time>
      </trkpt>
      <trkpt lat="47.71442" lon="-3.34367">
        <ele>5</ele>
        <time>2024-04-29T22:56:08Z</time>
      </trkpt>
      <trkpt lat="47.71437" lon="-3.3433">
        <ele>7</ele>
        <time>2024-04-29T22:56:02Z</time>
      </trkpt>
      <trkpt lat="47.71436" lon="-3.34294">
        <ele>7</ele>
        <time>2024-04-29T22:55:56Z</time>
      </trkpt>
      <trkpt lat="47.7143" lon="-3.3424">
        <ele>8</ele>
        <time>2024-04-29T22:55:48Z</time>
      </trkpt>
      <trkpt lat="47.71429" lon="-3.34201">
        <ele>7</ele>
        <time>2024-04-29T22:55:41Z</time>
      </trkpt>
      <trkpt lat="47.71442" lon="-3.34186">
        <ele>7</ele>
        <time>2024-04-29T22:55:38Z</time>
      </trkpt>
      <trkpt lat="47.71447" lon="-3.34184">
        <ele>7</ele>
        <time>2024-04-29T22:55:36Z</time>
      </trkpt>
      <trkpt lat="47.7146" lon="-3.34167">
        <ele>6</ele>
        <time>2024-04-29T22:55:32Z</time>
      </trkpt>
      <trkpt lat="47.71569" lon="-3.34019">
        <ele>6</ele>
        <time>2024-04-29T22:54:58Z</time>
      </trkpt>
      <trkpt lat="47.7157" lon="-3.34007">
        <ele>6</ele>
        <time>2024-04-29T22:54:56Z</time>
      </trkpt>
      <trkpt lat="47.71572" lon="-3.34004">
        <ele>6</ele>
        <time>2024-04-29T22:54:55Z</time>
      </trkpt>
      <trkpt lat="47.71571" lon="-3.33995">
        <ele>6</ele>
        <time>2024-04-29T22:54:54Z</time>
      </trkpt>
      <trkpt lat="47.7157" lon="-3.33992">
        <ele>6</ele>
        <time>2024-04-29T22:54:53Z</time>
      </trkpt>
      <trkpt lat="47.71581" lon="-3.33983">
        <ele>5</ele>
        <time>2024-04-29T22:54:50Z</time>
      </trkpt>
      <trkpt lat="47.71624" lon="-3.3393">
        <ele>6</ele>
        <time>2024-04-29T22:54:37Z</time>
      </trkpt>
      <trkpt lat="47.71639" lon="-3.3395">
        <ele>5</ele>
        <time>2024-04-29T22:54:33Z</time>
      </trkpt>
      <trkpt lat="47.71651" lon="-3.33954">
        <ele>5</ele>
        <time>2024-04-29T22:54:30Z</time>
      </trkpt>
      <trkpt lat="47.71684" lon="-3.33947">
        <ele>6</ele>
        <time>2024-04-29T22:54:22Z</time>
      </trkpt>
      <trkpt lat="47.71697" lon="-3.33942">
        <ele>6</ele>
        <time>2024-04-29T22:54:19Z</time>
      </trkpt>
      <trkpt lat="47.71726" lon="-3.33926">
        <ele>7</ele>
        <time>2024-04-29T22:54:12Z</time>
      </trkpt>
      <trkpt lat="47.71753" lon="-3.33916">
        <ele>8</ele>
        <time>2024-04-29T22:54:05Z</time>
      </trkpt>
      <trkpt lat="47.71761" lon="-3.33906">
        <ele>8</ele>
        <time>2024-04-29T22:54:03Z</time>
      </trkpt>
      <trkpt lat="47.71774" lon="-3.33902">
        <ele>8</ele>
        <time>2024-04-29T22:54:00Z</time>
      </trkpt>
      <trkpt lat="47.7178" lon="-3.33906">
        <ele>8</ele>
        <time>2024-04-29T22:53:58Z</time>
      </trkpt>
      <trkpt lat="47.71834" lon="-3.34041">
        <ele>4</ele>
        <time>2024-04-29T22:53:33Z</time>
      </trkpt>
      <trkpt lat="47.71834" lon="-3.34046">
        <ele>4</ele>
        <time>2024-04-29T22:53:33Z</time>
      </trkpt>
      <trkpt lat="47.71852" lon="-3.34088">
        <ele>5</ele>
        <time>2024-04-29T22:53:25Z</time>
      </trkpt>
      <trkpt lat="47.71855" lon="-3.34093">
        <ele>5</ele>
        <time>2024-04-29T22:53:24Z</time>
      </trkpt>
      <trkpt lat="47.7189" lon="-3.34104">
        <ele>7</ele>
        <time>2024-04-29T22:53:15Z</time>
      </trkpt>
      <trkpt lat="47.7191" lon="-3.34128">
        <ele>8</ele>
        <time>2024-04-29T22:53:09Z</time>
      </trkpt>
      <trkpt lat="47.71974" lon="-3.3408">
        <ele>11</ele>
        <time>2024-04-29T22:52:53Z</time>
      </trkpt>
      <trkpt lat="47.71985" lon="-3.34111">
        <ele>11</ele>
        <time>2024-04-29T22:52:47Z</time>
      </trkpt>
      <trkpt lat="47.72015" lon="-3.34219">
        <ele>10</ele>
        <time>2024-04-29T22:52:29Z</time>
      </trkpt>
      <trkpt lat="47.72029" lon="-3.34212">
        <ele>11</ele>
        <time>2024-04-29T22:52:25Z</time>
      </trkpt>
      <trkpt lat="47.72071" lon="-3.34198">
        <ele>12</ele>
        <time>2024-04-29T22:52:15Z</time>
      </trkpt>
      <trkpt lat="47.72089" lon="-3.34194">
        <ele>13</ele>
        <time>2024-04-29T22:52:11Z</time>
      </trkpt>
      <trkpt lat="47.72105" lon="-3.3418">
        <ele>13</ele>
        <time>2024-04-29T22:52:07Z</time>
      </trkpt>
      <trkpt lat="47.72127" lon="-3.3415">
        <ele>14</ele>
        <time>2024-04-29T22:52:00Z</time>
      </trkpt>
      <trkpt lat="47.72162" lon="-3.34194">
        <ele>12</ele>
        <time>2024-04-29T22:51:49Z</time>
      </trkpt>
      <trkpt lat="47.72167" lon="-3.34202">
        <ele>12</ele>
        <time>2024-04-29T22:51:47Z</time>
      </trkpt>
      <trkpt lat="47.72187" lon="-3.34245">
        <ele>12</ele>
        <time>2024-04-29T22:51:39Z</time>
      </trkpt>
      <trkpt lat="47.72249" lon="-3.34397">
        <ele>12</ele>
        <time>2024-04-29T22:51:11Z</time>
      </trkpt>
      <trkpt lat="47.72273" lon="-3.3464">
        <ele>8</ele>
        <time>2024-04-29T22:50:33Z</time>
      </trkpt>
      <trkpt lat="47.72283" lon="-3.34756">
        <ele>8</ele>
        <time>2024-04-29T22:50:14Z</time>
      </trkpt>
      <trkpt lat="47.72338" lon="-3.34778">
        <ele>9</ele>
        <time>2024-04-29T22:50:01Z</time>
      </trkpt>
      <trkpt lat="47.72323" lon="-3.34879">
        <ele>5</ele>
        <time>2024-04-29T22:49:45Z</time>
      </trkpt>
      <trkpt lat="47.72323" lon="-3.34915">
        <ele>4</ele>
        <time>2024-04-29T22:49:39Z</time>
      </trkpt>
      <trkpt lat="47.72325" lon="-3.34925">
        <ele>4</ele>
        <time>2024-04-29T22:49:37Z</time>
      </trkpt>
      <trkpt lat="47.72336" lon="-3.34926">
        <ele>5</ele>
        <time>2024-04-29T22:49:35Z</time>
      </trkpt>
      <trkpt lat="47.7235" lon="-3.34927">
        <ele>4</ele>
        <time>2024-04-29T22:49:31Z</time>
      </trkpt>
      <trkpt lat="47.72357" lon="-3.34927">
        <ele>4</ele>
        <time>2024-04-29T22:49:30Z</time>
      </trkpt>
      <trkpt lat="47.72365" lon="-3.34928">
        <ele>4</ele>
        <time>2024-04-29T22:49:28Z</time>
      </trkpt>
      <trkpt lat="47.72373" lon="-3.34929">
        <ele>3</ele>
        <time>2024-04-29T22:49:26Z</time>
      </trkpt>
      <trkpt lat="47.72395" lon="-3.34929">
        <ele>2</ele>
        <time>2024-04-29T22:49:21Z</time>
      </trkpt>
      <trkpt lat="47.72415" lon="-3.3493">
        <ele>2</ele>
        <time>2024-04-29T22:49:16Z</time>
      </trkpt>
      <trkpt lat="47.72428" lon="-3.34924">
        <ele>1</ele>
        <time>2024-04-29T22:49:13Z</time>
      </trkpt>
      <trkpt lat="47.7244" lon="-3.34912">
        <ele>1</ele>
        <time>2024-04-29T22:49:10Z</time>
      </trkpt>
      <trkpt lat="47.72453" lon="-3.34893">
        <ele>1</ele>
        <time>2024-04-29T22:49:05Z</time>
      </trkpt>
      <trkpt lat="47.72465" lon="-3.34872">
        <ele>2</ele>
        <time>2024-04-29T22:49:01Z</time>
      </trkpt>
      <trkpt lat="47.72475" lon="-3.34854">
        <ele>2</ele>
        <time>2024-04-29T22:48:57Z</time>
      </trkpt>
      <trkpt lat="47.72483" lon="-3.34826">
        <ele>2</ele>
        <time>2024-04-29T22:48:53Z</time>
      </trkpt>
      <trkpt lat="47.72483" lon="-3.34813">
        <ele>2</ele>
        <time>2024-04-29T22:48:51Z</time>
      </trkpt>
      <trkpt lat="47.7247" lon="-3.34797">
        <ele>3</ele>
        <time>2024-04-29T22:48:47Z</time>
      </trkpt>
      <trkpt lat="47.7245" lon="-3.34769">
        <ele>3</ele>
        <time>2024-04-29T22:48:40Z</time>
      </trkpt>
      <trkpt lat="47.72447" lon="-3.34746">
        <ele>3</ele>
        <time>2024-04-29T22:48:37Z</time>
      </trkpt>
      <trkpt lat="47.72445" lon="-3.34717">
        <ele>4</ele>
        <time>2024-04-29T22:48:32Z</time>
      </trkpt>
      <trkpt lat="47.72447" lon="-3.34697">
        <ele>4</ele>
        <time>2024-04-29T22:48:29Z</time>
      </trkpt>
      <trkpt lat="47.72454" lon="-3.3468">
        <ele>4</ele>
        <time>2024-04-29T22:48:26Z</time>
      </trkpt>
      <trkpt lat="47.72472" lon="-3.3466">
        <ele>4</ele>
        <time>2024-04-29T22:48:20Z</time>
      </trkpt>
      <trkpt lat="47.72508" lon="-3.34639">
        <ele>4</ele>
        <time>2024-04-29T22:48:11Z</time>
      </trkpt>
      <trkpt lat="47.72523" lon="-3.34637">
        <ele>3</ele>
        <time>2024-04-29T22:48:08Z</time>
      </trkpt>
      <trkpt lat="47.72547" lon="-3.34641">
        <ele>2</ele>
        <time>2024-04-29T22:48:02Z</time>
      </trkpt>
      <trkpt lat="47.72561" lon="-3.34641">
        <ele>2</ele>
        <time>2024-04-29T22:47:59Z</time>
      </trkpt>
      <trkpt lat="47.72572" lon="-3.34638">
        <ele>1</ele>
        <time>2024-04-29T22:47:56Z</time>
      </trkpt>
      <trkpt lat="47.72581" lon="-3.34632">
        <ele>1</ele>
        <time>2024-04-29T22:47:54Z</time>
      </trkpt>
      <trkpt lat="47.72591" lon="-3.34621">
        <ele>1</ele>
        <time>2024-04-29T22:47:51Z</time>
      </trkpt>
      <trkpt lat="47.72598" lon="-3.34608">
        <ele>1</ele>
        <time>2024-04-29T22:47:49Z</time>
      </trkpt>
      <trkpt lat="47.72607" lon="-3.3458">
        <ele>2</ele>
        <time>2024-04-29T22:47:44Z</time>
      </trkpt>
      <trkpt lat="47.72608" lon="-3.34565">
        <ele>2</ele>
        <time>2024-04-29T22:47:41Z</time>
      </trkpt>
      <trkpt lat="47.72605" lon="-3.34527">
        <ele>3</ele>
        <time>2024-04-29T22:47:35Z</time>
      </trkpt>
      <trkpt lat="47.72605" lon="-3.34513">
        <ele>3</ele>
        <time>2024-04-29T22:47:33Z</time>
      </trkpt>
      <trkpt lat="47.72609" lon="-3.34498">
        <ele>3</ele>
        <time>2024-04-29T22:47:31Z</time>
      </trkpt>
      <trkpt lat="47.72627" lon="-3.34467">
        <ele>3</ele>
        <time>2024-04-29T22:47:24Z</time>
      </trkpt>
      <trkpt lat="47.72633" lon="-3.34451">
        <ele>3</ele>
        <time>2024-04-29T22:47:21Z</time>
      </trkpt>
      <trkpt lat="47.72634" lon="-3.34434">
        <ele>3</ele>
        <time>2024-04-29T22:47:19Z</time>
      </trkpt>
      <trkpt lat="47.72633" lon="-3.34427">
        <ele>3</ele>
        <time>2024-04-29T22:47:17Z</time>
      </trkpt>
      <trkpt lat="47.72613" lon="-3.34413">
        <ele>5</ele>
        <time>2024-04-29T22:47:12Z</time>
      </trkpt>
      <trkpt lat="47.72606" lon="-3.34402">
        <ele>5</ele>
        <time>2024-04-29T22:47:10Z</time>
      </trkpt>
      <trkpt lat="47.72623" lon="-3.34398">
        <ele>5</ele>
        <time>2024-04-29T22:47:06Z</time>
      </trkpt>
      <trkpt lat="47.72634" lon="-3.34408">
        <ele>4</ele>
        <time>2024-04-29T22:47:03Z</time>
      </trkpt>
      <trkpt lat="47.72642" lon="-3.3441">
        <ele>4</ele>
        <time>2024-04-29T22:47:01Z</time>
      </trkpt>
      <trkpt lat="47.72652" lon="-3.34407">
        <ele>3</ele>
        <time>2024-04-29T22:46:59Z</time>
      </trkpt>
      <trkpt lat="47.72655" lon="-3.34417">
        <ele>3</ele>
        <time>2024-04-29T22:46:57Z</time>
      </trkpt>
      <trkpt lat="47.72648" lon="-3.34421">
        <ele>3</ele>
        <time>2024-04-29T22:46:55Z</time>
      </trkpt>
      <trkpt lat="47.72651" lon="-3.34424">
        <ele>3</ele>
        <time>2024-04-29T22:46:54Z</time>
      </trkpt>
      <trkpt lat="47.7267" lon="-3.34412">
        <ele>2</ele>
        <time>2024-04-29T22:46:49Z</time>
      </trkpt>
      <trkpt lat="47.72679" lon="-3.34406">
        <ele>3</ele>
        <time>2024-04-29T22:46:47Z</time>
      </trkpt>
      <trkpt lat="47.72688" lon="-3.34395">
        <ele>3</ele>
        <time>2024-04-29T22:46:44Z</time>
      </trkpt>
      <trkpt lat="47.7271" lon="-3.34378">
        <ele>4</ele>
        <time>2024-04-29T22:46:39Z</time>
      </trkpt>
      <trkpt lat="47.72723" lon="-3.34373">
        <ele>4</ele>
        <time>2024-04-29T22:46:36Z</time>
      </trkpt>
      <trkpt lat="47.72746" lon="-3.34372">
        <ele>4</ele>
        <time>2024-04-29T22:46:30Z</time>
      </trkpt>
      <trkpt lat="47.72774" lon="-3.3438">
        <ele>3</ele>
        <time>2024-04-29T22:46:24Z</time>
      </trkpt>
      <trkpt lat="47.72832" lon="-3.34404">
        <ele>2</ele>
        <time>2024-04-29T22:46:09Z</time>
      </trkpt>
      <trkpt lat="47.72836" lon="-3.34408">
        <ele>2</ele>
        <time>2024-04-29T22:46:08Z</time>
      </trkpt>
      <trkpt lat="47.72854" lon="-3.34412">
        <ele>3</ele>
        <time>2024-04-29T22:46:04Z</time>
      </trkpt>
      <trkpt lat="47.72854" lon="-3.34407">
        <ele>3</ele>
        <time>2024-04-29T22:46:03Z</time>
      </trkpt>
      <trkpt lat="47.72871" lon="-3.34406">
        <ele>3</ele>
        <time>2024-04-29T22:45:59Z</time>
      </trkpt>
      <trkpt lat="47.72887" lon="-3.3441">
        <ele>3</ele>
        <time>2024-04-29T22:45:56Z</time>
      </trkpt>
      <trkpt lat="47.72897" lon="-3.34416">
        <ele>4</ele>
        <time>2024-04-29T22:45:53Z</time>
      </trkpt>
      <trkpt lat="47.72933" lon="-3.34474">
        <ele>3</ele>
        <time>2024-04-29T22:45:41Z</time>
      </trkpt>
      <trkpt lat="47.72986" lon="-3.34565">
        <ele>3</ele>
        <time>2024-04-29T22:45:22Z</time>
      </trkpt>
      <trkpt lat="47.72998" lon="-3.34605">
        <ele>3</ele>
        <time>2024-04-29T22:45:15Z</time>
      </trkpt>
      <trkpt lat="47.73002" lon="-3.34648">
        <ele>4</ele>
        <time>2024-04-29T22:45:08Z</time>
      </trkpt>
      <trkpt lat="47.72988" lon="-3.34772">
        <ele>3</ele>
        <time>2024-04-29T22:44:48Z</time>
      </trkpt>
      <trkpt lat="47.7299" lon="-3.34788">
        <ele>3</ele>
        <time>2024-04-29T22:44:46Z</time>
      </trkpt>
      <trkpt lat="47.72995" lon="-3.34799">
        <ele>3</ele>
        <time>2024-04-29T22:44:44Z</time>
      </trkpt>
      <trkpt lat="47.73006" lon="-3.34805">
        <ele>4</ele>
        <time>2024-04-29T22:44:41Z</time>
      </trkpt>
      <trkpt lat="47.73086" lon="-3.34773">
        <ele>6</ele>
        <time>2024-04-29T22:44:22Z</time>
      </trkpt>
      <trkpt lat="47.73115" lon="-3.3476">
        <ele>7</ele>
        <time>2024-04-29T22:44:14Z</time>
      </trkpt>
      <trkpt lat="47.73139" lon="-3.34747">
        <ele>8</ele>
        <time>2024-04-29T22:44:08Z</time>
      </trkpt>
      <trkpt lat="47.73158" lon="-3.34743">
        <ele>8</ele>
        <time>2024-04-29T22:44:04Z</time>
      </trkpt>
      <trkpt lat="47.73156" lon="-3.34718">
        <ele>8</ele>
        <time>2024-04-29T22:44:00Z</time>
      </trkpt>
      <trkpt lat="47.73157" lon="-3.34701">
        <ele>9</ele>
        <time>2024-04-29T22:43:57Z</time>
      </trkpt>
      <trkpt lat="47.73165" lon="-3.34668">
        <ele>10</ele>
        <time>2024-04-29T22:43:52Z</time>
      </trkpt>
      <trkpt lat="47.73172" lon="-3.346">
        <ele>7</ele>
        <time>2024-04-29T22:43:41Z</time>
      </trkpt>
      <trkpt lat="47.73208" lon="-3.34634">
        <ele>9</ele>
        <time>2024-04-29T22:43:31Z</time>
      </trkpt>
      <trkpt lat="47.73227" lon="-3.34647">
        <ele>9</ele>
        <time>2024-04-29T22:43:26Z</time>
      </trkpt>
      <trkpt lat="47.73248" lon="-3.34655">
        <ele>9</ele>
        <time>2024-04-29T22:43:21Z</time>
      </trkpt>
      <trkpt lat="47.73261" lon="-3.34557">
        <ele>8</ele>
        <time>2024-04-29T22:43:05Z</time>
      </trkpt>
      <trkpt lat="47.73225" lon="-3.34494">
        <ele>5</ele>
        <time>2024-04-29T22:42:52Z</time>
      </trkpt>
      <trkpt lat="47.73199" lon="-3.34454">
        <ele>5</ele>
        <time>2024-04-29T22:42:44Z</time>
      </trkpt>
      <trkpt lat="47.73174" lon="-3.34406">
        <ele>5</ele>
        <time>2024-04-29T22:42:34Z</time>
      </trkpt>
      <trkpt lat="47.73159" lon="-3.3434">
        <ele>4</ele>
        <time>2024-04-29T22:42:23Z</time>
      </trkpt>
      <trkpt lat="47.7315" lon="-3.34316">
        <ele>4</ele>
        <time>2024-04-29T22:42:19Z</time>
      </trkpt>
      <trkpt lat="47.7307" lon="-3.34173">
        <ele>5</ele>
        <time>2024-04-29T22:41:50Z</time>
      </trkpt>
      <trkpt lat="47.73018" lon="-3.34074">
        <ele>4</ele>
        <time>2024-04-29T22:41:30Z</time>
      </trkpt>
      <trkpt lat="47.73001" lon="-3.34038">
        <ele>3</ele>
        <time>2024-04-29T22:41:23Z</time>
      </trkpt>
      <trkpt lat="47.72981" lon="-3.33987">
        <ele>3</ele>
        <time>2024-04-29T22:41:14Z</time>
      </trkpt>
      <trkpt lat="47.72909" lon="-3.33753">
        <ele>4</ele>
        <time>2024-04-29T22:40:33Z</time>
      </trkpt>
      <trkpt lat="47.72882" lon="-3.33681">
        <ele>4</ele>
        <time>2024-04-29T22:40:20Z</time>
      </trkpt>
      <trkpt lat="47.7287" lon="-3.33631">
        <ele>4</ele>
        <time>2024-04-29T22:40:12Z</time>
      </trkpt>
      <trkpt lat="47.72868" lon="-3.33607">
        <ele>4</ele>
        <time>2024-04-29T22:40:08Z</time>
      </trkpt>
      <trkpt lat="47.72859" lon="-3.33543">
        <ele>4</ele>
        <time>2024-04-29T22:39:58Z</time>
      </trkpt>
      <trkpt lat="47.72859" lon="-3.33534">
        <ele>4</ele>
        <time>2024-04-29T22:39:57Z</time>
      </trkpt>
      <trkpt lat="47.72857" lon="-3.33527">
        <ele>4</ele>
        <time>2024-04-29T22:39:55Z</time>
      </trkpt>
      <trkpt lat="47.72858" lon="-3.33521">
        <ele>3</ele>
        <time>2024-04-29T22:39:54Z</time>
      </trkpt>
      <trkpt lat="47.7286" lon="-3.33511">
        <ele>3</ele>
        <time>2024-04-29T22:39:53Z</time>
      </trkpt>
      <trkpt lat="47.72862" lon="-3.33501">
        <ele>3</ele>
        <time>2024-04-29T22:39:51Z</time>
      </trkpt>
      <trkpt lat="47.72872" lon="-3.33478">
        <ele>2</ele>
        <time>2024-04-29T22:39:47Z</time>
      </trkpt>
      <trkpt lat="47.72894" lon="-3.3343">
        <ele>2</ele>
        <time>2024-04-29T22:39:38Z</time>
      </trkpt>
      <trkpt lat="47.72907" lon="-3.33401">
        <ele>2</ele>
        <time>2024-04-29T22:39:32Z</time>
      </trkpt>
      <trkpt lat="47.72932" lon="-3.33332">
        <ele>3</ele>
        <time>2024-04-29T22:39:20Z</time>
      </trkpt>
      <trkpt lat="47.72938" lon="-3.33283">
        <ele>3</ele>
        <time>2024-04-29T22:39:12Z</time>
      </trkpt>
      <trkpt lat="47.7294" lon="-3.33259">
        <ele>4</ele>
        <time>2024-04-29T22:39:08Z</time>
      </trkpt>
      <trkpt lat="47.7295" lon="-3.33258">
        <ele>3</ele>
        <time>2024-04-29T22:39:06Z</time>
      </trkpt>
      <trkpt lat="47.72964" lon="-3.33247">
        <ele>3</ele>
        <time>2024-04-29T22:39:02Z</time>
      </trkpt>
      <trkpt lat="47.72985" lon="-3.33187">
        <ele>3</ele>
        <time>2024-04-29T22:38:52Z</time>
      </trkpt>
      <trkpt lat="47.72997" lon="-3.33076">
        <ele>2</ele>
        <time>2024-04-29T22:38:34Z</time>
      </trkpt>
      <trkpt lat="47.73008" lon="-3.33011">
        <ele>4</ele>
        <time>2024-04-29T22:38:23Z</time>
      </trkpt>
      <trkpt lat="47.73059" lon="-3.32809">
        <ele>9</ele>
        <time>2024-04-29T22:37:50Z</time>
      </trkpt>
      <trkpt lat="47.7307" lon="-3.32479">
        <ele>13</ele>
        <time>2024-04-29T22:36:58Z</time>
      </trkpt>
      <trkpt lat="47.73079" lon="-3.3246">
        <ele>14</ele>
        <time>2024-04-29T22:36:54Z</time>
      </trkpt>
      <trkpt lat="47.73213" lon="-3.32344">
        <ele>11</ele>
        <time>2024-04-29T22:36:18Z</time>
      </trkpt>
      <trkpt lat="47.73217" lon="-3.32335">
        <ele>11</ele>
        <time>2024-04-29T22:36:16Z</time>
      </trkpt>
      <trkpt lat="47.73222" lon="-3.32338">
        <ele>11</ele>
        <time>2024-04-29T22:36:15Z</time>
      </trkpt>
      <trkpt lat="47.73291" lon="-3.32338">
        <ele>11</ele>
        <time>2024-04-29T22:35:59Z</time>
      </trkpt>
      <trkpt lat="47.73293" lon="-3.32336">
        <ele>11</ele>
        <time>2024-04-29T22:35:58Z</time>
      </trkpt>
      <trkpt lat="47.73294" lon="-3.32331">
        <ele>12</ele>
        <time>2024-04-29T22:35:57Z</time>
      </trkpt>
      <trkpt lat="47.73295" lon="-3.32318">
        <ele>12</ele>
        <time>2024-04-29T22:35:55Z</time>
      </trkpt>
      <trkpt lat="47.73291" lon="-3.32229">
        <ele>14</ele>
        <time>2024-04-29T22:35:41Z</time>
      </trkpt>
      <trkpt lat="47.73264" lon="-3.32035">
        <ele>15</ele>
        <time>2024-04-29T22:35:10Z</time>
      </trkpt>
      <trkpt lat="47.73231" lon="-3.31788">
        <ele>15</ele>
        <time>2024-04-29T22:34:31Z</time>
      </trkpt>
      <trkpt lat="47.73227" lon="-3.31772">
        <ele>15</ele>
        <time>2024-04-29T22:34:28Z</time>
      </trkpt>
      <trkpt lat="47.73223" lon="-3.31767">
        <ele>16</ele>
        <time>2024-04-29T22:34:27Z</time>
      </trkpt>
      <trkpt lat="47.73273" lon="-3.31691">
        <ele>16</ele>
        <time>2024-04-29T22:34:10Z</time>
      </trkpt>
      <trkpt lat="47.73298" lon="-3.31645">
        <ele>16</ele>
        <time>2024-04-29T22:34:01Z</time>
      </trkpt>
      <trkpt lat="47.73313" lon="-3.31612">
        <ele>16</ele>
        <time>2024-04-29T22:33:55Z</time>
      </trkpt>
      <trkpt lat="47.73341" lon="-3.31534">
        <ele>15</ele>
        <time>2024-04-29T22:33:41Z</time>
      </trkpt>
      <trkpt lat="47.73408" lon="-3.3132">
        <ele>14</ele>
        <time>2024-04-29T22:33:04Z</time>
      </trkpt>
      <trkpt lat="47.73491" lon="-3.31159">
        <ele>14</ele>
        <time>2024-04-29T22:32:32Z</time>
      </trkpt>
      <trkpt lat="47.7351" lon="-3.31128">
        <ele>13</ele>
        <time>2024-04-29T22:32:25Z</time>
      </trkpt>
      <trkpt lat="47.7354" lon="-3.31093">
        <ele>13</ele>
        <time>2024-04-29T22:32:16Z</time>
      </trkpt>
      <trkpt lat="47.73605" lon="-3.31034">
        <ele>10</ele>
        <time>2024-04-29T22:31:58Z</time>
      </trkpt>
      <trkpt lat="47.73704" lon="-3.3087">
        <ele>6</ele>
        <time>2024-04-29T22:31:24Z</time>
      </trkpt>
      <trkpt lat="47.73755" lon="-3.30779">
        <ele>7</ele>
        <time>2024-04-29T22:31:05Z</time>
      </trkpt>
      <trkpt lat="47.73823" lon="-3.30671">
        <ele>10</ele>
        <time>2024-04-29T22:30:42Z</time>
      </trkpt>
      <trkpt lat="47.73991" lon="-3.30394">
        <ele>17</ele>
        <time>2024-04-29T22:29:43Z</time>
      </trkpt>
      <trkpt lat="47.73997" lon="-3.3038">
        <ele>18</ele>
        <time>2024-04-29T22:29:41Z</time>
      </trkpt>
      <trkpt lat="47.74012" lon="-3.30355">
        <ele>18</ele>
        <time>2024-04-29T22:29:36Z</time>
      </trkpt>
      <trkpt lat="47.74018" lon="-3.30346">
        <ele>18</ele>
        <time>2024-04-29T22:29:34Z</time>
      </trkpt>
      <trkpt lat="47.74022" lon="-3.30334">
        <ele>18</ele>
        <time>2024-04-29T22:29:31Z</time>
      </trkpt>
      <trkpt lat="47.74021" lon="-3.30324">
        <ele>18</ele>
        <time>2024-04-29T22:29:30Z</time>
      </trkpt>
      <trkpt lat="47.74019" lon="-3.30323">
        <ele>19</ele>
        <time>2024-04-29T22:29:29Z</time>
      </trkpt>
      <trkpt lat="47.74011" lon="-3.30303">
        <ele>19</ele>
        <time>2024-04-29T22:29:26Z</time>
      </trkpt>
      <trkpt lat="47.74004" lon="-3.3028">
        <ele>18</ele>
        <time>2024-04-29T22:29:22Z</time>
      </trkpt>
      <trkpt lat="47.74007" lon="-3.30277">
        <ele>18</ele>
        <time>2024-04-29T22:29:21Z</time>
      </trkpt>
      <trkpt lat="47.74009" lon="-3.30269">
        <ele>18</ele>
        <time>2024-04-29T22:29:20Z</time>
      </trkpt>
      <trkpt lat="47.74008" lon="-3.30261">
        <ele>18</ele>
        <time>2024-04-29T22:29:18Z</time>
      </trkpt>
      <trkpt lat="47.74003" lon="-3.30255">
        <ele>18</ele>
        <time>2024-04-29T22:29:17Z</time>
      </trkpt>
      <trkpt lat="47.73997" lon="-3.30255">
        <ele>18</ele>
        <time>2024-04-29T22:29:15Z</time>
      </trkpt>
      <trkpt lat="47.73994" lon="-3.30257">
        <ele>18</ele>
        <time>2024-04-29T22:29:15Z</time>
      </trkpt>
      <trkpt lat="47.73987" lon="-3.30237">
        <ele>18</ele>
        <time>2024-04-29T22:29:11Z</time>
      </trkpt>
      <trkpt lat="47.73982" lon="-3.30217">
        <ele>17</ele>
        <time>2024-04-29T22:29:08Z</time>
      </trkpt>
      <trkpt lat="47.73957" lon="-3.29888">
        <ele>25</ele>
        <time>2024-04-29T22:28:16Z</time>
      </trkpt>
      <trkpt lat="47.73956" lon="-3.29828">
        <ele>27</ele>
        <time>2024-04-29T22:28:06Z</time>
      </trkpt>
      <trkpt lat="47.73961" lon="-3.29785">
        <ele>29</ele>
        <time>2024-04-29T22:27:59Z</time>
      </trkpt>
      <trkpt lat="47.73975" lon="-3.29709">
        <ele>32</ele>
        <time>2024-04-29T22:27:47Z</time>
      </trkpt>
      <trkpt lat="47.73978" lon="-3.29676">
        <ele>34</ele>
        <time>2024-04-29T22:27:42Z</time>
      </trkpt>
      <trkpt lat="47.73982" lon="-3.29624">
        <ele>34</ele>
        <time>2024-04-29T22:27:34Z</time>
      </trkpt>
      <trkpt lat="47.73979" lon="-3.29545">
        <ele>34</ele>
        <time>2024-04-29T22:27:21Z</time>
      </trkpt>
      <trkpt lat="47.7399" lon="-3.29551">
        <ele>35</ele>
        <time>2024-04-29T22:27:18Z</time>
      </trkpt>
      <trkpt lat="47.74024" lon="-3.29547">
        <ele>35</ele>
        <time>2024-04-29T22:27:10Z</time>
      </trkpt>
      <trkpt lat="47.74094" lon="-3.29533">
        <ele>37</ele>
        <time>2024-04-29T22:26:54Z</time>
      </trkpt>
      <trkpt lat="47.74145" lon="-3.29525">
        <ele>38</ele>
        <time>2024-04-29T22:26:42Z</time>
      </trkpt>
      <trkpt lat="47.7419" lon="-3.29514">
        <ele>38</ele>
        <time>2024-04-29T22:26:31Z</time>
      </trkpt>
      <trkpt lat="47.74214" lon="-3.29519">
        <ele>38</ele>
        <time>2024-04-29T22:26:26Z</time>
      </trkpt>
      <trkpt lat="47.74329" lon="-3.29567">
        <ele>38</ele>
        <time>2024-04-29T22:25:58Z</time>
      </trkpt>
      <trkpt lat="47.74387" lon="-3.29579">
        <ele>38</ele>
        <time>2024-04-29T22:25:44Z</time>
      </trkpt>
      <trkpt lat="47.74415" lon="-3.29579">
        <ele>38</ele>
        <time>2024-04-29T22:25:38Z</time>
      </trkpt>
      <trkpt lat="47.7444" lon="-3.29578">
        <ele>37</ele>
        <time>2024-04-29T22:25:32Z</time>
      </trkpt>
      <trkpt lat="47.74459" lon="-3.29574">
        <ele>36</ele>
        <time>2024-04-29T22:25:27Z</time>
      </trkpt>
      <trkpt lat="47.745" lon="-3.29558">
        <ele>35</ele>
        <time>2024-04-29T22:25:17Z</time>
      </trkpt>
      <trkpt lat="47.74513" lon="-3.29562">
        <ele>34</ele>
        <time>2024-04-29T22:25:14Z</time>
      </trkpt>
      <trkpt lat="47.74547" lon="-3.29588">
        <ele>33</ele>
        <time>2024-04-29T22:25:05Z</time>
      </trkpt>
      <trkpt lat="47.74621" lon="-3.29633">
        <ele>29</ele>
        <time>2024-04-29T22:24:47Z</time>
      </trkpt>
      <trkpt lat="47.74677" lon="-3.29669">
        <ele>26</ele>
        <time>2024-04-29T22:24:32Z</time>
      </trkpt>
      <trkpt lat="47.74688" lon="-3.29669">
        <ele>26</ele>
        <time>2024-04-29T22:24:30Z</time>
      </trkpt>
      <trkpt lat="47.747" lon="-3.29654">
        <ele>27</ele>
        <time>2024-04-29T22:24:26Z</time>
      </trkpt>
      <trkpt lat="47.74711" lon="-3.29634">
        <ele>28</ele>
        <time>2024-04-29T22:24:22Z</time>
      </trkpt>
      <trkpt lat="47.74729" lon="-3.29589">
        <ele>29</ele>
        <time>2024-04-29T22:24:14Z</time>
      </trkpt>
      <trkpt lat="47.74771" lon="-3.29496">
        <ele>33</ele>
        <time>2024-04-29T22:23:56Z</time>
      </trkpt>
      <trkpt lat="47.74821" lon="-3.29379">
        <ele>32</ele>
        <time>2024-04-29T22:23:35Z</time>
      </trkpt>
      <trkpt lat="47.74848" lon="-3.29323">
        <ele>32</ele>
        <time>2024-04-29T22:23:24Z</time>
      </trkpt>
      <trkpt lat="47.74879" lon="-3.29284">
        <ele>34</ele>
        <time>2024-04-29T22:23:14Z</time>
      </trkpt>
      <trkpt lat="47.74905" lon="-3.29266">
        <ele>35</ele>
        <time>2024-04-29T22:23:08Z</time>
      </trkpt>
      <trkpt lat="47.74955" lon="-3.29253">
        <ele>36</ele>
        <time>2024-04-29T22:22:56Z</time>
      </trkpt>
      <trkpt lat="47.74995" lon="-3.2921">
        <ele>39</ele>
        <time>2024-04-29T22:22:44Z</time>
      </trkpt>
      <trkpt lat="47.75009" lon="-3.29193">
        <ele>40</ele>
        <time>2024-04-29T22:22:40Z</time>
      </trkpt>
      <trkpt lat="47.75021" lon="-3.29173">
        <ele>40</ele>
        <time>2024-04-29T22:22:36Z</time>
      </trkpt>
      <trkpt lat="47.75047" lon="-3.29112">
        <ele>40</ele>
        <time>2024-04-29T22:22:24Z</time>
      </trkpt>
      <trkpt lat="47.75066" lon="-3.29057">
        <ele>38</ele>
        <time>2024-04-29T22:22:15Z</time>
      </trkpt>
      <trkpt lat="47.75074" lon="-3.29048">
        <ele>37</ele>
        <time>2024-04-29T22:22:12Z</time>
      </trkpt>
      <trkpt lat="47.75085" lon="-3.29047">
        <ele>37</ele>
        <time>2024-04-29T22:22:10Z</time>
      </trkpt>
      <trkpt lat="47.75093" lon="-3.29057">
        <ele>36</ele>
        <time>2024-04-29T22:22:07Z</time>
      </trkpt>
      <trkpt lat="47.75107" lon="-3.29081">
        <ele>36</ele>
        <time>2024-04-29T22:22:02Z</time>
      </trkpt>
      <trkpt lat="47.75115" lon="-3.29119">
        <ele>36</ele>
        <time>2024-04-29T22:21:56Z</time>
      </trkpt>
      <trkpt lat="47.7514" lon="-3.29154">
        <ele>34</ele>
        <time>2024-04-29T22:21:48Z</time>
      </trkpt>
      <trkpt lat="47.75162" lon="-3.29188">
        <ele>33</ele>
        <time>2024-04-29T22:21:41Z</time>
      </trkpt>
      <trkpt lat="47.75184" lon="-3.29201">
        <ele>33</ele>
        <time>2024-04-29T22:21:35Z</time>
      </trkpt>
      <trkpt lat="47.75198" lon="-3.29204">
        <ele>33</ele>
        <time>2024-04-29T22:21:32Z</time>
      </trkpt>
      <trkpt lat="47.75211" lon="-3.29204">
        <ele>34</ele>
        <time>2024-04-29T22:21:29Z</time>
      </trkpt>
      <trkpt lat="47.75217" lon="-3.29367">
        <ele>33</ele>
        <time>2024-04-29T22:21:03Z</time>
      </trkpt>
      <trkpt lat="47.75222" lon="-3.29391">
        <ele>32</ele>
        <time>2024-04-29T22:20:59Z</time>
      </trkpt>
      <trkpt lat="47.75258" lon="-3.29433">
        <ele>31</ele>
        <time>2024-04-29T22:20:49Z</time>
      </trkpt>
      <trkpt lat="47.75489" lon="-3.29275">
        <ele>34</ele>
        <time>2024-04-29T22:19:49Z</time>
      </trkpt>
      <trkpt lat="47.7568" lon="-3.29166">
        <ele>33</ele>
        <time>2024-04-29T22:19:01Z</time>
      </trkpt>
      <trkpt lat="47.75834" lon="-3.29112">
        <ele>34</ele>
        <time>2024-04-29T22:18:24Z</time>
      </trkpt>
      <trkpt lat="47.76032" lon="-3.28974">
        <ele>41</ele>
        <time>2024-04-29T22:17:33Z</time>
      </trkpt>
      <trkpt lat="47.7604" lon="-3.29017">
        <ele>40</ele>
        <time>2024-04-29T22:17:26Z</time>
      </trkpt>
      <trkpt lat="47.7602" lon="-3.29458">
        <ele>28</ele>
        <time>2024-04-29T22:16:17Z</time>
      </trkpt>
      <trkpt lat="47.76012" lon="-3.29505">
        <ele>28</ele>
        <time>2024-04-29T22:16:09Z</time>
      </trkpt>
      <trkpt lat="47.76038" lon="-3.29498">
        <ele>28</ele>
        <time>2024-04-29T22:16:03Z</time>
      </trkpt>
      <trkpt lat="47.76041" lon="-3.29505">
        <ele>28</ele>
        <time>2024-04-29T22:16:02Z</time>
      </trkpt>
      <trkpt lat="47.7607" lon="-3.29522">
        <ele>29</ele>
        <time>2024-04-29T22:15:55Z</time>
      </trkpt>
      <trkpt lat="47.7617" lon="-3.29589">
        <ele>24</ele>
        <time>2024-04-29T22:15:29Z</time>
      </trkpt>
      <trkpt lat="47.7623" lon="-3.29658">
        <ele>19</ele>
        <time>2024-04-29T22:15:11Z</time>
      </trkpt>
      <trkpt lat="47.76244" lon="-3.29754">
        <ele>16</ele>
        <time>2024-04-29T22:14:56Z</time>
      </trkpt>
      <trkpt lat="47.76152" lon="-3.29928">
        <ele>12</ele>
        <time>2024-04-29T22:14:21Z</time>
      </trkpt>
      <trkpt lat="47.76134" lon="-3.29975">
        <ele>13</ele>
        <time>2024-04-29T22:14:13Z</time>
      </trkpt>
      <trkpt lat="47.76122" lon="-3.3002">
        <ele>13</ele>
        <time>2024-04-29T22:14:05Z</time>
      </trkpt>
      <trkpt lat="47.76129" lon="-3.30075">
        <ele>15</ele>
        <time>2024-04-29T22:13:56Z</time>
      </trkpt>
      <trkpt lat="47.76158" lon="-3.30097">
        <ele>18</ele>
        <time>2024-04-29T22:13:49Z</time>
      </trkpt>
      <trkpt lat="47.76213" lon="-3.30132">
        <ele>20</ele>
        <time>2024-04-29T22:13:35Z</time>
      </trkpt>
      <trkpt lat="47.76223" lon="-3.3013">
        <ele>20</ele>
        <time>2024-04-29T22:13:32Z</time>
      </trkpt>
      <trkpt lat="47.76244" lon="-3.30104">
        <ele>22</ele>
        <time>2024-04-29T22:13:26Z</time>
      </trkpt>
      <trkpt lat="47.76328" lon="-3.29992">
        <ele>22</ele>
        <time>2024-04-29T22:13:00Z</time>
      </trkpt>
      <trkpt lat="47.76339" lon="-3.29983">
        <ele>22</ele>
        <time>2024-04-29T22:12:57Z</time>
      </trkpt>
      <trkpt lat="47.76356" lon="-3.29974">
        <ele>23</ele>
        <time>2024-04-29T22:12:52Z</time>
      </trkpt>
      <trkpt lat="47.76372" lon="-3.2997">
        <ele>23</ele>
        <time>2024-04-29T22:12:49Z</time>
      </trkpt>
      <trkpt lat="47.76372" lon="-3.29958">
        <ele>24</ele>
        <time>2024-04-29T22:12:47Z</time>
      </trkpt>
      <trkpt lat="47.76369" lon="-3.29937">
        <ele>26</ele>
        <time>2024-04-29T22:12:43Z</time>
      </trkpt>
      <trkpt lat="47.76363" lon="-3.29916">
        <ele>27</ele>
        <time>2024-04-29T22:12:40Z</time>
      </trkpt>
      <trkpt lat="47.76351" lon="-3.29891">
        <ele>27</ele>
        <time>2024-04-29T22:12:35Z</time>
      </trkpt>
      <trkpt lat="47.76337" lon="-3.29851">
        <ele>26</ele>
        <time>2024-04-29T22:12:28Z</time>
      </trkpt>
      <trkpt lat="47.76336" lon="-3.29824">
        <ele>26</ele>
        <time>2024-04-29T22:12:24Z</time>
      </trkpt>
      <trkpt lat="47.76344" lon="-3.29808">
        <ele>27</ele>
        <time>2024-04-29T22:12:21Z</time>
      </trkpt>
      <trkpt lat="47.7635" lon="-3.29801">
        <ele>27</ele>
        <time>2024-04-29T22:12:19Z</time>
      </trkpt>
      <trkpt lat="47.76368" lon="-3.29789">
        <ele>28</ele>
        <time>2024-04-29T22:12:14Z</time>
      </trkpt>
      <trkpt lat="47.76352" lon="-3.29827">
        <ele>-60.284053</ele>
        <time>2020-12-29T10:39:31.000Z</time>
      </trkpt>
      <trkpt lat="47.76356" lon="-3.29831">
        <ele>-60.251106</ele>
        <time>2020-12-29T10:39:30.000Z</time>
      </trkpt>
      <trkpt lat="47.76365" lon="-3.29858">
        <ele>-60.013416</ele>
        <time>2020-12-29T10:39:26.000Z</time>
      </trkpt>
      <trkpt lat="47.76368" lon="-3.29865">
        <ele>-59.935459</ele>
        <time>2020-12-29T10:39:25.000Z</time>
      </trkpt>
      <trkpt lat="47.76382" lon="-3.29901">
        <ele>-59.539412</ele>
        <time>2020-12-29T10:39:20.000Z</time>
      </trkpt>
      <trkpt lat="47.76387" lon="-3.29915">
        <ele>-59.382693</ele>
        <time>2020-12-29T10:39:18.000Z</time>
      </trkpt>
      <trkpt lat="47.76404" lon="-3.29962">
        <ele>-58.863672</ele>
        <time>2020-12-29T10:39:11.000Z</time>
      </trkpt>
      <trkpt lat="47.76412" lon="-3.29982">
        <ele>-58.645041</ele>
        <time>2020-12-29T10:39:08.000Z</time>
      </trkpt>
      <trkpt lat="47.76425" lon="-3.30013">
        <ele>-58.294903</ele>
        <time>2020-12-29T10:39:03.000Z</time>
      </trkpt>
      <trkpt lat="47.7643" lon="-3.30025">
        <ele>-58.156678</ele>
        <time>2020-12-29T10:39:01.000Z</time>
      </trkpt>
      <trkpt lat="47.76438" lon="-3.30043">
        <ele>-57.951318</ele>
        <time>2020-12-29T10:38:58.000Z</time>
      </trkpt>
      <trkpt lat="47.76461" lon="-3.30106">
        <ele>-57.486976</ele>
        <time>2020-12-29T10:38:49.000Z</time>
      </trkpt>
      <trkpt lat="47.76478" lon="-3.30151">
        <ele>-57.308833</ele>
        <time>2020-12-29T10:38:42.000Z</time>
      </trkpt>
      <trkpt lat="47.765" lon="-3.30212">
        <ele>-57.070596</ele>
        <time>2020-12-29T10:38:33.000Z</time>
      </trkpt>
      <trkpt lat="47.76503" lon="-3.30219">
        <ele>-57.042376</ele>
        <time>2020-12-29T10:38:32.000Z</time>
      </trkpt>
      <trkpt lat="47.76527" lon="-3.30281">
        <ele>-56.794357</ele>
        <time>2020-12-29T10:38:23.000Z</time>
      </trkpt>
      <trkpt lat="47.76534" lon="-3.30301">
        <ele>-56.716934</ele>
        <time>2020-12-29T10:38:20.000Z</time>
      </trkpt>
      <trkpt lat="47.76548" lon="-3.3034">
        <ele>-56.79021</ele>
        <time>2020-12-29T10:38:14.000Z</time>
      </trkpt>
      <trkpt lat="47.76573" lon="-3.30409">
        <ele>-56.995664</ele>
        <time>2020-12-29T10:38:04.000Z</time>
      </trkpt>
      <trkpt lat="47.76591" lon="-3.30466">
        <ele>-57.161642</ele>
        <time>2020-12-29T10:37:56.000Z</time>
      </trkpt>
      <trkpt lat="47.76602" lon="-3.30509">
        <ele>-57.281515</ele>
        <time>2020-12-29T10:37:50.000Z</time>
      </trkpt>
      <trkpt lat="47.76611" lon="-3.30556">
        <ele>-57.502461</ele>
        <time>2020-12-29T10:37:43.000Z</time>
      </trkpt>
      <trkpt lat="47.76612" lon="-3.30576">
        <ele>-57.903593</ele>
        <time>2020-12-29T10:37:40.000Z</time>
      </trkpt>
      <trkpt lat="47.76613" lon="-3.30582">
        <ele>-58.033837</ele>
        <time>2020-12-29T10:37:39.000Z</time>
      </trkpt>
      <trkpt lat="47.76614" lon="-3.30588">
        <ele>-58.165665</ele>
        <time>2020-12-29T10:37:38.000Z</time>
      </trkpt>
      <trkpt lat="47.76625" lon="-3.30626">
        <ele>-58.987769</ele>
        <time>2020-12-29T10:37:32.000Z</time>
      </trkpt>
      <trkpt lat="47.76627" lon="-3.30644">
        <ele>-59.353504</ele>
        <time>2020-12-29T10:37:29.000Z</time>
      </trkpt>
      <trkpt lat="47.76627" lon="-3.3065">
        <ele>-59.468547</ele>
        <time>2020-12-29T10:37:28.000Z</time>
      </trkpt>
      <trkpt lat="47.76622" lon="-3.30665">
        <ele>-59.809534</ele>
        <time>2020-12-29T10:37:25.000Z</time>
      </trkpt>
      <trkpt lat="47.76621" lon="-3.30677">
        <ele>-60.043111</ele>
        <time>2020-12-29T10:37:23.000Z</time>
      </trkpt>
      <trkpt lat="47.7662" lon="-3.30682">
        <ele>-60.15835</ele>
        <time>2020-12-29T10:37:22.000Z</time>
      </trkpt>
      <trkpt lat="47.76621" lon="-3.30704">
        <ele>-60.604282</ele>
        <time>2020-12-29T10:37:18.000Z</time>
      </trkpt>
      <trkpt lat="47.76621" lon="-3.3071">
        <ele>-60.709091</ele>
        <time>2020-12-29T10:37:17.000Z</time>
      </trkpt>
      <trkpt lat="47.76623" lon="-3.30751">
        <ele>-61.548385</ele>
        <time>2020-12-29T10:37:10.000Z</time>
      </trkpt>
      <trkpt lat="47.76624" lon="-3.30763">
        <ele>-61.784681</ele>
        <time>2020-12-29T10:37:08.000Z</time>
      </trkpt>
      <trkpt lat="47.76624" lon="-3.30769">
        <ele>-61.903938</ele>
        <time>2020-12-29T10:37:07.000Z</time>
      </trkpt>
      <trkpt lat="47.76626" lon="-3.30781">
        <ele>-62.149952</ele>
        <time>2020-12-29T10:37:05.000Z</time>
      </trkpt>
      <trkpt lat="47.76628" lon="-3.30801">
        <ele>-62.564881</ele>
        <time>2020-12-29T10:37:02.000Z</time>
      </trkpt>
      <trkpt lat="47.7663" lon="-3.30822">
        <ele>-62.776734</ele>
        <time>2020-12-29T10:36:59.000Z</time>
      </trkpt>
      <trkpt lat="47.76633" lon="-3.30844">
        <ele>-62.749811</ele>
        <time>2020-12-29T10:36:56.000Z</time>
      </trkpt>
      <trkpt lat="47.76635" lon="-3.3086">
        <ele>-62.7302</ele>
        <time>2020-12-29T10:36:54.000Z</time>
      </trkpt>
      <trkpt lat="47.76636" lon="-3.30868">
        <ele>-62.719579</ele>
        <time>2020-12-29T10:36:53.000Z</time>
      </trkpt>
      <trkpt lat="47.7664" lon="-3.30896">
        <ele>-62.685291</ele>
        <time>2020-12-29T10:36:50.000Z</time>
      </trkpt>
      <trkpt lat="47.76642" lon="-3.30914">
        <ele>-62.662015</ele>
        <time>2020-12-29T10:36:48.000Z</time>
      </trkpt>
      <trkpt lat="47.7664" lon="-3.30949">
        <ele>-62.619654</ele>
        <time>2020-12-29T10:36:44.000Z</time>
      </trkpt>
      <trkpt lat="47.76632" lon="-3.3097">
        <ele>-62.590243</ele>
        <time>2020-12-29T10:36:41.000Z</time>
      </trkpt>
      <trkpt lat="47.76621" lon="-3.30987">
        <ele>-62.561424</ele>
        <time>2020-12-29T10:36:38.000Z</time>
      </trkpt>
      <trkpt lat="47.7659" lon="-3.31029">
        <ele>-62.484762</ele>
        <time>2020-12-29T10:36:30.000Z</time>
      </trkpt>
      <trkpt lat="47.76582" lon="-3.3104">
        <ele>-62.464993</ele>
        <time>2020-12-29T10:36:28.000Z</time>
      </trkpt>
      <trkpt lat="47.76557" lon="-3.31074">
        <ele>-62.244824</ele>
        <time>2020-12-29T10:36:22.000Z</time>
      </trkpt>
      <trkpt lat="47.76523" lon="-3.3112">
        <ele>-61.931766</ele>
        <time>2020-12-29T10:36:15.000Z</time>
      </trkpt>
      <trkpt lat="47.76498" lon="-3.31155">
        <ele>-61.699925</ele>
        <time>2020-12-29T10:36:10.000Z</time>
      </trkpt>
      <trkpt lat="47.76494" lon="-3.31164">
        <ele>-61.652231</ele>
        <time>2020-12-29T10:36:09.000Z</time>
      </trkpt>
      <trkpt lat="47.7647" lon="-3.31219">
        <ele>-61.351909</ele>
        <time>2020-12-29T10:36:03.000Z</time>
      </trkpt>
      <trkpt lat="47.76458" lon="-3.31249">
        <ele>-60.90213</ele>
        <time>2020-12-29T10:36:00.000Z</time>
      </trkpt>
      <trkpt lat="47.76445" lon="-3.31279">
        <ele>-59.815235</ele>
        <time>2020-12-29T10:35:57.000Z</time>
      </trkpt>
      <trkpt lat="47.76437" lon="-3.31299">
        <ele>-59.114781</ele>
        <time>2020-12-29T10:35:55.000Z</time>
      </trkpt>
      <trkpt lat="47.76434" lon="-3.31309">
        <ele>-58.76873</ele>
        <time>2020-12-29T10:35:54.000Z</time>
      </trkpt>
      <trkpt lat="47.76428" lon="-3.31329">
        <ele>-58.08388</ele>
        <time>2020-12-29T10:35:52.000Z</time>
      </trkpt>
      <trkpt lat="47.76423" lon="-3.3135">
        <ele>-57.402894</ele>
        <time>2020-12-29T10:35:50.000Z</time>
      </trkpt>
      <trkpt lat="47.76415" lon="-3.31392">
        <ele>-56.081251</ele>
        <time>2020-12-29T10:35:46.000Z</time>
      </trkpt>
      <trkpt lat="47.76412" lon="-3.31411">
        <ele>-55.473742</ele>
        <time>2020-12-29T10:35:44.000Z</time>
      </trkpt>
      <trkpt lat="47.7641" lon="-3.31421">
        <ele>-55.185988</ele>
        <time>2020-12-29T10:35:43.000Z</time>
      </trkpt>
      <trkpt lat="47.76404" lon="-3.31455">
        <ele>-54.113646</ele>
        <time>2020-12-29T10:35:39.000Z</time>
      </trkpt>
      <trkpt lat="47.76401" lon="-3.3147">
        <ele>-53.618135</ele>
        <time>2020-12-29T10:35:37.000Z</time>
      </trkpt>
      <trkpt lat="47.76381" lon="-3.31527">
        <ele>-53.063716</ele>
        <time>2020-12-29T10:35:28.000Z</time>
      </trkpt>
      <trkpt lat="47.76364" lon="-3.31581">
        <ele>-53.03882</ele>
        <time>2020-12-29T10:35:19.000Z</time>
      </trkpt>
      <trkpt lat="47.76351" lon="-3.31635">
        <ele>-53.015406</ele>
        <time>2020-12-29T10:35:11.000Z</time>
      </trkpt>
      <trkpt lat="47.76344" lon="-3.31697">
        <ele>-52.988958</ele>
        <time>2020-12-29T10:35:02.000Z</time>
      </trkpt>
      <trkpt lat="47.76341" lon="-3.31724">
        <ele>-52.977771</ele>
        <time>2020-12-29T10:34:58.000Z</time>
      </trkpt>
      <trkpt lat="47.76339" lon="-3.31754">
        <ele>-53.484974</ele>
        <time>2020-12-29T10:34:53.000Z</time>
      </trkpt>
      <trkpt lat="47.76334" lon="-3.31789">
        <ele>-54.56119</ele>
        <time>2020-12-29T10:34:47.000Z</time>
      </trkpt>
      <trkpt lat="47.76334" lon="-3.31795">
        <ele>-54.740997</ele>
        <time>2020-12-29T10:34:46.000Z</time>
      </trkpt>
      <trkpt lat="47.76328" lon="-3.31828">
        <ele>-55.775238</ele>
        <time>2020-12-29T10:34:40.000Z</time>
      </trkpt>
      <trkpt lat="47.76325" lon="-3.31855">
        <ele>-56.630629</ele>
        <time>2020-12-29T10:34:35.000Z</time>
      </trkpt>
      <trkpt lat="47.76324" lon="-3.31867">
        <ele>-56.979707</ele>
        <time>2020-12-29T10:34:33.000Z</time>
      </trkpt>
      <trkpt lat="47.76318" lon="-3.319">
        <ele>-58.026975</ele>
        <time>2020-12-29T10:34:27.000Z</time>
      </trkpt>
      <trkpt lat="47.76312" lon="-3.31919">
        <ele>-58.674449</ele>
        <time>2020-12-29T10:34:23.000Z</time>
      </trkpt>
      <trkpt lat="47.76307" lon="-3.31934">
        <ele>-59.181932</ele>
        <time>2020-12-29T10:34:20.000Z</time>
      </trkpt>
      <trkpt lat="47.76306" lon="-3.31939">
        <ele>-59.342689</ele>
        <time>2020-12-29T10:34:19.000Z</time>
      </trkpt>
      <trkpt lat="47.76296" lon="-3.3197">
        <ele>-60.387181</ele>
        <time>2020-12-29T10:34:13.000Z</time>
      </trkpt>
      <trkpt lat="47.76284" lon="-3.31998">
        <ele>-61.416236</ele>
        <time>2020-12-29T10:34:07.000Z</time>
      </trkpt>
      <trkpt lat="47.76278" lon="-3.32013">
        <ele>-61.942725</ele>
        <time>2020-12-29T10:34:04.000Z</time>
      </trkpt>
      <trkpt lat="47.76273" lon="-3.32027">
        <ele>-62.454888</ele>
        <time>2020-12-29T10:34:01.000Z</time>
      </trkpt>
      <trkpt lat="47.76267" lon="-3.32043">
        <ele>-62.978572</ele>
        <time>2020-12-29T10:33:58.000Z</time>
      </trkpt>
      <trkpt lat="47.76263" lon="-3.32052">
        <ele>-63.324443</ele>
        <time>2020-12-29T10:33:56.000Z</time>
      </trkpt>
      <trkpt lat="47.7625" lon="-3.32073">
        <ele>-64.193452</ele>
        <time>2020-12-29T10:33:51.000Z</time>
      </trkpt>
      <trkpt lat="47.76248" lon="-3.32076">
        <ele>-64.359248</ele>
        <time>2020-12-29T10:33:50.000Z</time>
      </trkpt>
      <trkpt lat="47.76224" lon="-3.32088">
        <ele>-65.502145</ele>
        <time>2020-12-29T10:33:43.000Z</time>
      </trkpt>
      <trkpt lat="47.76206" lon="-3.32089">
        <ele>-66.347497</ele>
        <time>2020-12-29T10:33:38.000Z</time>
      </trkpt>
      <trkpt lat="47.76194" lon="-3.32087">
        <ele>-66.877582</ele>
        <time>2020-12-29T10:33:35.000Z</time>
      </trkpt>
      <trkpt lat="47.76167" lon="-3.32083">
        <ele>-68.125477</ele>
        <time>2020-12-29T10:33:28.000Z</time>
      </trkpt>
      <trkpt lat="47.76163" lon="-3.32082">
        <ele>-68.296381</ele>
        <time>2020-12-29T10:33:27.000Z</time>
      </trkpt>
      <trkpt lat="47.7614" lon="-3.32079">
        <ele>-69.360862</ele>
        <time>2020-12-29T10:33:21.000Z</time>
      </trkpt>
      <trkpt lat="47.76136" lon="-3.32079">
        <ele>-69.548889</ele>
        <time>2020-12-29T10:33:20.000Z</time>
      </trkpt>
      <trkpt lat="47.76125" lon="-3.32079">
        <ele>-70.116869</ele>
        <time>2020-12-29T10:33:17.000Z</time>
      </trkpt>
      <trkpt lat="47.76113" lon="-3.32081">
        <ele>-70.683041</ele>
        <time>2020-12-29T10:33:14.000Z</time>
      </trkpt>
      <trkpt lat="47.76102" lon="-3.32084">
        <ele>-71.245436</ele>
        <time>2020-12-29T10:33:11.000Z</time>
      </trkpt>
      <trkpt lat="47.76095" lon="-3.32087">
        <ele>-71.583964</ele>
        <time>2020-12-29T10:33:09.000Z</time>
      </trkpt>
      <trkpt lat="47.76089" lon="-3.3209">
        <ele>-71.885606</ele>
        <time>2020-12-29T10:33:07.000Z</time>
      </trkpt>
      <trkpt lat="47.76087" lon="-3.32093">
        <ele>-72.018705</ele>
        <time>2020-12-29T10:33:06.000Z</time>
      </trkpt>
      <trkpt lat="47.76085" lon="-3.32103">
        <ele>-72.369788</ele>
        <time>2020-12-29T10:33:04.000Z</time>
      </trkpt>
      <trkpt lat="47.76081" lon="-3.32117">
        <ele>-72.878302</ele>
        <time>2020-12-29T10:33:01.000Z</time>
      </trkpt>
      <trkpt lat="47.76079" lon="-3.32122">
        <ele>-73.042213</ele>
        <time>2020-12-29T10:33:00.000Z</time>
      </trkpt>
      <trkpt lat="47.76075" lon="-3.32136">
        <ele>-73.545487</ele>
        <time>2020-12-29T10:32:57.000Z</time>
      </trkpt>
      <trkpt lat="47.76074" lon="-3.32141">
        <ele>-73.731085</ele>
        <time>2020-12-29T10:32:56.000Z</time>
      </trkpt>
      <trkpt lat="47.76071" lon="-3.32155">
        <ele>-74.188723</ele>
        <time>2020-12-29T10:32:53.000Z</time>
      </trkpt>
      <trkpt lat="47.76071" lon="-3.32166">
        <ele>-74.562761</ele>
        <time>2020-12-29T10:32:50.000Z</time>
      </trkpt>
      <trkpt lat="47.7607" lon="-3.3217">
        <ele>-74.690399</ele>
        <time>2020-12-29T10:32:49.000Z</time>
      </trkpt>
      <trkpt lat="47.76071" lon="-3.32197">
        <ele>-75.588647</ele>
        <time>2020-12-29T10:32:44.000Z</time>
      </trkpt>
      <trkpt lat="47.76072" lon="-3.32211">
        <ele>-76.023101</ele>
        <time>2020-12-29T10:32:42.000Z</time>
      </trkpt>
      <trkpt lat="47.76071" lon="-3.32232">
        <ele>-76.72799</ele>
        <time>2020-12-29T10:32:39.000Z</time>
      </trkpt>
      <trkpt lat="47.76072" lon="-3.32239">
        <ele>-76.956473</ele>
        <time>2020-12-29T10:32:38.000Z</time>
      </trkpt>
      <trkpt lat="47.76071" lon="-3.32253">
        <ele>-77.401237</ele>
        <time>2020-12-29T10:32:36.000Z</time>
      </trkpt>
      <trkpt lat="47.76067" lon="-3.32279">
        <ele>-78.201987</ele>
        <time>2020-12-29T10:32:32.000Z</time>
      </trkpt>
      <trkpt lat="47.76065" lon="-3.32286">
        <ele>-78.308614</ele>
        <time>2020-12-29T10:32:31.000Z</time>
      </trkpt>
      <trkpt lat="47.76063" lon="-3.32291">
        <ele>-78.413995</ele>
        <time>2020-12-29T10:32:30.000Z</time>
      </trkpt>
      <trkpt lat="47.76055" lon="-3.32307">
        <ele>-78.732537</ele>
        <time>2020-12-29T10:32:27.000Z</time>
      </trkpt>
      <trkpt lat="47.76052" lon="-3.32312">
        <ele>-78.840292</ele>
        <time>2020-12-29T10:32:26.000Z</time>
      </trkpt>
      <trkpt lat="47.76032" lon="-3.32348">
        <ele>-79.581443</ele>
        <time>2020-12-29T10:32:19.000Z</time>
      </trkpt>
      <trkpt lat="47.76029" lon="-3.32353">
        <ele>-79.689524</ele>
        <time>2020-12-29T10:32:18.000Z</time>
      </trkpt>
      <trkpt lat="47.76008" lon="-3.32391">
        <ele>-80.478033</ele>
        <time>2020-12-29T10:32:11.000Z</time>
      </trkpt>
      <trkpt lat="47.76002" lon="-3.32402">
        <ele>-80.714373</ele>
        <time>2020-12-29T10:32:09.000Z</time>
      </trkpt>
      <trkpt lat="47.75996" lon="-3.32414">
        <ele>-80.94366</ele>
        <time>2020-12-29T10:32:07.000Z</time>
      </trkpt>
      <trkpt lat="47.75993" lon="-3.32419">
        <ele>-81.044269</ele>
        <time>2020-12-29T10:32:06.000Z</time>
      </trkpt>
      <trkpt lat="47.75988" lon="-3.32432">
        <ele>-81.285386</ele>
        <time>2020-12-29T10:32:02.000Z</time>
      </trkpt>
      <trkpt lat="47.75988" lon="-3.32434">
        <ele>-81.318878</ele>
        <time>2020-12-29T10:32:00.000Z</time>
      </trkpt>
      <trkpt lat="47.75992" lon="-3.3244">
        <ele>-81.446908</ele>
        <time>2020-12-29T10:31:42.000Z</time>
      </trkpt>
      <trkpt lat="47.75995" lon="-3.32441">
        <ele>-81.514869</ele>
        <time>2020-12-29T10:31:38.000Z</time>
      </trkpt>
      <trkpt lat="47.75997" lon="-3.32441">
        <ele>-81.560058</ele>
        <time>2020-12-29T10:31:37.000Z</time>
      </trkpt>
      <trkpt lat="47.7601" lon="-3.32431">
        <ele>-81.917277</ele>
        <time>2020-12-29T10:31:32.000Z</time>
      </trkpt>
      <trkpt lat="47.76025" lon="-3.32413">
        <ele>-82.373218</ele>
        <time>2020-12-29T10:31:28.000Z</time>
      </trkpt>
      <trkpt lat="47.76033" lon="-3.32402">
        <ele>-82.382977</ele>
        <time>2020-12-29T10:31:26.000Z</time>
      </trkpt>
      <trkpt lat="47.76039" lon="-3.32389">
        <ele>-82.370679</ele>
        <time>2020-12-29T10:31:24.000Z</time>
      </trkpt>
      <trkpt lat="47.76045" lon="-3.3238">
        <ele>-82.361068</ele>
        <time>2020-12-29T10:31:22.000Z</time>
      </trkpt>
      <trkpt lat="47.76057" lon="-3.32378">
        <ele>-82.347195</ele>
        <time>2020-12-29T10:31:19.000Z</time>
      </trkpt>
      <trkpt lat="47.76065" lon="-3.32381">
        <ele>-82.337014</ele>
        <time>2020-12-29T10:31:17.000Z</time>
      </trkpt>
      <trkpt lat="47.76094" lon="-3.32388">
        <ele>-82.302987</ele>
        <time>2020-12-29T10:31:11.000Z</time>
      </trkpt>
      <trkpt lat="47.76099" lon="-3.32388">
        <ele>-82.297561</ele>
        <time>2020-12-29T10:31:10.000Z</time>
      </trkpt>
      <trkpt lat="47.76113" lon="-3.32387">
        <ele>-82.281698</ele>
        <time>2020-12-29T10:31:07.000Z</time>
      </trkpt>
      <trkpt lat="47.76121" lon="-3.32378">
        <ele>-82.270395</ele>
        <time>2020-12-29T10:31:05.000Z</time>
      </trkpt>
      <trkpt lat="47.76126" lon="-3.32368">
        <ele>-82.260144</ele>
        <time>2020-12-29T10:31:03.000Z</time>
      </trkpt>
      <trkpt lat="47.76128" lon="-3.32363">
        <ele>-82.255822</ele>
        <time>2020-12-29T10:31:02.000Z</time>
      </trkpt>
      <trkpt lat="47.76131" lon="-3.3235">
        <ele>-82.245776</ele>
        <time>2020-12-29T10:30:59.000Z</time>
      </trkpt>
      <trkpt lat="47.76132" lon="-3.32347">
        <ele>-82.242865</ele>
        <time>2020-12-29T10:30:58.000Z</time>
      </trkpt>
      <trkpt lat="47.76139" lon="-3.32341">
        <ele>-82.233311</ele>
        <time>2020-12-29T10:30:55.000Z</time>
      </trkpt>
      <trkpt lat="47.76147" lon="-3.3234">
        <ele>-82.22361</ele>
        <time>2020-12-29T10:30:53.000Z</time>
      </trkpt>
      <trkpt lat="47.76157" lon="-3.32339">
        <ele>-82.213041</ele>
        <time>2020-12-29T10:30:51.000Z</time>
      </trkpt>
      <trkpt lat="47.76162" lon="-3.32339">
        <ele>-82.207154</ele>
        <time>2020-12-29T10:30:49.000Z</time>
      </trkpt>
      <trkpt lat="47.76164" lon="-3.32339">
        <ele>-82.204089</ele>
        <time>2020-12-29T10:30:44.000Z</time>
      </trkpt>
      <trkpt lat="47.76164" lon="-3.32339">
        <ele>-82.203858</ele>
        <time>2020-12-29T10:30:43.000Z</time>
      </trkpt>
      <trkpt lat="47.76165" lon="-3.32345">
        <ele>-82.199764</ele>
        <time>2020-12-29T10:30:40.000Z</time>
      </trkpt>
      <trkpt lat="47.76166" lon="-3.3235">
        <ele>-82.195549</ele>
        <time>2020-12-29T10:30:39.000Z</time>
      </trkpt>
      <trkpt lat="47.76167" lon="-3.32356">
        <ele>-82.19065</ele>
        <time>2020-12-29T10:30:38.000Z</time>
      </trkpt>
      <trkpt lat="47.76167" lon="-3.32377">
        <ele>-82.169618</ele>
        <time>2020-12-29T10:30:35.000Z</time>
      </trkpt>
      <trkpt lat="47.76167" lon="-3.32384">
        <ele>-82.161701</ele>
        <time>2020-12-29T10:30:34.000Z</time>
      </trkpt>
      <trkpt lat="47.76168" lon="-3.32412">
        <ele>-82.130573</ele>
        <time>2020-12-29T10:30:30.000Z</time>
      </trkpt>
      <trkpt lat="47.76168" lon="-3.32419">
        <ele>-82.122992</ele>
        <time>2020-12-29T10:30:29.000Z</time>
      </trkpt>
      <trkpt lat="47.76172" lon="-3.32446">
        <ele>-82.092789</ele>
        <time>2020-12-29T10:30:25.000Z</time>
      </trkpt>
      <trkpt lat="47.76186" lon="-3.32462">
        <ele>-82.064646</ele>
        <time>2020-12-29T10:30:21.000Z</time>
      </trkpt>
      <trkpt lat="47.76207" lon="-3.32466">
        <ele>-82.030544</ele>
        <time>2020-12-29T10:30:17.000Z</time>
      </trkpt>
      <trkpt lat="47.76218" lon="-3.32467">
        <ele>-82.012354</ele>
        <time>2020-12-29T10:30:15.000Z</time>
      </trkpt>
      <trkpt lat="47.76232" lon="-3.32475">
        <ele>-81.987498</ele>
        <time>2020-12-29T10:30:12.000Z</time>
      </trkpt>
      <trkpt lat="47.76237" lon="-3.32506">
        <ele>-81.952379</ele>
        <time>2020-12-29T10:30:07.000Z</time>
      </trkpt>
      <trkpt lat="47.7624" lon="-3.32524">
        <ele>-81.932081</ele>
        <time>2020-12-29T10:30:04.000Z</time>
      </trkpt>
      <trkpt lat="47.76248" lon="-3.32532">
        <ele>-81.917258</ele>
        <time>2020-12-29T10:30:02.000Z</time>
      </trkpt>
      <trkpt lat="47.76253" lon="-3.32534">
        <ele>-81.907447</ele>
        <time>2020-12-29T10:30:01.000Z</time>
      </trkpt>
      <trkpt lat="47.7626" lon="-3.32536">
        <ele>-81.896736</ele>
        <time>2020-12-29T10:30:00.000Z</time>
      </trkpt>
      <trkpt lat="47.76281" lon="-3.32541">
        <ele>-81.787303</ele>
        <time>2020-12-29T10:29:57.000Z</time>
      </trkpt>
      <trkpt lat="47.76288" lon="-3.3254">
        <ele>-81.745751</ele>
        <time>2020-12-29T10:29:56.000Z</time>
      </trkpt>
      <trkpt lat="47.76301" lon="-3.32534">
        <ele>-81.66883</ele>
        <time>2020-12-29T10:29:54.000Z</time>
      </trkpt>
      <trkpt lat="47.76308" lon="-3.3253">
        <ele>-81.630809</ele>
        <time>2020-12-29T10:29:53.000Z</time>
      </trkpt>
      <trkpt lat="47.76319" lon="-3.32523">
        <ele>-81.562587</ele>
        <time>2020-12-29T10:29:51.000Z</time>
      </trkpt>
      <trkpt lat="47.76334" lon="-3.32513">
        <ele>-81.472409</ele>
        <time>2020-12-29T10:29:48.000Z</time>
      </trkpt>
      <trkpt lat="47.76353" lon="-3.32503">
        <ele>-81.357885</ele>
        <time>2020-12-29T10:29:44.000Z</time>
      </trkpt>
      <trkpt lat="47.76362" lon="-3.32499">
        <ele>-81.302776</ele>
        <time>2020-12-29T10:29:42.000Z</time>
      </trkpt>
      <trkpt lat="47.76367" lon="-3.32497">
        <ele>-81.27592</ele>
        <time>2020-12-29T10:29:41.000Z</time>
      </trkpt>
      <trkpt lat="47.76376" lon="-3.32494">
        <ele>-81.223521</ele>
        <time>2020-12-29T10:29:39.000Z</time>
      </trkpt>
      <trkpt lat="47.76384" lon="-3.32489">
        <ele>-81.173341</ele>
        <time>2020-12-29T10:29:37.000Z</time>
      </trkpt>
      <trkpt lat="47.76402" lon="-3.32475">
        <ele>-81.061502</ele>
        <time>2020-12-29T10:29:32.000Z</time>
      </trkpt>
      <trkpt lat="47.76406" lon="-3.32473">
        <ele>-81.038653</ele>
        <time>2020-12-29T10:29:31.000Z</time>
      </trkpt>
      <trkpt lat="47.76416" lon="-3.32468">
        <ele>-80.976543</ele>
        <time>2020-12-29T10:29:28.000Z</time>
      </trkpt>
      <trkpt lat="47.76425" lon="-3.32468">
        <ele>-80.929994</ele>
        <time>2020-12-29T10:29:26.000Z</time>
      </trkpt>
      <trkpt lat="47.76437" lon="-3.3247">
        <ele>-80.925083</ele>
        <time>2020-12-29T10:29:23.000Z</time>
      </trkpt>
      <trkpt lat="47.76446" lon="-3.3247">
        <ele>-81.018005</ele>
        <time>2020-12-29T10:29:21.000Z</time>
      </trkpt>
      <trkpt lat="47.7645" lon="-3.3247">
        <ele>-81.06097</ele>
        <time>2020-12-29T10:29:20.000Z</time>
      </trkpt>
      <trkpt lat="47.76459" lon="-3.32471">
        <ele>-81.153179</ele>
        <time>2020-12-29T10:29:18.000Z</time>
      </trkpt>
      <trkpt lat="47.76468" lon="-3.32472">
        <ele>-81.243734</ele>
        <time>2020-12-29T10:29:16.000Z</time>
      </trkpt>
      <trkpt lat="47.76482" lon="-3.32475">
        <ele>-81.376051</ele>
        <time>2020-12-29T10:29:13.000Z</time>
      </trkpt>
      <trkpt lat="47.76491" lon="-3.32478">
        <ele>-81.475169</ele>
        <time>2020-12-29T10:29:11.000Z</time>
      </trkpt>
      <trkpt lat="47.76496" lon="-3.32478">
        <ele>-81.522431</ele>
        <time>2020-12-29T10:29:10.000Z</time>
      </trkpt>
      <trkpt lat="47.76501" lon="-3.32478">
        <ele>-81.568393</ele>
        <time>2020-12-29T10:29:09.000Z</time>
      </trkpt>
      <trkpt lat="47.76524" lon="-3.32473">
        <ele>-81.800714</ele>
        <time>2020-12-29T10:29:04.000Z</time>
      </trkpt>
      <trkpt lat="47.76535" lon="-3.3247">
        <ele>-81.914528</ele>
        <time>2020-12-29T10:29:02.000Z</time>
      </trkpt>
      <trkpt lat="47.76568" lon="-3.32461">
        <ele>-82.246886</ele>
        <time>2020-12-29T10:28:56.000Z</time>
      </trkpt>
      <trkpt lat="47.76573" lon="-3.32459">
        <ele>-82.301052</ele>
        <time>2020-12-29T10:28:55.000Z</time>
      </trkpt>
      <trkpt lat="47.7659" lon="-3.32459">
        <ele>-82.467896</ele>
        <time>2020-12-29T10:28:52.000Z</time>
      </trkpt>
      <trkpt lat="47.76618" lon="-3.32481">
        <ele>-82.62771</ele>
        <time>2020-12-29T10:28:46.000Z</time>
      </trkpt>
      <trkpt lat="47.76623" lon="-3.32486">
        <ele>-82.601832</ele>
        <time>2020-12-29T10:28:45.000Z</time>
      </trkpt>
      <trkpt lat="47.7664" lon="-3.32501">
        <ele>-82.50104</ele>
        <time>2020-12-29T10:28:41.000Z</time>
      </trkpt>
      <trkpt lat="47.76644" lon="-3.32505">
        <ele>-82.477915</ele>
        <time>2020-12-29T10:28:40.000Z</time>
      </trkpt>
      <trkpt lat="47.76648" lon="-3.32508">
        <ele>-82.455829</ele>
        <time>2020-12-29T10:28:39.000Z</time>
      </trkpt>
      <trkpt lat="47.76657" lon="-3.32518">
        <ele>-82.399117</ele>
        <time>2020-12-29T10:28:35.000Z</time>
      </trkpt>
      <trkpt lat="47.76659" lon="-3.32518">
        <ele>-82.391125</ele>
        <time>2020-12-29T10:28:34.000Z</time>
      </trkpt>
      <trkpt lat="47.76662" lon="-3.32509">
        <ele>-82.358797</ele>
        <time>2020-12-29T10:28:31.000Z</time>
      </trkpt>
      <trkpt lat="47.76664" lon="-3.32503">
        <ele>-82.334383</ele>
        <time>2020-12-29T10:28:29.000Z</time>
      </trkpt>
      <trkpt lat="47.76664" lon="-3.32498">
        <ele>-82.317925</ele>
        <time>2020-12-29T10:28:17.000Z</time>
      </trkpt>
      <trkpt lat="47.76663" lon="-3.32502">
        <ele>-82.304035</ele>
        <time>2020-12-29T10:28:14.000Z</time>
      </trkpt>
      <trkpt lat="47.7666" lon="-3.32513">
        <ele>-82.264859</ele>
        <time>2020-12-29T10:28:12.000Z</time>
      </trkpt>
      <trkpt lat="47.7665" lon="-3.32549">
        <ele>-82.133389</ele>
        <time>2020-12-29T10:28:07.000Z</time>
      </trkpt>
      <trkpt lat="47.76637" lon="-3.32595">
        <ele>-81.964852</ele>
        <time>2020-12-29T10:28:01.000Z</time>
      </trkpt>
      <trkpt lat="47.76634" lon="-3.32603">
        <ele>-81.935331</ele>
        <time>2020-12-29T10:28:00.000Z</time>
      </trkpt>
      <trkpt lat="47.76622" lon="-3.32647">
        <ele>-81.770673</ele>
        <time>2020-12-29T10:27:54.000Z</time>
      </trkpt>
      <trkpt lat="47.76614" lon="-3.32677">
        <ele>-81.575357</ele>
        <time>2020-12-29T10:27:50.000Z</time>
      </trkpt>
      <trkpt lat="47.76611" lon="-3.32685">
        <ele>-81.518953</ele>
        <time>2020-12-29T10:27:49.000Z</time>
      </trkpt>
      <trkpt lat="47.76608" lon="-3.32702">
        <ele>-81.412192</ele>
        <time>2020-12-29T10:27:47.000Z</time>
      </trkpt>
      <trkpt lat="47.76598" lon="-3.32744">
        <ele>-81.145958</ele>
        <time>2020-12-29T10:27:42.000Z</time>
      </trkpt>
      <trkpt lat="47.76589" lon="-3.32795">
        <ele>-80.82559</ele>
        <time>2020-12-29T10:27:36.000Z</time>
      </trkpt>
      <trkpt lat="47.76582" lon="-3.32854">
        <ele>-80.466924</ele>
        <time>2020-12-29T10:27:29.000Z</time>
      </trkpt>
      <trkpt lat="47.76581" lon="-3.32862">
        <ele>-80.417651</ele>
        <time>2020-12-29T10:27:28.000Z</time>
      </trkpt>
      <trkpt lat="47.76579" lon="-3.32885">
        <ele>-80.27591</ele>
        <time>2020-12-29T10:27:25.000Z</time>
      </trkpt>
      <trkpt lat="47.76578" lon="-3.32892">
        <ele>-80.233144</ele>
        <time>2020-12-29T10:27:24.000Z</time>
      </trkpt>
      <trkpt lat="47.76574" lon="-3.32897">
        <ele>-80.19016</ele>
        <time>2020-12-29T10:27:23.000Z</time>
      </trkpt>
      <trkpt lat="47.76561" lon="-3.32911">
        <ele>-79.959636</ele>
        <time>2020-12-29T10:27:20.000Z</time>
      </trkpt>
      <trkpt lat="47.76556" lon="-3.32914">
        <ele>-79.87748</ele>
        <time>2020-12-29T10:27:19.000Z</time>
      </trkpt>
      <trkpt lat="47.76552" lon="-3.32917">
        <ele>-79.802062</ele>
        <time>2020-12-29T10:27:18.000Z</time>
      </trkpt>
      <trkpt lat="47.76537" lon="-3.32918">
        <ele>-79.575271</ele>
        <time>2020-12-29T10:27:15.000Z</time>
      </trkpt>
      <trkpt lat="47.76526" lon="-3.32917">
        <ele>-79.41792</ele>
        <time>2020-12-29T10:27:13.000Z</time>
      </trkpt>
      <trkpt lat="47.7651" lon="-3.32917">
        <ele>-79.176145</ele>
        <time>2020-12-29T10:27:10.000Z</time>
      </trkpt>
      <trkpt lat="47.76485" lon="-3.32917">
        <ele>-78.795314</ele>
        <time>2020-12-29T10:27:05.000Z</time>
      </trkpt>
      <trkpt lat="47.76442" lon="-3.3291">
        <ele>-78.147029</ele>
        <time>2020-12-29T10:26:58.000Z</time>
      </trkpt>
      <trkpt lat="47.76402" lon="-3.32898">
        <ele>-77.528298</ele>
        <time>2020-12-29T10:26:51.000Z</time>
      </trkpt>
      <trkpt lat="47.7637" lon="-3.32884">
        <ele>-77.153418</ele>
        <time>2020-12-29T10:26:45.000Z</time>
      </trkpt>
      <trkpt lat="47.76355" lon="-3.32876">
        <ele>-76.985862</ele>
        <time>2020-12-29T10:26:42.000Z</time>
      </trkpt>
      <trkpt lat="47.76337" lon="-3.32864">
        <ele>-76.780307</ele>
        <time>2020-12-29T10:26:38.000Z</time>
      </trkpt>
      <trkpt lat="47.76328" lon="-3.32858">
        <ele>-76.684395</ele>
        <time>2020-12-29T10:26:36.000Z</time>
      </trkpt>
      <trkpt lat="47.76321" lon="-3.32855">
        <ele>-76.606334</ele>
        <time>2020-12-29T10:26:34.000Z</time>
      </trkpt>
      <trkpt lat="47.76311" lon="-3.32869">
        <ele>-76.461614</ele>
        <time>2020-12-29T10:26:29.000Z</time>
      </trkpt>
      <trkpt lat="47.76309" lon="-3.32875">
        <ele>-76.417845</ele>
        <time>2020-12-29T10:26:27.000Z</time>
      </trkpt>
      <trkpt lat="47.76306" lon="-3.32878">
        <ele>-76.378598</ele>
        <time>2020-12-29T10:26:25.000Z</time>
      </trkpt>
      <trkpt lat="47.76304" lon="-3.3288">
        <ele>-76.354044</ele>
        <time>2020-12-29T10:26:24.000Z</time>
      </trkpt>
      <trkpt lat="47.76293" lon="-3.32878">
        <ele>-76.24095</ele>
        <time>2020-12-29T10:26:20.000Z</time>
      </trkpt>
      <trkpt lat="47.76287" lon="-3.32875">
        <ele>-76.174379</ele>
        <time>2020-12-29T10:26:17.000Z</time>
      </trkpt>
      <trkpt lat="47.76284" lon="-3.32888">
        <ele>-76.075116</ele>
        <time>2020-12-29T10:26:14.000Z</time>
      </trkpt>
      <trkpt lat="47.76282" lon="-3.32895">
        <ele>-76.019408</ele>
        <time>2020-12-29T10:26:13.000Z</time>
      </trkpt>
      <trkpt lat="47.76277" lon="-3.32933">
        <ele>-75.751346</ele>
        <time>2020-12-29T10:26:09.000Z</time>
      </trkpt>
      <trkpt lat="47.76276" lon="-3.32943">
        <ele>-75.678327</ele>
        <time>2020-12-29T10:26:08.000Z</time>
      </trkpt>
      <trkpt lat="47.76271" lon="-3.33014">
        <ele>-74.611896</ele>
        <time>2020-12-29T10:26:01.000Z</time>
      </trkpt>
      <trkpt lat="47.76267" lon="-3.33071">
        <ele>-73.6394</ele>
        <time>2020-12-29T10:25:55.000Z</time>
      </trkpt>
      <trkpt lat="47.76266" lon="-3.33089">
        <ele>-73.321264</ele>
        <time>2020-12-29T10:25:53.000Z</time>
      </trkpt>
      <trkpt lat="47.76265" lon="-3.33099">
        <ele>-73.162341</ele>
        <time>2020-12-29T10:25:52.000Z</time>
      </trkpt>
      <trkpt lat="47.7626" lon="-3.33153">
        <ele>-72.234251</ele>
        <time>2020-12-29T10:25:46.000Z</time>
      </trkpt>
      <trkpt lat="47.76256" lon="-3.33214">
        <ele>-71.182249</ele>
        <time>2020-12-29T10:25:39.000Z</time>
      </trkpt>
      <trkpt lat="47.76251" lon="-3.33274">
        <ele>-70.554734</ele>
        <time>2020-12-29T10:25:32.000Z</time>
      </trkpt>
      <trkpt lat="47.76247" lon="-3.33317">
        <ele>-70.151292</ele>
        <time>2020-12-29T10:25:27.000Z</time>
      </trkpt>
      <trkpt lat="47.76245" lon="-3.33334">
        <ele>-69.989074</ele>
        <time>2020-12-29T10:25:25.000Z</time>
      </trkpt>
      <trkpt lat="47.76242" lon="-3.33379">
        <ele>-69.565866</ele>
        <time>2020-12-29T10:25:20.000Z</time>
      </trkpt>
      <trkpt lat="47.76241" lon="-3.33388">
        <ele>-69.481592</ele>
        <time>2020-12-29T10:25:19.000Z</time>
      </trkpt>
      <trkpt lat="47.76238" lon="-3.33441">
        <ele>-68.986337</ele>
        <time>2020-12-29T10:25:13.000Z</time>
      </trkpt>
      <trkpt lat="47.76232" lon="-3.33505">
        <ele>-68.346635</ele>
        <time>2020-12-29T10:25:06.000Z</time>
      </trkpt>
      <trkpt lat="47.76228" lon="-3.33557">
        <ele>-67.744764</ele>
        <time>2020-12-29T10:25:00.000Z</time>
      </trkpt>
      <trkpt lat="47.76228" lon="-3.33566">
        <ele>-67.651955</ele>
        <time>2020-12-29T10:24:59.000Z</time>
      </trkpt>
      <trkpt lat="47.76227" lon="-3.33582">
        <ele>-67.46802</ele>
        <time>2020-12-29T10:24:57.000Z</time>
      </trkpt>
      <trkpt lat="47.76226" lon="-3.33589">
        <ele>-67.376353</ele>
        <time>2020-12-29T10:24:56.000Z</time>
      </trkpt>
      <trkpt lat="47.76218" lon="-3.33626">
        <ele>-66.932635</ele>
        <time>2020-12-29T10:24:51.000Z</time>
      </trkpt>
      <trkpt lat="47.76218" lon="-3.33635">
        <ele>-66.838449</ele>
        <time>2020-12-29T10:24:50.000Z</time>
      </trkpt>
      <trkpt lat="47.76215" lon="-3.33681">
        <ele>-66.301648</ele>
        <time>2020-12-29T10:24:44.000Z</time>
      </trkpt>
      <trkpt lat="47.76213" lon="-3.33705">
        <ele>-66.025737</ele>
        <time>2020-12-29T10:24:40.000Z</time>
      </trkpt>
      <trkpt lat="47.76213" lon="-3.33709">
        <ele>-65.977592</ele>
        <time>2020-12-29T10:24:39.000Z</time>
      </trkpt>
      <trkpt lat="47.76213" lon="-3.33716">
        <ele>-65.896255</ele>
        <time>2020-12-29T10:24:07.000Z</time>
      </trkpt>
      <trkpt lat="47.76213" lon="-3.33717">
        <ele>-65.890652</ele>
        <time>2020-12-29T10:24:05.000Z</time>
      </trkpt>
      <trkpt lat="47.76213" lon="-3.33724">
        <ele>-65.810298</ele>
        <time>2020-12-29T10:24:03.000Z</time>
      </trkpt>
      <trkpt lat="47.76213" lon="-3.3373">
        <ele>-65.733543</ele>
        <time>2020-12-29T10:24:02.000Z</time>
      </trkpt>
      <trkpt lat="47.76211" lon="-3.33769">
        <ele>-65.374862</ele>
        <time>2020-12-29T10:23:58.000Z</time>
      </trkpt>
      <trkpt lat="47.76209" lon="-3.33799">
        <ele>-65.183275</ele>
        <time>2020-12-29T10:23:55.000Z</time>
      </trkpt>
      <trkpt lat="47.76208" lon="-3.33819">
        <ele>-65.056</ele>
        <time>2020-12-29T10:23:53.000Z</time>
      </trkpt>
      <trkpt lat="47.76203" lon="-3.33864">
        <ele>-64.774409</ele>
        <time>2020-12-29T10:23:48.000Z</time>
      </trkpt>
      <trkpt lat="47.76196" lon="-3.33936">
        <ele>-64.316437</ele>
        <time>2020-12-29T10:23:39.000Z</time>
      </trkpt>
      <trkpt lat="47.76195" lon="-3.33944">
        <ele>-64.267196</ele>
        <time>2020-12-29T10:23:38.000Z</time>
      </trkpt>
      <trkpt lat="47.76194" lon="-3.33959">
        <ele>-64.171315</ele>
        <time>2020-12-29T10:23:36.000Z</time>
      </trkpt>
      <trkpt lat="47.76193" lon="-3.3399">
        <ele>-63.980017</ele>
        <time>2020-12-29T10:23:32.000Z</time>
      </trkpt>
      <trkpt lat="47.76192" lon="-3.34043">
        <ele>-63.887282</ele>
        <time>2020-12-29T10:23:25.000Z</time>
      </trkpt>
      <trkpt lat="47.76191" lon="-3.34092">
        <ele>-64.05835</ele>
        <time>2020-12-29T10:23:19.000Z</time>
      </trkpt>
      <trkpt lat="47.7619" lon="-3.34108">
        <ele>-64.117424</ele>
        <time>2020-12-29T10:23:17.000Z</time>
      </trkpt>
      <trkpt lat="47.76189" lon="-3.34174">
        <ele>-64.352456</ele>
        <time>2020-12-29T10:23:09.000Z</time>
      </trkpt>
      <trkpt lat="47.76187" lon="-3.34232">
        <ele>-64.558272</ele>
        <time>2020-12-29T10:23:02.000Z</time>
      </trkpt>
      <trkpt lat="47.76185" lon="-3.34278">
        <ele>-64.7217</ele>
        <time>2020-12-29T10:22:56.000Z</time>
      </trkpt>
      <trkpt lat="47.76184" lon="-3.34328">
        <ele>-66.130224</ele>
        <time>2020-12-29T10:22:49.000Z</time>
      </trkpt>
      <trkpt lat="47.76184" lon="-3.34371">
        <ele>-67.515562</ele>
        <time>2020-12-29T10:22:42.000Z</time>
      </trkpt>
      <trkpt lat="47.76183" lon="-3.34396">
        <ele>-68.330789</ele>
        <time>2020-12-29T10:22:38.000Z</time>
      </trkpt>
      <trkpt lat="47.76182" lon="-3.34417">
        <ele>-69.003462</ele>
        <time>2020-12-29T10:22:35.000Z</time>
      </trkpt>
      <trkpt lat="47.76182" lon="-3.34437">
        <ele>-69.656008</ele>
        <time>2020-12-29T10:22:32.000Z</time>
      </trkpt>
      <trkpt lat="47.76182" lon="-3.34461">
        <ele>-70.441137</ele>
        <time>2020-12-29T10:22:28.000Z</time>
      </trkpt>
      <trkpt lat="47.76181" lon="-3.34473">
        <ele>-70.810903</ele>
        <time>2020-12-29T10:22:26.000Z</time>
      </trkpt>
      <trkpt lat="47.76178" lon="-3.34489">
        <ele>-71.34592</ele>
        <time>2020-12-29T10:22:23.000Z</time>
      </trkpt>
      <trkpt lat="47.76177" lon="-3.34505">
        <ele>-71.887575</ele>
        <time>2020-12-29T10:22:20.000Z</time>
      </trkpt>
      <trkpt lat="47.76177" lon="-3.34517">
        <ele>-72.280873</ele>
        <time>2020-12-29T10:22:18.000Z</time>
      </trkpt>
      <trkpt lat="47.76176" lon="-3.34537">
        <ele>-72.91211</ele>
        <time>2020-12-29T10:22:15.000Z</time>
      </trkpt>
      <trkpt lat="47.76175" lon="-3.34544">
        <ele>-73.133196</ele>
        <time>2020-12-29T10:22:14.000Z</time>
      </trkpt>
      <trkpt lat="47.76174" lon="-3.34564">
        <ele>-73.716699</ele>
        <time>2020-12-29T10:22:11.000Z</time>
      </trkpt>
      <trkpt lat="47.76174" lon="-3.34571">
        <ele>-73.900222</ele>
        <time>2020-12-29T10:22:10.000Z</time>
      </trkpt>
      <trkpt lat="47.76174" lon="-3.34578">
        <ele>-74.086602</ele>
        <time>2020-12-29T10:22:09.000Z</time>
      </trkpt>
      <trkpt lat="47.76173" lon="-3.34586">
        <ele>-74.271995</ele>
        <time>2020-12-29T10:22:08.000Z</time>
      </trkpt>
      <trkpt lat="47.76171" lon="-3.346">
        <ele>-74.64709</ele>
        <time>2020-12-29T10:22:06.000Z</time>
      </trkpt>
      <trkpt lat="47.76171" lon="-3.34607">
        <ele>-74.832483</ele>
        <time>2020-12-29T10:22:05.000Z</time>
      </trkpt>
      <trkpt lat="47.76169" lon="-3.34631">
        <ele>-75.446395</ele>
        <time>2020-12-29T10:22:02.000Z</time>
      </trkpt>
      <trkpt lat="47.76169" lon="-3.3464">
        <ele>-75.666734</ele>
        <time>2020-12-29T10:22:01.000Z</time>
      </trkpt>
      <trkpt lat="47.76168" lon="-3.34648">
        <ele>-75.88348</ele>
        <time>2020-12-29T10:22:00.000Z</time>
      </trkpt>
      <trkpt lat="47.76168" lon="-3.34672">
        <ele>-76.496045</ele>
        <time>2020-12-29T10:21:57.000Z</time>
      </trkpt>
      <trkpt lat="47.76168" lon="-3.34685">
        <ele>-76.831259</ele>
        <time>2020-12-29T10:21:55.000Z</time>
      </trkpt>
      <trkpt lat="47.76172" lon="-3.34697">
        <ele>-77.156163</ele>
        <time>2020-12-29T10:21:53.000Z</time>
      </trkpt>
      <trkpt lat="47.76178" lon="-3.3472">
        <ele>-77.786263</ele>
        <time>2020-12-29T10:21:48.000Z</time>
      </trkpt>
      <trkpt lat="47.76181" lon="-3.3473">
        <ele>-78.051002</ele>
        <time>2020-12-29T10:21:46.000Z</time>
      </trkpt>
      <trkpt lat="47.76187" lon="-3.34748">
        <ele>-78.58349</ele>
        <time>2020-12-29T10:21:42.000Z</time>
      </trkpt>
      <trkpt lat="47.76189" lon="-3.34753">
        <ele>-78.730846</ele>
        <time>2020-12-29T10:21:41.000Z</time>
      </trkpt>
      <trkpt lat="47.76201" lon="-3.34782">
        <ele>-79.600275</ele>
        <time>2020-12-29T10:21:36.000Z</time>
      </trkpt>
      <trkpt lat="47.76233" lon="-3.34825">
        <ele>-80.630566</ele>
        <time>2020-12-29T10:21:28.000Z</time>
      </trkpt>
      <trkpt lat="47.76272" lon="-3.34874">
        <ele>-81.377711</ele>
        <time>2020-12-29T10:21:19.000Z</time>
      </trkpt>
      <trkpt lat="47.76281" lon="-3.34886">
        <ele>-81.54869</ele>
        <time>2020-12-29T10:21:17.000Z</time>
      </trkpt>
      <trkpt lat="47.76293" lon="-3.34903">
        <ele>-81.787389</ele>
        <time>2020-12-29T10:21:14.000Z</time>
      </trkpt>
      <trkpt lat="47.76296" lon="-3.34908">
        <ele>-81.865434</ele>
        <time>2020-12-29T10:21:13.000Z</time>
      </trkpt>
      <trkpt lat="47.76305" lon="-3.34927">
        <ele>-82.08864</ele>
        <time>2020-12-29T10:21:10.000Z</time>
      </trkpt>
      <trkpt lat="47.76303" lon="-3.3495">
        <ele>-82.31297</ele>
        <time>2020-12-29T10:21:07.000Z</time>
      </trkpt>
      <trkpt lat="47.76301" lon="-3.34957">
        <ele>-82.390737</ele>
        <time>2020-12-29T10:21:06.000Z</time>
      </trkpt>
      <trkpt lat="47.76283" lon="-3.34988">
        <ele>-82.787653</ele>
        <time>2020-12-29T10:21:01.000Z</time>
      </trkpt>
      <trkpt lat="47.76274" lon="-3.35006">
        <ele>-82.933469</ele>
        <time>2020-12-29T10:20:58.000Z</time>
      </trkpt>
      <trkpt lat="47.7626" lon="-3.35029">
        <ele>-83.04368</ele>
        <time>2020-12-29T10:20:54.000Z</time>
      </trkpt>
      <trkpt lat="47.7623" lon="-3.35078">
        <ele>-83.28175</ele>
        <time>2020-12-29T10:20:46.000Z</time>
      </trkpt>
      <trkpt lat="47.76193" lon="-3.35137">
        <ele>-83.571877</ele>
        <time>2020-12-29T10:20:37.000Z</time>
      </trkpt>
      <trkpt lat="47.76156" lon="-3.35198">
        <ele>-83.795887</ele>
        <time>2020-12-29T10:20:28.000Z</time>
      </trkpt>
      <trkpt lat="47.76122" lon="-3.35255">
        <ele>-83.169892</ele>
        <time>2020-12-29T10:20:20.000Z</time>
      </trkpt>
      <trkpt lat="47.76113" lon="-3.3527">
        <ele>-83.003758</ele>
        <time>2020-12-29T10:20:18.000Z</time>
      </trkpt>
      <trkpt lat="47.76097" lon="-3.35301">
        <ele>-82.684079</ele>
        <time>2020-12-29T10:20:14.000Z</time>
      </trkpt>
      <trkpt lat="47.76084" lon="-3.35341">
        <ele>-82.310736</ele>
        <time>2020-12-29T10:20:09.000Z</time>
      </trkpt>
      <trkpt lat="47.76081" lon="-3.35365">
        <ele>-82.109245</ele>
        <time>2020-12-29T10:20:06.000Z</time>
      </trkpt>
      <trkpt lat="47.76078" lon="-3.35379">
        <ele>-81.988752</ele>
        <time>2020-12-29T10:20:04.000Z</time>
      </trkpt>
      <trkpt lat="47.76077" lon="-3.35386">
        <ele>-81.933915</ele>
        <time>2020-12-29T10:20:03.000Z</time>
      </trkpt>
      <trkpt lat="47.76082" lon="-3.35402">
        <ele>-81.785702</ele>
        <time>2020-12-29T10:20:00.000Z</time>
      </trkpt>
      <trkpt lat="47.76087" lon="-3.35419">
        <ele>-81.633731</ele>
        <time>2020-12-29T10:19:56.000Z</time>
      </trkpt>
      <trkpt lat="47.76092" lon="-3.35436">
        <ele>-81.650601</ele>
        <time>2020-12-29T10:19:52.000Z</time>
      </trkpt>
      <trkpt lat="47.76097" lon="-3.35447">
        <ele>-81.662513</ele>
        <time>2020-12-29T10:19:50.000Z</time>
      </trkpt>
      <trkpt lat="47.76114" lon="-3.35475">
        <ele>-81.695483</ele>
        <time>2020-12-29T10:19:45.000Z</time>
      </trkpt>
      <trkpt lat="47.76143" lon="-3.35524">
        <ele>-81.754058</ele>
        <time>2020-12-29T10:19:37.000Z</time>
      </trkpt>
      <trkpt lat="47.76165" lon="-3.35557">
        <ele>-81.795558</ele>
        <time>2020-12-29T10:19:31.000Z</time>
      </trkpt>
      <trkpt lat="47.7619" lon="-3.35599">
        <ele>-81.845245</ele>
        <time>2020-12-29T10:19:24.000Z</time>
      </trkpt>
      <trkpt lat="47.76207" lon="-3.35624">
        <ele>-81.875623</ele>
        <time>2020-12-29T10:19:19.000Z</time>
      </trkpt>
      <trkpt lat="47.76239" lon="-3.35681">
        <ele>-81.927499</ele>
        <time>2020-12-29T10:19:10.000Z</time>
      </trkpt>
      <trkpt lat="47.76263" lon="-3.35728">
        <ele>-81.967831</ele>
        <time>2020-12-29T10:19:03.000Z</time>
      </trkpt>
      <trkpt lat="47.76272" lon="-3.35756">
        <ele>-81.990062</ele>
        <time>2020-12-29T10:18:59.000Z</time>
      </trkpt>
      <trkpt lat="47.76274" lon="-3.35764">
        <ele>-81.995651</ele>
        <time>2020-12-29T10:18:58.000Z</time>
      </trkpt>
      <trkpt lat="47.76279" lon="-3.35815">
        <ele>-82.031462</ele>
        <time>2020-12-29T10:18:52.000Z</time>
      </trkpt>
      <trkpt lat="47.76275" lon="-3.35883">
        <ele>-81.810901</ele>
        <time>2020-12-29T10:18:44.000Z</time>
      </trkpt>
      <trkpt lat="47.76273" lon="-3.35907">
        <ele>-81.612712</ele>
        <time>2020-12-29T10:18:41.000Z</time>
      </trkpt>
      <trkpt lat="47.76272" lon="-3.35931">
        <ele>-81.417402</ele>
        <time>2020-12-29T10:18:38.000Z</time>
      </trkpt>
      <trkpt lat="47.76272" lon="-3.35939">
        <ele>-81.349564</ele>
        <time>2020-12-29T10:18:37.000Z</time>
      </trkpt>
      <trkpt lat="47.76264" lon="-3.35987">
        <ele>-80.946422</ele>
        <time>2020-12-29T10:18:31.000Z</time>
      </trkpt>
      <trkpt lat="47.76252" lon="-3.36033">
        <ele>-80.543594</ele>
        <time>2020-12-29T10:18:25.000Z</time>
      </trkpt>
      <trkpt lat="47.76251" lon="-3.3604">
        <ele>-80.480491</ele>
        <time>2020-12-29T10:18:24.000Z</time>
      </trkpt>
      <trkpt lat="47.76247" lon="-3.36054">
        <ele>-80.360652</ele>
        <time>2020-12-29T10:18:22.000Z</time>
      </trkpt>
      <trkpt lat="47.76244" lon="-3.36065">
        <ele>-80.261515</ele>
        <time>2020-12-29T10:18:20.000Z</time>
      </trkpt>
      <trkpt lat="47.76247" lon="-3.36075">
        <ele>-80.176516</ele>
        <time>2020-12-29T10:18:17.000Z</time>
      </trkpt>
      <trkpt lat="47.76259" lon="-3.36077">
        <ele>-80.031252</ele>
        <time>2020-12-29T10:18:13.000Z</time>
      </trkpt>
      <trkpt lat="47.7626" lon="-3.36079">
        <ele>-80.003457</ele>
        <time>2020-12-29T10:18:12.000Z</time>
      </trkpt>
      <trkpt lat="47.76262" lon="-3.36082">
        <ele>-79.97064</ele>
        <time>2020-12-29T10:18:04.000Z</time>
      </trkpt>
      <trkpt lat="47.76263" lon="-3.36084">
        <ele>-79.95028</ele>
        <time>2020-12-29T10:18:00.000Z</time>
      </trkpt>
      <trkpt lat="47.7627" lon="-3.36095">
        <ele>-79.773414</ele>
        <time>2020-12-29T10:17:56.000Z</time>
      </trkpt>
      <trkpt lat="47.76278" lon="-3.36105">
        <ele>-79.525911</ele>
        <time>2020-12-29T10:17:54.000Z</time>
      </trkpt>
      <trkpt lat="47.76289" lon="-3.36123">
        <ele>-79.108693</ele>
        <time>2020-12-29T10:17:51.000Z</time>
      </trkpt>
      <trkpt lat="47.76293" lon="-3.36129">
        <ele>-78.965729</ele>
        <time>2020-12-29T10:17:50.000Z</time>
      </trkpt>
      <trkpt lat="47.76303" lon="-3.36146">
        <ele>-78.581028</ele>
        <time>2020-12-29T10:17:47.000Z</time>
      </trkpt>
      <trkpt lat="47.76305" lon="-3.36152">
        <ele>-78.467486</ele>
        <time>2020-12-29T10:17:46.000Z</time>
      </trkpt>
      <trkpt lat="47.76311" lon="-3.36169">
        <ele>-78.144348</ele>
        <time>2020-12-29T10:17:42.000Z</time>
      </trkpt>
      <trkpt lat="47.7631" lon="-3.36178">
        <ele>-77.992007</ele>
        <time>2020-12-29T10:17:40.000Z</time>
      </trkpt>
      <trkpt lat="47.76306" lon="-3.36185">
        <ele>-77.837589</ele>
        <time>2020-12-29T10:17:38.000Z</time>
      </trkpt>
      <trkpt lat="47.76289" lon="-3.3621">
        <ele>-77.237561</ele>
        <time>2020-12-29T10:17:33.000Z</time>
      </trkpt>
      <trkpt lat="47.76269" lon="-3.36238">
        <ele>-76.551153</ele>
        <time>2020-12-29T10:17:28.000Z</time>
      </trkpt>
      <trkpt lat="47.76265" lon="-3.36244">
        <ele>-76.419729</ele>
        <time>2020-12-29T10:17:27.000Z</time>
      </trkpt>
      <trkpt lat="47.7625" lon="-3.36266">
        <ele>-75.876788</ele>
        <time>2020-12-29T10:17:23.000Z</time>
      </trkpt>
      <trkpt lat="47.76243" lon="-3.36277">
        <ele>-75.619292</ele>
        <time>2020-12-29T10:17:21.000Z</time>
      </trkpt>
      <trkpt lat="47.76235" lon="-3.36294">
        <ele>-75.33945</ele>
        <time>2020-12-29T10:17:18.000Z</time>
      </trkpt>
      <trkpt lat="47.76233" lon="-3.363">
        <ele>-75.31964</ele>
        <time>2020-12-29T10:17:17.000Z</time>
      </trkpt>
      <trkpt lat="47.76205" lon="-3.36334">
        <ele>-75.171731</ele>
        <time>2020-12-29T10:17:11.000Z</time>
      </trkpt>
      <trkpt lat="47.762" lon="-3.3634">
        <ele>-75.146237</ele>
        <time>2020-12-29T10:17:10.000Z</time>
      </trkpt>
      <trkpt lat="47.76158" lon="-3.36392">
        <ele>-74.920255</ele>
        <time>2020-12-29T10:17:01.000Z</time>
      </trkpt>
      <trkpt lat="47.76139" lon="-3.36414">
        <ele>-74.821214</ele>
        <time>2020-12-29T10:16:57.000Z</time>
      </trkpt>
      <trkpt lat="47.76112" lon="-3.36447">
        <ele>-74.679338</ele>
        <time>2020-12-29T10:16:51.000Z</time>
      </trkpt>
      <trkpt lat="47.76069" lon="-3.36501">
        <ele>-75.248558</ele>
        <time>2020-12-29T10:16:41.000Z</time>
      </trkpt>
      <trkpt lat="47.76031" lon="-3.36542">
        <ele>-75.979319</ele>
        <time>2020-12-29T10:16:33.000Z</time>
      </trkpt>
      <trkpt lat="47.76018" lon="-3.36558">
        <ele>-76.254756</ele>
        <time>2020-12-29T10:16:30.000Z</time>
      </trkpt>
      <trkpt lat="47.76009" lon="-3.36569">
        <ele>-76.430295</ele>
        <time>2020-12-29T10:16:28.000Z</time>
      </trkpt>
      <trkpt lat="47.75997" lon="-3.36584">
        <ele>-76.680678</ele>
        <time>2020-12-29T10:16:24.000Z</time>
      </trkpt>
      <trkpt lat="47.75994" lon="-3.366">
        <ele>-76.847464</ele>
        <time>2020-12-29T10:16:20.000Z</time>
      </trkpt>
      <trkpt lat="47.75994" lon="-3.36604">
        <ele>-76.898358</ele>
        <time>2020-12-29T10:16:19.000Z</time>
      </trkpt>
      <trkpt lat="47.75996" lon="-3.36615">
        <ele>-77.018496</ele>
        <time>2020-12-29T10:16:17.000Z</time>
      </trkpt>
      <trkpt lat="47.76004" lon="-3.36623">
        <ele>-77.163567</ele>
        <time>2020-12-29T10:16:15.000Z</time>
      </trkpt>
      <trkpt lat="47.76009" lon="-3.36624">
        <ele>-77.24598</ele>
        <time>2020-12-29T10:16:14.000Z</time>
      </trkpt>
      <trkpt lat="47.76019" lon="-3.36623">
        <ele>-77.410043</ele>
        <time>2020-12-29T10:16:12.000Z</time>
      </trkpt>
      <trkpt lat="47.7603" lon="-3.36624">
        <ele>-77.65168</ele>
        <time>2020-12-29T10:16:10.000Z</time>
      </trkpt>
      <trkpt lat="47.76041" lon="-3.36626">
        <ele>-77.913598</ele>
        <time>2020-12-29T10:16:08.000Z</time>
      </trkpt>
      <trkpt lat="47.76063" lon="-3.36628">
        <ele>-78.452812</ele>
        <time>2020-12-29T10:16:04.000Z</time>
      </trkpt>
      <trkpt lat="47.76069" lon="-3.36629">
        <ele>-78.592841</ele>
        <time>2020-12-29T10:16:03.000Z</time>
      </trkpt>
      <trkpt lat="47.76084" lon="-3.36627">
        <ele>-78.951242</ele>
        <time>2020-12-29T10:16:00.000Z</time>
      </trkpt>
      <trkpt lat="47.76088" lon="-3.36624">
        <ele>-79.066659</ele>
        <time>2020-12-29T10:15:59.000Z</time>
      </trkpt>
      <trkpt lat="47.76101" lon="-3.36612">
        <ele>-79.432256</ele>
        <time>2020-12-29T10:15:56.000Z</time>
      </trkpt>
      <trkpt lat="47.76108" lon="-3.36602">
        <ele>-79.663452</ele>
        <time>2020-12-29T10:15:54.000Z</time>
      </trkpt>
      <trkpt lat="47.76117" lon="-3.3658">
        <ele>-80.083743</ele>
        <time>2020-12-29T10:15:50.000Z</time>
      </trkpt>
      <trkpt lat="47.76118" lon="-3.36576">
        <ele>-80.151413</ele>
        <time>2020-12-29T10:15:49.000Z</time>
      </trkpt>
      <trkpt lat="47.76121" lon="-3.36574">
        <ele>-80.245762</ele>
        <time>2020-12-29T10:15:47.000Z</time>
      </trkpt>
      <trkpt lat="47.76128" lon="-3.36582">
        <ele>-80.456634</ele>
        <time>2020-12-29T10:15:44.000Z</time>
      </trkpt>
      <trkpt lat="47.76131" lon="-3.36586">
        <ele>-80.560327</ele>
        <time>2020-12-29T10:15:43.000Z</time>
      </trkpt>
      <trkpt lat="47.76144" lon="-3.36604">
        <ele>-80.995055</ele>
        <time>2020-12-29T10:15:39.000Z</time>
      </trkpt>
      <trkpt lat="47.76167" lon="-3.36627">
        <ele>-81.651464</ele>
        <time>2020-12-29T10:15:34.000Z</time>
      </trkpt>
      <trkpt lat="47.76172" lon="-3.36631">
        <ele>-81.780366</ele>
        <time>2020-12-29T10:15:33.000Z</time>
      </trkpt>
      <trkpt lat="47.76187" lon="-3.36639">
        <ele>-81.754546</ele>
        <time>2020-12-29T10:15:30.000Z</time>
      </trkpt>
      <trkpt lat="47.76191" lon="-3.3664">
        <ele>-81.746301</ele>
        <time>2020-12-29T10:15:29.000Z</time>
      </trkpt>
      <trkpt lat="47.76235" lon="-3.36658">
        <ele>-81.672085</ele>
        <time>2020-12-29T10:15:21.000Z</time>
      </trkpt>
      <trkpt lat="47.76285" lon="-3.36679">
        <ele>-81.586332</ele>
        <time>2020-12-29T10:15:12.000Z</time>
      </trkpt>
      <trkpt lat="47.76337" lon="-3.36702">
        <ele>-81.49776</ele>
        <time>2020-12-29T10:15:03.000Z</time>
      </trkpt>
      <trkpt lat="47.76354" lon="-3.3671">
        <ele>-81.321103</ele>
        <time>2020-12-29T10:15:00.000Z</time>
      </trkpt>
      <trkpt lat="47.76382" lon="-3.36727">
        <ele>-80.844634</ele>
        <time>2020-12-29T10:14:55.000Z</time>
      </trkpt>
      <trkpt lat="47.76393" lon="-3.36734">
        <ele>-80.656274</ele>
        <time>2020-12-29T10:14:53.000Z</time>
      </trkpt>
      <trkpt lat="47.76408" lon="-3.36744">
        <ele>-80.385293</ele>
        <time>2020-12-29T10:14:50.000Z</time>
      </trkpt>
      <trkpt lat="47.76414" lon="-3.36746">
        <ele>-80.299909</ele>
        <time>2020-12-29T10:14:49.000Z</time>
      </trkpt>
      <trkpt lat="47.76426" lon="-3.36759">
        <ele>-80.058694</ele>
        <time>2020-12-29T10:14:46.000Z</time>
      </trkpt>
      <trkpt lat="47.7643" lon="-3.36779">
        <ele>-79.838008</ele>
        <time>2020-12-29T10:14:43.000Z</time>
      </trkpt>
      <trkpt lat="47.76426" lon="-3.36803">
        <ele>-79.576174</ele>
        <time>2020-12-29T10:14:39.000Z</time>
      </trkpt>
      <trkpt lat="47.76413" lon="-3.36825">
        <ele>-79.259973</ele>
        <time>2020-12-29T10:14:34.000Z</time>
      </trkpt>
      <trkpt lat="47.76409" lon="-3.3683">
        <ele>-79.184881</ele>
        <time>2020-12-29T10:14:33.000Z</time>
      </trkpt>
      <trkpt lat="47.76398" lon="-3.36859">
        <ele>-78.830829</ele>
        <time>2020-12-29T10:14:29.000Z</time>
      </trkpt>
      <trkpt lat="47.76391" lon="-3.36894">
        <ele>-78.364673</ele>
        <time>2020-12-29T10:14:25.000Z</time>
      </trkpt>
      <trkpt lat="47.76389" lon="-3.36903">
        <ele>-78.232463</ele>
        <time>2020-12-29T10:14:24.000Z</time>
      </trkpt>
      <trkpt lat="47.76388" lon="-3.36912">
        <ele>-78.096213</ele>
        <time>2020-12-29T10:14:23.000Z</time>
      </trkpt>
      <trkpt lat="47.76387" lon="-3.36921">
        <ele>-77.954892</ele>
        <time>2020-12-29T10:14:22.000Z</time>
      </trkpt>
      <trkpt lat="47.76383" lon="-3.3695">
        <ele>-77.520248</ele>
        <time>2020-12-29T10:14:19.000Z</time>
      </trkpt>
      <trkpt lat="47.76381" lon="-3.3696">
        <ele>-77.383265</ele>
        <time>2020-12-29T10:14:18.000Z</time>
      </trkpt>
      <trkpt lat="47.7638" lon="-3.36969">
        <ele>-77.238663</ele>
        <time>2020-12-29T10:14:17.000Z</time>
      </trkpt>
      <trkpt lat="47.76377" lon="-3.36987">
        <ele>-76.967918</ele>
        <time>2020-12-29T10:14:15.000Z</time>
      </trkpt>
      <trkpt lat="47.76377" lon="-3.36996">
        <ele>-76.842116</ele>
        <time>2020-12-29T10:14:14.000Z</time>
      </trkpt>
      <trkpt lat="47.76372" lon="-3.37021">
        <ele>-76.465711</ele>
        <time>2020-12-29T10:14:11.000Z</time>
      </trkpt>
      <trkpt lat="47.76369" lon="-3.37047">
        <ele>-76.074746</ele>
        <time>2020-12-29T10:14:08.000Z</time>
      </trkpt>
      <trkpt lat="47.76367" lon="-3.37055">
        <ele>-75.951056</ele>
        <time>2020-12-29T10:14:07.000Z</time>
      </trkpt>
      <trkpt lat="47.76365" lon="-3.3707">
        <ele>-75.728472</ele>
        <time>2020-12-29T10:14:05.000Z</time>
      </trkpt>
      <trkpt lat="47.76363" lon="-3.37084">
        <ele>-75.521518</ele>
        <time>2020-12-29T10:14:03.000Z</time>
      </trkpt>
      <trkpt lat="47.76361" lon="-3.37107">
        <ele>-75.179825</ele>
        <time>2020-12-29T10:13:59.000Z</time>
      </trkpt>
      <trkpt lat="47.7636" lon="-3.3711">
        <ele>-75.127526</ele>
        <time>2020-12-29T10:13:58.000Z</time>
      </trkpt>
      <trkpt lat="47.76356" lon="-3.37115">
        <ele>-75.010601</ele>
        <time>2020-12-29T10:13:55.000Z</time>
      </trkpt>
      <trkpt lat="47.76353" lon="-3.37118">
        <ele>-74.940742</ele>
        <time>2020-12-29T10:13:54.000Z</time>
      </trkpt>
      <trkpt lat="47.7634" lon="-3.37143">
        <ele>-74.783869</ele>
        <time>2020-12-29T10:13:49.000Z</time>
      </trkpt>
      <trkpt lat="47.76335" lon="-3.37155">
        <ele>-74.846041</ele>
        <time>2020-12-29T10:13:47.000Z</time>
      </trkpt>
      <trkpt lat="47.76326" lon="-3.37174">
        <ele>-74.951331</ele>
        <time>2020-12-29T10:13:44.000Z</time>
      </trkpt>
      <trkpt lat="47.76304" lon="-3.37222">
        <ele>-75.213245</ele>
        <time>2020-12-29T10:13:37.000Z</time>
      </trkpt>
      <trkpt lat="47.76278" lon="-3.37281">
        <ele>-75.530943</ele>
        <time>2020-12-29T10:13:29.000Z</time>
      </trkpt>
      <trkpt lat="47.76256" lon="-3.37327">
        <ele>-75.78094</ele>
        <time>2020-12-29T10:13:23.000Z</time>
      </trkpt>
      <trkpt lat="47.76235" lon="-3.37376">
        <ele>-75.4567</ele>
        <time>2020-12-29T10:13:17.000Z</time>
      </trkpt>
      <trkpt lat="47.76232" lon="-3.37385">
        <ele>-75.29532</ele>
        <time>2020-12-29T10:13:16.000Z</time>
      </trkpt>
      <trkpt lat="47.76221" lon="-3.37411">
        <ele>-74.816398</ele>
        <time>2020-12-29T10:13:13.000Z</time>
      </trkpt>
      <trkpt lat="47.76207" lon="-3.37445">
        <ele>-74.195386</ele>
        <time>2020-12-29T10:13:09.000Z</time>
      </trkpt>
      <trkpt lat="47.76193" lon="-3.37476">
        <ele>-73.602045</ele>
        <time>2020-12-29T10:13:05.000Z</time>
      </trkpt>
      <trkpt lat="47.76187" lon="-3.37491">
        <ele>-73.332573</ele>
        <time>2020-12-29T10:13:03.000Z</time>
      </trkpt>
      <trkpt lat="47.7618" lon="-3.37506">
        <ele>-73.052746</ele>
        <time>2020-12-29T10:13:01.000Z</time>
      </trkpt>
      <trkpt lat="47.76176" lon="-3.37521">
        <ele>-72.789517</ele>
        <time>2020-12-29T10:12:59.000Z</time>
      </trkpt>
      <trkpt lat="47.76174" lon="-3.3753">
        <ele>-72.651311</ele>
        <time>2020-12-29T10:12:58.000Z</time>
      </trkpt>
      <trkpt lat="47.76173" lon="-3.37538">
        <ele>-72.51619</ele>
        <time>2020-12-29T10:12:57.000Z</time>
      </trkpt>
      <trkpt lat="47.76172" lon="-3.37547">
        <ele>-72.382464</ele>
        <time>2020-12-29T10:12:56.000Z</time>
      </trkpt>
      <trkpt lat="47.76171" lon="-3.37563">
        <ele>-72.122763</ele>
        <time>2020-12-29T10:12:54.000Z</time>
      </trkpt>
      <trkpt lat="47.76171" lon="-3.37571">
        <ele>-71.998924</ele>
        <time>2020-12-29T10:12:53.000Z</time>
      </trkpt>
      <trkpt lat="47.76178" lon="-3.37594">
        <ele>-71.500082</ele>
        <time>2020-12-29T10:12:49.000Z</time>
      </trkpt>
      <trkpt lat="47.76181" lon="-3.37609">
        <ele>-71.081031</ele>
        <time>2020-12-29T10:12:46.000Z</time>
      </trkpt>
      <trkpt lat="47.76175" lon="-3.37624">
        <ele>-70.593358</ele>
        <time>2020-12-29T10:12:42.000Z</time>
      </trkpt>
      <trkpt lat="47.7617" lon="-3.37641">
        <ele>-70.094236</ele>
        <time>2020-12-29T10:12:39.000Z</time>
      </trkpt>
      <trkpt lat="47.7617" lon="-3.37648">
        <ele>-69.880023</ele>
        <time>2020-12-29T10:12:38.000Z</time>
      </trkpt>
      <trkpt lat="47.7617" lon="-3.37665">
        <ele>-69.418436</ele>
        <time>2020-12-29T10:12:36.000Z</time>
      </trkpt>
      <trkpt lat="47.76169" lon="-3.37689">
        <ele>-68.753145</ele>
        <time>2020-12-29T10:12:33.000Z</time>
      </trkpt>
      <trkpt lat="47.7617" lon="-3.3771">
        <ele>-68.192462</ele>
        <time>2020-12-29T10:12:31.000Z</time>
      </trkpt>
      <trkpt lat="47.76171" lon="-3.37721">
        <ele>-67.893643</ele>
        <time>2020-12-29T10:12:30.000Z</time>
      </trkpt>
      <trkpt lat="47.76174" lon="-3.37742">
        <ele>-67.289865</ele>
        <time>2020-12-29T10:12:28.000Z</time>
      </trkpt>
      <trkpt lat="47.76179" lon="-3.37764">
        <ele>-66.654709</ele>
        <time>2020-12-29T10:12:26.000Z</time>
      </trkpt>
      <trkpt lat="47.76188" lon="-3.37796">
        <ele>-65.70945</ele>
        <time>2020-12-29T10:12:23.000Z</time>
      </trkpt>
      <trkpt lat="47.76194" lon="-3.37816">
        <ele>-65.103062</ele>
        <time>2020-12-29T10:12:21.000Z</time>
      </trkpt>
      <trkpt lat="47.76199" lon="-3.37836">
        <ele>-64.51734</ele>
        <time>2020-12-29T10:12:19.000Z</time>
      </trkpt>
      <trkpt lat="47.76208" lon="-3.37871">
        <ele>-64.087156</ele>
        <time>2020-12-29T10:12:15.000Z</time>
      </trkpt>
      <trkpt lat="47.76212" lon="-3.37889">
        <ele>-63.921112</ele>
        <time>2020-12-29T10:12:13.000Z</time>
      </trkpt>
      <trkpt lat="47.76215" lon="-3.37905">
        <ele>-63.775527</ele>
        <time>2020-12-29T10:12:11.000Z</time>
      </trkpt>
      <trkpt lat="47.76216" lon="-3.37911">
        <ele>-63.714678</ele>
        <time>2020-12-29T10:12:10.000Z</time>
      </trkpt>
      <trkpt lat="47.7622" lon="-3.37929">
        <ele>-63.549908</ele>
        <time>2020-12-29T10:12:07.000Z</time>
      </trkpt>
      <trkpt lat="47.76221" lon="-3.37935">
        <ele>-63.498251</ele>
        <time>2020-12-29T10:12:06.000Z</time>
      </trkpt>
      <trkpt lat="47.76226" lon="-3.37961">
        <ele>-63.256862</ele>
        <time>2020-12-29T10:12:01.000Z</time>
      </trkpt>
      <trkpt lat="47.76227" lon="-3.37965">
        <ele>-63.220888</ele>
        <time>2020-12-29T10:12:00.000Z</time>
      </trkpt>
      <trkpt lat="47.76231" lon="-3.37974">
        <ele>-63.124962</ele>
        <time>2020-12-29T10:10:15.000Z</time>
      </trkpt>
      <trkpt lat="47.76231" lon="-3.37974">
        <ele>-63.120564</ele>
        <time>2020-12-29T10:10:13.000Z</time>
      </trkpt>
      <trkpt lat="47.76226" lon="-3.37986">
        <ele>-63.002404</ele>
        <time>2020-12-29T10:10:09.000Z</time>
      </trkpt>
      <trkpt lat="47.76218" lon="-3.37997">
        <ele>-62.85297</ele>
        <time>2020-12-29T10:10:06.000Z</time>
      </trkpt>
      <trkpt lat="47.7621" lon="-3.38003">
        <ele>-62.732642</ele>
        <time>2020-12-29T10:10:04.000Z</time>
      </trkpt>
      <trkpt lat="47.76205" lon="-3.38006">
        <ele>-62.672049</ele>
        <time>2020-12-29T10:10:03.000Z</time>
      </trkpt>
      <trkpt lat="47.76198" lon="-3.3801">
        <ele>-62.573169</ele>
        <time>2020-12-29T10:10:01.000Z</time>
      </trkpt>
      <trkpt lat="47.76201" lon="-3.38031">
        <ele>-62.388611</ele>
        <time>2020-12-29T10:09:57.000Z</time>
      </trkpt>
      <trkpt lat="47.76201" lon="-3.38048">
        <ele>-62.236858</ele>
        <time>2020-12-29T10:09:55.000Z</time>
      </trkpt>
      <trkpt lat="47.76199" lon="-3.38057">
        <ele>-62.15364</ele>
        <time>2020-12-29T10:09:54.000Z</time>
      </trkpt>
      <trkpt lat="47.76192" lon="-3.38075">
        <ele>-61.884747</ele>
        <time>2020-12-29T10:09:52.000Z</time>
      </trkpt>
      <trkpt lat="47.76173" lon="-3.38122">
        <ele>-60.431852</ele>
        <time>2020-12-29T10:09:47.000Z</time>
      </trkpt>
      <trkpt lat="47.76169" lon="-3.38132">
        <ele>-60.132011</ele>
        <time>2020-12-29T10:09:46.000Z</time>
      </trkpt>
      <trkpt lat="47.76166" lon="-3.38141">
        <ele>-59.843474</ele>
        <time>2020-12-29T10:09:45.000Z</time>
      </trkpt>
      <trkpt lat="47.76157" lon="-3.38158">
        <ele>-59.263706</ele>
        <time>2020-12-29T10:09:43.000Z</time>
      </trkpt>
      <trkpt lat="47.76148" lon="-3.38174">
        <ele>-58.722362</ele>
        <time>2020-12-29T10:09:41.000Z</time>
      </trkpt>
      <trkpt lat="47.76126" lon="-3.38208">
        <ele>-57.478611</ele>
        <time>2020-12-29T10:09:36.000Z</time>
      </trkpt>
      <trkpt lat="47.76122" lon="-3.38214">
        <ele>-57.249545</ele>
        <time>2020-12-29T10:09:35.000Z</time>
      </trkpt>
      <trkpt lat="47.76109" lon="-3.38228">
        <ele>-56.600408</ele>
        <time>2020-12-29T10:09:32.000Z</time>
      </trkpt>
      <trkpt lat="47.76094" lon="-3.38241">
        <ele>-55.929549</ele>
        <time>2020-12-29T10:09:29.000Z</time>
      </trkpt>
      <trkpt lat="47.76089" lon="-3.38246">
        <ele>-55.704217</ele>
        <time>2020-12-29T10:09:28.000Z</time>
      </trkpt>
      <trkpt lat="47.76074" lon="-3.3826">
        <ele>-55.013957</ele>
        <time>2020-12-29T10:09:25.000Z</time>
      </trkpt>
      <trkpt lat="47.76066" lon="-3.38266">
        <ele>-54.821058</ele>
        <time>2020-12-29T10:09:23.000Z</time>
      </trkpt>
      <trkpt lat="47.76049" lon="-3.38279">
        <ele>-54.578033</ele>
        <time>2020-12-29T10:09:18.000Z</time>
      </trkpt>
      <trkpt lat="47.76043" lon="-3.38285">
        <ele>-54.491373</ele>
        <time>2020-12-29T10:09:16.000Z</time>
      </trkpt>
      <trkpt lat="47.76037" lon="-3.3829">
        <ele>-54.39744</ele>
        <time>2020-12-29T10:09:14.000Z</time>
      </trkpt>
      <trkpt lat="47.76028" lon="-3.38297">
        <ele>-54.265569</ele>
        <time>2020-12-29T10:09:10.000Z</time>
      </trkpt>
      <trkpt lat="47.76025" lon="-3.38299">
        <ele>-54.227629</ele>
        <time>2020-12-29T10:09:08.000Z</time>
      </trkpt>
      <trkpt lat="47.76024" lon="-3.38304">
        <ele>-54.186196</ele>
        <time>2020-12-29T10:09:06.000Z</time>
      </trkpt>
      <trkpt lat="47.76029" lon="-3.38331">
        <ele>-53.939099</ele>
        <time>2020-12-29T10:09:01.000Z</time>
      </trkpt>
      <trkpt lat="47.76033" lon="-3.38347">
        <ele>-53.791829</ele>
        <time>2020-12-29T10:08:58.000Z</time>
      </trkpt>
      <trkpt lat="47.76034" lon="-3.38352">
        <ele>-53.749741</ele>
        <time>2020-12-29T10:08:57.000Z</time>
      </trkpt>
      <trkpt lat="47.76034" lon="-3.38374">
        <ele>-53.557463</ele>
        <time>2020-12-29T10:08:52.000Z</time>
      </trkpt>
      <trkpt lat="47.76035" lon="-3.38382">
        <ele>-53.491192</ele>
        <time>2020-12-29T10:08:50.000Z</time>
      </trkpt>
      <trkpt lat="47.76035" lon="-3.38391">
        <ele>-53.414297</ele>
        <time>2020-12-29T10:08:45.000Z</time>
      </trkpt>
      <trkpt lat="47.76034" lon="-3.38393">
        <ele>-53.386934</ele>
        <time>2020-12-29T10:08:42.000Z</time>
      </trkpt>
      <trkpt lat="47.76033" lon="-3.38394">
        <ele>-53.369441</ele>
        <time>2020-12-29T10:08:41.000Z</time>
      </trkpt>
      <trkpt lat="47.76031" lon="-3.38395">
        <ele>-53.340759</ele>
        <time>2020-12-29T10:08:40.000Z</time>
      </trkpt>
      <trkpt lat="47.76016" lon="-3.38402">
        <ele>-53.142682</ele>
        <time>2020-12-29T10:08:35.000Z</time>
      </trkpt>
      <trkpt lat="47.76004" lon="-3.38405">
        <ele>-52.991103</ele>
        <time>2020-12-29T10:08:32.000Z</time>
      </trkpt>
      <trkpt lat="47.75987" lon="-3.38408">
        <ele>-52.771249</ele>
        <time>2020-12-29T10:08:28.000Z</time>
      </trkpt>
      <trkpt lat="47.75954" lon="-3.38416">
        <ele>-52.70852</ele>
        <time>2020-12-29T10:08:21.000Z</time>
      </trkpt>
      <trkpt lat="47.75949" lon="-3.38417">
        <ele>-52.731708</ele>
        <time>2020-12-29T10:08:20.000Z</time>
      </trkpt>
      <trkpt lat="47.7594" lon="-3.38419">
        <ele>-52.781085</ele>
        <time>2020-12-29T10:08:17.000Z</time>
      </trkpt>
      <trkpt lat="47.75937" lon="-3.38422">
        <ele>-52.79528</ele>
        <time>2020-12-29T10:08:16.000Z</time>
      </trkpt>
      <trkpt lat="47.75937" lon="-3.38438">
        <ele>-52.848536</ele>
        <time>2020-12-29T10:08:13.000Z</time>
      </trkpt>
      <trkpt lat="47.75937" lon="-3.38445">
        <ele>-52.873314</ele>
        <time>2020-12-29T10:08:12.000Z</time>
      </trkpt>
      <trkpt lat="47.75939" lon="-3.38477">
        <ele>-52.979128</ele>
        <time>2020-12-29T10:08:08.000Z</time>
      </trkpt>
      <trkpt lat="47.75941" lon="-3.38498">
        <ele>-53.050783</ele>
        <time>2020-12-29T10:08:05.000Z</time>
      </trkpt>
      <trkpt lat="47.75942" lon="-3.38517">
        <ele>-53.116375</ele>
        <time>2020-12-29T10:08:02.000Z</time>
      </trkpt>
      <trkpt lat="47.75944" lon="-3.3853">
        <ele>-53.159284</ele>
        <time>2020-12-29T10:08:00.000Z</time>
      </trkpt>
      <trkpt lat="47.75948" lon="-3.38554">
        <ele>-53.240963</ele>
        <time>2020-12-29T10:07:56.000Z</time>
      </trkpt>
      <trkpt lat="47.75949" lon="-3.38567">
        <ele>-53.285094</ele>
        <time>2020-12-29T10:07:53.000Z</time>
      </trkpt>
      <trkpt lat="47.75948" lon="-3.38568">
        <ele>-53.292333</ele>
        <time>2020-12-29T10:07:52.000Z</time>
      </trkpt>
      <trkpt lat="47.75942" lon="-3.38567">
        <ele>-53.323105</ele>
        <time>2020-12-29T10:07:49.000Z</time>
      </trkpt>
      <trkpt lat="47.75933" lon="-3.38563">
        <ele>-53.371953</ele>
        <time>2020-12-29T10:07:46.000Z</time>
      </trkpt>
      <trkpt lat="47.7593" lon="-3.38561">
        <ele>-53.388943</ele>
        <time>2020-12-29T10:07:45.000Z</time>
      </trkpt>
      <trkpt lat="47.75926" lon="-3.3856">
        <ele>-53.406897</ele>
        <time>2020-12-29T10:07:44.000Z</time>
      </trkpt>
      <trkpt lat="47.75913" lon="-3.38563">
        <ele>-53.475276</ele>
        <time>2020-12-29T10:07:40.000Z</time>
      </trkpt>
      <trkpt lat="47.75908" lon="-3.38572">
        <ele>-53.495279</ele>
        <time>2020-12-29T10:07:38.000Z</time>
      </trkpt>
      <trkpt lat="47.75906" lon="-3.38587">
        <ele>-53.476093</ele>
        <time>2020-12-29T10:07:36.000Z</time>
      </trkpt>
      <trkpt lat="47.75902" lon="-3.3862">
        <ele>-53.430709</ele>
        <time>2020-12-29T10:07:32.000Z</time>
      </trkpt>
      <trkpt lat="47.75897" lon="-3.38651">
        <ele>-53.388707</ele>
        <time>2020-12-29T10:07:28.000Z</time>
      </trkpt>
      <trkpt lat="47.75888" lon="-3.38694">
        <ele>-53.328946</ele>
        <time>2020-12-29T10:07:22.000Z</time>
      </trkpt>
      <trkpt lat="47.7587" lon="-3.38741">
        <ele>-53.257413</ele>
        <time>2020-12-29T10:07:14.000Z</time>
      </trkpt>
      <trkpt lat="47.75855" lon="-3.38768">
        <ele>-53.211236</ele>
        <time>2020-12-29T10:07:09.000Z</time>
      </trkpt>
      <trkpt lat="47.75853" lon="-3.38774">
        <ele>-53.202217</ele>
        <time>2020-12-29T10:07:08.000Z</time>
      </trkpt>
      <trkpt lat="47.75848" lon="-3.38784">
        <ele>-53.185934</ele>
        <time>2020-12-29T10:07:06.000Z</time>
      </trkpt>
      <trkpt lat="47.75846" lon="-3.38789">
        <ele>-53.178314</ele>
        <time>2020-12-29T10:07:05.000Z</time>
      </trkpt>
      <trkpt lat="47.75847" lon="-3.38798">
        <ele>-53.16646</ele>
        <time>2020-12-29T10:07:03.000Z</time>
      </trkpt>
      <trkpt lat="47.75855" lon="-3.38807">
        <ele>-53.146158</ele>
        <time>2020-12-29T10:07:00.000Z</time>
      </trkpt>
      <trkpt lat="47.75862" lon="-3.3882">
        <ele>-53.144105</ele>
        <time>2020-12-29T10:06:56.000Z</time>
      </trkpt>
      <trkpt lat="47.75858" lon="-3.38835">
        <ele>-53.142061</ele>
        <time>2020-12-29T10:06:52.000Z</time>
      </trkpt>
      <trkpt lat="47.75849" lon="-3.38861">
        <ele>-53.138306</ele>
        <time>2020-12-29T10:06:47.000Z</time>
      </trkpt>
      <trkpt lat="47.75845" lon="-3.38872">
        <ele>-53.136722</ele>
        <time>2020-12-29T10:06:45.000Z</time>
      </trkpt>
      <trkpt lat="47.75838" lon="-3.38893">
        <ele>-53.133745</ele>
        <time>2020-12-29T10:06:41.000Z</time>
      </trkpt>
      <trkpt lat="47.75837" lon="-3.38921">
        <ele>-53.130125</ele>
        <time>2020-12-29T10:06:36.000Z</time>
      </trkpt>
      <trkpt lat="47.75833" lon="-3.38949">
        <ele>-53.126508</ele>
        <time>2020-12-29T10:06:31.000Z</time>
      </trkpt>
      <trkpt lat="47.75831" lon="-3.38954">
        <ele>-53.125718</ele>
        <time>2020-12-29T10:06:30.000Z</time>
      </trkpt>
      <trkpt lat="47.75828" lon="-3.38977">
        <ele>-53.122789</ele>
        <time>2020-12-29T10:06:25.000Z</time>
      </trkpt>
      <trkpt lat="47.75827" lon="-3.38979">
        <ele>-53.122466</ele>
        <time>2020-12-29T10:06:24.000Z</time>
      </trkpt>
      <trkpt lat="47.75821" lon="-3.38979">
        <ele>-53.121246</ele>
        <time>2020-12-29T10:06:20.000Z</time>
      </trkpt>
      <trkpt lat="47.75812" lon="-3.38971">
        <ele>-53.119185</ele>
        <time>2020-12-29T10:06:15.000Z</time>
      </trkpt>
      <trkpt lat="47.75809" lon="-3.38969">
        <ele>-53.118724</ele>
        <time>2020-12-29T10:06:14.000Z</time>
      </trkpt>
      <trkpt lat="47.75804" lon="-3.38974">
        <ele>-53.117529</ele>
        <time>2020-12-29T10:06:12.000Z</time>
      </trkpt>
      <trkpt lat="47.75798" lon="-3.38981">
        <ele>-53.116139</ele>
        <time>2020-12-29T10:06:10.000Z</time>
      </trkpt>
      <trkpt lat="47.75795" lon="-3.38989">
        <ele>-53.114926</ele>
        <time>2020-12-29T10:06:08.000Z</time>
      </trkpt>
      <trkpt lat="47.75793" lon="-3.38996">
        <ele>-53.113924</ele>
        <time>2020-12-29T10:06:06.000Z</time>
      </trkpt>
      <trkpt lat="47.75792" lon="-3.39001">
        <ele>-53.11331</ele>
        <time>2020-12-29T10:06:05.000Z</time>
      </trkpt>
      <trkpt lat="47.75782" lon="-3.39013">
        <ele>-52.982837</ele>
        <time>2020-12-29T10:06:01.000Z</time>
      </trkpt>
      <trkpt lat="47.7578" lon="-3.39015">
        <ele>-52.919774</ele>
        <time>2020-12-29T10:06:00.000Z</time>
      </trkpt>
      <trkpt lat="47.75768" lon="-3.39021">
        <ele>-52.624694</ele>
        <time>2020-12-29T10:05:56.000Z</time>
      </trkpt>
      <trkpt lat="47.7575" lon="-3.39031">
        <ele>-52.164324</ele>
        <time>2020-12-29T10:05:51.000Z</time>
      </trkpt>
      <trkpt lat="47.75729" lon="-3.39044">
        <ele>-51.633387</ele>
        <time>2020-12-29T10:05:46.000Z</time>
      </trkpt>
      <trkpt lat="47.75724" lon="-3.39047">
        <ele>-51.512468</ele>
        <time>2020-12-29T10:05:45.000Z</time>
      </trkpt>
      <trkpt lat="47.75711" lon="-3.39054">
        <ele>-51.181336</ele>
        <time>2020-12-29T10:05:42.000Z</time>
      </trkpt>
      <trkpt lat="47.75695" lon="-3.39064">
        <ele>-50.755798</ele>
        <time>2020-12-29T10:05:38.000Z</time>
      </trkpt>
      <trkpt lat="47.7569" lon="-3.39067">
        <ele>-50.645926</ele>
        <time>2020-12-29T10:05:37.000Z</time>
      </trkpt>
      <trkpt lat="47.75671" lon="-3.39077">
        <ele>-50.151644</ele>
        <time>2020-12-29T10:05:32.000Z</time>
      </trkpt>
      <trkpt lat="47.75671" lon="-3.39077">
        <ele>-50.151644</ele>
        <time>2020-12-29T10:05:32.000Z</time>
      </trkpt>
      <trkpt lat="47.75676" lon="-3.39092">
        <ele>31.2</ele>
      </trkpt>
      <trkpt lat="47.75754" lon="-3.39529">
        <ele>29.1</ele>
      </trkpt>
      <trkpt lat="47.75788" lon="-3.39688">
        <ele>28</ele>
      </trkpt>
      <trkpt lat="47.75757" lon="-3.39881">
        <ele>25.4</ele>
      </trkpt>
      <trkpt lat="47.75716" lon="-3.39958">
        <ele>25</ele>
      </trkpt>
      <trkpt lat="47.75453" lon="-3.40153">
        <ele>-97.353287</ele>
        <time>2020-12-29T17:09:27.000Z</time>
      </trkpt>
      <trkpt lat="47.75443" lon="-3.40154">
        <ele>-97.263555</ele>
        <time>2020-12-29T17:09:30.000Z</time>
      </trkpt>
      <trkpt lat="47.75439" lon="-3.40157">
        <ele>-97.230159</ele>
        <time>2020-12-29T17:09:31.000Z</time>
      </trkpt>
      <trkpt lat="47.75421" lon="-3.40172">
        <ele>-97.050899</ele>
        <time>2020-12-29T17:09:36.000Z</time>
      </trkpt>
      <trkpt lat="47.75416" lon="-3.40176">
        <ele>-97.006426</ele>
        <time>2020-12-29T17:09:39.000Z</time>
      </trkpt>
      <trkpt lat="47.75414" lon="-3.40179">
        <ele>-96.980194</ele>
        <time>2020-12-29T17:10:32.000Z</time>
      </trkpt>
      <trkpt lat="47.75411" lon="-3.40181">
        <ele>-96.953212</ele>
        <time>2020-12-29T17:10:33.000Z</time>
      </trkpt>
      <trkpt lat="47.75388" lon="-3.40197">
        <ele>-96.733078</ele>
        <time>2020-12-29T17:10:39.000Z</time>
      </trkpt>
      <trkpt lat="47.75358" lon="-3.4022">
        <ele>-96.452372</ele>
        <time>2020-12-29T17:10:46.000Z</time>
      </trkpt>
      <trkpt lat="47.75347" lon="-3.4023">
        <ele>-96.342029</ele>
        <time>2020-12-29T17:10:49.000Z</time>
      </trkpt>
      <trkpt lat="47.75338" lon="-3.40237">
        <ele>-96.252443</ele>
        <time>2020-12-29T17:10:51.000Z</time>
      </trkpt>
      <trkpt lat="47.75325" lon="-3.40247">
        <ele>-96.124409</ele>
        <time>2020-12-29T17:10:54.000Z</time>
      </trkpt>
      <trkpt lat="47.75316" lon="-3.40255">
        <ele>-96.10729</ele>
        <time>2020-12-29T17:10:56.000Z</time>
      </trkpt>
      <trkpt lat="47.75311" lon="-3.40258">
        <ele>-96.137458</ele>
        <time>2020-12-29T17:10:57.000Z</time>
      </trkpt>
      <trkpt lat="47.75279" lon="-3.4028">
        <ele>-96.337838</ele>
        <time>2020-12-29T17:11:03.000Z</time>
      </trkpt>
      <trkpt lat="47.75255" lon="-3.40298">
        <ele>-96.49387</ele>
        <time>2020-12-29T17:11:08.000Z</time>
      </trkpt>
      <trkpt lat="47.75225" lon="-3.40321">
        <ele>-96.687285</ele>
        <time>2020-12-29T17:11:14.000Z</time>
      </trkpt>
      <trkpt lat="47.75199" lon="-3.40341">
        <ele>-96.856273</ele>
        <time>2020-12-29T17:11:19.000Z</time>
      </trkpt>
      <trkpt lat="47.75195" lon="-3.40346">
        <ele>-96.890099</ele>
        <time>2020-12-29T17:11:20.000Z</time>
      </trkpt>
      <trkpt lat="47.75171" lon="-3.40374">
        <ele>-97.063292</ele>
        <time>2020-12-29T17:11:25.000Z</time>
      </trkpt>
      <trkpt lat="47.75152" lon="-3.40399">
        <ele>-97.226237</ele>
        <time>2020-12-29T17:11:29.000Z</time>
      </trkpt>
      <trkpt lat="47.75148" lon="-3.40405">
        <ele>-97.268712</ele>
        <time>2020-12-29T17:11:30.000Z</time>
      </trkpt>
      <trkpt lat="47.75127" lon="-3.40441">
        <ele>-97.488748</ele>
        <time>2020-12-29T17:11:35.000Z</time>
      </trkpt>
      <trkpt lat="47.75123" lon="-3.40449">
        <ele>-97.531933</ele>
        <time>2020-12-29T17:11:36.000Z</time>
      </trkpt>
      <trkpt lat="47.75104" lon="-3.40495">
        <ele>-97.780661</ele>
        <time>2020-12-29T17:11:42.000Z</time>
      </trkpt>
      <trkpt lat="47.75091" lon="-3.40547">
        <ele>-98.037488</ele>
        <time>2020-12-29T17:11:48.000Z</time>
      </trkpt>
      <trkpt lat="47.7509" lon="-3.40557">
        <ele>-98.081979</ele>
        <time>2020-12-29T17:11:49.000Z</time>
      </trkpt>
      <trkpt lat="47.75087" lon="-3.40575">
        <ele>-98.168564</ele>
        <time>2020-12-29T17:11:51.000Z</time>
      </trkpt>
      <trkpt lat="47.75082" lon="-3.40613">
        <ele>-98.346108</ele>
        <time>2020-12-29T17:11:55.000Z</time>
      </trkpt>
      <trkpt lat="47.75075" lon="-3.40666">
        <ele>-98.106676</ele>
        <time>2020-12-29T17:12:01.000Z</time>
      </trkpt>
      <trkpt lat="47.75067" lon="-3.40725">
        <ele>-97.833817</ele>
        <time>2020-12-29T17:12:08.000Z</time>
      </trkpt>
      <trkpt lat="47.75058" lon="-3.40783">
        <ele>-97.568198</ele>
        <time>2020-12-29T17:12:15.000Z</time>
      </trkpt>
      <trkpt lat="47.75051" lon="-3.40842">
        <ele>-97.298254</ele>
        <time>2020-12-29T17:12:22.000Z</time>
      </trkpt>
      <trkpt lat="47.75044" lon="-3.40889">
        <ele>-97.016882</ele>
        <time>2020-12-29T17:12:28.000Z</time>
      </trkpt>
      <trkpt lat="47.75042" lon="-3.40905">
        <ele>-96.866103</ele>
        <time>2020-12-29T17:12:30.000Z</time>
      </trkpt>
      <trkpt lat="47.75036" lon="-3.40949">
        <ele>-96.460753</ele>
        <time>2020-12-29T17:12:36.000Z</time>
      </trkpt>
      <trkpt lat="47.75031" lon="-3.40986">
        <ele>-96.107744</ele>
        <time>2020-12-29T17:12:41.000Z</time>
      </trkpt>
      <trkpt lat="47.75027" lon="-3.41008">
        <ele>-95.900457</ele>
        <time>2020-12-29T17:12:44.000Z</time>
      </trkpt>
      <trkpt lat="47.75022" lon="-3.41046">
        <ele>-95.550125</ele>
        <time>2020-12-29T17:12:49.000Z</time>
      </trkpt>
      <trkpt lat="47.7502" lon="-3.41054">
        <ele>-95.476964</ele>
        <time>2020-12-29T17:12:50.000Z</time>
      </trkpt>
      <trkpt lat="47.75014" lon="-3.411">
        <ele>-95.046907</ele>
        <time>2020-12-29T17:12:56.000Z</time>
      </trkpt>
      <trkpt lat="47.75007" lon="-3.41145">
        <ele>-94.656293</ele>
        <time>2020-12-29T17:13:02.000Z</time>
      </trkpt>
      <trkpt lat="47.75006" lon="-3.41153">
        <ele>-94.615292</ele>
        <time>2020-12-29T17:13:03.000Z</time>
      </trkpt>
      <trkpt lat="47.74998" lon="-3.41206">
        <ele>-94.335332</ele>
        <time>2020-12-29T17:13:10.000Z</time>
      </trkpt>
      <trkpt lat="47.74993" lon="-3.4126">
        <ele>-94.054373</ele>
        <time>2020-12-29T17:13:17.000Z</time>
      </trkpt>
      <trkpt lat="47.74987" lon="-3.41306">
        <ele>-93.815307</ele>
        <time>2020-12-29T17:13:23.000Z</time>
      </trkpt>
      <trkpt lat="47.74986" lon="-3.41322">
        <ele>-93.733854</ele>
        <time>2020-12-29T17:13:25.000Z</time>
      </trkpt>
      <trkpt lat="47.74982" lon="-3.41355">
        <ele>-93.563667</ele>
        <time>2020-12-29T17:13:29.000Z</time>
      </trkpt>
      <trkpt lat="47.74974" lon="-3.41402">
        <ele>-93.318982</ele>
        <time>2020-12-29T17:13:35.000Z</time>
      </trkpt>
      <trkpt lat="47.74965" lon="-3.41458">
        <ele>-93.11218</ele>
        <time>2020-12-29T17:13:42.000Z</time>
      </trkpt>
      <trkpt lat="47.74955" lon="-3.41533">
        <ele>-92.839148</ele>
        <time>2020-12-29T17:13:51.000Z</time>
      </trkpt>
      <trkpt lat="47.74954" lon="-3.41541">
        <ele>-92.809334</ele>
        <time>2020-12-29T17:13:52.000Z</time>
      </trkpt>
      <trkpt lat="47.74948" lon="-3.41597">
        <ele>-92.60576</ele>
        <time>2020-12-29T17:13:59.000Z</time>
      </trkpt>
      <trkpt lat="47.74941" lon="-3.41644">
        <ele>-92.43353</ele>
        <time>2020-12-29T17:14:05.000Z</time>
      </trkpt>
      <trkpt lat="47.7494" lon="-3.41652">
        <ele>-92.404772</ele>
        <time>2020-12-29T17:14:06.000Z</time>
      </trkpt>
      <trkpt lat="47.74937" lon="-3.417">
        <ele>-92.393796</ele>
        <time>2020-12-29T17:14:12.000Z</time>
      </trkpt>
      <trkpt lat="47.74935" lon="-3.41724">
        <ele>-92.408737</ele>
        <time>2020-12-29T17:14:15.000Z</time>
      </trkpt>
      <trkpt lat="47.74935" lon="-3.41741">
        <ele>-92.418725</ele>
        <time>2020-12-29T17:14:17.000Z</time>
      </trkpt>
      <trkpt lat="47.74935" lon="-3.41757">
        <ele>-92.428821</ele>
        <time>2020-12-29T17:14:19.000Z</time>
      </trkpt>
      <trkpt lat="47.74934" lon="-3.41799">
        <ele>-92.454469</ele>
        <time>2020-12-29T17:14:24.000Z</time>
      </trkpt>
      <trkpt lat="47.74934" lon="-3.41823">
        <ele>-92.469347</ele>
        <time>2020-12-29T17:14:27.000Z</time>
      </trkpt>
      <trkpt lat="47.74933" lon="-3.4184">
        <ele>-92.479324</ele>
        <time>2020-12-29T17:14:29.000Z</time>
      </trkpt>
      <trkpt lat="47.74933" lon="-3.41856">
        <ele>-92.48949</ele>
        <time>2020-12-29T17:14:31.000Z</time>
      </trkpt>
      <trkpt lat="47.74931" lon="-3.41898">
        <ele>-92.515211</ele>
        <time>2020-12-29T17:14:36.000Z</time>
      </trkpt>
      <trkpt lat="47.7493" lon="-3.4196">
        <ele>-92.763581</ele>
        <time>2020-12-29T17:14:43.000Z</time>
      </trkpt>
      <trkpt lat="47.74931" lon="-3.41968">
        <ele>-92.830847</ele>
        <time>2020-12-29T17:14:44.000Z</time>
      </trkpt>
      <trkpt lat="47.74934" lon="-3.41998">
        <ele>-93.053711</ele>
        <time>2020-12-29T17:14:47.000Z</time>
      </trkpt>
      <trkpt lat="47.74933" lon="-3.42016">
        <ele>-93.189673</ele>
        <time>2020-12-29T17:14:49.000Z</time>
      </trkpt>
      <trkpt lat="47.74933" lon="-3.42025">
        <ele>-93.256773</ele>
        <time>2020-12-29T17:14:50.000Z</time>
      </trkpt>
      <trkpt lat="47.74933" lon="-3.42043">
        <ele>-93.390955</ele>
        <time>2020-12-29T17:14:52.000Z</time>
      </trkpt>
      <trkpt lat="47.74932" lon="-3.4211">
        <ele>-93.888297</ele>
        <time>2020-12-29T17:14:59.000Z</time>
      </trkpt>
      <trkpt lat="47.74931" lon="-3.4212">
        <ele>-93.96064</ele>
        <time>2020-12-29T17:15:00.000Z</time>
      </trkpt>
      <trkpt lat="47.74932" lon="-3.42138">
        <ele>-94.093335</ele>
        <time>2020-12-29T17:15:02.000Z</time>
      </trkpt>
      <trkpt lat="47.7493" lon="-3.42154">
        <ele>-94.219398</ele>
        <time>2020-12-29T17:15:04.000Z</time>
      </trkpt>
      <trkpt lat="47.7493" lon="-3.42171">
        <ele>-94.346891</ele>
        <time>2020-12-29T17:15:06.000Z</time>
      </trkpt>
      <trkpt lat="47.7493" lon="-3.42198">
        <ele>-94.543014</ele>
        <time>2020-12-29T17:15:09.000Z</time>
      </trkpt>
      <trkpt lat="47.74932" lon="-3.42236">
        <ele>-94.777844</ele>
        <time>2020-12-29T17:15:13.000Z</time>
      </trkpt>
      <trkpt lat="47.74932" lon="-3.42254">
        <ele>-94.889511</ele>
        <time>2020-12-29T17:15:15.000Z</time>
      </trkpt>
      <trkpt lat="47.74935" lon="-3.42319">
        <ele>-95.295121</ele>
        <time>2020-12-29T17:15:22.000Z</time>
      </trkpt>
      <trkpt lat="47.74939" lon="-3.42352">
        <ele>-95.503963</ele>
        <time>2020-12-29T17:15:26.000Z</time>
      </trkpt>
      <trkpt lat="47.74944" lon="-3.42376">
        <ele>-95.665078</ele>
        <time>2020-12-29T17:15:29.000Z</time>
      </trkpt>
      <trkpt lat="47.74953" lon="-3.42427">
        <ele>-95.991754</ele>
        <time>2020-12-29T17:15:35.000Z</time>
      </trkpt>
      <trkpt lat="47.74954" lon="-3.42436">
        <ele>-96.044873</ele>
        <time>2020-12-29T17:15:36.000Z</time>
      </trkpt>
      <trkpt lat="47.74955" lon="-3.42452">
        <ele>-96.149462</ele>
        <time>2020-12-29T17:15:38.000Z</time>
      </trkpt>
      <trkpt lat="47.74957" lon="-3.4247">
        <ele>-96.108038</ele>
        <time>2020-12-29T17:15:40.000Z</time>
      </trkpt>
      <trkpt lat="47.74962" lon="-3.4252">
        <ele>-95.698381</ele>
        <time>2020-12-29T17:15:46.000Z</time>
      </trkpt>
      <trkpt lat="47.74965" lon="-3.42584">
        <ele>-95.166794</ele>
        <time>2020-12-29T17:15:54.000Z</time>
      </trkpt>
      <trkpt lat="47.74966" lon="-3.42625">
        <ele>-94.83601</ele>
        <time>2020-12-29T17:15:59.000Z</time>
      </trkpt>
      <trkpt lat="47.74966" lon="-3.42641">
        <ele>-94.699298</ele>
        <time>2020-12-29T17:16:01.000Z</time>
      </trkpt>
      <trkpt lat="47.74969" lon="-3.42698">
        <ele>-94.237755</ele>
        <time>2020-12-29T17:16:08.000Z</time>
      </trkpt>
      <trkpt lat="47.7497" lon="-3.42706">
        <ele>-94.172911</ele>
        <time>2020-12-29T17:16:09.000Z</time>
      </trkpt>
      <trkpt lat="47.74971" lon="-3.4276">
        <ele>-93.816155</ele>
        <time>2020-12-29T17:16:16.000Z</time>
      </trkpt>
      <trkpt lat="47.74975" lon="-3.42809">
        <ele>-93.549041</ele>
        <time>2020-12-29T17:16:22.000Z</time>
      </trkpt>
      <trkpt lat="47.74976" lon="-3.42855">
        <ele>-93.294662</ele>
        <time>2020-12-29T17:16:28.000Z</time>
      </trkpt>
      <trkpt lat="47.74976" lon="-3.42862">
        <ele>-93.252191</ele>
        <time>2020-12-29T17:16:29.000Z</time>
      </trkpt>
      <trkpt lat="47.74977" lon="-3.429">
        <ele>-93.042727</ele>
        <time>2020-12-29T17:16:34.000Z</time>
      </trkpt>
      <trkpt lat="47.74979" lon="-3.42957">
        <ele>-92.730894</ele>
        <time>2020-12-29T17:16:41.000Z</time>
      </trkpt>
      <trkpt lat="47.74979" lon="-3.4298">
        <ele>-92.601363</ele>
        <time>2020-12-29T17:16:44.000Z</time>
      </trkpt>
      <trkpt lat="47.74981" lon="-3.43012">
        <ele>-92.36208</ele>
        <time>2020-12-29T17:16:48.000Z</time>
      </trkpt>
      <trkpt lat="47.74983" lon="-3.43035">
        <ele>-92.160755</ele>
        <time>2020-12-29T17:16:51.000Z</time>
      </trkpt>
      <trkpt lat="47.74984" lon="-3.43049">
        <ele>-92.033998</ele>
        <time>2020-12-29T17:16:53.000Z</time>
      </trkpt>
      <trkpt lat="47.74986" lon="-3.4308">
        <ele>-91.759588</ele>
        <time>2020-12-29T17:16:57.000Z</time>
      </trkpt>
      <trkpt lat="47.74987" lon="-3.43094">
        <ele>-91.634379</ele>
        <time>2020-12-29T17:16:59.000Z</time>
      </trkpt>
      <trkpt lat="47.74989" lon="-3.43116">
        <ele>-91.43704</ele>
        <time>2020-12-29T17:17:02.000Z</time>
      </trkpt>
      <trkpt lat="47.7499" lon="-3.43139">
        <ele>-91.231716</ele>
        <time>2020-12-29T17:17:05.000Z</time>
      </trkpt>
      <trkpt lat="47.74994" lon="-3.4319">
        <ele>-90.780134</ele>
        <time>2020-12-29T17:17:12.000Z</time>
      </trkpt>
      <trkpt lat="47.74999" lon="-3.43231">
        <ele>-90.414857</ele>
        <time>2020-12-29T17:17:18.000Z</time>
      </trkpt>
      <trkpt lat="47.75004" lon="-3.43259">
        <ele>-90.152441</ele>
        <time>2020-12-29T17:17:22.000Z</time>
      </trkpt>
      <trkpt lat="47.7501" lon="-3.43294">
        <ele>-89.716615</ele>
        <time>2020-12-29T17:17:27.000Z</time>
      </trkpt>
      <trkpt lat="47.75012" lon="-3.43302">
        <ele>-89.619433</ele>
        <time>2020-12-29T17:17:28.000Z</time>
      </trkpt>
      <trkpt lat="47.75018" lon="-3.43331">
        <ele>-89.249573</ele>
        <time>2020-12-29T17:17:32.000Z</time>
      </trkpt>
      <trkpt lat="47.75026" lon="-3.43373">
        <ele>-88.718465</ele>
        <time>2020-12-29T17:17:38.000Z</time>
      </trkpt>
      <trkpt lat="47.75027" lon="-3.4338">
        <ele>-88.634982</ele>
        <time>2020-12-29T17:17:39.000Z</time>
      </trkpt>
      <trkpt lat="47.75031" lon="-3.43393">
        <ele>-88.460359</ele>
        <time>2020-12-29T17:17:42.000Z</time>
      </trkpt>
      <trkpt lat="47.75034" lon="-3.43402">
        <ele>-88.341799</ele>
        <time>2020-12-29T17:17:45.000Z</time>
      </trkpt>
      <trkpt lat="47.75033" lon="-3.43406">
        <ele>-88.295441</ele>
        <time>2020-12-29T17:17:46.000Z</time>
      </trkpt>
      <trkpt lat="47.75021" lon="-3.43422">
        <ele>-88.003407</ele>
        <time>2020-12-29T17:17:50.000Z</time>
      </trkpt>
      <trkpt lat="47.75016" lon="-3.43424">
        <ele>-87.913152</ele>
        <time>2020-12-29T17:17:51.000Z</time>
      </trkpt>
      <trkpt lat="47.74994" lon="-3.43434">
        <ele>-87.494295</ele>
        <time>2020-12-29T17:17:55.000Z</time>
      </trkpt>
      <trkpt lat="47.75011" lon="-3.43444">
        <ele>32.6</ele>
      </trkpt>
      <trkpt lat="47.75035" lon="-3.43573">
        <ele>33</ele>
      </trkpt>
      <trkpt lat="47.75164" lon="-3.44191">
        <ele>39.2</ele>
      </trkpt>
      <trkpt lat="47.75173" lon="-3.44448">
        <ele>36.4</ele>
      </trkpt>
      <trkpt lat="47.75092" lon="-3.44693">
        <ele>35.7</ele>
      </trkpt>
      <trkpt lat="47.74735" lon="-3.45058">
        <ele>37</ele>
      </trkpt>
      <trkpt lat="47.74339" lon="-3.45023">
        <ele>30.8</ele>
      </trkpt>
      <trkpt lat="47.74215" lon="-3.45105">
        <ele>30.8</ele>
      </trkpt>
      <trkpt lat="47.74059" lon="-3.45435">
        <ele>37.6</ele>
      </trkpt>
      <trkpt lat="47.7386" lon="-3.45487">
        <ele>38</ele>
      </trkpt>
      <trkpt lat="47.73526" lon="-3.45766">
        <ele>33</ele>
      </trkpt>
      <trkpt lat="47.7294" lon="-3.45748">
        <ele>33.3</ele>
      </trkpt>
      <trkpt lat="47.72775" lon="-3.45808">
        <ele>32.7</ele>
      </trkpt>
      <trkpt lat="47.72625" lon="-3.46053">
        <ele>32.9</ele>
      </trkpt>
      <trkpt lat="47.72519" lon="-3.46607">
        <ele>23.7</ele>
      </trkpt>
      <trkpt lat="47.72527" lon="-3.46838">
        <ele>21.6</ele>
      </trkpt>
      <trkpt lat="47.72721" lon="-3.47267">
        <ele>17.4</ele>
      </trkpt>
      <trkpt lat="47.72747" lon="-3.47439">
        <ele>12.3</ele>
      </trkpt>
      <trkpt lat="47.72928" lon="-3.47469">
        <ele>18.4</ele>
      </trkpt>
      <trkpt lat="47.72888" lon="-3.47525">
        <ele>14.3</ele>
      </trkpt>
      <trkpt lat="47.72894" lon="-3.47714">
        <ele>8.3</ele>
      </trkpt>
      <trkpt lat="47.72876" lon="-3.47864">
        <ele>7.9</ele>
      </trkpt>
      <trkpt lat="47.72951" lon="-3.4789">
        <ele>9.5</ele>
      </trkpt>
      <trkpt lat="47.73015" lon="-3.47834">
        <ele>12.5</ele>
      </trkpt>
      <trkpt lat="47.73029" lon="-3.48108">
        <ele>14.1</ele>
      </trkpt>
      <trkpt lat="47.72882" lon="-3.48568">
        <ele>18.4</ele>
      </trkpt>
      <trkpt lat="47.72571" lon="-3.48623">
        <ele>10</ele>
      </trkpt>
      <trkpt lat="47.72625" lon="-3.48864">
        <ele>13</ele>
      </trkpt>
      <trkpt lat="47.72539" lon="-3.48928">
        <ele>13.2</ele>
      </trkpt>
      <trkpt lat="47.72654" lon="-3.49258">
        <ele>10.3</ele>
      </trkpt>
      <trkpt lat="47.73133" lon="-3.49683">
        <ele>9.1</ele>
      </trkpt>
      <trkpt lat="47.73133" lon="-3.49683">
        <ele>9.1</ele>
      </trkpt>
      <trkpt lat="47.73302" lon="-3.49794">
        <ele>7</ele>
      </trkpt>
    </trkseg>
  </trk>
</gpx>